<?xml version="1.0" encoding="utf-8"?>
<gpx xmlns:xsi="http://www.w3.org/2001/XMLSchema-instance" xmlns:xsd="http://www.w3.org/2001/XMLSchema" version="1.1" creator="Shapelink.com" xmlns="http://www.topografix.com/GPX/1/1" xmlns:gpxtpx="http://www.garmin.com/xmlschemas/TrackPointExtension/v1">
  <metadata>
    <name>Sykling 110.06 km, 2013-05-26</name>
    <desc></desc>
    <author><name>Mikael Blom</name></author> 
    <time>2013-05-26T09:38:00Z</time>
  </metadata>
  <trk>
    <name>Sykling 110.06 km, 2013-05-26</name>
    <trkseg>
      <trkpt lat="59.9076357" lon="17.6437032">
        <ele>23.209</ele>
        <time>2013-05-26T09:38:00Z</time>
      </trkpt>
      <trkpt lat="59.9075486" lon="17.6436883">
        <ele>22.7283</ele>
        <time>2013-05-26T09:38:01Z</time>
      </trkpt>
      <trkpt lat="59.9074608" lon="17.6436709">
        <ele>22.7283</ele>
        <time>2013-05-26T09:38:02Z</time>
      </trkpt>
      <trkpt lat="59.9073721" lon="17.6436578">
        <ele>22.2476</ele>
        <time>2013-05-26T09:38:03Z</time>
      </trkpt>
      <trkpt lat="59.9072837" lon="17.6436458">
        <ele>22.2476</ele>
        <time>2013-05-26T09:38:04Z</time>
      </trkpt>
      <trkpt lat="59.9071951" lon="17.643628">
        <ele>22.2476</ele>
        <time>2013-05-26T09:38:05Z</time>
      </trkpt>
      <trkpt lat="59.907105" lon="17.6436075">
        <ele>21.767</ele>
        <time>2013-05-26T09:38:06Z</time>
      </trkpt>
      <trkpt lat="59.9070134" lon="17.6435857">
        <ele>21.767</ele>
        <time>2013-05-26T09:38:07Z</time>
      </trkpt>
      <trkpt lat="59.9069208" lon="17.6435629">
        <ele>21.2864</ele>
        <time>2013-05-26T09:38:08Z</time>
      </trkpt>
      <trkpt lat="59.9068284" lon="17.643538">
        <ele>21.2864</ele>
        <time>2013-05-26T09:38:09Z</time>
      </trkpt>
      <trkpt lat="59.9067358" lon="17.6435095">
        <ele>20.8057</ele>
        <time>2013-05-26T09:38:10Z</time>
      </trkpt>
      <trkpt lat="59.9066431" lon="17.643478">
        <ele>20.8057</ele>
        <time>2013-05-26T09:38:11Z</time>
      </trkpt>
      <trkpt lat="59.9065503" lon="17.643444">
        <ele>20.325</ele>
        <time>2013-05-26T09:38:12Z</time>
      </trkpt>
      <trkpt lat="59.906458" lon="17.6434111">
        <ele>20.325</ele>
        <time>2013-05-26T09:38:13Z</time>
      </trkpt>
      <trkpt lat="59.9063658" lon="17.643382">
        <ele>19.8444</ele>
        <time>2013-05-26T09:38:14Z</time>
      </trkpt>
      <trkpt lat="59.9062738" lon="17.643352">
        <ele>19.8444</ele>
        <time>2013-05-26T09:38:15Z</time>
      </trkpt>
      <trkpt lat="59.9061824" lon="17.6433163">
        <ele>19.3638</ele>
        <time>2013-05-26T09:38:16Z</time>
      </trkpt>
      <trkpt lat="59.9060925" lon="17.6432806">
        <ele>19.3638</ele>
        <time>2013-05-26T09:38:17Z</time>
      </trkpt>
      <trkpt lat="59.9060075" lon="17.6432562">
        <ele>19.3638</ele>
        <time>2013-05-26T09:38:18Z</time>
      </trkpt>
      <trkpt lat="59.905931" lon="17.6432567">
        <ele>19.3638</ele>
        <time>2013-05-26T09:38:19Z</time>
      </trkpt>
      <trkpt lat="59.9058713" lon="17.643292">
        <ele>19.3638</ele>
        <time>2013-05-26T09:38:20Z</time>
      </trkpt>
      <trkpt lat="59.9058298" lon="17.6433664">
        <ele>19.3638</ele>
        <time>2013-05-26T09:38:21Z</time>
      </trkpt>
      <trkpt lat="59.9058086" lon="17.6434728">
        <ele>18.8831</ele>
        <time>2013-05-26T09:38:22Z</time>
      </trkpt>
      <trkpt lat="59.9058107" lon="17.643597">
        <ele>18.4023</ele>
        <time>2013-05-26T09:38:23Z</time>
      </trkpt>
      <trkpt lat="59.9058366" lon="17.6437188">
        <ele>18.4023</ele>
        <time>2013-05-26T09:38:24Z</time>
      </trkpt>
      <trkpt lat="59.9058669" lon="17.6438404">
        <ele>17.9218</ele>
        <time>2013-05-26T09:38:25Z</time>
      </trkpt>
      <trkpt lat="59.9058993" lon="17.6439641">
        <ele>17.9218</ele>
        <time>2013-05-26T09:38:26Z</time>
      </trkpt>
      <trkpt lat="59.9059298" lon="17.644088">
        <ele>17.9218</ele>
        <time>2013-05-26T09:38:27Z</time>
      </trkpt>
      <trkpt lat="59.905968" lon="17.6442143">
        <ele>17.4412</ele>
        <time>2013-05-26T09:38:28Z</time>
      </trkpt>
      <trkpt lat="59.9060059" lon="17.644341">
        <ele>17.4412</ele>
        <time>2013-05-26T09:38:29Z</time>
      </trkpt>
      <trkpt lat="59.9060412" lon="17.6444688">
        <ele>17.4412</ele>
        <time>2013-05-26T09:38:30Z</time>
      </trkpt>
      <trkpt lat="59.9060729" lon="17.6446013">
        <ele>17.4412</ele>
        <time>2013-05-26T09:38:31Z</time>
      </trkpt>
      <trkpt lat="59.9061008" lon="17.6447373">
        <ele>16.9604</ele>
        <time>2013-05-26T09:38:32Z</time>
      </trkpt>
      <trkpt lat="59.9061194" lon="17.6448759">
        <ele>16.9604</ele>
        <time>2013-05-26T09:38:33Z</time>
      </trkpt>
      <trkpt lat="59.9061294" lon="17.6450138">
        <ele>16.4797</ele>
        <time>2013-05-26T09:38:34Z</time>
      </trkpt>
      <trkpt lat="59.9061291" lon="17.645149">
        <ele>16.9604</ele>
        <time>2013-05-26T09:38:35Z</time>
      </trkpt>
      <trkpt lat="59.9061267" lon="17.645281">
        <ele>16.9604</ele>
        <time>2013-05-26T09:38:36Z</time>
      </trkpt>
      <trkpt lat="59.9061224" lon="17.6454099">
        <ele>16.9604</ele>
        <time>2013-05-26T09:38:37Z</time>
      </trkpt>
      <trkpt lat="59.9061137" lon="17.6455363">
        <ele>17.4412</ele>
        <time>2013-05-26T09:38:38Z</time>
      </trkpt>
      <trkpt lat="59.9061011" lon="17.6456614">
        <ele>17.4412</ele>
        <time>2013-05-26T09:38:39Z</time>
      </trkpt>
      <trkpt lat="59.9060857" lon="17.645787">
        <ele>17.9218</ele>
        <time>2013-05-26T09:38:40Z</time>
      </trkpt>
      <trkpt lat="59.9060696" lon="17.645912">
        <ele>17.9218</ele>
        <time>2013-05-26T09:38:41Z</time>
      </trkpt>
      <trkpt lat="59.9060541" lon="17.6460365">
        <ele>18.4023</ele>
        <time>2013-05-26T09:38:42Z</time>
      </trkpt>
      <trkpt lat="59.906038" lon="17.6461608">
        <ele>18.4023</ele>
        <time>2013-05-26T09:38:43Z</time>
      </trkpt>
      <trkpt lat="59.9060209" lon="17.646286">
        <ele>18.8831</ele>
        <time>2013-05-26T09:38:44Z</time>
      </trkpt>
      <trkpt lat="59.9060044" lon="17.6464135">
        <ele>18.8831</ele>
        <time>2013-05-26T09:38:45Z</time>
      </trkpt>
      <trkpt lat="59.9059894" lon="17.6465415">
        <ele>19.3638</ele>
        <time>2013-05-26T09:38:46Z</time>
      </trkpt>
      <trkpt lat="59.9059757" lon="17.6466678">
        <ele>19.3638</ele>
        <time>2013-05-26T09:38:47Z</time>
      </trkpt>
      <trkpt lat="59.9059635" lon="17.6467948">
        <ele>19.8444</ele>
        <time>2013-05-26T09:38:48Z</time>
      </trkpt>
      <trkpt lat="59.9059517" lon="17.6469247">
        <ele>19.8444</ele>
        <time>2013-05-26T09:38:49Z</time>
      </trkpt>
      <trkpt lat="59.9059411" lon="17.6470558">
        <ele>20.325</ele>
        <time>2013-05-26T09:38:50Z</time>
      </trkpt>
      <trkpt lat="59.9059351" lon="17.647188">
        <ele>20.325</ele>
        <time>2013-05-26T09:38:51Z</time>
      </trkpt>
      <trkpt lat="59.9059324" lon="17.6473246">
        <ele>20.8057</ele>
        <time>2013-05-26T09:38:52Z</time>
      </trkpt>
      <trkpt lat="59.9059361" lon="17.6474622">
        <ele>20.8057</ele>
        <time>2013-05-26T09:38:53Z</time>
      </trkpt>
      <trkpt lat="59.9059443" lon="17.6476001">
        <ele>21.2864</ele>
        <time>2013-05-26T09:38:54Z</time>
      </trkpt>
      <trkpt lat="59.9059572" lon="17.6477365">
        <ele>21.2864</ele>
        <time>2013-05-26T09:38:55Z</time>
      </trkpt>
      <trkpt lat="59.9059749" lon="17.6478705">
        <ele>21.2864</ele>
        <time>2013-05-26T09:38:56Z</time>
      </trkpt>
      <trkpt lat="59.9059972" lon="17.648">
        <ele>21.767</ele>
        <time>2013-05-26T09:38:57Z</time>
      </trkpt>
      <trkpt lat="59.9060236" lon="17.6481255">
        <ele>21.767</ele>
        <time>2013-05-26T09:38:58Z</time>
      </trkpt>
      <trkpt lat="59.9060544" lon="17.648247">
        <ele>21.767</ele>
        <time>2013-05-26T09:38:59Z</time>
      </trkpt>
      <trkpt lat="59.9060903" lon="17.6483622">
        <ele>21.767</ele>
        <time>2013-05-26T09:39:00Z</time>
      </trkpt>
      <trkpt lat="59.9061298" lon="17.648472">
        <ele>22.2476</ele>
        <time>2013-05-26T09:39:01Z</time>
      </trkpt>
      <trkpt lat="59.9061702" lon="17.6485762">
        <ele>22.2476</ele>
        <time>2013-05-26T09:39:02Z</time>
      </trkpt>
      <trkpt lat="59.9062101" lon="17.6486787">
        <ele>22.2476</ele>
        <time>2013-05-26T09:39:03Z</time>
      </trkpt>
      <trkpt lat="59.9062494" lon="17.6487813">
        <ele>22.2476</ele>
        <time>2013-05-26T09:39:04Z</time>
      </trkpt>
      <trkpt lat="59.9062889" lon="17.6488822">
        <ele>22.2476</ele>
        <time>2013-05-26T09:39:05Z</time>
      </trkpt>
      <trkpt lat="59.9063276" lon="17.6489826">
        <ele>22.2476</ele>
        <time>2013-05-26T09:39:06Z</time>
      </trkpt>
      <trkpt lat="59.9063644" lon="17.6490836">
        <ele>22.2476</ele>
        <time>2013-05-26T09:39:07Z</time>
      </trkpt>
      <trkpt lat="59.9063986" lon="17.6491851">
        <ele>22.7283</ele>
        <time>2013-05-26T09:39:08Z</time>
      </trkpt>
      <trkpt lat="59.9064303" lon="17.6492874">
        <ele>22.7283</ele>
        <time>2013-05-26T09:39:09Z</time>
      </trkpt>
      <trkpt lat="59.9064601" lon="17.6493905">
        <ele>22.7283</ele>
        <time>2013-05-26T09:39:10Z</time>
      </trkpt>
      <trkpt lat="59.9064885" lon="17.649492">
        <ele>22.7283</ele>
        <time>2013-05-26T09:39:11Z</time>
      </trkpt>
      <trkpt lat="59.9065156" lon="17.6495924">
        <ele>23.209</ele>
        <time>2013-05-26T09:39:12Z</time>
      </trkpt>
      <trkpt lat="59.9065412" lon="17.649692">
        <ele>23.209</ele>
        <time>2013-05-26T09:39:13Z</time>
      </trkpt>
      <trkpt lat="59.906565" lon="17.649791">
        <ele>23.209</ele>
        <time>2013-05-26T09:39:14Z</time>
      </trkpt>
      <trkpt lat="59.9065876" lon="17.6498899">
        <ele>23.6896</ele>
        <time>2013-05-26T09:39:15Z</time>
      </trkpt>
      <trkpt lat="59.9066099" lon="17.6499875">
        <ele>23.6896</ele>
        <time>2013-05-26T09:39:16Z</time>
      </trkpt>
      <trkpt lat="59.9066315" lon="17.6500832">
        <ele>24.1703</ele>
        <time>2013-05-26T09:39:17Z</time>
      </trkpt>
      <trkpt lat="59.9066519" lon="17.6501788">
        <ele>24.1703</ele>
        <time>2013-05-26T09:39:18Z</time>
      </trkpt>
      <trkpt lat="59.9066742" lon="17.6502731">
        <ele>24.1703</ele>
        <time>2013-05-26T09:39:19Z</time>
      </trkpt>
      <trkpt lat="59.9066981" lon="17.650367">
        <ele>24.1703</ele>
        <time>2013-05-26T09:39:20Z</time>
      </trkpt>
      <trkpt lat="59.9067218" lon="17.6504622">
        <ele>24.1703</ele>
        <time>2013-05-26T09:39:21Z</time>
      </trkpt>
      <trkpt lat="59.9067446" lon="17.6505586">
        <ele>24.1703</ele>
        <time>2013-05-26T09:39:22Z</time>
      </trkpt>
      <trkpt lat="59.906767" lon="17.6506555">
        <ele>24.1703</ele>
        <time>2013-05-26T09:39:23Z</time>
      </trkpt>
      <trkpt lat="59.9067892" lon="17.6507526">
        <ele>24.1703</ele>
        <time>2013-05-26T09:39:24Z</time>
      </trkpt>
      <trkpt lat="59.9068115" lon="17.6508492">
        <ele>24.1703</ele>
        <time>2013-05-26T09:39:25Z</time>
      </trkpt>
      <trkpt lat="59.9068348" lon="17.6509466">
        <ele>24.1703</ele>
        <time>2013-05-26T09:39:26Z</time>
      </trkpt>
      <trkpt lat="59.9068586" lon="17.6510456">
        <ele>24.1703</ele>
        <time>2013-05-26T09:39:27Z</time>
      </trkpt>
      <trkpt lat="59.9068819" lon="17.6511453">
        <ele>24.651</ele>
        <time>2013-05-26T09:39:28Z</time>
      </trkpt>
      <trkpt lat="59.906905" lon="17.6512445">
        <ele>24.651</ele>
        <time>2013-05-26T09:39:29Z</time>
      </trkpt>
      <trkpt lat="59.9069275" lon="17.6513444">
        <ele>24.651</ele>
        <time>2013-05-26T09:39:30Z</time>
      </trkpt>
      <trkpt lat="59.9069492" lon="17.6514449">
        <ele>24.651</ele>
        <time>2013-05-26T09:39:31Z</time>
      </trkpt>
      <trkpt lat="59.9069698" lon="17.6515454">
        <ele>24.651</ele>
        <time>2013-05-26T09:39:32Z</time>
      </trkpt>
      <trkpt lat="59.9069881" lon="17.6516459">
        <ele>24.651</ele>
        <time>2013-05-26T09:39:33Z</time>
      </trkpt>
      <trkpt lat="59.9070052" lon="17.6517454">
        <ele>24.651</ele>
        <time>2013-05-26T09:39:34Z</time>
      </trkpt>
      <trkpt lat="59.9070208" lon="17.6518456">
        <ele>25.1317</ele>
        <time>2013-05-26T09:39:35Z</time>
      </trkpt>
      <trkpt lat="59.9070348" lon="17.6519472">
        <ele>25.1317</ele>
        <time>2013-05-26T09:39:36Z</time>
      </trkpt>
      <trkpt lat="59.9070502" lon="17.6520509">
        <ele>25.1317</ele>
        <time>2013-05-26T09:39:37Z</time>
      </trkpt>
      <trkpt lat="59.9070622" lon="17.6521578">
        <ele>25.1317</ele>
        <time>2013-05-26T09:39:38Z</time>
      </trkpt>
      <trkpt lat="59.9070704" lon="17.652267">
        <ele>25.6123</ele>
        <time>2013-05-26T09:39:39Z</time>
      </trkpt>
      <trkpt lat="59.9070775" lon="17.6523778">
        <ele>25.6123</ele>
        <time>2013-05-26T09:39:40Z</time>
      </trkpt>
      <trkpt lat="59.9070834" lon="17.6524906">
        <ele>26.0929</ele>
        <time>2013-05-26T09:39:41Z</time>
      </trkpt>
      <trkpt lat="59.9070865" lon="17.6526031">
        <ele>26.0929</ele>
        <time>2013-05-26T09:39:42Z</time>
      </trkpt>
      <trkpt lat="59.9070874" lon="17.6527165">
        <ele>26.5736</ele>
        <time>2013-05-26T09:39:43Z</time>
      </trkpt>
      <trkpt lat="59.9070871" lon="17.6528302">
        <ele>26.5736</ele>
        <time>2013-05-26T09:39:44Z</time>
      </trkpt>
      <trkpt lat="59.9070864" lon="17.6529439">
        <ele>27.0543</ele>
        <time>2013-05-26T09:39:45Z</time>
      </trkpt>
      <trkpt lat="59.907085" lon="17.653057">
        <ele>27.0543</ele>
        <time>2013-05-26T09:39:46Z</time>
      </trkpt>
      <trkpt lat="59.9070819" lon="17.6531688">
        <ele>27.5349</ele>
        <time>2013-05-26T09:39:47Z</time>
      </trkpt>
      <trkpt lat="59.9070767" lon="17.6532795">
        <ele>27.5349</ele>
        <time>2013-05-26T09:39:48Z</time>
      </trkpt>
      <trkpt lat="59.9070719" lon="17.6533911">
        <ele>28.0155</ele>
        <time>2013-05-26T09:39:49Z</time>
      </trkpt>
      <trkpt lat="59.907067" lon="17.653504">
        <ele>28.0155</ele>
        <time>2013-05-26T09:39:50Z</time>
      </trkpt>
      <trkpt lat="59.9070621" lon="17.6536174">
        <ele>28.0155</ele>
        <time>2013-05-26T09:39:51Z</time>
      </trkpt>
      <trkpt lat="59.9070575" lon="17.6537322">
        <ele>28.4962</ele>
        <time>2013-05-26T09:39:52Z</time>
      </trkpt>
      <trkpt lat="59.9070533" lon="17.6538486">
        <ele>28.4962</ele>
        <time>2013-05-26T09:39:53Z</time>
      </trkpt>
      <trkpt lat="59.9070492" lon="17.6539664">
        <ele>28.4962</ele>
        <time>2013-05-26T09:39:54Z</time>
      </trkpt>
      <trkpt lat="59.9070456" lon="17.6540847">
        <ele>28.4962</ele>
        <time>2013-05-26T09:39:55Z</time>
      </trkpt>
      <trkpt lat="59.9070416" lon="17.6542031">
        <ele>28.9769</ele>
        <time>2013-05-26T09:39:56Z</time>
      </trkpt>
      <trkpt lat="59.9070373" lon="17.6543223">
        <ele>28.9769</ele>
        <time>2013-05-26T09:39:57Z</time>
      </trkpt>
      <trkpt lat="59.9070333" lon="17.6544421">
        <ele>28.9769</ele>
        <time>2013-05-26T09:39:58Z</time>
      </trkpt>
      <trkpt lat="59.9070297" lon="17.6545619">
        <ele>28.9769</ele>
        <time>2013-05-26T09:39:59Z</time>
      </trkpt>
      <trkpt lat="59.9070268" lon="17.6546814">
        <ele>29.4575</ele>
        <time>2013-05-26T09:40:00Z</time>
      </trkpt>
      <trkpt lat="59.9070233" lon="17.6547995">
        <ele>29.4575</ele>
        <time>2013-05-26T09:40:01Z</time>
      </trkpt>
      <trkpt lat="59.9070207" lon="17.6549151">
        <ele>29.4575</ele>
        <time>2013-05-26T09:40:02Z</time>
      </trkpt>
      <trkpt lat="59.9070181" lon="17.6550302">
        <ele>29.4575</ele>
        <time>2013-05-26T09:40:03Z</time>
      </trkpt>
      <trkpt lat="59.9070187" lon="17.6551466">
        <ele>29.4575</ele>
        <time>2013-05-26T09:40:04Z</time>
      </trkpt>
      <trkpt lat="59.9070206" lon="17.6552626">
        <ele>29.9381</ele>
        <time>2013-05-26T09:40:05Z</time>
      </trkpt>
      <trkpt lat="59.9070214" lon="17.6553782">
        <ele>29.9381</ele>
        <time>2013-05-26T09:40:06Z</time>
      </trkpt>
      <trkpt lat="59.9070223" lon="17.6554927">
        <ele>29.9381</ele>
        <time>2013-05-26T09:40:07Z</time>
      </trkpt>
      <trkpt lat="59.9070249" lon="17.655606">
        <ele>30.4188</ele>
        <time>2013-05-26T09:40:08Z</time>
      </trkpt>
      <trkpt lat="59.9070278" lon="17.6557185">
        <ele>30.4188</ele>
        <time>2013-05-26T09:40:09Z</time>
      </trkpt>
      <trkpt lat="59.9070295" lon="17.6558294">
        <ele>30.4188</ele>
        <time>2013-05-26T09:40:10Z</time>
      </trkpt>
      <trkpt lat="59.9070314" lon="17.6559391">
        <ele>30.8995</ele>
        <time>2013-05-26T09:40:11Z</time>
      </trkpt>
      <trkpt lat="59.9070328" lon="17.656047">
        <ele>30.8995</ele>
        <time>2013-05-26T09:40:12Z</time>
      </trkpt>
      <trkpt lat="59.9070341" lon="17.6561527">
        <ele>30.8995</ele>
        <time>2013-05-26T09:40:13Z</time>
      </trkpt>
      <trkpt lat="59.9070364" lon="17.6562561">
        <ele>31.3801</ele>
        <time>2013-05-26T09:40:14Z</time>
      </trkpt>
      <trkpt lat="59.9070388" lon="17.6563568">
        <ele>31.3801</ele>
        <time>2013-05-26T09:40:15Z</time>
      </trkpt>
      <trkpt lat="59.9070446" lon="17.6564556">
        <ele>31.8607</ele>
        <time>2013-05-26T09:40:16Z</time>
      </trkpt>
      <trkpt lat="59.9070511" lon="17.6565534">
        <ele>31.8607</ele>
        <time>2013-05-26T09:40:17Z</time>
      </trkpt>
      <trkpt lat="59.9070616" lon="17.6566406">
        <ele>31.8607</ele>
        <time>2013-05-26T09:40:18Z</time>
      </trkpt>
      <trkpt lat="59.9070729" lon="17.6567302">
        <ele>31.8607</ele>
        <time>2013-05-26T09:40:19Z</time>
      </trkpt>
      <trkpt lat="59.9070849" lon="17.6568227">
        <ele>31.8607</ele>
        <time>2013-05-26T09:40:20Z</time>
      </trkpt>
      <trkpt lat="59.9071009" lon="17.6569182">
        <ele>31.8607</ele>
        <time>2013-05-26T09:40:21Z</time>
      </trkpt>
      <trkpt lat="59.9071181" lon="17.657017">
        <ele>31.8607</ele>
        <time>2013-05-26T09:40:22Z</time>
      </trkpt>
      <trkpt lat="59.9071373" lon="17.6571183">
        <ele>31.8607</ele>
        <time>2013-05-26T09:40:23Z</time>
      </trkpt>
      <trkpt lat="59.9071545" lon="17.6572193">
        <ele>31.8607</ele>
        <time>2013-05-26T09:40:24Z</time>
      </trkpt>
      <trkpt lat="59.9071729" lon="17.6573208">
        <ele>31.8607</ele>
        <time>2013-05-26T09:40:25Z</time>
      </trkpt>
      <trkpt lat="59.9071922" lon="17.6574222">
        <ele>31.8607</ele>
        <time>2013-05-26T09:40:26Z</time>
      </trkpt>
      <trkpt lat="59.907212" lon="17.6575244">
        <ele>31.8607</ele>
        <time>2013-05-26T09:40:27Z</time>
      </trkpt>
      <trkpt lat="59.9072315" lon="17.6576279">
        <ele>31.8607</ele>
        <time>2013-05-26T09:40:28Z</time>
      </trkpt>
      <trkpt lat="59.9072505" lon="17.6577326">
        <ele>31.8607</ele>
        <time>2013-05-26T09:40:29Z</time>
      </trkpt>
      <trkpt lat="59.9072683" lon="17.6578387">
        <ele>31.8607</ele>
        <time>2013-05-26T09:40:30Z</time>
      </trkpt>
      <trkpt lat="59.9072856" lon="17.6579454">
        <ele>31.8607</ele>
        <time>2013-05-26T09:40:31Z</time>
      </trkpt>
      <trkpt lat="59.9073019" lon="17.6580532">
        <ele>31.8607</ele>
        <time>2013-05-26T09:40:32Z</time>
      </trkpt>
      <trkpt lat="59.907317" lon="17.6581598">
        <ele>31.8607</ele>
        <time>2013-05-26T09:40:33Z</time>
      </trkpt>
      <trkpt lat="59.9073324" lon="17.658265">
        <ele>31.8607</ele>
        <time>2013-05-26T09:40:34Z</time>
      </trkpt>
      <trkpt lat="59.9073462" lon="17.6583717">
        <ele>31.8607</ele>
        <time>2013-05-26T09:40:35Z</time>
      </trkpt>
      <trkpt lat="59.9073591" lon="17.6584748">
        <ele>31.8607</ele>
        <time>2013-05-26T09:40:36Z</time>
      </trkpt>
      <trkpt lat="59.9073724" lon="17.6585753">
        <ele>32.3416</ele>
        <time>2013-05-26T09:40:37Z</time>
      </trkpt>
      <trkpt lat="59.9073845" lon="17.6586733">
        <ele>32.8223</ele>
        <time>2013-05-26T09:40:38Z</time>
      </trkpt>
      <trkpt lat="59.9073953" lon="17.6587705">
        <ele>32.8223</ele>
        <time>2013-05-26T09:40:39Z</time>
      </trkpt>
      <trkpt lat="59.9074045" lon="17.658867">
        <ele>32.8223</ele>
        <time>2013-05-26T09:40:40Z</time>
      </trkpt>
      <trkpt lat="59.9074113" lon="17.6589662">
        <ele>33.3029</ele>
        <time>2013-05-26T09:40:41Z</time>
      </trkpt>
      <trkpt lat="59.9074169" lon="17.659067">
        <ele>33.3029</ele>
        <time>2013-05-26T09:40:42Z</time>
      </trkpt>
      <trkpt lat="59.9074232" lon="17.6591693">
        <ele>33.3029</ele>
        <time>2013-05-26T09:40:43Z</time>
      </trkpt>
      <trkpt lat="59.9074305" lon="17.6592751">
        <ele>32.8223</ele>
        <time>2013-05-26T09:40:44Z</time>
      </trkpt>
      <trkpt lat="59.9074398" lon="17.6593845">
        <ele>32.8223</ele>
        <time>2013-05-26T09:40:45Z</time>
      </trkpt>
      <trkpt lat="59.9074496" lon="17.6594958">
        <ele>32.8223</ele>
        <time>2013-05-26T09:40:46Z</time>
      </trkpt>
      <trkpt lat="59.9074598" lon="17.6596071">
        <ele>32.3416</ele>
        <time>2013-05-26T09:40:47Z</time>
      </trkpt>
      <trkpt lat="59.9074719" lon="17.6597194">
        <ele>32.3416</ele>
        <time>2013-05-26T09:40:48Z</time>
      </trkpt>
      <trkpt lat="59.9074858" lon="17.6598319">
        <ele>32.3416</ele>
        <time>2013-05-26T09:40:49Z</time>
      </trkpt>
      <trkpt lat="59.9074978" lon="17.6599589">
        <ele>32.3416</ele>
        <time>2013-05-26T09:40:50Z</time>
      </trkpt>
      <trkpt lat="59.9075143" lon="17.6600744">
        <ele>31.8607</ele>
        <time>2013-05-26T09:40:51Z</time>
      </trkpt>
      <trkpt lat="59.9075318" lon="17.6601956">
        <ele>31.3801</ele>
        <time>2013-05-26T09:40:52Z</time>
      </trkpt>
      <trkpt lat="59.907559" lon="17.6603095">
        <ele>31.8607</ele>
        <time>2013-05-26T09:40:53Z</time>
      </trkpt>
      <trkpt lat="59.9075744" lon="17.6604135">
        <ele>31.8607</ele>
        <time>2013-05-26T09:40:54Z</time>
      </trkpt>
      <trkpt lat="59.9075849" lon="17.6605228">
        <ele>31.8607</ele>
        <time>2013-05-26T09:40:55Z</time>
      </trkpt>
      <trkpt lat="59.9075955" lon="17.6606288">
        <ele>31.8607</ele>
        <time>2013-05-26T09:40:56Z</time>
      </trkpt>
      <trkpt lat="59.9076066" lon="17.6607328">
        <ele>31.8607</ele>
        <time>2013-05-26T09:40:57Z</time>
      </trkpt>
      <trkpt lat="59.9076179" lon="17.6608338">
        <ele>31.8607</ele>
        <time>2013-05-26T09:40:58Z</time>
      </trkpt>
      <trkpt lat="59.9076299" lon="17.6609333">
        <ele>31.8607</ele>
        <time>2013-05-26T09:40:59Z</time>
      </trkpt>
      <trkpt lat="59.9076427" lon="17.6610348">
        <ele>31.3801</ele>
        <time>2013-05-26T09:41:00Z</time>
      </trkpt>
      <trkpt lat="59.9076532" lon="17.6611457">
        <ele>31.3801</ele>
        <time>2013-05-26T09:41:01Z</time>
      </trkpt>
      <trkpt lat="59.907663" lon="17.6612638">
        <ele>30.8995</ele>
        <time>2013-05-26T09:41:02Z</time>
      </trkpt>
      <trkpt lat="59.9076722" lon="17.6613869">
        <ele>30.8995</ele>
        <time>2013-05-26T09:41:03Z</time>
      </trkpt>
      <trkpt lat="59.9076798" lon="17.6615127">
        <ele>30.4188</ele>
        <time>2013-05-26T09:41:04Z</time>
      </trkpt>
      <trkpt lat="59.9076881" lon="17.6616425">
        <ele>30.4188</ele>
        <time>2013-05-26T09:41:05Z</time>
      </trkpt>
      <trkpt lat="59.9076982" lon="17.6617751">
        <ele>30.4188</ele>
        <time>2013-05-26T09:41:06Z</time>
      </trkpt>
      <trkpt lat="59.9077165" lon="17.6619119">
        <ele>30.4188</ele>
        <time>2013-05-26T09:41:07Z</time>
      </trkpt>
      <trkpt lat="59.9077352" lon="17.6620469">
        <ele>30.8995</ele>
        <time>2013-05-26T09:41:08Z</time>
      </trkpt>
      <trkpt lat="59.9077563" lon="17.6621786">
        <ele>30.8995</ele>
        <time>2013-05-26T09:41:09Z</time>
      </trkpt>
      <trkpt lat="59.9077755" lon="17.6623049">
        <ele>30.8995</ele>
        <time>2013-05-26T09:41:10Z</time>
      </trkpt>
      <trkpt lat="59.9077926" lon="17.6624324">
        <ele>30.8995</ele>
        <time>2013-05-26T09:41:11Z</time>
      </trkpt>
      <trkpt lat="59.9078085" lon="17.66256">
        <ele>30.8995</ele>
        <time>2013-05-26T09:41:12Z</time>
      </trkpt>
      <trkpt lat="59.9078241" lon="17.6626925">
        <ele>31.3801</ele>
        <time>2013-05-26T09:41:13Z</time>
      </trkpt>
      <trkpt lat="59.9078412" lon="17.6628233">
        <ele>31.8607</ele>
        <time>2013-05-26T09:41:14Z</time>
      </trkpt>
      <trkpt lat="59.9078576" lon="17.6629513">
        <ele>31.8607</ele>
        <time>2013-05-26T09:41:15Z</time>
      </trkpt>
      <trkpt lat="59.907873" lon="17.6630782">
        <ele>32.3416</ele>
        <time>2013-05-26T09:41:16Z</time>
      </trkpt>
      <trkpt lat="59.9078885" lon="17.6632042">
        <ele>32.3416</ele>
        <time>2013-05-26T09:41:17Z</time>
      </trkpt>
      <trkpt lat="59.9079034" lon="17.6633305">
        <ele>32.3416</ele>
        <time>2013-05-26T09:41:18Z</time>
      </trkpt>
      <trkpt lat="59.9079164" lon="17.6634565">
        <ele>32.3416</ele>
        <time>2013-05-26T09:41:19Z</time>
      </trkpt>
      <trkpt lat="59.9079272" lon="17.6635815">
        <ele>32.3416</ele>
        <time>2013-05-26T09:41:20Z</time>
      </trkpt>
      <trkpt lat="59.9079382" lon="17.6637076">
        <ele>32.3416</ele>
        <time>2013-05-26T09:41:21Z</time>
      </trkpt>
      <trkpt lat="59.9079495" lon="17.6638353">
        <ele>32.3416</ele>
        <time>2013-05-26T09:41:22Z</time>
      </trkpt>
      <trkpt lat="59.9079607" lon="17.663966">
        <ele>32.3416</ele>
        <time>2013-05-26T09:41:23Z</time>
      </trkpt>
      <trkpt lat="59.9079753" lon="17.6641014">
        <ele>32.8223</ele>
        <time>2013-05-26T09:41:24Z</time>
      </trkpt>
      <trkpt lat="59.9079856" lon="17.6642377">
        <ele>33.3029</ele>
        <time>2013-05-26T09:41:25Z</time>
      </trkpt>
      <trkpt lat="59.9079884" lon="17.6643706">
        <ele>33.3029</ele>
        <time>2013-05-26T09:41:26Z</time>
      </trkpt>
      <trkpt lat="59.9079972" lon="17.6644999">
        <ele>33.7834</ele>
        <time>2013-05-26T09:41:27Z</time>
      </trkpt>
      <trkpt lat="59.907994" lon="17.664645">
        <ele>34.2642</ele>
        <time>2013-05-26T09:41:28Z</time>
      </trkpt>
      <trkpt lat="59.9079791" lon="17.6647867">
        <ele>34.2642</ele>
        <time>2013-05-26T09:41:29Z</time>
      </trkpt>
      <trkpt lat="59.9079646" lon="17.6649057">
        <ele>34.2642</ele>
        <time>2013-05-26T09:41:30Z</time>
      </trkpt>
      <trkpt lat="59.9079473" lon="17.6650208">
        <ele>34.2642</ele>
        <time>2013-05-26T09:41:31Z</time>
      </trkpt>
      <trkpt lat="59.9079299" lon="17.6651523">
        <ele>33.7834</ele>
        <time>2013-05-26T09:41:32Z</time>
      </trkpt>
      <trkpt lat="59.9079128" lon="17.665278">
        <ele>33.3029</ele>
        <time>2013-05-26T09:41:33Z</time>
      </trkpt>
      <trkpt lat="59.9078944" lon="17.6654049">
        <ele>33.3029</ele>
        <time>2013-05-26T09:41:34Z</time>
      </trkpt>
      <trkpt lat="59.907879" lon="17.6655255">
        <ele>32.8223</ele>
        <time>2013-05-26T09:41:35Z</time>
      </trkpt>
      <trkpt lat="59.9078568" lon="17.6656395">
        <ele>32.3416</ele>
        <time>2013-05-26T09:41:36Z</time>
      </trkpt>
      <trkpt lat="59.9078402" lon="17.6657673">
        <ele>32.8223</ele>
        <time>2013-05-26T09:41:37Z</time>
      </trkpt>
      <trkpt lat="59.907818" lon="17.6659026">
        <ele>32.8223</ele>
        <time>2013-05-26T09:41:38Z</time>
      </trkpt>
      <trkpt lat="59.9077952" lon="17.6660537">
        <ele>32.8223</ele>
        <time>2013-05-26T09:41:39Z</time>
      </trkpt>
      <trkpt lat="59.9077727" lon="17.6662066">
        <ele>33.3029</ele>
        <time>2013-05-26T09:41:40Z</time>
      </trkpt>
      <trkpt lat="59.9077551" lon="17.666357">
        <ele>33.3029</ele>
        <time>2013-05-26T09:41:41Z</time>
      </trkpt>
      <trkpt lat="59.9077414" lon="17.6664973">
        <ele>33.3029</ele>
        <time>2013-05-26T09:41:42Z</time>
      </trkpt>
      <trkpt lat="59.9077237" lon="17.6666418">
        <ele>33.3029</ele>
        <time>2013-05-26T09:41:43Z</time>
      </trkpt>
      <trkpt lat="59.9077112" lon="17.6667837">
        <ele>33.3029</ele>
        <time>2013-05-26T09:41:44Z</time>
      </trkpt>
      <trkpt lat="59.9077079" lon="17.6669289">
        <ele>33.7834</ele>
        <time>2013-05-26T09:41:45Z</time>
      </trkpt>
      <trkpt lat="59.9077056" lon="17.6670768">
        <ele>34.2642</ele>
        <time>2013-05-26T09:41:46Z</time>
      </trkpt>
      <trkpt lat="59.907703" lon="17.667225">
        <ele>34.7449</ele>
        <time>2013-05-26T09:41:47Z</time>
      </trkpt>
      <trkpt lat="59.9076961" lon="17.6673721">
        <ele>34.7449</ele>
        <time>2013-05-26T09:41:48Z</time>
      </trkpt>
      <trkpt lat="59.9076872" lon="17.6675182">
        <ele>34.7449</ele>
        <time>2013-05-26T09:41:49Z</time>
      </trkpt>
      <trkpt lat="59.9076817" lon="17.6676684">
        <ele>34.7449</ele>
        <time>2013-05-26T09:41:50Z</time>
      </trkpt>
      <trkpt lat="59.9076678" lon="17.6678151">
        <ele>35.2255</ele>
        <time>2013-05-26T09:41:51Z</time>
      </trkpt>
      <trkpt lat="59.9076455" lon="17.6679519">
        <ele>34.7449</ele>
        <time>2013-05-26T09:41:52Z</time>
      </trkpt>
      <trkpt lat="59.907614" lon="17.6680688">
        <ele>34.2642</ele>
        <time>2013-05-26T09:41:53Z</time>
      </trkpt>
      <trkpt lat="59.9075651" lon="17.6681681">
        <ele>33.7834</ele>
        <time>2013-05-26T09:41:54Z</time>
      </trkpt>
      <trkpt lat="59.9074943" lon="17.6682454">
        <ele>33.7834</ele>
        <time>2013-05-26T09:41:55Z</time>
      </trkpt>
      <trkpt lat="59.9074169" lon="17.668298">
        <ele>33.7834</ele>
        <time>2013-05-26T09:41:56Z</time>
      </trkpt>
      <trkpt lat="59.9073371" lon="17.6683336">
        <ele>34.2642</ele>
        <time>2013-05-26T09:41:57Z</time>
      </trkpt>
      <trkpt lat="59.9072579" lon="17.6683604">
        <ele>33.7834</ele>
        <time>2013-05-26T09:41:58Z</time>
      </trkpt>
      <trkpt lat="59.9071798" lon="17.6683854">
        <ele>34.2642</ele>
        <time>2013-05-26T09:41:59Z</time>
      </trkpt>
      <trkpt lat="59.9071039" lon="17.6684092">
        <ele>34.2642</ele>
        <time>2013-05-26T09:42:00Z</time>
      </trkpt>
      <trkpt lat="59.9070301" lon="17.668431">
        <ele>35.2255</ele>
        <time>2013-05-26T09:42:01Z</time>
      </trkpt>
      <trkpt lat="59.9069585" lon="17.6684522">
        <ele>36.1868</ele>
        <time>2013-05-26T09:42:02Z</time>
      </trkpt>
      <trkpt lat="59.9068933" lon="17.6684673">
        <ele>36.6675</ele>
        <time>2013-05-26T09:42:03Z</time>
      </trkpt>
      <trkpt lat="59.9068313" lon="17.6684846">
        <ele>37.1481</ele>
        <time>2013-05-26T09:42:04Z</time>
      </trkpt>
      <trkpt lat="59.9067654" lon="17.6685024">
        <ele>36.6675</ele>
        <time>2013-05-26T09:42:05Z</time>
      </trkpt>
      <trkpt lat="59.9067022" lon="17.6685285">
        <ele>37.1481</ele>
        <time>2013-05-26T09:42:06Z</time>
      </trkpt>
      <trkpt lat="59.9066388" lon="17.6685584">
        <ele>37.6287</ele>
        <time>2013-05-26T09:42:07Z</time>
      </trkpt>
      <trkpt lat="59.9065721" lon="17.6685755">
        <ele>38.1094</ele>
        <time>2013-05-26T09:42:08Z</time>
      </trkpt>
      <trkpt lat="59.9065054" lon="17.6685847">
        <ele>38.1094</ele>
        <time>2013-05-26T09:42:09Z</time>
      </trkpt>
      <trkpt lat="59.9064359" lon="17.6685853">
        <ele>37.6287</ele>
        <time>2013-05-26T09:42:10Z</time>
      </trkpt>
      <trkpt lat="59.906367" lon="17.6685771">
        <ele>36.6675</ele>
        <time>2013-05-26T09:42:11Z</time>
      </trkpt>
      <trkpt lat="59.9062943" lon="17.6685637">
        <ele>35.7061</ele>
        <time>2013-05-26T09:42:12Z</time>
      </trkpt>
      <trkpt lat="59.9062231" lon="17.6685417">
        <ele>35.2255</ele>
        <time>2013-05-26T09:42:13Z</time>
      </trkpt>
      <trkpt lat="59.9061545" lon="17.6685071">
        <ele>35.2255</ele>
        <time>2013-05-26T09:42:14Z</time>
      </trkpt>
      <trkpt lat="59.9060807" lon="17.6684714">
        <ele>35.2255</ele>
        <time>2013-05-26T09:42:15Z</time>
      </trkpt>
      <trkpt lat="59.9060065" lon="17.6684402">
        <ele>34.7449</ele>
        <time>2013-05-26T09:42:16Z</time>
      </trkpt>
      <trkpt lat="59.9059272" lon="17.6684109">
        <ele>34.2642</ele>
        <time>2013-05-26T09:42:17Z</time>
      </trkpt>
      <trkpt lat="59.9058464" lon="17.6683793">
        <ele>33.7834</ele>
        <time>2013-05-26T09:42:18Z</time>
      </trkpt>
      <trkpt lat="59.9057665" lon="17.6683445">
        <ele>33.3029</ele>
        <time>2013-05-26T09:42:19Z</time>
      </trkpt>
      <trkpt lat="59.9056889" lon="17.6683067">
        <ele>33.3029</ele>
        <time>2013-05-26T09:42:20Z</time>
      </trkpt>
      <trkpt lat="59.9056112" lon="17.6682713">
        <ele>33.3029</ele>
        <time>2013-05-26T09:42:21Z</time>
      </trkpt>
      <trkpt lat="59.9055342" lon="17.6682308">
        <ele>32.8223</ele>
        <time>2013-05-26T09:42:22Z</time>
      </trkpt>
      <trkpt lat="59.9054556" lon="17.6681904">
        <ele>32.8223</ele>
        <time>2013-05-26T09:42:23Z</time>
      </trkpt>
      <trkpt lat="59.9053787" lon="17.6681501">
        <ele>32.8223</ele>
        <time>2013-05-26T09:42:24Z</time>
      </trkpt>
      <trkpt lat="59.9053035" lon="17.6681104">
        <ele>32.8223</ele>
        <time>2013-05-26T09:42:25Z</time>
      </trkpt>
      <trkpt lat="59.9052305" lon="17.6680692">
        <ele>32.8223</ele>
        <time>2013-05-26T09:42:26Z</time>
      </trkpt>
      <trkpt lat="59.9051607" lon="17.6680265">
        <ele>32.8223</ele>
        <time>2013-05-26T09:42:27Z</time>
      </trkpt>
      <trkpt lat="59.9050939" lon="17.6679772">
        <ele>32.8223</ele>
        <time>2013-05-26T09:42:28Z</time>
      </trkpt>
      <trkpt lat="59.9050243" lon="17.6679363">
        <ele>32.8223</ele>
        <time>2013-05-26T09:42:29Z</time>
      </trkpt>
      <trkpt lat="59.904955" lon="17.6679024">
        <ele>32.8223</ele>
        <time>2013-05-26T09:42:30Z</time>
      </trkpt>
      <trkpt lat="59.9048887" lon="17.6678718">
        <ele>33.3029</ele>
        <time>2013-05-26T09:42:31Z</time>
      </trkpt>
      <trkpt lat="59.904825" lon="17.6678493">
        <ele>33.3029</ele>
        <time>2013-05-26T09:42:32Z</time>
      </trkpt>
      <trkpt lat="59.9047659" lon="17.6678353">
        <ele>33.3029</ele>
        <time>2013-05-26T09:42:33Z</time>
      </trkpt>
      <trkpt lat="59.9047094" lon="17.6678279">
        <ele>33.7834</ele>
        <time>2013-05-26T09:42:34Z</time>
      </trkpt>
      <trkpt lat="59.9046561" lon="17.6678276">
        <ele>34.2642</ele>
        <time>2013-05-26T09:42:35Z</time>
      </trkpt>
      <trkpt lat="59.9046053" lon="17.6678379">
        <ele>34.7449</ele>
        <time>2013-05-26T09:42:36Z</time>
      </trkpt>
      <trkpt lat="59.9045571" lon="17.6678439">
        <ele>35.2255</ele>
        <time>2013-05-26T09:42:37Z</time>
      </trkpt>
      <trkpt lat="59.9045048" lon="17.6678426">
        <ele>34.7449</ele>
        <time>2013-05-26T09:42:38Z</time>
      </trkpt>
      <trkpt lat="59.9044541" lon="17.667843">
        <ele>35.2255</ele>
        <time>2013-05-26T09:42:39Z</time>
      </trkpt>
      <trkpt lat="59.9043982" lon="17.6678524">
        <ele>35.7061</ele>
        <time>2013-05-26T09:42:40Z</time>
      </trkpt>
      <trkpt lat="59.9043406" lon="17.6678739">
        <ele>35.7061</ele>
        <time>2013-05-26T09:42:41Z</time>
      </trkpt>
      <trkpt lat="59.9042929" lon="17.6678907">
        <ele>36.1868</ele>
        <time>2013-05-26T09:42:42Z</time>
      </trkpt>
      <trkpt lat="59.9042368" lon="17.6679227">
        <ele>36.6675</ele>
        <time>2013-05-26T09:42:43Z</time>
      </trkpt>
      <trkpt lat="59.9041844" lon="17.6679631">
        <ele>36.6675</ele>
        <time>2013-05-26T09:42:44Z</time>
      </trkpt>
      <trkpt lat="59.904137" lon="17.6680067">
        <ele>36.6675</ele>
        <time>2013-05-26T09:42:45Z</time>
      </trkpt>
      <trkpt lat="59.9040904" lon="17.6680562">
        <ele>37.1481</ele>
        <time>2013-05-26T09:42:46Z</time>
      </trkpt>
      <trkpt lat="59.9040409" lon="17.6681247">
        <ele>37.1481</ele>
        <time>2013-05-26T09:42:47Z</time>
      </trkpt>
      <trkpt lat="59.9039886" lon="17.6682109">
        <ele>36.6675</ele>
        <time>2013-05-26T09:42:48Z</time>
      </trkpt>
      <trkpt lat="59.9039371" lon="17.6683035">
        <ele>36.6675</ele>
        <time>2013-05-26T09:42:49Z</time>
      </trkpt>
      <trkpt lat="59.9038903" lon="17.6683978">
        <ele>36.6675</ele>
        <time>2013-05-26T09:42:50Z</time>
      </trkpt>
      <trkpt lat="59.9038469" lon="17.6684812">
        <ele>36.6675</ele>
        <time>2013-05-26T09:42:51Z</time>
      </trkpt>
      <trkpt lat="59.9037892" lon="17.6686121">
        <ele>36.1868</ele>
        <time>2013-05-26T09:42:52Z</time>
      </trkpt>
      <trkpt lat="59.903739" lon="17.6687329">
        <ele>36.1868</ele>
        <time>2013-05-26T09:42:53Z</time>
      </trkpt>
      <trkpt lat="59.9037056" lon="17.6688278">
        <ele>36.1868</ele>
        <time>2013-05-26T09:42:54Z</time>
      </trkpt>
      <trkpt lat="59.9036619" lon="17.6689446">
        <ele>36.1868</ele>
        <time>2013-05-26T09:42:55Z</time>
      </trkpt>
      <trkpt lat="59.903617" lon="17.6690794">
        <ele>35.7061</ele>
        <time>2013-05-26T09:42:56Z</time>
      </trkpt>
      <trkpt lat="59.9035745" lon="17.6692169">
        <ele>35.7061</ele>
        <time>2013-05-26T09:42:57Z</time>
      </trkpt>
      <trkpt lat="59.9035444" lon="17.6693287">
        <ele>35.7061</ele>
        <time>2013-05-26T09:42:58Z</time>
      </trkpt>
      <trkpt lat="59.9035071" lon="17.6694364">
        <ele>34.2642</ele>
        <time>2013-05-26T09:42:59Z</time>
      </trkpt>
      <trkpt lat="59.9034677" lon="17.6695369">
        <ele>33.3029</ele>
        <time>2013-05-26T09:43:00Z</time>
      </trkpt>
      <trkpt lat="59.9034041" lon="17.6696241">
        <ele>32.3416</ele>
        <time>2013-05-26T09:43:01Z</time>
      </trkpt>
      <trkpt lat="59.9033294" lon="17.6696867">
        <ele>31.8607</ele>
        <time>2013-05-26T09:43:02Z</time>
      </trkpt>
      <trkpt lat="59.9032588" lon="17.6697182">
        <ele>33.3029</ele>
        <time>2013-05-26T09:43:03Z</time>
      </trkpt>
      <trkpt lat="59.9031842" lon="17.6697208">
        <ele>33.7834</ele>
        <time>2013-05-26T09:43:04Z</time>
      </trkpt>
      <trkpt lat="59.9031132" lon="17.6696989">
        <ele>33.7834</ele>
        <time>2013-05-26T09:43:05Z</time>
      </trkpt>
      <trkpt lat="59.9030321" lon="17.6696895">
        <ele>33.7834</ele>
        <time>2013-05-26T09:43:06Z</time>
      </trkpt>
      <trkpt lat="59.9029755" lon="17.6696616">
        <ele>33.7834</ele>
        <time>2013-05-26T09:43:07Z</time>
      </trkpt>
      <trkpt lat="59.9029254" lon="17.6696414">
        <ele>34.2642</ele>
        <time>2013-05-26T09:43:08Z</time>
      </trkpt>
      <trkpt lat="59.9028687" lon="17.6696419">
        <ele>34.7449</ele>
        <time>2013-05-26T09:43:09Z</time>
      </trkpt>
      <trkpt lat="59.9028084" lon="17.6696591">
        <ele>35.2255</ele>
        <time>2013-05-26T09:43:10Z</time>
      </trkpt>
      <trkpt lat="59.9027533" lon="17.6696747">
        <ele>35.2255</ele>
        <time>2013-05-26T09:43:11Z</time>
      </trkpt>
      <trkpt lat="59.9026897" lon="17.6697079">
        <ele>34.7449</ele>
        <time>2013-05-26T09:43:12Z</time>
      </trkpt>
      <trkpt lat="59.9026056" lon="17.6697541">
        <ele>34.7449</ele>
        <time>2013-05-26T09:43:13Z</time>
      </trkpt>
      <trkpt lat="59.9025181" lon="17.669789">
        <ele>34.7449</ele>
        <time>2013-05-26T09:43:14Z</time>
      </trkpt>
      <trkpt lat="59.9024178" lon="17.6698255">
        <ele>33.7834</ele>
        <time>2013-05-26T09:43:15Z</time>
      </trkpt>
      <trkpt lat="59.9023233" lon="17.6698427">
        <ele>32.8223</ele>
        <time>2013-05-26T09:43:16Z</time>
      </trkpt>
      <trkpt lat="59.9022372" lon="17.6698342">
        <ele>32.3416</ele>
        <time>2013-05-26T09:43:17Z</time>
      </trkpt>
      <trkpt lat="59.9021572" lon="17.6698067">
        <ele>32.8223</ele>
        <time>2013-05-26T09:43:18Z</time>
      </trkpt>
      <trkpt lat="59.9020816" lon="17.6697674">
        <ele>32.3416</ele>
        <time>2013-05-26T09:43:19Z</time>
      </trkpt>
      <trkpt lat="59.9020086" lon="17.6697243">
        <ele>32.3416</ele>
        <time>2013-05-26T09:43:20Z</time>
      </trkpt>
      <trkpt lat="59.9019379" lon="17.6696755">
        <ele>32.8223</ele>
        <time>2013-05-26T09:43:21Z</time>
      </trkpt>
      <trkpt lat="59.9018667" lon="17.669625">
        <ele>32.3416</ele>
        <time>2013-05-26T09:43:22Z</time>
      </trkpt>
      <trkpt lat="59.9017978" lon="17.6695813">
        <ele>31.8607</ele>
        <time>2013-05-26T09:43:23Z</time>
      </trkpt>
      <trkpt lat="59.9017332" lon="17.6695422">
        <ele>32.3416</ele>
        <time>2013-05-26T09:43:24Z</time>
      </trkpt>
      <trkpt lat="59.901666" lon="17.6695095">
        <ele>32.3416</ele>
        <time>2013-05-26T09:43:25Z</time>
      </trkpt>
      <trkpt lat="59.9015941" lon="17.6694899">
        <ele>31.8607</ele>
        <time>2013-05-26T09:43:26Z</time>
      </trkpt>
      <trkpt lat="59.9015241" lon="17.6694773">
        <ele>32.3416</ele>
        <time>2013-05-26T09:43:27Z</time>
      </trkpt>
      <trkpt lat="59.901448" lon="17.6694819">
        <ele>32.3416</ele>
        <time>2013-05-26T09:43:28Z</time>
      </trkpt>
      <trkpt lat="59.9013725" lon="17.6694857">
        <ele>32.3416</ele>
        <time>2013-05-26T09:43:29Z</time>
      </trkpt>
      <trkpt lat="59.9012962" lon="17.6694897">
        <ele>32.3416</ele>
        <time>2013-05-26T09:43:30Z</time>
      </trkpt>
      <trkpt lat="59.9012189" lon="17.6694984">
        <ele>32.8223</ele>
        <time>2013-05-26T09:43:31Z</time>
      </trkpt>
      <trkpt lat="59.9011378" lon="17.6695098">
        <ele>32.8223</ele>
        <time>2013-05-26T09:43:32Z</time>
      </trkpt>
      <trkpt lat="59.9010687" lon="17.6695255">
        <ele>33.3029</ele>
        <time>2013-05-26T09:43:33Z</time>
      </trkpt>
      <trkpt lat="59.9010082" lon="17.6695426">
        <ele>34.2642</ele>
        <time>2013-05-26T09:43:34Z</time>
      </trkpt>
      <trkpt lat="59.9009521" lon="17.6695538">
        <ele>34.2642</ele>
        <time>2013-05-26T09:43:35Z</time>
      </trkpt>
      <trkpt lat="59.9008869" lon="17.6695709">
        <ele>34.2642</ele>
        <time>2013-05-26T09:43:36Z</time>
      </trkpt>
      <trkpt lat="59.9008171" lon="17.6695887">
        <ele>34.2642</ele>
        <time>2013-05-26T09:43:37Z</time>
      </trkpt>
      <trkpt lat="59.900749" lon="17.6696015">
        <ele>34.2642</ele>
        <time>2013-05-26T09:43:38Z</time>
      </trkpt>
      <trkpt lat="59.9006777" lon="17.6696172">
        <ele>34.2642</ele>
        <time>2013-05-26T09:43:39Z</time>
      </trkpt>
      <trkpt lat="59.9006009" lon="17.6696408">
        <ele>34.2642</ele>
        <time>2013-05-26T09:43:40Z</time>
      </trkpt>
      <trkpt lat="59.9005176" lon="17.6696706">
        <ele>33.7834</ele>
        <time>2013-05-26T09:43:41Z</time>
      </trkpt>
      <trkpt lat="59.9004232" lon="17.669708">
        <ele>33.7834</ele>
        <time>2013-05-26T09:43:42Z</time>
      </trkpt>
      <trkpt lat="59.9003312" lon="17.6697431">
        <ele>33.7834</ele>
        <time>2013-05-26T09:43:43Z</time>
      </trkpt>
      <trkpt lat="59.9002406" lon="17.6697725">
        <ele>34.2642</ele>
        <time>2013-05-26T09:43:44Z</time>
      </trkpt>
      <trkpt lat="59.9001551" lon="17.669797">
        <ele>34.7449</ele>
        <time>2013-05-26T09:43:45Z</time>
      </trkpt>
      <trkpt lat="59.9000779" lon="17.669817">
        <ele>34.7449</ele>
        <time>2013-05-26T09:43:46Z</time>
      </trkpt>
      <trkpt lat="59.9000043" lon="17.6698396">
        <ele>34.7449</ele>
        <time>2013-05-26T09:43:47Z</time>
      </trkpt>
      <trkpt lat="59.8999359" lon="17.6698688">
        <ele>35.7061</ele>
        <time>2013-05-26T09:43:48Z</time>
      </trkpt>
      <trkpt lat="59.8998639" lon="17.6699187">
        <ele>36.6675</ele>
        <time>2013-05-26T09:43:49Z</time>
      </trkpt>
      <trkpt lat="59.8997905" lon="17.6699767">
        <ele>38.1094</ele>
        <time>2013-05-26T09:43:50Z</time>
      </trkpt>
      <trkpt lat="59.8997142" lon="17.6700333">
        <ele>38.5901</ele>
        <time>2013-05-26T09:43:51Z</time>
      </trkpt>
      <trkpt lat="59.899637" lon="17.6700874">
        <ele>39.0707</ele>
        <time>2013-05-26T09:43:52Z</time>
      </trkpt>
      <trkpt lat="59.8995561" lon="17.6701526">
        <ele>39.0707</ele>
        <time>2013-05-26T09:43:53Z</time>
      </trkpt>
      <trkpt lat="59.8994885" lon="17.6702119">
        <ele>39.5513</ele>
        <time>2013-05-26T09:43:54Z</time>
      </trkpt>
      <trkpt lat="59.8994194" lon="17.6702798">
        <ele>40.0321</ele>
        <time>2013-05-26T09:43:55Z</time>
      </trkpt>
      <trkpt lat="59.8993977" lon="17.6704139">
        <ele>40.9934</ele>
        <time>2013-05-26T09:43:56Z</time>
      </trkpt>
      <trkpt lat="59.8993804" lon="17.6705828">
        <ele>40.9934</ele>
        <time>2013-05-26T09:43:57Z</time>
      </trkpt>
      <trkpt lat="59.8993475" lon="17.6707157">
        <ele>41.9547</ele>
        <time>2013-05-26T09:43:58Z</time>
      </trkpt>
      <trkpt lat="59.8993226" lon="17.6708676">
        <ele>42.4354</ele>
        <time>2013-05-26T09:43:59Z</time>
      </trkpt>
      <trkpt lat="59.8993467" lon="17.6710381">
        <ele>44.8386</ele>
        <time>2013-05-26T09:44:00Z</time>
      </trkpt>
      <trkpt lat="59.8993604" lon="17.6712225">
        <ele>45.3192</ele>
        <time>2013-05-26T09:44:01Z</time>
      </trkpt>
      <trkpt lat="59.899362" lon="17.6713824">
        <ele>45.7999</ele>
        <time>2013-05-26T09:44:02Z</time>
      </trkpt>
      <trkpt lat="59.899355" lon="17.6715421">
        <ele>45.3192</ele>
        <time>2013-05-26T09:44:03Z</time>
      </trkpt>
      <trkpt lat="59.8993471" lon="17.6717052">
        <ele>45.7999</ele>
        <time>2013-05-26T09:44:04Z</time>
      </trkpt>
      <trkpt lat="59.8993545" lon="17.6718508">
        <ele>45.7999</ele>
        <time>2013-05-26T09:44:05Z</time>
      </trkpt>
      <trkpt lat="59.8993433" lon="17.6719793">
        <ele>46.2806</ele>
        <time>2013-05-26T09:44:06Z</time>
      </trkpt>
      <trkpt lat="59.8993371" lon="17.6721178">
        <ele>46.2806</ele>
        <time>2013-05-26T09:44:07Z</time>
      </trkpt>
      <trkpt lat="59.8993296" lon="17.6723091">
        <ele>46.7612</ele>
        <time>2013-05-26T09:44:08Z</time>
      </trkpt>
      <trkpt lat="59.8993074" lon="17.6724822">
        <ele>46.2806</ele>
        <time>2013-05-26T09:44:09Z</time>
      </trkpt>
      <trkpt lat="59.8992744" lon="17.672645">
        <ele>45.3192</ele>
        <time>2013-05-26T09:44:10Z</time>
      </trkpt>
      <trkpt lat="59.8992413" lon="17.6727988">
        <ele>44.8386</ele>
        <time>2013-05-26T09:44:11Z</time>
      </trkpt>
      <trkpt lat="59.8992127" lon="17.6729434">
        <ele>43.8773</ele>
        <time>2013-05-26T09:44:12Z</time>
      </trkpt>
      <trkpt lat="59.8991786" lon="17.673075">
        <ele>43.3966</ele>
        <time>2013-05-26T09:44:13Z</time>
      </trkpt>
      <trkpt lat="59.899161" lon="17.6732169">
        <ele>43.8773</ele>
        <time>2013-05-26T09:44:14Z</time>
      </trkpt>
      <trkpt lat="59.8991501" lon="17.6733733">
        <ele>44.8386</ele>
        <time>2013-05-26T09:44:15Z</time>
      </trkpt>
      <trkpt lat="59.8991553" lon="17.6735987">
        <ele>45.7999</ele>
        <time>2013-05-26T09:44:16Z</time>
      </trkpt>
      <trkpt lat="59.8991316" lon="17.6737903">
        <ele>45.3192</ele>
        <time>2013-05-26T09:44:17Z</time>
      </trkpt>
      <trkpt lat="59.8991185" lon="17.6739447">
        <ele>44.8386</ele>
        <time>2013-05-26T09:44:18Z</time>
      </trkpt>
      <trkpt lat="59.8990565" lon="17.6741444">
        <ele>42.916</ele>
        <time>2013-05-26T09:44:19Z</time>
      </trkpt>
      <trkpt lat="59.8990168" lon="17.6742647">
        <ele>41.474</ele>
        <time>2013-05-26T09:44:20Z</time>
      </trkpt>
      <trkpt lat="59.8989807" lon="17.6743367">
        <ele>40.5128</ele>
        <time>2013-05-26T09:44:21Z</time>
      </trkpt>
      <trkpt lat="59.89892" lon="17.6744196">
        <ele>39.0707</ele>
        <time>2013-05-26T09:44:22Z</time>
      </trkpt>
      <trkpt lat="59.8988578" lon="17.6744817">
        <ele>37.1481</ele>
        <time>2013-05-26T09:44:23Z</time>
      </trkpt>
      <trkpt lat="59.8987942" lon="17.6745501">
        <ele>35.7061</ele>
        <time>2013-05-26T09:44:24Z</time>
      </trkpt>
      <trkpt lat="59.8987336" lon="17.6746229">
        <ele>34.7449</ele>
        <time>2013-05-26T09:44:25Z</time>
      </trkpt>
      <trkpt lat="59.8986756" lon="17.674688">
        <ele>33.7834</ele>
        <time>2013-05-26T09:44:26Z</time>
      </trkpt>
      <trkpt lat="59.8986134" lon="17.6747967">
        <ele>32.3416</ele>
        <time>2013-05-26T09:44:27Z</time>
      </trkpt>
      <trkpt lat="59.8985559" lon="17.6749299">
        <ele>31.8607</ele>
        <time>2013-05-26T09:44:28Z</time>
      </trkpt>
      <trkpt lat="59.8985082" lon="17.6750917">
        <ele>32.3416</ele>
        <time>2013-05-26T09:44:29Z</time>
      </trkpt>
      <trkpt lat="59.8984736" lon="17.675253">
        <ele>32.3416</ele>
        <time>2013-05-26T09:44:30Z</time>
      </trkpt>
      <trkpt lat="59.8984482" lon="17.6754184">
        <ele>31.8607</ele>
        <time>2013-05-26T09:44:31Z</time>
      </trkpt>
      <trkpt lat="59.8984285" lon="17.6755847">
        <ele>31.3801</ele>
        <time>2013-05-26T09:44:32Z</time>
      </trkpt>
      <trkpt lat="59.8984125" lon="17.6757541">
        <ele>30.8995</ele>
        <time>2013-05-26T09:44:33Z</time>
      </trkpt>
      <trkpt lat="59.8983994" lon="17.6759276">
        <ele>29.9381</ele>
        <time>2013-05-26T09:44:34Z</time>
      </trkpt>
      <trkpt lat="59.8983879" lon="17.6761023">
        <ele>29.4575</ele>
        <time>2013-05-26T09:44:35Z</time>
      </trkpt>
      <trkpt lat="59.8983767" lon="17.6762768">
        <ele>28.9769</ele>
        <time>2013-05-26T09:44:36Z</time>
      </trkpt>
      <trkpt lat="59.8983641" lon="17.6764494">
        <ele>28.9769</ele>
        <time>2013-05-26T09:44:37Z</time>
      </trkpt>
      <trkpt lat="59.8983491" lon="17.6766207">
        <ele>28.4962</ele>
        <time>2013-05-26T09:44:38Z</time>
      </trkpt>
      <trkpt lat="59.8983345" lon="17.6767953">
        <ele>28.4962</ele>
        <time>2013-05-26T09:44:39Z</time>
      </trkpt>
      <trkpt lat="59.8983156" lon="17.6769669">
        <ele>28.4962</ele>
        <time>2013-05-26T09:44:40Z</time>
      </trkpt>
      <trkpt lat="59.8982934" lon="17.6771366">
        <ele>28.0155</ele>
        <time>2013-05-26T09:44:41Z</time>
      </trkpt>
      <trkpt lat="59.8982677" lon="17.6773024">
        <ele>28.0155</ele>
        <time>2013-05-26T09:44:42Z</time>
      </trkpt>
      <trkpt lat="59.8982395" lon="17.6774665">
        <ele>28.0155</ele>
        <time>2013-05-26T09:44:43Z</time>
      </trkpt>
      <trkpt lat="59.8982102" lon="17.6776267">
        <ele>28.0155</ele>
        <time>2013-05-26T09:44:44Z</time>
      </trkpt>
      <trkpt lat="59.8981778" lon="17.6777821">
        <ele>28.0155</ele>
        <time>2013-05-26T09:44:45Z</time>
      </trkpt>
      <trkpt lat="59.898145" lon="17.6779309">
        <ele>28.0155</ele>
        <time>2013-05-26T09:44:46Z</time>
      </trkpt>
      <trkpt lat="59.8981084" lon="17.6780748">
        <ele>28.4962</ele>
        <time>2013-05-26T09:44:47Z</time>
      </trkpt>
      <trkpt lat="59.8980698" lon="17.6782188">
        <ele>28.9769</ele>
        <time>2013-05-26T09:44:48Z</time>
      </trkpt>
      <trkpt lat="59.8980271" lon="17.6783597">
        <ele>29.4575</ele>
        <time>2013-05-26T09:44:49Z</time>
      </trkpt>
      <trkpt lat="59.89798" lon="17.6784968">
        <ele>29.9381</ele>
        <time>2013-05-26T09:44:50Z</time>
      </trkpt>
      <trkpt lat="59.8979319" lon="17.6786312">
        <ele>30.4188</ele>
        <time>2013-05-26T09:44:51Z</time>
      </trkpt>
      <trkpt lat="59.8978825" lon="17.6787653">
        <ele>30.4188</ele>
        <time>2013-05-26T09:44:52Z</time>
      </trkpt>
      <trkpt lat="59.8978333" lon="17.6788997">
        <ele>30.8995</ele>
        <time>2013-05-26T09:44:53Z</time>
      </trkpt>
      <trkpt lat="59.8977855" lon="17.6790341">
        <ele>31.3801</ele>
        <time>2013-05-26T09:44:54Z</time>
      </trkpt>
      <trkpt lat="59.8977363" lon="17.6791681">
        <ele>31.8607</ele>
        <time>2013-05-26T09:44:55Z</time>
      </trkpt>
      <trkpt lat="59.8976852" lon="17.6792993">
        <ele>32.3416</ele>
        <time>2013-05-26T09:44:56Z</time>
      </trkpt>
      <trkpt lat="59.8976344" lon="17.6794297">
        <ele>32.3416</ele>
        <time>2013-05-26T09:44:57Z</time>
      </trkpt>
      <trkpt lat="59.8975841" lon="17.6795618">
        <ele>32.8223</ele>
        <time>2013-05-26T09:44:58Z</time>
      </trkpt>
      <trkpt lat="59.897535" lon="17.6796946">
        <ele>32.8223</ele>
        <time>2013-05-26T09:44:59Z</time>
      </trkpt>
      <trkpt lat="59.8974873" lon="17.6798283">
        <ele>33.3029</ele>
        <time>2013-05-26T09:45:00Z</time>
      </trkpt>
      <trkpt lat="59.89744" lon="17.6799625">
        <ele>33.3029</ele>
        <time>2013-05-26T09:45:01Z</time>
      </trkpt>
      <trkpt lat="59.8973919" lon="17.6800949">
        <ele>33.3029</ele>
        <time>2013-05-26T09:45:02Z</time>
      </trkpt>
      <trkpt lat="59.8973429" lon="17.6802246">
        <ele>33.3029</ele>
        <time>2013-05-26T09:45:03Z</time>
      </trkpt>
      <trkpt lat="59.8972936" lon="17.6803535">
        <ele>33.3029</ele>
        <time>2013-05-26T09:45:04Z</time>
      </trkpt>
      <trkpt lat="59.8972437" lon="17.6804805">
        <ele>33.3029</ele>
        <time>2013-05-26T09:45:05Z</time>
      </trkpt>
      <trkpt lat="59.8971936" lon="17.6806068">
        <ele>33.3029</ele>
        <time>2013-05-26T09:45:06Z</time>
      </trkpt>
      <trkpt lat="59.8971434" lon="17.6807328">
        <ele>33.3029</ele>
        <time>2013-05-26T09:45:07Z</time>
      </trkpt>
      <trkpt lat="59.8970932" lon="17.6808595">
        <ele>33.3029</ele>
        <time>2013-05-26T09:45:08Z</time>
      </trkpt>
      <trkpt lat="59.8970419" lon="17.6809835">
        <ele>33.3029</ele>
        <time>2013-05-26T09:45:09Z</time>
      </trkpt>
      <trkpt lat="59.8969882" lon="17.6811015">
        <ele>33.3029</ele>
        <time>2013-05-26T09:45:10Z</time>
      </trkpt>
      <trkpt lat="59.896933" lon="17.6812139">
        <ele>33.3029</ele>
        <time>2013-05-26T09:45:11Z</time>
      </trkpt>
      <trkpt lat="59.8968776" lon="17.6813225">
        <ele>33.7834</ele>
        <time>2013-05-26T09:45:12Z</time>
      </trkpt>
      <trkpt lat="59.8968212" lon="17.6814253">
        <ele>33.7834</ele>
        <time>2013-05-26T09:45:13Z</time>
      </trkpt>
      <trkpt lat="59.8967657" lon="17.6815216">
        <ele>34.2642</ele>
        <time>2013-05-26T09:45:14Z</time>
      </trkpt>
      <trkpt lat="59.8967082" lon="17.6816103">
        <ele>34.2642</ele>
        <time>2013-05-26T09:45:15Z</time>
      </trkpt>
      <trkpt lat="59.8966469" lon="17.6816936">
        <ele>34.2642</ele>
        <time>2013-05-26T09:45:16Z</time>
      </trkpt>
      <trkpt lat="59.8965849" lon="17.6817744">
        <ele>34.2642</ele>
        <time>2013-05-26T09:45:17Z</time>
      </trkpt>
      <trkpt lat="59.8965229" lon="17.6818529">
        <ele>34.7449</ele>
        <time>2013-05-26T09:45:18Z</time>
      </trkpt>
      <trkpt lat="59.8964625" lon="17.6819289">
        <ele>35.2255</ele>
        <time>2013-05-26T09:45:19Z</time>
      </trkpt>
      <trkpt lat="59.8964004" lon="17.6820075">
        <ele>35.7061</ele>
        <time>2013-05-26T09:45:20Z</time>
      </trkpt>
      <trkpt lat="59.8963223" lon="17.6821018">
        <ele>35.2255</ele>
        <time>2013-05-26T09:45:21Z</time>
      </trkpt>
      <trkpt lat="59.8962565" lon="17.6821752">
        <ele>35.7061</ele>
        <time>2013-05-26T09:45:22Z</time>
      </trkpt>
      <trkpt lat="59.8961953" lon="17.6822405">
        <ele>36.1868</ele>
        <time>2013-05-26T09:45:23Z</time>
      </trkpt>
      <trkpt lat="59.8961352" lon="17.6823022">
        <ele>36.6675</ele>
        <time>2013-05-26T09:45:24Z</time>
      </trkpt>
      <trkpt lat="59.89607" lon="17.6823686">
        <ele>36.1868</ele>
        <time>2013-05-26T09:45:25Z</time>
      </trkpt>
      <trkpt lat="59.8960095" lon="17.6824318">
        <ele>36.1868</ele>
        <time>2013-05-26T09:45:26Z</time>
      </trkpt>
      <trkpt lat="59.8959536" lon="17.6824789">
        <ele>36.6675</ele>
        <time>2013-05-26T09:45:27Z</time>
      </trkpt>
      <trkpt lat="59.8958991" lon="17.6825168">
        <ele>36.1868</ele>
        <time>2013-05-26T09:45:28Z</time>
      </trkpt>
      <trkpt lat="59.8958443" lon="17.6825437">
        <ele>36.1868</ele>
        <time>2013-05-26T09:45:29Z</time>
      </trkpt>
      <trkpt lat="59.8957897" lon="17.6825743">
        <ele>36.1868</ele>
        <time>2013-05-26T09:45:30Z</time>
      </trkpt>
      <trkpt lat="59.8957315" lon="17.6826145">
        <ele>36.1868</ele>
        <time>2013-05-26T09:45:31Z</time>
      </trkpt>
      <trkpt lat="59.8956705" lon="17.682661">
        <ele>35.7061</ele>
        <time>2013-05-26T09:45:32Z</time>
      </trkpt>
      <trkpt lat="59.8956073" lon="17.6827183">
        <ele>35.2255</ele>
        <time>2013-05-26T09:45:33Z</time>
      </trkpt>
      <trkpt lat="59.8955445" lon="17.6827823">
        <ele>35.2255</ele>
        <time>2013-05-26T09:45:34Z</time>
      </trkpt>
      <trkpt lat="59.895482" lon="17.682852">
        <ele>34.7449</ele>
        <time>2013-05-26T09:45:35Z</time>
      </trkpt>
      <trkpt lat="59.8954207" lon="17.6829227">
        <ele>34.2642</ele>
        <time>2013-05-26T09:45:36Z</time>
      </trkpt>
      <trkpt lat="59.895364" lon="17.6829896">
        <ele>33.7834</ele>
        <time>2013-05-26T09:45:37Z</time>
      </trkpt>
      <trkpt lat="59.8953158" lon="17.6830533">
        <ele>33.3029</ele>
        <time>2013-05-26T09:45:38Z</time>
      </trkpt>
      <trkpt lat="59.895261" lon="17.6831288">
        <ele>32.8223</ele>
        <time>2013-05-26T09:45:39Z</time>
      </trkpt>
      <trkpt lat="59.8951799" lon="17.6832273">
        <ele>33.3029</ele>
        <time>2013-05-26T09:45:40Z</time>
      </trkpt>
      <trkpt lat="59.8951071" lon="17.6833169">
        <ele>32.8223</ele>
        <time>2013-05-26T09:45:41Z</time>
      </trkpt>
      <trkpt lat="59.8950528" lon="17.6834253">
        <ele>32.8223</ele>
        <time>2013-05-26T09:45:42Z</time>
      </trkpt>
      <trkpt lat="59.8949978" lon="17.6835434">
        <ele>32.8223</ele>
        <time>2013-05-26T09:45:43Z</time>
      </trkpt>
      <trkpt lat="59.8949528" lon="17.6836864">
        <ele>33.3029</ele>
        <time>2013-05-26T09:45:44Z</time>
      </trkpt>
      <trkpt lat="59.8949189" lon="17.6838229">
        <ele>33.3029</ele>
        <time>2013-05-26T09:45:45Z</time>
      </trkpt>
      <trkpt lat="59.8948916" lon="17.6839629">
        <ele>32.8223</ele>
        <time>2013-05-26T09:45:46Z</time>
      </trkpt>
      <trkpt lat="59.8948722" lon="17.6841004">
        <ele>33.3029</ele>
        <time>2013-05-26T09:45:47Z</time>
      </trkpt>
      <trkpt lat="59.8948558" lon="17.6842334">
        <ele>33.3029</ele>
        <time>2013-05-26T09:45:48Z</time>
      </trkpt>
      <trkpt lat="59.8948426" lon="17.6843782">
        <ele>33.3029</ele>
        <time>2013-05-26T09:45:49Z</time>
      </trkpt>
      <trkpt lat="59.8948273" lon="17.6845255">
        <ele>33.3029</ele>
        <time>2013-05-26T09:45:50Z</time>
      </trkpt>
      <trkpt lat="59.8948144" lon="17.6846746">
        <ele>33.3029</ele>
        <time>2013-05-26T09:45:51Z</time>
      </trkpt>
      <trkpt lat="59.8948036" lon="17.6848229">
        <ele>33.3029</ele>
        <time>2013-05-26T09:45:52Z</time>
      </trkpt>
      <trkpt lat="59.8947941" lon="17.6849677">
        <ele>33.7834</ele>
        <time>2013-05-26T09:45:53Z</time>
      </trkpt>
      <trkpt lat="59.8947821" lon="17.6851091">
        <ele>33.7834</ele>
        <time>2013-05-26T09:45:54Z</time>
      </trkpt>
      <trkpt lat="59.8947714" lon="17.6852454">
        <ele>33.7834</ele>
        <time>2013-05-26T09:45:55Z</time>
      </trkpt>
      <trkpt lat="59.8947635" lon="17.6853861">
        <ele>33.7834</ele>
        <time>2013-05-26T09:45:56Z</time>
      </trkpt>
      <trkpt lat="59.8947546" lon="17.6855272">
        <ele>33.3029</ele>
        <time>2013-05-26T09:45:57Z</time>
      </trkpt>
      <trkpt lat="59.894744" lon="17.6856758">
        <ele>33.3029</ele>
        <time>2013-05-26T09:45:58Z</time>
      </trkpt>
      <trkpt lat="59.8947331" lon="17.6858283">
        <ele>32.8223</ele>
        <time>2013-05-26T09:45:59Z</time>
      </trkpt>
      <trkpt lat="59.8947202" lon="17.6859843">
        <ele>32.8223</ele>
        <time>2013-05-26T09:46:00Z</time>
      </trkpt>
      <trkpt lat="59.8947098" lon="17.6861335">
        <ele>32.8223</ele>
        <time>2013-05-26T09:46:01Z</time>
      </trkpt>
      <trkpt lat="59.8946955" lon="17.6862819">
        <ele>32.8223</ele>
        <time>2013-05-26T09:46:02Z</time>
      </trkpt>
      <trkpt lat="59.8946767" lon="17.686429">
        <ele>33.3029</ele>
        <time>2013-05-26T09:46:03Z</time>
      </trkpt>
      <trkpt lat="59.8946587" lon="17.6865743">
        <ele>33.3029</ele>
        <time>2013-05-26T09:46:04Z</time>
      </trkpt>
      <trkpt lat="59.8946388" lon="17.6867167">
        <ele>33.3029</ele>
        <time>2013-05-26T09:46:05Z</time>
      </trkpt>
      <trkpt lat="59.8946165" lon="17.6868553">
        <ele>33.7834</ele>
        <time>2013-05-26T09:46:06Z</time>
      </trkpt>
      <trkpt lat="59.8945943" lon="17.6869923">
        <ele>33.7834</ele>
        <time>2013-05-26T09:46:07Z</time>
      </trkpt>
      <trkpt lat="59.8945704" lon="17.6871281">
        <ele>34.2642</ele>
        <time>2013-05-26T09:46:08Z</time>
      </trkpt>
      <trkpt lat="59.894544" lon="17.6872627">
        <ele>34.7449</ele>
        <time>2013-05-26T09:46:09Z</time>
      </trkpt>
      <trkpt lat="59.8945211" lon="17.6873944">
        <ele>34.7449</ele>
        <time>2013-05-26T09:46:10Z</time>
      </trkpt>
      <trkpt lat="59.8944964" lon="17.6875233">
        <ele>34.7449</ele>
        <time>2013-05-26T09:46:11Z</time>
      </trkpt>
      <trkpt lat="59.8944681" lon="17.6876529">
        <ele>34.7449</ele>
        <time>2013-05-26T09:46:12Z</time>
      </trkpt>
      <trkpt lat="59.8944367" lon="17.6877819">
        <ele>35.2255</ele>
        <time>2013-05-26T09:46:13Z</time>
      </trkpt>
      <trkpt lat="59.8944051" lon="17.6879109">
        <ele>35.2255</ele>
        <time>2013-05-26T09:46:14Z</time>
      </trkpt>
      <trkpt lat="59.8943762" lon="17.6880383">
        <ele>35.7061</ele>
        <time>2013-05-26T09:46:15Z</time>
      </trkpt>
      <trkpt lat="59.8943514" lon="17.6881656">
        <ele>35.7061</ele>
        <time>2013-05-26T09:46:16Z</time>
      </trkpt>
      <trkpt lat="59.894329" lon="17.6882905">
        <ele>36.1868</ele>
        <time>2013-05-26T09:46:17Z</time>
      </trkpt>
      <trkpt lat="59.8943067" lon="17.6884146">
        <ele>36.1868</ele>
        <time>2013-05-26T09:46:18Z</time>
      </trkpt>
      <trkpt lat="59.8942855" lon="17.6885392">
        <ele>36.1868</ele>
        <time>2013-05-26T09:46:19Z</time>
      </trkpt>
      <trkpt lat="59.8942628" lon="17.6886643">
        <ele>36.6675</ele>
        <time>2013-05-26T09:46:20Z</time>
      </trkpt>
      <trkpt lat="59.8942431" lon="17.6887862">
        <ele>36.6675</ele>
        <time>2013-05-26T09:46:21Z</time>
      </trkpt>
      <trkpt lat="59.8942255" lon="17.6889075">
        <ele>36.6675</ele>
        <time>2013-05-26T09:46:22Z</time>
      </trkpt>
      <trkpt lat="59.8942079" lon="17.6890295">
        <ele>36.6675</ele>
        <time>2013-05-26T09:46:23Z</time>
      </trkpt>
      <trkpt lat="59.8941922" lon="17.6891524">
        <ele>37.1481</ele>
        <time>2013-05-26T09:46:24Z</time>
      </trkpt>
      <trkpt lat="59.8941704" lon="17.6892776">
        <ele>37.1481</ele>
        <time>2013-05-26T09:46:25Z</time>
      </trkpt>
      <trkpt lat="59.8941513" lon="17.6894021">
        <ele>37.1481</ele>
        <time>2013-05-26T09:46:26Z</time>
      </trkpt>
      <trkpt lat="59.8941326" lon="17.6895231">
        <ele>37.6287</ele>
        <time>2013-05-26T09:46:27Z</time>
      </trkpt>
      <trkpt lat="59.8941171" lon="17.6896428">
        <ele>37.6287</ele>
        <time>2013-05-26T09:46:28Z</time>
      </trkpt>
      <trkpt lat="59.8941083" lon="17.6897599">
        <ele>38.1094</ele>
        <time>2013-05-26T09:46:29Z</time>
      </trkpt>
      <trkpt lat="59.894099" lon="17.6898677">
        <ele>38.1094</ele>
        <time>2013-05-26T09:46:30Z</time>
      </trkpt>
      <trkpt lat="59.8940907" lon="17.6899717">
        <ele>38.5901</ele>
        <time>2013-05-26T09:46:31Z</time>
      </trkpt>
      <trkpt lat="59.8940814" lon="17.6900774">
        <ele>38.5901</ele>
        <time>2013-05-26T09:46:32Z</time>
      </trkpt>
      <trkpt lat="59.894068" lon="17.6901748">
        <ele>38.1094</ele>
        <time>2013-05-26T09:46:33Z</time>
      </trkpt>
      <trkpt lat="59.8940616" lon="17.6902801">
        <ele>38.5901</ele>
        <time>2013-05-26T09:46:34Z</time>
      </trkpt>
      <trkpt lat="59.894042" lon="17.6903987">
        <ele>38.5901</ele>
        <time>2013-05-26T09:46:35Z</time>
      </trkpt>
      <trkpt lat="59.8940291" lon="17.690506">
        <ele>38.5901</ele>
        <time>2013-05-26T09:46:36Z</time>
      </trkpt>
      <trkpt lat="59.894016" lon="17.6906293">
        <ele>37.6287</ele>
        <time>2013-05-26T09:46:37Z</time>
      </trkpt>
      <trkpt lat="59.893999" lon="17.6907665">
        <ele>37.6287</ele>
        <time>2013-05-26T09:46:38Z</time>
      </trkpt>
      <trkpt lat="59.8939788" lon="17.6909104">
        <ele>36.1868</ele>
        <time>2013-05-26T09:46:39Z</time>
      </trkpt>
      <trkpt lat="59.8939602" lon="17.6910531">
        <ele>35.7061</ele>
        <time>2013-05-26T09:46:40Z</time>
      </trkpt>
      <trkpt lat="59.8939455" lon="17.6911968">
        <ele>34.7449</ele>
        <time>2013-05-26T09:46:41Z</time>
      </trkpt>
      <trkpt lat="59.8939339" lon="17.6913317">
        <ele>34.2642</ele>
        <time>2013-05-26T09:46:42Z</time>
      </trkpt>
      <trkpt lat="59.8939219" lon="17.6914537">
        <ele>33.7834</ele>
        <time>2013-05-26T09:46:43Z</time>
      </trkpt>
      <trkpt lat="59.8939356" lon="17.6916192">
        <ele>32.8223</ele>
        <time>2013-05-26T09:46:44Z</time>
      </trkpt>
      <trkpt lat="59.8939299" lon="17.691763">
        <ele>31.8607</ele>
        <time>2013-05-26T09:46:45Z</time>
      </trkpt>
      <trkpt lat="59.8939315" lon="17.691904">
        <ele>31.3801</ele>
        <time>2013-05-26T09:46:46Z</time>
      </trkpt>
      <trkpt lat="59.8939349" lon="17.6920531">
        <ele>30.4188</ele>
        <time>2013-05-26T09:46:47Z</time>
      </trkpt>
      <trkpt lat="59.8939399" lon="17.6921965">
        <ele>29.4575</ele>
        <time>2013-05-26T09:46:48Z</time>
      </trkpt>
      <trkpt lat="59.893933" lon="17.6923531">
        <ele>28.0155</ele>
        <time>2013-05-26T09:46:49Z</time>
      </trkpt>
      <trkpt lat="59.8939282" lon="17.6925111">
        <ele>27.5349</ele>
        <time>2013-05-26T09:46:50Z</time>
      </trkpt>
      <trkpt lat="59.8939229" lon="17.6926748">
        <ele>27.5349</ele>
        <time>2013-05-26T09:46:51Z</time>
      </trkpt>
      <trkpt lat="59.8939139" lon="17.6928373">
        <ele>27.0543</ele>
        <time>2013-05-26T09:46:52Z</time>
      </trkpt>
      <trkpt lat="59.893909" lon="17.6929979">
        <ele>27.0543</ele>
        <time>2013-05-26T09:46:53Z</time>
      </trkpt>
      <trkpt lat="59.8939022" lon="17.6931498">
        <ele>26.5736</ele>
        <time>2013-05-26T09:46:54Z</time>
      </trkpt>
      <trkpt lat="59.8938948" lon="17.6932934">
        <ele>26.0929</ele>
        <time>2013-05-26T09:46:55Z</time>
      </trkpt>
      <trkpt lat="59.8938871" lon="17.6934384">
        <ele>26.0929</ele>
        <time>2013-05-26T09:46:56Z</time>
      </trkpt>
      <trkpt lat="59.8938859" lon="17.6935836">
        <ele>26.0929</ele>
        <time>2013-05-26T09:46:57Z</time>
      </trkpt>
      <trkpt lat="59.8938828" lon="17.6937291">
        <ele>26.5736</ele>
        <time>2013-05-26T09:46:58Z</time>
      </trkpt>
      <trkpt lat="59.8938774" lon="17.6938715">
        <ele>26.5736</ele>
        <time>2013-05-26T09:46:59Z</time>
      </trkpt>
      <trkpt lat="59.8938724" lon="17.6940106">
        <ele>27.0543</ele>
        <time>2013-05-26T09:47:00Z</time>
      </trkpt>
      <trkpt lat="59.8938669" lon="17.694146">
        <ele>27.0543</ele>
        <time>2013-05-26T09:47:01Z</time>
      </trkpt>
      <trkpt lat="59.8938638" lon="17.6942796">
        <ele>27.0543</ele>
        <time>2013-05-26T09:47:02Z</time>
      </trkpt>
      <trkpt lat="59.8938613" lon="17.6944144">
        <ele>27.5349</ele>
        <time>2013-05-26T09:47:03Z</time>
      </trkpt>
      <trkpt lat="59.8938567" lon="17.6945531">
        <ele>27.5349</ele>
        <time>2013-05-26T09:47:04Z</time>
      </trkpt>
      <trkpt lat="59.8938543" lon="17.6946911">
        <ele>27.5349</ele>
        <time>2013-05-26T09:47:05Z</time>
      </trkpt>
      <trkpt lat="59.8938529" lon="17.6948293">
        <ele>28.0155</ele>
        <time>2013-05-26T09:47:06Z</time>
      </trkpt>
      <trkpt lat="59.8938497" lon="17.694966">
        <ele>28.0155</ele>
        <time>2013-05-26T09:47:07Z</time>
      </trkpt>
      <trkpt lat="59.8938466" lon="17.6951049">
        <ele>28.0155</ele>
        <time>2013-05-26T09:47:08Z</time>
      </trkpt>
      <trkpt lat="59.8938431" lon="17.6952432">
        <ele>28.0155</ele>
        <time>2013-05-26T09:47:09Z</time>
      </trkpt>
      <trkpt lat="59.8938421" lon="17.6953768">
        <ele>28.4962</ele>
        <time>2013-05-26T09:47:10Z</time>
      </trkpt>
      <trkpt lat="59.8938373" lon="17.6955101">
        <ele>28.4962</ele>
        <time>2013-05-26T09:47:11Z</time>
      </trkpt>
      <trkpt lat="59.8938358" lon="17.6956409">
        <ele>29.4575</ele>
        <time>2013-05-26T09:47:12Z</time>
      </trkpt>
      <trkpt lat="59.8938276" lon="17.6957787">
        <ele>29.4575</ele>
        <time>2013-05-26T09:47:13Z</time>
      </trkpt>
      <trkpt lat="59.8938216" lon="17.6959046">
        <ele>28.9769</ele>
        <time>2013-05-26T09:47:14Z</time>
      </trkpt>
      <trkpt lat="59.8938165" lon="17.6960325">
        <ele>28.4962</ele>
        <time>2013-05-26T09:47:15Z</time>
      </trkpt>
      <trkpt lat="59.893813" lon="17.6961585">
        <ele>28.4962</ele>
        <time>2013-05-26T09:47:16Z</time>
      </trkpt>
      <trkpt lat="59.8938095" lon="17.6962843">
        <ele>28.4962</ele>
        <time>2013-05-26T09:47:17Z</time>
      </trkpt>
      <trkpt lat="59.8938022" lon="17.6964056">
        <ele>28.0155</ele>
        <time>2013-05-26T09:47:18Z</time>
      </trkpt>
      <trkpt lat="59.8937965" lon="17.6965219">
        <ele>27.5349</ele>
        <time>2013-05-26T09:47:19Z</time>
      </trkpt>
      <trkpt lat="59.8937902" lon="17.6966382">
        <ele>26.0929</ele>
        <time>2013-05-26T09:47:20Z</time>
      </trkpt>
      <trkpt lat="59.8937816" lon="17.6967778">
        <ele>24.651</ele>
        <time>2013-05-26T09:47:21Z</time>
      </trkpt>
      <trkpt lat="59.893771" lon="17.6969195">
        <ele>23.6896</ele>
        <time>2013-05-26T09:47:22Z</time>
      </trkpt>
      <trkpt lat="59.8937586" lon="17.6970706">
        <ele>23.6896</ele>
        <time>2013-05-26T09:47:23Z</time>
      </trkpt>
      <trkpt lat="59.8937416" lon="17.6972228">
        <ele>23.209</ele>
        <time>2013-05-26T09:47:24Z</time>
      </trkpt>
      <trkpt lat="59.8937234" lon="17.6973699">
        <ele>23.209</ele>
        <time>2013-05-26T09:47:25Z</time>
      </trkpt>
      <trkpt lat="59.8937012" lon="17.6975132">
        <ele>22.7283</ele>
        <time>2013-05-26T09:47:26Z</time>
      </trkpt>
      <trkpt lat="59.8936723" lon="17.6976509">
        <ele>22.2476</ele>
        <time>2013-05-26T09:47:27Z</time>
      </trkpt>
      <trkpt lat="59.8936395" lon="17.6977843">
        <ele>22.7283</ele>
        <time>2013-05-26T09:47:28Z</time>
      </trkpt>
      <trkpt lat="59.893602" lon="17.6979119">
        <ele>22.7283</ele>
        <time>2013-05-26T09:47:29Z</time>
      </trkpt>
      <trkpt lat="59.8935534" lon="17.6980397">
        <ele>23.209</ele>
        <time>2013-05-26T09:47:30Z</time>
      </trkpt>
      <trkpt lat="59.8935052" lon="17.6981516">
        <ele>23.209</ele>
        <time>2013-05-26T09:47:31Z</time>
      </trkpt>
      <trkpt lat="59.8934546" lon="17.6982601">
        <ele>23.209</ele>
        <time>2013-05-26T09:47:32Z</time>
      </trkpt>
      <trkpt lat="59.8933867" lon="17.6983709">
        <ele>23.209</ele>
        <time>2013-05-26T09:47:33Z</time>
      </trkpt>
      <trkpt lat="59.8933195" lon="17.6984745">
        <ele>23.209</ele>
        <time>2013-05-26T09:47:34Z</time>
      </trkpt>
      <trkpt lat="59.893251" lon="17.6985681">
        <ele>23.209</ele>
        <time>2013-05-26T09:47:35Z</time>
      </trkpt>
      <trkpt lat="59.8931806" lon="17.6986513">
        <ele>23.209</ele>
        <time>2013-05-26T09:47:36Z</time>
      </trkpt>
      <trkpt lat="59.8931074" lon="17.6987258">
        <ele>23.209</ele>
        <time>2013-05-26T09:47:37Z</time>
      </trkpt>
      <trkpt lat="59.8930334" lon="17.6987851">
        <ele>23.6896</ele>
        <time>2013-05-26T09:47:38Z</time>
      </trkpt>
      <trkpt lat="59.8929578" lon="17.698834">
        <ele>23.6896</ele>
        <time>2013-05-26T09:47:39Z</time>
      </trkpt>
      <trkpt lat="59.8928801" lon="17.6988756">
        <ele>23.6896</ele>
        <time>2013-05-26T09:47:40Z</time>
      </trkpt>
      <trkpt lat="59.8928014" lon="17.6989064">
        <ele>23.6896</ele>
        <time>2013-05-26T09:47:41Z</time>
      </trkpt>
      <trkpt lat="59.8927206" lon="17.6989273">
        <ele>23.6896</ele>
        <time>2013-05-26T09:47:42Z</time>
      </trkpt>
      <trkpt lat="59.8926423" lon="17.6989355">
        <ele>23.209</ele>
        <time>2013-05-26T09:47:43Z</time>
      </trkpt>
      <trkpt lat="59.8925655" lon="17.6989333">
        <ele>23.209</ele>
        <time>2013-05-26T09:47:44Z</time>
      </trkpt>
      <trkpt lat="59.892489" lon="17.698919">
        <ele>23.209</ele>
        <time>2013-05-26T09:47:45Z</time>
      </trkpt>
      <trkpt lat="59.8924129" lon="17.698891">
        <ele>22.7283</ele>
        <time>2013-05-26T09:47:46Z</time>
      </trkpt>
      <trkpt lat="59.8923372" lon="17.6988519">
        <ele>22.7283</ele>
        <time>2013-05-26T09:47:47Z</time>
      </trkpt>
      <trkpt lat="59.892263" lon="17.6988009">
        <ele>22.7283</ele>
        <time>2013-05-26T09:47:48Z</time>
      </trkpt>
      <trkpt lat="59.8921907" lon="17.6987377">
        <ele>22.7283</ele>
        <time>2013-05-26T09:47:49Z</time>
      </trkpt>
      <trkpt lat="59.8921202" lon="17.6986646">
        <ele>22.7283</ele>
        <time>2013-05-26T09:47:50Z</time>
      </trkpt>
      <trkpt lat="59.8920504" lon="17.6985862">
        <ele>22.7283</ele>
        <time>2013-05-26T09:47:51Z</time>
      </trkpt>
      <trkpt lat="59.8919807" lon="17.6985046">
        <ele>22.7283</ele>
        <time>2013-05-26T09:47:52Z</time>
      </trkpt>
      <trkpt lat="59.8919108" lon="17.6984226">
        <ele>22.7283</ele>
        <time>2013-05-26T09:47:53Z</time>
      </trkpt>
      <trkpt lat="59.8918405" lon="17.6983413">
        <ele>22.7283</ele>
        <time>2013-05-26T09:47:54Z</time>
      </trkpt>
      <trkpt lat="59.8917711" lon="17.6982576">
        <ele>22.7283</ele>
        <time>2013-05-26T09:47:55Z</time>
      </trkpt>
      <trkpt lat="59.8917023" lon="17.6981715">
        <ele>22.7283</ele>
        <time>2013-05-26T09:47:56Z</time>
      </trkpt>
      <trkpt lat="59.8916325" lon="17.6980877">
        <ele>22.2476</ele>
        <time>2013-05-26T09:47:57Z</time>
      </trkpt>
      <trkpt lat="59.8915612" lon="17.6980062">
        <ele>22.2476</ele>
        <time>2013-05-26T09:47:58Z</time>
      </trkpt>
      <trkpt lat="59.8914899" lon="17.6979234">
        <ele>22.2476</ele>
        <time>2013-05-26T09:47:59Z</time>
      </trkpt>
      <trkpt lat="59.8914191" lon="17.69784">
        <ele>22.2476</ele>
        <time>2013-05-26T09:48:00Z</time>
      </trkpt>
      <trkpt lat="59.8913473" lon="17.6977605">
        <ele>22.2476</ele>
        <time>2013-05-26T09:48:01Z</time>
      </trkpt>
      <trkpt lat="59.8912737" lon="17.6976883">
        <ele>22.2476</ele>
        <time>2013-05-26T09:48:02Z</time>
      </trkpt>
      <trkpt lat="59.8911967" lon="17.6976285">
        <ele>22.2476</ele>
        <time>2013-05-26T09:48:03Z</time>
      </trkpt>
      <trkpt lat="59.8911171" lon="17.6975912">
        <ele>22.7283</ele>
        <time>2013-05-26T09:48:04Z</time>
      </trkpt>
      <trkpt lat="59.8910358" lon="17.6975815">
        <ele>22.7283</ele>
        <time>2013-05-26T09:48:05Z</time>
      </trkpt>
      <trkpt lat="59.8909541" lon="17.6975956">
        <ele>22.7283</ele>
        <time>2013-05-26T09:48:06Z</time>
      </trkpt>
      <trkpt lat="59.8908758" lon="17.6976287">
        <ele>23.209</ele>
        <time>2013-05-26T09:48:07Z</time>
      </trkpt>
      <trkpt lat="59.8908019" lon="17.6976753">
        <ele>23.209</ele>
        <time>2013-05-26T09:48:08Z</time>
      </trkpt>
      <trkpt lat="59.8907343" lon="17.6977372">
        <ele>23.6896</ele>
        <time>2013-05-26T09:48:09Z</time>
      </trkpt>
      <trkpt lat="59.8906766" lon="17.6978171">
        <ele>23.6896</ele>
        <time>2013-05-26T09:48:10Z</time>
      </trkpt>
      <trkpt lat="59.8906319" lon="17.6979062">
        <ele>24.1703</ele>
        <time>2013-05-26T09:48:11Z</time>
      </trkpt>
      <trkpt lat="59.8905973" lon="17.6979898">
        <ele>24.1703</ele>
        <time>2013-05-26T09:48:12Z</time>
      </trkpt>
      <trkpt lat="59.8905706" lon="17.6980617">
        <ele>24.651</ele>
        <time>2013-05-26T09:48:13Z</time>
      </trkpt>
      <trkpt lat="59.8905499" lon="17.6981247">
        <ele>24.651</ele>
        <time>2013-05-26T09:48:14Z</time>
      </trkpt>
      <trkpt lat="59.8905321" lon="17.6981799">
        <ele>24.651</ele>
        <time>2013-05-26T09:48:15Z</time>
      </trkpt>
      <trkpt lat="59.8905121" lon="17.6982243">
        <ele>25.1317</ele>
        <time>2013-05-26T09:48:16Z</time>
      </trkpt>
      <trkpt lat="59.8904879" lon="17.6982591">
        <ele>25.1317</ele>
        <time>2013-05-26T09:48:17Z</time>
      </trkpt>
      <trkpt lat="59.8904594" lon="17.698288">
        <ele>25.1317</ele>
        <time>2013-05-26T09:48:18Z</time>
      </trkpt>
      <trkpt lat="59.8904277" lon="17.6983072">
        <ele>25.1317</ele>
        <time>2013-05-26T09:48:19Z</time>
      </trkpt>
      <trkpt lat="59.8903946" lon="17.6983103">
        <ele>25.1317</ele>
        <time>2013-05-26T09:48:20Z</time>
      </trkpt>
      <trkpt lat="59.8903686" lon="17.6982999">
        <ele>25.6123</ele>
        <time>2013-05-26T09:48:21Z</time>
      </trkpt>
      <trkpt lat="59.8903494" lon="17.6982931">
        <ele>25.6123</ele>
        <time>2013-05-26T09:48:22Z</time>
      </trkpt>
      <trkpt lat="59.8903336" lon="17.698292">
        <ele>25.6123</ele>
        <time>2013-05-26T09:48:23Z</time>
      </trkpt>
      <trkpt lat="59.8903175" lon="17.6982979">
        <ele>25.1317</ele>
        <time>2013-05-26T09:48:24Z</time>
      </trkpt>
      <trkpt lat="59.8903028" lon="17.6983134">
        <ele>25.6123</ele>
        <time>2013-05-26T09:48:25Z</time>
      </trkpt>
      <trkpt lat="59.8902878" lon="17.6983455">
        <ele>25.6123</ele>
        <time>2013-05-26T09:48:26Z</time>
      </trkpt>
      <trkpt lat="59.890274" lon="17.6983956">
        <ele>26.0929</ele>
        <time>2013-05-26T09:48:27Z</time>
      </trkpt>
      <trkpt lat="59.8902652" lon="17.6984604">
        <ele>26.0929</ele>
        <time>2013-05-26T09:48:28Z</time>
      </trkpt>
      <trkpt lat="59.8902702" lon="17.6985336">
        <ele>26.0929</ele>
        <time>2013-05-26T09:48:29Z</time>
      </trkpt>
      <trkpt lat="59.8902921" lon="17.6986025">
        <ele>26.0929</ele>
        <time>2013-05-26T09:48:30Z</time>
      </trkpt>
      <trkpt lat="59.8903268" lon="17.6986572">
        <ele>26.0929</ele>
        <time>2013-05-26T09:48:31Z</time>
      </trkpt>
      <trkpt lat="59.8903665" lon="17.6987057">
        <ele>26.5736</ele>
        <time>2013-05-26T09:48:32Z</time>
      </trkpt>
      <trkpt lat="59.8904065" lon="17.6987592">
        <ele>26.5736</ele>
        <time>2013-05-26T09:48:33Z</time>
      </trkpt>
      <trkpt lat="59.890446" lon="17.6988168">
        <ele>26.5736</ele>
        <time>2013-05-26T09:48:34Z</time>
      </trkpt>
      <trkpt lat="59.8904859" lon="17.6988763">
        <ele>26.5736</ele>
        <time>2013-05-26T09:48:35Z</time>
      </trkpt>
      <trkpt lat="59.8905252" lon="17.6989393">
        <ele>26.5736</ele>
        <time>2013-05-26T09:48:36Z</time>
      </trkpt>
      <trkpt lat="59.8905631" lon="17.699008">
        <ele>26.5736</ele>
        <time>2013-05-26T09:48:37Z</time>
      </trkpt>
      <trkpt lat="59.8906004" lon="17.6990799">
        <ele>26.5736</ele>
        <time>2013-05-26T09:48:38Z</time>
      </trkpt>
      <trkpt lat="59.8906376" lon="17.6991524">
        <ele>26.5736</ele>
        <time>2013-05-26T09:48:39Z</time>
      </trkpt>
      <trkpt lat="59.8906753" lon="17.6992231">
        <ele>26.5736</ele>
        <time>2013-05-26T09:48:40Z</time>
      </trkpt>
      <trkpt lat="59.8907134" lon="17.699292">
        <ele>26.5736</ele>
        <time>2013-05-26T09:48:41Z</time>
      </trkpt>
      <trkpt lat="59.8907533" lon="17.6993576">
        <ele>26.5736</ele>
        <time>2013-05-26T09:48:42Z</time>
      </trkpt>
      <trkpt lat="59.8907971" lon="17.6994138">
        <ele>26.5736</ele>
        <time>2013-05-26T09:48:43Z</time>
      </trkpt>
      <trkpt lat="59.8908443" lon="17.6994573">
        <ele>26.5736</ele>
        <time>2013-05-26T09:48:44Z</time>
      </trkpt>
      <trkpt lat="59.8908944" lon="17.6994913">
        <ele>26.5736</ele>
        <time>2013-05-26T09:48:45Z</time>
      </trkpt>
      <trkpt lat="59.8909447" lon="17.699525">
        <ele>27.0543</ele>
        <time>2013-05-26T09:48:46Z</time>
      </trkpt>
      <trkpt lat="59.8909926" lon="17.6995685">
        <ele>27.0543</ele>
        <time>2013-05-26T09:48:47Z</time>
      </trkpt>
      <trkpt lat="59.8910381" lon="17.6996224">
        <ele>27.0543</ele>
        <time>2013-05-26T09:48:48Z</time>
      </trkpt>
      <trkpt lat="59.8910812" lon="17.6996824">
        <ele>27.0543</ele>
        <time>2013-05-26T09:48:49Z</time>
      </trkpt>
      <trkpt lat="59.8911239" lon="17.6997432">
        <ele>27.0543</ele>
        <time>2013-05-26T09:48:50Z</time>
      </trkpt>
      <trkpt lat="59.8911672" lon="17.699802">
        <ele>27.0543</ele>
        <time>2013-05-26T09:48:51Z</time>
      </trkpt>
      <trkpt lat="59.8912121" lon="17.6998577">
        <ele>27.0543</ele>
        <time>2013-05-26T09:48:52Z</time>
      </trkpt>
      <trkpt lat="59.8912581" lon="17.699912">
        <ele>27.0543</ele>
        <time>2013-05-26T09:48:53Z</time>
      </trkpt>
      <trkpt lat="59.8913023" lon="17.6999705">
        <ele>27.0543</ele>
        <time>2013-05-26T09:48:54Z</time>
      </trkpt>
      <trkpt lat="59.8913459" lon="17.7000307">
        <ele>27.0543</ele>
        <time>2013-05-26T09:48:55Z</time>
      </trkpt>
      <trkpt lat="59.8913892" lon="17.7000911">
        <ele>27.0543</ele>
        <time>2013-05-26T09:48:56Z</time>
      </trkpt>
      <trkpt lat="59.8914323" lon="17.7001524">
        <ele>27.0543</ele>
        <time>2013-05-26T09:48:57Z</time>
      </trkpt>
      <trkpt lat="59.8914759" lon="17.7002135">
        <ele>27.0543</ele>
        <time>2013-05-26T09:48:58Z</time>
      </trkpt>
      <trkpt lat="59.8915196" lon="17.7002747">
        <ele>27.0543</ele>
        <time>2013-05-26T09:48:59Z</time>
      </trkpt>
      <trkpt lat="59.8915638" lon="17.700335">
        <ele>27.0543</ele>
        <time>2013-05-26T09:49:00Z</time>
      </trkpt>
      <trkpt lat="59.8916083" lon="17.7003941">
        <ele>27.0543</ele>
        <time>2013-05-26T09:49:01Z</time>
      </trkpt>
      <trkpt lat="59.8916535" lon="17.7004518">
        <ele>27.0543</ele>
        <time>2013-05-26T09:49:02Z</time>
      </trkpt>
      <trkpt lat="59.8916997" lon="17.7005087">
        <ele>27.0543</ele>
        <time>2013-05-26T09:49:03Z</time>
      </trkpt>
      <trkpt lat="59.8917453" lon="17.7005686">
        <ele>27.0543</ele>
        <time>2013-05-26T09:49:04Z</time>
      </trkpt>
      <trkpt lat="59.89179" lon="17.700633">
        <ele>27.0543</ele>
        <time>2013-05-26T09:49:05Z</time>
      </trkpt>
      <trkpt lat="59.8918343" lon="17.7006983">
        <ele>27.0543</ele>
        <time>2013-05-26T09:49:06Z</time>
      </trkpt>
      <trkpt lat="59.8918802" lon="17.7007599">
        <ele>27.0543</ele>
        <time>2013-05-26T09:49:07Z</time>
      </trkpt>
      <trkpt lat="59.8919265" lon="17.7008183">
        <ele>27.0543</ele>
        <time>2013-05-26T09:49:08Z</time>
      </trkpt>
      <trkpt lat="59.891972" lon="17.7008784">
        <ele>27.0543</ele>
        <time>2013-05-26T09:49:09Z</time>
      </trkpt>
      <trkpt lat="59.8920164" lon="17.700939">
        <ele>27.0543</ele>
        <time>2013-05-26T09:49:10Z</time>
      </trkpt>
      <trkpt lat="59.8920601" lon="17.7009983">
        <ele>27.0543</ele>
        <time>2013-05-26T09:49:11Z</time>
      </trkpt>
      <trkpt lat="59.8921046" lon="17.7010556">
        <ele>27.5349</ele>
        <time>2013-05-26T09:49:12Z</time>
      </trkpt>
      <trkpt lat="59.8921492" lon="17.7011115">
        <ele>27.5349</ele>
        <time>2013-05-26T09:49:13Z</time>
      </trkpt>
      <trkpt lat="59.8921928" lon="17.7011685">
        <ele>27.5349</ele>
        <time>2013-05-26T09:49:14Z</time>
      </trkpt>
      <trkpt lat="59.8922351" lon="17.7012267">
        <ele>27.5349</ele>
        <time>2013-05-26T09:49:15Z</time>
      </trkpt>
      <trkpt lat="59.8922764" lon="17.7012866">
        <ele>27.5349</ele>
        <time>2013-05-26T09:49:16Z</time>
      </trkpt>
      <trkpt lat="59.8923186" lon="17.7013451">
        <ele>27.5349</ele>
        <time>2013-05-26T09:49:17Z</time>
      </trkpt>
      <trkpt lat="59.8923616" lon="17.7014002">
        <ele>27.5349</ele>
        <time>2013-05-26T09:49:18Z</time>
      </trkpt>
      <trkpt lat="59.892404" lon="17.7014557">
        <ele>27.5349</ele>
        <time>2013-05-26T09:49:19Z</time>
      </trkpt>
      <trkpt lat="59.8924451" lon="17.7015146">
        <ele>27.5349</ele>
        <time>2013-05-26T09:49:20Z</time>
      </trkpt>
      <trkpt lat="59.8924855" lon="17.7015769">
        <ele>27.5349</ele>
        <time>2013-05-26T09:49:21Z</time>
      </trkpt>
      <trkpt lat="59.8925248" lon="17.7016445">
        <ele>27.5349</ele>
        <time>2013-05-26T09:49:22Z</time>
      </trkpt>
      <trkpt lat="59.8925641" lon="17.701715">
        <ele>27.5349</ele>
        <time>2013-05-26T09:49:23Z</time>
      </trkpt>
      <trkpt lat="59.892605" lon="17.7017837">
        <ele>27.5349</ele>
        <time>2013-05-26T09:49:24Z</time>
      </trkpt>
      <trkpt lat="59.8926479" lon="17.7018498">
        <ele>27.5349</ele>
        <time>2013-05-26T09:49:25Z</time>
      </trkpt>
      <trkpt lat="59.8926924" lon="17.7019105">
        <ele>27.5349</ele>
        <time>2013-05-26T09:49:26Z</time>
      </trkpt>
      <trkpt lat="59.892738" lon="17.7019648">
        <ele>27.0543</ele>
        <time>2013-05-26T09:49:27Z</time>
      </trkpt>
      <trkpt lat="59.8927853" lon="17.7020109">
        <ele>27.0543</ele>
        <time>2013-05-26T09:49:28Z</time>
      </trkpt>
      <trkpt lat="59.8928333" lon="17.702055">
        <ele>27.0543</ele>
        <time>2013-05-26T09:49:29Z</time>
      </trkpt>
      <trkpt lat="59.8928797" lon="17.7021043">
        <ele>27.5349</ele>
        <time>2013-05-26T09:49:30Z</time>
      </trkpt>
      <trkpt lat="59.8929243" lon="17.7021591">
        <ele>27.5349</ele>
        <time>2013-05-26T09:49:31Z</time>
      </trkpt>
      <trkpt lat="59.8929674" lon="17.702216">
        <ele>27.0543</ele>
        <time>2013-05-26T09:49:32Z</time>
      </trkpt>
      <trkpt lat="59.8930096" lon="17.7022724">
        <ele>27.0543</ele>
        <time>2013-05-26T09:49:33Z</time>
      </trkpt>
      <trkpt lat="59.893051" lon="17.7023281">
        <ele>27.0543</ele>
        <time>2013-05-26T09:49:34Z</time>
      </trkpt>
      <trkpt lat="59.8930921" lon="17.7023845">
        <ele>27.0543</ele>
        <time>2013-05-26T09:49:35Z</time>
      </trkpt>
      <trkpt lat="59.8931337" lon="17.7024417">
        <ele>27.0543</ele>
        <time>2013-05-26T09:49:36Z</time>
      </trkpt>
      <trkpt lat="59.893176" lon="17.7024999">
        <ele>27.0543</ele>
        <time>2013-05-26T09:49:37Z</time>
      </trkpt>
      <trkpt lat="59.8932202" lon="17.7025597">
        <ele>27.0543</ele>
        <time>2013-05-26T09:49:38Z</time>
      </trkpt>
      <trkpt lat="59.8932655" lon="17.7026213">
        <ele>26.5736</ele>
        <time>2013-05-26T09:49:39Z</time>
      </trkpt>
      <trkpt lat="59.893312" lon="17.7026838">
        <ele>27.0543</ele>
        <time>2013-05-26T09:49:40Z</time>
      </trkpt>
      <trkpt lat="59.8933606" lon="17.7027449">
        <ele>27.0543</ele>
        <time>2013-05-26T09:49:41Z</time>
      </trkpt>
      <trkpt lat="59.89341" lon="17.7028077">
        <ele>26.5736</ele>
        <time>2013-05-26T09:49:42Z</time>
      </trkpt>
      <trkpt lat="59.8934608" lon="17.7028714">
        <ele>26.5736</ele>
        <time>2013-05-26T09:49:43Z</time>
      </trkpt>
      <trkpt lat="59.8935124" lon="17.7029351">
        <ele>26.5736</ele>
        <time>2013-05-26T09:49:44Z</time>
      </trkpt>
      <trkpt lat="59.8935634" lon="17.7030009">
        <ele>26.5736</ele>
        <time>2013-05-26T09:49:45Z</time>
      </trkpt>
      <trkpt lat="59.8936131" lon="17.7030672">
        <ele>26.5736</ele>
        <time>2013-05-26T09:49:46Z</time>
      </trkpt>
      <trkpt lat="59.8936624" lon="17.7031346">
        <ele>26.5736</ele>
        <time>2013-05-26T09:49:47Z</time>
      </trkpt>
      <trkpt lat="59.893712" lon="17.7032037">
        <ele>26.0929</ele>
        <time>2013-05-26T09:49:48Z</time>
      </trkpt>
      <trkpt lat="59.8937627" lon="17.7032717">
        <ele>26.0929</ele>
        <time>2013-05-26T09:49:49Z</time>
      </trkpt>
      <trkpt lat="59.8938136" lon="17.7033389">
        <ele>26.0929</ele>
        <time>2013-05-26T09:49:50Z</time>
      </trkpt>
      <trkpt lat="59.8938633" lon="17.7034066">
        <ele>26.0929</ele>
        <time>2013-05-26T09:49:51Z</time>
      </trkpt>
      <trkpt lat="59.8939114" lon="17.7034742">
        <ele>26.0929</ele>
        <time>2013-05-26T09:49:52Z</time>
      </trkpt>
      <trkpt lat="59.8939592" lon="17.7035408">
        <ele>26.0929</ele>
        <time>2013-05-26T09:49:53Z</time>
      </trkpt>
      <trkpt lat="59.8940079" lon="17.7036075">
        <ele>26.0929</ele>
        <time>2013-05-26T09:49:54Z</time>
      </trkpt>
      <trkpt lat="59.8940568" lon="17.7036743">
        <ele>25.6123</ele>
        <time>2013-05-26T09:49:55Z</time>
      </trkpt>
      <trkpt lat="59.8941069" lon="17.7037406">
        <ele>25.6123</ele>
        <time>2013-05-26T09:49:56Z</time>
      </trkpt>
      <trkpt lat="59.8941578" lon="17.7038077">
        <ele>25.6123</ele>
        <time>2013-05-26T09:49:57Z</time>
      </trkpt>
      <trkpt lat="59.8942081" lon="17.7038778">
        <ele>25.6123</ele>
        <time>2013-05-26T09:49:58Z</time>
      </trkpt>
      <trkpt lat="59.8942581" lon="17.7039484">
        <ele>25.6123</ele>
        <time>2013-05-26T09:49:59Z</time>
      </trkpt>
      <trkpt lat="59.8943084" lon="17.7040182">
        <ele>25.6123</ele>
        <time>2013-05-26T09:50:00Z</time>
      </trkpt>
      <trkpt lat="59.8943595" lon="17.7040865">
        <ele>25.6123</ele>
        <time>2013-05-26T09:50:01Z</time>
      </trkpt>
      <trkpt lat="59.8944089" lon="17.7041554">
        <ele>26.0929</ele>
        <time>2013-05-26T09:50:02Z</time>
      </trkpt>
      <trkpt lat="59.8944579" lon="17.7042227">
        <ele>26.0929</ele>
        <time>2013-05-26T09:50:03Z</time>
      </trkpt>
      <trkpt lat="59.8945077" lon="17.7042865">
        <ele>26.0929</ele>
        <time>2013-05-26T09:50:04Z</time>
      </trkpt>
      <trkpt lat="59.894558" lon="17.7043482">
        <ele>26.0929</ele>
        <time>2013-05-26T09:50:05Z</time>
      </trkpt>
      <trkpt lat="59.8946077" lon="17.7044099">
        <ele>26.0929</ele>
        <time>2013-05-26T09:50:06Z</time>
      </trkpt>
      <trkpt lat="59.8946553" lon="17.7044736">
        <ele>26.0929</ele>
        <time>2013-05-26T09:50:07Z</time>
      </trkpt>
      <trkpt lat="59.8947012" lon="17.7045393">
        <ele>26.0929</ele>
        <time>2013-05-26T09:50:08Z</time>
      </trkpt>
      <trkpt lat="59.8947465" lon="17.7046047">
        <ele>26.0929</ele>
        <time>2013-05-26T09:50:09Z</time>
      </trkpt>
      <trkpt lat="59.894792" lon="17.7046699">
        <ele>26.0929</ele>
        <time>2013-05-26T09:50:10Z</time>
      </trkpt>
      <trkpt lat="59.8948362" lon="17.7047356">
        <ele>26.0929</ele>
        <time>2013-05-26T09:50:11Z</time>
      </trkpt>
      <trkpt lat="59.8948808" lon="17.7048005">
        <ele>26.0929</ele>
        <time>2013-05-26T09:50:12Z</time>
      </trkpt>
      <trkpt lat="59.8949263" lon="17.7048631">
        <ele>25.6123</ele>
        <time>2013-05-26T09:50:13Z</time>
      </trkpt>
      <trkpt lat="59.894973" lon="17.7049248">
        <ele>25.6123</ele>
        <time>2013-05-26T09:50:14Z</time>
      </trkpt>
      <trkpt lat="59.8950198" lon="17.7049874">
        <ele>25.6123</ele>
        <time>2013-05-26T09:50:15Z</time>
      </trkpt>
      <trkpt lat="59.8950647" lon="17.7050546">
        <ele>25.6123</ele>
        <time>2013-05-26T09:50:16Z</time>
      </trkpt>
      <trkpt lat="59.8951076" lon="17.7051259">
        <ele>25.6123</ele>
        <time>2013-05-26T09:50:17Z</time>
      </trkpt>
      <trkpt lat="59.8951504" lon="17.7051962">
        <ele>25.6123</ele>
        <time>2013-05-26T09:50:18Z</time>
      </trkpt>
      <trkpt lat="59.8951946" lon="17.7052615">
        <ele>25.6123</ele>
        <time>2013-05-26T09:50:19Z</time>
      </trkpt>
      <trkpt lat="59.8952408" lon="17.7053203">
        <ele>25.6123</ele>
        <time>2013-05-26T09:50:20Z</time>
      </trkpt>
      <trkpt lat="59.895289" lon="17.7053754">
        <ele>26.0929</ele>
        <time>2013-05-26T09:50:21Z</time>
      </trkpt>
      <trkpt lat="59.8953379" lon="17.7054288">
        <ele>26.0929</ele>
        <time>2013-05-26T09:50:22Z</time>
      </trkpt>
      <trkpt lat="59.8953881" lon="17.7054784">
        <ele>26.0929</ele>
        <time>2013-05-26T09:50:23Z</time>
      </trkpt>
      <trkpt lat="59.8954373" lon="17.7055282">
        <ele>26.0929</ele>
        <time>2013-05-26T09:50:24Z</time>
      </trkpt>
      <trkpt lat="59.895484" lon="17.7055835">
        <ele>26.0929</ele>
        <time>2013-05-26T09:50:25Z</time>
      </trkpt>
      <trkpt lat="59.8955287" lon="17.705641">
        <ele>26.0929</ele>
        <time>2013-05-26T09:50:26Z</time>
      </trkpt>
      <trkpt lat="59.8955727" lon="17.7056965">
        <ele>26.0929</ele>
        <time>2013-05-26T09:50:27Z</time>
      </trkpt>
      <trkpt lat="59.8956163" lon="17.7057515">
        <ele>26.0929</ele>
        <time>2013-05-26T09:50:28Z</time>
      </trkpt>
      <trkpt lat="59.8956593" lon="17.7058085">
        <ele>26.0929</ele>
        <time>2013-05-26T09:50:29Z</time>
      </trkpt>
      <trkpt lat="59.8957022" lon="17.7058671">
        <ele>26.0929</ele>
        <time>2013-05-26T09:50:30Z</time>
      </trkpt>
      <trkpt lat="59.895745" lon="17.7059257">
        <ele>26.5736</ele>
        <time>2013-05-26T09:50:31Z</time>
      </trkpt>
      <trkpt lat="59.8957873" lon="17.7059835">
        <ele>26.5736</ele>
        <time>2013-05-26T09:50:32Z</time>
      </trkpt>
      <trkpt lat="59.8958302" lon="17.7060407">
        <ele>26.5736</ele>
        <time>2013-05-26T09:50:33Z</time>
      </trkpt>
      <trkpt lat="59.8958735" lon="17.7060985">
        <ele>26.5736</ele>
        <time>2013-05-26T09:50:34Z</time>
      </trkpt>
      <trkpt lat="59.8959173" lon="17.7061555">
        <ele>26.5736</ele>
        <time>2013-05-26T09:50:35Z</time>
      </trkpt>
      <trkpt lat="59.8959616" lon="17.7062127">
        <ele>26.5736</ele>
        <time>2013-05-26T09:50:36Z</time>
      </trkpt>
      <trkpt lat="59.8960061" lon="17.7062711">
        <ele>26.5736</ele>
        <time>2013-05-26T09:50:37Z</time>
      </trkpt>
      <trkpt lat="59.8960506" lon="17.706331">
        <ele>26.5736</ele>
        <time>2013-05-26T09:50:38Z</time>
      </trkpt>
      <trkpt lat="59.8960955" lon="17.7063914">
        <ele>26.5736</ele>
        <time>2013-05-26T09:50:39Z</time>
      </trkpt>
      <trkpt lat="59.8961414" lon="17.7064509">
        <ele>26.5736</ele>
        <time>2013-05-26T09:50:40Z</time>
      </trkpt>
      <trkpt lat="59.8961876" lon="17.7065114">
        <ele>26.5736</ele>
        <time>2013-05-26T09:50:41Z</time>
      </trkpt>
      <trkpt lat="59.8962347" lon="17.7065731">
        <ele>26.5736</ele>
        <time>2013-05-26T09:50:42Z</time>
      </trkpt>
      <trkpt lat="59.8962814" lon="17.7066357">
        <ele>27.0543</ele>
        <time>2013-05-26T09:50:43Z</time>
      </trkpt>
      <trkpt lat="59.8963275" lon="17.7067">
        <ele>27.0543</ele>
        <time>2013-05-26T09:50:44Z</time>
      </trkpt>
      <trkpt lat="59.8963741" lon="17.7067627">
        <ele>27.0543</ele>
        <time>2013-05-26T09:50:45Z</time>
      </trkpt>
      <trkpt lat="59.8964222" lon="17.7068238">
        <ele>27.0543</ele>
        <time>2013-05-26T09:50:46Z</time>
      </trkpt>
      <trkpt lat="59.8964704" lon="17.7068874">
        <ele>27.0543</ele>
        <time>2013-05-26T09:50:47Z</time>
      </trkpt>
      <trkpt lat="59.8965189" lon="17.7069533">
        <ele>27.0543</ele>
        <time>2013-05-26T09:50:48Z</time>
      </trkpt>
      <trkpt lat="59.8965671" lon="17.7070195">
        <ele>27.0543</ele>
        <time>2013-05-26T09:50:49Z</time>
      </trkpt>
      <trkpt lat="59.8966148" lon="17.7070844">
        <ele>27.0543</ele>
        <time>2013-05-26T09:50:50Z</time>
      </trkpt>
      <trkpt lat="59.8966621" lon="17.7071481">
        <ele>27.0543</ele>
        <time>2013-05-26T09:50:51Z</time>
      </trkpt>
      <trkpt lat="59.8967087" lon="17.7072106">
        <ele>27.0543</ele>
        <time>2013-05-26T09:50:52Z</time>
      </trkpt>
      <trkpt lat="59.8967553" lon="17.7072715">
        <ele>27.0543</ele>
        <time>2013-05-26T09:50:53Z</time>
      </trkpt>
      <trkpt lat="59.8968014" lon="17.7073325">
        <ele>27.0543</ele>
        <time>2013-05-26T09:50:54Z</time>
      </trkpt>
      <trkpt lat="59.8968479" lon="17.7073929">
        <ele>27.0543</ele>
        <time>2013-05-26T09:50:55Z</time>
      </trkpt>
      <trkpt lat="59.8968951" lon="17.7074527">
        <ele>27.0543</ele>
        <time>2013-05-26T09:50:56Z</time>
      </trkpt>
      <trkpt lat="59.8969421" lon="17.7075148">
        <ele>27.0543</ele>
        <time>2013-05-26T09:50:57Z</time>
      </trkpt>
      <trkpt lat="59.896989" lon="17.707577">
        <ele>27.0543</ele>
        <time>2013-05-26T09:50:58Z</time>
      </trkpt>
      <trkpt lat="59.8970355" lon="17.7076396">
        <ele>27.0543</ele>
        <time>2013-05-26T09:50:59Z</time>
      </trkpt>
      <trkpt lat="59.8970812" lon="17.7077039">
        <ele>27.0543</ele>
        <time>2013-05-26T09:51:00Z</time>
      </trkpt>
      <trkpt lat="59.8971269" lon="17.7077687">
        <ele>27.0543</ele>
        <time>2013-05-26T09:51:01Z</time>
      </trkpt>
      <trkpt lat="59.8971723" lon="17.7078308">
        <ele>27.0543</ele>
        <time>2013-05-26T09:51:02Z</time>
      </trkpt>
      <trkpt lat="59.8972174" lon="17.7078887">
        <ele>27.0543</ele>
        <time>2013-05-26T09:51:03Z</time>
      </trkpt>
      <trkpt lat="59.8972618" lon="17.7079454">
        <ele>27.0543</ele>
        <time>2013-05-26T09:51:04Z</time>
      </trkpt>
      <trkpt lat="59.897305" lon="17.7080043">
        <ele>27.0543</ele>
        <time>2013-05-26T09:51:05Z</time>
      </trkpt>
      <trkpt lat="59.8973473" lon="17.7080658">
        <ele>27.0543</ele>
        <time>2013-05-26T09:51:06Z</time>
      </trkpt>
      <trkpt lat="59.8973889" lon="17.7081298">
        <ele>27.0543</ele>
        <time>2013-05-26T09:51:07Z</time>
      </trkpt>
      <trkpt lat="59.8974286" lon="17.7081985">
        <ele>27.0543</ele>
        <time>2013-05-26T09:51:08Z</time>
      </trkpt>
      <trkpt lat="59.8974674" lon="17.7082695">
        <ele>27.0543</ele>
        <time>2013-05-26T09:51:09Z</time>
      </trkpt>
      <trkpt lat="59.897507" lon="17.7083393">
        <ele>27.0543</ele>
        <time>2013-05-26T09:51:10Z</time>
      </trkpt>
      <trkpt lat="59.8975495" lon="17.7084027">
        <ele>27.0543</ele>
        <time>2013-05-26T09:51:11Z</time>
      </trkpt>
      <trkpt lat="59.8975945" lon="17.708458">
        <ele>27.0543</ele>
        <time>2013-05-26T09:51:12Z</time>
      </trkpt>
      <trkpt lat="59.8976391" lon="17.7085095">
        <ele>26.5736</ele>
        <time>2013-05-26T09:51:13Z</time>
      </trkpt>
      <trkpt lat="59.8976835" lon="17.7085582">
        <ele>26.5736</ele>
        <time>2013-05-26T09:51:14Z</time>
      </trkpt>
      <trkpt lat="59.8977293" lon="17.708603">
        <ele>26.5736</ele>
        <time>2013-05-26T09:51:15Z</time>
      </trkpt>
      <trkpt lat="59.8977746" lon="17.7086498">
        <ele>26.5736</ele>
        <time>2013-05-26T09:51:16Z</time>
      </trkpt>
      <trkpt lat="59.8978173" lon="17.7087021">
        <ele>26.5736</ele>
        <time>2013-05-26T09:51:17Z</time>
      </trkpt>
      <trkpt lat="59.8978603" lon="17.7087578">
        <ele>26.5736</ele>
        <time>2013-05-26T09:51:18Z</time>
      </trkpt>
      <trkpt lat="59.8979042" lon="17.7088161">
        <ele>26.5736</ele>
        <time>2013-05-26T09:51:19Z</time>
      </trkpt>
      <trkpt lat="59.8979487" lon="17.7088749">
        <ele>26.5736</ele>
        <time>2013-05-26T09:51:20Z</time>
      </trkpt>
      <trkpt lat="59.8979929" lon="17.7089332">
        <ele>26.5736</ele>
        <time>2013-05-26T09:51:21Z</time>
      </trkpt>
      <trkpt lat="59.8980369" lon="17.7089921">
        <ele>26.5736</ele>
        <time>2013-05-26T09:51:22Z</time>
      </trkpt>
      <trkpt lat="59.8980808" lon="17.7090519">
        <ele>26.5736</ele>
        <time>2013-05-26T09:51:23Z</time>
      </trkpt>
      <trkpt lat="59.8981249" lon="17.7091116">
        <ele>26.5736</ele>
        <time>2013-05-26T09:51:24Z</time>
      </trkpt>
      <trkpt lat="59.8981694" lon="17.709171">
        <ele>26.5736</ele>
        <time>2013-05-26T09:51:25Z</time>
      </trkpt>
      <trkpt lat="59.8982135" lon="17.7092316">
        <ele>26.5736</ele>
        <time>2013-05-26T09:51:26Z</time>
      </trkpt>
      <trkpt lat="59.8982585" lon="17.7092912">
        <ele>26.5736</ele>
        <time>2013-05-26T09:51:27Z</time>
      </trkpt>
      <trkpt lat="59.8983035" lon="17.709349">
        <ele>26.5736</ele>
        <time>2013-05-26T09:51:28Z</time>
      </trkpt>
      <trkpt lat="59.8983482" lon="17.7094057">
        <ele>26.5736</ele>
        <time>2013-05-26T09:51:29Z</time>
      </trkpt>
      <trkpt lat="59.8983933" lon="17.7094631">
        <ele>27.0543</ele>
        <time>2013-05-26T09:51:30Z</time>
      </trkpt>
      <trkpt lat="59.8984385" lon="17.7095221">
        <ele>27.0543</ele>
        <time>2013-05-26T09:51:31Z</time>
      </trkpt>
      <trkpt lat="59.8984844" lon="17.709583">
        <ele>27.0543</ele>
        <time>2013-05-26T09:51:32Z</time>
      </trkpt>
      <trkpt lat="59.8985311" lon="17.7096444">
        <ele>27.0543</ele>
        <time>2013-05-26T09:51:33Z</time>
      </trkpt>
      <trkpt lat="59.8985782" lon="17.7097061">
        <ele>27.0543</ele>
        <time>2013-05-26T09:51:34Z</time>
      </trkpt>
      <trkpt lat="59.8986255" lon="17.709768">
        <ele>27.0543</ele>
        <time>2013-05-26T09:51:35Z</time>
      </trkpt>
      <trkpt lat="59.8986731" lon="17.7098288">
        <ele>27.0543</ele>
        <time>2013-05-26T09:51:36Z</time>
      </trkpt>
      <trkpt lat="59.898722" lon="17.7098892">
        <ele>27.0543</ele>
        <time>2013-05-26T09:51:37Z</time>
      </trkpt>
      <trkpt lat="59.8987717" lon="17.70995">
        <ele>27.0543</ele>
        <time>2013-05-26T09:51:38Z</time>
      </trkpt>
      <trkpt lat="59.8988207" lon="17.7100122">
        <ele>27.0543</ele>
        <time>2013-05-26T09:51:39Z</time>
      </trkpt>
      <trkpt lat="59.8988695" lon="17.7100759">
        <ele>27.0543</ele>
        <time>2013-05-26T09:51:40Z</time>
      </trkpt>
      <trkpt lat="59.8989191" lon="17.7101406">
        <ele>27.0543</ele>
        <time>2013-05-26T09:51:41Z</time>
      </trkpt>
      <trkpt lat="59.8989699" lon="17.7102047">
        <ele>27.5349</ele>
        <time>2013-05-26T09:51:42Z</time>
      </trkpt>
      <trkpt lat="59.899021" lon="17.7102705">
        <ele>27.5349</ele>
        <time>2013-05-26T09:51:43Z</time>
      </trkpt>
      <trkpt lat="59.8990719" lon="17.7103391">
        <ele>27.5349</ele>
        <time>2013-05-26T09:51:44Z</time>
      </trkpt>
      <trkpt lat="59.8991225" lon="17.7104101">
        <ele>27.5349</ele>
        <time>2013-05-26T09:51:45Z</time>
      </trkpt>
      <trkpt lat="59.8991746" lon="17.7104804">
        <ele>27.5349</ele>
        <time>2013-05-26T09:51:46Z</time>
      </trkpt>
      <trkpt lat="59.8992256" lon="17.7105469">
        <ele>27.5349</ele>
        <time>2013-05-26T09:51:47Z</time>
      </trkpt>
      <trkpt lat="59.8992763" lon="17.7106111">
        <ele>27.5349</ele>
        <time>2013-05-26T09:51:48Z</time>
      </trkpt>
      <trkpt lat="59.8993267" lon="17.710674">
        <ele>27.5349</ele>
        <time>2013-05-26T09:51:49Z</time>
      </trkpt>
      <trkpt lat="59.8993784" lon="17.7107342">
        <ele>27.5349</ele>
        <time>2013-05-26T09:51:50Z</time>
      </trkpt>
      <trkpt lat="59.8994303" lon="17.7107937">
        <ele>28.0155</ele>
        <time>2013-05-26T09:51:51Z</time>
      </trkpt>
      <trkpt lat="59.8994821" lon="17.7108544">
        <ele>28.0155</ele>
        <time>2013-05-26T09:51:52Z</time>
      </trkpt>
      <trkpt lat="59.8995329" lon="17.7109166">
        <ele>28.4962</ele>
        <time>2013-05-26T09:51:53Z</time>
      </trkpt>
      <trkpt lat="59.8995837" lon="17.7109784">
        <ele>28.4962</ele>
        <time>2013-05-26T09:51:54Z</time>
      </trkpt>
      <trkpt lat="59.8996343" lon="17.7110393">
        <ele>28.4962</ele>
        <time>2013-05-26T09:51:55Z</time>
      </trkpt>
      <trkpt lat="59.8996852" lon="17.7110995">
        <ele>28.4962</ele>
        <time>2013-05-26T09:51:56Z</time>
      </trkpt>
      <trkpt lat="59.8997359" lon="17.7111594">
        <ele>28.4962</ele>
        <time>2013-05-26T09:51:57Z</time>
      </trkpt>
      <trkpt lat="59.8997858" lon="17.7112179">
        <ele>28.4962</ele>
        <time>2013-05-26T09:51:58Z</time>
      </trkpt>
      <trkpt lat="59.8998354" lon="17.7112745">
        <ele>28.4962</ele>
        <time>2013-05-26T09:51:59Z</time>
      </trkpt>
      <trkpt lat="59.8998841" lon="17.711331">
        <ele>28.4962</ele>
        <time>2013-05-26T09:52:00Z</time>
      </trkpt>
      <trkpt lat="59.8999319" lon="17.7113871">
        <ele>28.4962</ele>
        <time>2013-05-26T09:52:01Z</time>
      </trkpt>
      <trkpt lat="59.89998" lon="17.7114407">
        <ele>28.4962</ele>
        <time>2013-05-26T09:52:02Z</time>
      </trkpt>
      <trkpt lat="59.900028" lon="17.7114942">
        <ele>28.4962</ele>
        <time>2013-05-26T09:52:03Z</time>
      </trkpt>
      <trkpt lat="59.9000754" lon="17.711552">
        <ele>28.4962</ele>
        <time>2013-05-26T09:52:04Z</time>
      </trkpt>
      <trkpt lat="59.9001229" lon="17.7116105">
        <ele>28.4962</ele>
        <time>2013-05-26T09:52:05Z</time>
      </trkpt>
      <trkpt lat="59.9001717" lon="17.7116647">
        <ele>28.4962</ele>
        <time>2013-05-26T09:52:06Z</time>
      </trkpt>
      <trkpt lat="59.9002217" lon="17.711718">
        <ele>28.4962</ele>
        <time>2013-05-26T09:52:07Z</time>
      </trkpt>
      <trkpt lat="59.9002711" lon="17.7117739">
        <ele>28.4962</ele>
        <time>2013-05-26T09:52:08Z</time>
      </trkpt>
      <trkpt lat="59.9003194" lon="17.7118324">
        <ele>28.4962</ele>
        <time>2013-05-26T09:52:09Z</time>
      </trkpt>
      <trkpt lat="59.9003678" lon="17.7118895">
        <ele>28.4962</ele>
        <time>2013-05-26T09:52:10Z</time>
      </trkpt>
      <trkpt lat="59.9004159" lon="17.7119432">
        <ele>28.4962</ele>
        <time>2013-05-26T09:52:11Z</time>
      </trkpt>
      <trkpt lat="59.9004627" lon="17.7119946">
        <ele>28.4962</ele>
        <time>2013-05-26T09:52:12Z</time>
      </trkpt>
      <trkpt lat="59.9005083" lon="17.7120449">
        <ele>28.4962</ele>
        <time>2013-05-26T09:52:13Z</time>
      </trkpt>
      <trkpt lat="59.9005535" lon="17.7120951">
        <ele>28.4962</ele>
        <time>2013-05-26T09:52:14Z</time>
      </trkpt>
      <trkpt lat="59.9005995" lon="17.7121453">
        <ele>28.4962</ele>
        <time>2013-05-26T09:52:15Z</time>
      </trkpt>
      <trkpt lat="59.900645" lon="17.7121959">
        <ele>28.4962</ele>
        <time>2013-05-26T09:52:16Z</time>
      </trkpt>
      <trkpt lat="59.9006906" lon="17.7122463">
        <ele>28.4962</ele>
        <time>2013-05-26T09:52:17Z</time>
      </trkpt>
      <trkpt lat="59.9007368" lon="17.7122984">
        <ele>28.4962</ele>
        <time>2013-05-26T09:52:18Z</time>
      </trkpt>
      <trkpt lat="59.9007833" lon="17.7123509">
        <ele>28.4962</ele>
        <time>2013-05-26T09:52:19Z</time>
      </trkpt>
      <trkpt lat="59.9008305" lon="17.7124024">
        <ele>28.4962</ele>
        <time>2013-05-26T09:52:20Z</time>
      </trkpt>
      <trkpt lat="59.9008786" lon="17.7124539">
        <ele>28.4962</ele>
        <time>2013-05-26T09:52:21Z</time>
      </trkpt>
      <trkpt lat="59.9009268" lon="17.7125043">
        <ele>28.0155</ele>
        <time>2013-05-26T09:52:22Z</time>
      </trkpt>
      <trkpt lat="59.900974" lon="17.7125517">
        <ele>28.0155</ele>
        <time>2013-05-26T09:52:23Z</time>
      </trkpt>
      <trkpt lat="59.9010196" lon="17.7126012">
        <ele>28.0155</ele>
        <time>2013-05-26T09:52:24Z</time>
      </trkpt>
      <trkpt lat="59.9010526" lon="17.7126728">
        <ele>28.0155</ele>
        <time>2013-05-26T09:52:25Z</time>
      </trkpt>
      <trkpt lat="59.9010598" lon="17.7127654">
        <ele>28.0155</ele>
        <time>2013-05-26T09:52:26Z</time>
      </trkpt>
      <trkpt lat="59.9010435" lon="17.7128556">
        <ele>28.4962</ele>
        <time>2013-05-26T09:52:27Z</time>
      </trkpt>
      <trkpt lat="59.9010174" lon="17.712942">
        <ele>28.4962</ele>
        <time>2013-05-26T09:52:28Z</time>
      </trkpt>
      <trkpt lat="59.9009881" lon="17.7130284">
        <ele>28.4962</ele>
        <time>2013-05-26T09:52:29Z</time>
      </trkpt>
      <trkpt lat="59.9009577" lon="17.7131156">
        <ele>28.4962</ele>
        <time>2013-05-26T09:52:30Z</time>
      </trkpt>
      <trkpt lat="59.9009247" lon="17.7132034">
        <ele>28.4962</ele>
        <time>2013-05-26T09:52:31Z</time>
      </trkpt>
      <trkpt lat="59.9008914" lon="17.7132942">
        <ele>28.4962</ele>
        <time>2013-05-26T09:52:32Z</time>
      </trkpt>
      <trkpt lat="59.9008622" lon="17.7133884">
        <ele>28.4962</ele>
        <time>2013-05-26T09:52:33Z</time>
      </trkpt>
      <trkpt lat="59.9008305" lon="17.7134885">
        <ele>28.4962</ele>
        <time>2013-05-26T09:52:34Z</time>
      </trkpt>
      <trkpt lat="59.9007958" lon="17.7135911">
        <ele>28.0155</ele>
        <time>2013-05-26T09:52:35Z</time>
      </trkpt>
      <trkpt lat="59.9007636" lon="17.7136992">
        <ele>28.4962</ele>
        <time>2013-05-26T09:52:36Z</time>
      </trkpt>
      <trkpt lat="59.9007281" lon="17.7138111">
        <ele>28.0155</ele>
        <time>2013-05-26T09:52:37Z</time>
      </trkpt>
      <trkpt lat="59.9006958" lon="17.7139221">
        <ele>28.0155</ele>
        <time>2013-05-26T09:52:38Z</time>
      </trkpt>
      <trkpt lat="59.9006601" lon="17.7140345">
        <ele>28.9769</ele>
        <time>2013-05-26T09:52:39Z</time>
      </trkpt>
      <trkpt lat="59.9006238" lon="17.7141467">
        <ele>29.4575</ele>
        <time>2013-05-26T09:52:40Z</time>
      </trkpt>
      <trkpt lat="59.9005871" lon="17.7142635">
        <ele>29.4575</ele>
        <time>2013-05-26T09:52:41Z</time>
      </trkpt>
      <trkpt lat="59.9005498" lon="17.7143812">
        <ele>29.9381</ele>
        <time>2013-05-26T09:52:42Z</time>
      </trkpt>
      <trkpt lat="59.900514" lon="17.7144974">
        <ele>30.4188</ele>
        <time>2013-05-26T09:52:43Z</time>
      </trkpt>
      <trkpt lat="59.9004798" lon="17.7146122">
        <ele>30.8995</ele>
        <time>2013-05-26T09:52:44Z</time>
      </trkpt>
      <trkpt lat="59.9004467" lon="17.7147269">
        <ele>30.8995</ele>
        <time>2013-05-26T09:52:45Z</time>
      </trkpt>
      <trkpt lat="59.9004151" lon="17.7148415">
        <ele>30.8995</ele>
        <time>2013-05-26T09:52:46Z</time>
      </trkpt>
      <trkpt lat="59.9003844" lon="17.7149571">
        <ele>30.8995</ele>
        <time>2013-05-26T09:52:47Z</time>
      </trkpt>
      <trkpt lat="59.9003572" lon="17.7150706">
        <ele>30.8995</ele>
        <time>2013-05-26T09:52:48Z</time>
      </trkpt>
      <trkpt lat="59.9003308" lon="17.7151866">
        <ele>30.8995</ele>
        <time>2013-05-26T09:52:49Z</time>
      </trkpt>
      <trkpt lat="59.9003042" lon="17.7153036">
        <ele>30.8995</ele>
        <time>2013-05-26T09:52:50Z</time>
      </trkpt>
      <trkpt lat="59.9002787" lon="17.7154222">
        <ele>30.8995</ele>
        <time>2013-05-26T09:52:51Z</time>
      </trkpt>
      <trkpt lat="59.900253" lon="17.7155419">
        <ele>30.8995</ele>
        <time>2013-05-26T09:52:52Z</time>
      </trkpt>
      <trkpt lat="59.9002285" lon="17.7156621">
        <ele>30.8995</ele>
        <time>2013-05-26T09:52:53Z</time>
      </trkpt>
      <trkpt lat="59.9002075" lon="17.7157844">
        <ele>30.8995</ele>
        <time>2013-05-26T09:52:54Z</time>
      </trkpt>
      <trkpt lat="59.9001897" lon="17.7159098">
        <ele>31.3801</ele>
        <time>2013-05-26T09:52:55Z</time>
      </trkpt>
      <trkpt lat="59.9001746" lon="17.7160369">
        <ele>31.3801</ele>
        <time>2013-05-26T09:52:56Z</time>
      </trkpt>
      <trkpt lat="59.9001621" lon="17.7161661">
        <ele>31.3801</ele>
        <time>2013-05-26T09:52:57Z</time>
      </trkpt>
      <trkpt lat="59.9001515" lon="17.716299">
        <ele>31.8607</ele>
        <time>2013-05-26T09:52:58Z</time>
      </trkpt>
      <trkpt lat="59.9001416" lon="17.716436">
        <ele>31.8607</ele>
        <time>2013-05-26T09:52:59Z</time>
      </trkpt>
      <trkpt lat="59.9001359" lon="17.7165707">
        <ele>31.8607</ele>
        <time>2013-05-26T09:53:00Z</time>
      </trkpt>
      <trkpt lat="59.9001317" lon="17.7167026">
        <ele>32.3416</ele>
        <time>2013-05-26T09:53:01Z</time>
      </trkpt>
      <trkpt lat="59.9001265" lon="17.7168321">
        <ele>32.3416</ele>
        <time>2013-05-26T09:53:02Z</time>
      </trkpt>
      <trkpt lat="59.9001199" lon="17.7169609">
        <ele>32.8223</ele>
        <time>2013-05-26T09:53:03Z</time>
      </trkpt>
      <trkpt lat="59.9001124" lon="17.7170918">
        <ele>33.3029</ele>
        <time>2013-05-26T09:53:04Z</time>
      </trkpt>
      <trkpt lat="59.9001023" lon="17.717223">
        <ele>32.8223</ele>
        <time>2013-05-26T09:53:05Z</time>
      </trkpt>
      <trkpt lat="59.9000897" lon="17.7173535">
        <ele>32.8223</ele>
        <time>2013-05-26T09:53:06Z</time>
      </trkpt>
      <trkpt lat="59.9000773" lon="17.7174783">
        <ele>32.8223</ele>
        <time>2013-05-26T09:53:07Z</time>
      </trkpt>
      <trkpt lat="59.9000618" lon="17.7176034">
        <ele>32.3416</ele>
        <time>2013-05-26T09:53:08Z</time>
      </trkpt>
      <trkpt lat="59.9000436" lon="17.7177288">
        <ele>32.3416</ele>
        <time>2013-05-26T09:53:09Z</time>
      </trkpt>
      <trkpt lat="59.9000208" lon="17.7178506">
        <ele>32.3416</ele>
        <time>2013-05-26T09:53:10Z</time>
      </trkpt>
      <trkpt lat="59.8999943" lon="17.7179686">
        <ele>32.3416</ele>
        <time>2013-05-26T09:53:11Z</time>
      </trkpt>
      <trkpt lat="59.8999649" lon="17.7180848">
        <ele>32.3416</ele>
        <time>2013-05-26T09:53:12Z</time>
      </trkpt>
      <trkpt lat="59.8999369" lon="17.7181981">
        <ele>32.8223</ele>
        <time>2013-05-26T09:53:13Z</time>
      </trkpt>
      <trkpt lat="59.8999043" lon="17.7183091">
        <ele>32.8223</ele>
        <time>2013-05-26T09:53:14Z</time>
      </trkpt>
      <trkpt lat="59.8998706" lon="17.7184164">
        <ele>32.8223</ele>
        <time>2013-05-26T09:53:15Z</time>
      </trkpt>
      <trkpt lat="59.8998349" lon="17.7185256">
        <ele>32.8223</ele>
        <time>2013-05-26T09:53:16Z</time>
      </trkpt>
      <trkpt lat="59.8997987" lon="17.7186364">
        <ele>32.8223</ele>
        <time>2013-05-26T09:53:17Z</time>
      </trkpt>
      <trkpt lat="59.8997649" lon="17.7187505">
        <ele>33.3029</ele>
        <time>2013-05-26T09:53:18Z</time>
      </trkpt>
      <trkpt lat="59.8997322" lon="17.718863">
        <ele>33.3029</ele>
        <time>2013-05-26T09:53:19Z</time>
      </trkpt>
      <trkpt lat="59.8996992" lon="17.7189751">
        <ele>33.7834</ele>
        <time>2013-05-26T09:53:20Z</time>
      </trkpt>
      <trkpt lat="59.899664" lon="17.7190892">
        <ele>33.7834</ele>
        <time>2013-05-26T09:53:21Z</time>
      </trkpt>
      <trkpt lat="59.8996307" lon="17.7192077">
        <ele>33.3029</ele>
        <time>2013-05-26T09:53:22Z</time>
      </trkpt>
      <trkpt lat="59.8995982" lon="17.7193286">
        <ele>32.8223</ele>
        <time>2013-05-26T09:53:23Z</time>
      </trkpt>
      <trkpt lat="59.8995697" lon="17.7194508">
        <ele>32.8223</ele>
        <time>2013-05-26T09:53:24Z</time>
      </trkpt>
      <trkpt lat="59.8995433" lon="17.7195756">
        <ele>32.8223</ele>
        <time>2013-05-26T09:53:25Z</time>
      </trkpt>
      <trkpt lat="59.8995164" lon="17.7197008">
        <ele>32.8223</ele>
        <time>2013-05-26T09:53:26Z</time>
      </trkpt>
      <trkpt lat="59.8994888" lon="17.7198274">
        <ele>32.3416</ele>
        <time>2013-05-26T09:53:27Z</time>
      </trkpt>
      <trkpt lat="59.8994612" lon="17.7199537">
        <ele>32.3416</ele>
        <time>2013-05-26T09:53:28Z</time>
      </trkpt>
      <trkpt lat="59.8994354" lon="17.7200818">
        <ele>32.3416</ele>
        <time>2013-05-26T09:53:29Z</time>
      </trkpt>
      <trkpt lat="59.8994111" lon="17.7202103">
        <ele>32.3416</ele>
        <time>2013-05-26T09:53:30Z</time>
      </trkpt>
      <trkpt lat="59.8993873" lon="17.7203385">
        <ele>32.3416</ele>
        <time>2013-05-26T09:53:31Z</time>
      </trkpt>
      <trkpt lat="59.8993638" lon="17.720465">
        <ele>32.3416</ele>
        <time>2013-05-26T09:53:32Z</time>
      </trkpt>
      <trkpt lat="59.8993401" lon="17.72059">
        <ele>32.3416</ele>
        <time>2013-05-26T09:53:33Z</time>
      </trkpt>
      <trkpt lat="59.8993158" lon="17.7207151">
        <ele>32.3416</ele>
        <time>2013-05-26T09:53:34Z</time>
      </trkpt>
      <trkpt lat="59.8992921" lon="17.7208401">
        <ele>32.3416</ele>
        <time>2013-05-26T09:53:35Z</time>
      </trkpt>
      <trkpt lat="59.8992687" lon="17.7209648">
        <ele>31.8607</ele>
        <time>2013-05-26T09:53:36Z</time>
      </trkpt>
      <trkpt lat="59.8992444" lon="17.7210884">
        <ele>31.8607</ele>
        <time>2013-05-26T09:53:37Z</time>
      </trkpt>
      <trkpt lat="59.8992214" lon="17.7212116">
        <ele>31.8607</ele>
        <time>2013-05-26T09:53:38Z</time>
      </trkpt>
      <trkpt lat="59.8991996" lon="17.7213356">
        <ele>31.8607</ele>
        <time>2013-05-26T09:53:39Z</time>
      </trkpt>
      <trkpt lat="59.8991773" lon="17.7214596">
        <ele>31.8607</ele>
        <time>2013-05-26T09:53:40Z</time>
      </trkpt>
      <trkpt lat="59.8991552" lon="17.7215843">
        <ele>31.8607</ele>
        <time>2013-05-26T09:53:41Z</time>
      </trkpt>
      <trkpt lat="59.8991336" lon="17.7217113">
        <ele>31.8607</ele>
        <time>2013-05-26T09:53:42Z</time>
      </trkpt>
      <trkpt lat="59.8991127" lon="17.7218381">
        <ele>31.8607</ele>
        <time>2013-05-26T09:53:43Z</time>
      </trkpt>
      <trkpt lat="59.8990931" lon="17.7219651">
        <ele>31.8607</ele>
        <time>2013-05-26T09:53:44Z</time>
      </trkpt>
      <trkpt lat="59.8990745" lon="17.7220921">
        <ele>31.8607</ele>
        <time>2013-05-26T09:53:45Z</time>
      </trkpt>
      <trkpt lat="59.8990565" lon="17.7222196">
        <ele>31.8607</ele>
        <time>2013-05-26T09:53:46Z</time>
      </trkpt>
      <trkpt lat="59.8990387" lon="17.7223466">
        <ele>32.3416</ele>
        <time>2013-05-26T09:53:47Z</time>
      </trkpt>
      <trkpt lat="59.899019" lon="17.7224744">
        <ele>32.3416</ele>
        <time>2013-05-26T09:53:48Z</time>
      </trkpt>
      <trkpt lat="59.8989978" lon="17.7226037">
        <ele>32.3416</ele>
        <time>2013-05-26T09:53:49Z</time>
      </trkpt>
      <trkpt lat="59.8989786" lon="17.7227349">
        <ele>32.3416</ele>
        <time>2013-05-26T09:53:50Z</time>
      </trkpt>
      <trkpt lat="59.8989603" lon="17.7228651">
        <ele>32.3416</ele>
        <time>2013-05-26T09:53:51Z</time>
      </trkpt>
      <trkpt lat="59.8989408" lon="17.7229938">
        <ele>32.3416</ele>
        <time>2013-05-26T09:53:52Z</time>
      </trkpt>
      <trkpt lat="59.8989207" lon="17.7231214">
        <ele>32.3416</ele>
        <time>2013-05-26T09:53:53Z</time>
      </trkpt>
      <trkpt lat="59.898901" lon="17.7232487">
        <ele>32.3416</ele>
        <time>2013-05-26T09:53:54Z</time>
      </trkpt>
      <trkpt lat="59.8988819" lon="17.7233773">
        <ele>31.8607</ele>
        <time>2013-05-26T09:53:55Z</time>
      </trkpt>
      <trkpt lat="59.8988627" lon="17.7235072">
        <ele>31.8607</ele>
        <time>2013-05-26T09:53:56Z</time>
      </trkpt>
      <trkpt lat="59.8988425" lon="17.7236378">
        <ele>31.8607</ele>
        <time>2013-05-26T09:53:57Z</time>
      </trkpt>
      <trkpt lat="59.8988212" lon="17.7237705">
        <ele>31.3801</ele>
        <time>2013-05-26T09:53:58Z</time>
      </trkpt>
      <trkpt lat="59.8987992" lon="17.7239032">
        <ele>31.3801</ele>
        <time>2013-05-26T09:53:59Z</time>
      </trkpt>
      <trkpt lat="59.8987772" lon="17.7240361">
        <ele>30.8995</ele>
        <time>2013-05-26T09:54:00Z</time>
      </trkpt>
      <trkpt lat="59.8987552" lon="17.7241718">
        <ele>30.8995</ele>
        <time>2013-05-26T09:54:01Z</time>
      </trkpt>
      <trkpt lat="59.8987363" lon="17.7243183">
        <ele>30.8995</ele>
        <time>2013-05-26T09:54:02Z</time>
      </trkpt>
      <trkpt lat="59.8987158" lon="17.7244604">
        <ele>30.4188</ele>
        <time>2013-05-26T09:54:03Z</time>
      </trkpt>
      <trkpt lat="59.8986946" lon="17.7246025">
        <ele>30.4188</ele>
        <time>2013-05-26T09:54:04Z</time>
      </trkpt>
      <trkpt lat="59.8986726" lon="17.7247444">
        <ele>30.4188</ele>
        <time>2013-05-26T09:54:05Z</time>
      </trkpt>
      <trkpt lat="59.8986503" lon="17.7248868">
        <ele>30.4188</ele>
        <time>2013-05-26T09:54:06Z</time>
      </trkpt>
      <trkpt lat="59.8986236" lon="17.7250339">
        <ele>29.9381</ele>
        <time>2013-05-26T09:54:07Z</time>
      </trkpt>
      <trkpt lat="59.8985974" lon="17.7251812">
        <ele>29.9381</ele>
        <time>2013-05-26T09:54:08Z</time>
      </trkpt>
      <trkpt lat="59.898571" lon="17.7253267">
        <ele>29.9381</ele>
        <time>2013-05-26T09:54:09Z</time>
      </trkpt>
      <trkpt lat="59.8985445" lon="17.7254721">
        <ele>29.9381</ele>
        <time>2013-05-26T09:54:10Z</time>
      </trkpt>
      <trkpt lat="59.8985174" lon="17.7256168">
        <ele>29.9381</ele>
        <time>2013-05-26T09:54:11Z</time>
      </trkpt>
      <trkpt lat="59.8984881" lon="17.7257617">
        <ele>29.9381</ele>
        <time>2013-05-26T09:54:12Z</time>
      </trkpt>
      <trkpt lat="59.8984574" lon="17.7259063">
        <ele>29.9381</ele>
        <time>2013-05-26T09:54:13Z</time>
      </trkpt>
      <trkpt lat="59.8984254" lon="17.7260512">
        <ele>29.9381</ele>
        <time>2013-05-26T09:54:14Z</time>
      </trkpt>
      <trkpt lat="59.8983923" lon="17.7261954">
        <ele>29.9381</ele>
        <time>2013-05-26T09:54:15Z</time>
      </trkpt>
      <trkpt lat="59.8983579" lon="17.7263399">
        <ele>29.9381</ele>
        <time>2013-05-26T09:54:16Z</time>
      </trkpt>
      <trkpt lat="59.8983223" lon="17.7264848">
        <ele>29.9381</ele>
        <time>2013-05-26T09:54:17Z</time>
      </trkpt>
      <trkpt lat="59.8982861" lon="17.7266273">
        <ele>29.4575</ele>
        <time>2013-05-26T09:54:18Z</time>
      </trkpt>
      <trkpt lat="59.8982466" lon="17.7267693">
        <ele>29.4575</ele>
        <time>2013-05-26T09:54:19Z</time>
      </trkpt>
      <trkpt lat="59.8982052" lon="17.7269097">
        <ele>29.4575</ele>
        <time>2013-05-26T09:54:20Z</time>
      </trkpt>
      <trkpt lat="59.8981633" lon="17.7270455">
        <ele>29.4575</ele>
        <time>2013-05-26T09:54:21Z</time>
      </trkpt>
      <trkpt lat="59.8981227" lon="17.7271749">
        <ele>29.4575</ele>
        <time>2013-05-26T09:54:22Z</time>
      </trkpt>
      <trkpt lat="59.8980818" lon="17.727294">
        <ele>29.4575</ele>
        <time>2013-05-26T09:54:23Z</time>
      </trkpt>
      <trkpt lat="59.8980415" lon="17.7274017">
        <ele>28.9769</ele>
        <time>2013-05-26T09:54:24Z</time>
      </trkpt>
      <trkpt lat="59.8980062" lon="17.7274923">
        <ele>28.9769</ele>
        <time>2013-05-26T09:54:25Z</time>
      </trkpt>
      <trkpt lat="59.8979767" lon="17.7275644">
        <ele>28.9769</ele>
        <time>2013-05-26T09:54:26Z</time>
      </trkpt>
      <trkpt lat="59.8979498" lon="17.7276281">
        <ele>28.4962</ele>
        <time>2013-05-26T09:54:27Z</time>
      </trkpt>
      <trkpt lat="59.8979235" lon="17.7276921">
        <ele>28.4962</ele>
        <time>2013-05-26T09:54:28Z</time>
      </trkpt>
      <trkpt lat="59.8978968" lon="17.7277605">
        <ele>28.4962</ele>
        <time>2013-05-26T09:54:29Z</time>
      </trkpt>
      <trkpt lat="59.897869" lon="17.7278374">
        <ele>28.4962</ele>
        <time>2013-05-26T09:54:30Z</time>
      </trkpt>
      <trkpt lat="59.8978428" lon="17.7279264">
        <ele>28.4962</ele>
        <time>2013-05-26T09:54:31Z</time>
      </trkpt>
      <trkpt lat="59.8978192" lon="17.7280285">
        <ele>28.4962</ele>
        <time>2013-05-26T09:54:32Z</time>
      </trkpt>
      <trkpt lat="59.897794" lon="17.7281384">
        <ele>28.4962</ele>
        <time>2013-05-26T09:54:33Z</time>
      </trkpt>
      <trkpt lat="59.8977656" lon="17.7282527">
        <ele>28.4962</ele>
        <time>2013-05-26T09:54:34Z</time>
      </trkpt>
      <trkpt lat="59.897736" lon="17.7283716">
        <ele>28.4962</ele>
        <time>2013-05-26T09:54:35Z</time>
      </trkpt>
      <trkpt lat="59.8977059" lon="17.7284942">
        <ele>28.4962</ele>
        <time>2013-05-26T09:54:36Z</time>
      </trkpt>
      <trkpt lat="59.8976736" lon="17.7286215">
        <ele>28.4962</ele>
        <time>2013-05-26T09:54:37Z</time>
      </trkpt>
      <trkpt lat="59.8976418" lon="17.7287522">
        <ele>28.4962</ele>
        <time>2013-05-26T09:54:38Z</time>
      </trkpt>
      <trkpt lat="59.8976136" lon="17.7288858">
        <ele>28.4962</ele>
        <time>2013-05-26T09:54:39Z</time>
      </trkpt>
      <trkpt lat="59.8975858" lon="17.72902">
        <ele>28.4962</ele>
        <time>2013-05-26T09:54:40Z</time>
      </trkpt>
      <trkpt lat="59.8975592" lon="17.7291542">
        <ele>28.4962</ele>
        <time>2013-05-26T09:54:41Z</time>
      </trkpt>
      <trkpt lat="59.8975339" lon="17.7292914">
        <ele>28.4962</ele>
        <time>2013-05-26T09:54:42Z</time>
      </trkpt>
      <trkpt lat="59.897512" lon="17.7294309">
        <ele>28.9769</ele>
        <time>2013-05-26T09:54:43Z</time>
      </trkpt>
      <trkpt lat="59.8974947" lon="17.7295718">
        <ele>28.9769</ele>
        <time>2013-05-26T09:54:44Z</time>
      </trkpt>
      <trkpt lat="59.8974821" lon="17.7297091">
        <ele>29.4575</ele>
        <time>2013-05-26T09:54:45Z</time>
      </trkpt>
      <trkpt lat="59.8974732" lon="17.7298421">
        <ele>29.4575</ele>
        <time>2013-05-26T09:54:46Z</time>
      </trkpt>
      <trkpt lat="59.8974661" lon="17.7299759">
        <ele>29.9381</ele>
        <time>2013-05-26T09:54:47Z</time>
      </trkpt>
      <trkpt lat="59.897456" lon="17.7301209">
        <ele>29.9381</ele>
        <time>2013-05-26T09:54:48Z</time>
      </trkpt>
      <trkpt lat="59.8974521" lon="17.7302612">
        <ele>29.4575</ele>
        <time>2013-05-26T09:54:49Z</time>
      </trkpt>
      <trkpt lat="59.8974596" lon="17.7303858">
        <ele>29.9381</ele>
        <time>2013-05-26T09:54:50Z</time>
      </trkpt>
      <trkpt lat="59.8974686" lon="17.730503">
        <ele>29.9381</ele>
        <time>2013-05-26T09:54:51Z</time>
      </trkpt>
      <trkpt lat="59.8974791" lon="17.7306057">
        <ele>30.4188</ele>
        <time>2013-05-26T09:54:52Z</time>
      </trkpt>
      <trkpt lat="59.8974985" lon="17.7307124">
        <ele>30.4188</ele>
        <time>2013-05-26T09:54:53Z</time>
      </trkpt>
      <trkpt lat="59.8975107" lon="17.730828">
        <ele>30.8995</ele>
        <time>2013-05-26T09:54:54Z</time>
      </trkpt>
      <trkpt lat="59.8975239" lon="17.7309429">
        <ele>31.3801</ele>
        <time>2013-05-26T09:54:55Z</time>
      </trkpt>
      <trkpt lat="59.8975391" lon="17.7310502">
        <ele>30.8995</ele>
        <time>2013-05-26T09:54:56Z</time>
      </trkpt>
      <trkpt lat="59.8975489" lon="17.731162">
        <ele>31.3801</ele>
        <time>2013-05-26T09:54:57Z</time>
      </trkpt>
      <trkpt lat="59.8975524" lon="17.7312792">
        <ele>31.3801</ele>
        <time>2013-05-26T09:54:58Z</time>
      </trkpt>
      <trkpt lat="59.8975629" lon="17.7313971">
        <ele>31.3801</ele>
        <time>2013-05-26T09:54:59Z</time>
      </trkpt>
      <trkpt lat="59.8975755" lon="17.7315162">
        <ele>30.8995</ele>
        <time>2013-05-26T09:55:00Z</time>
      </trkpt>
      <trkpt lat="59.8975858" lon="17.7316334">
        <ele>30.8995</ele>
        <time>2013-05-26T09:55:01Z</time>
      </trkpt>
      <trkpt lat="59.8975809" lon="17.7317533">
        <ele>30.8995</ele>
        <time>2013-05-26T09:55:02Z</time>
      </trkpt>
      <trkpt lat="59.8975738" lon="17.7318763">
        <ele>31.3801</ele>
        <time>2013-05-26T09:55:03Z</time>
      </trkpt>
      <trkpt lat="59.8975694" lon="17.732">
        <ele>31.3801</ele>
        <time>2013-05-26T09:55:04Z</time>
      </trkpt>
      <trkpt lat="59.8975648" lon="17.7321246">
        <ele>31.8607</ele>
        <time>2013-05-26T09:55:05Z</time>
      </trkpt>
      <trkpt lat="59.8975613" lon="17.7322488">
        <ele>31.8607</ele>
        <time>2013-05-26T09:55:06Z</time>
      </trkpt>
      <trkpt lat="59.8975587" lon="17.7323722">
        <ele>32.3416</ele>
        <time>2013-05-26T09:55:07Z</time>
      </trkpt>
      <trkpt lat="59.8975551" lon="17.7324947">
        <ele>32.3416</ele>
        <time>2013-05-26T09:55:08Z</time>
      </trkpt>
      <trkpt lat="59.8975475" lon="17.7326184">
        <ele>32.3416</ele>
        <time>2013-05-26T09:55:09Z</time>
      </trkpt>
      <trkpt lat="59.89754" lon="17.7327423">
        <ele>32.8223</ele>
        <time>2013-05-26T09:55:10Z</time>
      </trkpt>
      <trkpt lat="59.8975333" lon="17.7328651">
        <ele>32.8223</ele>
        <time>2013-05-26T09:55:11Z</time>
      </trkpt>
      <trkpt lat="59.8975265" lon="17.7329873">
        <ele>32.8223</ele>
        <time>2013-05-26T09:55:12Z</time>
      </trkpt>
      <trkpt lat="59.8975205" lon="17.7331107">
        <ele>32.8223</ele>
        <time>2013-05-26T09:55:13Z</time>
      </trkpt>
      <trkpt lat="59.8975142" lon="17.7332325">
        <ele>32.8223</ele>
        <time>2013-05-26T09:55:14Z</time>
      </trkpt>
      <trkpt lat="59.8975075" lon="17.7333521">
        <ele>32.8223</ele>
        <time>2013-05-26T09:55:15Z</time>
      </trkpt>
      <trkpt lat="59.8974951" lon="17.7334692">
        <ele>32.3416</ele>
        <time>2013-05-26T09:55:16Z</time>
      </trkpt>
      <trkpt lat="59.897484" lon="17.7335809">
        <ele>32.3416</ele>
        <time>2013-05-26T09:55:17Z</time>
      </trkpt>
      <trkpt lat="59.8974716" lon="17.733694">
        <ele>31.8607</ele>
        <time>2013-05-26T09:55:18Z</time>
      </trkpt>
      <trkpt lat="59.8974604" lon="17.7338068">
        <ele>30.8995</ele>
        <time>2013-05-26T09:55:19Z</time>
      </trkpt>
      <trkpt lat="59.8974438" lon="17.7339205">
        <ele>30.4188</ele>
        <time>2013-05-26T09:55:20Z</time>
      </trkpt>
      <trkpt lat="59.8974215" lon="17.7340337">
        <ele>29.9381</ele>
        <time>2013-05-26T09:55:21Z</time>
      </trkpt>
      <trkpt lat="59.8973944" lon="17.7341457">
        <ele>29.4575</ele>
        <time>2013-05-26T09:55:22Z</time>
      </trkpt>
      <trkpt lat="59.8973671" lon="17.7342561">
        <ele>28.9769</ele>
        <time>2013-05-26T09:55:23Z</time>
      </trkpt>
      <trkpt lat="59.8973412" lon="17.7343665">
        <ele>28.9769</ele>
        <time>2013-05-26T09:55:24Z</time>
      </trkpt>
      <trkpt lat="59.8973143" lon="17.7344823">
        <ele>28.9769</ele>
        <time>2013-05-26T09:55:25Z</time>
      </trkpt>
      <trkpt lat="59.8972893" lon="17.7346065">
        <ele>28.4962</ele>
        <time>2013-05-26T09:55:26Z</time>
      </trkpt>
      <trkpt lat="59.8972697" lon="17.7347371">
        <ele>28.0155</ele>
        <time>2013-05-26T09:55:27Z</time>
      </trkpt>
      <trkpt lat="59.8972568" lon="17.7348734">
        <ele>28.0155</ele>
        <time>2013-05-26T09:55:28Z</time>
      </trkpt>
      <trkpt lat="59.8972479" lon="17.7350122">
        <ele>27.5349</ele>
        <time>2013-05-26T09:55:29Z</time>
      </trkpt>
      <trkpt lat="59.8972421" lon="17.7351527">
        <ele>27.0543</ele>
        <time>2013-05-26T09:55:30Z</time>
      </trkpt>
      <trkpt lat="59.8972384" lon="17.7352976">
        <ele>26.5736</ele>
        <time>2013-05-26T09:55:31Z</time>
      </trkpt>
      <trkpt lat="59.8972381" lon="17.7354443">
        <ele>26.5736</ele>
        <time>2013-05-26T09:55:32Z</time>
      </trkpt>
      <trkpt lat="59.8972351" lon="17.7355967">
        <ele>26.0929</ele>
        <time>2013-05-26T09:55:33Z</time>
      </trkpt>
      <trkpt lat="59.8972301" lon="17.7357551">
        <ele>25.6123</ele>
        <time>2013-05-26T09:55:34Z</time>
      </trkpt>
      <trkpt lat="59.897225" lon="17.7359148">
        <ele>25.6123</ele>
        <time>2013-05-26T09:55:35Z</time>
      </trkpt>
      <trkpt lat="59.897218" lon="17.7360767">
        <ele>25.6123</ele>
        <time>2013-05-26T09:55:36Z</time>
      </trkpt>
      <trkpt lat="59.897206" lon="17.7362389">
        <ele>25.6123</ele>
        <time>2013-05-26T09:55:37Z</time>
      </trkpt>
      <trkpt lat="59.8971929" lon="17.736397">
        <ele>25.6123</ele>
        <time>2013-05-26T09:55:38Z</time>
      </trkpt>
      <trkpt lat="59.8971727" lon="17.7365493">
        <ele>25.6123</ele>
        <time>2013-05-26T09:55:39Z</time>
      </trkpt>
      <trkpt lat="59.8971431" lon="17.7366926">
        <ele>25.6123</ele>
        <time>2013-05-26T09:55:40Z</time>
      </trkpt>
      <trkpt lat="59.8970988" lon="17.7368252">
        <ele>25.6123</ele>
        <time>2013-05-26T09:55:41Z</time>
      </trkpt>
      <trkpt lat="59.8970475" lon="17.7369476">
        <ele>25.6123</ele>
        <time>2013-05-26T09:55:42Z</time>
      </trkpt>
      <trkpt lat="59.8969957" lon="17.7370643">
        <ele>25.6123</ele>
        <time>2013-05-26T09:55:43Z</time>
      </trkpt>
      <trkpt lat="59.896946" lon="17.7371802">
        <ele>25.6123</ele>
        <time>2013-05-26T09:55:44Z</time>
      </trkpt>
      <trkpt lat="59.8968982" lon="17.7372938">
        <ele>26.0929</ele>
        <time>2013-05-26T09:55:45Z</time>
      </trkpt>
      <trkpt lat="59.8968513" lon="17.7374051">
        <ele>26.0929</ele>
        <time>2013-05-26T09:55:46Z</time>
      </trkpt>
      <trkpt lat="59.8968071" lon="17.737517">
        <ele>26.0929</ele>
        <time>2013-05-26T09:55:47Z</time>
      </trkpt>
      <trkpt lat="59.8967652" lon="17.737632">
        <ele>26.5736</ele>
        <time>2013-05-26T09:55:48Z</time>
      </trkpt>
      <trkpt lat="59.8967278" lon="17.7377521">
        <ele>26.5736</ele>
        <time>2013-05-26T09:55:49Z</time>
      </trkpt>
      <trkpt lat="59.8966927" lon="17.7378783">
        <ele>26.5736</ele>
        <time>2013-05-26T09:55:50Z</time>
      </trkpt>
      <trkpt lat="59.8966614" lon="17.7380106">
        <ele>27.0543</ele>
        <time>2013-05-26T09:55:51Z</time>
      </trkpt>
      <trkpt lat="59.8966325" lon="17.7381487">
        <ele>27.0543</ele>
        <time>2013-05-26T09:55:52Z</time>
      </trkpt>
      <trkpt lat="59.8966041" lon="17.7382892">
        <ele>27.0543</ele>
        <time>2013-05-26T09:55:53Z</time>
      </trkpt>
      <trkpt lat="59.8965735" lon="17.738426">
        <ele>27.5349</ele>
        <time>2013-05-26T09:55:54Z</time>
      </trkpt>
      <trkpt lat="59.896535" lon="17.7385504">
        <ele>27.5349</ele>
        <time>2013-05-26T09:55:55Z</time>
      </trkpt>
      <trkpt lat="59.8964839" lon="17.738661">
        <ele>27.5349</ele>
        <time>2013-05-26T09:55:56Z</time>
      </trkpt>
      <trkpt lat="59.8964222" lon="17.7387442">
        <ele>27.0543</ele>
        <time>2013-05-26T09:55:57Z</time>
      </trkpt>
      <trkpt lat="59.8963482" lon="17.7388046">
        <ele>26.0929</ele>
        <time>2013-05-26T09:55:58Z</time>
      </trkpt>
      <trkpt lat="59.8962674" lon="17.7388385">
        <ele>25.6123</ele>
        <time>2013-05-26T09:55:59Z</time>
      </trkpt>
      <trkpt lat="59.896186" lon="17.7388597">
        <ele>25.1317</ele>
        <time>2013-05-26T09:56:00Z</time>
      </trkpt>
      <trkpt lat="59.8961025" lon="17.7388799">
        <ele>24.651</ele>
        <time>2013-05-26T09:56:01Z</time>
      </trkpt>
      <trkpt lat="59.8960187" lon="17.7389047">
        <ele>24.651</ele>
        <time>2013-05-26T09:56:02Z</time>
      </trkpt>
      <trkpt lat="59.8959353" lon="17.7389301">
        <ele>24.651</ele>
        <time>2013-05-26T09:56:03Z</time>
      </trkpt>
      <trkpt lat="59.8958514" lon="17.7389545">
        <ele>24.651</ele>
        <time>2013-05-26T09:56:04Z</time>
      </trkpt>
      <trkpt lat="59.8957614" lon="17.7389798">
        <ele>25.1317</ele>
        <time>2013-05-26T09:56:05Z</time>
      </trkpt>
      <trkpt lat="59.8956722" lon="17.7390053">
        <ele>25.1317</ele>
        <time>2013-05-26T09:56:06Z</time>
      </trkpt>
      <trkpt lat="59.8955846" lon="17.7390286">
        <ele>25.1317</ele>
        <time>2013-05-26T09:56:07Z</time>
      </trkpt>
      <trkpt lat="59.895498" lon="17.739048">
        <ele>25.1317</ele>
        <time>2013-05-26T09:56:08Z</time>
      </trkpt>
      <trkpt lat="59.8954115" lon="17.7390684">
        <ele>25.1317</ele>
        <time>2013-05-26T09:56:09Z</time>
      </trkpt>
      <trkpt lat="59.8953251" lon="17.7390925">
        <ele>25.1317</ele>
        <time>2013-05-26T09:56:10Z</time>
      </trkpt>
      <trkpt lat="59.8952412" lon="17.7391165">
        <ele>25.1317</ele>
        <time>2013-05-26T09:56:11Z</time>
      </trkpt>
      <trkpt lat="59.8951569" lon="17.7391403">
        <ele>25.1317</ele>
        <time>2013-05-26T09:56:12Z</time>
      </trkpt>
      <trkpt lat="59.8950757" lon="17.7391689">
        <ele>25.1317</ele>
        <time>2013-05-26T09:56:13Z</time>
      </trkpt>
      <trkpt lat="59.8949962" lon="17.7392014">
        <ele>25.1317</ele>
        <time>2013-05-26T09:56:14Z</time>
      </trkpt>
      <trkpt lat="59.8949216" lon="17.7392308">
        <ele>25.6123</ele>
        <time>2013-05-26T09:56:15Z</time>
      </trkpt>
      <trkpt lat="59.8948552" lon="17.7392604">
        <ele>25.6123</ele>
        <time>2013-05-26T09:56:16Z</time>
      </trkpt>
      <trkpt lat="59.8947997" lon="17.739293">
        <ele>25.6123</ele>
        <time>2013-05-26T09:56:17Z</time>
      </trkpt>
      <trkpt lat="59.8947575" lon="17.7393316">
        <ele>26.5736</ele>
        <time>2013-05-26T09:56:18Z</time>
      </trkpt>
      <trkpt lat="59.8947287" lon="17.7393779">
        <ele>26.5736</ele>
        <time>2013-05-26T09:56:19Z</time>
      </trkpt>
      <trkpt lat="59.8947138" lon="17.7394345">
        <ele>27.0543</ele>
        <time>2013-05-26T09:56:20Z</time>
      </trkpt>
      <trkpt lat="59.8947097" lon="17.7394946">
        <ele>27.5349</ele>
        <time>2013-05-26T09:56:21Z</time>
      </trkpt>
      <trkpt lat="59.8947113" lon="17.739551">
        <ele>27.5349</ele>
        <time>2013-05-26T09:56:22Z</time>
      </trkpt>
      <trkpt lat="59.894715" lon="17.7396054">
        <ele>27.5349</ele>
        <time>2013-05-26T09:56:23Z</time>
      </trkpt>
      <trkpt lat="59.8947181" lon="17.7396512">
        <ele>27.5349</ele>
        <time>2013-05-26T09:56:24Z</time>
      </trkpt>
      <trkpt lat="59.8947206" lon="17.7396838">
        <ele>27.5349</ele>
        <time>2013-05-26T09:56:25Z</time>
      </trkpt>
      <trkpt lat="59.8947216" lon="17.7397023">
        <ele>28.0155</ele>
        <time>2013-05-26T09:56:26Z</time>
      </trkpt>
      <trkpt lat="59.894721" lon="17.7397084">
        <ele>28.0155</ele>
        <time>2013-05-26T09:56:27Z</time>
      </trkpt>
      <trkpt lat="59.8947211" lon="17.7397122">
        <ele>28.0155</ele>
        <time>2013-05-26T09:56:28Z</time>
      </trkpt>
      <trkpt lat="59.8943455" lon="17.7396303">
        <ele>24.1703</ele>
        <time>2013-05-26T10:03:06Z</time>
      </trkpt>
      <trkpt lat="59.8943279" lon="17.7396678">
        <ele>24.1703</ele>
        <time>2013-05-26T10:03:07Z</time>
      </trkpt>
      <trkpt lat="59.8943082" lon="17.7397107">
        <ele>24.651</ele>
        <time>2013-05-26T10:03:08Z</time>
      </trkpt>
      <trkpt lat="59.8942865" lon="17.7397571">
        <ele>24.651</ele>
        <time>2013-05-26T10:03:09Z</time>
      </trkpt>
      <trkpt lat="59.89427" lon="17.7397941">
        <ele>25.6123</ele>
        <time>2013-05-26T10:03:10Z</time>
      </trkpt>
      <trkpt lat="59.8942513" lon="17.7398507">
        <ele>26.5736</ele>
        <time>2013-05-26T10:03:11Z</time>
      </trkpt>
      <trkpt lat="59.8942332" lon="17.7399018">
        <ele>27.5349</ele>
        <time>2013-05-26T10:03:12Z</time>
      </trkpt>
      <trkpt lat="59.8942154" lon="17.7399588">
        <ele>28.0155</ele>
        <time>2013-05-26T10:03:13Z</time>
      </trkpt>
      <trkpt lat="59.8941854" lon="17.7400547">
        <ele>27.5349</ele>
        <time>2013-05-26T10:03:14Z</time>
      </trkpt>
      <trkpt lat="59.8941559" lon="17.740153">
        <ele>28.0155</ele>
        <time>2013-05-26T10:03:15Z</time>
      </trkpt>
      <trkpt lat="59.8941237" lon="17.7402547">
        <ele>28.0155</ele>
        <time>2013-05-26T10:03:16Z</time>
      </trkpt>
      <trkpt lat="59.8940892" lon="17.740364">
        <ele>27.5349</ele>
        <time>2013-05-26T10:03:17Z</time>
      </trkpt>
      <trkpt lat="59.8940534" lon="17.7404857">
        <ele>27.5349</ele>
        <time>2013-05-26T10:03:18Z</time>
      </trkpt>
      <trkpt lat="59.8940172" lon="17.7406031">
        <ele>27.0543</ele>
        <time>2013-05-26T10:03:19Z</time>
      </trkpt>
      <trkpt lat="59.8939827" lon="17.7407144">
        <ele>27.5349</ele>
        <time>2013-05-26T10:03:20Z</time>
      </trkpt>
      <trkpt lat="59.8939529" lon="17.7408198">
        <ele>28.0155</ele>
        <time>2013-05-26T10:03:21Z</time>
      </trkpt>
      <trkpt lat="59.8939235" lon="17.7409242">
        <ele>28.0155</ele>
        <time>2013-05-26T10:03:22Z</time>
      </trkpt>
      <trkpt lat="59.8938893" lon="17.7410348">
        <ele>27.5349</ele>
        <time>2013-05-26T10:03:23Z</time>
      </trkpt>
      <trkpt lat="59.8938561" lon="17.7411407">
        <ele>27.0543</ele>
        <time>2013-05-26T10:03:24Z</time>
      </trkpt>
      <trkpt lat="59.8938201" lon="17.7412461">
        <ele>26.5736</ele>
        <time>2013-05-26T10:03:25Z</time>
      </trkpt>
      <trkpt lat="59.8937818" lon="17.7413559">
        <ele>26.0929</ele>
        <time>2013-05-26T10:03:26Z</time>
      </trkpt>
      <trkpt lat="59.8937447" lon="17.7414686">
        <ele>26.0929</ele>
        <time>2013-05-26T10:03:27Z</time>
      </trkpt>
      <trkpt lat="59.8937111" lon="17.7415786">
        <ele>25.6123</ele>
        <time>2013-05-26T10:03:28Z</time>
      </trkpt>
      <trkpt lat="59.8936837" lon="17.7416849">
        <ele>25.1317</ele>
        <time>2013-05-26T10:03:29Z</time>
      </trkpt>
      <trkpt lat="59.8936543" lon="17.7417913">
        <ele>25.1317</ele>
        <time>2013-05-26T10:03:30Z</time>
      </trkpt>
      <trkpt lat="59.8936228" lon="17.7418906">
        <ele>25.1317</ele>
        <time>2013-05-26T10:03:31Z</time>
      </trkpt>
      <trkpt lat="59.8935914" lon="17.7419849">
        <ele>25.1317</ele>
        <time>2013-05-26T10:03:32Z</time>
      </trkpt>
      <trkpt lat="59.8935621" lon="17.742077">
        <ele>25.1317</ele>
        <time>2013-05-26T10:03:33Z</time>
      </trkpt>
      <trkpt lat="59.8935354" lon="17.742167">
        <ele>25.6123</ele>
        <time>2013-05-26T10:03:34Z</time>
      </trkpt>
      <trkpt lat="59.8935095" lon="17.7422527">
        <ele>25.6123</ele>
        <time>2013-05-26T10:03:35Z</time>
      </trkpt>
      <trkpt lat="59.8934847" lon="17.7423337">
        <ele>25.6123</ele>
        <time>2013-05-26T10:03:36Z</time>
      </trkpt>
      <trkpt lat="59.8934535" lon="17.7424156">
        <ele>25.6123</ele>
        <time>2013-05-26T10:03:37Z</time>
      </trkpt>
      <trkpt lat="59.8934246" lon="17.742496">
        <ele>25.6123</ele>
        <time>2013-05-26T10:03:38Z</time>
      </trkpt>
      <trkpt lat="59.8933976" lon="17.7425741">
        <ele>25.6123</ele>
        <time>2013-05-26T10:03:39Z</time>
      </trkpt>
      <trkpt lat="59.8933691" lon="17.7426478">
        <ele>26.0929</ele>
        <time>2013-05-26T10:03:40Z</time>
      </trkpt>
      <trkpt lat="59.8933427" lon="17.7427179">
        <ele>26.5736</ele>
        <time>2013-05-26T10:03:41Z</time>
      </trkpt>
      <trkpt lat="59.8933168" lon="17.7427873">
        <ele>27.0543</ele>
        <time>2013-05-26T10:03:42Z</time>
      </trkpt>
      <trkpt lat="59.893292" lon="17.7428571">
        <ele>27.0543</ele>
        <time>2013-05-26T10:03:43Z</time>
      </trkpt>
      <trkpt lat="59.8932672" lon="17.7429273">
        <ele>27.5349</ele>
        <time>2013-05-26T10:03:44Z</time>
      </trkpt>
      <trkpt lat="59.8932431" lon="17.7429968">
        <ele>27.5349</ele>
        <time>2013-05-26T10:03:45Z</time>
      </trkpt>
      <trkpt lat="59.8932204" lon="17.7430701">
        <ele>28.0155</ele>
        <time>2013-05-26T10:03:46Z</time>
      </trkpt>
      <trkpt lat="59.8931981" lon="17.7431397">
        <ele>28.4962</ele>
        <time>2013-05-26T10:03:47Z</time>
      </trkpt>
      <trkpt lat="59.8931738" lon="17.7432181">
        <ele>28.4962</ele>
        <time>2013-05-26T10:03:48Z</time>
      </trkpt>
      <trkpt lat="59.893151" lon="17.7432954">
        <ele>28.9769</ele>
        <time>2013-05-26T10:03:49Z</time>
      </trkpt>
      <trkpt lat="59.893127" lon="17.7433667">
        <ele>28.4962</ele>
        <time>2013-05-26T10:03:50Z</time>
      </trkpt>
      <trkpt lat="59.8931018" lon="17.7434371">
        <ele>27.5349</ele>
        <time>2013-05-26T10:03:51Z</time>
      </trkpt>
      <trkpt lat="59.8930807" lon="17.7434995">
        <ele>27.0543</ele>
        <time>2013-05-26T10:03:52Z</time>
      </trkpt>
      <trkpt lat="59.8930586" lon="17.7435666">
        <ele>27.0543</ele>
        <time>2013-05-26T10:03:53Z</time>
      </trkpt>
      <trkpt lat="59.893036" lon="17.7436383">
        <ele>27.0543</ele>
        <time>2013-05-26T10:03:54Z</time>
      </trkpt>
      <trkpt lat="59.893013" lon="17.7437132">
        <ele>27.5349</ele>
        <time>2013-05-26T10:03:55Z</time>
      </trkpt>
      <trkpt lat="59.8929898" lon="17.7437943">
        <ele>28.0155</ele>
        <time>2013-05-26T10:03:56Z</time>
      </trkpt>
      <trkpt lat="59.8929646" lon="17.7438755">
        <ele>28.0155</ele>
        <time>2013-05-26T10:03:57Z</time>
      </trkpt>
      <trkpt lat="59.8929387" lon="17.7439706">
        <ele>28.4962</ele>
        <time>2013-05-26T10:03:58Z</time>
      </trkpt>
      <trkpt lat="59.892907" lon="17.7440687">
        <ele>28.0155</ele>
        <time>2013-05-26T10:03:59Z</time>
      </trkpt>
      <trkpt lat="59.8928714" lon="17.744164">
        <ele>27.0543</ele>
        <time>2013-05-26T10:04:00Z</time>
      </trkpt>
      <trkpt lat="59.8928381" lon="17.7442685">
        <ele>26.5736</ele>
        <time>2013-05-26T10:04:01Z</time>
      </trkpt>
      <trkpt lat="59.8928009" lon="17.7443753">
        <ele>24.651</ele>
        <time>2013-05-26T10:04:02Z</time>
      </trkpt>
      <trkpt lat="59.8927631" lon="17.7444867">
        <ele>24.1703</ele>
        <time>2013-05-26T10:04:03Z</time>
      </trkpt>
      <trkpt lat="59.8927238" lon="17.7446078">
        <ele>24.1703</ele>
        <time>2013-05-26T10:04:04Z</time>
      </trkpt>
      <trkpt lat="59.8926848" lon="17.7447327">
        <ele>23.6896</ele>
        <time>2013-05-26T10:04:05Z</time>
      </trkpt>
      <trkpt lat="59.8926447" lon="17.7448591">
        <ele>23.6896</ele>
        <time>2013-05-26T10:04:06Z</time>
      </trkpt>
      <trkpt lat="59.8926049" lon="17.7449869">
        <ele>23.6896</ele>
        <time>2013-05-26T10:04:07Z</time>
      </trkpt>
      <trkpt lat="59.8925652" lon="17.7451141">
        <ele>23.6896</ele>
        <time>2013-05-26T10:04:08Z</time>
      </trkpt>
      <trkpt lat="59.8925254" lon="17.7452392">
        <ele>23.6896</ele>
        <time>2013-05-26T10:04:09Z</time>
      </trkpt>
      <trkpt lat="59.892487" lon="17.7453638">
        <ele>23.6896</ele>
        <time>2013-05-26T10:04:10Z</time>
      </trkpt>
      <trkpt lat="59.8924491" lon="17.7454861">
        <ele>23.6896</ele>
        <time>2013-05-26T10:04:11Z</time>
      </trkpt>
      <trkpt lat="59.8924103" lon="17.7456044">
        <ele>23.6896</ele>
        <time>2013-05-26T10:04:12Z</time>
      </trkpt>
      <trkpt lat="59.8923715" lon="17.7457191">
        <ele>23.6896</ele>
        <time>2013-05-26T10:04:13Z</time>
      </trkpt>
      <trkpt lat="59.8923342" lon="17.745832">
        <ele>23.6896</ele>
        <time>2013-05-26T10:04:14Z</time>
      </trkpt>
      <trkpt lat="59.8922982" lon="17.7459408">
        <ele>23.6896</ele>
        <time>2013-05-26T10:04:15Z</time>
      </trkpt>
      <trkpt lat="59.8922617" lon="17.7460444">
        <ele>23.6896</ele>
        <time>2013-05-26T10:04:16Z</time>
      </trkpt>
      <trkpt lat="59.8922236" lon="17.7461416">
        <ele>23.6896</ele>
        <time>2013-05-26T10:04:17Z</time>
      </trkpt>
      <trkpt lat="59.8921823" lon="17.746234">
        <ele>23.6896</ele>
        <time>2013-05-26T10:04:18Z</time>
      </trkpt>
      <trkpt lat="59.8921378" lon="17.746322">
        <ele>23.6896</ele>
        <time>2013-05-26T10:04:19Z</time>
      </trkpt>
      <trkpt lat="59.8920911" lon="17.7464056">
        <ele>23.6896</ele>
        <time>2013-05-26T10:04:20Z</time>
      </trkpt>
      <trkpt lat="59.8920435" lon="17.7464861">
        <ele>23.6896</ele>
        <time>2013-05-26T10:04:21Z</time>
      </trkpt>
      <trkpt lat="59.8919953" lon="17.7465634">
        <ele>23.209</ele>
        <time>2013-05-26T10:04:22Z</time>
      </trkpt>
      <trkpt lat="59.8919456" lon="17.7466376">
        <ele>23.209</ele>
        <time>2013-05-26T10:04:23Z</time>
      </trkpt>
      <trkpt lat="59.8918943" lon="17.7467099">
        <ele>23.209</ele>
        <time>2013-05-26T10:04:24Z</time>
      </trkpt>
      <trkpt lat="59.891843" lon="17.7467829">
        <ele>23.209</ele>
        <time>2013-05-26T10:04:25Z</time>
      </trkpt>
      <trkpt lat="59.8917923" lon="17.7468585">
        <ele>23.209</ele>
        <time>2013-05-26T10:04:26Z</time>
      </trkpt>
      <trkpt lat="59.8917436" lon="17.7469344">
        <ele>23.209</ele>
        <time>2013-05-26T10:04:27Z</time>
      </trkpt>
      <trkpt lat="59.8916962" lon="17.7470099">
        <ele>23.209</ele>
        <time>2013-05-26T10:04:28Z</time>
      </trkpt>
      <trkpt lat="59.8916477" lon="17.7470804">
        <ele>23.209</ele>
        <time>2013-05-26T10:04:29Z</time>
      </trkpt>
      <trkpt lat="59.8915974" lon="17.7471468">
        <ele>22.7283</ele>
        <time>2013-05-26T10:04:30Z</time>
      </trkpt>
      <trkpt lat="59.8915471" lon="17.7472166">
        <ele>22.7283</ele>
        <time>2013-05-26T10:04:31Z</time>
      </trkpt>
      <trkpt lat="59.8914977" lon="17.7472882">
        <ele>22.7283</ele>
        <time>2013-05-26T10:04:32Z</time>
      </trkpt>
      <trkpt lat="59.8914483" lon="17.7473579">
        <ele>22.7283</ele>
        <time>2013-05-26T10:04:33Z</time>
      </trkpt>
      <trkpt lat="59.8913979" lon="17.747427">
        <ele>22.7283</ele>
        <time>2013-05-26T10:04:34Z</time>
      </trkpt>
      <trkpt lat="59.8913466" lon="17.7474985">
        <ele>22.2476</ele>
        <time>2013-05-26T10:04:35Z</time>
      </trkpt>
      <trkpt lat="59.891295" lon="17.7475711">
        <ele>22.2476</ele>
        <time>2013-05-26T10:04:36Z</time>
      </trkpt>
      <trkpt lat="59.8912432" lon="17.747642">
        <ele>22.2476</ele>
        <time>2013-05-26T10:04:37Z</time>
      </trkpt>
      <trkpt lat="59.8911902" lon="17.7477087">
        <ele>22.2476</ele>
        <time>2013-05-26T10:04:38Z</time>
      </trkpt>
      <trkpt lat="59.8911371" lon="17.7477725">
        <ele>21.767</ele>
        <time>2013-05-26T10:04:39Z</time>
      </trkpt>
      <trkpt lat="59.8910853" lon="17.7478358">
        <ele>22.2476</ele>
        <time>2013-05-26T10:04:40Z</time>
      </trkpt>
      <trkpt lat="59.891033" lon="17.7478999">
        <ele>21.767</ele>
        <time>2013-05-26T10:04:41Z</time>
      </trkpt>
      <trkpt lat="59.8909805" lon="17.7479646">
        <ele>21.767</ele>
        <time>2013-05-26T10:04:42Z</time>
      </trkpt>
      <trkpt lat="59.8909282" lon="17.7480311">
        <ele>21.767</ele>
        <time>2013-05-26T10:04:43Z</time>
      </trkpt>
      <trkpt lat="59.890878" lon="17.7480997">
        <ele>21.2864</ele>
        <time>2013-05-26T10:04:44Z</time>
      </trkpt>
      <trkpt lat="59.8908283" lon="17.7481746">
        <ele>20.8057</ele>
        <time>2013-05-26T10:04:45Z</time>
      </trkpt>
      <trkpt lat="59.8907822" lon="17.748248">
        <ele>20.8057</ele>
        <time>2013-05-26T10:04:46Z</time>
      </trkpt>
      <trkpt lat="59.8907374" lon="17.7483241">
        <ele>20.8057</ele>
        <time>2013-05-26T10:04:47Z</time>
      </trkpt>
      <trkpt lat="59.8906939" lon="17.7484001">
        <ele>21.2864</ele>
        <time>2013-05-26T10:04:48Z</time>
      </trkpt>
      <trkpt lat="59.890652" lon="17.74848">
        <ele>21.2864</ele>
        <time>2013-05-26T10:04:49Z</time>
      </trkpt>
      <trkpt lat="59.8906131" lon="17.748564">
        <ele>21.2864</ele>
        <time>2013-05-26T10:04:50Z</time>
      </trkpt>
      <trkpt lat="59.8905751" lon="17.7486499">
        <ele>21.767</ele>
        <time>2013-05-26T10:04:51Z</time>
      </trkpt>
      <trkpt lat="59.8905395" lon="17.748736">
        <ele>21.767</ele>
        <time>2013-05-26T10:04:52Z</time>
      </trkpt>
      <trkpt lat="59.890505" lon="17.748822">
        <ele>22.2476</ele>
        <time>2013-05-26T10:04:53Z</time>
      </trkpt>
      <trkpt lat="59.8904672" lon="17.7489064">
        <ele>22.2476</ele>
        <time>2013-05-26T10:04:54Z</time>
      </trkpt>
      <trkpt lat="59.8904288" lon="17.7489893">
        <ele>22.2476</ele>
        <time>2013-05-26T10:04:55Z</time>
      </trkpt>
      <trkpt lat="59.8903885" lon="17.7490726">
        <ele>22.2476</ele>
        <time>2013-05-26T10:04:56Z</time>
      </trkpt>
      <trkpt lat="59.8903476" lon="17.7491577">
        <ele>22.7283</ele>
        <time>2013-05-26T10:04:57Z</time>
      </trkpt>
      <trkpt lat="59.890304" lon="17.749243">
        <ele>23.209</ele>
        <time>2013-05-26T10:04:58Z</time>
      </trkpt>
      <trkpt lat="59.8902621" lon="17.749325">
        <ele>23.6896</ele>
        <time>2013-05-26T10:04:59Z</time>
      </trkpt>
      <trkpt lat="59.8902227" lon="17.7494087">
        <ele>23.6896</ele>
        <time>2013-05-26T10:05:00Z</time>
      </trkpt>
      <trkpt lat="59.8901834" lon="17.7494942">
        <ele>24.1703</ele>
        <time>2013-05-26T10:05:01Z</time>
      </trkpt>
      <trkpt lat="59.8901448" lon="17.7495815">
        <ele>24.651</ele>
        <time>2013-05-26T10:05:02Z</time>
      </trkpt>
      <trkpt lat="59.8901025" lon="17.749677">
        <ele>24.651</ele>
        <time>2013-05-26T10:05:03Z</time>
      </trkpt>
      <trkpt lat="59.8900632" lon="17.7497751">
        <ele>24.651</ele>
        <time>2013-05-26T10:05:04Z</time>
      </trkpt>
      <trkpt lat="59.8900206" lon="17.7498641">
        <ele>24.1703</ele>
        <time>2013-05-26T10:05:05Z</time>
      </trkpt>
      <trkpt lat="59.8899787" lon="17.7499367">
        <ele>23.6896</ele>
        <time>2013-05-26T10:05:06Z</time>
      </trkpt>
      <trkpt lat="59.8899394" lon="17.749998">
        <ele>23.6896</ele>
        <time>2013-05-26T10:05:07Z</time>
      </trkpt>
      <trkpt lat="59.8899004" lon="17.7500564">
        <ele>24.1703</ele>
        <time>2013-05-26T10:05:08Z</time>
      </trkpt>
      <trkpt lat="59.8898609" lon="17.7501174">
        <ele>23.6896</ele>
        <time>2013-05-26T10:05:09Z</time>
      </trkpt>
      <trkpt lat="59.8898239" lon="17.750181">
        <ele>23.6896</ele>
        <time>2013-05-26T10:05:10Z</time>
      </trkpt>
      <trkpt lat="59.889786" lon="17.7502444">
        <ele>23.6896</ele>
        <time>2013-05-26T10:05:11Z</time>
      </trkpt>
      <trkpt lat="59.8897482" lon="17.7503066">
        <ele>23.209</ele>
        <time>2013-05-26T10:05:12Z</time>
      </trkpt>
      <trkpt lat="59.8897063" lon="17.7503743">
        <ele>23.209</ele>
        <time>2013-05-26T10:05:13Z</time>
      </trkpt>
      <trkpt lat="59.8896691" lon="17.7504407">
        <ele>22.7283</ele>
        <time>2013-05-26T10:05:14Z</time>
      </trkpt>
      <trkpt lat="59.8896271" lon="17.7505195">
        <ele>22.2476</ele>
        <time>2013-05-26T10:05:15Z</time>
      </trkpt>
      <trkpt lat="59.8895947" lon="17.7505951">
        <ele>22.2476</ele>
        <time>2013-05-26T10:05:16Z</time>
      </trkpt>
      <trkpt lat="59.8895655" lon="17.7506779">
        <ele>22.7283</ele>
        <time>2013-05-26T10:05:17Z</time>
      </trkpt>
      <trkpt lat="59.8895405" lon="17.7507666">
        <ele>23.209</ele>
        <time>2013-05-26T10:05:18Z</time>
      </trkpt>
      <trkpt lat="59.8895192" lon="17.750864">
        <ele>23.6896</ele>
        <time>2013-05-26T10:05:19Z</time>
      </trkpt>
      <trkpt lat="59.8895" lon="17.7509656">
        <ele>24.1703</ele>
        <time>2013-05-26T10:05:20Z</time>
      </trkpt>
      <trkpt lat="59.8894856" lon="17.7510699">
        <ele>24.1703</ele>
        <time>2013-05-26T10:05:21Z</time>
      </trkpt>
      <trkpt lat="59.8894766" lon="17.7511773">
        <ele>24.651</ele>
        <time>2013-05-26T10:05:22Z</time>
      </trkpt>
      <trkpt lat="59.8894676" lon="17.7512867">
        <ele>24.651</ele>
        <time>2013-05-26T10:05:23Z</time>
      </trkpt>
      <trkpt lat="59.8894636" lon="17.7513971">
        <ele>24.651</ele>
        <time>2013-05-26T10:05:24Z</time>
      </trkpt>
      <trkpt lat="59.8894602" lon="17.7515114">
        <ele>24.651</ele>
        <time>2013-05-26T10:05:25Z</time>
      </trkpt>
      <trkpt lat="59.8894561" lon="17.7516305">
        <ele>25.1317</ele>
        <time>2013-05-26T10:05:26Z</time>
      </trkpt>
      <trkpt lat="59.8894515" lon="17.7517503">
        <ele>24.651</ele>
        <time>2013-05-26T10:05:27Z</time>
      </trkpt>
      <trkpt lat="59.889445" lon="17.7518699">
        <ele>24.651</ele>
        <time>2013-05-26T10:05:28Z</time>
      </trkpt>
      <trkpt lat="59.8894385" lon="17.7519917">
        <ele>24.651</ele>
        <time>2013-05-26T10:05:29Z</time>
      </trkpt>
      <trkpt lat="59.8894332" lon="17.7521182">
        <ele>24.651</ele>
        <time>2013-05-26T10:05:30Z</time>
      </trkpt>
      <trkpt lat="59.8894282" lon="17.7522466">
        <ele>24.651</ele>
        <time>2013-05-26T10:05:31Z</time>
      </trkpt>
      <trkpt lat="59.8894229" lon="17.7523746">
        <ele>24.651</ele>
        <time>2013-05-26T10:05:32Z</time>
      </trkpt>
      <trkpt lat="59.8894157" lon="17.7525002">
        <ele>25.1317</ele>
        <time>2013-05-26T10:05:33Z</time>
      </trkpt>
      <trkpt lat="59.8894063" lon="17.7526255">
        <ele>25.1317</ele>
        <time>2013-05-26T10:05:34Z</time>
      </trkpt>
      <trkpt lat="59.8893947" lon="17.7527507">
        <ele>25.1317</ele>
        <time>2013-05-26T10:05:35Z</time>
      </trkpt>
      <trkpt lat="59.8893795" lon="17.7528739">
        <ele>25.1317</ele>
        <time>2013-05-26T10:05:36Z</time>
      </trkpt>
      <trkpt lat="59.889359" lon="17.752993">
        <ele>25.1317</ele>
        <time>2013-05-26T10:05:37Z</time>
      </trkpt>
      <trkpt lat="59.8893333" lon="17.7531081">
        <ele>25.1317</ele>
        <time>2013-05-26T10:05:38Z</time>
      </trkpt>
      <trkpt lat="59.8893049" lon="17.7532176">
        <ele>25.1317</ele>
        <time>2013-05-26T10:05:39Z</time>
      </trkpt>
      <trkpt lat="59.889274" lon="17.7533251">
        <ele>25.1317</ele>
        <time>2013-05-26T10:05:40Z</time>
      </trkpt>
      <trkpt lat="59.8892412" lon="17.7534318">
        <ele>25.1317</ele>
        <time>2013-05-26T10:05:41Z</time>
      </trkpt>
      <trkpt lat="59.8892069" lon="17.7535393">
        <ele>25.1317</ele>
        <time>2013-05-26T10:05:42Z</time>
      </trkpt>
      <trkpt lat="59.8891743" lon="17.7536441">
        <ele>25.1317</ele>
        <time>2013-05-26T10:05:43Z</time>
      </trkpt>
      <trkpt lat="59.8891445" lon="17.7537472">
        <ele>25.6123</ele>
        <time>2013-05-26T10:05:44Z</time>
      </trkpt>
      <trkpt lat="59.8891171" lon="17.7538511">
        <ele>25.6123</ele>
        <time>2013-05-26T10:05:45Z</time>
      </trkpt>
      <trkpt lat="59.8890928" lon="17.7539538">
        <ele>25.6123</ele>
        <time>2013-05-26T10:05:46Z</time>
      </trkpt>
      <trkpt lat="59.88907" lon="17.7540534">
        <ele>26.0929</ele>
        <time>2013-05-26T10:05:47Z</time>
      </trkpt>
      <trkpt lat="59.8890471" lon="17.7541502">
        <ele>26.0929</ele>
        <time>2013-05-26T10:05:48Z</time>
      </trkpt>
      <trkpt lat="59.8890267" lon="17.7542461">
        <ele>26.5736</ele>
        <time>2013-05-26T10:05:49Z</time>
      </trkpt>
      <trkpt lat="59.8890064" lon="17.7543412">
        <ele>26.5736</ele>
        <time>2013-05-26T10:05:50Z</time>
      </trkpt>
      <trkpt lat="59.8889862" lon="17.7544306">
        <ele>27.0543</ele>
        <time>2013-05-26T10:05:51Z</time>
      </trkpt>
      <trkpt lat="59.8889641" lon="17.7545174">
        <ele>27.0543</ele>
        <time>2013-05-26T10:05:52Z</time>
      </trkpt>
      <trkpt lat="59.8889395" lon="17.7545989">
        <ele>27.5349</ele>
        <time>2013-05-26T10:05:53Z</time>
      </trkpt>
      <trkpt lat="59.8889105" lon="17.7546791">
        <ele>27.5349</ele>
        <time>2013-05-26T10:05:54Z</time>
      </trkpt>
      <trkpt lat="59.8888803" lon="17.7547597">
        <ele>28.0155</ele>
        <time>2013-05-26T10:05:55Z</time>
      </trkpt>
      <trkpt lat="59.8888469" lon="17.7548382">
        <ele>28.4962</ele>
        <time>2013-05-26T10:05:56Z</time>
      </trkpt>
      <trkpt lat="59.888808" lon="17.754912">
        <ele>28.4962</ele>
        <time>2013-05-26T10:05:57Z</time>
      </trkpt>
      <trkpt lat="59.8887665" lon="17.7549757">
        <ele>28.0155</ele>
        <time>2013-05-26T10:05:58Z</time>
      </trkpt>
      <trkpt lat="59.8887257" lon="17.7550345">
        <ele>28.4962</ele>
        <time>2013-05-26T10:05:59Z</time>
      </trkpt>
      <trkpt lat="59.8886819" lon="17.7550899">
        <ele>28.4962</ele>
        <time>2013-05-26T10:06:00Z</time>
      </trkpt>
      <trkpt lat="59.8886361" lon="17.7551422">
        <ele>29.4575</ele>
        <time>2013-05-26T10:06:01Z</time>
      </trkpt>
      <trkpt lat="59.8885866" lon="17.7551838">
        <ele>28.9769</ele>
        <time>2013-05-26T10:06:02Z</time>
      </trkpt>
      <trkpt lat="59.8885382" lon="17.755221">
        <ele>29.4575</ele>
        <time>2013-05-26T10:06:03Z</time>
      </trkpt>
      <trkpt lat="59.88849" lon="17.7552506">
        <ele>29.9381</ele>
        <time>2013-05-26T10:06:04Z</time>
      </trkpt>
      <trkpt lat="59.8884408" lon="17.7552746">
        <ele>29.9381</ele>
        <time>2013-05-26T10:06:05Z</time>
      </trkpt>
      <trkpt lat="59.8883891" lon="17.7552955">
        <ele>29.9381</ele>
        <time>2013-05-26T10:06:06Z</time>
      </trkpt>
      <trkpt lat="59.8883387" lon="17.7553089">
        <ele>29.9381</ele>
        <time>2013-05-26T10:06:07Z</time>
      </trkpt>
      <trkpt lat="59.8882909" lon="17.7553183">
        <ele>30.4188</ele>
        <time>2013-05-26T10:06:08Z</time>
      </trkpt>
      <trkpt lat="59.888246" lon="17.7553234">
        <ele>30.4188</ele>
        <time>2013-05-26T10:06:09Z</time>
      </trkpt>
      <trkpt lat="59.8881995" lon="17.7553239">
        <ele>29.9381</ele>
        <time>2013-05-26T10:06:10Z</time>
      </trkpt>
      <trkpt lat="59.8881542" lon="17.7553167">
        <ele>29.9381</ele>
        <time>2013-05-26T10:06:11Z</time>
      </trkpt>
      <trkpt lat="59.8881073" lon="17.7553088">
        <ele>29.9381</ele>
        <time>2013-05-26T10:06:12Z</time>
      </trkpt>
      <trkpt lat="59.8880636" lon="17.7552977">
        <ele>29.9381</ele>
        <time>2013-05-26T10:06:13Z</time>
      </trkpt>
      <trkpt lat="59.8880187" lon="17.7552896">
        <ele>29.9381</ele>
        <time>2013-05-26T10:06:14Z</time>
      </trkpt>
      <trkpt lat="59.8879707" lon="17.7552845">
        <ele>29.9381</ele>
        <time>2013-05-26T10:06:15Z</time>
      </trkpt>
      <trkpt lat="59.8879208" lon="17.7552754">
        <ele>30.4188</ele>
        <time>2013-05-26T10:06:16Z</time>
      </trkpt>
      <trkpt lat="59.8878704" lon="17.7552638">
        <ele>30.4188</ele>
        <time>2013-05-26T10:06:17Z</time>
      </trkpt>
      <trkpt lat="59.887816" lon="17.7552571">
        <ele>30.4188</ele>
        <time>2013-05-26T10:06:18Z</time>
      </trkpt>
      <trkpt lat="59.8877621" lon="17.7552556">
        <ele>30.4188</ele>
        <time>2013-05-26T10:06:19Z</time>
      </trkpt>
      <trkpt lat="59.8877078" lon="17.7552583">
        <ele>30.4188</ele>
        <time>2013-05-26T10:06:20Z</time>
      </trkpt>
      <trkpt lat="59.8876534" lon="17.7552679">
        <ele>30.4188</ele>
        <time>2013-05-26T10:06:21Z</time>
      </trkpt>
      <trkpt lat="59.8876" lon="17.7552896">
        <ele>30.8995</ele>
        <time>2013-05-26T10:06:22Z</time>
      </trkpt>
      <trkpt lat="59.8875475" lon="17.7553185">
        <ele>30.8995</ele>
        <time>2013-05-26T10:06:23Z</time>
      </trkpt>
      <trkpt lat="59.8874971" lon="17.7553528">
        <ele>30.8995</ele>
        <time>2013-05-26T10:06:24Z</time>
      </trkpt>
      <trkpt lat="59.8874484" lon="17.7553896">
        <ele>30.8995</ele>
        <time>2013-05-26T10:06:25Z</time>
      </trkpt>
      <trkpt lat="59.8874009" lon="17.7554297">
        <ele>30.8995</ele>
        <time>2013-05-26T10:06:26Z</time>
      </trkpt>
      <trkpt lat="59.8873556" lon="17.7554747">
        <ele>30.8995</ele>
        <time>2013-05-26T10:06:27Z</time>
      </trkpt>
      <trkpt lat="59.887315" lon="17.7555314">
        <ele>31.3801</ele>
        <time>2013-05-26T10:06:28Z</time>
      </trkpt>
      <trkpt lat="59.8872758" lon="17.7555934">
        <ele>31.8607</ele>
        <time>2013-05-26T10:06:29Z</time>
      </trkpt>
      <trkpt lat="59.8872375" lon="17.7556581">
        <ele>31.8607</ele>
        <time>2013-05-26T10:06:30Z</time>
      </trkpt>
      <trkpt lat="59.8871996" lon="17.755725">
        <ele>32.3416</ele>
        <time>2013-05-26T10:06:31Z</time>
      </trkpt>
      <trkpt lat="59.8871623" lon="17.7557954">
        <ele>32.3416</ele>
        <time>2013-05-26T10:06:32Z</time>
      </trkpt>
      <trkpt lat="59.8871255" lon="17.7558712">
        <ele>32.8223</ele>
        <time>2013-05-26T10:06:33Z</time>
      </trkpt>
      <trkpt lat="59.8870867" lon="17.755947">
        <ele>32.8223</ele>
        <time>2013-05-26T10:06:34Z</time>
      </trkpt>
      <trkpt lat="59.8870468" lon="17.7560201">
        <ele>33.3029</ele>
        <time>2013-05-26T10:06:35Z</time>
      </trkpt>
      <trkpt lat="59.8870038" lon="17.7560846">
        <ele>33.3029</ele>
        <time>2013-05-26T10:06:36Z</time>
      </trkpt>
      <trkpt lat="59.8869608" lon="17.7561498">
        <ele>33.7834</ele>
        <time>2013-05-26T10:06:37Z</time>
      </trkpt>
      <trkpt lat="59.8869172" lon="17.7562068">
        <ele>34.2642</ele>
        <time>2013-05-26T10:06:38Z</time>
      </trkpt>
      <trkpt lat="59.8868729" lon="17.7562591">
        <ele>34.2642</ele>
        <time>2013-05-26T10:06:39Z</time>
      </trkpt>
      <trkpt lat="59.8868241" lon="17.7563134">
        <ele>33.7834</ele>
        <time>2013-05-26T10:06:40Z</time>
      </trkpt>
      <trkpt lat="59.8867732" lon="17.7563631">
        <ele>33.3029</ele>
        <time>2013-05-26T10:06:41Z</time>
      </trkpt>
      <trkpt lat="59.886721" lon="17.7564067">
        <ele>33.3029</ele>
        <time>2013-05-26T10:06:42Z</time>
      </trkpt>
      <trkpt lat="59.88667" lon="17.7564507">
        <ele>32.8223</ele>
        <time>2013-05-26T10:06:43Z</time>
      </trkpt>
      <trkpt lat="59.8866159" lon="17.7564937">
        <ele>32.3416</ele>
        <time>2013-05-26T10:06:44Z</time>
      </trkpt>
      <trkpt lat="59.8865587" lon="17.7565433">
        <ele>31.3801</ele>
        <time>2013-05-26T10:06:45Z</time>
      </trkpt>
      <trkpt lat="59.8864994" lon="17.7565932">
        <ele>30.4188</ele>
        <time>2013-05-26T10:06:46Z</time>
      </trkpt>
      <trkpt lat="59.8864411" lon="17.756652">
        <ele>30.4188</ele>
        <time>2013-05-26T10:06:47Z</time>
      </trkpt>
      <trkpt lat="59.8863817" lon="17.7567092">
        <ele>30.4188</ele>
        <time>2013-05-26T10:06:48Z</time>
      </trkpt>
      <trkpt lat="59.8863154" lon="17.7567657">
        <ele>29.9381</ele>
        <time>2013-05-26T10:06:49Z</time>
      </trkpt>
      <trkpt lat="59.8862444" lon="17.7568201">
        <ele>28.9769</ele>
        <time>2013-05-26T10:06:50Z</time>
      </trkpt>
      <trkpt lat="59.8861735" lon="17.756883">
        <ele>28.4962</ele>
        <time>2013-05-26T10:06:51Z</time>
      </trkpt>
      <trkpt lat="59.8861043" lon="17.7569547">
        <ele>27.5349</ele>
        <time>2013-05-26T10:06:52Z</time>
      </trkpt>
      <trkpt lat="59.8860326" lon="17.757039">
        <ele>27.0543</ele>
        <time>2013-05-26T10:06:53Z</time>
      </trkpt>
      <trkpt lat="59.8859666" lon="17.7571247">
        <ele>26.5736</ele>
        <time>2013-05-26T10:06:54Z</time>
      </trkpt>
      <trkpt lat="59.8859077" lon="17.7572234">
        <ele>26.0929</ele>
        <time>2013-05-26T10:06:55Z</time>
      </trkpt>
      <trkpt lat="59.8858557" lon="17.7573304">
        <ele>26.5736</ele>
        <time>2013-05-26T10:06:56Z</time>
      </trkpt>
      <trkpt lat="59.8858066" lon="17.7574451">
        <ele>27.0543</ele>
        <time>2013-05-26T10:06:57Z</time>
      </trkpt>
      <trkpt lat="59.8857619" lon="17.7575704">
        <ele>27.5349</ele>
        <time>2013-05-26T10:06:58Z</time>
      </trkpt>
      <trkpt lat="59.885716" lon="17.7577051">
        <ele>27.0543</ele>
        <time>2013-05-26T10:06:59Z</time>
      </trkpt>
      <trkpt lat="59.8856737" lon="17.7578497">
        <ele>26.5736</ele>
        <time>2013-05-26T10:07:00Z</time>
      </trkpt>
      <trkpt lat="59.8856393" lon="17.758003">
        <ele>26.5736</ele>
        <time>2013-05-26T10:07:01Z</time>
      </trkpt>
      <trkpt lat="59.8856102" lon="17.7581621">
        <ele>26.5736</ele>
        <time>2013-05-26T10:07:02Z</time>
      </trkpt>
      <trkpt lat="59.885586" lon="17.7583228">
        <ele>26.5736</ele>
        <time>2013-05-26T10:07:03Z</time>
      </trkpt>
      <trkpt lat="59.8855683" lon="17.7584834">
        <ele>27.0543</ele>
        <time>2013-05-26T10:07:04Z</time>
      </trkpt>
      <trkpt lat="59.8855521" lon="17.7586414">
        <ele>27.0543</ele>
        <time>2013-05-26T10:07:05Z</time>
      </trkpt>
      <trkpt lat="59.8855378" lon="17.7587983">
        <ele>27.5349</ele>
        <time>2013-05-26T10:07:06Z</time>
      </trkpt>
      <trkpt lat="59.885525" lon="17.7589522">
        <ele>28.0155</ele>
        <time>2013-05-26T10:07:07Z</time>
      </trkpt>
      <trkpt lat="59.8855139" lon="17.7590993">
        <ele>28.4962</ele>
        <time>2013-05-26T10:07:08Z</time>
      </trkpt>
      <trkpt lat="59.8855022" lon="17.7592395">
        <ele>28.4962</ele>
        <time>2013-05-26T10:07:09Z</time>
      </trkpt>
      <trkpt lat="59.8854893" lon="17.7593754">
        <ele>28.9769</ele>
        <time>2013-05-26T10:07:10Z</time>
      </trkpt>
      <trkpt lat="59.8854765" lon="17.759508">
        <ele>29.4575</ele>
        <time>2013-05-26T10:07:11Z</time>
      </trkpt>
      <trkpt lat="59.8854627" lon="17.7596402">
        <ele>29.9381</ele>
        <time>2013-05-26T10:07:12Z</time>
      </trkpt>
      <trkpt lat="59.8854491" lon="17.759772">
        <ele>29.9381</ele>
        <time>2013-05-26T10:07:13Z</time>
      </trkpt>
      <trkpt lat="59.8854356" lon="17.7599042">
        <ele>30.4188</ele>
        <time>2013-05-26T10:07:14Z</time>
      </trkpt>
      <trkpt lat="59.8854231" lon="17.7600337">
        <ele>30.8995</ele>
        <time>2013-05-26T10:07:15Z</time>
      </trkpt>
      <trkpt lat="59.8854116" lon="17.7601612">
        <ele>31.3801</ele>
        <time>2013-05-26T10:07:16Z</time>
      </trkpt>
      <trkpt lat="59.8853975" lon="17.7602848">
        <ele>31.3801</ele>
        <time>2013-05-26T10:07:17Z</time>
      </trkpt>
      <trkpt lat="59.8853835" lon="17.7604068">
        <ele>31.8607</ele>
        <time>2013-05-26T10:07:18Z</time>
      </trkpt>
      <trkpt lat="59.8853685" lon="17.76053">
        <ele>32.3416</ele>
        <time>2013-05-26T10:07:19Z</time>
      </trkpt>
      <trkpt lat="59.885356" lon="17.7606528">
        <ele>32.8223</ele>
        <time>2013-05-26T10:07:20Z</time>
      </trkpt>
      <trkpt lat="59.8853419" lon="17.7607796">
        <ele>33.3029</ele>
        <time>2013-05-26T10:07:21Z</time>
      </trkpt>
      <trkpt lat="59.8853312" lon="17.7608968">
        <ele>33.7834</ele>
        <time>2013-05-26T10:07:22Z</time>
      </trkpt>
      <trkpt lat="59.8853206" lon="17.7610102">
        <ele>33.7834</ele>
        <time>2013-05-26T10:07:23Z</time>
      </trkpt>
      <trkpt lat="59.8853073" lon="17.7611246">
        <ele>34.2642</ele>
        <time>2013-05-26T10:07:24Z</time>
      </trkpt>
      <trkpt lat="59.8852906" lon="17.7612386">
        <ele>34.2642</ele>
        <time>2013-05-26T10:07:25Z</time>
      </trkpt>
      <trkpt lat="59.8852736" lon="17.7613521">
        <ele>34.2642</ele>
        <time>2013-05-26T10:07:26Z</time>
      </trkpt>
      <trkpt lat="59.8852582" lon="17.7614626">
        <ele>34.2642</ele>
        <time>2013-05-26T10:07:27Z</time>
      </trkpt>
      <trkpt lat="59.8852413" lon="17.7615773">
        <ele>34.7449</ele>
        <time>2013-05-26T10:07:28Z</time>
      </trkpt>
      <trkpt lat="59.8852248" lon="17.7616926">
        <ele>34.7449</ele>
        <time>2013-05-26T10:07:29Z</time>
      </trkpt>
      <trkpt lat="59.885204" lon="17.7618168">
        <ele>35.7061</ele>
        <time>2013-05-26T10:07:30Z</time>
      </trkpt>
      <trkpt lat="59.8851816" lon="17.7619363">
        <ele>36.1868</ele>
        <time>2013-05-26T10:07:31Z</time>
      </trkpt>
      <trkpt lat="59.8851596" lon="17.7620559">
        <ele>36.1868</ele>
        <time>2013-05-26T10:07:32Z</time>
      </trkpt>
      <trkpt lat="59.8851414" lon="17.7621712">
        <ele>36.1868</ele>
        <time>2013-05-26T10:07:33Z</time>
      </trkpt>
      <trkpt lat="59.8851218" lon="17.7622871">
        <ele>36.6675</ele>
        <time>2013-05-26T10:07:34Z</time>
      </trkpt>
      <trkpt lat="59.8851047" lon="17.7624027">
        <ele>37.1481</ele>
        <time>2013-05-26T10:07:35Z</time>
      </trkpt>
      <trkpt lat="59.8850949" lon="17.762514">
        <ele>37.1481</ele>
        <time>2013-05-26T10:07:36Z</time>
      </trkpt>
      <trkpt lat="59.8850834" lon="17.7626278">
        <ele>37.6287</ele>
        <time>2013-05-26T10:07:37Z</time>
      </trkpt>
      <trkpt lat="59.8850647" lon="17.7627425">
        <ele>37.6287</ele>
        <time>2013-05-26T10:07:38Z</time>
      </trkpt>
      <trkpt lat="59.885039" lon="17.762859">
        <ele>37.6287</ele>
        <time>2013-05-26T10:07:39Z</time>
      </trkpt>
      <trkpt lat="59.8850227" lon="17.7629712">
        <ele>37.6287</ele>
        <time>2013-05-26T10:07:40Z</time>
      </trkpt>
      <trkpt lat="59.8850036" lon="17.7630807">
        <ele>37.6287</ele>
        <time>2013-05-26T10:07:41Z</time>
      </trkpt>
      <trkpt lat="59.8849815" lon="17.7631925">
        <ele>37.6287</ele>
        <time>2013-05-26T10:07:42Z</time>
      </trkpt>
      <trkpt lat="59.8849623" lon="17.7632981">
        <ele>37.1481</ele>
        <time>2013-05-26T10:07:43Z</time>
      </trkpt>
      <trkpt lat="59.884943" lon="17.7634048">
        <ele>37.6287</ele>
        <time>2013-05-26T10:07:44Z</time>
      </trkpt>
      <trkpt lat="59.8849182" lon="17.7635107">
        <ele>38.1094</ele>
        <time>2013-05-26T10:07:45Z</time>
      </trkpt>
      <trkpt lat="59.8848939" lon="17.7636143">
        <ele>38.1094</ele>
        <time>2013-05-26T10:07:46Z</time>
      </trkpt>
      <trkpt lat="59.8848706" lon="17.7637231">
        <ele>38.5901</ele>
        <time>2013-05-26T10:07:47Z</time>
      </trkpt>
      <trkpt lat="59.8848484" lon="17.7638261">
        <ele>39.0707</ele>
        <time>2013-05-26T10:07:48Z</time>
      </trkpt>
      <trkpt lat="59.8848259" lon="17.7639275">
        <ele>39.0707</ele>
        <time>2013-05-26T10:07:49Z</time>
      </trkpt>
      <trkpt lat="59.8848028" lon="17.7640272">
        <ele>39.0707</ele>
        <time>2013-05-26T10:07:50Z</time>
      </trkpt>
      <trkpt lat="59.8847846" lon="17.7641239">
        <ele>38.5901</ele>
        <time>2013-05-26T10:07:51Z</time>
      </trkpt>
      <trkpt lat="59.8847668" lon="17.7642228">
        <ele>38.5901</ele>
        <time>2013-05-26T10:07:52Z</time>
      </trkpt>
      <trkpt lat="59.884755" lon="17.7643189">
        <ele>38.1094</ele>
        <time>2013-05-26T10:07:53Z</time>
      </trkpt>
      <trkpt lat="59.8847427" lon="17.7644224">
        <ele>38.1094</ele>
        <time>2013-05-26T10:07:54Z</time>
      </trkpt>
      <trkpt lat="59.8847385" lon="17.7645198">
        <ele>38.1094</ele>
        <time>2013-05-26T10:07:55Z</time>
      </trkpt>
      <trkpt lat="59.8847287" lon="17.7646201">
        <ele>38.5901</ele>
        <time>2013-05-26T10:07:56Z</time>
      </trkpt>
      <trkpt lat="59.884722" lon="17.764716">
        <ele>38.5901</ele>
        <time>2013-05-26T10:07:57Z</time>
      </trkpt>
      <trkpt lat="59.8847171" lon="17.7648115">
        <ele>39.0707</ele>
        <time>2013-05-26T10:07:58Z</time>
      </trkpt>
      <trkpt lat="59.8847128" lon="17.7649127">
        <ele>39.0707</ele>
        <time>2013-05-26T10:07:59Z</time>
      </trkpt>
      <trkpt lat="59.884708" lon="17.7650182">
        <ele>39.5513</ele>
        <time>2013-05-26T10:08:00Z</time>
      </trkpt>
      <trkpt lat="59.8847038" lon="17.7651263">
        <ele>40.0321</ele>
        <time>2013-05-26T10:08:01Z</time>
      </trkpt>
      <trkpt lat="59.8847038" lon="17.76523">
        <ele>39.5513</ele>
        <time>2013-05-26T10:08:02Z</time>
      </trkpt>
      <trkpt lat="59.8847102" lon="17.7653359">
        <ele>39.0707</ele>
        <time>2013-05-26T10:08:03Z</time>
      </trkpt>
      <trkpt lat="59.8847147" lon="17.7654404">
        <ele>38.5901</ele>
        <time>2013-05-26T10:08:04Z</time>
      </trkpt>
      <trkpt lat="59.8847133" lon="17.765552">
        <ele>38.5901</ele>
        <time>2013-05-26T10:08:05Z</time>
      </trkpt>
      <trkpt lat="59.884709" lon="17.7656639">
        <ele>38.1094</ele>
        <time>2013-05-26T10:08:06Z</time>
      </trkpt>
      <trkpt lat="59.8847044" lon="17.7657806">
        <ele>37.6287</ele>
        <time>2013-05-26T10:08:07Z</time>
      </trkpt>
      <trkpt lat="59.8846983" lon="17.7659013">
        <ele>37.1481</ele>
        <time>2013-05-26T10:08:08Z</time>
      </trkpt>
      <trkpt lat="59.8846889" lon="17.7660287">
        <ele>37.1481</ele>
        <time>2013-05-26T10:08:09Z</time>
      </trkpt>
      <trkpt lat="59.8846856" lon="17.7661565">
        <ele>36.6675</ele>
        <time>2013-05-26T10:08:10Z</time>
      </trkpt>
      <trkpt lat="59.8846817" lon="17.7662902">
        <ele>36.1868</ele>
        <time>2013-05-26T10:08:11Z</time>
      </trkpt>
      <trkpt lat="59.8846744" lon="17.7664261">
        <ele>36.1868</ele>
        <time>2013-05-26T10:08:12Z</time>
      </trkpt>
      <trkpt lat="59.8846686" lon="17.7665638">
        <ele>35.7061</ele>
        <time>2013-05-26T10:08:13Z</time>
      </trkpt>
      <trkpt lat="59.8846654" lon="17.7666986">
        <ele>35.7061</ele>
        <time>2013-05-26T10:08:14Z</time>
      </trkpt>
      <trkpt lat="59.8846592" lon="17.7668316">
        <ele>35.7061</ele>
        <time>2013-05-26T10:08:15Z</time>
      </trkpt>
      <trkpt lat="59.8846549" lon="17.7669571">
        <ele>35.7061</ele>
        <time>2013-05-26T10:08:16Z</time>
      </trkpt>
      <trkpt lat="59.8846572" lon="17.76707">
        <ele>36.1868</ele>
        <time>2013-05-26T10:08:17Z</time>
      </trkpt>
      <trkpt lat="59.8846679" lon="17.7671735">
        <ele>36.6675</ele>
        <time>2013-05-26T10:08:18Z</time>
      </trkpt>
      <trkpt lat="59.8846809" lon="17.7672811">
        <ele>37.1481</ele>
        <time>2013-05-26T10:08:19Z</time>
      </trkpt>
      <trkpt lat="59.8846899" lon="17.7673943">
        <ele>37.1481</ele>
        <time>2013-05-26T10:08:20Z</time>
      </trkpt>
      <trkpt lat="59.8846949" lon="17.7675173">
        <ele>36.6675</ele>
        <time>2013-05-26T10:08:21Z</time>
      </trkpt>
      <trkpt lat="59.8847044" lon="17.7676263">
        <ele>36.1868</ele>
        <time>2013-05-26T10:08:22Z</time>
      </trkpt>
      <trkpt lat="59.8847031" lon="17.7677459">
        <ele>35.2255</ele>
        <time>2013-05-26T10:08:23Z</time>
      </trkpt>
      <trkpt lat="59.8847006" lon="17.7678581">
        <ele>35.7061</ele>
        <time>2013-05-26T10:08:24Z</time>
      </trkpt>
      <trkpt lat="59.8846834" lon="17.767965">
        <ele>35.7061</ele>
        <time>2013-05-26T10:08:25Z</time>
      </trkpt>
      <trkpt lat="59.8846448" lon="17.768079">
        <ele>35.7061</ele>
        <time>2013-05-26T10:08:26Z</time>
      </trkpt>
      <trkpt lat="59.8846058" lon="17.7681974">
        <ele>36.1868</ele>
        <time>2013-05-26T10:08:27Z</time>
      </trkpt>
      <trkpt lat="59.8845671" lon="17.7683303">
        <ele>36.1868</ele>
        <time>2013-05-26T10:08:28Z</time>
      </trkpt>
      <trkpt lat="59.8845413" lon="17.7684655">
        <ele>36.1868</ele>
        <time>2013-05-26T10:08:29Z</time>
      </trkpt>
      <trkpt lat="59.8845276" lon="17.7686028">
        <ele>36.1868</ele>
        <time>2013-05-26T10:08:30Z</time>
      </trkpt>
      <trkpt lat="59.8845258" lon="17.7687382">
        <ele>36.1868</ele>
        <time>2013-05-26T10:08:31Z</time>
      </trkpt>
      <trkpt lat="59.8845315" lon="17.7688766">
        <ele>36.1868</ele>
        <time>2013-05-26T10:08:32Z</time>
      </trkpt>
      <trkpt lat="59.884549" lon="17.7690104">
        <ele>36.6675</ele>
        <time>2013-05-26T10:08:33Z</time>
      </trkpt>
      <trkpt lat="59.8845784" lon="17.7691243">
        <ele>36.1868</ele>
        <time>2013-05-26T10:08:34Z</time>
      </trkpt>
      <trkpt lat="59.884611" lon="17.7692428">
        <ele>35.7061</ele>
        <time>2013-05-26T10:08:35Z</time>
      </trkpt>
      <trkpt lat="59.8846539" lon="17.7693543">
        <ele>35.2255</ele>
        <time>2013-05-26T10:08:36Z</time>
      </trkpt>
      <trkpt lat="59.8847013" lon="17.7694662">
        <ele>34.7449</ele>
        <time>2013-05-26T10:08:37Z</time>
      </trkpt>
      <trkpt lat="59.8847506" lon="17.7695779">
        <ele>34.7449</ele>
        <time>2013-05-26T10:08:38Z</time>
      </trkpt>
      <trkpt lat="59.8847992" lon="17.7696935">
        <ele>34.2642</ele>
        <time>2013-05-26T10:08:39Z</time>
      </trkpt>
      <trkpt lat="59.8848464" lon="17.769804">
        <ele>33.7834</ele>
        <time>2013-05-26T10:08:40Z</time>
      </trkpt>
      <trkpt lat="59.8848945" lon="17.7699096">
        <ele>33.7834</ele>
        <time>2013-05-26T10:08:41Z</time>
      </trkpt>
      <trkpt lat="59.8849421" lon="17.7700144">
        <ele>33.3029</ele>
        <time>2013-05-26T10:08:42Z</time>
      </trkpt>
      <trkpt lat="59.884986" lon="17.7701241">
        <ele>33.3029</ele>
        <time>2013-05-26T10:08:43Z</time>
      </trkpt>
      <trkpt lat="59.8850308" lon="17.7702287">
        <ele>32.8223</ele>
        <time>2013-05-26T10:08:44Z</time>
      </trkpt>
      <trkpt lat="59.8850788" lon="17.7703213">
        <ele>32.8223</ele>
        <time>2013-05-26T10:08:45Z</time>
      </trkpt>
      <trkpt lat="59.8851265" lon="17.7704093">
        <ele>32.3416</ele>
        <time>2013-05-26T10:08:46Z</time>
      </trkpt>
      <trkpt lat="59.8851771" lon="17.7704948">
        <ele>32.3416</ele>
        <time>2013-05-26T10:08:47Z</time>
      </trkpt>
      <trkpt lat="59.8852359" lon="17.7705773">
        <ele>33.3029</ele>
        <time>2013-05-26T10:08:48Z</time>
      </trkpt>
      <trkpt lat="59.8852845" lon="17.7706514">
        <ele>32.8223</ele>
        <time>2013-05-26T10:08:49Z</time>
      </trkpt>
      <trkpt lat="59.8853335" lon="17.7707255">
        <ele>32.8223</ele>
        <time>2013-05-26T10:08:50Z</time>
      </trkpt>
      <trkpt lat="59.8853822" lon="17.7708011">
        <ele>32.3416</ele>
        <time>2013-05-26T10:08:51Z</time>
      </trkpt>
      <trkpt lat="59.885434" lon="17.7708799">
        <ele>32.8223</ele>
        <time>2013-05-26T10:08:52Z</time>
      </trkpt>
      <trkpt lat="59.8854829" lon="17.770966">
        <ele>32.3416</ele>
        <time>2013-05-26T10:08:53Z</time>
      </trkpt>
      <trkpt lat="59.8855278" lon="17.7710596">
        <ele>31.8607</ele>
        <time>2013-05-26T10:08:54Z</time>
      </trkpt>
      <trkpt lat="59.8855736" lon="17.7711664">
        <ele>32.3416</ele>
        <time>2013-05-26T10:08:55Z</time>
      </trkpt>
      <trkpt lat="59.8856149" lon="17.7712814">
        <ele>31.8607</ele>
        <time>2013-05-26T10:08:56Z</time>
      </trkpt>
      <trkpt lat="59.8856477" lon="17.7714015">
        <ele>31.8607</ele>
        <time>2013-05-26T10:08:57Z</time>
      </trkpt>
      <trkpt lat="59.8856772" lon="17.7715289">
        <ele>31.8607</ele>
        <time>2013-05-26T10:08:58Z</time>
      </trkpt>
      <trkpt lat="59.8856995" lon="17.7716595">
        <ele>32.3416</ele>
        <time>2013-05-26T10:08:59Z</time>
      </trkpt>
      <trkpt lat="59.8857171" lon="17.7717899">
        <ele>32.8223</ele>
        <time>2013-05-26T10:09:00Z</time>
      </trkpt>
      <trkpt lat="59.8857279" lon="17.7719225">
        <ele>32.8223</ele>
        <time>2013-05-26T10:09:01Z</time>
      </trkpt>
      <trkpt lat="59.8857352" lon="17.7720559">
        <ele>33.3029</ele>
        <time>2013-05-26T10:09:02Z</time>
      </trkpt>
      <trkpt lat="59.8857393" lon="17.7721903">
        <ele>33.7834</ele>
        <time>2013-05-26T10:09:03Z</time>
      </trkpt>
      <trkpt lat="59.8857414" lon="17.7723255">
        <ele>34.2642</ele>
        <time>2013-05-26T10:09:04Z</time>
      </trkpt>
      <trkpt lat="59.8857346" lon="17.7724581">
        <ele>34.7449</ele>
        <time>2013-05-26T10:09:05Z</time>
      </trkpt>
      <trkpt lat="59.885716" lon="17.7725863">
        <ele>34.7449</ele>
        <time>2013-05-26T10:09:06Z</time>
      </trkpt>
      <trkpt lat="59.8856827" lon="17.7727084">
        <ele>34.2642</ele>
        <time>2013-05-26T10:09:07Z</time>
      </trkpt>
      <trkpt lat="59.8856399" lon="17.7728246">
        <ele>34.2642</ele>
        <time>2013-05-26T10:09:08Z</time>
      </trkpt>
      <trkpt lat="59.8855885" lon="17.7729296">
        <ele>34.2642</ele>
        <time>2013-05-26T10:09:09Z</time>
      </trkpt>
      <trkpt lat="59.8855295" lon="17.7730242">
        <ele>33.3029</ele>
        <time>2013-05-26T10:09:10Z</time>
      </trkpt>
      <trkpt lat="59.8854732" lon="17.7731063">
        <ele>32.3416</ele>
        <time>2013-05-26T10:09:11Z</time>
      </trkpt>
      <trkpt lat="59.8854219" lon="17.7731822">
        <ele>31.3801</ele>
        <time>2013-05-26T10:09:12Z</time>
      </trkpt>
      <trkpt lat="59.8853701" lon="17.7732604">
        <ele>30.8995</ele>
        <time>2013-05-26T10:09:13Z</time>
      </trkpt>
      <trkpt lat="59.8853191" lon="17.7733434">
        <ele>29.9381</ele>
        <time>2013-05-26T10:09:14Z</time>
      </trkpt>
      <trkpt lat="59.8852685" lon="17.7734373">
        <ele>29.9381</ele>
        <time>2013-05-26T10:09:15Z</time>
      </trkpt>
      <trkpt lat="59.8852245" lon="17.7735371">
        <ele>29.9381</ele>
        <time>2013-05-26T10:09:16Z</time>
      </trkpt>
      <trkpt lat="59.8851843" lon="17.7736372">
        <ele>29.4575</ele>
        <time>2013-05-26T10:09:17Z</time>
      </trkpt>
      <trkpt lat="59.8851452" lon="17.773743">
        <ele>28.9769</ele>
        <time>2013-05-26T10:09:18Z</time>
      </trkpt>
      <trkpt lat="59.8851078" lon="17.7738587">
        <ele>28.9769</ele>
        <time>2013-05-26T10:09:19Z</time>
      </trkpt>
      <trkpt lat="59.8850721" lon="17.7739843">
        <ele>29.4575</ele>
        <time>2013-05-26T10:09:20Z</time>
      </trkpt>
      <trkpt lat="59.8850383" lon="17.7741098">
        <ele>29.9381</ele>
        <time>2013-05-26T10:09:21Z</time>
      </trkpt>
      <trkpt lat="59.8850064" lon="17.7742299">
        <ele>29.9381</ele>
        <time>2013-05-26T10:09:22Z</time>
      </trkpt>
      <trkpt lat="59.8849742" lon="17.7743494">
        <ele>29.9381</ele>
        <time>2013-05-26T10:09:23Z</time>
      </trkpt>
      <trkpt lat="59.8849355" lon="17.7744802">
        <ele>29.9381</ele>
        <time>2013-05-26T10:09:24Z</time>
      </trkpt>
      <trkpt lat="59.884896" lon="17.7746137">
        <ele>30.4188</ele>
        <time>2013-05-26T10:09:25Z</time>
      </trkpt>
      <trkpt lat="59.8848524" lon="17.7747449">
        <ele>30.4188</ele>
        <time>2013-05-26T10:09:26Z</time>
      </trkpt>
      <trkpt lat="59.8848138" lon="17.774849">
        <ele>29.9381</ele>
        <time>2013-05-26T10:09:27Z</time>
      </trkpt>
      <trkpt lat="59.8847696" lon="17.7749596">
        <ele>29.4575</ele>
        <time>2013-05-26T10:09:28Z</time>
      </trkpt>
      <trkpt lat="59.8847252" lon="17.7750721">
        <ele>28.9769</ele>
        <time>2013-05-26T10:09:29Z</time>
      </trkpt>
      <trkpt lat="59.8846715" lon="17.7751966">
        <ele>28.4962</ele>
        <time>2013-05-26T10:09:30Z</time>
      </trkpt>
      <trkpt lat="59.884613" lon="17.7753245">
        <ele>28.0155</ele>
        <time>2013-05-26T10:09:31Z</time>
      </trkpt>
      <trkpt lat="59.884578" lon="17.7754183">
        <ele>28.0155</ele>
        <time>2013-05-26T10:09:32Z</time>
      </trkpt>
      <trkpt lat="59.8845396" lon="17.7755198">
        <ele>28.0155</ele>
        <time>2013-05-26T10:09:33Z</time>
      </trkpt>
      <trkpt lat="59.8845017" lon="17.7756198">
        <ele>28.0155</ele>
        <time>2013-05-26T10:09:34Z</time>
      </trkpt>
      <trkpt lat="59.8844657" lon="17.7757166">
        <ele>28.0155</ele>
        <time>2013-05-26T10:09:35Z</time>
      </trkpt>
      <trkpt lat="59.8844298" lon="17.7758119">
        <ele>28.0155</ele>
        <time>2013-05-26T10:09:36Z</time>
      </trkpt>
      <trkpt lat="59.8843991" lon="17.7759042">
        <ele>27.5349</ele>
        <time>2013-05-26T10:09:37Z</time>
      </trkpt>
      <trkpt lat="59.8843635" lon="17.7760046">
        <ele>27.0543</ele>
        <time>2013-05-26T10:09:38Z</time>
      </trkpt>
      <trkpt lat="59.8843293" lon="17.7761074">
        <ele>27.0543</ele>
        <time>2013-05-26T10:09:39Z</time>
      </trkpt>
      <trkpt lat="59.8842976" lon="17.7762194">
        <ele>27.5349</ele>
        <time>2013-05-26T10:09:40Z</time>
      </trkpt>
      <trkpt lat="59.8842661" lon="17.7763292">
        <ele>27.5349</ele>
        <time>2013-05-26T10:09:41Z</time>
      </trkpt>
      <trkpt lat="59.884235" lon="17.7764364">
        <ele>27.5349</ele>
        <time>2013-05-26T10:09:42Z</time>
      </trkpt>
      <trkpt lat="59.8842054" lon="17.7765451">
        <ele>27.5349</ele>
        <time>2013-05-26T10:09:43Z</time>
      </trkpt>
      <trkpt lat="59.8841761" lon="17.7766553">
        <ele>27.5349</ele>
        <time>2013-05-26T10:09:44Z</time>
      </trkpt>
      <trkpt lat="59.8841448" lon="17.7767665">
        <ele>27.5349</ele>
        <time>2013-05-26T10:09:45Z</time>
      </trkpt>
      <trkpt lat="59.8841116" lon="17.7768774">
        <ele>27.5349</ele>
        <time>2013-05-26T10:09:46Z</time>
      </trkpt>
      <trkpt lat="59.8840769" lon="17.7769889">
        <ele>27.5349</ele>
        <time>2013-05-26T10:09:47Z</time>
      </trkpt>
      <trkpt lat="59.8840377" lon="17.7770973">
        <ele>27.5349</ele>
        <time>2013-05-26T10:09:48Z</time>
      </trkpt>
      <trkpt lat="59.8839929" lon="17.7771992">
        <ele>28.0155</ele>
        <time>2013-05-26T10:09:49Z</time>
      </trkpt>
      <trkpt lat="59.883945" lon="17.7772929">
        <ele>28.0155</ele>
        <time>2013-05-26T10:09:50Z</time>
      </trkpt>
      <trkpt lat="59.8838946" lon="17.7773804">
        <ele>28.0155</ele>
        <time>2013-05-26T10:09:51Z</time>
      </trkpt>
      <trkpt lat="59.8838411" lon="17.7774617">
        <ele>28.4962</ele>
        <time>2013-05-26T10:09:52Z</time>
      </trkpt>
      <trkpt lat="59.8837833" lon="17.7775357">
        <ele>28.4962</ele>
        <time>2013-05-26T10:09:53Z</time>
      </trkpt>
      <trkpt lat="59.8837243" lon="17.7776037">
        <ele>28.4962</ele>
        <time>2013-05-26T10:09:54Z</time>
      </trkpt>
      <trkpt lat="59.8836626" lon="17.7776663">
        <ele>28.4962</ele>
        <time>2013-05-26T10:09:55Z</time>
      </trkpt>
      <trkpt lat="59.8835984" lon="17.7777187">
        <ele>28.0155</ele>
        <time>2013-05-26T10:09:56Z</time>
      </trkpt>
      <trkpt lat="59.8835332" lon="17.7777663">
        <ele>28.0155</ele>
        <time>2013-05-26T10:09:57Z</time>
      </trkpt>
      <trkpt lat="59.8834683" lon="17.7778015">
        <ele>27.5349</ele>
        <time>2013-05-26T10:09:58Z</time>
      </trkpt>
      <trkpt lat="59.8834019" lon="17.7778248">
        <ele>28.0155</ele>
        <time>2013-05-26T10:09:59Z</time>
      </trkpt>
      <trkpt lat="59.8833354" lon="17.7778386">
        <ele>28.0155</ele>
        <time>2013-05-26T10:10:00Z</time>
      </trkpt>
      <trkpt lat="59.8832683" lon="17.7778508">
        <ele>28.0155</ele>
        <time>2013-05-26T10:10:01Z</time>
      </trkpt>
      <trkpt lat="59.8832052" lon="17.7778609">
        <ele>28.0155</ele>
        <time>2013-05-26T10:10:02Z</time>
      </trkpt>
      <trkpt lat="59.8831431" lon="17.7778773">
        <ele>28.0155</ele>
        <time>2013-05-26T10:10:03Z</time>
      </trkpt>
      <trkpt lat="59.8830825" lon="17.7779046">
        <ele>28.4962</ele>
        <time>2013-05-26T10:10:04Z</time>
      </trkpt>
      <trkpt lat="59.8830239" lon="17.7779451">
        <ele>28.0155</ele>
        <time>2013-05-26T10:10:05Z</time>
      </trkpt>
      <trkpt lat="59.8829707" lon="17.7780046">
        <ele>28.4962</ele>
        <time>2013-05-26T10:10:06Z</time>
      </trkpt>
      <trkpt lat="59.8829276" lon="17.7780938">
        <ele>28.9769</ele>
        <time>2013-05-26T10:10:07Z</time>
      </trkpt>
      <trkpt lat="59.8828996" lon="17.7782031">
        <ele>29.9381</ele>
        <time>2013-05-26T10:10:08Z</time>
      </trkpt>
      <trkpt lat="59.8828828" lon="17.7783184">
        <ele>30.4188</ele>
        <time>2013-05-26T10:10:09Z</time>
      </trkpt>
      <trkpt lat="59.8828768" lon="17.7784381">
        <ele>30.4188</ele>
        <time>2013-05-26T10:10:10Z</time>
      </trkpt>
      <trkpt lat="59.8828798" lon="17.7785584">
        <ele>30.8995</ele>
        <time>2013-05-26T10:10:11Z</time>
      </trkpt>
      <trkpt lat="59.8828859" lon="17.7786765">
        <ele>31.8607</ele>
        <time>2013-05-26T10:10:12Z</time>
      </trkpt>
      <trkpt lat="59.8828939" lon="17.7787924">
        <ele>31.8607</ele>
        <time>2013-05-26T10:10:13Z</time>
      </trkpt>
      <trkpt lat="59.8829082" lon="17.7789039">
        <ele>32.3416</ele>
        <time>2013-05-26T10:10:14Z</time>
      </trkpt>
      <trkpt lat="59.882925" lon="17.779012">
        <ele>32.8223</ele>
        <time>2013-05-26T10:10:15Z</time>
      </trkpt>
      <trkpt lat="59.882945" lon="17.7791116">
        <ele>33.3029</ele>
        <time>2013-05-26T10:10:16Z</time>
      </trkpt>
      <trkpt lat="59.8829659" lon="17.7792095">
        <ele>33.3029</ele>
        <time>2013-05-26T10:10:17Z</time>
      </trkpt>
      <trkpt lat="59.8829914" lon="17.7792981">
        <ele>33.7834</ele>
        <time>2013-05-26T10:10:18Z</time>
      </trkpt>
      <trkpt lat="59.8830242" lon="17.7793774">
        <ele>34.2642</ele>
        <time>2013-05-26T10:10:19Z</time>
      </trkpt>
      <trkpt lat="59.8830519" lon="17.7794535">
        <ele>34.2642</ele>
        <time>2013-05-26T10:10:20Z</time>
      </trkpt>
      <trkpt lat="59.8830805" lon="17.7795248">
        <ele>33.7834</ele>
        <time>2013-05-26T10:10:21Z</time>
      </trkpt>
      <trkpt lat="59.8831094" lon="17.7795948">
        <ele>33.7834</ele>
        <time>2013-05-26T10:10:22Z</time>
      </trkpt>
      <trkpt lat="59.8831395" lon="17.7796622">
        <ele>33.7834</ele>
        <time>2013-05-26T10:10:23Z</time>
      </trkpt>
      <trkpt lat="59.8831762" lon="17.7797285">
        <ele>34.2642</ele>
        <time>2013-05-26T10:10:24Z</time>
      </trkpt>
      <trkpt lat="59.8832076" lon="17.7797948">
        <ele>34.7449</ele>
        <time>2013-05-26T10:10:25Z</time>
      </trkpt>
      <trkpt lat="59.8832447" lon="17.7798653">
        <ele>35.2255</ele>
        <time>2013-05-26T10:10:26Z</time>
      </trkpt>
      <trkpt lat="59.8832788" lon="17.7799451">
        <ele>35.2255</ele>
        <time>2013-05-26T10:10:27Z</time>
      </trkpt>
      <trkpt lat="59.8833099" lon="17.7800342">
        <ele>35.7061</ele>
        <time>2013-05-26T10:10:28Z</time>
      </trkpt>
      <trkpt lat="59.8833353" lon="17.7801341">
        <ele>35.7061</ele>
        <time>2013-05-26T10:10:29Z</time>
      </trkpt>
      <trkpt lat="59.8833543" lon="17.7802424">
        <ele>35.2255</ele>
        <time>2013-05-26T10:10:30Z</time>
      </trkpt>
      <trkpt lat="59.8833596" lon="17.7803605">
        <ele>35.2255</ele>
        <time>2013-05-26T10:10:31Z</time>
      </trkpt>
      <trkpt lat="59.8833578" lon="17.7804808">
        <ele>35.2255</ele>
        <time>2013-05-26T10:10:32Z</time>
      </trkpt>
      <trkpt lat="59.883354" lon="17.7805982">
        <ele>35.7061</ele>
        <time>2013-05-26T10:10:33Z</time>
      </trkpt>
      <trkpt lat="59.8833446" lon="17.7807105">
        <ele>35.7061</ele>
        <time>2013-05-26T10:10:34Z</time>
      </trkpt>
      <trkpt lat="59.8833335" lon="17.7808279">
        <ele>36.1868</ele>
        <time>2013-05-26T10:10:35Z</time>
      </trkpt>
      <trkpt lat="59.8833237" lon="17.7809403">
        <ele>36.6675</ele>
        <time>2013-05-26T10:10:36Z</time>
      </trkpt>
      <trkpt lat="59.8833211" lon="17.7810658">
        <ele>37.1481</ele>
        <time>2013-05-26T10:10:37Z</time>
      </trkpt>
      <trkpt lat="59.8833129" lon="17.7811935">
        <ele>37.1481</ele>
        <time>2013-05-26T10:10:38Z</time>
      </trkpt>
      <trkpt lat="59.8833146" lon="17.7813049">
        <ele>37.6287</ele>
        <time>2013-05-26T10:10:39Z</time>
      </trkpt>
      <trkpt lat="59.883311" lon="17.7814152">
        <ele>37.6287</ele>
        <time>2013-05-26T10:10:40Z</time>
      </trkpt>
      <trkpt lat="59.8833104" lon="17.7815294">
        <ele>37.6287</ele>
        <time>2013-05-26T10:10:41Z</time>
      </trkpt>
      <trkpt lat="59.8833089" lon="17.7816582">
        <ele>38.1094</ele>
        <time>2013-05-26T10:10:42Z</time>
      </trkpt>
      <trkpt lat="59.8833068" lon="17.781783">
        <ele>38.5901</ele>
        <time>2013-05-26T10:10:43Z</time>
      </trkpt>
      <trkpt lat="59.8833021" lon="17.7819073">
        <ele>39.0707</ele>
        <time>2013-05-26T10:10:44Z</time>
      </trkpt>
      <trkpt lat="59.883299" lon="17.7820327">
        <ele>39.5513</ele>
        <time>2013-05-26T10:10:45Z</time>
      </trkpt>
      <trkpt lat="59.883298" lon="17.7821529">
        <ele>40.0321</ele>
        <time>2013-05-26T10:10:46Z</time>
      </trkpt>
      <trkpt lat="59.8833001" lon="17.7822689">
        <ele>40.9934</ele>
        <time>2013-05-26T10:10:47Z</time>
      </trkpt>
      <trkpt lat="59.883301" lon="17.7823752">
        <ele>40.9934</ele>
        <time>2013-05-26T10:10:48Z</time>
      </trkpt>
      <trkpt lat="59.8832976" lon="17.7824717">
        <ele>40.9934</ele>
        <time>2013-05-26T10:10:49Z</time>
      </trkpt>
      <trkpt lat="59.8832812" lon="17.7825665">
        <ele>40.9934</ele>
        <time>2013-05-26T10:10:50Z</time>
      </trkpt>
      <trkpt lat="59.883255" lon="17.7826449">
        <ele>40.9934</ele>
        <time>2013-05-26T10:10:51Z</time>
      </trkpt>
      <trkpt lat="59.8832011" lon="17.7826914">
        <ele>40.5128</ele>
        <time>2013-05-26T10:10:52Z</time>
      </trkpt>
      <trkpt lat="59.8831281" lon="17.782716">
        <ele>40.0321</ele>
        <time>2013-05-26T10:10:53Z</time>
      </trkpt>
      <trkpt lat="59.8830504" lon="17.7827284">
        <ele>39.0707</ele>
        <time>2013-05-26T10:10:54Z</time>
      </trkpt>
      <trkpt lat="59.8829676" lon="17.7827428">
        <ele>38.5901</ele>
        <time>2013-05-26T10:10:55Z</time>
      </trkpt>
      <trkpt lat="59.8828753" lon="17.782762">
        <ele>37.1481</ele>
        <time>2013-05-26T10:10:56Z</time>
      </trkpt>
      <trkpt lat="59.8827808" lon="17.782783">
        <ele>35.7061</ele>
        <time>2013-05-26T10:10:57Z</time>
      </trkpt>
      <trkpt lat="59.8826794" lon="17.78282">
        <ele>35.2255</ele>
        <time>2013-05-26T10:10:58Z</time>
      </trkpt>
      <trkpt lat="59.8825821" lon="17.7828516">
        <ele>34.2642</ele>
        <time>2013-05-26T10:10:59Z</time>
      </trkpt>
      <trkpt lat="59.882482" lon="17.782896">
        <ele>34.2642</ele>
        <time>2013-05-26T10:11:00Z</time>
      </trkpt>
      <trkpt lat="59.8823801" lon="17.7829415">
        <ele>34.2642</ele>
        <time>2013-05-26T10:11:01Z</time>
      </trkpt>
      <trkpt lat="59.8822815" lon="17.7829794">
        <ele>33.7834</ele>
        <time>2013-05-26T10:11:02Z</time>
      </trkpt>
      <trkpt lat="59.8821812" lon="17.7830159">
        <ele>33.7834</ele>
        <time>2013-05-26T10:11:03Z</time>
      </trkpt>
      <trkpt lat="59.8820785" lon="17.7830536">
        <ele>33.3029</ele>
        <time>2013-05-26T10:11:04Z</time>
      </trkpt>
      <trkpt lat="59.8819698" lon="17.7830898">
        <ele>32.3416</ele>
        <time>2013-05-26T10:11:05Z</time>
      </trkpt>
      <trkpt lat="59.8818543" lon="17.7831316">
        <ele>30.4188</ele>
        <time>2013-05-26T10:11:06Z</time>
      </trkpt>
      <trkpt lat="59.8817397" lon="17.7831755">
        <ele>30.4188</ele>
        <time>2013-05-26T10:11:07Z</time>
      </trkpt>
      <trkpt lat="59.8816213" lon="17.7832187">
        <ele>29.9381</ele>
        <time>2013-05-26T10:11:08Z</time>
      </trkpt>
      <trkpt lat="59.8815014" lon="17.7832588">
        <ele>29.4575</ele>
        <time>2013-05-26T10:11:09Z</time>
      </trkpt>
      <trkpt lat="59.8813804" lon="17.7833002">
        <ele>28.9769</ele>
        <time>2013-05-26T10:11:10Z</time>
      </trkpt>
      <trkpt lat="59.881258" lon="17.7833423">
        <ele>28.9769</ele>
        <time>2013-05-26T10:11:11Z</time>
      </trkpt>
      <trkpt lat="59.8811311" lon="17.7833832">
        <ele>28.4962</ele>
        <time>2013-05-26T10:11:12Z</time>
      </trkpt>
      <trkpt lat="59.8810023" lon="17.7834155">
        <ele>28.0155</ele>
        <time>2013-05-26T10:11:13Z</time>
      </trkpt>
      <trkpt lat="59.8808753" lon="17.7834308">
        <ele>27.5349</ele>
        <time>2013-05-26T10:11:14Z</time>
      </trkpt>
      <trkpt lat="59.8807437" lon="17.7834262">
        <ele>26.5736</ele>
        <time>2013-05-26T10:11:15Z</time>
      </trkpt>
      <trkpt lat="59.8806147" lon="17.7833855">
        <ele>25.1317</ele>
        <time>2013-05-26T10:11:16Z</time>
      </trkpt>
      <trkpt lat="59.8804908" lon="17.7833151">
        <ele>24.651</ele>
        <time>2013-05-26T10:11:17Z</time>
      </trkpt>
      <trkpt lat="59.8803698" lon="17.7832312">
        <ele>23.6896</ele>
        <time>2013-05-26T10:11:18Z</time>
      </trkpt>
      <trkpt lat="59.880249" lon="17.7831453">
        <ele>23.209</ele>
        <time>2013-05-26T10:11:19Z</time>
      </trkpt>
      <trkpt lat="59.8801283" lon="17.7830598">
        <ele>22.7283</ele>
        <time>2013-05-26T10:11:20Z</time>
      </trkpt>
      <trkpt lat="59.8800075" lon="17.7829737">
        <ele>22.2476</ele>
        <time>2013-05-26T10:11:21Z</time>
      </trkpt>
      <trkpt lat="59.8798884" lon="17.7828942">
        <ele>21.767</ele>
        <time>2013-05-26T10:11:22Z</time>
      </trkpt>
      <trkpt lat="59.8797729" lon="17.7828323">
        <ele>21.2864</ele>
        <time>2013-05-26T10:11:23Z</time>
      </trkpt>
      <trkpt lat="59.87966" lon="17.7828024">
        <ele>20.8057</ele>
        <time>2013-05-26T10:11:24Z</time>
      </trkpt>
      <trkpt lat="59.8795492" lon="17.78282">
        <ele>20.325</ele>
        <time>2013-05-26T10:11:25Z</time>
      </trkpt>
      <trkpt lat="59.8794476" lon="17.7828885">
        <ele>20.325</ele>
        <time>2013-05-26T10:11:26Z</time>
      </trkpt>
      <trkpt lat="59.8793567" lon="17.7829972">
        <ele>20.325</ele>
        <time>2013-05-26T10:11:27Z</time>
      </trkpt>
      <trkpt lat="59.8792707" lon="17.7831232">
        <ele>19.8444</ele>
        <time>2013-05-26T10:11:28Z</time>
      </trkpt>
      <trkpt lat="59.8791881" lon="17.7832565">
        <ele>19.8444</ele>
        <time>2013-05-26T10:11:29Z</time>
      </trkpt>
      <trkpt lat="59.8791088" lon="17.7833907">
        <ele>19.8444</ele>
        <time>2013-05-26T10:11:30Z</time>
      </trkpt>
      <trkpt lat="59.8790305" lon="17.7835218">
        <ele>19.8444</ele>
        <time>2013-05-26T10:11:31Z</time>
      </trkpt>
      <trkpt lat="59.8789522" lon="17.7836467">
        <ele>19.3638</ele>
        <time>2013-05-26T10:11:32Z</time>
      </trkpt>
      <trkpt lat="59.8788743" lon="17.7837662">
        <ele>19.3638</ele>
        <time>2013-05-26T10:11:33Z</time>
      </trkpt>
      <trkpt lat="59.8787986" lon="17.7838877">
        <ele>19.3638</ele>
        <time>2013-05-26T10:11:34Z</time>
      </trkpt>
      <trkpt lat="59.8787243" lon="17.7840099">
        <ele>19.3638</ele>
        <time>2013-05-26T10:11:35Z</time>
      </trkpt>
      <trkpt lat="59.8786497" lon="17.784129">
        <ele>18.8831</ele>
        <time>2013-05-26T10:11:36Z</time>
      </trkpt>
      <trkpt lat="59.8785747" lon="17.7842461">
        <ele>18.8831</ele>
        <time>2013-05-26T10:11:37Z</time>
      </trkpt>
      <trkpt lat="59.8785031" lon="17.7843678">
        <ele>18.4023</ele>
        <time>2013-05-26T10:11:38Z</time>
      </trkpt>
      <trkpt lat="59.8784383" lon="17.7845004">
        <ele>18.4023</ele>
        <time>2013-05-26T10:11:39Z</time>
      </trkpt>
      <trkpt lat="59.8783811" lon="17.7846449">
        <ele>18.4023</ele>
        <time>2013-05-26T10:11:40Z</time>
      </trkpt>
      <trkpt lat="59.8783319" lon="17.7847976">
        <ele>18.4023</ele>
        <time>2013-05-26T10:11:41Z</time>
      </trkpt>
      <trkpt lat="59.8782936" lon="17.7849581">
        <ele>18.4023</ele>
        <time>2013-05-26T10:11:42Z</time>
      </trkpt>
      <trkpt lat="59.8782617" lon="17.785124">
        <ele>18.8831</ele>
        <time>2013-05-26T10:11:43Z</time>
      </trkpt>
      <trkpt lat="59.8782327" lon="17.7852924">
        <ele>19.3638</ele>
        <time>2013-05-26T10:11:44Z</time>
      </trkpt>
      <trkpt lat="59.8782052" lon="17.7854619">
        <ele>19.3638</ele>
        <time>2013-05-26T10:11:45Z</time>
      </trkpt>
      <trkpt lat="59.8781783" lon="17.7856317">
        <ele>19.8444</ele>
        <time>2013-05-26T10:11:46Z</time>
      </trkpt>
      <trkpt lat="59.8781521" lon="17.7858064">
        <ele>20.325</ele>
        <time>2013-05-26T10:11:47Z</time>
      </trkpt>
      <trkpt lat="59.8781256" lon="17.7859803">
        <ele>21.2864</ele>
        <time>2013-05-26T10:11:48Z</time>
      </trkpt>
      <trkpt lat="59.8780977" lon="17.7861524">
        <ele>21.767</ele>
        <time>2013-05-26T10:11:49Z</time>
      </trkpt>
      <trkpt lat="59.87807" lon="17.7863228">
        <ele>22.2476</ele>
        <time>2013-05-26T10:11:50Z</time>
      </trkpt>
      <trkpt lat="59.8780408" lon="17.7864891">
        <ele>22.7283</ele>
        <time>2013-05-26T10:11:51Z</time>
      </trkpt>
      <trkpt lat="59.87801" lon="17.7866502">
        <ele>23.209</ele>
        <time>2013-05-26T10:11:52Z</time>
      </trkpt>
      <trkpt lat="59.8779758" lon="17.7868056">
        <ele>23.6896</ele>
        <time>2013-05-26T10:11:53Z</time>
      </trkpt>
      <trkpt lat="59.8779454" lon="17.7869499">
        <ele>24.651</ele>
        <time>2013-05-26T10:11:54Z</time>
      </trkpt>
      <trkpt lat="59.8779122" lon="17.7870968">
        <ele>25.6123</ele>
        <time>2013-05-26T10:11:55Z</time>
      </trkpt>
      <trkpt lat="59.8778809" lon="17.7872338">
        <ele>26.5736</ele>
        <time>2013-05-26T10:11:56Z</time>
      </trkpt>
      <trkpt lat="59.8778538" lon="17.7873505">
        <ele>27.0543</ele>
        <time>2013-05-26T10:11:57Z</time>
      </trkpt>
      <trkpt lat="59.8778273" lon="17.7874655">
        <ele>28.0155</ele>
        <time>2013-05-26T10:11:58Z</time>
      </trkpt>
      <trkpt lat="59.877798" lon="17.7875805">
        <ele>28.4962</ele>
        <time>2013-05-26T10:11:59Z</time>
      </trkpt>
      <trkpt lat="59.8777884" lon="17.7876717">
        <ele>28.9769</ele>
        <time>2013-05-26T10:12:00Z</time>
      </trkpt>
      <trkpt lat="59.8777723" lon="17.7877609">
        <ele>29.4575</ele>
        <time>2013-05-26T10:12:01Z</time>
      </trkpt>
      <trkpt lat="59.8777526" lon="17.7878647">
        <ele>29.9381</ele>
        <time>2013-05-26T10:12:02Z</time>
      </trkpt>
      <trkpt lat="59.8777387" lon="17.7879586">
        <ele>29.9381</ele>
        <time>2013-05-26T10:12:03Z</time>
      </trkpt>
      <trkpt lat="59.8777242" lon="17.7880686">
        <ele>29.9381</ele>
        <time>2013-05-26T10:12:04Z</time>
      </trkpt>
      <trkpt lat="59.8777048" lon="17.7881724">
        <ele>29.9381</ele>
        <time>2013-05-26T10:12:05Z</time>
      </trkpt>
      <trkpt lat="59.8776868" lon="17.7882741">
        <ele>29.4575</ele>
        <time>2013-05-26T10:12:06Z</time>
      </trkpt>
      <trkpt lat="59.8776755" lon="17.7883788">
        <ele>29.4575</ele>
        <time>2013-05-26T10:12:07Z</time>
      </trkpt>
      <trkpt lat="59.8776673" lon="17.7884859">
        <ele>29.4575</ele>
        <time>2013-05-26T10:12:08Z</time>
      </trkpt>
      <trkpt lat="59.8776616" lon="17.7885948">
        <ele>29.4575</ele>
        <time>2013-05-26T10:12:09Z</time>
      </trkpt>
      <trkpt lat="59.8776592" lon="17.788707">
        <ele>28.9769</ele>
        <time>2013-05-26T10:12:10Z</time>
      </trkpt>
      <trkpt lat="59.8776589" lon="17.78882">
        <ele>28.9769</ele>
        <time>2013-05-26T10:12:11Z</time>
      </trkpt>
      <trkpt lat="59.8776592" lon="17.7889321">
        <ele>28.9769</ele>
        <time>2013-05-26T10:12:12Z</time>
      </trkpt>
      <trkpt lat="59.8776605" lon="17.7890444">
        <ele>28.9769</ele>
        <time>2013-05-26T10:12:13Z</time>
      </trkpt>
      <trkpt lat="59.8776637" lon="17.7891567">
        <ele>28.4962</ele>
        <time>2013-05-26T10:12:14Z</time>
      </trkpt>
      <trkpt lat="59.8776691" lon="17.7892675">
        <ele>28.4962</ele>
        <time>2013-05-26T10:12:15Z</time>
      </trkpt>
      <trkpt lat="59.8776712" lon="17.7893863">
        <ele>28.4962</ele>
        <time>2013-05-26T10:12:16Z</time>
      </trkpt>
      <trkpt lat="59.8776728" lon="17.7895058">
        <ele>28.0155</ele>
        <time>2013-05-26T10:12:17Z</time>
      </trkpt>
      <trkpt lat="59.8776768" lon="17.7896149">
        <ele>28.4962</ele>
        <time>2013-05-26T10:12:18Z</time>
      </trkpt>
      <trkpt lat="59.8776797" lon="17.7897226">
        <ele>28.4962</ele>
        <time>2013-05-26T10:12:19Z</time>
      </trkpt>
      <trkpt lat="59.8776832" lon="17.7898281">
        <ele>28.4962</ele>
        <time>2013-05-26T10:12:20Z</time>
      </trkpt>
      <trkpt lat="59.8776844" lon="17.7899352">
        <ele>28.9769</ele>
        <time>2013-05-26T10:12:21Z</time>
      </trkpt>
      <trkpt lat="59.8776849" lon="17.7900425">
        <ele>29.4575</ele>
        <time>2013-05-26T10:12:22Z</time>
      </trkpt>
      <trkpt lat="59.8776864" lon="17.7901525">
        <ele>29.4575</ele>
        <time>2013-05-26T10:12:23Z</time>
      </trkpt>
      <trkpt lat="59.8776885" lon="17.7902632">
        <ele>29.9381</ele>
        <time>2013-05-26T10:12:24Z</time>
      </trkpt>
      <trkpt lat="59.877692" lon="17.7903731">
        <ele>29.9381</ele>
        <time>2013-05-26T10:12:25Z</time>
      </trkpt>
      <trkpt lat="59.8776945" lon="17.790482">
        <ele>30.4188</ele>
        <time>2013-05-26T10:12:26Z</time>
      </trkpt>
      <trkpt lat="59.877694" lon="17.7905905">
        <ele>30.4188</ele>
        <time>2013-05-26T10:12:27Z</time>
      </trkpt>
      <trkpt lat="59.8776931" lon="17.7906983">
        <ele>30.8995</ele>
        <time>2013-05-26T10:12:28Z</time>
      </trkpt>
      <trkpt lat="59.8776937" lon="17.7908057">
        <ele>30.8995</ele>
        <time>2013-05-26T10:12:29Z</time>
      </trkpt>
      <trkpt lat="59.8776962" lon="17.7909125">
        <ele>31.3801</ele>
        <time>2013-05-26T10:12:30Z</time>
      </trkpt>
      <trkpt lat="59.8776997" lon="17.7910196">
        <ele>31.3801</ele>
        <time>2013-05-26T10:12:31Z</time>
      </trkpt>
      <trkpt lat="59.8777039" lon="17.7911263">
        <ele>31.3801</ele>
        <time>2013-05-26T10:12:32Z</time>
      </trkpt>
      <trkpt lat="59.8777077" lon="17.7912351">
        <ele>31.8607</ele>
        <time>2013-05-26T10:12:33Z</time>
      </trkpt>
      <trkpt lat="59.8777121" lon="17.7913444">
        <ele>31.8607</ele>
        <time>2013-05-26T10:12:34Z</time>
      </trkpt>
      <trkpt lat="59.8777184" lon="17.7914516">
        <ele>31.8607</ele>
        <time>2013-05-26T10:12:35Z</time>
      </trkpt>
      <trkpt lat="59.8777242" lon="17.7915574">
        <ele>32.3416</ele>
        <time>2013-05-26T10:12:36Z</time>
      </trkpt>
      <trkpt lat="59.8777294" lon="17.7916609">
        <ele>32.3416</ele>
        <time>2013-05-26T10:12:37Z</time>
      </trkpt>
      <trkpt lat="59.8777334" lon="17.791766">
        <ele>32.3416</ele>
        <time>2013-05-26T10:12:38Z</time>
      </trkpt>
      <trkpt lat="59.877734" lon="17.7918717">
        <ele>32.3416</ele>
        <time>2013-05-26T10:12:39Z</time>
      </trkpt>
      <trkpt lat="59.8777326" lon="17.7919775">
        <ele>31.8607</ele>
        <time>2013-05-26T10:12:40Z</time>
      </trkpt>
      <trkpt lat="59.8777302" lon="17.7920834">
        <ele>31.8607</ele>
        <time>2013-05-26T10:12:41Z</time>
      </trkpt>
      <trkpt lat="59.8777258" lon="17.7921907">
        <ele>31.8607</ele>
        <time>2013-05-26T10:12:42Z</time>
      </trkpt>
      <trkpt lat="59.87772" lon="17.7922991">
        <ele>31.8607</ele>
        <time>2013-05-26T10:12:43Z</time>
      </trkpt>
      <trkpt lat="59.8777138" lon="17.7924089">
        <ele>31.8607</ele>
        <time>2013-05-26T10:12:44Z</time>
      </trkpt>
      <trkpt lat="59.8777077" lon="17.7925152">
        <ele>31.8607</ele>
        <time>2013-05-26T10:12:45Z</time>
      </trkpt>
      <trkpt lat="59.8777008" lon="17.7926221">
        <ele>31.8607</ele>
        <time>2013-05-26T10:12:46Z</time>
      </trkpt>
      <trkpt lat="59.8776926" lon="17.7927311">
        <ele>31.8607</ele>
        <time>2013-05-26T10:12:47Z</time>
      </trkpt>
      <trkpt lat="59.8776828" lon="17.7928412">
        <ele>31.8607</ele>
        <time>2013-05-26T10:12:48Z</time>
      </trkpt>
      <trkpt lat="59.8776713" lon="17.7929496">
        <ele>31.8607</ele>
        <time>2013-05-26T10:12:49Z</time>
      </trkpt>
      <trkpt lat="59.8776575" lon="17.7930589">
        <ele>31.8607</ele>
        <time>2013-05-26T10:12:50Z</time>
      </trkpt>
      <trkpt lat="59.8776439" lon="17.7931661">
        <ele>31.8607</ele>
        <time>2013-05-26T10:12:51Z</time>
      </trkpt>
      <trkpt lat="59.8776304" lon="17.7932718">
        <ele>31.8607</ele>
        <time>2013-05-26T10:12:52Z</time>
      </trkpt>
      <trkpt lat="59.8776167" lon="17.7933746">
        <ele>31.8607</ele>
        <time>2013-05-26T10:12:53Z</time>
      </trkpt>
      <trkpt lat="59.8776034" lon="17.7934729">
        <ele>31.3801</ele>
        <time>2013-05-26T10:12:54Z</time>
      </trkpt>
      <trkpt lat="59.8775896" lon="17.7935642">
        <ele>31.3801</ele>
        <time>2013-05-26T10:12:55Z</time>
      </trkpt>
      <trkpt lat="59.877571" lon="17.7936597">
        <ele>31.3801</ele>
        <time>2013-05-26T10:12:56Z</time>
      </trkpt>
      <trkpt lat="59.877548" lon="17.793762">
        <ele>31.3801</ele>
        <time>2013-05-26T10:12:57Z</time>
      </trkpt>
      <trkpt lat="59.8775246" lon="17.7938596">
        <ele>31.3801</ele>
        <time>2013-05-26T10:12:58Z</time>
      </trkpt>
      <trkpt lat="59.8774999" lon="17.7939587">
        <ele>31.3801</ele>
        <time>2013-05-26T10:12:59Z</time>
      </trkpt>
      <trkpt lat="59.8774717" lon="17.7940664">
        <ele>31.3801</ele>
        <time>2013-05-26T10:13:00Z</time>
      </trkpt>
      <trkpt lat="59.8774422" lon="17.7941732">
        <ele>31.3801</ele>
        <time>2013-05-26T10:13:01Z</time>
      </trkpt>
      <trkpt lat="59.877413" lon="17.7942794">
        <ele>31.3801</ele>
        <time>2013-05-26T10:13:02Z</time>
      </trkpt>
      <trkpt lat="59.8773838" lon="17.7943866">
        <ele>31.3801</ele>
        <time>2013-05-26T10:13:03Z</time>
      </trkpt>
      <trkpt lat="59.8773523" lon="17.7944918">
        <ele>31.3801</ele>
        <time>2013-05-26T10:13:04Z</time>
      </trkpt>
      <trkpt lat="59.8773204" lon="17.7945975">
        <ele>31.3801</ele>
        <time>2013-05-26T10:13:05Z</time>
      </trkpt>
      <trkpt lat="59.8772886" lon="17.7947053">
        <ele>31.3801</ele>
        <time>2013-05-26T10:13:06Z</time>
      </trkpt>
      <trkpt lat="59.8772554" lon="17.7948166">
        <ele>31.3801</ele>
        <time>2013-05-26T10:13:07Z</time>
      </trkpt>
      <trkpt lat="59.8772212" lon="17.7949315">
        <ele>31.3801</ele>
        <time>2013-05-26T10:13:08Z</time>
      </trkpt>
      <trkpt lat="59.877187" lon="17.7950492">
        <ele>31.3801</ele>
        <time>2013-05-26T10:13:09Z</time>
      </trkpt>
      <trkpt lat="59.8771537" lon="17.7951678">
        <ele>31.3801</ele>
        <time>2013-05-26T10:13:10Z</time>
      </trkpt>
      <trkpt lat="59.8771215" lon="17.7952886">
        <ele>31.3801</ele>
        <time>2013-05-26T10:13:11Z</time>
      </trkpt>
      <trkpt lat="59.8770881" lon="17.795406">
        <ele>31.8607</ele>
        <time>2013-05-26T10:13:12Z</time>
      </trkpt>
      <trkpt lat="59.8770537" lon="17.7955186">
        <ele>31.8607</ele>
        <time>2013-05-26T10:13:13Z</time>
      </trkpt>
      <trkpt lat="59.8770198" lon="17.7956304">
        <ele>31.8607</ele>
        <time>2013-05-26T10:13:14Z</time>
      </trkpt>
      <trkpt lat="59.8769863" lon="17.795741">
        <ele>31.8607</ele>
        <time>2013-05-26T10:13:15Z</time>
      </trkpt>
      <trkpt lat="59.8769555" lon="17.7958483">
        <ele>31.8607</ele>
        <time>2013-05-26T10:13:16Z</time>
      </trkpt>
      <trkpt lat="59.876926" lon="17.7959551">
        <ele>31.8607</ele>
        <time>2013-05-26T10:13:17Z</time>
      </trkpt>
      <trkpt lat="59.8768969" lon="17.7960608">
        <ele>31.8607</ele>
        <time>2013-05-26T10:13:18Z</time>
      </trkpt>
      <trkpt lat="59.876868" lon="17.7961648">
        <ele>31.8607</ele>
        <time>2013-05-26T10:13:19Z</time>
      </trkpt>
      <trkpt lat="59.8768395" lon="17.7962689">
        <ele>31.8607</ele>
        <time>2013-05-26T10:13:20Z</time>
      </trkpt>
      <trkpt lat="59.8768104" lon="17.7963728">
        <ele>31.8607</ele>
        <time>2013-05-26T10:13:21Z</time>
      </trkpt>
      <trkpt lat="59.8767836" lon="17.7964685">
        <ele>32.3416</ele>
        <time>2013-05-26T10:13:22Z</time>
      </trkpt>
      <trkpt lat="59.8767596" lon="17.7965617">
        <ele>32.3416</ele>
        <time>2013-05-26T10:13:23Z</time>
      </trkpt>
      <trkpt lat="59.8767341" lon="17.7966622">
        <ele>33.3029</ele>
        <time>2013-05-26T10:13:24Z</time>
      </trkpt>
      <trkpt lat="59.8767078" lon="17.7967637">
        <ele>33.3029</ele>
        <time>2013-05-26T10:13:25Z</time>
      </trkpt>
      <trkpt lat="59.8766812" lon="17.7968627">
        <ele>33.3029</ele>
        <time>2013-05-26T10:13:26Z</time>
      </trkpt>
      <trkpt lat="59.876651" lon="17.7969694">
        <ele>32.8223</ele>
        <time>2013-05-26T10:13:27Z</time>
      </trkpt>
      <trkpt lat="59.8766193" lon="17.797078">
        <ele>32.8223</ele>
        <time>2013-05-26T10:13:28Z</time>
      </trkpt>
      <trkpt lat="59.8765867" lon="17.7971849">
        <ele>32.3416</ele>
        <time>2013-05-26T10:13:29Z</time>
      </trkpt>
      <trkpt lat="59.8765545" lon="17.7972952">
        <ele>31.8607</ele>
        <time>2013-05-26T10:13:30Z</time>
      </trkpt>
      <trkpt lat="59.8765225" lon="17.797408">
        <ele>31.3801</ele>
        <time>2013-05-26T10:13:31Z</time>
      </trkpt>
      <trkpt lat="59.8764886" lon="17.7975268">
        <ele>31.3801</ele>
        <time>2013-05-26T10:13:32Z</time>
      </trkpt>
      <trkpt lat="59.8764535" lon="17.7976459">
        <ele>31.3801</ele>
        <time>2013-05-26T10:13:33Z</time>
      </trkpt>
      <trkpt lat="59.8764187" lon="17.7977629">
        <ele>30.4188</ele>
        <time>2013-05-26T10:13:34Z</time>
      </trkpt>
      <trkpt lat="59.8763836" lon="17.7978832">
        <ele>29.9381</ele>
        <time>2013-05-26T10:13:35Z</time>
      </trkpt>
      <trkpt lat="59.8763468" lon="17.7980054">
        <ele>29.4575</ele>
        <time>2013-05-26T10:13:36Z</time>
      </trkpt>
      <trkpt lat="59.8763088" lon="17.7981277">
        <ele>29.4575</ele>
        <time>2013-05-26T10:13:37Z</time>
      </trkpt>
      <trkpt lat="59.8762712" lon="17.798253">
        <ele>28.9769</ele>
        <time>2013-05-26T10:13:38Z</time>
      </trkpt>
      <trkpt lat="59.8762344" lon="17.7983786">
        <ele>28.9769</ele>
        <time>2013-05-26T10:13:39Z</time>
      </trkpt>
      <trkpt lat="59.8761971" lon="17.7985042">
        <ele>28.9769</ele>
        <time>2013-05-26T10:13:40Z</time>
      </trkpt>
      <trkpt lat="59.8761596" lon="17.798623">
        <ele>29.4575</ele>
        <time>2013-05-26T10:13:41Z</time>
      </trkpt>
      <trkpt lat="59.876122" lon="17.7987394">
        <ele>29.4575</ele>
        <time>2013-05-26T10:13:42Z</time>
      </trkpt>
      <trkpt lat="59.8760842" lon="17.7988504">
        <ele>29.4575</ele>
        <time>2013-05-26T10:13:43Z</time>
      </trkpt>
      <trkpt lat="59.8760449" lon="17.7989598">
        <ele>29.4575</ele>
        <time>2013-05-26T10:13:44Z</time>
      </trkpt>
      <trkpt lat="59.876004" lon="17.7990639">
        <ele>29.9381</ele>
        <time>2013-05-26T10:13:45Z</time>
      </trkpt>
      <trkpt lat="59.8759609" lon="17.7991648">
        <ele>29.9381</ele>
        <time>2013-05-26T10:13:46Z</time>
      </trkpt>
      <trkpt lat="59.8759175" lon="17.7992635">
        <ele>29.4575</ele>
        <time>2013-05-26T10:13:47Z</time>
      </trkpt>
      <trkpt lat="59.8758736" lon="17.799372">
        <ele>29.9381</ele>
        <time>2013-05-26T10:13:48Z</time>
      </trkpt>
      <trkpt lat="59.8758294" lon="17.799476">
        <ele>29.4575</ele>
        <time>2013-05-26T10:13:49Z</time>
      </trkpt>
      <trkpt lat="59.8757868" lon="17.7995821">
        <ele>29.4575</ele>
        <time>2013-05-26T10:13:50Z</time>
      </trkpt>
      <trkpt lat="59.875745" lon="17.7996929">
        <ele>28.9769</ele>
        <time>2013-05-26T10:13:51Z</time>
      </trkpt>
      <trkpt lat="59.8757045" lon="17.7998072">
        <ele>28.9769</ele>
        <time>2013-05-26T10:13:52Z</time>
      </trkpt>
      <trkpt lat="59.8756665" lon="17.7999273">
        <ele>28.9769</ele>
        <time>2013-05-26T10:13:53Z</time>
      </trkpt>
      <trkpt lat="59.8756319" lon="17.800052">
        <ele>28.4962</ele>
        <time>2013-05-26T10:13:54Z</time>
      </trkpt>
      <trkpt lat="59.8755976" lon="17.8001766">
        <ele>28.4962</ele>
        <time>2013-05-26T10:13:55Z</time>
      </trkpt>
      <trkpt lat="59.875563" lon="17.8003002">
        <ele>28.4962</ele>
        <time>2013-05-26T10:13:56Z</time>
      </trkpt>
      <trkpt lat="59.8755319" lon="17.8004261">
        <ele>28.0155</ele>
        <time>2013-05-26T10:13:57Z</time>
      </trkpt>
      <trkpt lat="59.8754998" lon="17.8005524">
        <ele>28.0155</ele>
        <time>2013-05-26T10:13:58Z</time>
      </trkpt>
      <trkpt lat="59.8754651" lon="17.8006752">
        <ele>28.0155</ele>
        <time>2013-05-26T10:13:59Z</time>
      </trkpt>
      <trkpt lat="59.8754321" lon="17.800797">
        <ele>27.5349</ele>
        <time>2013-05-26T10:14:00Z</time>
      </trkpt>
      <trkpt lat="59.8754025" lon="17.8009215">
        <ele>27.5349</ele>
        <time>2013-05-26T10:14:01Z</time>
      </trkpt>
      <trkpt lat="59.875374" lon="17.8010484">
        <ele>27.0543</ele>
        <time>2013-05-26T10:14:02Z</time>
      </trkpt>
      <trkpt lat="59.8753453" lon="17.8011758">
        <ele>27.0543</ele>
        <time>2013-05-26T10:14:03Z</time>
      </trkpt>
      <trkpt lat="59.8753153" lon="17.8013027">
        <ele>26.5736</ele>
        <time>2013-05-26T10:14:04Z</time>
      </trkpt>
      <trkpt lat="59.875285" lon="17.8014315">
        <ele>26.5736</ele>
        <time>2013-05-26T10:14:05Z</time>
      </trkpt>
      <trkpt lat="59.8752556" lon="17.8015637">
        <ele>26.5736</ele>
        <time>2013-05-26T10:14:06Z</time>
      </trkpt>
      <trkpt lat="59.8752262" lon="17.8016974">
        <ele>26.0929</ele>
        <time>2013-05-26T10:14:07Z</time>
      </trkpt>
      <trkpt lat="59.8751958" lon="17.801832">
        <ele>26.0929</ele>
        <time>2013-05-26T10:14:08Z</time>
      </trkpt>
      <trkpt lat="59.875164" lon="17.8019641">
        <ele>26.0929</ele>
        <time>2013-05-26T10:14:09Z</time>
      </trkpt>
      <trkpt lat="59.87513" lon="17.8020922">
        <ele>26.0929</ele>
        <time>2013-05-26T10:14:10Z</time>
      </trkpt>
      <trkpt lat="59.8750922" lon="17.8022164">
        <ele>26.0929</ele>
        <time>2013-05-26T10:14:11Z</time>
      </trkpt>
      <trkpt lat="59.8750497" lon="17.8023376">
        <ele>25.6123</ele>
        <time>2013-05-26T10:14:12Z</time>
      </trkpt>
      <trkpt lat="59.8750032" lon="17.8024576">
        <ele>25.6123</ele>
        <time>2013-05-26T10:14:13Z</time>
      </trkpt>
      <trkpt lat="59.8749523" lon="17.8025758">
        <ele>25.6123</ele>
        <time>2013-05-26T10:14:14Z</time>
      </trkpt>
      <trkpt lat="59.8748998" lon="17.8026933">
        <ele>25.6123</ele>
        <time>2013-05-26T10:14:15Z</time>
      </trkpt>
      <trkpt lat="59.8748485" lon="17.8028111">
        <ele>25.6123</ele>
        <time>2013-05-26T10:14:16Z</time>
      </trkpt>
      <trkpt lat="59.8747974" lon="17.8029274">
        <ele>25.6123</ele>
        <time>2013-05-26T10:14:17Z</time>
      </trkpt>
      <trkpt lat="59.8747487" lon="17.8030434">
        <ele>26.0929</ele>
        <time>2013-05-26T10:14:18Z</time>
      </trkpt>
      <trkpt lat="59.8747046" lon="17.8031615">
        <ele>26.0929</ele>
        <time>2013-05-26T10:14:19Z</time>
      </trkpt>
      <trkpt lat="59.8746644" lon="17.8032797">
        <ele>26.0929</ele>
        <time>2013-05-26T10:14:20Z</time>
      </trkpt>
      <trkpt lat="59.8746278" lon="17.8033983">
        <ele>26.5736</ele>
        <time>2013-05-26T10:14:21Z</time>
      </trkpt>
      <trkpt lat="59.8745928" lon="17.8035164">
        <ele>26.5736</ele>
        <time>2013-05-26T10:14:22Z</time>
      </trkpt>
      <trkpt lat="59.8745571" lon="17.803632">
        <ele>26.5736</ele>
        <time>2013-05-26T10:14:23Z</time>
      </trkpt>
      <trkpt lat="59.8745207" lon="17.803745">
        <ele>26.5736</ele>
        <time>2013-05-26T10:14:24Z</time>
      </trkpt>
      <trkpt lat="59.874484" lon="17.8038581">
        <ele>27.0543</ele>
        <time>2013-05-26T10:14:25Z</time>
      </trkpt>
      <trkpt lat="59.8744467" lon="17.8039715">
        <ele>27.0543</ele>
        <time>2013-05-26T10:14:26Z</time>
      </trkpt>
      <trkpt lat="59.8744099" lon="17.8040862">
        <ele>27.0543</ele>
        <time>2013-05-26T10:14:27Z</time>
      </trkpt>
      <trkpt lat="59.8743717" lon="17.8041999">
        <ele>27.0543</ele>
        <time>2013-05-26T10:14:28Z</time>
      </trkpt>
      <trkpt lat="59.8743326" lon="17.8043131">
        <ele>27.0543</ele>
        <time>2013-05-26T10:14:29Z</time>
      </trkpt>
      <trkpt lat="59.8742914" lon="17.8044267">
        <ele>27.0543</ele>
        <time>2013-05-26T10:14:30Z</time>
      </trkpt>
      <trkpt lat="59.8742474" lon="17.8045396">
        <ele>27.0543</ele>
        <time>2013-05-26T10:14:31Z</time>
      </trkpt>
      <trkpt lat="59.8742017" lon="17.8046479">
        <ele>26.5736</ele>
        <time>2013-05-26T10:14:32Z</time>
      </trkpt>
      <trkpt lat="59.8741567" lon="17.8047545">
        <ele>26.5736</ele>
        <time>2013-05-26T10:14:33Z</time>
      </trkpt>
      <trkpt lat="59.8741114" lon="17.8048585">
        <ele>26.0929</ele>
        <time>2013-05-26T10:14:34Z</time>
      </trkpt>
      <trkpt lat="59.8740644" lon="17.8049572">
        <ele>25.6123</ele>
        <time>2013-05-26T10:14:35Z</time>
      </trkpt>
      <trkpt lat="59.8740168" lon="17.8050546">
        <ele>25.6123</ele>
        <time>2013-05-26T10:14:36Z</time>
      </trkpt>
      <trkpt lat="59.873968" lon="17.8051536">
        <ele>25.6123</ele>
        <time>2013-05-26T10:14:37Z</time>
      </trkpt>
      <trkpt lat="59.8739192" lon="17.8052545">
        <ele>25.6123</ele>
        <time>2013-05-26T10:14:38Z</time>
      </trkpt>
      <trkpt lat="59.8738722" lon="17.805359">
        <ele>25.6123</ele>
        <time>2013-05-26T10:14:39Z</time>
      </trkpt>
      <trkpt lat="59.8738275" lon="17.8054693">
        <ele>25.6123</ele>
        <time>2013-05-26T10:14:40Z</time>
      </trkpt>
      <trkpt lat="59.8737866" lon="17.8055846">
        <ele>25.6123</ele>
        <time>2013-05-26T10:14:41Z</time>
      </trkpt>
      <trkpt lat="59.8737489" lon="17.8057022">
        <ele>25.6123</ele>
        <time>2013-05-26T10:14:42Z</time>
      </trkpt>
      <trkpt lat="59.8737136" lon="17.8058211">
        <ele>26.0929</ele>
        <time>2013-05-26T10:14:43Z</time>
      </trkpt>
      <trkpt lat="59.8736783" lon="17.8059386">
        <ele>26.0929</ele>
        <time>2013-05-26T10:14:44Z</time>
      </trkpt>
      <trkpt lat="59.8736422" lon="17.8060528">
        <ele>26.5736</ele>
        <time>2013-05-26T10:14:45Z</time>
      </trkpt>
      <trkpt lat="59.8736058" lon="17.806162">
        <ele>26.0929</ele>
        <time>2013-05-26T10:14:46Z</time>
      </trkpt>
      <trkpt lat="59.8735712" lon="17.8062699">
        <ele>26.0929</ele>
        <time>2013-05-26T10:14:47Z</time>
      </trkpt>
      <trkpt lat="59.873538" lon="17.8063786">
        <ele>26.0929</ele>
        <time>2013-05-26T10:14:48Z</time>
      </trkpt>
      <trkpt lat="59.8735056" lon="17.8064909">
        <ele>26.0929</ele>
        <time>2013-05-26T10:14:49Z</time>
      </trkpt>
      <trkpt lat="59.8734735" lon="17.8066044">
        <ele>26.5736</ele>
        <time>2013-05-26T10:14:50Z</time>
      </trkpt>
      <trkpt lat="59.8734426" lon="17.8067198">
        <ele>26.5736</ele>
        <time>2013-05-26T10:14:51Z</time>
      </trkpt>
      <trkpt lat="59.8734131" lon="17.806837">
        <ele>26.5736</ele>
        <time>2013-05-26T10:14:52Z</time>
      </trkpt>
      <trkpt lat="59.8733854" lon="17.806955">
        <ele>26.5736</ele>
        <time>2013-05-26T10:14:53Z</time>
      </trkpt>
      <trkpt lat="59.8733602" lon="17.8070722">
        <ele>26.5736</ele>
        <time>2013-05-26T10:14:54Z</time>
      </trkpt>
      <trkpt lat="59.8733385" lon="17.8071934">
        <ele>27.0543</ele>
        <time>2013-05-26T10:14:55Z</time>
      </trkpt>
      <trkpt lat="59.8733188" lon="17.8073136">
        <ele>27.0543</ele>
        <time>2013-05-26T10:14:56Z</time>
      </trkpt>
      <trkpt lat="59.8733014" lon="17.8074343">
        <ele>27.5349</ele>
        <time>2013-05-26T10:14:57Z</time>
      </trkpt>
      <trkpt lat="59.8732879" lon="17.8075467">
        <ele>28.0155</ele>
        <time>2013-05-26T10:14:58Z</time>
      </trkpt>
      <trkpt lat="59.8732746" lon="17.8076612">
        <ele>28.4962</ele>
        <time>2013-05-26T10:14:59Z</time>
      </trkpt>
      <trkpt lat="59.8732618" lon="17.8077756">
        <ele>28.4962</ele>
        <time>2013-05-26T10:15:00Z</time>
      </trkpt>
      <trkpt lat="59.8732505" lon="17.8078863">
        <ele>28.4962</ele>
        <time>2013-05-26T10:15:01Z</time>
      </trkpt>
      <trkpt lat="59.8732392" lon="17.8079932">
        <ele>28.4962</ele>
        <time>2013-05-26T10:15:02Z</time>
      </trkpt>
      <trkpt lat="59.8732294" lon="17.8080927">
        <ele>28.4962</ele>
        <time>2013-05-26T10:15:03Z</time>
      </trkpt>
      <trkpt lat="59.8732206" lon="17.8081916">
        <ele>28.4962</ele>
        <time>2013-05-26T10:15:04Z</time>
      </trkpt>
      <trkpt lat="59.8732153" lon="17.8082893">
        <ele>28.4962</ele>
        <time>2013-05-26T10:15:05Z</time>
      </trkpt>
      <trkpt lat="59.8732087" lon="17.80839">
        <ele>28.4962</ele>
        <time>2013-05-26T10:15:06Z</time>
      </trkpt>
      <trkpt lat="59.8732031" lon="17.808491">
        <ele>28.4962</ele>
        <time>2013-05-26T10:15:07Z</time>
      </trkpt>
      <trkpt lat="59.8731957" lon="17.8085874">
        <ele>27.5349</ele>
        <time>2013-05-26T10:15:08Z</time>
      </trkpt>
      <trkpt lat="59.873189" lon="17.8086892">
        <ele>27.5349</ele>
        <time>2013-05-26T10:15:09Z</time>
      </trkpt>
      <trkpt lat="59.8731841" lon="17.808798">
        <ele>27.5349</ele>
        <time>2013-05-26T10:15:10Z</time>
      </trkpt>
      <trkpt lat="59.8731817" lon="17.8089106">
        <ele>28.0155</ele>
        <time>2013-05-26T10:15:11Z</time>
      </trkpt>
      <trkpt lat="59.8731781" lon="17.8090261">
        <ele>28.0155</ele>
        <time>2013-05-26T10:15:12Z</time>
      </trkpt>
      <trkpt lat="59.8731687" lon="17.8091452">
        <ele>28.0155</ele>
        <time>2013-05-26T10:15:13Z</time>
      </trkpt>
      <trkpt lat="59.8731556" lon="17.8092654">
        <ele>28.0155</ele>
        <time>2013-05-26T10:15:14Z</time>
      </trkpt>
      <trkpt lat="59.8731402" lon="17.8093837">
        <ele>28.0155</ele>
        <time>2013-05-26T10:15:15Z</time>
      </trkpt>
      <trkpt lat="59.8731241" lon="17.8095002">
        <ele>28.0155</ele>
        <time>2013-05-26T10:15:16Z</time>
      </trkpt>
      <trkpt lat="59.8731064" lon="17.8096156">
        <ele>28.4962</ele>
        <time>2013-05-26T10:15:17Z</time>
      </trkpt>
      <trkpt lat="59.8730849" lon="17.809731">
        <ele>28.4962</ele>
        <time>2013-05-26T10:15:18Z</time>
      </trkpt>
      <trkpt lat="59.8730614" lon="17.8098466">
        <ele>28.4962</ele>
        <time>2013-05-26T10:15:19Z</time>
      </trkpt>
      <trkpt lat="59.8730366" lon="17.8099612">
        <ele>28.4962</ele>
        <time>2013-05-26T10:15:20Z</time>
      </trkpt>
      <trkpt lat="59.8730111" lon="17.8100763">
        <ele>28.4962</ele>
        <time>2013-05-26T10:15:21Z</time>
      </trkpt>
      <trkpt lat="59.8729855" lon="17.8101895">
        <ele>28.4962</ele>
        <time>2013-05-26T10:15:22Z</time>
      </trkpt>
      <trkpt lat="59.8729574" lon="17.8102995">
        <ele>28.4962</ele>
        <time>2013-05-26T10:15:23Z</time>
      </trkpt>
      <trkpt lat="59.8729272" lon="17.8104082">
        <ele>28.4962</ele>
        <time>2013-05-26T10:15:24Z</time>
      </trkpt>
      <trkpt lat="59.8728949" lon="17.8105183">
        <ele>28.0155</ele>
        <time>2013-05-26T10:15:25Z</time>
      </trkpt>
      <trkpt lat="59.8728614" lon="17.8106341">
        <ele>28.0155</ele>
        <time>2013-05-26T10:15:26Z</time>
      </trkpt>
      <trkpt lat="59.8728243" lon="17.8107543">
        <ele>26.5736</ele>
        <time>2013-05-26T10:15:27Z</time>
      </trkpt>
      <trkpt lat="59.872785" lon="17.8108764">
        <ele>26.0929</ele>
        <time>2013-05-26T10:15:28Z</time>
      </trkpt>
      <trkpt lat="59.8727409" lon="17.8110216">
        <ele>26.0929</ele>
        <time>2013-05-26T10:15:29Z</time>
      </trkpt>
      <trkpt lat="59.8727" lon="17.8111489">
        <ele>25.6123</ele>
        <time>2013-05-26T10:15:30Z</time>
      </trkpt>
      <trkpt lat="59.8726626" lon="17.8112701">
        <ele>25.1317</ele>
        <time>2013-05-26T10:15:31Z</time>
      </trkpt>
      <trkpt lat="59.8726288" lon="17.8113927">
        <ele>24.651</ele>
        <time>2013-05-26T10:15:32Z</time>
      </trkpt>
      <trkpt lat="59.8725886" lon="17.8115219">
        <ele>24.651</ele>
        <time>2013-05-26T10:15:33Z</time>
      </trkpt>
      <trkpt lat="59.8725506" lon="17.8116503">
        <ele>24.651</ele>
        <time>2013-05-26T10:15:34Z</time>
      </trkpt>
      <trkpt lat="59.8725176" lon="17.8117802">
        <ele>25.1317</ele>
        <time>2013-05-26T10:15:35Z</time>
      </trkpt>
      <trkpt lat="59.8724881" lon="17.8119107">
        <ele>25.1317</ele>
        <time>2013-05-26T10:15:36Z</time>
      </trkpt>
      <trkpt lat="59.8724607" lon="17.8120404">
        <ele>25.6123</ele>
        <time>2013-05-26T10:15:37Z</time>
      </trkpt>
      <trkpt lat="59.8724348" lon="17.8121701">
        <ele>26.0929</ele>
        <time>2013-05-26T10:15:38Z</time>
      </trkpt>
      <trkpt lat="59.8724113" lon="17.8122982">
        <ele>26.0929</ele>
        <time>2013-05-26T10:15:39Z</time>
      </trkpt>
      <trkpt lat="59.8723892" lon="17.8124258">
        <ele>26.5736</ele>
        <time>2013-05-26T10:15:40Z</time>
      </trkpt>
      <trkpt lat="59.8723686" lon="17.8125517">
        <ele>26.5736</ele>
        <time>2013-05-26T10:15:41Z</time>
      </trkpt>
      <trkpt lat="59.8723491" lon="17.8126743">
        <ele>27.0543</ele>
        <time>2013-05-26T10:15:42Z</time>
      </trkpt>
      <trkpt lat="59.8723299" lon="17.8127916">
        <ele>27.0543</ele>
        <time>2013-05-26T10:15:43Z</time>
      </trkpt>
      <trkpt lat="59.8723115" lon="17.8129087">
        <ele>27.5349</ele>
        <time>2013-05-26T10:15:44Z</time>
      </trkpt>
      <trkpt lat="59.8722923" lon="17.813023">
        <ele>28.0155</ele>
        <time>2013-05-26T10:15:45Z</time>
      </trkpt>
      <trkpt lat="59.8722726" lon="17.8131355">
        <ele>28.0155</ele>
        <time>2013-05-26T10:15:46Z</time>
      </trkpt>
      <trkpt lat="59.8722539" lon="17.8132482">
        <ele>28.0155</ele>
        <time>2013-05-26T10:15:47Z</time>
      </trkpt>
      <trkpt lat="59.8722369" lon="17.8133589">
        <ele>28.4962</ele>
        <time>2013-05-26T10:15:48Z</time>
      </trkpt>
      <trkpt lat="59.8722197" lon="17.8134722">
        <ele>28.4962</ele>
        <time>2013-05-26T10:15:49Z</time>
      </trkpt>
      <trkpt lat="59.8722032" lon="17.8135824">
        <ele>28.4962</ele>
        <time>2013-05-26T10:15:50Z</time>
      </trkpt>
      <trkpt lat="59.8721856" lon="17.8136928">
        <ele>28.4962</ele>
        <time>2013-05-26T10:15:51Z</time>
      </trkpt>
      <trkpt lat="59.8721671" lon="17.8138041">
        <ele>28.4962</ele>
        <time>2013-05-26T10:15:52Z</time>
      </trkpt>
      <trkpt lat="59.8721497" lon="17.8139147">
        <ele>28.9769</ele>
        <time>2013-05-26T10:15:53Z</time>
      </trkpt>
      <trkpt lat="59.8721328" lon="17.8140258">
        <ele>28.4962</ele>
        <time>2013-05-26T10:15:54Z</time>
      </trkpt>
      <trkpt lat="59.8721155" lon="17.8141373">
        <ele>28.9769</ele>
        <time>2013-05-26T10:15:55Z</time>
      </trkpt>
      <trkpt lat="59.872097" lon="17.8142482">
        <ele>28.9769</ele>
        <time>2013-05-26T10:15:56Z</time>
      </trkpt>
      <trkpt lat="59.8720788" lon="17.8143585">
        <ele>28.9769</ele>
        <time>2013-05-26T10:15:57Z</time>
      </trkpt>
      <trkpt lat="59.8720608" lon="17.8144724">
        <ele>29.4575</ele>
        <time>2013-05-26T10:15:58Z</time>
      </trkpt>
      <trkpt lat="59.8720443" lon="17.8145858">
        <ele>29.4575</ele>
        <time>2013-05-26T10:15:59Z</time>
      </trkpt>
      <trkpt lat="59.8720302" lon="17.8147002">
        <ele>29.4575</ele>
        <time>2013-05-26T10:16:00Z</time>
      </trkpt>
      <trkpt lat="59.87202" lon="17.8148131">
        <ele>29.4575</ele>
        <time>2013-05-26T10:16:01Z</time>
      </trkpt>
      <trkpt lat="59.8720126" lon="17.8149305">
        <ele>28.9769</ele>
        <time>2013-05-26T10:16:02Z</time>
      </trkpt>
      <trkpt lat="59.8720127" lon="17.8150448">
        <ele>28.9769</ele>
        <time>2013-05-26T10:16:03Z</time>
      </trkpt>
      <trkpt lat="59.8720153" lon="17.8151604">
        <ele>28.9769</ele>
        <time>2013-05-26T10:16:04Z</time>
      </trkpt>
      <trkpt lat="59.8720188" lon="17.8152759">
        <ele>28.9769</ele>
        <time>2013-05-26T10:16:05Z</time>
      </trkpt>
      <trkpt lat="59.8720257" lon="17.8153892">
        <ele>28.9769</ele>
        <time>2013-05-26T10:16:06Z</time>
      </trkpt>
      <trkpt lat="59.8720323" lon="17.8155002">
        <ele>28.9769</ele>
        <time>2013-05-26T10:16:07Z</time>
      </trkpt>
      <trkpt lat="59.8720349" lon="17.8156169">
        <ele>28.9769</ele>
        <time>2013-05-26T10:16:08Z</time>
      </trkpt>
      <trkpt lat="59.8720424" lon="17.8157313">
        <ele>28.9769</ele>
        <time>2013-05-26T10:16:09Z</time>
      </trkpt>
      <trkpt lat="59.8720505" lon="17.8158411">
        <ele>28.9769</ele>
        <time>2013-05-26T10:16:10Z</time>
      </trkpt>
      <trkpt lat="59.8720569" lon="17.8159499">
        <ele>29.4575</ele>
        <time>2013-05-26T10:16:11Z</time>
      </trkpt>
      <trkpt lat="59.8720678" lon="17.8160536">
        <ele>29.9381</ele>
        <time>2013-05-26T10:16:12Z</time>
      </trkpt>
      <trkpt lat="59.8720748" lon="17.8161587">
        <ele>29.4575</ele>
        <time>2013-05-26T10:16:13Z</time>
      </trkpt>
      <trkpt lat="59.8720805" lon="17.8162627">
        <ele>29.4575</ele>
        <time>2013-05-26T10:16:14Z</time>
      </trkpt>
      <trkpt lat="59.8720845" lon="17.8163653">
        <ele>29.9381</ele>
        <time>2013-05-26T10:16:15Z</time>
      </trkpt>
      <trkpt lat="59.8720886" lon="17.8164637">
        <ele>29.9381</ele>
        <time>2013-05-26T10:16:16Z</time>
      </trkpt>
      <trkpt lat="59.8720924" lon="17.8165627">
        <ele>29.9381</ele>
        <time>2013-05-26T10:16:17Z</time>
      </trkpt>
      <trkpt lat="59.8720959" lon="17.8166646">
        <ele>30.4188</ele>
        <time>2013-05-26T10:16:18Z</time>
      </trkpt>
      <trkpt lat="59.8720986" lon="17.8167627">
        <ele>29.9381</ele>
        <time>2013-05-26T10:16:19Z</time>
      </trkpt>
      <trkpt lat="59.8721088" lon="17.8168641">
        <ele>30.4188</ele>
        <time>2013-05-26T10:16:20Z</time>
      </trkpt>
      <trkpt lat="59.8721153" lon="17.8169691">
        <ele>29.9381</ele>
        <time>2013-05-26T10:16:21Z</time>
      </trkpt>
      <trkpt lat="59.8721245" lon="17.817072">
        <ele>29.9381</ele>
        <time>2013-05-26T10:16:22Z</time>
      </trkpt>
      <trkpt lat="59.8721338" lon="17.8171774">
        <ele>29.9381</ele>
        <time>2013-05-26T10:16:23Z</time>
      </trkpt>
      <trkpt lat="59.872139" lon="17.8172884">
        <ele>28.9769</ele>
        <time>2013-05-26T10:16:24Z</time>
      </trkpt>
      <trkpt lat="59.8721442" lon="17.8174008">
        <ele>28.0155</ele>
        <time>2013-05-26T10:16:25Z</time>
      </trkpt>
      <trkpt lat="59.8721515" lon="17.8175154">
        <ele>27.5349</ele>
        <time>2013-05-26T10:16:26Z</time>
      </trkpt>
      <trkpt lat="59.8721613" lon="17.8176302">
        <ele>27.0543</ele>
        <time>2013-05-26T10:16:27Z</time>
      </trkpt>
      <trkpt lat="59.8721719" lon="17.8177477">
        <ele>26.5736</ele>
        <time>2013-05-26T10:16:28Z</time>
      </trkpt>
      <trkpt lat="59.8721846" lon="17.8178691">
        <ele>26.5736</ele>
        <time>2013-05-26T10:16:29Z</time>
      </trkpt>
      <trkpt lat="59.8721995" lon="17.8179901">
        <ele>26.5736</ele>
        <time>2013-05-26T10:16:30Z</time>
      </trkpt>
      <trkpt lat="59.8722136" lon="17.8181108">
        <ele>26.0929</ele>
        <time>2013-05-26T10:16:31Z</time>
      </trkpt>
      <trkpt lat="59.8722258" lon="17.8182302">
        <ele>26.0929</ele>
        <time>2013-05-26T10:16:32Z</time>
      </trkpt>
      <trkpt lat="59.8722388" lon="17.8183492">
        <ele>26.0929</ele>
        <time>2013-05-26T10:16:33Z</time>
      </trkpt>
      <trkpt lat="59.8722504" lon="17.8184732">
        <ele>25.6123</ele>
        <time>2013-05-26T10:16:34Z</time>
      </trkpt>
      <trkpt lat="59.8722649" lon="17.8185931">
        <ele>25.6123</ele>
        <time>2013-05-26T10:16:35Z</time>
      </trkpt>
      <trkpt lat="59.8722794" lon="17.8187119">
        <ele>26.0929</ele>
        <time>2013-05-26T10:16:36Z</time>
      </trkpt>
      <trkpt lat="59.8722923" lon="17.8188298">
        <ele>26.0929</ele>
        <time>2013-05-26T10:16:37Z</time>
      </trkpt>
      <trkpt lat="59.8723049" lon="17.8189458">
        <ele>26.0929</ele>
        <time>2013-05-26T10:16:38Z</time>
      </trkpt>
      <trkpt lat="59.8723175" lon="17.8190593">
        <ele>26.0929</ele>
        <time>2013-05-26T10:16:39Z</time>
      </trkpt>
      <trkpt lat="59.8723307" lon="17.8191718">
        <ele>26.0929</ele>
        <time>2013-05-26T10:16:40Z</time>
      </trkpt>
      <trkpt lat="59.8723436" lon="17.8192852">
        <ele>26.5736</ele>
        <time>2013-05-26T10:16:41Z</time>
      </trkpt>
      <trkpt lat="59.8723559" lon="17.8193996">
        <ele>26.5736</ele>
        <time>2013-05-26T10:16:42Z</time>
      </trkpt>
      <trkpt lat="59.872369" lon="17.8195137">
        <ele>26.5736</ele>
        <time>2013-05-26T10:16:43Z</time>
      </trkpt>
      <trkpt lat="59.8723818" lon="17.8196284">
        <ele>26.5736</ele>
        <time>2013-05-26T10:16:44Z</time>
      </trkpt>
      <trkpt lat="59.8723948" lon="17.8197448">
        <ele>26.5736</ele>
        <time>2013-05-26T10:16:45Z</time>
      </trkpt>
      <trkpt lat="59.8724097" lon="17.8198624">
        <ele>27.0543</ele>
        <time>2013-05-26T10:16:46Z</time>
      </trkpt>
      <trkpt lat="59.8724242" lon="17.8199791">
        <ele>27.5349</ele>
        <time>2013-05-26T10:16:47Z</time>
      </trkpt>
      <trkpt lat="59.8724374" lon="17.820098">
        <ele>27.5349</ele>
        <time>2013-05-26T10:16:48Z</time>
      </trkpt>
      <trkpt lat="59.8724497" lon="17.8202153">
        <ele>28.0155</ele>
        <time>2013-05-26T10:16:49Z</time>
      </trkpt>
      <trkpt lat="59.8724611" lon="17.8203315">
        <ele>28.0155</ele>
        <time>2013-05-26T10:16:50Z</time>
      </trkpt>
      <trkpt lat="59.8724732" lon="17.8204457">
        <ele>28.0155</ele>
        <time>2013-05-26T10:16:51Z</time>
      </trkpt>
      <trkpt lat="59.8724856" lon="17.8205607">
        <ele>28.0155</ele>
        <time>2013-05-26T10:16:52Z</time>
      </trkpt>
      <trkpt lat="59.872497" lon="17.8206752">
        <ele>28.0155</ele>
        <time>2013-05-26T10:16:53Z</time>
      </trkpt>
      <trkpt lat="59.8725086" lon="17.8207885">
        <ele>28.4962</ele>
        <time>2013-05-26T10:16:54Z</time>
      </trkpt>
      <trkpt lat="59.8725213" lon="17.8209006">
        <ele>28.4962</ele>
        <time>2013-05-26T10:16:55Z</time>
      </trkpt>
      <trkpt lat="59.8725347" lon="17.8210113">
        <ele>28.9769</ele>
        <time>2013-05-26T10:16:56Z</time>
      </trkpt>
      <trkpt lat="59.8725471" lon="17.8211211">
        <ele>28.9769</ele>
        <time>2013-05-26T10:16:57Z</time>
      </trkpt>
      <trkpt lat="59.8725592" lon="17.8212305">
        <ele>28.9769</ele>
        <time>2013-05-26T10:16:58Z</time>
      </trkpt>
      <trkpt lat="59.8725715" lon="17.8213377">
        <ele>29.4575</ele>
        <time>2013-05-26T10:16:59Z</time>
      </trkpt>
      <trkpt lat="59.8725835" lon="17.8214432">
        <ele>29.4575</ele>
        <time>2013-05-26T10:17:00Z</time>
      </trkpt>
      <trkpt lat="59.8725944" lon="17.8215478">
        <ele>29.4575</ele>
        <time>2013-05-26T10:17:01Z</time>
      </trkpt>
      <trkpt lat="59.8726065" lon="17.8216516">
        <ele>29.4575</ele>
        <time>2013-05-26T10:17:02Z</time>
      </trkpt>
      <trkpt lat="59.8726195" lon="17.8217552">
        <ele>29.9381</ele>
        <time>2013-05-26T10:17:03Z</time>
      </trkpt>
      <trkpt lat="59.8726317" lon="17.8218583">
        <ele>29.9381</ele>
        <time>2013-05-26T10:17:04Z</time>
      </trkpt>
      <trkpt lat="59.8726433" lon="17.8219599">
        <ele>30.4188</ele>
        <time>2013-05-26T10:17:05Z</time>
      </trkpt>
      <trkpt lat="59.8726532" lon="17.8220613">
        <ele>30.4188</ele>
        <time>2013-05-26T10:17:06Z</time>
      </trkpt>
      <trkpt lat="59.872663" lon="17.8221613">
        <ele>30.8995</ele>
        <time>2013-05-26T10:17:07Z</time>
      </trkpt>
      <trkpt lat="59.8726739" lon="17.8222611">
        <ele>30.8995</ele>
        <time>2013-05-26T10:17:08Z</time>
      </trkpt>
      <trkpt lat="59.872685" lon="17.8223608">
        <ele>31.3801</ele>
        <time>2013-05-26T10:17:09Z</time>
      </trkpt>
      <trkpt lat="59.8726959" lon="17.8224591">
        <ele>31.3801</ele>
        <time>2013-05-26T10:17:10Z</time>
      </trkpt>
      <trkpt lat="59.8727062" lon="17.8225549">
        <ele>31.8607</ele>
        <time>2013-05-26T10:17:11Z</time>
      </trkpt>
      <trkpt lat="59.8727174" lon="17.8226493">
        <ele>31.8607</ele>
        <time>2013-05-26T10:17:12Z</time>
      </trkpt>
      <trkpt lat="59.87273" lon="17.822742">
        <ele>32.3416</ele>
        <time>2013-05-26T10:17:13Z</time>
      </trkpt>
      <trkpt lat="59.872746" lon="17.8228311">
        <ele>32.8223</ele>
        <time>2013-05-26T10:17:14Z</time>
      </trkpt>
      <trkpt lat="59.8727622" lon="17.8229164">
        <ele>32.8223</ele>
        <time>2013-05-26T10:17:15Z</time>
      </trkpt>
      <trkpt lat="59.8727801" lon="17.8229989">
        <ele>32.8223</ele>
        <time>2013-05-26T10:17:16Z</time>
      </trkpt>
      <trkpt lat="59.8728005" lon="17.8230768">
        <ele>32.8223</ele>
        <time>2013-05-26T10:17:17Z</time>
      </trkpt>
      <trkpt lat="59.8728243" lon="17.8231523">
        <ele>32.8223</ele>
        <time>2013-05-26T10:17:18Z</time>
      </trkpt>
      <trkpt lat="59.8728506" lon="17.8232274">
        <ele>32.3416</ele>
        <time>2013-05-26T10:17:19Z</time>
      </trkpt>
      <trkpt lat="59.8728754" lon="17.8233082">
        <ele>31.8607</ele>
        <time>2013-05-26T10:17:20Z</time>
      </trkpt>
      <trkpt lat="59.8728978" lon="17.8233941">
        <ele>31.8607</ele>
        <time>2013-05-26T10:17:21Z</time>
      </trkpt>
      <trkpt lat="59.8729186" lon="17.8234849">
        <ele>31.3801</ele>
        <time>2013-05-26T10:17:22Z</time>
      </trkpt>
      <trkpt lat="59.872937" lon="17.8235799">
        <ele>30.8995</ele>
        <time>2013-05-26T10:17:23Z</time>
      </trkpt>
      <trkpt lat="59.8729501" lon="17.8236797">
        <ele>30.4188</ele>
        <time>2013-05-26T10:17:24Z</time>
      </trkpt>
      <trkpt lat="59.8729579" lon="17.8237848">
        <ele>30.4188</ele>
        <time>2013-05-26T10:17:25Z</time>
      </trkpt>
      <trkpt lat="59.8729641" lon="17.8238959">
        <ele>30.4188</ele>
        <time>2013-05-26T10:17:26Z</time>
      </trkpt>
      <trkpt lat="59.8729667" lon="17.8240122">
        <ele>29.9381</ele>
        <time>2013-05-26T10:17:27Z</time>
      </trkpt>
      <trkpt lat="59.8729633" lon="17.8241328">
        <ele>29.9381</ele>
        <time>2013-05-26T10:17:28Z</time>
      </trkpt>
      <trkpt lat="59.8729552" lon="17.8242544">
        <ele>29.9381</ele>
        <time>2013-05-26T10:17:29Z</time>
      </trkpt>
      <trkpt lat="59.8729448" lon="17.8243763">
        <ele>29.9381</ele>
        <time>2013-05-26T10:17:30Z</time>
      </trkpt>
      <trkpt lat="59.8729329" lon="17.8244984">
        <ele>29.4575</ele>
        <time>2013-05-26T10:17:31Z</time>
      </trkpt>
      <trkpt lat="59.8729195" lon="17.8246208">
        <ele>29.4575</ele>
        <time>2013-05-26T10:17:32Z</time>
      </trkpt>
      <trkpt lat="59.8729051" lon="17.824744">
        <ele>29.4575</ele>
        <time>2013-05-26T10:17:33Z</time>
      </trkpt>
      <trkpt lat="59.8728895" lon="17.8248673">
        <ele>29.9381</ele>
        <time>2013-05-26T10:17:34Z</time>
      </trkpt>
      <trkpt lat="59.8728721" lon="17.8249908">
        <ele>29.9381</ele>
        <time>2013-05-26T10:17:35Z</time>
      </trkpt>
      <trkpt lat="59.8728529" lon="17.8251145">
        <ele>29.9381</ele>
        <time>2013-05-26T10:17:36Z</time>
      </trkpt>
      <trkpt lat="59.8728324" lon="17.8252389">
        <ele>29.4575</ele>
        <time>2013-05-26T10:17:37Z</time>
      </trkpt>
      <trkpt lat="59.8728114" lon="17.8253642">
        <ele>29.4575</ele>
        <time>2013-05-26T10:17:38Z</time>
      </trkpt>
      <trkpt lat="59.8727901" lon="17.8254876">
        <ele>29.4575</ele>
        <time>2013-05-26T10:17:39Z</time>
      </trkpt>
      <trkpt lat="59.8727668" lon="17.8256066">
        <ele>29.4575</ele>
        <time>2013-05-26T10:17:40Z</time>
      </trkpt>
      <trkpt lat="59.8727423" lon="17.8257241">
        <ele>29.4575</ele>
        <time>2013-05-26T10:17:41Z</time>
      </trkpt>
      <trkpt lat="59.8727166" lon="17.8258413">
        <ele>29.4575</ele>
        <time>2013-05-26T10:17:42Z</time>
      </trkpt>
      <trkpt lat="59.8726917" lon="17.8259595">
        <ele>29.9381</ele>
        <time>2013-05-26T10:17:43Z</time>
      </trkpt>
      <trkpt lat="59.8726677" lon="17.8260779">
        <ele>29.9381</ele>
        <time>2013-05-26T10:17:44Z</time>
      </trkpt>
      <trkpt lat="59.8726426" lon="17.8261941">
        <ele>30.4188</ele>
        <time>2013-05-26T10:17:45Z</time>
      </trkpt>
      <trkpt lat="59.8726176" lon="17.8263088">
        <ele>30.4188</ele>
        <time>2013-05-26T10:17:46Z</time>
      </trkpt>
      <trkpt lat="59.8725938" lon="17.8264239">
        <ele>30.4188</ele>
        <time>2013-05-26T10:17:47Z</time>
      </trkpt>
      <trkpt lat="59.872572" lon="17.8265411">
        <ele>30.8995</ele>
        <time>2013-05-26T10:17:48Z</time>
      </trkpt>
      <trkpt lat="59.8725529" lon="17.8266596">
        <ele>30.4188</ele>
        <time>2013-05-26T10:17:49Z</time>
      </trkpt>
      <trkpt lat="59.8725357" lon="17.8267805">
        <ele>30.4188</ele>
        <time>2013-05-26T10:17:50Z</time>
      </trkpt>
      <trkpt lat="59.8725171" lon="17.8269005">
        <ele>30.4188</ele>
        <time>2013-05-26T10:17:51Z</time>
      </trkpt>
      <trkpt lat="59.8724981" lon="17.8270218">
        <ele>30.4188</ele>
        <time>2013-05-26T10:17:52Z</time>
      </trkpt>
      <trkpt lat="59.8724804" lon="17.8271468">
        <ele>29.9381</ele>
        <time>2013-05-26T10:17:53Z</time>
      </trkpt>
      <trkpt lat="59.8724647" lon="17.8272744">
        <ele>29.9381</ele>
        <time>2013-05-26T10:17:54Z</time>
      </trkpt>
      <trkpt lat="59.8724513" lon="17.8274046">
        <ele>29.4575</ele>
        <time>2013-05-26T10:17:55Z</time>
      </trkpt>
      <trkpt lat="59.8724415" lon="17.8275367">
        <ele>29.9381</ele>
        <time>2013-05-26T10:17:56Z</time>
      </trkpt>
      <trkpt lat="59.8724301" lon="17.8276668">
        <ele>29.9381</ele>
        <time>2013-05-26T10:17:57Z</time>
      </trkpt>
      <trkpt lat="59.8724185" lon="17.8277943">
        <ele>30.4188</ele>
        <time>2013-05-26T10:17:58Z</time>
      </trkpt>
      <trkpt lat="59.8724068" lon="17.8279221">
        <ele>30.4188</ele>
        <time>2013-05-26T10:17:59Z</time>
      </trkpt>
      <trkpt lat="59.872394" lon="17.8280514">
        <ele>30.4188</ele>
        <time>2013-05-26T10:18:00Z</time>
      </trkpt>
      <trkpt lat="59.8723798" lon="17.8281806">
        <ele>30.8995</ele>
        <time>2013-05-26T10:18:01Z</time>
      </trkpt>
      <trkpt lat="59.8723641" lon="17.8283085">
        <ele>30.8995</ele>
        <time>2013-05-26T10:18:02Z</time>
      </trkpt>
      <trkpt lat="59.8723494" lon="17.8284353">
        <ele>30.8995</ele>
        <time>2013-05-26T10:18:03Z</time>
      </trkpt>
      <trkpt lat="59.8723357" lon="17.8285618">
        <ele>30.8995</ele>
        <time>2013-05-26T10:18:04Z</time>
      </trkpt>
      <trkpt lat="59.8723208" lon="17.8286891">
        <ele>30.8995</ele>
        <time>2013-05-26T10:18:05Z</time>
      </trkpt>
      <trkpt lat="59.8723052" lon="17.8288172">
        <ele>30.8995</ele>
        <time>2013-05-26T10:18:06Z</time>
      </trkpt>
      <trkpt lat="59.8722897" lon="17.8289467">
        <ele>30.8995</ele>
        <time>2013-05-26T10:18:07Z</time>
      </trkpt>
      <trkpt lat="59.8722742" lon="17.8290772">
        <ele>31.3801</ele>
        <time>2013-05-26T10:18:08Z</time>
      </trkpt>
      <trkpt lat="59.8722592" lon="17.8292078">
        <ele>30.8995</ele>
        <time>2013-05-26T10:18:09Z</time>
      </trkpt>
      <trkpt lat="59.8722442" lon="17.8293378">
        <ele>30.8995</ele>
        <time>2013-05-26T10:18:10Z</time>
      </trkpt>
      <trkpt lat="59.8722281" lon="17.8294684">
        <ele>30.8995</ele>
        <time>2013-05-26T10:18:11Z</time>
      </trkpt>
      <trkpt lat="59.8722123" lon="17.8296019">
        <ele>30.8995</ele>
        <time>2013-05-26T10:18:12Z</time>
      </trkpt>
      <trkpt lat="59.8721943" lon="17.8297362">
        <ele>30.8995</ele>
        <time>2013-05-26T10:18:13Z</time>
      </trkpt>
      <trkpt lat="59.8721711" lon="17.8298688">
        <ele>30.8995</ele>
        <time>2013-05-26T10:18:14Z</time>
      </trkpt>
      <trkpt lat="59.8721416" lon="17.8299974">
        <ele>31.3801</ele>
        <time>2013-05-26T10:18:15Z</time>
      </trkpt>
      <trkpt lat="59.8721079" lon="17.8301159">
        <ele>31.3801</ele>
        <time>2013-05-26T10:18:16Z</time>
      </trkpt>
      <trkpt lat="59.8720714" lon="17.8302319">
        <ele>31.3801</ele>
        <time>2013-05-26T10:18:17Z</time>
      </trkpt>
      <trkpt lat="59.8720323" lon="17.8303464">
        <ele>31.3801</ele>
        <time>2013-05-26T10:18:18Z</time>
      </trkpt>
      <trkpt lat="59.8719855" lon="17.8304508">
        <ele>31.3801</ele>
        <time>2013-05-26T10:18:19Z</time>
      </trkpt>
      <trkpt lat="59.8719262" lon="17.8305324">
        <ele>30.4188</ele>
        <time>2013-05-26T10:18:20Z</time>
      </trkpt>
      <trkpt lat="59.8718618" lon="17.8305909">
        <ele>28.9769</ele>
        <time>2013-05-26T10:18:21Z</time>
      </trkpt>
      <trkpt lat="59.8717935" lon="17.830643">
        <ele>28.4962</ele>
        <time>2013-05-26T10:18:22Z</time>
      </trkpt>
      <trkpt lat="59.8717246" lon="17.830692">
        <ele>27.5349</ele>
        <time>2013-05-26T10:18:23Z</time>
      </trkpt>
      <trkpt lat="59.8716551" lon="17.8307394">
        <ele>26.5736</ele>
        <time>2013-05-26T10:18:24Z</time>
      </trkpt>
      <trkpt lat="59.8715847" lon="17.8307826">
        <ele>26.0929</ele>
        <time>2013-05-26T10:18:25Z</time>
      </trkpt>
      <trkpt lat="59.8715142" lon="17.830829">
        <ele>25.1317</ele>
        <time>2013-05-26T10:18:26Z</time>
      </trkpt>
      <trkpt lat="59.8714428" lon="17.8308787">
        <ele>24.651</ele>
        <time>2013-05-26T10:18:27Z</time>
      </trkpt>
      <trkpt lat="59.8713711" lon="17.8309317">
        <ele>24.1703</ele>
        <time>2013-05-26T10:18:28Z</time>
      </trkpt>
      <trkpt lat="59.8712979" lon="17.8309876">
        <ele>24.1703</ele>
        <time>2013-05-26T10:18:29Z</time>
      </trkpt>
      <trkpt lat="59.8712241" lon="17.8310452">
        <ele>24.1703</ele>
        <time>2013-05-26T10:18:30Z</time>
      </trkpt>
      <trkpt lat="59.8711501" lon="17.8311037">
        <ele>23.6896</ele>
        <time>2013-05-26T10:18:31Z</time>
      </trkpt>
      <trkpt lat="59.8710761" lon="17.8311649">
        <ele>23.6896</ele>
        <time>2013-05-26T10:18:32Z</time>
      </trkpt>
      <trkpt lat="59.8710021" lon="17.8312291">
        <ele>23.209</ele>
        <time>2013-05-26T10:18:33Z</time>
      </trkpt>
      <trkpt lat="59.8709282" lon="17.8312976">
        <ele>23.209</ele>
        <time>2013-05-26T10:18:34Z</time>
      </trkpt>
      <trkpt lat="59.8708539" lon="17.8313705">
        <ele>23.209</ele>
        <time>2013-05-26T10:18:35Z</time>
      </trkpt>
      <trkpt lat="59.8707801" lon="17.8314462">
        <ele>22.7283</ele>
        <time>2013-05-26T10:18:36Z</time>
      </trkpt>
      <trkpt lat="59.870707" lon="17.8315249">
        <ele>22.7283</ele>
        <time>2013-05-26T10:18:37Z</time>
      </trkpt>
      <trkpt lat="59.8706348" lon="17.8316061">
        <ele>22.7283</ele>
        <time>2013-05-26T10:18:38Z</time>
      </trkpt>
      <trkpt lat="59.8705636" lon="17.831687">
        <ele>22.7283</ele>
        <time>2013-05-26T10:18:39Z</time>
      </trkpt>
      <trkpt lat="59.8704938" lon="17.831769">
        <ele>22.7283</ele>
        <time>2013-05-26T10:18:40Z</time>
      </trkpt>
      <trkpt lat="59.8704275" lon="17.8318598">
        <ele>22.7283</ele>
        <time>2013-05-26T10:18:41Z</time>
      </trkpt>
      <trkpt lat="59.8703644" lon="17.831956">
        <ele>22.7283</ele>
        <time>2013-05-26T10:18:42Z</time>
      </trkpt>
      <trkpt lat="59.8703046" lon="17.8320574">
        <ele>23.209</ele>
        <time>2013-05-26T10:18:43Z</time>
      </trkpt>
      <trkpt lat="59.8702472" lon="17.8321628">
        <ele>23.209</ele>
        <time>2013-05-26T10:18:44Z</time>
      </trkpt>
      <trkpt lat="59.8701926" lon="17.8322699">
        <ele>23.209</ele>
        <time>2013-05-26T10:18:45Z</time>
      </trkpt>
      <trkpt lat="59.8701393" lon="17.832378">
        <ele>23.209</ele>
        <time>2013-05-26T10:18:46Z</time>
      </trkpt>
      <trkpt lat="59.8700869" lon="17.8324899">
        <ele>23.209</ele>
        <time>2013-05-26T10:18:47Z</time>
      </trkpt>
      <trkpt lat="59.8700341" lon="17.8326038">
        <ele>23.209</ele>
        <time>2013-05-26T10:18:48Z</time>
      </trkpt>
      <trkpt lat="59.8699825" lon="17.8327202">
        <ele>23.6896</ele>
        <time>2013-05-26T10:18:49Z</time>
      </trkpt>
      <trkpt lat="59.8699327" lon="17.8328369">
        <ele>23.6896</ele>
        <time>2013-05-26T10:18:50Z</time>
      </trkpt>
      <trkpt lat="59.8698841" lon="17.8329515">
        <ele>23.6896</ele>
        <time>2013-05-26T10:18:51Z</time>
      </trkpt>
      <trkpt lat="59.8698359" lon="17.8330623">
        <ele>23.6896</ele>
        <time>2013-05-26T10:18:52Z</time>
      </trkpt>
      <trkpt lat="59.8697881" lon="17.8331675">
        <ele>24.1703</ele>
        <time>2013-05-26T10:18:53Z</time>
      </trkpt>
      <trkpt lat="59.8697396" lon="17.8332685">
        <ele>24.1703</ele>
        <time>2013-05-26T10:18:54Z</time>
      </trkpt>
      <trkpt lat="59.8696927" lon="17.8333695">
        <ele>24.651</ele>
        <time>2013-05-26T10:18:55Z</time>
      </trkpt>
      <trkpt lat="59.8696461" lon="17.8334713">
        <ele>24.651</ele>
        <time>2013-05-26T10:18:56Z</time>
      </trkpt>
      <trkpt lat="59.8695996" lon="17.833572">
        <ele>24.651</ele>
        <time>2013-05-26T10:18:57Z</time>
      </trkpt>
      <trkpt lat="59.8695527" lon="17.833672">
        <ele>25.1317</ele>
        <time>2013-05-26T10:18:58Z</time>
      </trkpt>
      <trkpt lat="59.8695065" lon="17.8337719">
        <ele>25.1317</ele>
        <time>2013-05-26T10:18:59Z</time>
      </trkpt>
      <trkpt lat="59.86946" lon="17.8338708">
        <ele>25.1317</ele>
        <time>2013-05-26T10:19:00Z</time>
      </trkpt>
      <trkpt lat="59.8694132" lon="17.8339707">
        <ele>25.1317</ele>
        <time>2013-05-26T10:19:01Z</time>
      </trkpt>
      <trkpt lat="59.8693665" lon="17.8340733">
        <ele>25.6123</ele>
        <time>2013-05-26T10:19:02Z</time>
      </trkpt>
      <trkpt lat="59.8693205" lon="17.8341745">
        <ele>25.6123</ele>
        <time>2013-05-26T10:19:03Z</time>
      </trkpt>
      <trkpt lat="59.8692744" lon="17.8342774">
        <ele>25.6123</ele>
        <time>2013-05-26T10:19:04Z</time>
      </trkpt>
      <trkpt lat="59.8692304" lon="17.8343817">
        <ele>26.0929</ele>
        <time>2013-05-26T10:19:05Z</time>
      </trkpt>
      <trkpt lat="59.8691887" lon="17.8344866">
        <ele>26.5736</ele>
        <time>2013-05-26T10:19:06Z</time>
      </trkpt>
      <trkpt lat="59.8691475" lon="17.8345884">
        <ele>26.5736</ele>
        <time>2013-05-26T10:19:07Z</time>
      </trkpt>
      <trkpt lat="59.8691071" lon="17.8346872">
        <ele>26.5736</ele>
        <time>2013-05-26T10:19:08Z</time>
      </trkpt>
      <trkpt lat="59.8690697" lon="17.8347864">
        <ele>27.0543</ele>
        <time>2013-05-26T10:19:09Z</time>
      </trkpt>
      <trkpt lat="59.8690321" lon="17.8348836">
        <ele>27.0543</ele>
        <time>2013-05-26T10:19:10Z</time>
      </trkpt>
      <trkpt lat="59.8689927" lon="17.8349774">
        <ele>27.5349</ele>
        <time>2013-05-26T10:19:11Z</time>
      </trkpt>
      <trkpt lat="59.8689535" lon="17.8350699">
        <ele>27.5349</ele>
        <time>2013-05-26T10:19:12Z</time>
      </trkpt>
      <trkpt lat="59.8689165" lon="17.8351639">
        <ele>28.0155</ele>
        <time>2013-05-26T10:19:13Z</time>
      </trkpt>
      <trkpt lat="59.8688802" lon="17.8352554">
        <ele>28.0155</ele>
        <time>2013-05-26T10:19:14Z</time>
      </trkpt>
      <trkpt lat="59.8688427" lon="17.8353416">
        <ele>28.4962</ele>
        <time>2013-05-26T10:19:15Z</time>
      </trkpt>
      <trkpt lat="59.8688073" lon="17.8354255">
        <ele>28.9769</ele>
        <time>2013-05-26T10:19:16Z</time>
      </trkpt>
      <trkpt lat="59.8687724" lon="17.8355067">
        <ele>28.9769</ele>
        <time>2013-05-26T10:19:17Z</time>
      </trkpt>
      <trkpt lat="59.8687373" lon="17.8355824">
        <ele>29.4575</ele>
        <time>2013-05-26T10:19:18Z</time>
      </trkpt>
      <trkpt lat="59.8687028" lon="17.8356563">
        <ele>29.4575</ele>
        <time>2013-05-26T10:19:19Z</time>
      </trkpt>
      <trkpt lat="59.8686707" lon="17.8357333">
        <ele>29.4575</ele>
        <time>2013-05-26T10:19:20Z</time>
      </trkpt>
      <trkpt lat="59.8686382" lon="17.8358036">
        <ele>28.9769</ele>
        <time>2013-05-26T10:19:21Z</time>
      </trkpt>
      <trkpt lat="59.8686041" lon="17.8358674">
        <ele>28.4962</ele>
        <time>2013-05-26T10:19:22Z</time>
      </trkpt>
      <trkpt lat="59.8685759" lon="17.8359259">
        <ele>28.4962</ele>
        <time>2013-05-26T10:19:23Z</time>
      </trkpt>
      <trkpt lat="59.8685483" lon="17.8359912">
        <ele>28.9769</ele>
        <time>2013-05-26T10:19:24Z</time>
      </trkpt>
      <trkpt lat="59.8685217" lon="17.8360492">
        <ele>28.4962</ele>
        <time>2013-05-26T10:19:25Z</time>
      </trkpt>
      <trkpt lat="59.8684954" lon="17.8361119">
        <ele>28.0155</ele>
        <time>2013-05-26T10:19:26Z</time>
      </trkpt>
      <trkpt lat="59.8684699" lon="17.8361681">
        <ele>28.0155</ele>
        <time>2013-05-26T10:19:27Z</time>
      </trkpt>
      <trkpt lat="59.8684474" lon="17.8362186">
        <ele>28.0155</ele>
        <time>2013-05-26T10:19:28Z</time>
      </trkpt>
      <trkpt lat="59.8684244" lon="17.8362703">
        <ele>27.5349</ele>
        <time>2013-05-26T10:19:29Z</time>
      </trkpt>
      <trkpt lat="59.8683984" lon="17.8363329">
        <ele>27.0543</ele>
        <time>2013-05-26T10:19:30Z</time>
      </trkpt>
      <trkpt lat="59.8683762" lon="17.8363977">
        <ele>26.5736</ele>
        <time>2013-05-26T10:19:31Z</time>
      </trkpt>
      <trkpt lat="59.8683524" lon="17.8364626">
        <ele>26.5736</ele>
        <time>2013-05-26T10:19:32Z</time>
      </trkpt>
      <trkpt lat="59.8683257" lon="17.8365299">
        <ele>26.5736</ele>
        <time>2013-05-26T10:19:33Z</time>
      </trkpt>
      <trkpt lat="59.8683052" lon="17.836595">
        <ele>27.0543</ele>
        <time>2013-05-26T10:19:34Z</time>
      </trkpt>
      <trkpt lat="59.8682885" lon="17.8366568">
        <ele>28.0155</ele>
        <time>2013-05-26T10:19:35Z</time>
      </trkpt>
      <trkpt lat="59.8682664" lon="17.8367226">
        <ele>28.4962</ele>
        <time>2013-05-26T10:19:36Z</time>
      </trkpt>
      <trkpt lat="59.8682425" lon="17.8367965">
        <ele>28.4962</ele>
        <time>2013-05-26T10:19:37Z</time>
      </trkpt>
      <trkpt lat="59.8682182" lon="17.8368625">
        <ele>28.4962</ele>
        <time>2013-05-26T10:19:38Z</time>
      </trkpt>
      <trkpt lat="59.8681917" lon="17.8369283">
        <ele>28.0155</ele>
        <time>2013-05-26T10:19:39Z</time>
      </trkpt>
      <trkpt lat="59.868162" lon="17.8370002">
        <ele>28.0155</ele>
        <time>2013-05-26T10:19:40Z</time>
      </trkpt>
      <trkpt lat="59.8681299" lon="17.8370656">
        <ele>28.0155</ele>
        <time>2013-05-26T10:19:41Z</time>
      </trkpt>
      <trkpt lat="59.8680953" lon="17.8371244">
        <ele>28.0155</ele>
        <time>2013-05-26T10:19:42Z</time>
      </trkpt>
      <trkpt lat="59.8680579" lon="17.8371743">
        <ele>27.5349</ele>
        <time>2013-05-26T10:19:43Z</time>
      </trkpt>
      <trkpt lat="59.8680147" lon="17.8372152">
        <ele>27.5349</ele>
        <time>2013-05-26T10:19:44Z</time>
      </trkpt>
      <trkpt lat="59.8679696" lon="17.8372514">
        <ele>27.5349</ele>
        <time>2013-05-26T10:19:45Z</time>
      </trkpt>
      <trkpt lat="59.8679229" lon="17.8372901">
        <ele>26.5736</ele>
        <time>2013-05-26T10:19:46Z</time>
      </trkpt>
      <trkpt lat="59.8678773" lon="17.8373298">
        <ele>26.5736</ele>
        <time>2013-05-26T10:19:47Z</time>
      </trkpt>
      <trkpt lat="59.867831" lon="17.8373663">
        <ele>25.6123</ele>
        <time>2013-05-26T10:19:48Z</time>
      </trkpt>
      <trkpt lat="59.8677808" lon="17.8373929">
        <ele>25.1317</ele>
        <time>2013-05-26T10:19:49Z</time>
      </trkpt>
      <trkpt lat="59.8677285" lon="17.837416">
        <ele>24.651</ele>
        <time>2013-05-26T10:19:50Z</time>
      </trkpt>
      <trkpt lat="59.8676763" lon="17.8374399">
        <ele>24.651</ele>
        <time>2013-05-26T10:19:51Z</time>
      </trkpt>
      <trkpt lat="59.867622" lon="17.8374617">
        <ele>24.1703</ele>
        <time>2013-05-26T10:19:52Z</time>
      </trkpt>
      <trkpt lat="59.8675654" lon="17.8374845">
        <ele>24.651</ele>
        <time>2013-05-26T10:19:53Z</time>
      </trkpt>
      <trkpt lat="59.8675085" lon="17.8375046">
        <ele>24.651</ele>
        <time>2013-05-26T10:19:54Z</time>
      </trkpt>
      <trkpt lat="59.8674488" lon="17.8375275">
        <ele>24.651</ele>
        <time>2013-05-26T10:19:55Z</time>
      </trkpt>
      <trkpt lat="59.8673878" lon="17.8375649">
        <ele>24.1703</ele>
        <time>2013-05-26T10:19:56Z</time>
      </trkpt>
      <trkpt lat="59.8673285" lon="17.8376193">
        <ele>24.1703</ele>
        <time>2013-05-26T10:19:57Z</time>
      </trkpt>
      <trkpt lat="59.8672728" lon="17.8376846">
        <ele>23.6896</ele>
        <time>2013-05-26T10:19:58Z</time>
      </trkpt>
      <trkpt lat="59.8672192" lon="17.8377649">
        <ele>23.209</ele>
        <time>2013-05-26T10:19:59Z</time>
      </trkpt>
      <trkpt lat="59.8671708" lon="17.8378587">
        <ele>22.7283</ele>
        <time>2013-05-26T10:20:00Z</time>
      </trkpt>
      <trkpt lat="59.867124" lon="17.8379751">
        <ele>22.2476</ele>
        <time>2013-05-26T10:20:01Z</time>
      </trkpt>
      <trkpt lat="59.8670817" lon="17.8381101">
        <ele>22.7283</ele>
        <time>2013-05-26T10:20:02Z</time>
      </trkpt>
      <trkpt lat="59.8670434" lon="17.8382563">
        <ele>22.7283</ele>
        <time>2013-05-26T10:20:03Z</time>
      </trkpt>
      <trkpt lat="59.8670081" lon="17.8384065">
        <ele>22.7283</ele>
        <time>2013-05-26T10:20:04Z</time>
      </trkpt>
      <trkpt lat="59.8669742" lon="17.8385569">
        <ele>22.7283</ele>
        <time>2013-05-26T10:20:05Z</time>
      </trkpt>
      <trkpt lat="59.8669401" lon="17.8387072">
        <ele>22.7283</ele>
        <time>2013-05-26T10:20:06Z</time>
      </trkpt>
      <trkpt lat="59.8669041" lon="17.8388573">
        <ele>22.7283</ele>
        <time>2013-05-26T10:20:07Z</time>
      </trkpt>
      <trkpt lat="59.8668641" lon="17.8390033">
        <ele>22.7283</ele>
        <time>2013-05-26T10:20:08Z</time>
      </trkpt>
      <trkpt lat="59.8668191" lon="17.8391377">
        <ele>22.7283</ele>
        <time>2013-05-26T10:20:09Z</time>
      </trkpt>
      <trkpt lat="59.8667683" lon="17.8392585">
        <ele>22.7283</ele>
        <time>2013-05-26T10:20:10Z</time>
      </trkpt>
      <trkpt lat="59.8667138" lon="17.8393706">
        <ele>22.7283</ele>
        <time>2013-05-26T10:20:11Z</time>
      </trkpt>
      <trkpt lat="59.8666557" lon="17.8394775">
        <ele>22.2476</ele>
        <time>2013-05-26T10:20:12Z</time>
      </trkpt>
      <trkpt lat="59.8665922" lon="17.8395793">
        <ele>22.2476</ele>
        <time>2013-05-26T10:20:13Z</time>
      </trkpt>
      <trkpt lat="59.8665238" lon="17.8396716">
        <ele>22.2476</ele>
        <time>2013-05-26T10:20:14Z</time>
      </trkpt>
      <trkpt lat="59.866448" lon="17.8397476">
        <ele>21.767</ele>
        <time>2013-05-26T10:20:15Z</time>
      </trkpt>
      <trkpt lat="59.8663653" lon="17.8398046">
        <ele>21.767</ele>
        <time>2013-05-26T10:20:16Z</time>
      </trkpt>
      <trkpt lat="59.8662785" lon="17.8398435">
        <ele>21.767</ele>
        <time>2013-05-26T10:20:17Z</time>
      </trkpt>
      <trkpt lat="59.8661876" lon="17.8398686">
        <ele>21.767</ele>
        <time>2013-05-26T10:20:18Z</time>
      </trkpt>
      <trkpt lat="59.8660959" lon="17.8398839">
        <ele>21.767</ele>
        <time>2013-05-26T10:20:19Z</time>
      </trkpt>
      <trkpt lat="59.8660041" lon="17.8398917">
        <ele>21.767</ele>
        <time>2013-05-26T10:20:20Z</time>
      </trkpt>
      <trkpt lat="59.8659141" lon="17.8398941">
        <ele>21.767</ele>
        <time>2013-05-26T10:20:21Z</time>
      </trkpt>
      <trkpt lat="59.8658249" lon="17.8398921">
        <ele>21.767</ele>
        <time>2013-05-26T10:20:22Z</time>
      </trkpt>
      <trkpt lat="59.8657367" lon="17.8398793">
        <ele>22.2476</ele>
        <time>2013-05-26T10:20:23Z</time>
      </trkpt>
      <trkpt lat="59.8656487" lon="17.8398569">
        <ele>22.7283</ele>
        <time>2013-05-26T10:20:24Z</time>
      </trkpt>
      <trkpt lat="59.8655627" lon="17.8398323">
        <ele>22.7283</ele>
        <time>2013-05-26T10:20:25Z</time>
      </trkpt>
      <trkpt lat="59.8654798" lon="17.8398067">
        <ele>23.209</ele>
        <time>2013-05-26T10:20:26Z</time>
      </trkpt>
      <trkpt lat="59.8653971" lon="17.8397924">
        <ele>23.209</ele>
        <time>2013-05-26T10:20:27Z</time>
      </trkpt>
      <trkpt lat="59.8653152" lon="17.8397981">
        <ele>23.6896</ele>
        <time>2013-05-26T10:20:28Z</time>
      </trkpt>
      <trkpt lat="59.8652359" lon="17.8398275">
        <ele>23.6896</ele>
        <time>2013-05-26T10:20:29Z</time>
      </trkpt>
      <trkpt lat="59.8651593" lon="17.8398774">
        <ele>23.6896</ele>
        <time>2013-05-26T10:20:30Z</time>
      </trkpt>
      <trkpt lat="59.8650854" lon="17.8399449">
        <ele>23.6896</ele>
        <time>2013-05-26T10:20:31Z</time>
      </trkpt>
      <trkpt lat="59.865013" lon="17.8400232">
        <ele>23.209</ele>
        <time>2013-05-26T10:20:32Z</time>
      </trkpt>
      <trkpt lat="59.8649418" lon="17.8401076">
        <ele>23.209</ele>
        <time>2013-05-26T10:20:33Z</time>
      </trkpt>
      <trkpt lat="59.8648739" lon="17.8401984">
        <ele>23.209</ele>
        <time>2013-05-26T10:20:34Z</time>
      </trkpt>
      <trkpt lat="59.8648082" lon="17.8403026">
        <ele>23.209</ele>
        <time>2013-05-26T10:20:35Z</time>
      </trkpt>
      <trkpt lat="59.8647476" lon="17.8404101">
        <ele>23.209</ele>
        <time>2013-05-26T10:20:36Z</time>
      </trkpt>
      <trkpt lat="59.8646931" lon="17.8405201">
        <ele>23.209</ele>
        <time>2013-05-26T10:20:37Z</time>
      </trkpt>
      <trkpt lat="59.8646428" lon="17.840632">
        <ele>23.209</ele>
        <time>2013-05-26T10:20:38Z</time>
      </trkpt>
      <trkpt lat="59.8645951" lon="17.8407412">
        <ele>23.209</ele>
        <time>2013-05-26T10:20:39Z</time>
      </trkpt>
      <trkpt lat="59.8645494" lon="17.8408485">
        <ele>23.209</ele>
        <time>2013-05-26T10:20:40Z</time>
      </trkpt>
      <trkpt lat="59.8645057" lon="17.8409585">
        <ele>23.6896</ele>
        <time>2013-05-26T10:20:41Z</time>
      </trkpt>
      <trkpt lat="59.8644622" lon="17.8410666">
        <ele>23.6896</ele>
        <time>2013-05-26T10:20:42Z</time>
      </trkpt>
      <trkpt lat="59.864421" lon="17.8411759">
        <ele>23.6896</ele>
        <time>2013-05-26T10:20:43Z</time>
      </trkpt>
      <trkpt lat="59.8643824" lon="17.8412919">
        <ele>23.6896</ele>
        <time>2013-05-26T10:20:44Z</time>
      </trkpt>
      <trkpt lat="59.8643456" lon="17.8414111">
        <ele>23.6896</ele>
        <time>2013-05-26T10:20:45Z</time>
      </trkpt>
      <trkpt lat="59.8643098" lon="17.8415342">
        <ele>24.1703</ele>
        <time>2013-05-26T10:20:46Z</time>
      </trkpt>
      <trkpt lat="59.8642742" lon="17.84166">
        <ele>24.1703</ele>
        <time>2013-05-26T10:20:47Z</time>
      </trkpt>
      <trkpt lat="59.8642394" lon="17.8417888">
        <ele>24.1703</ele>
        <time>2013-05-26T10:20:48Z</time>
      </trkpt>
      <trkpt lat="59.8642051" lon="17.8419191">
        <ele>24.1703</ele>
        <time>2013-05-26T10:20:49Z</time>
      </trkpt>
      <trkpt lat="59.8641711" lon="17.8420513">
        <ele>24.1703</ele>
        <time>2013-05-26T10:20:50Z</time>
      </trkpt>
      <trkpt lat="59.8641372" lon="17.8421859">
        <ele>24.651</ele>
        <time>2013-05-26T10:20:51Z</time>
      </trkpt>
      <trkpt lat="59.8641031" lon="17.842321">
        <ele>24.651</ele>
        <time>2013-05-26T10:20:52Z</time>
      </trkpt>
      <trkpt lat="59.8640697" lon="17.8424571">
        <ele>24.651</ele>
        <time>2013-05-26T10:20:53Z</time>
      </trkpt>
      <trkpt lat="59.8640381" lon="17.8425937">
        <ele>24.651</ele>
        <time>2013-05-26T10:20:54Z</time>
      </trkpt>
      <trkpt lat="59.8640087" lon="17.8427299">
        <ele>24.651</ele>
        <time>2013-05-26T10:20:55Z</time>
      </trkpt>
      <trkpt lat="59.8639819" lon="17.8428652">
        <ele>24.651</ele>
        <time>2013-05-26T10:20:56Z</time>
      </trkpt>
      <trkpt lat="59.8639576" lon="17.8429996">
        <ele>25.1317</ele>
        <time>2013-05-26T10:20:57Z</time>
      </trkpt>
      <trkpt lat="59.8639352" lon="17.843132">
        <ele>25.1317</ele>
        <time>2013-05-26T10:20:58Z</time>
      </trkpt>
      <trkpt lat="59.8639135" lon="17.8432622">
        <ele>25.1317</ele>
        <time>2013-05-26T10:20:59Z</time>
      </trkpt>
      <trkpt lat="59.8638943" lon="17.8433903">
        <ele>25.1317</ele>
        <time>2013-05-26T10:21:00Z</time>
      </trkpt>
      <trkpt lat="59.8638755" lon="17.8435168">
        <ele>25.6123</ele>
        <time>2013-05-26T10:21:01Z</time>
      </trkpt>
      <trkpt lat="59.8638577" lon="17.8436425">
        <ele>25.6123</ele>
        <time>2013-05-26T10:21:02Z</time>
      </trkpt>
      <trkpt lat="59.8638434" lon="17.8437692">
        <ele>25.6123</ele>
        <time>2013-05-26T10:21:03Z</time>
      </trkpt>
      <trkpt lat="59.8638291" lon="17.8438985">
        <ele>25.6123</ele>
        <time>2013-05-26T10:21:04Z</time>
      </trkpt>
      <trkpt lat="59.863812" lon="17.8440291">
        <ele>25.6123</ele>
        <time>2013-05-26T10:21:05Z</time>
      </trkpt>
      <trkpt lat="59.8637902" lon="17.8441631">
        <ele>25.6123</ele>
        <time>2013-05-26T10:21:06Z</time>
      </trkpt>
      <trkpt lat="59.8637648" lon="17.8442979">
        <ele>25.6123</ele>
        <time>2013-05-26T10:21:07Z</time>
      </trkpt>
      <trkpt lat="59.8637372" lon="17.8444342">
        <ele>25.1317</ele>
        <time>2013-05-26T10:21:08Z</time>
      </trkpt>
      <trkpt lat="59.8637084" lon="17.8445733">
        <ele>25.1317</ele>
        <time>2013-05-26T10:21:09Z</time>
      </trkpt>
      <trkpt lat="59.8636795" lon="17.8447149">
        <ele>25.1317</ele>
        <time>2013-05-26T10:21:10Z</time>
      </trkpt>
      <trkpt lat="59.863651" lon="17.8448573">
        <ele>24.651</ele>
        <time>2013-05-26T10:21:11Z</time>
      </trkpt>
      <trkpt lat="59.8636228" lon="17.8450008">
        <ele>24.651</ele>
        <time>2013-05-26T10:21:12Z</time>
      </trkpt>
      <trkpt lat="59.863597" lon="17.8451454">
        <ele>24.651</ele>
        <time>2013-05-26T10:21:13Z</time>
      </trkpt>
      <trkpt lat="59.8635735" lon="17.8452883">
        <ele>24.651</ele>
        <time>2013-05-26T10:21:14Z</time>
      </trkpt>
      <trkpt lat="59.8635493" lon="17.8454276">
        <ele>24.651</ele>
        <time>2013-05-26T10:21:15Z</time>
      </trkpt>
      <trkpt lat="59.8635245" lon="17.8455653">
        <ele>24.651</ele>
        <time>2013-05-26T10:21:16Z</time>
      </trkpt>
      <trkpt lat="59.8635001" lon="17.8457031">
        <ele>24.651</ele>
        <time>2013-05-26T10:21:17Z</time>
      </trkpt>
      <trkpt lat="59.8634764" lon="17.8458407">
        <ele>24.651</ele>
        <time>2013-05-26T10:21:18Z</time>
      </trkpt>
      <trkpt lat="59.8634552" lon="17.8459789">
        <ele>24.651</ele>
        <time>2013-05-26T10:21:19Z</time>
      </trkpt>
      <trkpt lat="59.8634365" lon="17.8461165">
        <ele>24.651</ele>
        <time>2013-05-26T10:21:20Z</time>
      </trkpt>
      <trkpt lat="59.8634174" lon="17.8462519">
        <ele>24.651</ele>
        <time>2013-05-26T10:21:21Z</time>
      </trkpt>
      <trkpt lat="59.8633968" lon="17.8463854">
        <ele>24.651</ele>
        <time>2013-05-26T10:21:22Z</time>
      </trkpt>
      <trkpt lat="59.8633732" lon="17.8465164">
        <ele>24.651</ele>
        <time>2013-05-26T10:21:23Z</time>
      </trkpt>
      <trkpt lat="59.8633466" lon="17.8466452">
        <ele>24.651</ele>
        <time>2013-05-26T10:21:24Z</time>
      </trkpt>
      <trkpt lat="59.8633183" lon="17.8467735">
        <ele>24.1703</ele>
        <time>2013-05-26T10:21:25Z</time>
      </trkpt>
      <trkpt lat="59.8632897" lon="17.8469013">
        <ele>24.1703</ele>
        <time>2013-05-26T10:21:26Z</time>
      </trkpt>
      <trkpt lat="59.8632602" lon="17.8470279">
        <ele>24.1703</ele>
        <time>2013-05-26T10:21:27Z</time>
      </trkpt>
      <trkpt lat="59.8632302" lon="17.8471548">
        <ele>24.1703</ele>
        <time>2013-05-26T10:21:28Z</time>
      </trkpt>
      <trkpt lat="59.8632002" lon="17.8472816">
        <ele>24.1703</ele>
        <time>2013-05-26T10:21:29Z</time>
      </trkpt>
      <trkpt lat="59.8631696" lon="17.847408">
        <ele>23.6896</ele>
        <time>2013-05-26T10:21:30Z</time>
      </trkpt>
      <trkpt lat="59.8631389" lon="17.8475344">
        <ele>23.6896</ele>
        <time>2013-05-26T10:21:31Z</time>
      </trkpt>
      <trkpt lat="59.863107" lon="17.84766">
        <ele>23.6896</ele>
        <time>2013-05-26T10:21:32Z</time>
      </trkpt>
      <trkpt lat="59.8630747" lon="17.8477863">
        <ele>23.6896</ele>
        <time>2013-05-26T10:21:33Z</time>
      </trkpt>
      <trkpt lat="59.8630427" lon="17.8479121">
        <ele>23.6896</ele>
        <time>2013-05-26T10:21:34Z</time>
      </trkpt>
      <trkpt lat="59.8630111" lon="17.848036">
        <ele>23.6896</ele>
        <time>2013-05-26T10:21:35Z</time>
      </trkpt>
      <trkpt lat="59.8629794" lon="17.8481577">
        <ele>23.6896</ele>
        <time>2013-05-26T10:21:36Z</time>
      </trkpt>
      <trkpt lat="59.8629482" lon="17.8482785">
        <ele>23.209</ele>
        <time>2013-05-26T10:21:37Z</time>
      </trkpt>
      <trkpt lat="59.8629179" lon="17.8483986">
        <ele>23.209</ele>
        <time>2013-05-26T10:21:38Z</time>
      </trkpt>
      <trkpt lat="59.8628869" lon="17.8485171">
        <ele>23.209</ele>
        <time>2013-05-26T10:21:39Z</time>
      </trkpt>
      <trkpt lat="59.8628561" lon="17.8486358">
        <ele>23.209</ele>
        <time>2013-05-26T10:21:40Z</time>
      </trkpt>
      <trkpt lat="59.8628262" lon="17.848756">
        <ele>23.209</ele>
        <time>2013-05-26T10:21:41Z</time>
      </trkpt>
      <trkpt lat="59.8627956" lon="17.8488773">
        <ele>23.209</ele>
        <time>2013-05-26T10:21:42Z</time>
      </trkpt>
      <trkpt lat="59.8627646" lon="17.848999">
        <ele>23.209</ele>
        <time>2013-05-26T10:21:43Z</time>
      </trkpt>
      <trkpt lat="59.862735" lon="17.8491216">
        <ele>23.209</ele>
        <time>2013-05-26T10:21:44Z</time>
      </trkpt>
      <trkpt lat="59.8627045" lon="17.8492439">
        <ele>23.209</ele>
        <time>2013-05-26T10:21:45Z</time>
      </trkpt>
      <trkpt lat="59.8626748" lon="17.8493672">
        <ele>22.7283</ele>
        <time>2013-05-26T10:21:46Z</time>
      </trkpt>
      <trkpt lat="59.8626465" lon="17.8494909">
        <ele>22.7283</ele>
        <time>2013-05-26T10:21:47Z</time>
      </trkpt>
      <trkpt lat="59.8626185" lon="17.8496136">
        <ele>22.7283</ele>
        <time>2013-05-26T10:21:48Z</time>
      </trkpt>
      <trkpt lat="59.8625921" lon="17.849736">
        <ele>22.2476</ele>
        <time>2013-05-26T10:21:49Z</time>
      </trkpt>
      <trkpt lat="59.8625665" lon="17.8498562">
        <ele>22.2476</ele>
        <time>2013-05-26T10:21:50Z</time>
      </trkpt>
      <trkpt lat="59.8625403" lon="17.8499723">
        <ele>21.767</ele>
        <time>2013-05-26T10:21:51Z</time>
      </trkpt>
      <trkpt lat="59.8625123" lon="17.8500857">
        <ele>21.767</ele>
        <time>2013-05-26T10:21:52Z</time>
      </trkpt>
      <trkpt lat="59.8624813" lon="17.8501966">
        <ele>21.2864</ele>
        <time>2013-05-26T10:21:53Z</time>
      </trkpt>
      <trkpt lat="59.8624438" lon="17.8503012">
        <ele>21.2864</ele>
        <time>2013-05-26T10:21:54Z</time>
      </trkpt>
      <trkpt lat="59.8623968" lon="17.8503921">
        <ele>21.2864</ele>
        <time>2013-05-26T10:21:55Z</time>
      </trkpt>
      <trkpt lat="59.8623389" lon="17.850461">
        <ele>20.8057</ele>
        <time>2013-05-26T10:21:56Z</time>
      </trkpt>
      <trkpt lat="59.862273" lon="17.8505083">
        <ele>19.8444</ele>
        <time>2013-05-26T10:21:57Z</time>
      </trkpt>
      <trkpt lat="59.8622024" lon="17.8505317">
        <ele>19.3638</ele>
        <time>2013-05-26T10:21:58Z</time>
      </trkpt>
      <trkpt lat="59.862129" lon="17.8505365">
        <ele>18.8831</ele>
        <time>2013-05-26T10:21:59Z</time>
      </trkpt>
      <trkpt lat="59.8620547" lon="17.8505372">
        <ele>18.4023</ele>
        <time>2013-05-26T10:22:00Z</time>
      </trkpt>
      <trkpt lat="59.8619794" lon="17.8505387">
        <ele>17.9218</ele>
        <time>2013-05-26T10:22:01Z</time>
      </trkpt>
      <trkpt lat="59.861906" lon="17.8505372">
        <ele>17.9218</ele>
        <time>2013-05-26T10:22:02Z</time>
      </trkpt>
      <trkpt lat="59.8618335" lon="17.8505353">
        <ele>17.9218</ele>
        <time>2013-05-26T10:22:03Z</time>
      </trkpt>
      <trkpt lat="59.8617586" lon="17.8505357">
        <ele>17.9218</ele>
        <time>2013-05-26T10:22:04Z</time>
      </trkpt>
      <trkpt lat="59.861683" lon="17.8505353">
        <ele>17.9218</ele>
        <time>2013-05-26T10:22:05Z</time>
      </trkpt>
      <trkpt lat="59.8616076" lon="17.8505305">
        <ele>17.9218</ele>
        <time>2013-05-26T10:22:06Z</time>
      </trkpt>
      <trkpt lat="59.861532" lon="17.8505147">
        <ele>17.4412</ele>
        <time>2013-05-26T10:22:07Z</time>
      </trkpt>
      <trkpt lat="59.8614556" lon="17.8504968">
        <ele>16.9604</ele>
        <time>2013-05-26T10:22:08Z</time>
      </trkpt>
      <trkpt lat="59.8613756" lon="17.8504735">
        <ele>16.4797</ele>
        <time>2013-05-26T10:22:09Z</time>
      </trkpt>
      <trkpt lat="59.8612924" lon="17.8504452">
        <ele>16.4797</ele>
        <time>2013-05-26T10:22:10Z</time>
      </trkpt>
      <trkpt lat="59.8612077" lon="17.8504177">
        <ele>15.999</ele>
        <time>2013-05-26T10:22:11Z</time>
      </trkpt>
      <trkpt lat="59.8611218" lon="17.8503938">
        <ele>15.999</ele>
        <time>2013-05-26T10:22:12Z</time>
      </trkpt>
      <trkpt lat="59.8610363" lon="17.8503728">
        <ele>15.999</ele>
        <time>2013-05-26T10:22:13Z</time>
      </trkpt>
      <trkpt lat="59.8609515" lon="17.8503525">
        <ele>15.5184</ele>
        <time>2013-05-26T10:22:14Z</time>
      </trkpt>
      <trkpt lat="59.8608667" lon="17.8503348">
        <ele>15.5184</ele>
        <time>2013-05-26T10:22:15Z</time>
      </trkpt>
      <trkpt lat="59.860782" lon="17.8503173">
        <ele>15.0377</ele>
        <time>2013-05-26T10:22:16Z</time>
      </trkpt>
      <trkpt lat="59.8606966" lon="17.8503037">
        <ele>15.0377</ele>
        <time>2013-05-26T10:22:17Z</time>
      </trkpt>
      <trkpt lat="59.8606112" lon="17.850293">
        <ele>15.0377</ele>
        <time>2013-05-26T10:22:18Z</time>
      </trkpt>
      <trkpt lat="59.8605268" lon="17.8502802">
        <ele>15.0377</ele>
        <time>2013-05-26T10:22:19Z</time>
      </trkpt>
      <trkpt lat="59.8604423" lon="17.8502649">
        <ele>15.0377</ele>
        <time>2013-05-26T10:22:20Z</time>
      </trkpt>
      <trkpt lat="59.860357" lon="17.8502525">
        <ele>15.0377</ele>
        <time>2013-05-26T10:22:21Z</time>
      </trkpt>
      <trkpt lat="59.8602707" lon="17.8502461">
        <ele>15.0377</ele>
        <time>2013-05-26T10:22:22Z</time>
      </trkpt>
      <trkpt lat="59.8601833" lon="17.8502432">
        <ele>15.0377</ele>
        <time>2013-05-26T10:22:23Z</time>
      </trkpt>
      <trkpt lat="59.8600966" lon="17.8502425">
        <ele>15.0377</ele>
        <time>2013-05-26T10:22:24Z</time>
      </trkpt>
      <trkpt lat="59.8600103" lon="17.8502438">
        <ele>15.0377</ele>
        <time>2013-05-26T10:22:25Z</time>
      </trkpt>
      <trkpt lat="59.8599244" lon="17.8502474">
        <ele>15.5184</ele>
        <time>2013-05-26T10:22:26Z</time>
      </trkpt>
      <trkpt lat="59.8598402" lon="17.8502549">
        <ele>15.999</ele>
        <time>2013-05-26T10:22:27Z</time>
      </trkpt>
      <trkpt lat="59.8597565" lon="17.8502663">
        <ele>15.999</ele>
        <time>2013-05-26T10:22:28Z</time>
      </trkpt>
      <trkpt lat="59.8596744" lon="17.8502782">
        <ele>16.4797</ele>
        <time>2013-05-26T10:22:29Z</time>
      </trkpt>
      <trkpt lat="59.8595924" lon="17.8502913">
        <ele>16.9604</ele>
        <time>2013-05-26T10:22:30Z</time>
      </trkpt>
      <trkpt lat="59.8595111" lon="17.8503072">
        <ele>16.9604</ele>
        <time>2013-05-26T10:22:31Z</time>
      </trkpt>
      <trkpt lat="59.859431" lon="17.8503218">
        <ele>16.9604</ele>
        <time>2013-05-26T10:22:32Z</time>
      </trkpt>
      <trkpt lat="59.8593509" lon="17.8503384">
        <ele>16.9604</ele>
        <time>2013-05-26T10:22:33Z</time>
      </trkpt>
      <trkpt lat="59.8592721" lon="17.8503538">
        <ele>16.9604</ele>
        <time>2013-05-26T10:22:34Z</time>
      </trkpt>
      <trkpt lat="59.8591943" lon="17.8503705">
        <ele>16.9604</ele>
        <time>2013-05-26T10:22:35Z</time>
      </trkpt>
      <trkpt lat="59.8591173" lon="17.850389">
        <ele>16.9604</ele>
        <time>2013-05-26T10:22:36Z</time>
      </trkpt>
      <trkpt lat="59.8590409" lon="17.850408">
        <ele>17.4412</ele>
        <time>2013-05-26T10:22:37Z</time>
      </trkpt>
      <trkpt lat="59.8589646" lon="17.8504281">
        <ele>17.4412</ele>
        <time>2013-05-26T10:22:38Z</time>
      </trkpt>
      <trkpt lat="59.8588884" lon="17.8504473">
        <ele>17.4412</ele>
        <time>2013-05-26T10:22:39Z</time>
      </trkpt>
      <trkpt lat="59.8588126" lon="17.8504643">
        <ele>17.4412</ele>
        <time>2013-05-26T10:22:40Z</time>
      </trkpt>
      <trkpt lat="59.8587371" lon="17.850484">
        <ele>17.4412</ele>
        <time>2013-05-26T10:22:41Z</time>
      </trkpt>
      <trkpt lat="59.858663" lon="17.8505048">
        <ele>17.4412</ele>
        <time>2013-05-26T10:22:42Z</time>
      </trkpt>
      <trkpt lat="59.8585892" lon="17.8505281">
        <ele>16.9604</ele>
        <time>2013-05-26T10:22:43Z</time>
      </trkpt>
      <trkpt lat="59.8585158" lon="17.8505561">
        <ele>16.9604</ele>
        <time>2013-05-26T10:22:44Z</time>
      </trkpt>
      <trkpt lat="59.8584423" lon="17.8505917">
        <ele>16.9604</ele>
        <time>2013-05-26T10:22:45Z</time>
      </trkpt>
      <trkpt lat="59.8583685" lon="17.8506338">
        <ele>15.999</ele>
        <time>2013-05-26T10:22:46Z</time>
      </trkpt>
      <trkpt lat="59.8582925" lon="17.8506791">
        <ele>15.5184</ele>
        <time>2013-05-26T10:22:47Z</time>
      </trkpt>
      <trkpt lat="59.8582145" lon="17.850728">
        <ele>14.557</ele>
        <time>2013-05-26T10:22:48Z</time>
      </trkpt>
      <trkpt lat="59.8581361" lon="17.8507839">
        <ele>13.5958</ele>
        <time>2013-05-26T10:22:49Z</time>
      </trkpt>
      <trkpt lat="59.8580584" lon="17.8508486">
        <ele>13.1151</ele>
        <time>2013-05-26T10:22:50Z</time>
      </trkpt>
      <trkpt lat="59.8579803" lon="17.8509181">
        <ele>13.1151</ele>
        <time>2013-05-26T10:22:51Z</time>
      </trkpt>
      <trkpt lat="59.8579025" lon="17.850988">
        <ele>13.1151</ele>
        <time>2013-05-26T10:22:52Z</time>
      </trkpt>
      <trkpt lat="59.8578251" lon="17.851057">
        <ele>12.6344</ele>
        <time>2013-05-26T10:22:53Z</time>
      </trkpt>
      <trkpt lat="59.8577472" lon="17.8511267">
        <ele>12.6344</ele>
        <time>2013-05-26T10:22:54Z</time>
      </trkpt>
      <trkpt lat="59.8576703" lon="17.8511984">
        <ele>13.1151</ele>
        <time>2013-05-26T10:22:55Z</time>
      </trkpt>
      <trkpt lat="59.8575934" lon="17.8512697">
        <ele>14.0764</ele>
        <time>2013-05-26T10:22:56Z</time>
      </trkpt>
      <trkpt lat="59.8575177" lon="17.8513399">
        <ele>14.557</ele>
        <time>2013-05-26T10:22:57Z</time>
      </trkpt>
      <trkpt lat="59.857443" lon="17.8514086">
        <ele>15.0377</ele>
        <time>2013-05-26T10:22:58Z</time>
      </trkpt>
      <trkpt lat="59.8573689" lon="17.8514749">
        <ele>15.5184</ele>
        <time>2013-05-26T10:22:59Z</time>
      </trkpt>
      <trkpt lat="59.8572958" lon="17.8515404">
        <ele>16.4797</ele>
        <time>2013-05-26T10:23:00Z</time>
      </trkpt>
      <trkpt lat="59.8572239" lon="17.8516055">
        <ele>16.9604</ele>
        <time>2013-05-26T10:23:01Z</time>
      </trkpt>
      <trkpt lat="59.8571536" lon="17.8516697">
        <ele>17.4412</ele>
        <time>2013-05-26T10:23:02Z</time>
      </trkpt>
      <trkpt lat="59.8570859" lon="17.8517319">
        <ele>17.9218</ele>
        <time>2013-05-26T10:23:03Z</time>
      </trkpt>
      <trkpt lat="59.8570215" lon="17.8517934">
        <ele>18.4023</ele>
        <time>2013-05-26T10:23:04Z</time>
      </trkpt>
      <trkpt lat="59.8569614" lon="17.8518573">
        <ele>18.8831</ele>
        <time>2013-05-26T10:23:05Z</time>
      </trkpt>
      <trkpt lat="59.8569059" lon="17.8519221">
        <ele>19.3638</ele>
        <time>2013-05-26T10:23:06Z</time>
      </trkpt>
      <trkpt lat="59.8568555" lon="17.8519864">
        <ele>19.3638</ele>
        <time>2013-05-26T10:23:07Z</time>
      </trkpt>
      <trkpt lat="59.8568111" lon="17.8520547">
        <ele>19.8444</ele>
        <time>2013-05-26T10:23:08Z</time>
      </trkpt>
      <trkpt lat="59.8567716" lon="17.8521277">
        <ele>20.325</ele>
        <time>2013-05-26T10:23:09Z</time>
      </trkpt>
      <trkpt lat="59.8567353" lon="17.8522038">
        <ele>20.8057</ele>
        <time>2013-05-26T10:23:10Z</time>
      </trkpt>
      <trkpt lat="59.8567026" lon="17.8522853">
        <ele>20.8057</ele>
        <time>2013-05-26T10:23:11Z</time>
      </trkpt>
      <trkpt lat="59.8566748" lon="17.8523704">
        <ele>21.2864</ele>
        <time>2013-05-26T10:23:12Z</time>
      </trkpt>
      <trkpt lat="59.8566501" lon="17.8524587">
        <ele>21.2864</ele>
        <time>2013-05-26T10:23:13Z</time>
      </trkpt>
      <trkpt lat="59.8566283" lon="17.8525494">
        <ele>21.767</ele>
        <time>2013-05-26T10:23:14Z</time>
      </trkpt>
      <trkpt lat="59.8566091" lon="17.8526421">
        <ele>21.767</ele>
        <time>2013-05-26T10:23:15Z</time>
      </trkpt>
      <trkpt lat="59.8565929" lon="17.8527368">
        <ele>22.2476</ele>
        <time>2013-05-26T10:23:16Z</time>
      </trkpt>
      <trkpt lat="59.8565801" lon="17.8528317">
        <ele>22.2476</ele>
        <time>2013-05-26T10:23:17Z</time>
      </trkpt>
      <trkpt lat="59.856569" lon="17.8529249">
        <ele>22.2476</ele>
        <time>2013-05-26T10:23:18Z</time>
      </trkpt>
      <trkpt lat="59.8565579" lon="17.8530165">
        <ele>22.7283</ele>
        <time>2013-05-26T10:23:19Z</time>
      </trkpt>
      <trkpt lat="59.8565479" lon="17.8531073">
        <ele>22.7283</ele>
        <time>2013-05-26T10:23:20Z</time>
      </trkpt>
      <trkpt lat="59.8565382" lon="17.8531989">
        <ele>22.7283</ele>
        <time>2013-05-26T10:23:21Z</time>
      </trkpt>
      <trkpt lat="59.8565277" lon="17.8532931">
        <ele>22.7283</ele>
        <time>2013-05-26T10:23:22Z</time>
      </trkpt>
      <trkpt lat="59.8565161" lon="17.8533875">
        <ele>22.7283</ele>
        <time>2013-05-26T10:23:23Z</time>
      </trkpt>
      <trkpt lat="59.8565007" lon="17.8534788">
        <ele>22.2476</ele>
        <time>2013-05-26T10:23:24Z</time>
      </trkpt>
      <trkpt lat="59.8564776" lon="17.8535627">
        <ele>22.2476</ele>
        <time>2013-05-26T10:23:25Z</time>
      </trkpt>
      <trkpt lat="59.8564438" lon="17.8536305">
        <ele>22.2476</ele>
        <time>2013-05-26T10:23:26Z</time>
      </trkpt>
      <trkpt lat="59.8563973" lon="17.8536751">
        <ele>21.767</ele>
        <time>2013-05-26T10:23:27Z</time>
      </trkpt>
      <trkpt lat="59.856346" lon="17.8536926">
        <ele>21.2864</ele>
        <time>2013-05-26T10:23:28Z</time>
      </trkpt>
      <trkpt lat="59.8562921" lon="17.8536958">
        <ele>20.8057</ele>
        <time>2013-05-26T10:23:29Z</time>
      </trkpt>
      <trkpt lat="59.8562369" lon="17.8536936">
        <ele>20.8057</ele>
        <time>2013-05-26T10:23:30Z</time>
      </trkpt>
      <trkpt lat="59.8561802" lon="17.853691">
        <ele>20.8057</ele>
        <time>2013-05-26T10:23:31Z</time>
      </trkpt>
      <trkpt lat="59.8561227" lon="17.8536922">
        <ele>20.8057</ele>
        <time>2013-05-26T10:23:32Z</time>
      </trkpt>
      <trkpt lat="59.8560644" lon="17.8536981">
        <ele>20.8057</ele>
        <time>2013-05-26T10:23:33Z</time>
      </trkpt>
      <trkpt lat="59.8560056" lon="17.8537036">
        <ele>20.8057</ele>
        <time>2013-05-26T10:23:34Z</time>
      </trkpt>
      <trkpt lat="59.8559465" lon="17.853704">
        <ele>20.8057</ele>
        <time>2013-05-26T10:23:35Z</time>
      </trkpt>
      <trkpt lat="59.8558871" lon="17.8536977">
        <ele>20.8057</ele>
        <time>2013-05-26T10:23:36Z</time>
      </trkpt>
      <trkpt lat="59.8558274" lon="17.8536875">
        <ele>20.8057</ele>
        <time>2013-05-26T10:23:37Z</time>
      </trkpt>
      <trkpt lat="59.8557678" lon="17.8536789">
        <ele>20.8057</ele>
        <time>2013-05-26T10:23:38Z</time>
      </trkpt>
      <trkpt lat="59.8557087" lon="17.8536748">
        <ele>20.8057</ele>
        <time>2013-05-26T10:23:39Z</time>
      </trkpt>
      <trkpt lat="59.8556497" lon="17.8536685">
        <ele>20.8057</ele>
        <time>2013-05-26T10:23:40Z</time>
      </trkpt>
      <trkpt lat="59.8555916" lon="17.8536742">
        <ele>20.325</ele>
        <time>2013-05-26T10:23:41Z</time>
      </trkpt>
      <trkpt lat="59.8555357" lon="17.853707">
        <ele>19.8444</ele>
        <time>2013-05-26T10:23:42Z</time>
      </trkpt>
      <trkpt lat="59.8554864" lon="17.8537718">
        <ele>19.3638</ele>
        <time>2013-05-26T10:23:43Z</time>
      </trkpt>
      <trkpt lat="59.8554483" lon="17.8538626">
        <ele>19.3638</ele>
        <time>2013-05-26T10:23:44Z</time>
      </trkpt>
      <trkpt lat="59.8554231" lon="17.8539754">
        <ele>18.8831</ele>
        <time>2013-05-26T10:23:45Z</time>
      </trkpt>
      <trkpt lat="59.8554079" lon="17.8541008">
        <ele>18.8831</ele>
        <time>2013-05-26T10:23:46Z</time>
      </trkpt>
      <trkpt lat="59.8553974" lon="17.8542314">
        <ele>18.8831</ele>
        <time>2013-05-26T10:23:47Z</time>
      </trkpt>
      <trkpt lat="59.8553898" lon="17.8543639">
        <ele>18.8831</ele>
        <time>2013-05-26T10:23:48Z</time>
      </trkpt>
      <trkpt lat="59.8553834" lon="17.8544971">
        <ele>18.8831</ele>
        <time>2013-05-26T10:23:49Z</time>
      </trkpt>
      <trkpt lat="59.855376" lon="17.8546317">
        <ele>18.4023</ele>
        <time>2013-05-26T10:23:50Z</time>
      </trkpt>
      <trkpt lat="59.8553682" lon="17.8547669">
        <ele>18.4023</ele>
        <time>2013-05-26T10:23:51Z</time>
      </trkpt>
      <trkpt lat="59.855361" lon="17.8549012">
        <ele>18.4023</ele>
        <time>2013-05-26T10:23:52Z</time>
      </trkpt>
      <trkpt lat="59.8553522" lon="17.8550325">
        <ele>18.4023</ele>
        <time>2013-05-26T10:23:53Z</time>
      </trkpt>
      <trkpt lat="59.855343" lon="17.8551607">
        <ele>17.9218</ele>
        <time>2013-05-26T10:23:54Z</time>
      </trkpt>
      <trkpt lat="59.8553342" lon="17.8552889">
        <ele>17.9218</ele>
        <time>2013-05-26T10:23:55Z</time>
      </trkpt>
      <trkpt lat="59.8553254" lon="17.8554158">
        <ele>17.9218</ele>
        <time>2013-05-26T10:23:56Z</time>
      </trkpt>
      <trkpt lat="59.8553167" lon="17.8555434">
        <ele>17.9218</ele>
        <time>2013-05-26T10:23:57Z</time>
      </trkpt>
      <trkpt lat="59.8553071" lon="17.8556736">
        <ele>17.4412</ele>
        <time>2013-05-26T10:23:58Z</time>
      </trkpt>
      <trkpt lat="59.8552972" lon="17.855805">
        <ele>17.4412</ele>
        <time>2013-05-26T10:23:59Z</time>
      </trkpt>
      <trkpt lat="59.855288" lon="17.855937">
        <ele>17.4412</ele>
        <time>2013-05-26T10:24:00Z</time>
      </trkpt>
      <trkpt lat="59.8552782" lon="17.8560692">
        <ele>17.4412</ele>
        <time>2013-05-26T10:24:01Z</time>
      </trkpt>
      <trkpt lat="59.8552691" lon="17.8561997">
        <ele>17.4412</ele>
        <time>2013-05-26T10:24:02Z</time>
      </trkpt>
      <trkpt lat="59.8552607" lon="17.8563257">
        <ele>17.4412</ele>
        <time>2013-05-26T10:24:03Z</time>
      </trkpt>
      <trkpt lat="59.8552513" lon="17.8564489">
        <ele>17.4412</ele>
        <time>2013-05-26T10:24:04Z</time>
      </trkpt>
      <trkpt lat="59.8552414" lon="17.856572">
        <ele>17.4412</ele>
        <time>2013-05-26T10:24:05Z</time>
      </trkpt>
      <trkpt lat="59.8552321" lon="17.8566948">
        <ele>17.4412</ele>
        <time>2013-05-26T10:24:06Z</time>
      </trkpt>
      <trkpt lat="59.8552217" lon="17.8568145">
        <ele>16.4797</ele>
        <time>2013-05-26T10:24:07Z</time>
      </trkpt>
      <trkpt lat="59.8552109" lon="17.856932">
        <ele>16.4797</ele>
        <time>2013-05-26T10:24:08Z</time>
      </trkpt>
      <trkpt lat="59.8551985" lon="17.8570493">
        <ele>15.999</ele>
        <time>2013-05-26T10:24:09Z</time>
      </trkpt>
      <trkpt lat="59.8551871" lon="17.8571653">
        <ele>15.999</ele>
        <time>2013-05-26T10:24:10Z</time>
      </trkpt>
      <trkpt lat="59.8551778" lon="17.8572781">
        <ele>15.5184</ele>
        <time>2013-05-26T10:24:11Z</time>
      </trkpt>
      <trkpt lat="59.8551705" lon="17.8573905">
        <ele>15.5184</ele>
        <time>2013-05-26T10:24:12Z</time>
      </trkpt>
      <trkpt lat="59.8551617" lon="17.857503">
        <ele>15.5184</ele>
        <time>2013-05-26T10:24:13Z</time>
      </trkpt>
      <trkpt lat="59.8551514" lon="17.8576142">
        <ele>15.5184</ele>
        <time>2013-05-26T10:24:14Z</time>
      </trkpt>
      <trkpt lat="59.8551411" lon="17.8577253">
        <ele>15.999</ele>
        <time>2013-05-26T10:24:15Z</time>
      </trkpt>
      <trkpt lat="59.8551332" lon="17.8578363">
        <ele>15.999</ele>
        <time>2013-05-26T10:24:16Z</time>
      </trkpt>
      <trkpt lat="59.855124" lon="17.857946">
        <ele>15.999</ele>
        <time>2013-05-26T10:24:17Z</time>
      </trkpt>
      <trkpt lat="59.8551168" lon="17.8580558">
        <ele>15.999</ele>
        <time>2013-05-26T10:24:18Z</time>
      </trkpt>
      <trkpt lat="59.8551093" lon="17.8581628">
        <ele>15.999</ele>
        <time>2013-05-26T10:24:19Z</time>
      </trkpt>
      <trkpt lat="59.8551016" lon="17.8582677">
        <ele>15.999</ele>
        <time>2013-05-26T10:24:20Z</time>
      </trkpt>
      <trkpt lat="59.8550939" lon="17.8583723">
        <ele>16.4797</ele>
        <time>2013-05-26T10:24:21Z</time>
      </trkpt>
      <trkpt lat="59.8550846" lon="17.8584753">
        <ele>16.4797</ele>
        <time>2013-05-26T10:24:22Z</time>
      </trkpt>
      <trkpt lat="59.8550753" lon="17.8585764">
        <ele>16.4797</ele>
        <time>2013-05-26T10:24:23Z</time>
      </trkpt>
      <trkpt lat="59.8550668" lon="17.8586764">
        <ele>16.4797</ele>
        <time>2013-05-26T10:24:24Z</time>
      </trkpt>
      <trkpt lat="59.8550582" lon="17.8587756">
        <ele>16.9604</ele>
        <time>2013-05-26T10:24:25Z</time>
      </trkpt>
      <trkpt lat="59.8550499" lon="17.8588737">
        <ele>16.9604</ele>
        <time>2013-05-26T10:24:26Z</time>
      </trkpt>
      <trkpt lat="59.8550434" lon="17.8589685">
        <ele>16.9604</ele>
        <time>2013-05-26T10:24:27Z</time>
      </trkpt>
      <trkpt lat="59.8550369" lon="17.8590607">
        <ele>17.4412</ele>
        <time>2013-05-26T10:24:28Z</time>
      </trkpt>
      <trkpt lat="59.8550307" lon="17.8591519">
        <ele>17.4412</ele>
        <time>2013-05-26T10:24:29Z</time>
      </trkpt>
      <trkpt lat="59.8550244" lon="17.8592425">
        <ele>17.9218</ele>
        <time>2013-05-26T10:24:30Z</time>
      </trkpt>
      <trkpt lat="59.8550166" lon="17.8593309">
        <ele>18.4023</ele>
        <time>2013-05-26T10:24:31Z</time>
      </trkpt>
      <trkpt lat="59.8550041" lon="17.8594156">
        <ele>18.4023</ele>
        <time>2013-05-26T10:24:32Z</time>
      </trkpt>
      <trkpt lat="59.8549818" lon="17.859492">
        <ele>18.8831</ele>
        <time>2013-05-26T10:24:33Z</time>
      </trkpt>
      <trkpt lat="59.8549484" lon="17.8595542">
        <ele>19.3638</ele>
        <time>2013-05-26T10:24:34Z</time>
      </trkpt>
      <trkpt lat="59.8549069" lon="17.8595948">
        <ele>19.3638</ele>
        <time>2013-05-26T10:24:35Z</time>
      </trkpt>
      <trkpt lat="59.8548618" lon="17.8596088">
        <ele>19.8444</ele>
        <time>2013-05-26T10:24:36Z</time>
      </trkpt>
      <trkpt lat="59.8548157" lon="17.8596049">
        <ele>19.8444</ele>
        <time>2013-05-26T10:24:37Z</time>
      </trkpt>
      <trkpt lat="59.8547686" lon="17.8595915">
        <ele>19.3638</ele>
        <time>2013-05-26T10:24:38Z</time>
      </trkpt>
      <trkpt lat="59.8547225" lon="17.8595761">
        <ele>19.3638</ele>
        <time>2013-05-26T10:24:39Z</time>
      </trkpt>
      <trkpt lat="59.8546777" lon="17.8595626">
        <ele>19.3638</ele>
        <time>2013-05-26T10:24:40Z</time>
      </trkpt>
      <trkpt lat="59.8546343" lon="17.8595488">
        <ele>19.3638</ele>
        <time>2013-05-26T10:24:41Z</time>
      </trkpt>
      <trkpt lat="59.8545924" lon="17.8595295">
        <ele>18.8831</ele>
        <time>2013-05-26T10:24:42Z</time>
      </trkpt>
      <trkpt lat="59.8545534" lon="17.8595076">
        <ele>18.8831</ele>
        <time>2013-05-26T10:24:43Z</time>
      </trkpt>
      <trkpt lat="59.8545157" lon="17.8594839">
        <ele>18.4023</ele>
        <time>2013-05-26T10:24:44Z</time>
      </trkpt>
      <trkpt lat="59.8544768" lon="17.8594601">
        <ele>18.4023</ele>
        <time>2013-05-26T10:24:45Z</time>
      </trkpt>
      <trkpt lat="59.8544385" lon="17.8594356">
        <ele>18.4023</ele>
        <time>2013-05-26T10:24:46Z</time>
      </trkpt>
      <trkpt lat="59.8544034" lon="17.8594068">
        <ele>17.9218</ele>
        <time>2013-05-26T10:24:47Z</time>
      </trkpt>
      <trkpt lat="59.8543681" lon="17.8593786">
        <ele>17.9218</ele>
        <time>2013-05-26T10:24:48Z</time>
      </trkpt>
      <trkpt lat="59.8543345" lon="17.8593398">
        <ele>17.4412</ele>
        <time>2013-05-26T10:24:49Z</time>
      </trkpt>
      <trkpt lat="59.8542977" lon="17.8592949">
        <ele>16.4797</ele>
        <time>2013-05-26T10:24:50Z</time>
      </trkpt>
      <trkpt lat="59.8542567" lon="17.8592429">
        <ele>15.999</ele>
        <time>2013-05-26T10:24:51Z</time>
      </trkpt>
      <trkpt lat="59.8542117" lon="17.8591905">
        <ele>15.5184</ele>
        <time>2013-05-26T10:24:52Z</time>
      </trkpt>
      <trkpt lat="59.8541646" lon="17.8591342">
        <ele>14.557</ele>
        <time>2013-05-26T10:24:53Z</time>
      </trkpt>
      <trkpt lat="59.8541136" lon="17.8590729">
        <ele>14.0764</ele>
        <time>2013-05-26T10:24:54Z</time>
      </trkpt>
      <trkpt lat="59.8540588" lon="17.8590067">
        <ele>12.6344</ele>
        <time>2013-05-26T10:24:55Z</time>
      </trkpt>
      <trkpt lat="59.8540001" lon="17.8589359">
        <ele>12.1538</ele>
        <time>2013-05-26T10:24:56Z</time>
      </trkpt>
      <trkpt lat="59.8539377" lon="17.8588616">
        <ele>11.1925</ele>
        <time>2013-05-26T10:24:57Z</time>
      </trkpt>
      <trkpt lat="59.8538739" lon="17.8587881">
        <ele>10.7118</ele>
        <time>2013-05-26T10:24:58Z</time>
      </trkpt>
      <trkpt lat="59.8538059" lon="17.8587111">
        <ele>10.2312</ele>
        <time>2013-05-26T10:24:59Z</time>
      </trkpt>
      <trkpt lat="59.8537385" lon="17.8586353">
        <ele>9.75061</ele>
        <time>2013-05-26T10:25:00Z</time>
      </trkpt>
      <trkpt lat="59.8536717" lon="17.8585603">
        <ele>9.2699</ele>
        <time>2013-05-26T10:25:01Z</time>
      </trkpt>
      <trkpt lat="59.8536046" lon="17.8584855">
        <ele>9.2699</ele>
        <time>2013-05-26T10:25:02Z</time>
      </trkpt>
      <trkpt lat="59.8535383" lon="17.8584109">
        <ele>9.2699</ele>
        <time>2013-05-26T10:25:03Z</time>
      </trkpt>
      <trkpt lat="59.853472" lon="17.8583365">
        <ele>9.2699</ele>
        <time>2013-05-26T10:25:04Z</time>
      </trkpt>
      <trkpt lat="59.8534076" lon="17.8582625">
        <ele>9.2699</ele>
        <time>2013-05-26T10:25:05Z</time>
      </trkpt>
      <trkpt lat="59.8533455" lon="17.8581875">
        <ele>8.78918</ele>
        <time>2013-05-26T10:25:06Z</time>
      </trkpt>
      <trkpt lat="59.8532838" lon="17.8581133">
        <ele>8.78918</ele>
        <time>2013-05-26T10:25:07Z</time>
      </trkpt>
      <trkpt lat="59.8532227" lon="17.8580413">
        <ele>9.2699</ele>
        <time>2013-05-26T10:25:08Z</time>
      </trkpt>
      <trkpt lat="59.8531622" lon="17.8579722">
        <ele>9.2699</ele>
        <time>2013-05-26T10:25:09Z</time>
      </trkpt>
      <trkpt lat="59.8531019" lon="17.8579064">
        <ele>9.75061</ele>
        <time>2013-05-26T10:25:10Z</time>
      </trkpt>
      <trkpt lat="59.8530409" lon="17.8578443">
        <ele>9.75061</ele>
        <time>2013-05-26T10:25:11Z</time>
      </trkpt>
      <trkpt lat="59.8529773" lon="17.857788">
        <ele>9.75061</ele>
        <time>2013-05-26T10:25:12Z</time>
      </trkpt>
      <trkpt lat="59.852911" lon="17.8577408">
        <ele>9.75061</ele>
        <time>2013-05-26T10:25:13Z</time>
      </trkpt>
      <trkpt lat="59.8528442" lon="17.8576935">
        <ele>9.75061</ele>
        <time>2013-05-26T10:25:14Z</time>
      </trkpt>
      <trkpt lat="59.8527762" lon="17.8576492">
        <ele>9.2699</ele>
        <time>2013-05-26T10:25:15Z</time>
      </trkpt>
      <trkpt lat="59.8527047" lon="17.8576092">
        <ele>9.2699</ele>
        <time>2013-05-26T10:25:16Z</time>
      </trkpt>
      <trkpt lat="59.8526298" lon="17.857574">
        <ele>8.78918</ele>
        <time>2013-05-26T10:25:17Z</time>
      </trkpt>
      <trkpt lat="59.8525525" lon="17.8575456">
        <ele>8.78918</ele>
        <time>2013-05-26T10:25:18Z</time>
      </trkpt>
      <trkpt lat="59.8524742" lon="17.8575274">
        <ele>9.2699</ele>
        <time>2013-05-26T10:25:19Z</time>
      </trkpt>
      <trkpt lat="59.8523967" lon="17.8575182">
        <ele>9.2699</ele>
        <time>2013-05-26T10:25:20Z</time>
      </trkpt>
      <trkpt lat="59.8523184" lon="17.8575146">
        <ele>9.75061</ele>
        <time>2013-05-26T10:25:21Z</time>
      </trkpt>
      <trkpt lat="59.8522396" lon="17.8575202">
        <ele>10.2312</ele>
        <time>2013-05-26T10:25:22Z</time>
      </trkpt>
      <trkpt lat="59.8521612" lon="17.8575378">
        <ele>10.7118</ele>
        <time>2013-05-26T10:25:23Z</time>
      </trkpt>
      <trkpt lat="59.8520845" lon="17.8575615">
        <ele>11.1925</ele>
        <time>2013-05-26T10:25:24Z</time>
      </trkpt>
      <trkpt lat="59.852009" lon="17.857587">
        <ele>11.6732</ele>
        <time>2013-05-26T10:25:25Z</time>
      </trkpt>
      <trkpt lat="59.8519344" lon="17.8576173">
        <ele>12.1538</ele>
        <time>2013-05-26T10:25:26Z</time>
      </trkpt>
      <trkpt lat="59.8518599" lon="17.8576497">
        <ele>12.6344</ele>
        <time>2013-05-26T10:25:27Z</time>
      </trkpt>
      <trkpt lat="59.8517857" lon="17.8576828">
        <ele>12.6344</ele>
        <time>2013-05-26T10:25:28Z</time>
      </trkpt>
      <trkpt lat="59.8517131" lon="17.8577149">
        <ele>13.1151</ele>
        <time>2013-05-26T10:25:29Z</time>
      </trkpt>
      <trkpt lat="59.8516419" lon="17.8577455">
        <ele>13.1151</ele>
        <time>2013-05-26T10:25:30Z</time>
      </trkpt>
      <trkpt lat="59.8515728" lon="17.857776">
        <ele>13.5958</ele>
        <time>2013-05-26T10:25:31Z</time>
      </trkpt>
      <trkpt lat="59.8515055" lon="17.8578057">
        <ele>14.0764</ele>
        <time>2013-05-26T10:25:32Z</time>
      </trkpt>
      <trkpt lat="59.8514394" lon="17.857833">
        <ele>14.0764</ele>
        <time>2013-05-26T10:25:33Z</time>
      </trkpt>
      <trkpt lat="59.8513739" lon="17.857859">
        <ele>14.0764</ele>
        <time>2013-05-26T10:25:34Z</time>
      </trkpt>
      <trkpt lat="59.8513092" lon="17.8578839">
        <ele>14.557</ele>
        <time>2013-05-26T10:25:35Z</time>
      </trkpt>
      <trkpt lat="59.8512461" lon="17.8579097">
        <ele>14.557</ele>
        <time>2013-05-26T10:25:36Z</time>
      </trkpt>
      <trkpt lat="59.851185" lon="17.8579366">
        <ele>14.557</ele>
        <time>2013-05-26T10:25:37Z</time>
      </trkpt>
      <trkpt lat="59.8511242" lon="17.8579614">
        <ele>15.0377</ele>
        <time>2013-05-26T10:25:38Z</time>
      </trkpt>
      <trkpt lat="59.8510635" lon="17.8579847">
        <ele>15.0377</ele>
        <time>2013-05-26T10:25:39Z</time>
      </trkpt>
      <trkpt lat="59.8510035" lon="17.8580087">
        <ele>15.5184</ele>
        <time>2013-05-26T10:25:40Z</time>
      </trkpt>
      <trkpt lat="59.8509444" lon="17.858035">
        <ele>15.5184</ele>
        <time>2013-05-26T10:25:41Z</time>
      </trkpt>
      <trkpt lat="59.8508854" lon="17.8580651">
        <ele>15.999</ele>
        <time>2013-05-26T10:25:42Z</time>
      </trkpt>
      <trkpt lat="59.850827" lon="17.8580937">
        <ele>15.999</ele>
        <time>2013-05-26T10:25:43Z</time>
      </trkpt>
      <trkpt lat="59.8507683" lon="17.8581188">
        <ele>16.4797</ele>
        <time>2013-05-26T10:25:44Z</time>
      </trkpt>
      <trkpt lat="59.8507089" lon="17.8581452">
        <ele>16.4797</ele>
        <time>2013-05-26T10:25:45Z</time>
      </trkpt>
      <trkpt lat="59.8506493" lon="17.8581766">
        <ele>16.9604</ele>
        <time>2013-05-26T10:25:46Z</time>
      </trkpt>
      <trkpt lat="59.8505909" lon="17.8582084">
        <ele>16.9604</ele>
        <time>2013-05-26T10:25:47Z</time>
      </trkpt>
      <trkpt lat="59.8505338" lon="17.8582418">
        <ele>16.9604</ele>
        <time>2013-05-26T10:25:48Z</time>
      </trkpt>
      <trkpt lat="59.8504772" lon="17.8582804">
        <ele>16.9604</ele>
        <time>2013-05-26T10:25:49Z</time>
      </trkpt>
      <trkpt lat="59.8504195" lon="17.858321">
        <ele>17.4412</ele>
        <time>2013-05-26T10:25:50Z</time>
      </trkpt>
      <trkpt lat="59.8503608" lon="17.8583633">
        <ele>17.4412</ele>
        <time>2013-05-26T10:25:51Z</time>
      </trkpt>
      <trkpt lat="59.8503018" lon="17.8584083">
        <ele>16.9604</ele>
        <time>2013-05-26T10:25:52Z</time>
      </trkpt>
      <trkpt lat="59.8502418" lon="17.8584527">
        <ele>16.9604</ele>
        <time>2013-05-26T10:25:53Z</time>
      </trkpt>
      <trkpt lat="59.8501801" lon="17.8584962">
        <ele>16.9604</ele>
        <time>2013-05-26T10:25:54Z</time>
      </trkpt>
      <trkpt lat="59.8501172" lon="17.8585422">
        <ele>16.9604</ele>
        <time>2013-05-26T10:25:55Z</time>
      </trkpt>
      <trkpt lat="59.850054" lon="17.8585912">
        <ele>17.4412</ele>
        <time>2013-05-26T10:25:56Z</time>
      </trkpt>
      <trkpt lat="59.849991" lon="17.8586409">
        <ele>17.4412</ele>
        <time>2013-05-26T10:25:57Z</time>
      </trkpt>
      <trkpt lat="59.8499283" lon="17.8586909">
        <ele>17.4412</ele>
        <time>2013-05-26T10:25:58Z</time>
      </trkpt>
      <trkpt lat="59.8498661" lon="17.8587383">
        <ele>17.4412</ele>
        <time>2013-05-26T10:25:59Z</time>
      </trkpt>
      <trkpt lat="59.8498045" lon="17.8587849">
        <ele>17.4412</ele>
        <time>2013-05-26T10:26:00Z</time>
      </trkpt>
      <trkpt lat="59.8497421" lon="17.8588323">
        <ele>17.4412</ele>
        <time>2013-05-26T10:26:01Z</time>
      </trkpt>
      <trkpt lat="59.849679" lon="17.8588768">
        <ele>17.9218</ele>
        <time>2013-05-26T10:26:02Z</time>
      </trkpt>
      <trkpt lat="59.8496144" lon="17.8589199">
        <ele>17.9218</ele>
        <time>2013-05-26T10:26:03Z</time>
      </trkpt>
      <trkpt lat="59.849548" lon="17.8589644">
        <ele>17.9218</ele>
        <time>2013-05-26T10:26:04Z</time>
      </trkpt>
      <trkpt lat="59.8494812" lon="17.8590063">
        <ele>17.9218</ele>
        <time>2013-05-26T10:26:05Z</time>
      </trkpt>
      <trkpt lat="59.8494135" lon="17.8590466">
        <ele>17.9218</ele>
        <time>2013-05-26T10:26:06Z</time>
      </trkpt>
      <trkpt lat="59.8493459" lon="17.8590886">
        <ele>17.9218</ele>
        <time>2013-05-26T10:26:07Z</time>
      </trkpt>
      <trkpt lat="59.8492766" lon="17.8591307">
        <ele>17.9218</ele>
        <time>2013-05-26T10:26:08Z</time>
      </trkpt>
      <trkpt lat="59.8492052" lon="17.8591742">
        <ele>17.9218</ele>
        <time>2013-05-26T10:26:09Z</time>
      </trkpt>
      <trkpt lat="59.849133" lon="17.8592211">
        <ele>17.9218</ele>
        <time>2013-05-26T10:26:10Z</time>
      </trkpt>
      <trkpt lat="59.8490609" lon="17.8592678">
        <ele>17.9218</ele>
        <time>2013-05-26T10:26:11Z</time>
      </trkpt>
      <trkpt lat="59.8489891" lon="17.8593112">
        <ele>17.9218</ele>
        <time>2013-05-26T10:26:12Z</time>
      </trkpt>
      <trkpt lat="59.848917" lon="17.8593503">
        <ele>17.9218</ele>
        <time>2013-05-26T10:26:13Z</time>
      </trkpt>
      <trkpt lat="59.8488442" lon="17.8593866">
        <ele>17.9218</ele>
        <time>2013-05-26T10:26:14Z</time>
      </trkpt>
      <trkpt lat="59.8487732" lon="17.8594219">
        <ele>17.4412</ele>
        <time>2013-05-26T10:26:15Z</time>
      </trkpt>
      <trkpt lat="59.8487032" lon="17.859456">
        <ele>17.4412</ele>
        <time>2013-05-26T10:26:16Z</time>
      </trkpt>
      <trkpt lat="59.8486342" lon="17.8594891">
        <ele>17.4412</ele>
        <time>2013-05-26T10:26:17Z</time>
      </trkpt>
      <trkpt lat="59.8485673" lon="17.8595213">
        <ele>16.9604</ele>
        <time>2013-05-26T10:26:18Z</time>
      </trkpt>
      <trkpt lat="59.8485023" lon="17.8595549">
        <ele>16.9604</ele>
        <time>2013-05-26T10:26:19Z</time>
      </trkpt>
      <trkpt lat="59.848439" lon="17.859588">
        <ele>17.4412</ele>
        <time>2013-05-26T10:26:20Z</time>
      </trkpt>
      <trkpt lat="59.8483758" lon="17.8596156">
        <ele>17.4412</ele>
        <time>2013-05-26T10:26:21Z</time>
      </trkpt>
      <trkpt lat="59.8483132" lon="17.8596419">
        <ele>17.4412</ele>
        <time>2013-05-26T10:26:22Z</time>
      </trkpt>
      <trkpt lat="59.8482519" lon="17.8596708">
        <ele>17.4412</ele>
        <time>2013-05-26T10:26:23Z</time>
      </trkpt>
      <trkpt lat="59.8481904" lon="17.8596999">
        <ele>17.4412</ele>
        <time>2013-05-26T10:26:24Z</time>
      </trkpt>
      <trkpt lat="59.8481287" lon="17.8597265">
        <ele>17.4412</ele>
        <time>2013-05-26T10:26:25Z</time>
      </trkpt>
      <trkpt lat="59.8480667" lon="17.8597536">
        <ele>17.4412</ele>
        <time>2013-05-26T10:26:26Z</time>
      </trkpt>
      <trkpt lat="59.8480045" lon="17.8597822">
        <ele>17.4412</ele>
        <time>2013-05-26T10:26:27Z</time>
      </trkpt>
      <trkpt lat="59.8479417" lon="17.8598103">
        <ele>17.4412</ele>
        <time>2013-05-26T10:26:28Z</time>
      </trkpt>
      <trkpt lat="59.847879" lon="17.8598398">
        <ele>16.9604</ele>
        <time>2013-05-26T10:26:29Z</time>
      </trkpt>
      <trkpt lat="59.8478177" lon="17.8598687">
        <ele>16.9604</ele>
        <time>2013-05-26T10:26:30Z</time>
      </trkpt>
      <trkpt lat="59.8477564" lon="17.8598963">
        <ele>16.9604</ele>
        <time>2013-05-26T10:26:31Z</time>
      </trkpt>
      <trkpt lat="59.8476942" lon="17.8599242">
        <ele>16.9604</ele>
        <time>2013-05-26T10:26:32Z</time>
      </trkpt>
      <trkpt lat="59.847631" lon="17.8599496">
        <ele>16.4797</ele>
        <time>2013-05-26T10:26:33Z</time>
      </trkpt>
      <trkpt lat="59.8475676" lon="17.8599756">
        <ele>16.4797</ele>
        <time>2013-05-26T10:26:34Z</time>
      </trkpt>
      <trkpt lat="59.8475044" lon="17.8600051">
        <ele>16.4797</ele>
        <time>2013-05-26T10:26:35Z</time>
      </trkpt>
      <trkpt lat="59.8474417" lon="17.8600352">
        <ele>16.4797</ele>
        <time>2013-05-26T10:26:36Z</time>
      </trkpt>
      <trkpt lat="59.8473795" lon="17.860065">
        <ele>16.4797</ele>
        <time>2013-05-26T10:26:37Z</time>
      </trkpt>
      <trkpt lat="59.847317" lon="17.8600936">
        <ele>16.4797</ele>
        <time>2013-05-26T10:26:38Z</time>
      </trkpt>
      <trkpt lat="59.8472554" lon="17.8601219">
        <ele>16.9604</ele>
        <time>2013-05-26T10:26:39Z</time>
      </trkpt>
      <trkpt lat="59.8471947" lon="17.860149">
        <ele>16.9604</ele>
        <time>2013-05-26T10:26:40Z</time>
      </trkpt>
      <trkpt lat="59.8471346" lon="17.8601755">
        <ele>16.9604</ele>
        <time>2013-05-26T10:26:41Z</time>
      </trkpt>
      <trkpt lat="59.8470756" lon="17.8602038">
        <ele>16.9604</ele>
        <time>2013-05-26T10:26:42Z</time>
      </trkpt>
      <trkpt lat="59.8470176" lon="17.8602315">
        <ele>17.4412</ele>
        <time>2013-05-26T10:26:43Z</time>
      </trkpt>
      <trkpt lat="59.8469601" lon="17.860258">
        <ele>17.4412</ele>
        <time>2013-05-26T10:26:44Z</time>
      </trkpt>
      <trkpt lat="59.8469031" lon="17.8602822">
        <ele>17.4412</ele>
        <time>2013-05-26T10:26:45Z</time>
      </trkpt>
      <trkpt lat="59.8468471" lon="17.8603071">
        <ele>17.9218</ele>
        <time>2013-05-26T10:26:46Z</time>
      </trkpt>
      <trkpt lat="59.8467927" lon="17.8603339">
        <ele>17.9218</ele>
        <time>2013-05-26T10:26:47Z</time>
      </trkpt>
      <trkpt lat="59.8467399" lon="17.86036">
        <ele>18.4023</ele>
        <time>2013-05-26T10:26:48Z</time>
      </trkpt>
      <trkpt lat="59.8466885" lon="17.8603842">
        <ele>18.4023</ele>
        <time>2013-05-26T10:26:49Z</time>
      </trkpt>
      <trkpt lat="59.8466373" lon="17.8604059">
        <ele>18.4023</ele>
        <time>2013-05-26T10:26:50Z</time>
      </trkpt>
      <trkpt lat="59.8465862" lon="17.8604273">
        <ele>18.8831</ele>
        <time>2013-05-26T10:26:51Z</time>
      </trkpt>
      <trkpt lat="59.8465362" lon="17.8604503">
        <ele>18.8831</ele>
        <time>2013-05-26T10:26:52Z</time>
      </trkpt>
      <trkpt lat="59.8464866" lon="17.8604742">
        <ele>18.8831</ele>
        <time>2013-05-26T10:26:53Z</time>
      </trkpt>
      <trkpt lat="59.8464374" lon="17.8604966">
        <ele>19.3638</ele>
        <time>2013-05-26T10:26:54Z</time>
      </trkpt>
      <trkpt lat="59.8463886" lon="17.8605174">
        <ele>19.3638</ele>
        <time>2013-05-26T10:26:55Z</time>
      </trkpt>
      <trkpt lat="59.8463401" lon="17.8605375">
        <ele>19.3638</ele>
        <time>2013-05-26T10:26:56Z</time>
      </trkpt>
      <trkpt lat="59.8462923" lon="17.8605576">
        <ele>19.8444</ele>
        <time>2013-05-26T10:26:57Z</time>
      </trkpt>
      <trkpt lat="59.8462453" lon="17.8605796">
        <ele>19.8444</ele>
        <time>2013-05-26T10:26:58Z</time>
      </trkpt>
      <trkpt lat="59.8461992" lon="17.8606017">
        <ele>20.325</ele>
        <time>2013-05-26T10:26:59Z</time>
      </trkpt>
      <trkpt lat="59.846154" lon="17.8606208">
        <ele>20.325</ele>
        <time>2013-05-26T10:27:00Z</time>
      </trkpt>
      <trkpt lat="59.846109" lon="17.8606415">
        <ele>20.325</ele>
        <time>2013-05-26T10:27:01Z</time>
      </trkpt>
      <trkpt lat="59.8460644" lon="17.8606627">
        <ele>20.8057</ele>
        <time>2013-05-26T10:27:02Z</time>
      </trkpt>
      <trkpt lat="59.8460197" lon="17.8606805">
        <ele>20.8057</ele>
        <time>2013-05-26T10:27:03Z</time>
      </trkpt>
      <trkpt lat="59.8459751" lon="17.8606974">
        <ele>21.2864</ele>
        <time>2013-05-26T10:27:04Z</time>
      </trkpt>
      <trkpt lat="59.8459303" lon="17.8607163">
        <ele>21.2864</ele>
        <time>2013-05-26T10:27:05Z</time>
      </trkpt>
      <trkpt lat="59.845885" lon="17.8607365">
        <ele>21.2864</ele>
        <time>2013-05-26T10:27:06Z</time>
      </trkpt>
      <trkpt lat="59.8458395" lon="17.8607572">
        <ele>21.767</ele>
        <time>2013-05-26T10:27:07Z</time>
      </trkpt>
      <trkpt lat="59.845795" lon="17.8607773">
        <ele>21.767</ele>
        <time>2013-05-26T10:27:08Z</time>
      </trkpt>
      <trkpt lat="59.8457505" lon="17.8608007">
        <ele>21.767</ele>
        <time>2013-05-26T10:27:09Z</time>
      </trkpt>
      <trkpt lat="59.8457065" lon="17.860823">
        <ele>22.2476</ele>
        <time>2013-05-26T10:27:10Z</time>
      </trkpt>
      <trkpt lat="59.8456629" lon="17.8608427">
        <ele>22.2476</ele>
        <time>2013-05-26T10:27:11Z</time>
      </trkpt>
      <trkpt lat="59.8456194" lon="17.860863">
        <ele>22.7283</ele>
        <time>2013-05-26T10:27:12Z</time>
      </trkpt>
      <trkpt lat="59.8455753" lon="17.8608834">
        <ele>22.7283</ele>
        <time>2013-05-26T10:27:13Z</time>
      </trkpt>
      <trkpt lat="59.8455299" lon="17.8609031">
        <ele>22.7283</ele>
        <time>2013-05-26T10:27:14Z</time>
      </trkpt>
      <trkpt lat="59.8454839" lon="17.8609245">
        <ele>22.7283</ele>
        <time>2013-05-26T10:27:15Z</time>
      </trkpt>
      <trkpt lat="59.8454378" lon="17.8609483">
        <ele>22.7283</ele>
        <time>2013-05-26T10:27:16Z</time>
      </trkpt>
      <trkpt lat="59.8453914" lon="17.8609726">
        <ele>22.7283</ele>
        <time>2013-05-26T10:27:17Z</time>
      </trkpt>
      <trkpt lat="59.8453437" lon="17.8609959">
        <ele>22.7283</ele>
        <time>2013-05-26T10:27:18Z</time>
      </trkpt>
      <trkpt lat="59.8452947" lon="17.8610157">
        <ele>22.2476</ele>
        <time>2013-05-26T10:27:19Z</time>
      </trkpt>
      <trkpt lat="59.8452444" lon="17.8610364">
        <ele>22.2476</ele>
        <time>2013-05-26T10:27:20Z</time>
      </trkpt>
      <trkpt lat="59.8451932" lon="17.8610591">
        <ele>22.7283</ele>
        <time>2013-05-26T10:27:21Z</time>
      </trkpt>
      <trkpt lat="59.8451408" lon="17.8610825">
        <ele>22.7283</ele>
        <time>2013-05-26T10:27:22Z</time>
      </trkpt>
      <trkpt lat="59.8450862" lon="17.8611057">
        <ele>22.7283</ele>
        <time>2013-05-26T10:27:23Z</time>
      </trkpt>
      <trkpt lat="59.8450306" lon="17.8611298">
        <ele>22.7283</ele>
        <time>2013-05-26T10:27:24Z</time>
      </trkpt>
      <trkpt lat="59.8449746" lon="17.8611535">
        <ele>22.7283</ele>
        <time>2013-05-26T10:27:25Z</time>
      </trkpt>
      <trkpt lat="59.8449177" lon="17.8611773">
        <ele>22.7283</ele>
        <time>2013-05-26T10:27:26Z</time>
      </trkpt>
      <trkpt lat="59.8448589" lon="17.861203">
        <ele>23.209</ele>
        <time>2013-05-26T10:27:27Z</time>
      </trkpt>
      <trkpt lat="59.8447975" lon="17.8612301">
        <ele>23.209</ele>
        <time>2013-05-26T10:27:28Z</time>
      </trkpt>
      <trkpt lat="59.8447342" lon="17.8612589">
        <ele>23.209</ele>
        <time>2013-05-26T10:27:29Z</time>
      </trkpt>
      <trkpt lat="59.8446694" lon="17.8612887">
        <ele>23.209</ele>
        <time>2013-05-26T10:27:30Z</time>
      </trkpt>
      <trkpt lat="59.8446037" lon="17.8613196">
        <ele>23.209</ele>
        <time>2013-05-26T10:27:31Z</time>
      </trkpt>
      <trkpt lat="59.8445375" lon="17.8613519">
        <ele>23.209</ele>
        <time>2013-05-26T10:27:32Z</time>
      </trkpt>
      <trkpt lat="59.844471" lon="17.8613848">
        <ele>23.209</ele>
        <time>2013-05-26T10:27:33Z</time>
      </trkpt>
      <trkpt lat="59.8444041" lon="17.8614182">
        <ele>23.6896</ele>
        <time>2013-05-26T10:27:34Z</time>
      </trkpt>
      <trkpt lat="59.8443379" lon="17.8614523">
        <ele>23.6896</ele>
        <time>2013-05-26T10:27:35Z</time>
      </trkpt>
      <trkpt lat="59.8442727" lon="17.8614829">
        <ele>23.6896</ele>
        <time>2013-05-26T10:27:36Z</time>
      </trkpt>
      <trkpt lat="59.8442069" lon="17.8615097">
        <ele>23.6896</ele>
        <time>2013-05-26T10:27:37Z</time>
      </trkpt>
      <trkpt lat="59.8441414" lon="17.8615374">
        <ele>23.6896</ele>
        <time>2013-05-26T10:27:38Z</time>
      </trkpt>
      <trkpt lat="59.8440762" lon="17.8615674">
        <ele>23.6896</ele>
        <time>2013-05-26T10:27:39Z</time>
      </trkpt>
      <trkpt lat="59.8440121" lon="17.8615983">
        <ele>23.6896</ele>
        <time>2013-05-26T10:27:40Z</time>
      </trkpt>
      <trkpt lat="59.843949" lon="17.8616281">
        <ele>23.6896</ele>
        <time>2013-05-26T10:27:41Z</time>
      </trkpt>
      <trkpt lat="59.8438866" lon="17.8616544">
        <ele>23.6896</ele>
        <time>2013-05-26T10:27:42Z</time>
      </trkpt>
      <trkpt lat="59.843826" lon="17.8616776">
        <ele>23.6896</ele>
        <time>2013-05-26T10:27:43Z</time>
      </trkpt>
      <trkpt lat="59.843766" lon="17.8617027">
        <ele>23.209</ele>
        <time>2013-05-26T10:27:44Z</time>
      </trkpt>
      <trkpt lat="59.8437058" lon="17.8617278">
        <ele>23.209</ele>
        <time>2013-05-26T10:27:45Z</time>
      </trkpt>
      <trkpt lat="59.8436449" lon="17.8617527">
        <ele>23.209</ele>
        <time>2013-05-26T10:27:46Z</time>
      </trkpt>
      <trkpt lat="59.843584" lon="17.8617793">
        <ele>23.209</ele>
        <time>2013-05-26T10:27:47Z</time>
      </trkpt>
      <trkpt lat="59.8435216" lon="17.8618067">
        <ele>23.209</ele>
        <time>2013-05-26T10:27:48Z</time>
      </trkpt>
      <trkpt lat="59.8434583" lon="17.8618342">
        <ele>23.209</ele>
        <time>2013-05-26T10:27:49Z</time>
      </trkpt>
      <trkpt lat="59.8433945" lon="17.8618621">
        <ele>23.209</ele>
        <time>2013-05-26T10:27:50Z</time>
      </trkpt>
      <trkpt lat="59.8433298" lon="17.8618897">
        <ele>23.209</ele>
        <time>2013-05-26T10:27:51Z</time>
      </trkpt>
      <trkpt lat="59.8432657" lon="17.8619169">
        <ele>23.6896</ele>
        <time>2013-05-26T10:27:52Z</time>
      </trkpt>
      <trkpt lat="59.8432024" lon="17.8619414">
        <ele>24.1703</ele>
        <time>2013-05-26T10:27:53Z</time>
      </trkpt>
      <trkpt lat="59.8431414" lon="17.8619627">
        <ele>24.651</ele>
        <time>2013-05-26T10:27:54Z</time>
      </trkpt>
      <trkpt lat="59.8430823" lon="17.8619875">
        <ele>24.651</ele>
        <time>2013-05-26T10:27:55Z</time>
      </trkpt>
      <trkpt lat="59.8430241" lon="17.8620164">
        <ele>24.651</ele>
        <time>2013-05-26T10:27:56Z</time>
      </trkpt>
      <trkpt lat="59.8429665" lon="17.8620388">
        <ele>24.651</ele>
        <time>2013-05-26T10:27:57Z</time>
      </trkpt>
      <trkpt lat="59.8429076" lon="17.8620516">
        <ele>24.1703</ele>
        <time>2013-05-26T10:27:58Z</time>
      </trkpt>
      <trkpt lat="59.8428497" lon="17.862057">
        <ele>24.1703</ele>
        <time>2013-05-26T10:27:59Z</time>
      </trkpt>
      <trkpt lat="59.8427896" lon="17.8620682">
        <ele>24.1703</ele>
        <time>2013-05-26T10:28:00Z</time>
      </trkpt>
      <trkpt lat="59.8427279" lon="17.8620823">
        <ele>23.6896</ele>
        <time>2013-05-26T10:28:01Z</time>
      </trkpt>
      <trkpt lat="59.8426653" lon="17.8620951">
        <ele>23.6896</ele>
        <time>2013-05-26T10:28:02Z</time>
      </trkpt>
      <trkpt lat="59.8426017" lon="17.8621019">
        <ele>23.6896</ele>
        <time>2013-05-26T10:28:03Z</time>
      </trkpt>
      <trkpt lat="59.8425382" lon="17.8621035">
        <ele>23.6896</ele>
        <time>2013-05-26T10:28:04Z</time>
      </trkpt>
      <trkpt lat="59.8424749" lon="17.8620966">
        <ele>23.6896</ele>
        <time>2013-05-26T10:28:05Z</time>
      </trkpt>
      <trkpt lat="59.8424128" lon="17.8620815">
        <ele>23.209</ele>
        <time>2013-05-26T10:28:06Z</time>
      </trkpt>
      <trkpt lat="59.8423537" lon="17.8620553">
        <ele>23.209</ele>
        <time>2013-05-26T10:28:07Z</time>
      </trkpt>
      <trkpt lat="59.8422965" lon="17.8620215">
        <ele>23.209</ele>
        <time>2013-05-26T10:28:08Z</time>
      </trkpt>
      <trkpt lat="59.8422415" lon="17.8619832">
        <ele>23.209</ele>
        <time>2013-05-26T10:28:09Z</time>
      </trkpt>
      <trkpt lat="59.842188" lon="17.8619371">
        <ele>23.209</ele>
        <time>2013-05-26T10:28:10Z</time>
      </trkpt>
      <trkpt lat="59.8421358" lon="17.861889">
        <ele>22.2476</ele>
        <time>2013-05-26T10:28:11Z</time>
      </trkpt>
      <trkpt lat="59.8420851" lon="17.8618387">
        <ele>21.767</ele>
        <time>2013-05-26T10:28:12Z</time>
      </trkpt>
      <trkpt lat="59.8420357" lon="17.8617845">
        <ele>21.2864</ele>
        <time>2013-05-26T10:28:13Z</time>
      </trkpt>
      <trkpt lat="59.8419836" lon="17.8617268">
        <ele>19.8444</ele>
        <time>2013-05-26T10:28:14Z</time>
      </trkpt>
      <trkpt lat="59.8419308" lon="17.8616667">
        <ele>19.3638</ele>
        <time>2013-05-26T10:28:15Z</time>
      </trkpt>
      <trkpt lat="59.8418758" lon="17.861601">
        <ele>18.4023</ele>
        <time>2013-05-26T10:28:16Z</time>
      </trkpt>
      <trkpt lat="59.8418222" lon="17.8615312">
        <ele>17.4412</ele>
        <time>2013-05-26T10:28:17Z</time>
      </trkpt>
      <trkpt lat="59.8417695" lon="17.8614597">
        <ele>16.9604</ele>
        <time>2013-05-26T10:28:18Z</time>
      </trkpt>
      <trkpt lat="59.8417163" lon="17.8613876">
        <ele>16.4797</ele>
        <time>2013-05-26T10:28:19Z</time>
      </trkpt>
      <trkpt lat="59.8416632" lon="17.8613193">
        <ele>15.5184</ele>
        <time>2013-05-26T10:28:20Z</time>
      </trkpt>
      <trkpt lat="59.8416116" lon="17.861257">
        <ele>14.0764</ele>
        <time>2013-05-26T10:28:21Z</time>
      </trkpt>
      <trkpt lat="59.8415629" lon="17.861197">
        <ele>13.5958</ele>
        <time>2013-05-26T10:28:22Z</time>
      </trkpt>
      <trkpt lat="59.8415173" lon="17.8611406">
        <ele>13.1151</ele>
        <time>2013-05-26T10:28:23Z</time>
      </trkpt>
      <trkpt lat="59.8414691" lon="17.861081">
        <ele>13.1151</ele>
        <time>2013-05-26T10:28:24Z</time>
      </trkpt>
      <trkpt lat="59.8414299" lon="17.8610768">
        <ele>13.5958</ele>
        <time>2013-05-26T10:28:25Z</time>
      </trkpt>
      <trkpt lat="59.8413978" lon="17.8611219">
        <ele>14.0764</ele>
        <time>2013-05-26T10:28:26Z</time>
      </trkpt>
      <trkpt lat="59.8413718" lon="17.8611826">
        <ele>15.0377</ele>
        <time>2013-05-26T10:28:27Z</time>
      </trkpt>
      <trkpt lat="59.8413449" lon="17.8612496">
        <ele>15.5184</ele>
        <time>2013-05-26T10:28:28Z</time>
      </trkpt>
      <trkpt lat="59.8413215" lon="17.8613291">
        <ele>16.4797</ele>
        <time>2013-05-26T10:28:29Z</time>
      </trkpt>
      <trkpt lat="59.8413044" lon="17.8614197">
        <ele>16.9604</ele>
        <time>2013-05-26T10:28:30Z</time>
      </trkpt>
      <trkpt lat="59.8412785" lon="17.8614949">
        <ele>16.9604</ele>
        <time>2013-05-26T10:28:31Z</time>
      </trkpt>
      <trkpt lat="59.8412578" lon="17.8615625">
        <ele>18.4023</ele>
        <time>2013-05-26T10:28:32Z</time>
      </trkpt>
      <trkpt lat="59.8412324" lon="17.8616327">
        <ele>18.4023</ele>
        <time>2013-05-26T10:28:33Z</time>
      </trkpt>
      <trkpt lat="59.8412066" lon="17.8616989">
        <ele>18.8831</ele>
        <time>2013-05-26T10:28:34Z</time>
      </trkpt>
      <trkpt lat="59.8411789" lon="17.861749">
        <ele>19.3638</ele>
        <time>2013-05-26T10:28:35Z</time>
      </trkpt>
      <trkpt lat="59.8411514" lon="17.8618013">
        <ele>19.8444</ele>
        <time>2013-05-26T10:28:36Z</time>
      </trkpt>
      <trkpt lat="59.8411245" lon="17.8618425">
        <ele>19.8444</ele>
        <time>2013-05-26T10:28:37Z</time>
      </trkpt>
      <trkpt lat="59.8411043" lon="17.8618766">
        <ele>20.8057</ele>
        <time>2013-05-26T10:28:38Z</time>
      </trkpt>
      <trkpt lat="59.8410891" lon="17.8619236">
        <ele>21.767</ele>
        <time>2013-05-26T10:28:39Z</time>
      </trkpt>
      <trkpt lat="59.8410831" lon="17.8619548">
        <ele>23.209</ele>
        <time>2013-05-26T10:28:40Z</time>
      </trkpt>
      <trkpt lat="59.8410911" lon="17.8619843">
        <ele>23.6896</ele>
        <time>2013-05-26T10:28:41Z</time>
      </trkpt>
      <trkpt lat="59.8411025" lon="17.8619993">
        <ele>23.6896</ele>
        <time>2013-05-26T10:28:42Z</time>
      </trkpt>
      <trkpt lat="59.8411105" lon="17.8619932">
        <ele>22.7283</ele>
        <time>2013-05-26T10:28:43Z</time>
      </trkpt>
      <trkpt lat="59.84112" lon="17.8619735">
        <ele>22.7283</ele>
        <time>2013-05-26T10:28:44Z</time>
      </trkpt>
      <trkpt lat="59.841139" lon="17.86193">
        <ele>22.2476</ele>
        <time>2013-05-26T10:28:45Z</time>
      </trkpt>
      <trkpt lat="59.8411549" lon="17.8618963">
        <ele>22.2476</ele>
        <time>2013-05-26T10:28:46Z</time>
      </trkpt>
      <trkpt lat="59.8411691" lon="17.8618513">
        <ele>21.767</ele>
        <time>2013-05-26T10:28:47Z</time>
      </trkpt>
      <trkpt lat="59.8411837" lon="17.8618082">
        <ele>21.2864</ele>
        <time>2013-05-26T10:28:48Z</time>
      </trkpt>
      <trkpt lat="59.8412029" lon="17.8617578">
        <ele>20.325</ele>
        <time>2013-05-26T10:28:49Z</time>
      </trkpt>
      <trkpt lat="59.8412232" lon="17.8617092">
        <ele>20.325</ele>
        <time>2013-05-26T10:28:50Z</time>
      </trkpt>
      <trkpt lat="59.8412545" lon="17.8616503">
        <ele>19.3638</ele>
        <time>2013-05-26T10:28:51Z</time>
      </trkpt>
      <trkpt lat="59.8412822" lon="17.8615902">
        <ele>18.4023</ele>
        <time>2013-05-26T10:28:52Z</time>
      </trkpt>
      <trkpt lat="59.8413122" lon="17.8615333">
        <ele>18.4023</ele>
        <time>2013-05-26T10:28:53Z</time>
      </trkpt>
      <trkpt lat="59.8413364" lon="17.8614726">
        <ele>17.9218</ele>
        <time>2013-05-26T10:28:54Z</time>
      </trkpt>
      <trkpt lat="59.8413597" lon="17.8614083">
        <ele>17.4412</ele>
        <time>2013-05-26T10:28:55Z</time>
      </trkpt>
      <trkpt lat="59.8413816" lon="17.861352">
        <ele>16.4797</ele>
        <time>2013-05-26T10:28:56Z</time>
      </trkpt>
      <trkpt lat="59.8414011" lon="17.8613046">
        <ele>15.999</ele>
        <time>2013-05-26T10:28:57Z</time>
      </trkpt>
      <trkpt lat="59.8414153" lon="17.8612663">
        <ele>15.999</ele>
        <time>2013-05-26T10:28:58Z</time>
      </trkpt>
      <trkpt lat="59.8414226" lon="17.8612198">
        <ele>15.0377</ele>
        <time>2013-05-26T10:28:59Z</time>
      </trkpt>
      <trkpt lat="59.8414277" lon="17.8611721">
        <ele>15.5184</ele>
        <time>2013-05-26T10:29:00Z</time>
      </trkpt>
      <trkpt lat="59.8414277" lon="17.8611245">
        <ele>15.0377</ele>
        <time>2013-05-26T10:29:01Z</time>
      </trkpt>
      <trkpt lat="59.8414174" lon="17.8610804">
        <ele>14.557</ele>
        <time>2013-05-26T10:29:02Z</time>
      </trkpt>
      <trkpt lat="59.841395" lon="17.861042">
        <ele>14.0764</ele>
        <time>2013-05-26T10:29:03Z</time>
      </trkpt>
      <trkpt lat="59.8413605" lon="17.8610059">
        <ele>13.1151</ele>
        <time>2013-05-26T10:29:04Z</time>
      </trkpt>
      <trkpt lat="59.841325" lon="17.8609702">
        <ele>12.1538</ele>
        <time>2013-05-26T10:29:05Z</time>
      </trkpt>
      <trkpt lat="59.8412905" lon="17.8609416">
        <ele>12.6344</ele>
        <time>2013-05-26T10:29:06Z</time>
      </trkpt>
      <trkpt lat="59.8412504" lon="17.8609089">
        <ele>13.1151</ele>
        <time>2013-05-26T10:29:07Z</time>
      </trkpt>
      <trkpt lat="59.8412082" lon="17.8608784">
        <ele>13.5958</ele>
        <time>2013-05-26T10:29:08Z</time>
      </trkpt>
      <trkpt lat="59.8411634" lon="17.8608494">
        <ele>14.0764</ele>
        <time>2013-05-26T10:29:09Z</time>
      </trkpt>
      <trkpt lat="59.8411211" lon="17.8608245">
        <ele>14.557</ele>
        <time>2013-05-26T10:29:10Z</time>
      </trkpt>
      <trkpt lat="59.8410802" lon="17.8607965">
        <ele>15.0377</ele>
        <time>2013-05-26T10:29:11Z</time>
      </trkpt>
      <trkpt lat="59.8410367" lon="17.8607712">
        <ele>15.5184</ele>
        <time>2013-05-26T10:29:12Z</time>
      </trkpt>
      <trkpt lat="59.840992" lon="17.8607464">
        <ele>15.999</ele>
        <time>2013-05-26T10:29:13Z</time>
      </trkpt>
      <trkpt lat="59.8409449" lon="17.8607193">
        <ele>15.999</ele>
        <time>2013-05-26T10:29:14Z</time>
      </trkpt>
      <trkpt lat="59.8408966" lon="17.8606919">
        <ele>16.4797</ele>
        <time>2013-05-26T10:29:15Z</time>
      </trkpt>
      <trkpt lat="59.8408474" lon="17.8606664">
        <ele>16.9604</ele>
        <time>2013-05-26T10:29:16Z</time>
      </trkpt>
      <trkpt lat="59.8407974" lon="17.8606359">
        <ele>16.9604</ele>
        <time>2013-05-26T10:29:17Z</time>
      </trkpt>
      <trkpt lat="59.8407481" lon="17.8605992">
        <ele>16.4797</ele>
        <time>2013-05-26T10:29:18Z</time>
      </trkpt>
      <trkpt lat="59.8406972" lon="17.8605624">
        <ele>15.999</ele>
        <time>2013-05-26T10:29:19Z</time>
      </trkpt>
      <trkpt lat="59.8406436" lon="17.8605277">
        <ele>15.5184</ele>
        <time>2013-05-26T10:29:20Z</time>
      </trkpt>
      <trkpt lat="59.8405889" lon="17.8604909">
        <ele>15.0377</ele>
        <time>2013-05-26T10:29:21Z</time>
      </trkpt>
      <trkpt lat="59.8405329" lon="17.8604477">
        <ele>14.557</ele>
        <time>2013-05-26T10:29:22Z</time>
      </trkpt>
      <trkpt lat="59.8404744" lon="17.8604013">
        <ele>14.0764</ele>
        <time>2013-05-26T10:29:23Z</time>
      </trkpt>
      <trkpt lat="59.840414" lon="17.8603545">
        <ele>14.0764</ele>
        <time>2013-05-26T10:29:24Z</time>
      </trkpt>
      <trkpt lat="59.8403518" lon="17.8603069">
        <ele>14.0764</ele>
        <time>2013-05-26T10:29:25Z</time>
      </trkpt>
      <trkpt lat="59.8402893" lon="17.8602659">
        <ele>14.557</ele>
        <time>2013-05-26T10:29:26Z</time>
      </trkpt>
      <trkpt lat="59.8402275" lon="17.860226">
        <ele>14.557</ele>
        <time>2013-05-26T10:29:27Z</time>
      </trkpt>
      <trkpt lat="59.8401648" lon="17.8601822">
        <ele>14.557</ele>
        <time>2013-05-26T10:29:28Z</time>
      </trkpt>
      <trkpt lat="59.8401019" lon="17.8601366">
        <ele>14.0764</ele>
        <time>2013-05-26T10:29:29Z</time>
      </trkpt>
      <trkpt lat="59.840039" lon="17.8600905">
        <ele>14.0764</ele>
        <time>2013-05-26T10:29:30Z</time>
      </trkpt>
      <trkpt lat="59.839974" lon="17.8600401">
        <ele>13.5958</ele>
        <time>2013-05-26T10:29:31Z</time>
      </trkpt>
      <trkpt lat="59.8399082" lon="17.8599875">
        <ele>13.5958</ele>
        <time>2013-05-26T10:29:32Z</time>
      </trkpt>
      <trkpt lat="59.8398427" lon="17.8599357">
        <ele>13.5958</ele>
        <time>2013-05-26T10:29:33Z</time>
      </trkpt>
      <trkpt lat="59.8397769" lon="17.8598783">
        <ele>13.1151</ele>
        <time>2013-05-26T10:29:34Z</time>
      </trkpt>
      <trkpt lat="59.8397116" lon="17.8598154">
        <ele>13.1151</ele>
        <time>2013-05-26T10:29:35Z</time>
      </trkpt>
      <trkpt lat="59.8396463" lon="17.8597471">
        <ele>12.6344</ele>
        <time>2013-05-26T10:29:36Z</time>
      </trkpt>
      <trkpt lat="59.8395816" lon="17.8596744">
        <ele>12.6344</ele>
        <time>2013-05-26T10:29:37Z</time>
      </trkpt>
      <trkpt lat="59.8395187" lon="17.8595978">
        <ele>12.6344</ele>
        <time>2013-05-26T10:29:38Z</time>
      </trkpt>
      <trkpt lat="59.839457" lon="17.8595165">
        <ele>12.1538</ele>
        <time>2013-05-26T10:29:39Z</time>
      </trkpt>
      <trkpt lat="59.8393957" lon="17.8594311">
        <ele>12.1538</ele>
        <time>2013-05-26T10:29:40Z</time>
      </trkpt>
      <trkpt lat="59.839335" lon="17.8593436">
        <ele>11.6732</ele>
        <time>2013-05-26T10:29:41Z</time>
      </trkpt>
      <trkpt lat="59.8392745" lon="17.8592554">
        <ele>11.6732</ele>
        <time>2013-05-26T10:29:42Z</time>
      </trkpt>
      <trkpt lat="59.8392146" lon="17.8591673">
        <ele>11.6732</ele>
        <time>2013-05-26T10:29:43Z</time>
      </trkpt>
      <trkpt lat="59.8391547" lon="17.8590742">
        <ele>11.6732</ele>
        <time>2013-05-26T10:29:44Z</time>
      </trkpt>
      <trkpt lat="59.8390972" lon="17.8589768">
        <ele>11.6732</ele>
        <time>2013-05-26T10:29:45Z</time>
      </trkpt>
      <trkpt lat="59.8390402" lon="17.8588789">
        <ele>11.6732</ele>
        <time>2013-05-26T10:29:46Z</time>
      </trkpt>
      <trkpt lat="59.8389827" lon="17.8587839">
        <ele>11.6732</ele>
        <time>2013-05-26T10:29:47Z</time>
      </trkpt>
      <trkpt lat="59.8389259" lon="17.8586873">
        <ele>11.6732</ele>
        <time>2013-05-26T10:29:48Z</time>
      </trkpt>
      <trkpt lat="59.8388698" lon="17.8585872">
        <ele>11.1925</ele>
        <time>2013-05-26T10:29:49Z</time>
      </trkpt>
      <trkpt lat="59.8388133" lon="17.8584852">
        <ele>11.1925</ele>
        <time>2013-05-26T10:29:50Z</time>
      </trkpt>
      <trkpt lat="59.8387579" lon="17.8583821">
        <ele>11.1925</ele>
        <time>2013-05-26T10:29:51Z</time>
      </trkpt>
      <trkpt lat="59.8387031" lon="17.8582789">
        <ele>11.1925</ele>
        <time>2013-05-26T10:29:52Z</time>
      </trkpt>
      <trkpt lat="59.8386484" lon="17.8581744">
        <ele>10.7118</ele>
        <time>2013-05-26T10:29:53Z</time>
      </trkpt>
      <trkpt lat="59.838594" lon="17.8580671">
        <ele>10.7118</ele>
        <time>2013-05-26T10:29:54Z</time>
      </trkpt>
      <trkpt lat="59.8385413" lon="17.8579568">
        <ele>10.7118</ele>
        <time>2013-05-26T10:29:55Z</time>
      </trkpt>
      <trkpt lat="59.8384886" lon="17.8578432">
        <ele>10.7118</ele>
        <time>2013-05-26T10:29:56Z</time>
      </trkpt>
      <trkpt lat="59.8384372" lon="17.8577305">
        <ele>10.7118</ele>
        <time>2013-05-26T10:29:57Z</time>
      </trkpt>
      <trkpt lat="59.838388" lon="17.8576189">
        <ele>10.7118</ele>
        <time>2013-05-26T10:29:58Z</time>
      </trkpt>
      <trkpt lat="59.8383398" lon="17.8575062">
        <ele>9.75061</ele>
        <time>2013-05-26T10:29:59Z</time>
      </trkpt>
      <trkpt lat="59.8382932" lon="17.8574">
        <ele>9.2699</ele>
        <time>2013-05-26T10:30:00Z</time>
      </trkpt>
      <trkpt lat="59.8382483" lon="17.8572921">
        <ele>8.78918</ele>
        <time>2013-05-26T10:30:01Z</time>
      </trkpt>
      <trkpt lat="59.8382067" lon="17.8571825">
        <ele>8.78918</ele>
        <time>2013-05-26T10:30:02Z</time>
      </trkpt>
      <trkpt lat="59.8381653" lon="17.8570762">
        <ele>8.78918</ele>
        <time>2013-05-26T10:30:03Z</time>
      </trkpt>
      <trkpt lat="59.8381233" lon="17.8569737">
        <ele>8.78918</ele>
        <time>2013-05-26T10:30:04Z</time>
      </trkpt>
      <trkpt lat="59.8380814" lon="17.8568735">
        <ele>8.78918</ele>
        <time>2013-05-26T10:30:05Z</time>
      </trkpt>
      <trkpt lat="59.8380404" lon="17.8567793">
        <ele>9.2699</ele>
        <time>2013-05-26T10:30:06Z</time>
      </trkpt>
      <trkpt lat="59.8380009" lon="17.8566887">
        <ele>9.75061</ele>
        <time>2013-05-26T10:30:07Z</time>
      </trkpt>
      <trkpt lat="59.8379603" lon="17.8566039">
        <ele>10.2312</ele>
        <time>2013-05-26T10:30:08Z</time>
      </trkpt>
      <trkpt lat="59.8379185" lon="17.8565181">
        <ele>9.75061</ele>
        <time>2013-05-26T10:30:09Z</time>
      </trkpt>
      <trkpt lat="59.8378786" lon="17.8564432">
        <ele>10.2312</ele>
        <time>2013-05-26T10:30:10Z</time>
      </trkpt>
      <trkpt lat="59.8378379" lon="17.8563713">
        <ele>10.7118</ele>
        <time>2013-05-26T10:30:11Z</time>
      </trkpt>
      <trkpt lat="59.8377949" lon="17.856304">
        <ele>10.2312</ele>
        <time>2013-05-26T10:30:12Z</time>
      </trkpt>
      <trkpt lat="59.8377514" lon="17.8562423">
        <ele>10.7118</ele>
        <time>2013-05-26T10:30:13Z</time>
      </trkpt>
      <trkpt lat="59.8377062" lon="17.8561847">
        <ele>10.7118</ele>
        <time>2013-05-26T10:30:14Z</time>
      </trkpt>
      <trkpt lat="59.837656" lon="17.8561363">
        <ele>10.7118</ele>
        <time>2013-05-26T10:30:15Z</time>
      </trkpt>
      <trkpt lat="59.8376012" lon="17.8560978">
        <ele>10.7118</ele>
        <time>2013-05-26T10:30:16Z</time>
      </trkpt>
      <trkpt lat="59.8375432" lon="17.8560625">
        <ele>10.7118</ele>
        <time>2013-05-26T10:30:17Z</time>
      </trkpt>
      <trkpt lat="59.837484" lon="17.8560235">
        <ele>10.7118</ele>
        <time>2013-05-26T10:30:18Z</time>
      </trkpt>
      <trkpt lat="59.8374287" lon="17.8559761">
        <ele>11.1925</ele>
        <time>2013-05-26T10:30:19Z</time>
      </trkpt>
      <trkpt lat="59.8373707" lon="17.8559288">
        <ele>11.1925</ele>
        <time>2013-05-26T10:30:20Z</time>
      </trkpt>
      <trkpt lat="59.8373127" lon="17.855876">
        <ele>11.1925</ele>
        <time>2013-05-26T10:30:21Z</time>
      </trkpt>
      <trkpt lat="59.8372589" lon="17.8558134">
        <ele>10.7118</ele>
        <time>2013-05-26T10:30:22Z</time>
      </trkpt>
      <trkpt lat="59.8372071" lon="17.8557469">
        <ele>10.7118</ele>
        <time>2013-05-26T10:30:23Z</time>
      </trkpt>
      <trkpt lat="59.8371596" lon="17.8556681">
        <ele>10.2312</ele>
        <time>2013-05-26T10:30:24Z</time>
      </trkpt>
      <trkpt lat="59.8371115" lon="17.8555855">
        <ele>9.75061</ele>
        <time>2013-05-26T10:30:25Z</time>
      </trkpt>
      <trkpt lat="59.8370661" lon="17.8554964">
        <ele>10.2312</ele>
        <time>2013-05-26T10:30:26Z</time>
      </trkpt>
      <trkpt lat="59.8370221" lon="17.8554077">
        <ele>10.2312</ele>
        <time>2013-05-26T10:30:27Z</time>
      </trkpt>
      <trkpt lat="59.8369796" lon="17.8553166">
        <ele>10.7118</ele>
        <time>2013-05-26T10:30:28Z</time>
      </trkpt>
      <trkpt lat="59.836936" lon="17.855228">
        <ele>10.7118</ele>
        <time>2013-05-26T10:30:29Z</time>
      </trkpt>
      <trkpt lat="59.8368931" lon="17.8551383">
        <ele>11.1925</ele>
        <time>2013-05-26T10:30:30Z</time>
      </trkpt>
      <trkpt lat="59.8368475" lon="17.8550471">
        <ele>10.7118</ele>
        <time>2013-05-26T10:30:31Z</time>
      </trkpt>
      <trkpt lat="59.8368025" lon="17.854967">
        <ele>10.7118</ele>
        <time>2013-05-26T10:30:32Z</time>
      </trkpt>
      <trkpt lat="59.8367592" lon="17.8548932">
        <ele>11.1925</ele>
        <time>2013-05-26T10:30:33Z</time>
      </trkpt>
      <trkpt lat="59.8367163" lon="17.8548234">
        <ele>11.6732</ele>
        <time>2013-05-26T10:30:34Z</time>
      </trkpt>
      <trkpt lat="59.8366691" lon="17.8547587">
        <ele>12.1538</ele>
        <time>2013-05-26T10:30:35Z</time>
      </trkpt>
      <trkpt lat="59.836619" lon="17.8546969">
        <ele>12.6344</ele>
        <time>2013-05-26T10:30:36Z</time>
      </trkpt>
      <trkpt lat="59.8365667" lon="17.8546352">
        <ele>12.6344</ele>
        <time>2013-05-26T10:30:37Z</time>
      </trkpt>
      <trkpt lat="59.8365102" lon="17.8545748">
        <ele>13.1151</ele>
        <time>2013-05-26T10:30:38Z</time>
      </trkpt>
      <trkpt lat="59.8364562" lon="17.8545093">
        <ele>13.5958</ele>
        <time>2013-05-26T10:30:39Z</time>
      </trkpt>
      <trkpt lat="59.8363997" lon="17.8544474">
        <ele>14.0764</ele>
        <time>2013-05-26T10:30:40Z</time>
      </trkpt>
      <trkpt lat="59.8363396" lon="17.8543863">
        <ele>14.557</ele>
        <time>2013-05-26T10:30:41Z</time>
      </trkpt>
      <trkpt lat="59.8362782" lon="17.8543202">
        <ele>14.557</ele>
        <time>2013-05-26T10:30:42Z</time>
      </trkpt>
      <trkpt lat="59.8362203" lon="17.8542537">
        <ele>15.0377</ele>
        <time>2013-05-26T10:30:43Z</time>
      </trkpt>
      <trkpt lat="59.8361649" lon="17.8541845">
        <ele>15.5184</ele>
        <time>2013-05-26T10:30:44Z</time>
      </trkpt>
      <trkpt lat="59.836106" lon="17.8541127">
        <ele>15.5184</ele>
        <time>2013-05-26T10:30:45Z</time>
      </trkpt>
      <trkpt lat="59.8360441" lon="17.8540384">
        <ele>15.999</ele>
        <time>2013-05-26T10:30:46Z</time>
      </trkpt>
      <trkpt lat="59.8359853" lon="17.8539579">
        <ele>16.4797</ele>
        <time>2013-05-26T10:30:47Z</time>
      </trkpt>
      <trkpt lat="59.835926" lon="17.8538765">
        <ele>16.4797</ele>
        <time>2013-05-26T10:30:48Z</time>
      </trkpt>
      <trkpt lat="59.8358642" lon="17.8537962">
        <ele>16.4797</ele>
        <time>2013-05-26T10:30:49Z</time>
      </trkpt>
      <trkpt lat="59.8358066" lon="17.8537158">
        <ele>17.4412</ele>
        <time>2013-05-26T10:30:50Z</time>
      </trkpt>
      <trkpt lat="59.835747" lon="17.8536314">
        <ele>17.4412</ele>
        <time>2013-05-26T10:30:51Z</time>
      </trkpt>
      <trkpt lat="59.835685" lon="17.853543">
        <ele>16.9604</ele>
        <time>2013-05-26T10:30:52Z</time>
      </trkpt>
      <trkpt lat="59.8356244" lon="17.8534558">
        <ele>16.9604</ele>
        <time>2013-05-26T10:30:53Z</time>
      </trkpt>
      <trkpt lat="59.8355649" lon="17.8533698">
        <ele>16.4797</ele>
        <time>2013-05-26T10:30:54Z</time>
      </trkpt>
      <trkpt lat="59.8355063" lon="17.8532875">
        <ele>15.999</ele>
        <time>2013-05-26T10:30:55Z</time>
      </trkpt>
      <trkpt lat="59.8354487" lon="17.853204">
        <ele>15.999</ele>
        <time>2013-05-26T10:30:56Z</time>
      </trkpt>
      <trkpt lat="59.8353932" lon="17.8531181">
        <ele>16.9604</ele>
        <time>2013-05-26T10:30:57Z</time>
      </trkpt>
      <trkpt lat="59.8353397" lon="17.8530257">
        <ele>15.999</ele>
        <time>2013-05-26T10:30:58Z</time>
      </trkpt>
      <trkpt lat="59.8352904" lon="17.8529257">
        <ele>15.0377</ele>
        <time>2013-05-26T10:30:59Z</time>
      </trkpt>
      <trkpt lat="59.8352418" lon="17.8528195">
        <ele>13.5958</ele>
        <time>2013-05-26T10:31:00Z</time>
      </trkpt>
      <trkpt lat="59.8351951" lon="17.8527161">
        <ele>13.1151</ele>
        <time>2013-05-26T10:31:01Z</time>
      </trkpt>
      <trkpt lat="59.8351488" lon="17.8526056">
        <ele>12.1538</ele>
        <time>2013-05-26T10:31:02Z</time>
      </trkpt>
      <trkpt lat="59.835105" lon="17.8524975">
        <ele>11.6732</ele>
        <time>2013-05-26T10:31:03Z</time>
      </trkpt>
      <trkpt lat="59.8350635" lon="17.8523919">
        <ele>11.1925</ele>
        <time>2013-05-26T10:31:04Z</time>
      </trkpt>
      <trkpt lat="59.8350281" lon="17.8522879">
        <ele>10.7118</ele>
        <time>2013-05-26T10:31:05Z</time>
      </trkpt>
      <trkpt lat="59.8349909" lon="17.8521903">
        <ele>10.7118</ele>
        <time>2013-05-26T10:31:06Z</time>
      </trkpt>
      <trkpt lat="59.834954" lon="17.8520961">
        <ele>10.7118</ele>
        <time>2013-05-26T10:31:07Z</time>
      </trkpt>
      <trkpt lat="59.8349123" lon="17.8520034">
        <ele>10.2312</ele>
        <time>2013-05-26T10:31:08Z</time>
      </trkpt>
      <trkpt lat="59.8348692" lon="17.8519068">
        <ele>9.2699</ele>
        <time>2013-05-26T10:31:09Z</time>
      </trkpt>
      <trkpt lat="59.8348243" lon="17.8518208">
        <ele>8.78918</ele>
        <time>2013-05-26T10:31:10Z</time>
      </trkpt>
      <trkpt lat="59.8347749" lon="17.8517319">
        <ele>9.2699</ele>
        <time>2013-05-26T10:31:11Z</time>
      </trkpt>
      <trkpt lat="59.8347159" lon="17.8516402">
        <ele>8.78918</ele>
        <time>2013-05-26T10:31:12Z</time>
      </trkpt>
      <trkpt lat="59.8346514" lon="17.8515485">
        <ele>6.86646</ele>
        <time>2013-05-26T10:31:13Z</time>
      </trkpt>
      <trkpt lat="59.8345795" lon="17.8514656">
        <ele>5.42456</ele>
        <time>2013-05-26T10:31:14Z</time>
      </trkpt>
      <trkpt lat="59.8345018" lon="17.851391">
        <ele>4.94385</ele>
        <time>2013-05-26T10:31:15Z</time>
      </trkpt>
      <trkpt lat="59.83442" lon="17.8513216">
        <ele>4.46326</ele>
        <time>2013-05-26T10:31:16Z</time>
      </trkpt>
      <trkpt lat="59.8343362" lon="17.8512564">
        <ele>3.50195</ele>
        <time>2013-05-26T10:31:17Z</time>
      </trkpt>
      <trkpt lat="59.8342517" lon="17.8511904">
        <ele>3.02124</ele>
        <time>2013-05-26T10:31:18Z</time>
      </trkpt>
      <trkpt lat="59.8341686" lon="17.8511173">
        <ele>3.02124</ele>
        <time>2013-05-26T10:31:19Z</time>
      </trkpt>
      <trkpt lat="59.8340875" lon="17.8510306">
        <ele>3.02124</ele>
        <time>2013-05-26T10:31:20Z</time>
      </trkpt>
      <trkpt lat="59.8340071" lon="17.8509371">
        <ele>2.54065</ele>
        <time>2013-05-26T10:31:21Z</time>
      </trkpt>
      <trkpt lat="59.8339276" lon="17.8508374">
        <ele>2.54065</ele>
        <time>2013-05-26T10:31:22Z</time>
      </trkpt>
      <trkpt lat="59.8338478" lon="17.8507275">
        <ele>3.02124</ele>
        <time>2013-05-26T10:31:23Z</time>
      </trkpt>
      <trkpt lat="59.8337691" lon="17.8506093">
        <ele>3.02124</ele>
        <time>2013-05-26T10:31:24Z</time>
      </trkpt>
      <trkpt lat="59.8336883" lon="17.8504789">
        <ele>3.98267</ele>
        <time>2013-05-26T10:31:25Z</time>
      </trkpt>
      <trkpt lat="59.8336144" lon="17.8503385">
        <ele>4.46326</ele>
        <time>2013-05-26T10:31:26Z</time>
      </trkpt>
      <trkpt lat="59.8335477" lon="17.8501924">
        <ele>4.94385</ele>
        <time>2013-05-26T10:31:27Z</time>
      </trkpt>
      <trkpt lat="59.8334877" lon="17.8500427">
        <ele>4.94385</ele>
        <time>2013-05-26T10:31:28Z</time>
      </trkpt>
      <trkpt lat="59.8334308" lon="17.8498967">
        <ele>4.94385</ele>
        <time>2013-05-26T10:31:29Z</time>
      </trkpt>
      <trkpt lat="59.8333741" lon="17.8497644">
        <ele>5.42456</ele>
        <time>2013-05-26T10:31:30Z</time>
      </trkpt>
      <trkpt lat="59.8333115" lon="17.84965">
        <ele>5.90527</ele>
        <time>2013-05-26T10:31:31Z</time>
      </trkpt>
      <trkpt lat="59.8332467" lon="17.8495401">
        <ele>6.38586</ele>
        <time>2013-05-26T10:31:32Z</time>
      </trkpt>
      <trkpt lat="59.8331846" lon="17.8494334">
        <ele>6.86646</ele>
        <time>2013-05-26T10:31:33Z</time>
      </trkpt>
      <trkpt lat="59.8331259" lon="17.8493342">
        <ele>7.34717</ele>
        <time>2013-05-26T10:31:34Z</time>
      </trkpt>
      <trkpt lat="59.8330707" lon="17.8492349">
        <ele>7.82788</ele>
        <time>2013-05-26T10:31:35Z</time>
      </trkpt>
      <trkpt lat="59.8330189" lon="17.8491326">
        <ele>8.30859</ele>
        <time>2013-05-26T10:31:36Z</time>
      </trkpt>
      <trkpt lat="59.8329674" lon="17.849032">
        <ele>8.30859</ele>
        <time>2013-05-26T10:31:37Z</time>
      </trkpt>
      <trkpt lat="59.8329143" lon="17.8489384">
        <ele>9.2699</ele>
        <time>2013-05-26T10:31:38Z</time>
      </trkpt>
      <trkpt lat="59.8328629" lon="17.8488438">
        <ele>10.2312</ele>
        <time>2013-05-26T10:31:39Z</time>
      </trkpt>
      <trkpt lat="59.8328127" lon="17.8487495">
        <ele>10.7118</ele>
        <time>2013-05-26T10:31:40Z</time>
      </trkpt>
      <trkpt lat="59.8327634" lon="17.8486565">
        <ele>11.1925</ele>
        <time>2013-05-26T10:31:41Z</time>
      </trkpt>
      <trkpt lat="59.8327152" lon="17.8485574">
        <ele>11.1925</ele>
        <time>2013-05-26T10:31:42Z</time>
      </trkpt>
      <trkpt lat="59.8326683" lon="17.8484555">
        <ele>11.1925</ele>
        <time>2013-05-26T10:31:43Z</time>
      </trkpt>
      <trkpt lat="59.8326242" lon="17.8483479">
        <ele>11.6732</ele>
        <time>2013-05-26T10:31:44Z</time>
      </trkpt>
      <trkpt lat="59.8325831" lon="17.8482359">
        <ele>12.1538</ele>
        <time>2013-05-26T10:31:45Z</time>
      </trkpt>
      <trkpt lat="59.8325432" lon="17.8481231">
        <ele>12.1538</ele>
        <time>2013-05-26T10:31:46Z</time>
      </trkpt>
      <trkpt lat="59.8325029" lon="17.8480084">
        <ele>12.1538</ele>
        <time>2013-05-26T10:31:47Z</time>
      </trkpt>
      <trkpt lat="59.8324655" lon="17.8478929">
        <ele>12.6344</ele>
        <time>2013-05-26T10:31:48Z</time>
      </trkpt>
      <trkpt lat="59.8324309" lon="17.847768">
        <ele>13.1151</ele>
        <time>2013-05-26T10:31:49Z</time>
      </trkpt>
      <trkpt lat="59.8323971" lon="17.8476451">
        <ele>13.5958</ele>
        <time>2013-05-26T10:31:50Z</time>
      </trkpt>
      <trkpt lat="59.8323734" lon="17.8475226">
        <ele>14.557</ele>
        <time>2013-05-26T10:31:51Z</time>
      </trkpt>
      <trkpt lat="59.8323433" lon="17.8473931">
        <ele>14.557</ele>
        <time>2013-05-26T10:31:52Z</time>
      </trkpt>
      <trkpt lat="59.832301" lon="17.8472548">
        <ele>13.5958</ele>
        <time>2013-05-26T10:31:53Z</time>
      </trkpt>
      <trkpt lat="59.8322599" lon="17.8471258">
        <ele>13.1151</ele>
        <time>2013-05-26T10:31:54Z</time>
      </trkpt>
      <trkpt lat="59.8322138" lon="17.8470036">
        <ele>12.1538</ele>
        <time>2013-05-26T10:31:55Z</time>
      </trkpt>
      <trkpt lat="59.8321667" lon="17.8468932">
        <ele>12.1538</ele>
        <time>2013-05-26T10:31:56Z</time>
      </trkpt>
      <trkpt lat="59.8321109" lon="17.8468078">
        <ele>13.5958</ele>
        <time>2013-05-26T10:31:57Z</time>
      </trkpt>
      <trkpt lat="59.832046" lon="17.8467412">
        <ele>14.557</ele>
        <time>2013-05-26T10:31:58Z</time>
      </trkpt>
      <trkpt lat="59.8319829" lon="17.8466904">
        <ele>15.0377</ele>
        <time>2013-05-26T10:31:59Z</time>
      </trkpt>
      <trkpt lat="59.8319138" lon="17.8466498">
        <ele>15.5184</ele>
        <time>2013-05-26T10:32:00Z</time>
      </trkpt>
      <trkpt lat="59.8318456" lon="17.8466081">
        <ele>15.5184</ele>
        <time>2013-05-26T10:32:01Z</time>
      </trkpt>
      <trkpt lat="59.8317781" lon="17.8465677">
        <ele>15.0377</ele>
        <time>2013-05-26T10:32:02Z</time>
      </trkpt>
      <trkpt lat="59.8317109" lon="17.8465285">
        <ele>15.0377</ele>
        <time>2013-05-26T10:32:03Z</time>
      </trkpt>
      <trkpt lat="59.8316456" lon="17.8464869">
        <ele>15.0377</ele>
        <time>2013-05-26T10:32:04Z</time>
      </trkpt>
      <trkpt lat="59.8315778" lon="17.8464439">
        <ele>15.5184</ele>
        <time>2013-05-26T10:32:05Z</time>
      </trkpt>
      <trkpt lat="59.8315125" lon="17.8463955">
        <ele>15.999</ele>
        <time>2013-05-26T10:32:06Z</time>
      </trkpt>
      <trkpt lat="59.8314493" lon="17.8463457">
        <ele>15.999</ele>
        <time>2013-05-26T10:32:07Z</time>
      </trkpt>
      <trkpt lat="59.8313878" lon="17.846288">
        <ele>15.999</ele>
        <time>2013-05-26T10:32:08Z</time>
      </trkpt>
      <trkpt lat="59.8313305" lon="17.8462307">
        <ele>15.999</ele>
        <time>2013-05-26T10:32:09Z</time>
      </trkpt>
      <trkpt lat="59.8312721" lon="17.8461685">
        <ele>15.999</ele>
        <time>2013-05-26T10:32:10Z</time>
      </trkpt>
      <trkpt lat="59.8312157" lon="17.8461074">
        <ele>15.999</ele>
        <time>2013-05-26T10:32:11Z</time>
      </trkpt>
      <trkpt lat="59.8311559" lon="17.8460503">
        <ele>15.999</ele>
        <time>2013-05-26T10:32:12Z</time>
      </trkpt>
      <trkpt lat="59.8310924" lon="17.8459989">
        <ele>15.999</ele>
        <time>2013-05-26T10:32:13Z</time>
      </trkpt>
      <trkpt lat="59.8310267" lon="17.8459505">
        <ele>16.4797</ele>
        <time>2013-05-26T10:32:14Z</time>
      </trkpt>
      <trkpt lat="59.8309608" lon="17.8459022">
        <ele>16.4797</ele>
        <time>2013-05-26T10:32:15Z</time>
      </trkpt>
      <trkpt lat="59.8308933" lon="17.8458608">
        <ele>16.4797</ele>
        <time>2013-05-26T10:32:16Z</time>
      </trkpt>
      <trkpt lat="59.8308244" lon="17.8458013">
        <ele>15.0377</ele>
        <time>2013-05-26T10:32:17Z</time>
      </trkpt>
      <trkpt lat="59.8307602" lon="17.8457452">
        <ele>14.557</ele>
        <time>2013-05-26T10:32:18Z</time>
      </trkpt>
      <trkpt lat="59.8306914" lon="17.8456812">
        <ele>13.1151</ele>
        <time>2013-05-26T10:32:19Z</time>
      </trkpt>
      <trkpt lat="59.8306219" lon="17.8456135">
        <ele>13.1151</ele>
        <time>2013-05-26T10:32:20Z</time>
      </trkpt>
      <trkpt lat="59.8305548" lon="17.8455386">
        <ele>13.5958</ele>
        <time>2013-05-26T10:32:21Z</time>
      </trkpt>
      <trkpt lat="59.830484" lon="17.8454719">
        <ele>13.5958</ele>
        <time>2013-05-26T10:32:22Z</time>
      </trkpt>
      <trkpt lat="59.8304216" lon="17.8453918">
        <ele>13.1151</ele>
        <time>2013-05-26T10:32:23Z</time>
      </trkpt>
      <trkpt lat="59.830364" lon="17.8452971">
        <ele>12.6344</ele>
        <time>2013-05-26T10:32:24Z</time>
      </trkpt>
      <trkpt lat="59.83031" lon="17.8451972">
        <ele>12.6344</ele>
        <time>2013-05-26T10:32:25Z</time>
      </trkpt>
      <trkpt lat="59.8302584" lon="17.8450858">
        <ele>12.6344</ele>
        <time>2013-05-26T10:32:26Z</time>
      </trkpt>
      <trkpt lat="59.8302051" lon="17.8449722">
        <ele>12.6344</ele>
        <time>2013-05-26T10:32:27Z</time>
      </trkpt>
      <trkpt lat="59.8301548" lon="17.8448497">
        <ele>12.1538</ele>
        <time>2013-05-26T10:32:28Z</time>
      </trkpt>
      <trkpt lat="59.8301054" lon="17.8447244">
        <ele>11.6732</ele>
        <time>2013-05-26T10:32:29Z</time>
      </trkpt>
      <trkpt lat="59.8300584" lon="17.8445895">
        <ele>10.2312</ele>
        <time>2013-05-26T10:32:30Z</time>
      </trkpt>
      <trkpt lat="59.8300119" lon="17.8444469">
        <ele>7.34717</ele>
        <time>2013-05-26T10:32:31Z</time>
      </trkpt>
      <trkpt lat="59.8299548" lon="17.8442968">
        <ele>5.90527</ele>
        <time>2013-05-26T10:32:32Z</time>
      </trkpt>
      <trkpt lat="59.8298925" lon="17.8441591">
        <ele>5.42456</ele>
        <time>2013-05-26T10:32:33Z</time>
      </trkpt>
      <trkpt lat="59.8298236" lon="17.8440291">
        <ele>6.38586</ele>
        <time>2013-05-26T10:32:34Z</time>
      </trkpt>
      <trkpt lat="59.8297539" lon="17.843912">
        <ele>6.86646</ele>
        <time>2013-05-26T10:32:35Z</time>
      </trkpt>
      <trkpt lat="59.8296896" lon="17.8438007">
        <ele>7.34717</ele>
        <time>2013-05-26T10:32:36Z</time>
      </trkpt>
      <trkpt lat="59.8296296" lon="17.8436919">
        <ele>7.34717</ele>
        <time>2013-05-26T10:32:37Z</time>
      </trkpt>
      <trkpt lat="59.829572" lon="17.8435836">
        <ele>8.30859</ele>
        <time>2013-05-26T10:32:38Z</time>
      </trkpt>
      <trkpt lat="59.8295186" lon="17.8434728">
        <ele>8.78918</ele>
        <time>2013-05-26T10:32:39Z</time>
      </trkpt>
      <trkpt lat="59.829469" lon="17.8433545">
        <ele>8.78918</ele>
        <time>2013-05-26T10:32:40Z</time>
      </trkpt>
      <trkpt lat="59.8294198" lon="17.8432355">
        <ele>8.78918</ele>
        <time>2013-05-26T10:32:41Z</time>
      </trkpt>
      <trkpt lat="59.8293688" lon="17.8431179">
        <ele>8.78918</ele>
        <time>2013-05-26T10:32:42Z</time>
      </trkpt>
      <trkpt lat="59.8293128" lon="17.8430072">
        <ele>9.2699</ele>
        <time>2013-05-26T10:32:43Z</time>
      </trkpt>
      <trkpt lat="59.8292492" lon="17.8429098">
        <ele>9.75061</ele>
        <time>2013-05-26T10:32:44Z</time>
      </trkpt>
      <trkpt lat="59.8291847" lon="17.8428299">
        <ele>11.1925</ele>
        <time>2013-05-26T10:32:45Z</time>
      </trkpt>
      <trkpt lat="59.8291191" lon="17.8427579">
        <ele>11.6732</ele>
        <time>2013-05-26T10:32:46Z</time>
      </trkpt>
      <trkpt lat="59.8290549" lon="17.8426987">
        <ele>12.1538</ele>
        <time>2013-05-26T10:32:47Z</time>
      </trkpt>
      <trkpt lat="59.8289935" lon="17.8426486">
        <ele>12.6344</ele>
        <time>2013-05-26T10:32:48Z</time>
      </trkpt>
      <trkpt lat="59.8289334" lon="17.8426175">
        <ele>13.5958</ele>
        <time>2013-05-26T10:32:49Z</time>
      </trkpt>
      <trkpt lat="59.828877" lon="17.842588">
        <ele>14.0764</ele>
        <time>2013-05-26T10:32:50Z</time>
      </trkpt>
      <trkpt lat="59.8288247" lon="17.8425635">
        <ele>15.0377</ele>
        <time>2013-05-26T10:32:51Z</time>
      </trkpt>
      <trkpt lat="59.828771" lon="17.8425471">
        <ele>15.5184</ele>
        <time>2013-05-26T10:32:52Z</time>
      </trkpt>
      <trkpt lat="59.8287123" lon="17.84253">
        <ele>16.4797</ele>
        <time>2013-05-26T10:32:53Z</time>
      </trkpt>
      <trkpt lat="59.828654" lon="17.8425269">
        <ele>17.4412</ele>
        <time>2013-05-26T10:32:54Z</time>
      </trkpt>
      <trkpt lat="59.8285954" lon="17.8425258">
        <ele>17.9218</ele>
        <time>2013-05-26T10:32:55Z</time>
      </trkpt>
      <trkpt lat="59.8285369" lon="17.8425238">
        <ele>18.4023</ele>
        <time>2013-05-26T10:32:56Z</time>
      </trkpt>
      <trkpt lat="59.8284785" lon="17.842528">
        <ele>19.3638</ele>
        <time>2013-05-26T10:32:57Z</time>
      </trkpt>
      <trkpt lat="59.8284205" lon="17.8425262">
        <ele>19.8444</ele>
        <time>2013-05-26T10:32:58Z</time>
      </trkpt>
      <trkpt lat="59.828363" lon="17.8425142">
        <ele>20.8057</ele>
        <time>2013-05-26T10:32:59Z</time>
      </trkpt>
      <trkpt lat="59.8283106" lon="17.8424792">
        <ele>21.2864</ele>
        <time>2013-05-26T10:33:00Z</time>
      </trkpt>
      <trkpt lat="59.8282634" lon="17.8424263">
        <ele>21.2864</ele>
        <time>2013-05-26T10:33:01Z</time>
      </trkpt>
      <trkpt lat="59.8282251" lon="17.8423537">
        <ele>21.767</ele>
        <time>2013-05-26T10:33:02Z</time>
      </trkpt>
      <trkpt lat="59.8281944" lon="17.8422668">
        <ele>22.7283</ele>
        <time>2013-05-26T10:33:03Z</time>
      </trkpt>
      <trkpt lat="59.8281667" lon="17.8421741">
        <ele>23.209</ele>
        <time>2013-05-26T10:33:04Z</time>
      </trkpt>
      <trkpt lat="59.8281356" lon="17.8420888">
        <ele>23.209</ele>
        <time>2013-05-26T10:33:05Z</time>
      </trkpt>
      <trkpt lat="59.8281031" lon="17.8420177">
        <ele>23.6896</ele>
        <time>2013-05-26T10:33:06Z</time>
      </trkpt>
      <trkpt lat="59.828071" lon="17.8419555">
        <ele>24.1703</ele>
        <time>2013-05-26T10:33:07Z</time>
      </trkpt>
      <trkpt lat="59.8280347" lon="17.8418992">
        <ele>24.651</ele>
        <time>2013-05-26T10:33:08Z</time>
      </trkpt>
      <trkpt lat="59.8279925" lon="17.8418514">
        <ele>25.1317</ele>
        <time>2013-05-26T10:33:09Z</time>
      </trkpt>
      <trkpt lat="59.8279485" lon="17.8418168">
        <ele>25.6123</ele>
        <time>2013-05-26T10:33:10Z</time>
      </trkpt>
      <trkpt lat="59.8279088" lon="17.8417908">
        <ele>26.0929</ele>
        <time>2013-05-26T10:33:11Z</time>
      </trkpt>
      <trkpt lat="59.827871" lon="17.8417773">
        <ele>27.0543</ele>
        <time>2013-05-26T10:33:12Z</time>
      </trkpt>
      <trkpt lat="59.827831" lon="17.8417577">
        <ele>27.5349</ele>
        <time>2013-05-26T10:33:13Z</time>
      </trkpt>
      <trkpt lat="59.8277896" lon="17.8417354">
        <ele>28.4962</ele>
        <time>2013-05-26T10:33:14Z</time>
      </trkpt>
      <trkpt lat="59.8277484" lon="17.8416954">
        <ele>28.0155</ele>
        <time>2013-05-26T10:33:15Z</time>
      </trkpt>
      <trkpt lat="59.8277001" lon="17.8416655">
        <ele>28.4962</ele>
        <time>2013-05-26T10:33:16Z</time>
      </trkpt>
      <trkpt lat="59.8276492" lon="17.841628">
        <ele>28.9769</ele>
        <time>2013-05-26T10:33:17Z</time>
      </trkpt>
      <trkpt lat="59.8275978" lon="17.841585">
        <ele>28.9769</ele>
        <time>2013-05-26T10:33:18Z</time>
      </trkpt>
      <trkpt lat="59.827544" lon="17.8415448">
        <ele>28.9769</ele>
        <time>2013-05-26T10:33:19Z</time>
      </trkpt>
      <trkpt lat="59.8274902" lon="17.8415003">
        <ele>28.4962</ele>
        <time>2013-05-26T10:33:20Z</time>
      </trkpt>
      <trkpt lat="59.8274368" lon="17.8414525">
        <ele>28.0155</ele>
        <time>2013-05-26T10:33:21Z</time>
      </trkpt>
      <trkpt lat="59.8273823" lon="17.8414071">
        <ele>28.4962</ele>
        <time>2013-05-26T10:33:22Z</time>
      </trkpt>
      <trkpt lat="59.827328" lon="17.8413589">
        <ele>28.4962</ele>
        <time>2013-05-26T10:33:23Z</time>
      </trkpt>
      <trkpt lat="59.8272736" lon="17.8413131">
        <ele>28.0155</ele>
        <time>2013-05-26T10:33:24Z</time>
      </trkpt>
      <trkpt lat="59.8272206" lon="17.8412629">
        <ele>27.5349</ele>
        <time>2013-05-26T10:33:25Z</time>
      </trkpt>
      <trkpt lat="59.827169" lon="17.8412179">
        <ele>27.5349</ele>
        <time>2013-05-26T10:33:26Z</time>
      </trkpt>
      <trkpt lat="59.8271161" lon="17.8411821">
        <ele>28.0155</ele>
        <time>2013-05-26T10:33:27Z</time>
      </trkpt>
      <trkpt lat="59.8270637" lon="17.8411455">
        <ele>28.4962</ele>
        <time>2013-05-26T10:33:28Z</time>
      </trkpt>
      <trkpt lat="59.8270144" lon="17.8411073">
        <ele>28.4962</ele>
        <time>2013-05-26T10:33:29Z</time>
      </trkpt>
      <trkpt lat="59.8269664" lon="17.8410722">
        <ele>28.4962</ele>
        <time>2013-05-26T10:33:30Z</time>
      </trkpt>
      <trkpt lat="59.8269204" lon="17.8410412">
        <ele>28.9769</ele>
        <time>2013-05-26T10:33:31Z</time>
      </trkpt>
      <trkpt lat="59.8268787" lon="17.8410163">
        <ele>29.4575</ele>
        <time>2013-05-26T10:33:32Z</time>
      </trkpt>
      <trkpt lat="59.8268381" lon="17.8409957">
        <ele>29.4575</ele>
        <time>2013-05-26T10:33:33Z</time>
      </trkpt>
      <trkpt lat="59.8267984" lon="17.840984">
        <ele>30.4188</ele>
        <time>2013-05-26T10:33:34Z</time>
      </trkpt>
      <trkpt lat="59.8267592" lon="17.8409765">
        <ele>30.4188</ele>
        <time>2013-05-26T10:33:35Z</time>
      </trkpt>
      <trkpt lat="59.8267194" lon="17.8409698">
        <ele>30.8995</ele>
        <time>2013-05-26T10:33:36Z</time>
      </trkpt>
      <trkpt lat="59.8266793" lon="17.8409695">
        <ele>31.3801</ele>
        <time>2013-05-26T10:33:37Z</time>
      </trkpt>
      <trkpt lat="59.8266401" lon="17.84098">
        <ele>31.8607</ele>
        <time>2013-05-26T10:33:38Z</time>
      </trkpt>
      <trkpt lat="59.8266007" lon="17.8409973">
        <ele>32.8223</ele>
        <time>2013-05-26T10:33:39Z</time>
      </trkpt>
      <trkpt lat="59.8265635" lon="17.8410138">
        <ele>33.3029</ele>
        <time>2013-05-26T10:33:40Z</time>
      </trkpt>
      <trkpt lat="59.8265246" lon="17.8410372">
        <ele>33.7834</ele>
        <time>2013-05-26T10:33:41Z</time>
      </trkpt>
      <trkpt lat="59.8264871" lon="17.8410707">
        <ele>34.2642</ele>
        <time>2013-05-26T10:33:42Z</time>
      </trkpt>
      <trkpt lat="59.8264513" lon="17.8411179">
        <ele>35.2255</ele>
        <time>2013-05-26T10:33:43Z</time>
      </trkpt>
      <trkpt lat="59.8264157" lon="17.8411693">
        <ele>36.1868</ele>
        <time>2013-05-26T10:33:44Z</time>
      </trkpt>
      <trkpt lat="59.826379" lon="17.8412081">
        <ele>35.7061</ele>
        <time>2013-05-26T10:33:45Z</time>
      </trkpt>
      <trkpt lat="59.8263401" lon="17.8412448">
        <ele>35.7061</ele>
        <time>2013-05-26T10:33:46Z</time>
      </trkpt>
      <trkpt lat="59.8263003" lon="17.8412841">
        <ele>35.7061</ele>
        <time>2013-05-26T10:33:47Z</time>
      </trkpt>
      <trkpt lat="59.8262614" lon="17.8413256">
        <ele>35.7061</ele>
        <time>2013-05-26T10:33:48Z</time>
      </trkpt>
      <trkpt lat="59.826223" lon="17.8413639">
        <ele>35.2255</ele>
        <time>2013-05-26T10:33:49Z</time>
      </trkpt>
      <trkpt lat="59.8261838" lon="17.8414001">
        <ele>35.7061</ele>
        <time>2013-05-26T10:33:50Z</time>
      </trkpt>
      <trkpt lat="59.8261437" lon="17.8414332">
        <ele>35.7061</ele>
        <time>2013-05-26T10:33:51Z</time>
      </trkpt>
      <trkpt lat="59.8261041" lon="17.8414694">
        <ele>35.7061</ele>
        <time>2013-05-26T10:33:52Z</time>
      </trkpt>
      <trkpt lat="59.8260641" lon="17.8415063">
        <ele>36.1868</ele>
        <time>2013-05-26T10:33:53Z</time>
      </trkpt>
      <trkpt lat="59.8260226" lon="17.8415448">
        <ele>36.1868</ele>
        <time>2013-05-26T10:33:54Z</time>
      </trkpt>
      <trkpt lat="59.8259812" lon="17.8415863">
        <ele>36.6675</ele>
        <time>2013-05-26T10:33:55Z</time>
      </trkpt>
      <trkpt lat="59.8259391" lon="17.8416267">
        <ele>36.6675</ele>
        <time>2013-05-26T10:33:56Z</time>
      </trkpt>
      <trkpt lat="59.8258969" lon="17.8416685">
        <ele>36.6675</ele>
        <time>2013-05-26T10:33:57Z</time>
      </trkpt>
      <trkpt lat="59.8258544" lon="17.8417103">
        <ele>36.6675</ele>
        <time>2013-05-26T10:33:58Z</time>
      </trkpt>
      <trkpt lat="59.8258121" lon="17.8417538">
        <ele>36.6675</ele>
        <time>2013-05-26T10:33:59Z</time>
      </trkpt>
      <trkpt lat="59.8257694" lon="17.8417997">
        <ele>36.6675</ele>
        <time>2013-05-26T10:34:00Z</time>
      </trkpt>
      <trkpt lat="59.8257243" lon="17.8418514">
        <ele>37.1481</ele>
        <time>2013-05-26T10:34:01Z</time>
      </trkpt>
      <trkpt lat="59.8256767" lon="17.8419079">
        <ele>37.1481</ele>
        <time>2013-05-26T10:34:02Z</time>
      </trkpt>
      <trkpt lat="59.8256278" lon="17.8419529">
        <ele>37.1481</ele>
        <time>2013-05-26T10:34:03Z</time>
      </trkpt>
      <trkpt lat="59.8255796" lon="17.8419985">
        <ele>37.1481</ele>
        <time>2013-05-26T10:34:04Z</time>
      </trkpt>
      <trkpt lat="59.8255329" lon="17.8420446">
        <ele>37.1481</ele>
        <time>2013-05-26T10:34:05Z</time>
      </trkpt>
      <trkpt lat="59.8254858" lon="17.8420905">
        <ele>37.1481</ele>
        <time>2013-05-26T10:34:06Z</time>
      </trkpt>
      <trkpt lat="59.8254362" lon="17.8421333">
        <ele>37.6287</ele>
        <time>2013-05-26T10:34:07Z</time>
      </trkpt>
      <trkpt lat="59.8253845" lon="17.8421715">
        <ele>37.6287</ele>
        <time>2013-05-26T10:34:08Z</time>
      </trkpt>
      <trkpt lat="59.8253319" lon="17.842213">
        <ele>38.1094</ele>
        <time>2013-05-26T10:34:09Z</time>
      </trkpt>
      <trkpt lat="59.8252781" lon="17.8422545">
        <ele>38.5901</ele>
        <time>2013-05-26T10:34:10Z</time>
      </trkpt>
      <trkpt lat="59.825224" lon="17.8422917">
        <ele>39.0707</ele>
        <time>2013-05-26T10:34:11Z</time>
      </trkpt>
      <trkpt lat="59.8251689" lon="17.8423236">
        <ele>39.5513</ele>
        <time>2013-05-26T10:34:12Z</time>
      </trkpt>
      <trkpt lat="59.8251125" lon="17.8423457">
        <ele>39.5513</ele>
        <time>2013-05-26T10:34:13Z</time>
      </trkpt>
      <trkpt lat="59.8250558" lon="17.8423615">
        <ele>40.0321</ele>
        <time>2013-05-26T10:34:14Z</time>
      </trkpt>
      <trkpt lat="59.8250006" lon="17.8423621">
        <ele>39.5513</ele>
        <time>2013-05-26T10:34:15Z</time>
      </trkpt>
      <trkpt lat="59.8249487" lon="17.8423585">
        <ele>40.0321</ele>
        <time>2013-05-26T10:34:16Z</time>
      </trkpt>
      <trkpt lat="59.8249011" lon="17.8423466">
        <ele>40.5128</ele>
        <time>2013-05-26T10:34:17Z</time>
      </trkpt>
      <trkpt lat="59.8248554" lon="17.8423272">
        <ele>40.9934</ele>
        <time>2013-05-26T10:34:18Z</time>
      </trkpt>
      <trkpt lat="59.8248131" lon="17.8423057">
        <ele>40.9934</ele>
        <time>2013-05-26T10:34:19Z</time>
      </trkpt>
      <trkpt lat="59.8247726" lon="17.8422913">
        <ele>40.9934</ele>
        <time>2013-05-26T10:34:20Z</time>
      </trkpt>
      <trkpt lat="59.8247316" lon="17.8422751">
        <ele>40.5128</ele>
        <time>2013-05-26T10:34:21Z</time>
      </trkpt>
      <trkpt lat="59.824687" lon="17.8422726">
        <ele>40.0321</ele>
        <time>2013-05-26T10:34:22Z</time>
      </trkpt>
      <trkpt lat="59.8246395" lon="17.8422777">
        <ele>40.0321</ele>
        <time>2013-05-26T10:34:23Z</time>
      </trkpt>
      <trkpt lat="59.8245877" lon="17.8422767">
        <ele>40.0321</ele>
        <time>2013-05-26T10:34:24Z</time>
      </trkpt>
      <trkpt lat="59.8245298" lon="17.8422792">
        <ele>40.0321</ele>
        <time>2013-05-26T10:34:25Z</time>
      </trkpt>
      <trkpt lat="59.8244661" lon="17.8422849">
        <ele>40.5128</ele>
        <time>2013-05-26T10:34:26Z</time>
      </trkpt>
      <trkpt lat="59.8243991" lon="17.8422859">
        <ele>40.0321</ele>
        <time>2013-05-26T10:34:27Z</time>
      </trkpt>
      <trkpt lat="59.8243272" lon="17.8422828">
        <ele>39.5513</ele>
        <time>2013-05-26T10:34:28Z</time>
      </trkpt>
      <trkpt lat="59.8242546" lon="17.8422725">
        <ele>38.5901</ele>
        <time>2013-05-26T10:34:29Z</time>
      </trkpt>
      <trkpt lat="59.8241817" lon="17.8422587">
        <ele>38.1094</ele>
        <time>2013-05-26T10:34:30Z</time>
      </trkpt>
      <trkpt lat="59.8241075" lon="17.8422503">
        <ele>38.1094</ele>
        <time>2013-05-26T10:34:31Z</time>
      </trkpt>
      <trkpt lat="59.8240346" lon="17.842244">
        <ele>38.5901</ele>
        <time>2013-05-26T10:34:32Z</time>
      </trkpt>
      <trkpt lat="59.8239625" lon="17.842241">
        <ele>38.5901</ele>
        <time>2013-05-26T10:34:33Z</time>
      </trkpt>
      <trkpt lat="59.8238899" lon="17.8422433">
        <ele>38.5901</ele>
        <time>2013-05-26T10:34:34Z</time>
      </trkpt>
      <trkpt lat="59.8238173" lon="17.842255">
        <ele>39.0707</ele>
        <time>2013-05-26T10:34:35Z</time>
      </trkpt>
      <trkpt lat="59.8237451" lon="17.8422819">
        <ele>39.5513</ele>
        <time>2013-05-26T10:34:36Z</time>
      </trkpt>
      <trkpt lat="59.8236755" lon="17.8423223">
        <ele>40.5128</ele>
        <time>2013-05-26T10:34:37Z</time>
      </trkpt>
      <trkpt lat="59.8236087" lon="17.842375">
        <ele>41.474</ele>
        <time>2013-05-26T10:34:38Z</time>
      </trkpt>
      <trkpt lat="59.8235465" lon="17.842441">
        <ele>41.9547</ele>
        <time>2013-05-26T10:34:39Z</time>
      </trkpt>
      <trkpt lat="59.8234906" lon="17.8425118">
        <ele>42.4354</ele>
        <time>2013-05-26T10:34:40Z</time>
      </trkpt>
      <trkpt lat="59.8234397" lon="17.8425865">
        <ele>42.916</ele>
        <time>2013-05-26T10:34:41Z</time>
      </trkpt>
      <trkpt lat="59.8233938" lon="17.8426639">
        <ele>43.8773</ele>
        <time>2013-05-26T10:34:42Z</time>
      </trkpt>
      <trkpt lat="59.8233516" lon="17.8427407">
        <ele>44.358</ele>
        <time>2013-05-26T10:34:43Z</time>
      </trkpt>
      <trkpt lat="59.8233102" lon="17.8428107">
        <ele>44.358</ele>
        <time>2013-05-26T10:34:44Z</time>
      </trkpt>
      <trkpt lat="59.8232688" lon="17.8428715">
        <ele>44.8386</ele>
        <time>2013-05-26T10:34:45Z</time>
      </trkpt>
      <trkpt lat="59.8232264" lon="17.8429241">
        <ele>44.8386</ele>
        <time>2013-05-26T10:34:46Z</time>
      </trkpt>
      <trkpt lat="59.8231823" lon="17.842968">
        <ele>45.3192</ele>
        <time>2013-05-26T10:34:47Z</time>
      </trkpt>
      <trkpt lat="59.8231361" lon="17.8430019">
        <ele>45.7999</ele>
        <time>2013-05-26T10:34:48Z</time>
      </trkpt>
      <trkpt lat="59.8230879" lon="17.8430281">
        <ele>46.2806</ele>
        <time>2013-05-26T10:34:49Z</time>
      </trkpt>
      <trkpt lat="59.8230389" lon="17.8430464">
        <ele>46.7612</ele>
        <time>2013-05-26T10:34:50Z</time>
      </trkpt>
      <trkpt lat="59.822991" lon="17.8430613">
        <ele>47.2418</ele>
        <time>2013-05-26T10:34:51Z</time>
      </trkpt>
      <trkpt lat="59.8229439" lon="17.8430723">
        <ele>47.2418</ele>
        <time>2013-05-26T10:34:52Z</time>
      </trkpt>
      <trkpt lat="59.8228964" lon="17.8430854">
        <ele>48.2034</ele>
        <time>2013-05-26T10:34:53Z</time>
      </trkpt>
      <trkpt lat="59.8228486" lon="17.843096">
        <ele>48.2034</ele>
        <time>2013-05-26T10:34:54Z</time>
      </trkpt>
      <trkpt lat="59.8228007" lon="17.8431043">
        <ele>48.684</ele>
        <time>2013-05-26T10:34:55Z</time>
      </trkpt>
      <trkpt lat="59.8227525" lon="17.8431107">
        <ele>49.1646</ele>
        <time>2013-05-26T10:34:56Z</time>
      </trkpt>
      <trkpt lat="59.8227037" lon="17.8431117">
        <ele>49.6453</ele>
        <time>2013-05-26T10:34:57Z</time>
      </trkpt>
      <trkpt lat="59.8226529" lon="17.8431076">
        <ele>49.6453</ele>
        <time>2013-05-26T10:34:58Z</time>
      </trkpt>
      <trkpt lat="59.8225999" lon="17.8431045">
        <ele>50.6066</ele>
        <time>2013-05-26T10:34:59Z</time>
      </trkpt>
      <trkpt lat="59.8225473" lon="17.8430954">
        <ele>50.6066</ele>
        <time>2013-05-26T10:35:00Z</time>
      </trkpt>
      <trkpt lat="59.8224939" lon="17.8430812">
        <ele>51.0872</ele>
        <time>2013-05-26T10:35:01Z</time>
      </trkpt>
      <trkpt lat="59.8224401" lon="17.843063">
        <ele>51.5679</ele>
        <time>2013-05-26T10:35:02Z</time>
      </trkpt>
      <trkpt lat="59.822386" lon="17.8430439">
        <ele>52.0486</ele>
        <time>2013-05-26T10:35:03Z</time>
      </trkpt>
      <trkpt lat="59.8223314" lon="17.84302">
        <ele>51.0872</ele>
        <time>2013-05-26T10:35:04Z</time>
      </trkpt>
      <trkpt lat="59.8222762" lon="17.8430056">
        <ele>51.0872</ele>
        <time>2013-05-26T10:35:05Z</time>
      </trkpt>
      <trkpt lat="59.8222207" lon="17.8429901">
        <ele>50.6066</ele>
        <time>2013-05-26T10:35:06Z</time>
      </trkpt>
      <trkpt lat="59.822164" lon="17.8429763">
        <ele>50.126</ele>
        <time>2013-05-26T10:35:07Z</time>
      </trkpt>
      <trkpt lat="59.822104" lon="17.8429703">
        <ele>50.126</ele>
        <time>2013-05-26T10:35:08Z</time>
      </trkpt>
      <trkpt lat="59.8220448" lon="17.8429599">
        <ele>49.6453</ele>
        <time>2013-05-26T10:35:09Z</time>
      </trkpt>
      <trkpt lat="59.8219826" lon="17.8429546">
        <ele>50.126</ele>
        <time>2013-05-26T10:35:10Z</time>
      </trkpt>
      <trkpt lat="59.8219198" lon="17.8429461">
        <ele>50.126</ele>
        <time>2013-05-26T10:35:11Z</time>
      </trkpt>
      <trkpt lat="59.8218578" lon="17.842932">
        <ele>50.6066</ele>
        <time>2013-05-26T10:35:12Z</time>
      </trkpt>
      <trkpt lat="59.8217971" lon="17.8429098">
        <ele>50.126</ele>
        <time>2013-05-26T10:35:13Z</time>
      </trkpt>
      <trkpt lat="59.8217352" lon="17.8428852">
        <ele>50.126</ele>
        <time>2013-05-26T10:35:14Z</time>
      </trkpt>
      <trkpt lat="59.8216727" lon="17.84286">
        <ele>49.1646</ele>
        <time>2013-05-26T10:35:15Z</time>
      </trkpt>
      <trkpt lat="59.8216076" lon="17.8428433">
        <ele>48.684</ele>
        <time>2013-05-26T10:35:16Z</time>
      </trkpt>
      <trkpt lat="59.8215398" lon="17.8428393">
        <ele>47.7225</ele>
        <time>2013-05-26T10:35:17Z</time>
      </trkpt>
      <trkpt lat="59.82147" lon="17.8428393">
        <ele>47.2418</ele>
        <time>2013-05-26T10:35:18Z</time>
      </trkpt>
      <trkpt lat="59.8213931" lon="17.8428425">
        <ele>47.2418</ele>
        <time>2013-05-26T10:35:19Z</time>
      </trkpt>
      <trkpt lat="59.821314" lon="17.8428391">
        <ele>47.2418</ele>
        <time>2013-05-26T10:35:20Z</time>
      </trkpt>
      <trkpt lat="59.8212331" lon="17.842833">
        <ele>47.7225</ele>
        <time>2013-05-26T10:35:21Z</time>
      </trkpt>
      <trkpt lat="59.8211533" lon="17.8428159">
        <ele>47.7225</ele>
        <time>2013-05-26T10:35:22Z</time>
      </trkpt>
      <trkpt lat="59.8210726" lon="17.8427967">
        <ele>47.7225</ele>
        <time>2013-05-26T10:35:23Z</time>
      </trkpt>
      <trkpt lat="59.8209928" lon="17.8427759">
        <ele>47.7225</ele>
        <time>2013-05-26T10:35:24Z</time>
      </trkpt>
      <trkpt lat="59.8209174" lon="17.8427481">
        <ele>47.7225</ele>
        <time>2013-05-26T10:35:25Z</time>
      </trkpt>
      <trkpt lat="59.8208411" lon="17.8427096">
        <ele>46.7612</ele>
        <time>2013-05-26T10:35:26Z</time>
      </trkpt>
      <trkpt lat="59.8207667" lon="17.8426674">
        <ele>45.7999</ele>
        <time>2013-05-26T10:35:27Z</time>
      </trkpt>
      <trkpt lat="59.8206919" lon="17.8426061">
        <ele>44.358</ele>
        <time>2013-05-26T10:35:28Z</time>
      </trkpt>
      <trkpt lat="59.8206135" lon="17.8425425">
        <ele>43.3966</ele>
        <time>2013-05-26T10:35:29Z</time>
      </trkpt>
      <trkpt lat="59.8205332" lon="17.842489">
        <ele>42.916</ele>
        <time>2013-05-26T10:35:30Z</time>
      </trkpt>
      <trkpt lat="59.8204526" lon="17.8424497">
        <ele>42.916</ele>
        <time>2013-05-26T10:35:31Z</time>
      </trkpt>
      <trkpt lat="59.8203727" lon="17.8424224">
        <ele>42.916</ele>
        <time>2013-05-26T10:35:32Z</time>
      </trkpt>
      <trkpt lat="59.8202933" lon="17.8424072">
        <ele>42.916</ele>
        <time>2013-05-26T10:35:33Z</time>
      </trkpt>
      <trkpt lat="59.8202142" lon="17.8424032">
        <ele>43.3966</ele>
        <time>2013-05-26T10:35:34Z</time>
      </trkpt>
      <trkpt lat="59.8201386" lon="17.8423922">
        <ele>43.3966</ele>
        <time>2013-05-26T10:35:35Z</time>
      </trkpt>
      <trkpt lat="59.8200627" lon="17.8423806">
        <ele>43.8773</ele>
        <time>2013-05-26T10:35:36Z</time>
      </trkpt>
      <trkpt lat="59.8199899" lon="17.8423566">
        <ele>43.3966</ele>
        <time>2013-05-26T10:35:37Z</time>
      </trkpt>
      <trkpt lat="59.8199197" lon="17.842314">
        <ele>43.3966</ele>
        <time>2013-05-26T10:35:38Z</time>
      </trkpt>
      <trkpt lat="59.8198468" lon="17.8422632">
        <ele>43.3966</ele>
        <time>2013-05-26T10:35:39Z</time>
      </trkpt>
      <trkpt lat="59.8197745" lon="17.8422055">
        <ele>43.3966</ele>
        <time>2013-05-26T10:35:40Z</time>
      </trkpt>
      <trkpt lat="59.8197023" lon="17.842138">
        <ele>42.916</ele>
        <time>2013-05-26T10:35:41Z</time>
      </trkpt>
      <trkpt lat="59.8196283" lon="17.8420625">
        <ele>42.4354</ele>
        <time>2013-05-26T10:35:42Z</time>
      </trkpt>
      <trkpt lat="59.8195518" lon="17.8419856">
        <ele>41.9547</ele>
        <time>2013-05-26T10:35:43Z</time>
      </trkpt>
      <trkpt lat="59.8194713" lon="17.8419121">
        <ele>41.474</ele>
        <time>2013-05-26T10:35:44Z</time>
      </trkpt>
      <trkpt lat="59.8193904" lon="17.8418456">
        <ele>41.474</ele>
        <time>2013-05-26T10:35:45Z</time>
      </trkpt>
      <trkpt lat="59.8193076" lon="17.8417871">
        <ele>40.9934</ele>
        <time>2013-05-26T10:35:46Z</time>
      </trkpt>
      <trkpt lat="59.8192125" lon="17.8417395">
        <ele>40.5128</ele>
        <time>2013-05-26T10:35:47Z</time>
      </trkpt>
      <trkpt lat="59.8191187" lon="17.8417004">
        <ele>40.5128</ele>
        <time>2013-05-26T10:35:48Z</time>
      </trkpt>
      <trkpt lat="59.8190231" lon="17.8416707">
        <ele>40.5128</ele>
        <time>2013-05-26T10:35:49Z</time>
      </trkpt>
      <trkpt lat="59.8189236" lon="17.8416424">
        <ele>40.5128</ele>
        <time>2013-05-26T10:35:50Z</time>
      </trkpt>
      <trkpt lat="59.8188226" lon="17.8416276">
        <ele>40.9934</ele>
        <time>2013-05-26T10:35:51Z</time>
      </trkpt>
      <trkpt lat="59.8187213" lon="17.8416198">
        <ele>40.9934</ele>
        <time>2013-05-26T10:35:52Z</time>
      </trkpt>
      <trkpt lat="59.8186217" lon="17.841623">
        <ele>40.9934</ele>
        <time>2013-05-26T10:35:53Z</time>
      </trkpt>
      <trkpt lat="59.8185237" lon="17.841641">
        <ele>40.9934</ele>
        <time>2013-05-26T10:35:54Z</time>
      </trkpt>
      <trkpt lat="59.8184287" lon="17.8416631">
        <ele>40.9934</ele>
        <time>2013-05-26T10:35:55Z</time>
      </trkpt>
      <trkpt lat="59.8183364" lon="17.8416893">
        <ele>40.9934</ele>
        <time>2013-05-26T10:35:56Z</time>
      </trkpt>
      <trkpt lat="59.8182474" lon="17.8417219">
        <ele>40.9934</ele>
        <time>2013-05-26T10:35:57Z</time>
      </trkpt>
      <trkpt lat="59.8181623" lon="17.8417664">
        <ele>41.474</ele>
        <time>2013-05-26T10:35:58Z</time>
      </trkpt>
      <trkpt lat="59.8180758" lon="17.8417968">
        <ele>40.9934</ele>
        <time>2013-05-26T10:35:59Z</time>
      </trkpt>
      <trkpt lat="59.8179867" lon="17.8418059">
        <ele>40.5128</ele>
        <time>2013-05-26T10:36:00Z</time>
      </trkpt>
      <trkpt lat="59.8178946" lon="17.8417971">
        <ele>40.5128</ele>
        <time>2013-05-26T10:36:01Z</time>
      </trkpt>
      <trkpt lat="59.817799" lon="17.8417627">
        <ele>40.0321</ele>
        <time>2013-05-26T10:36:02Z</time>
      </trkpt>
      <trkpt lat="59.8177055" lon="17.8416955">
        <ele>40.0321</ele>
        <time>2013-05-26T10:36:03Z</time>
      </trkpt>
      <trkpt lat="59.8176217" lon="17.8415911">
        <ele>39.5513</ele>
        <time>2013-05-26T10:36:04Z</time>
      </trkpt>
      <trkpt lat="59.8175567" lon="17.8414566">
        <ele>39.5513</ele>
        <time>2013-05-26T10:36:05Z</time>
      </trkpt>
      <trkpt lat="59.8175072" lon="17.8413023">
        <ele>39.5513</ele>
        <time>2013-05-26T10:36:06Z</time>
      </trkpt>
      <trkpt lat="59.8174588" lon="17.841164">
        <ele>39.0707</ele>
        <time>2013-05-26T10:36:07Z</time>
      </trkpt>
      <trkpt lat="59.8174035" lon="17.8410552">
        <ele>39.0707</ele>
        <time>2013-05-26T10:36:08Z</time>
      </trkpt>
      <trkpt lat="59.8173367" lon="17.8409712">
        <ele>38.5901</ele>
        <time>2013-05-26T10:36:09Z</time>
      </trkpt>
      <trkpt lat="59.8172569" lon="17.8409102">
        <ele>37.6287</ele>
        <time>2013-05-26T10:36:10Z</time>
      </trkpt>
      <trkpt lat="59.8171735" lon="17.8408785">
        <ele>37.1481</ele>
        <time>2013-05-26T10:36:11Z</time>
      </trkpt>
      <trkpt lat="59.817089" lon="17.8408889">
        <ele>36.6675</ele>
        <time>2013-05-26T10:36:12Z</time>
      </trkpt>
      <trkpt lat="59.817002" lon="17.8409455">
        <ele>36.1868</ele>
        <time>2013-05-26T10:36:13Z</time>
      </trkpt>
      <trkpt lat="59.8169112" lon="17.8410033">
        <ele>35.7061</ele>
        <time>2013-05-26T10:36:14Z</time>
      </trkpt>
      <trkpt lat="59.8168156" lon="17.8410558">
        <ele>35.2255</ele>
        <time>2013-05-26T10:36:15Z</time>
      </trkpt>
      <trkpt lat="59.816713" lon="17.8410955">
        <ele>34.7449</ele>
        <time>2013-05-26T10:36:16Z</time>
      </trkpt>
      <trkpt lat="59.8166063" lon="17.8411183">
        <ele>33.7834</ele>
        <time>2013-05-26T10:36:17Z</time>
      </trkpt>
      <trkpt lat="59.8164967" lon="17.841136">
        <ele>32.8223</ele>
        <time>2013-05-26T10:36:18Z</time>
      </trkpt>
      <trkpt lat="59.8163835" lon="17.8411609">
        <ele>31.8607</ele>
        <time>2013-05-26T10:36:19Z</time>
      </trkpt>
      <trkpt lat="59.8162659" lon="17.8411873">
        <ele>30.8995</ele>
        <time>2013-05-26T10:36:20Z</time>
      </trkpt>
      <trkpt lat="59.8161417" lon="17.8412094">
        <ele>29.9381</ele>
        <time>2013-05-26T10:36:21Z</time>
      </trkpt>
      <trkpt lat="59.8160157" lon="17.8412044">
        <ele>29.4575</ele>
        <time>2013-05-26T10:36:22Z</time>
      </trkpt>
      <trkpt lat="59.8158876" lon="17.8411775">
        <ele>28.4962</ele>
        <time>2013-05-26T10:36:23Z</time>
      </trkpt>
      <trkpt lat="59.8157567" lon="17.8411293">
        <ele>28.0155</ele>
        <time>2013-05-26T10:36:24Z</time>
      </trkpt>
      <trkpt lat="59.8156247" lon="17.8410744">
        <ele>28.0155</ele>
        <time>2013-05-26T10:36:25Z</time>
      </trkpt>
      <trkpt lat="59.8154936" lon="17.8410293">
        <ele>28.0155</ele>
        <time>2013-05-26T10:36:26Z</time>
      </trkpt>
      <trkpt lat="59.815363" lon="17.8410091">
        <ele>28.0155</ele>
        <time>2013-05-26T10:36:27Z</time>
      </trkpt>
      <trkpt lat="59.815236" lon="17.8410134">
        <ele>28.0155</ele>
        <time>2013-05-26T10:36:28Z</time>
      </trkpt>
      <trkpt lat="59.815119" lon="17.8410298">
        <ele>28.4962</ele>
        <time>2013-05-26T10:36:29Z</time>
      </trkpt>
      <trkpt lat="59.8150127" lon="17.8410558">
        <ele>29.4575</ele>
        <time>2013-05-26T10:36:30Z</time>
      </trkpt>
      <trkpt lat="59.8149135" lon="17.8410845">
        <ele>30.4188</ele>
        <time>2013-05-26T10:36:31Z</time>
      </trkpt>
      <trkpt lat="59.8148201" lon="17.8411179">
        <ele>30.8995</ele>
        <time>2013-05-26T10:36:32Z</time>
      </trkpt>
      <trkpt lat="59.8147301" lon="17.8411541">
        <ele>31.3801</ele>
        <time>2013-05-26T10:36:33Z</time>
      </trkpt>
      <trkpt lat="59.814643" lon="17.8411924">
        <ele>31.3801</ele>
        <time>2013-05-26T10:36:34Z</time>
      </trkpt>
      <trkpt lat="59.8145559" lon="17.8412312">
        <ele>31.8607</ele>
        <time>2013-05-26T10:36:35Z</time>
      </trkpt>
      <trkpt lat="59.8144683" lon="17.8412736">
        <ele>32.8223</ele>
        <time>2013-05-26T10:36:36Z</time>
      </trkpt>
      <trkpt lat="59.8143814" lon="17.8413063">
        <ele>32.8223</ele>
        <time>2013-05-26T10:36:37Z</time>
      </trkpt>
      <trkpt lat="59.8142947" lon="17.8413194">
        <ele>33.3029</ele>
        <time>2013-05-26T10:36:38Z</time>
      </trkpt>
      <trkpt lat="59.8142094" lon="17.8413147">
        <ele>33.3029</ele>
        <time>2013-05-26T10:36:39Z</time>
      </trkpt>
      <trkpt lat="59.8141259" lon="17.8412976">
        <ele>33.3029</ele>
        <time>2013-05-26T10:36:40Z</time>
      </trkpt>
      <trkpt lat="59.8140436" lon="17.8412708">
        <ele>33.7834</ele>
        <time>2013-05-26T10:36:41Z</time>
      </trkpt>
      <trkpt lat="59.8139639" lon="17.8412344">
        <ele>34.2642</ele>
        <time>2013-05-26T10:36:42Z</time>
      </trkpt>
      <trkpt lat="59.8138857" lon="17.8411881">
        <ele>34.2642</ele>
        <time>2013-05-26T10:36:43Z</time>
      </trkpt>
      <trkpt lat="59.8138084" lon="17.8411427">
        <ele>33.7834</ele>
        <time>2013-05-26T10:36:44Z</time>
      </trkpt>
      <trkpt lat="59.8137311" lon="17.8411037">
        <ele>34.2642</ele>
        <time>2013-05-26T10:36:45Z</time>
      </trkpt>
      <trkpt lat="59.8136549" lon="17.8410735">
        <ele>34.2642</ele>
        <time>2013-05-26T10:36:46Z</time>
      </trkpt>
      <trkpt lat="59.81358" lon="17.8410463">
        <ele>34.2642</ele>
        <time>2013-05-26T10:36:47Z</time>
      </trkpt>
      <trkpt lat="59.8135059" lon="17.8410159">
        <ele>33.7834</ele>
        <time>2013-05-26T10:36:48Z</time>
      </trkpt>
      <trkpt lat="59.8134328" lon="17.8409838">
        <ele>33.7834</ele>
        <time>2013-05-26T10:36:49Z</time>
      </trkpt>
      <trkpt lat="59.8133583" lon="17.8409556">
        <ele>34.2642</ele>
        <time>2013-05-26T10:36:50Z</time>
      </trkpt>
      <trkpt lat="59.8132914" lon="17.8409185">
        <ele>34.2642</ele>
        <time>2013-05-26T10:36:51Z</time>
      </trkpt>
      <trkpt lat="59.8132186" lon="17.8408822">
        <ele>34.7449</ele>
        <time>2013-05-26T10:36:52Z</time>
      </trkpt>
      <trkpt lat="59.8131402" lon="17.8408511">
        <ele>35.2255</ele>
        <time>2013-05-26T10:36:53Z</time>
      </trkpt>
      <trkpt lat="59.8130667" lon="17.840825">
        <ele>35.2255</ele>
        <time>2013-05-26T10:36:54Z</time>
      </trkpt>
      <trkpt lat="59.8129957" lon="17.8408014">
        <ele>35.7061</ele>
        <time>2013-05-26T10:36:55Z</time>
      </trkpt>
      <trkpt lat="59.8129263" lon="17.8407749">
        <ele>36.1868</ele>
        <time>2013-05-26T10:36:56Z</time>
      </trkpt>
      <trkpt lat="59.8128583" lon="17.840747">
        <ele>36.6675</ele>
        <time>2013-05-26T10:36:57Z</time>
      </trkpt>
      <trkpt lat="59.8127937" lon="17.8407049">
        <ele>36.6675</ele>
        <time>2013-05-26T10:36:58Z</time>
      </trkpt>
      <trkpt lat="59.8127294" lon="17.8406486">
        <ele>36.1868</ele>
        <time>2013-05-26T10:36:59Z</time>
      </trkpt>
      <trkpt lat="59.8126693" lon="17.8405869">
        <ele>36.1868</ele>
        <time>2013-05-26T10:37:00Z</time>
      </trkpt>
      <trkpt lat="59.8126176" lon="17.8405227">
        <ele>36.1868</ele>
        <time>2013-05-26T10:37:01Z</time>
      </trkpt>
      <trkpt lat="59.8125688" lon="17.8404688">
        <ele>36.6675</ele>
        <time>2013-05-26T10:37:02Z</time>
      </trkpt>
      <trkpt lat="59.8125212" lon="17.8404207">
        <ele>37.1481</ele>
        <time>2013-05-26T10:37:03Z</time>
      </trkpt>
      <trkpt lat="59.8124767" lon="17.8403772">
        <ele>37.6287</ele>
        <time>2013-05-26T10:37:04Z</time>
      </trkpt>
      <trkpt lat="59.812431" lon="17.840334">
        <ele>37.6287</ele>
        <time>2013-05-26T10:37:05Z</time>
      </trkpt>
      <trkpt lat="59.8123819" lon="17.8402917">
        <ele>38.1094</ele>
        <time>2013-05-26T10:37:06Z</time>
      </trkpt>
      <trkpt lat="59.8123291" lon="17.8402436">
        <ele>37.6287</ele>
        <time>2013-05-26T10:37:07Z</time>
      </trkpt>
      <trkpt lat="59.8122726" lon="17.8402001">
        <ele>37.1481</ele>
        <time>2013-05-26T10:37:08Z</time>
      </trkpt>
      <trkpt lat="59.8122136" lon="17.8401606">
        <ele>36.6675</ele>
        <time>2013-05-26T10:37:09Z</time>
      </trkpt>
      <trkpt lat="59.8121452" lon="17.8401005">
        <ele>36.1868</ele>
        <time>2013-05-26T10:37:10Z</time>
      </trkpt>
      <trkpt lat="59.8120795" lon="17.840058">
        <ele>36.1868</ele>
        <time>2013-05-26T10:37:11Z</time>
      </trkpt>
      <trkpt lat="59.812013" lon="17.8400249">
        <ele>35.7061</ele>
        <time>2013-05-26T10:37:12Z</time>
      </trkpt>
      <trkpt lat="59.8119439" lon="17.8399974">
        <ele>35.7061</ele>
        <time>2013-05-26T10:37:13Z</time>
      </trkpt>
      <trkpt lat="59.8118722" lon="17.8399766">
        <ele>35.2255</ele>
        <time>2013-05-26T10:37:14Z</time>
      </trkpt>
      <trkpt lat="59.8117969" lon="17.8399638">
        <ele>34.7449</ele>
        <time>2013-05-26T10:37:15Z</time>
      </trkpt>
      <trkpt lat="59.8117193" lon="17.8399638">
        <ele>34.2642</ele>
        <time>2013-05-26T10:37:16Z</time>
      </trkpt>
      <trkpt lat="59.8116406" lon="17.8399665">
        <ele>33.3029</ele>
        <time>2013-05-26T10:37:17Z</time>
      </trkpt>
      <trkpt lat="59.8115628" lon="17.8399718">
        <ele>33.7834</ele>
        <time>2013-05-26T10:37:18Z</time>
      </trkpt>
      <trkpt lat="59.8114841" lon="17.8399783">
        <ele>33.3029</ele>
        <time>2013-05-26T10:37:19Z</time>
      </trkpt>
      <trkpt lat="59.811405" lon="17.8399851">
        <ele>33.3029</ele>
        <time>2013-05-26T10:37:20Z</time>
      </trkpt>
      <trkpt lat="59.811326" lon="17.8399933">
        <ele>33.3029</ele>
        <time>2013-05-26T10:37:21Z</time>
      </trkpt>
      <trkpt lat="59.8112465" lon="17.8399973">
        <ele>33.3029</ele>
        <time>2013-05-26T10:37:22Z</time>
      </trkpt>
      <trkpt lat="59.8111672" lon="17.840004">
        <ele>33.3029</ele>
        <time>2013-05-26T10:37:23Z</time>
      </trkpt>
      <trkpt lat="59.8110872" lon="17.8400051">
        <ele>33.3029</ele>
        <time>2013-05-26T10:37:24Z</time>
      </trkpt>
      <trkpt lat="59.811007" lon="17.8400053">
        <ele>32.8223</ele>
        <time>2013-05-26T10:37:25Z</time>
      </trkpt>
      <trkpt lat="59.8109257" lon="17.8400109">
        <ele>32.8223</ele>
        <time>2013-05-26T10:37:26Z</time>
      </trkpt>
      <trkpt lat="59.8108425" lon="17.840029">
        <ele>32.8223</ele>
        <time>2013-05-26T10:37:27Z</time>
      </trkpt>
      <trkpt lat="59.8107579" lon="17.8400662">
        <ele>33.3029</ele>
        <time>2013-05-26T10:37:28Z</time>
      </trkpt>
      <trkpt lat="59.8106744" lon="17.8401255">
        <ele>33.7834</ele>
        <time>2013-05-26T10:37:29Z</time>
      </trkpt>
      <trkpt lat="59.8105945" lon="17.8401989">
        <ele>34.2642</ele>
        <time>2013-05-26T10:37:30Z</time>
      </trkpt>
      <trkpt lat="59.8105179" lon="17.8402853">
        <ele>34.2642</ele>
        <time>2013-05-26T10:37:31Z</time>
      </trkpt>
      <trkpt lat="59.8104439" lon="17.8403772">
        <ele>34.2642</ele>
        <time>2013-05-26T10:37:32Z</time>
      </trkpt>
      <trkpt lat="59.8103673" lon="17.8404797">
        <ele>33.7834</ele>
        <time>2013-05-26T10:37:33Z</time>
      </trkpt>
      <trkpt lat="59.8102871" lon="17.8405762">
        <ele>34.2642</ele>
        <time>2013-05-26T10:37:34Z</time>
      </trkpt>
      <trkpt lat="59.810204" lon="17.8406515">
        <ele>34.2642</ele>
        <time>2013-05-26T10:37:35Z</time>
      </trkpt>
      <trkpt lat="59.8101178" lon="17.8407126">
        <ele>34.2642</ele>
        <time>2013-05-26T10:37:36Z</time>
      </trkpt>
      <trkpt lat="59.8100284" lon="17.8407535">
        <ele>33.7834</ele>
        <time>2013-05-26T10:37:37Z</time>
      </trkpt>
      <trkpt lat="59.8099382" lon="17.840789">
        <ele>33.3029</ele>
        <time>2013-05-26T10:37:38Z</time>
      </trkpt>
      <trkpt lat="59.8098494" lon="17.8408351">
        <ele>33.3029</ele>
        <time>2013-05-26T10:37:39Z</time>
      </trkpt>
      <trkpt lat="59.8097618" lon="17.8408892">
        <ele>32.8223</ele>
        <time>2013-05-26T10:37:40Z</time>
      </trkpt>
      <trkpt lat="59.8096665" lon="17.8409667">
        <ele>33.3029</ele>
        <time>2013-05-26T10:37:41Z</time>
      </trkpt>
      <trkpt lat="59.8095743" lon="17.8410305">
        <ele>33.3029</ele>
        <time>2013-05-26T10:37:42Z</time>
      </trkpt>
      <trkpt lat="59.8094785" lon="17.8410783">
        <ele>32.8223</ele>
        <time>2013-05-26T10:37:43Z</time>
      </trkpt>
      <trkpt lat="59.8093826" lon="17.8411054">
        <ele>32.8223</ele>
        <time>2013-05-26T10:37:44Z</time>
      </trkpt>
      <trkpt lat="59.8092882" lon="17.8411433">
        <ele>32.3416</ele>
        <time>2013-05-26T10:37:45Z</time>
      </trkpt>
      <trkpt lat="59.8091983" lon="17.8412063">
        <ele>31.8607</ele>
        <time>2013-05-26T10:37:46Z</time>
      </trkpt>
      <trkpt lat="59.8091122" lon="17.8412921">
        <ele>31.8607</ele>
        <time>2013-05-26T10:37:47Z</time>
      </trkpt>
      <trkpt lat="59.8090303" lon="17.8413904">
        <ele>31.3801</ele>
        <time>2013-05-26T10:37:48Z</time>
      </trkpt>
      <trkpt lat="59.8089468" lon="17.8414925">
        <ele>30.8995</ele>
        <time>2013-05-26T10:37:49Z</time>
      </trkpt>
      <trkpt lat="59.8088619" lon="17.8415896">
        <ele>30.8995</ele>
        <time>2013-05-26T10:37:50Z</time>
      </trkpt>
      <trkpt lat="59.8087769" lon="17.8416852">
        <ele>31.3801</ele>
        <time>2013-05-26T10:37:51Z</time>
      </trkpt>
      <trkpt lat="59.8086963" lon="17.8417847">
        <ele>31.8607</ele>
        <time>2013-05-26T10:37:52Z</time>
      </trkpt>
      <trkpt lat="59.8086087" lon="17.8418825">
        <ele>31.8607</ele>
        <time>2013-05-26T10:37:53Z</time>
      </trkpt>
      <trkpt lat="59.8085227" lon="17.8419756">
        <ele>31.8607</ele>
        <time>2013-05-26T10:37:54Z</time>
      </trkpt>
      <trkpt lat="59.8084403" lon="17.8420363">
        <ele>31.8607</ele>
        <time>2013-05-26T10:37:55Z</time>
      </trkpt>
      <trkpt lat="59.80836" lon="17.8421294">
        <ele>32.3416</ele>
        <time>2013-05-26T10:37:56Z</time>
      </trkpt>
      <trkpt lat="59.8082786" lon="17.8422068">
        <ele>31.3801</ele>
        <time>2013-05-26T10:37:57Z</time>
      </trkpt>
      <trkpt lat="59.8082015" lon="17.8423057">
        <ele>31.8607</ele>
        <time>2013-05-26T10:37:58Z</time>
      </trkpt>
      <trkpt lat="59.8081252" lon="17.8424355">
        <ele>32.3416</ele>
        <time>2013-05-26T10:37:59Z</time>
      </trkpt>
      <trkpt lat="59.8080501" lon="17.8425704">
        <ele>32.8223</ele>
        <time>2013-05-26T10:38:00Z</time>
      </trkpt>
      <trkpt lat="59.8079761" lon="17.8426807">
        <ele>33.3029</ele>
        <time>2013-05-26T10:38:01Z</time>
      </trkpt>
      <trkpt lat="59.8079031" lon="17.8427956">
        <ele>33.3029</ele>
        <time>2013-05-26T10:38:02Z</time>
      </trkpt>
      <trkpt lat="59.8078307" lon="17.8428875">
        <ele>33.3029</ele>
        <time>2013-05-26T10:38:03Z</time>
      </trkpt>
      <trkpt lat="59.8077556" lon="17.8429704">
        <ele>32.8223</ele>
        <time>2013-05-26T10:38:04Z</time>
      </trkpt>
      <trkpt lat="59.8076757" lon="17.8430744">
        <ele>32.3416</ele>
        <time>2013-05-26T10:38:05Z</time>
      </trkpt>
      <trkpt lat="59.8075921" lon="17.8432051">
        <ele>32.3416</ele>
        <time>2013-05-26T10:38:06Z</time>
      </trkpt>
      <trkpt lat="59.8075018" lon="17.8433588">
        <ele>33.7834</ele>
        <time>2013-05-26T10:38:07Z</time>
      </trkpt>
      <trkpt lat="59.8074116" lon="17.8434877">
        <ele>34.2642</ele>
        <time>2013-05-26T10:38:08Z</time>
      </trkpt>
      <trkpt lat="59.8073245" lon="17.8436125">
        <ele>35.2255</ele>
        <time>2013-05-26T10:38:09Z</time>
      </trkpt>
      <trkpt lat="59.8072366" lon="17.8437427">
        <ele>36.1868</ele>
        <time>2013-05-26T10:38:10Z</time>
      </trkpt>
      <trkpt lat="59.8071562" lon="17.8438406">
        <ele>36.1868</ele>
        <time>2013-05-26T10:38:11Z</time>
      </trkpt>
      <trkpt lat="59.8070715" lon="17.8439513">
        <ele>37.1481</ele>
        <time>2013-05-26T10:38:12Z</time>
      </trkpt>
      <trkpt lat="59.8069889" lon="17.8440703">
        <ele>37.6287</ele>
        <time>2013-05-26T10:38:13Z</time>
      </trkpt>
      <trkpt lat="59.8069045" lon="17.8441975">
        <ele>38.1094</ele>
        <time>2013-05-26T10:38:14Z</time>
      </trkpt>
      <trkpt lat="59.8068155" lon="17.8443307">
        <ele>39.0707</ele>
        <time>2013-05-26T10:38:15Z</time>
      </trkpt>
      <trkpt lat="59.8067308" lon="17.8444388">
        <ele>38.1094</ele>
        <time>2013-05-26T10:38:16Z</time>
      </trkpt>
      <trkpt lat="59.8066413" lon="17.8445364">
        <ele>37.6287</ele>
        <time>2013-05-26T10:38:17Z</time>
      </trkpt>
      <trkpt lat="59.8065479" lon="17.844629">
        <ele>37.1481</ele>
        <time>2013-05-26T10:38:18Z</time>
      </trkpt>
      <trkpt lat="59.8064532" lon="17.8447181">
        <ele>36.6675</ele>
        <time>2013-05-26T10:38:19Z</time>
      </trkpt>
      <trkpt lat="59.8063594" lon="17.8448118">
        <ele>36.1868</ele>
        <time>2013-05-26T10:38:20Z</time>
      </trkpt>
      <trkpt lat="59.8062679" lon="17.8448987">
        <ele>35.7061</ele>
        <time>2013-05-26T10:38:21Z</time>
      </trkpt>
      <trkpt lat="59.8061777" lon="17.844986">
        <ele>35.2255</ele>
        <time>2013-05-26T10:38:22Z</time>
      </trkpt>
      <trkpt lat="59.8060886" lon="17.8450715">
        <ele>34.7449</ele>
        <time>2013-05-26T10:38:23Z</time>
      </trkpt>
      <trkpt lat="59.8060024" lon="17.8451652">
        <ele>34.7449</ele>
        <time>2013-05-26T10:38:24Z</time>
      </trkpt>
      <trkpt lat="59.8059198" lon="17.8452568">
        <ele>34.7449</ele>
        <time>2013-05-26T10:38:25Z</time>
      </trkpt>
      <trkpt lat="59.8058425" lon="17.8453355">
        <ele>34.7449</ele>
        <time>2013-05-26T10:38:26Z</time>
      </trkpt>
      <trkpt lat="59.8057673" lon="17.8454127">
        <ele>34.7449</ele>
        <time>2013-05-26T10:38:27Z</time>
      </trkpt>
      <trkpt lat="59.8056963" lon="17.8454946">
        <ele>34.2642</ele>
        <time>2013-05-26T10:38:28Z</time>
      </trkpt>
      <trkpt lat="59.8056291" lon="17.8455889">
        <ele>33.7834</ele>
        <time>2013-05-26T10:38:29Z</time>
      </trkpt>
      <trkpt lat="59.8055616" lon="17.845691">
        <ele>33.3029</ele>
        <time>2013-05-26T10:38:30Z</time>
      </trkpt>
      <trkpt lat="59.8054892" lon="17.8457857">
        <ele>32.8223</ele>
        <time>2013-05-26T10:38:31Z</time>
      </trkpt>
      <trkpt lat="59.8054099" lon="17.8458577">
        <ele>32.3416</ele>
        <time>2013-05-26T10:38:32Z</time>
      </trkpt>
      <trkpt lat="59.8053194" lon="17.8458674">
        <ele>31.8607</ele>
        <time>2013-05-26T10:38:33Z</time>
      </trkpt>
      <trkpt lat="59.8052368" lon="17.8458007">
        <ele>31.3801</ele>
        <time>2013-05-26T10:38:34Z</time>
      </trkpt>
      <trkpt lat="59.8051578" lon="17.8456873">
        <ele>30.4188</ele>
        <time>2013-05-26T10:38:35Z</time>
      </trkpt>
      <trkpt lat="59.8050924" lon="17.8455356">
        <ele>29.9381</ele>
        <time>2013-05-26T10:38:36Z</time>
      </trkpt>
      <trkpt lat="59.8050338" lon="17.8453578">
        <ele>28.0155</ele>
        <time>2013-05-26T10:38:37Z</time>
      </trkpt>
      <trkpt lat="59.8049749" lon="17.8451895">
        <ele>26.5736</ele>
        <time>2013-05-26T10:38:38Z</time>
      </trkpt>
      <trkpt lat="59.8049156" lon="17.8450233">
        <ele>25.6123</ele>
        <time>2013-05-26T10:38:39Z</time>
      </trkpt>
      <trkpt lat="59.8048519" lon="17.844862">
        <ele>24.1703</ele>
        <time>2013-05-26T10:38:40Z</time>
      </trkpt>
      <trkpt lat="59.804783" lon="17.8447082">
        <ele>23.6896</ele>
        <time>2013-05-26T10:38:41Z</time>
      </trkpt>
      <trkpt lat="59.8047086" lon="17.8445578">
        <ele>23.209</ele>
        <time>2013-05-26T10:38:42Z</time>
      </trkpt>
      <trkpt lat="59.8046296" lon="17.8444103">
        <ele>22.7283</ele>
        <time>2013-05-26T10:38:43Z</time>
      </trkpt>
      <trkpt lat="59.8045469" lon="17.8442658">
        <ele>22.7283</ele>
        <time>2013-05-26T10:38:44Z</time>
      </trkpt>
      <trkpt lat="59.8044599" lon="17.8441263">
        <ele>22.2476</ele>
        <time>2013-05-26T10:38:45Z</time>
      </trkpt>
      <trkpt lat="59.8043702" lon="17.843983">
        <ele>19.8444</ele>
        <time>2013-05-26T10:38:46Z</time>
      </trkpt>
      <trkpt lat="59.8042745" lon="17.8438497">
        <ele>18.4023</ele>
        <time>2013-05-26T10:38:47Z</time>
      </trkpt>
      <trkpt lat="59.8041735" lon="17.8437229">
        <ele>17.4412</ele>
        <time>2013-05-26T10:38:48Z</time>
      </trkpt>
      <trkpt lat="59.8040699" lon="17.8435991">
        <ele>15.999</ele>
        <time>2013-05-26T10:38:49Z</time>
      </trkpt>
      <trkpt lat="59.8039643" lon="17.8434779">
        <ele>15.0377</ele>
        <time>2013-05-26T10:38:50Z</time>
      </trkpt>
      <trkpt lat="59.8038573" lon="17.8433596">
        <ele>14.557</ele>
        <time>2013-05-26T10:38:51Z</time>
      </trkpt>
      <trkpt lat="59.8037501" lon="17.8432426">
        <ele>14.0764</ele>
        <time>2013-05-26T10:38:52Z</time>
      </trkpt>
      <trkpt lat="59.8036434" lon="17.8431242">
        <ele>13.1151</ele>
        <time>2013-05-26T10:38:53Z</time>
      </trkpt>
      <trkpt lat="59.8035374" lon="17.843002">
        <ele>12.6344</ele>
        <time>2013-05-26T10:38:54Z</time>
      </trkpt>
      <trkpt lat="59.8034338" lon="17.8428708">
        <ele>12.1538</ele>
        <time>2013-05-26T10:38:55Z</time>
      </trkpt>
      <trkpt lat="59.8033349" lon="17.8427257">
        <ele>11.6732</ele>
        <time>2013-05-26T10:38:56Z</time>
      </trkpt>
      <trkpt lat="59.8032406" lon="17.8425664">
        <ele>11.6732</ele>
        <time>2013-05-26T10:38:57Z</time>
      </trkpt>
      <trkpt lat="59.8031504" lon="17.8423977">
        <ele>11.1925</ele>
        <time>2013-05-26T10:38:58Z</time>
      </trkpt>
      <trkpt lat="59.803063" lon="17.8422258">
        <ele>11.1925</ele>
        <time>2013-05-26T10:38:59Z</time>
      </trkpt>
      <trkpt lat="59.8029786" lon="17.8420542">
        <ele>11.1925</ele>
        <time>2013-05-26T10:39:00Z</time>
      </trkpt>
      <trkpt lat="59.8028954" lon="17.8418834">
        <ele>11.1925</ele>
        <time>2013-05-26T10:39:01Z</time>
      </trkpt>
      <trkpt lat="59.8028123" lon="17.8417135">
        <ele>10.7118</ele>
        <time>2013-05-26T10:39:02Z</time>
      </trkpt>
      <trkpt lat="59.8027303" lon="17.8415472">
        <ele>11.1925</ele>
        <time>2013-05-26T10:39:03Z</time>
      </trkpt>
      <trkpt lat="59.8026504" lon="17.8413831">
        <ele>11.1925</ele>
        <time>2013-05-26T10:39:04Z</time>
      </trkpt>
      <trkpt lat="59.8025713" lon="17.8412205">
        <ele>11.1925</ele>
        <time>2013-05-26T10:39:05Z</time>
      </trkpt>
      <trkpt lat="59.8024925" lon="17.8410604">
        <ele>10.7118</ele>
        <time>2013-05-26T10:39:06Z</time>
      </trkpt>
      <trkpt lat="59.8024148" lon="17.8409029">
        <ele>10.7118</ele>
        <time>2013-05-26T10:39:07Z</time>
      </trkpt>
      <trkpt lat="59.8023397" lon="17.8407443">
        <ele>10.7118</ele>
        <time>2013-05-26T10:39:08Z</time>
      </trkpt>
      <trkpt lat="59.8022682" lon="17.8405815">
        <ele>11.1925</ele>
        <time>2013-05-26T10:39:09Z</time>
      </trkpt>
      <trkpt lat="59.8022034" lon="17.8404117">
        <ele>11.1925</ele>
        <time>2013-05-26T10:39:10Z</time>
      </trkpt>
      <trkpt lat="59.8021468" lon="17.8402345">
        <ele>11.1925</ele>
        <time>2013-05-26T10:39:11Z</time>
      </trkpt>
      <trkpt lat="59.8020999" lon="17.8400498">
        <ele>11.1925</ele>
        <time>2013-05-26T10:39:12Z</time>
      </trkpt>
      <trkpt lat="59.8020596" lon="17.8398613">
        <ele>11.1925</ele>
        <time>2013-05-26T10:39:13Z</time>
      </trkpt>
      <trkpt lat="59.8020227" lon="17.8396761">
        <ele>11.1925</ele>
        <time>2013-05-26T10:39:14Z</time>
      </trkpt>
      <trkpt lat="59.8019858" lon="17.8394898">
        <ele>10.2312</ele>
        <time>2013-05-26T10:39:15Z</time>
      </trkpt>
      <trkpt lat="59.8019489" lon="17.8393085">
        <ele>9.2699</ele>
        <time>2013-05-26T10:39:16Z</time>
      </trkpt>
      <trkpt lat="59.8019098" lon="17.839135">
        <ele>8.78918</ele>
        <time>2013-05-26T10:39:17Z</time>
      </trkpt>
      <trkpt lat="59.8018664" lon="17.8389695">
        <ele>8.30859</ele>
        <time>2013-05-26T10:39:18Z</time>
      </trkpt>
      <trkpt lat="59.8018205" lon="17.8388117">
        <ele>8.30859</ele>
        <time>2013-05-26T10:39:19Z</time>
      </trkpt>
      <trkpt lat="59.8017741" lon="17.8386616">
        <ele>8.78918</ele>
        <time>2013-05-26T10:39:20Z</time>
      </trkpt>
      <trkpt lat="59.8017274" lon="17.8385193">
        <ele>9.2699</ele>
        <time>2013-05-26T10:39:21Z</time>
      </trkpt>
      <trkpt lat="59.8016792" lon="17.8383818">
        <ele>9.2699</ele>
        <time>2013-05-26T10:39:22Z</time>
      </trkpt>
      <trkpt lat="59.8016296" lon="17.8382465">
        <ele>9.75061</ele>
        <time>2013-05-26T10:39:23Z</time>
      </trkpt>
      <trkpt lat="59.8015809" lon="17.8381094">
        <ele>10.2312</ele>
        <time>2013-05-26T10:39:24Z</time>
      </trkpt>
      <trkpt lat="59.8015332" lon="17.8379716">
        <ele>10.7118</ele>
        <time>2013-05-26T10:39:25Z</time>
      </trkpt>
      <trkpt lat="59.8014855" lon="17.8378358">
        <ele>11.1925</ele>
        <time>2013-05-26T10:39:26Z</time>
      </trkpt>
      <trkpt lat="59.801438" lon="17.8377052">
        <ele>11.1925</ele>
        <time>2013-05-26T10:39:27Z</time>
      </trkpt>
      <trkpt lat="59.8013903" lon="17.8375771">
        <ele>11.6732</ele>
        <time>2013-05-26T10:39:28Z</time>
      </trkpt>
      <trkpt lat="59.8013432" lon="17.8374405">
        <ele>11.6732</ele>
        <time>2013-05-26T10:39:29Z</time>
      </trkpt>
      <trkpt lat="59.8012965" lon="17.8373039">
        <ele>11.1925</ele>
        <time>2013-05-26T10:39:30Z</time>
      </trkpt>
      <trkpt lat="59.8012491" lon="17.837171">
        <ele>10.7118</ele>
        <time>2013-05-26T10:39:31Z</time>
      </trkpt>
      <trkpt lat="59.8012023" lon="17.8370402">
        <ele>11.1925</ele>
        <time>2013-05-26T10:39:32Z</time>
      </trkpt>
      <trkpt lat="59.8011557" lon="17.8369115">
        <ele>11.6732</ele>
        <time>2013-05-26T10:39:33Z</time>
      </trkpt>
      <trkpt lat="59.8011114" lon="17.8367853">
        <ele>12.1538</ele>
        <time>2013-05-26T10:39:34Z</time>
      </trkpt>
      <trkpt lat="59.8010754" lon="17.8366366">
        <ele>12.6344</ele>
        <time>2013-05-26T10:39:35Z</time>
      </trkpt>
      <trkpt lat="59.8010406" lon="17.8364939">
        <ele>13.1151</ele>
        <time>2013-05-26T10:39:36Z</time>
      </trkpt>
      <trkpt lat="59.8009956" lon="17.8363737">
        <ele>13.5958</ele>
        <time>2013-05-26T10:39:37Z</time>
      </trkpt>
      <trkpt lat="59.8009573" lon="17.8362451">
        <ele>14.0764</ele>
        <time>2013-05-26T10:39:38Z</time>
      </trkpt>
      <trkpt lat="59.8009217" lon="17.8361154">
        <ele>15.0377</ele>
        <time>2013-05-26T10:39:39Z</time>
      </trkpt>
      <trkpt lat="59.8008943" lon="17.8359909">
        <ele>15.5184</ele>
        <time>2013-05-26T10:39:40Z</time>
      </trkpt>
      <trkpt lat="59.8008608" lon="17.8358732">
        <ele>15.999</ele>
        <time>2013-05-26T10:39:41Z</time>
      </trkpt>
      <trkpt lat="59.8008276" lon="17.8357604">
        <ele>16.4797</ele>
        <time>2013-05-26T10:39:42Z</time>
      </trkpt>
      <trkpt lat="59.8007945" lon="17.8356519">
        <ele>16.9604</ele>
        <time>2013-05-26T10:39:43Z</time>
      </trkpt>
      <trkpt lat="59.8007609" lon="17.8355452">
        <ele>17.4412</ele>
        <time>2013-05-26T10:39:44Z</time>
      </trkpt>
      <trkpt lat="59.8007267" lon="17.8354426">
        <ele>17.9218</ele>
        <time>2013-05-26T10:39:45Z</time>
      </trkpt>
      <trkpt lat="59.8006925" lon="17.8353445">
        <ele>18.4023</ele>
        <time>2013-05-26T10:39:46Z</time>
      </trkpt>
      <trkpt lat="59.8006592" lon="17.83525">
        <ele>18.8831</ele>
        <time>2013-05-26T10:39:47Z</time>
      </trkpt>
      <trkpt lat="59.8006256" lon="17.8351602">
        <ele>19.3638</ele>
        <time>2013-05-26T10:39:48Z</time>
      </trkpt>
      <trkpt lat="59.8005889" lon="17.8350795">
        <ele>19.8444</ele>
        <time>2013-05-26T10:39:49Z</time>
      </trkpt>
      <trkpt lat="59.8005486" lon="17.8350086">
        <ele>20.325</ele>
        <time>2013-05-26T10:39:50Z</time>
      </trkpt>
      <trkpt lat="59.800505" lon="17.8349438">
        <ele>20.325</ele>
        <time>2013-05-26T10:39:51Z</time>
      </trkpt>
      <trkpt lat="59.8004526" lon="17.8348862">
        <ele>20.8057</ele>
        <time>2013-05-26T10:39:52Z</time>
      </trkpt>
      <trkpt lat="59.8003946" lon="17.8348463">
        <ele>20.8057</ele>
        <time>2013-05-26T10:39:53Z</time>
      </trkpt>
      <trkpt lat="59.8003317" lon="17.8348255">
        <ele>21.767</ele>
        <time>2013-05-26T10:39:54Z</time>
      </trkpt>
      <trkpt lat="59.8002672" lon="17.8348133">
        <ele>21.767</ele>
        <time>2013-05-26T10:39:55Z</time>
      </trkpt>
      <trkpt lat="59.8002045" lon="17.834821">
        <ele>21.767</ele>
        <time>2013-05-26T10:39:56Z</time>
      </trkpt>
      <trkpt lat="59.8001454" lon="17.8348436">
        <ele>22.2476</ele>
        <time>2013-05-26T10:39:57Z</time>
      </trkpt>
      <trkpt lat="59.8000904" lon="17.8348728">
        <ele>22.7283</ele>
        <time>2013-05-26T10:39:58Z</time>
      </trkpt>
      <trkpt lat="59.8000392" lon="17.8349089">
        <ele>22.7283</ele>
        <time>2013-05-26T10:39:59Z</time>
      </trkpt>
      <trkpt lat="59.7999901" lon="17.8349499">
        <ele>23.209</ele>
        <time>2013-05-26T10:40:00Z</time>
      </trkpt>
      <trkpt lat="59.7999425" lon="17.8349976">
        <ele>23.6896</ele>
        <time>2013-05-26T10:40:01Z</time>
      </trkpt>
      <trkpt lat="59.7998953" lon="17.8350477">
        <ele>23.6896</ele>
        <time>2013-05-26T10:40:02Z</time>
      </trkpt>
      <trkpt lat="59.7998475" lon="17.8351036">
        <ele>23.6896</ele>
        <time>2013-05-26T10:40:03Z</time>
      </trkpt>
      <trkpt lat="59.7997997" lon="17.8351525">
        <ele>23.6896</ele>
        <time>2013-05-26T10:40:04Z</time>
      </trkpt>
      <trkpt lat="59.7997528" lon="17.8352069">
        <ele>23.6896</ele>
        <time>2013-05-26T10:40:05Z</time>
      </trkpt>
      <trkpt lat="59.7997036" lon="17.8352578">
        <ele>23.6896</ele>
        <time>2013-05-26T10:40:06Z</time>
      </trkpt>
      <trkpt lat="59.7996516" lon="17.8352991">
        <ele>23.6896</ele>
        <time>2013-05-26T10:40:07Z</time>
      </trkpt>
      <trkpt lat="59.7995984" lon="17.835339">
        <ele>23.6896</ele>
        <time>2013-05-26T10:40:08Z</time>
      </trkpt>
      <trkpt lat="59.7995446" lon="17.8353829">
        <ele>24.1703</ele>
        <time>2013-05-26T10:40:09Z</time>
      </trkpt>
      <trkpt lat="59.7994944" lon="17.8354286">
        <ele>24.651</ele>
        <time>2013-05-26T10:40:10Z</time>
      </trkpt>
      <trkpt lat="59.7994454" lon="17.8354779">
        <ele>24.651</ele>
        <time>2013-05-26T10:40:11Z</time>
      </trkpt>
      <trkpt lat="59.7993974" lon="17.8355207">
        <ele>24.651</ele>
        <time>2013-05-26T10:40:12Z</time>
      </trkpt>
      <trkpt lat="59.7993486" lon="17.8355693">
        <ele>25.1317</ele>
        <time>2013-05-26T10:40:13Z</time>
      </trkpt>
      <trkpt lat="59.7992991" lon="17.8356173">
        <ele>25.1317</ele>
        <time>2013-05-26T10:40:14Z</time>
      </trkpt>
      <trkpt lat="59.7992491" lon="17.8356642">
        <ele>25.1317</ele>
        <time>2013-05-26T10:40:15Z</time>
      </trkpt>
      <trkpt lat="59.7992015" lon="17.8357133">
        <ele>25.1317</ele>
        <time>2013-05-26T10:40:16Z</time>
      </trkpt>
      <trkpt lat="59.7991527" lon="17.8357711">
        <ele>25.1317</ele>
        <time>2013-05-26T10:40:17Z</time>
      </trkpt>
      <trkpt lat="59.7991033" lon="17.8358258">
        <ele>24.651</ele>
        <time>2013-05-26T10:40:18Z</time>
      </trkpt>
      <trkpt lat="59.7990534" lon="17.8358778">
        <ele>24.651</ele>
        <time>2013-05-26T10:40:19Z</time>
      </trkpt>
      <trkpt lat="59.7990047" lon="17.8359306">
        <ele>24.1703</ele>
        <time>2013-05-26T10:40:20Z</time>
      </trkpt>
      <trkpt lat="59.7989576" lon="17.8359821">
        <ele>24.1703</ele>
        <time>2013-05-26T10:40:21Z</time>
      </trkpt>
      <trkpt lat="59.7989141" lon="17.8360242">
        <ele>24.1703</ele>
        <time>2013-05-26T10:40:22Z</time>
      </trkpt>
      <trkpt lat="59.7988753" lon="17.8360611">
        <ele>24.1703</ele>
        <time>2013-05-26T10:40:23Z</time>
      </trkpt>
      <trkpt lat="59.7988391" lon="17.8360967">
        <ele>24.1703</ele>
        <time>2013-05-26T10:40:24Z</time>
      </trkpt>
      <trkpt lat="59.7988022" lon="17.8361269">
        <ele>23.6896</ele>
        <time>2013-05-26T10:40:25Z</time>
      </trkpt>
      <trkpt lat="59.7987645" lon="17.8361569">
        <ele>24.1703</ele>
        <time>2013-05-26T10:40:26Z</time>
      </trkpt>
      <trkpt lat="59.7987269" lon="17.8361904">
        <ele>24.1703</ele>
        <time>2013-05-26T10:40:27Z</time>
      </trkpt>
      <trkpt lat="59.7986887" lon="17.8362277">
        <ele>24.651</ele>
        <time>2013-05-26T10:40:28Z</time>
      </trkpt>
      <trkpt lat="59.7986503" lon="17.8362674">
        <ele>24.651</ele>
        <time>2013-05-26T10:40:29Z</time>
      </trkpt>
      <trkpt lat="59.798614" lon="17.8363133">
        <ele>25.1317</ele>
        <time>2013-05-26T10:40:30Z</time>
      </trkpt>
      <trkpt lat="59.79858" lon="17.8363689">
        <ele>25.1317</ele>
        <time>2013-05-26T10:40:31Z</time>
      </trkpt>
      <trkpt lat="59.7985448" lon="17.8364375">
        <ele>25.1317</ele>
        <time>2013-05-26T10:40:32Z</time>
      </trkpt>
      <trkpt lat="59.798508" lon="17.8365077">
        <ele>25.6123</ele>
        <time>2013-05-26T10:40:33Z</time>
      </trkpt>
      <trkpt lat="59.7984698" lon="17.836575">
        <ele>26.0929</ele>
        <time>2013-05-26T10:40:34Z</time>
      </trkpt>
      <trkpt lat="59.7984312" lon="17.836648">
        <ele>26.5736</ele>
        <time>2013-05-26T10:40:35Z</time>
      </trkpt>
      <trkpt lat="59.7983942" lon="17.8367184">
        <ele>27.5349</ele>
        <time>2013-05-26T10:40:36Z</time>
      </trkpt>
      <trkpt lat="59.7983581" lon="17.836785">
        <ele>28.0155</ele>
        <time>2013-05-26T10:40:37Z</time>
      </trkpt>
      <trkpt lat="59.798322" lon="17.8368439">
        <ele>28.0155</ele>
        <time>2013-05-26T10:40:38Z</time>
      </trkpt>
      <trkpt lat="59.7982851" lon="17.8369018">
        <ele>28.4962</ele>
        <time>2013-05-26T10:40:39Z</time>
      </trkpt>
      <trkpt lat="59.798251" lon="17.8369546">
        <ele>28.4962</ele>
        <time>2013-05-26T10:40:40Z</time>
      </trkpt>
      <trkpt lat="59.7982158" lon="17.8370106">
        <ele>28.9769</ele>
        <time>2013-05-26T10:40:41Z</time>
      </trkpt>
      <trkpt lat="59.7981727" lon="17.8370597">
        <ele>28.4962</ele>
        <time>2013-05-26T10:40:42Z</time>
      </trkpt>
      <trkpt lat="59.7981231" lon="17.8370993">
        <ele>28.0155</ele>
        <time>2013-05-26T10:40:43Z</time>
      </trkpt>
      <trkpt lat="59.7980687" lon="17.8371308">
        <ele>28.4962</ele>
        <time>2013-05-26T10:40:44Z</time>
      </trkpt>
      <trkpt lat="59.7980114" lon="17.8371616">
        <ele>28.9769</ele>
        <time>2013-05-26T10:40:45Z</time>
      </trkpt>
      <trkpt lat="59.7979523" lon="17.8371903">
        <ele>28.9769</ele>
        <time>2013-05-26T10:40:46Z</time>
      </trkpt>
      <trkpt lat="59.7978926" lon="17.8372198">
        <ele>29.9381</ele>
        <time>2013-05-26T10:40:47Z</time>
      </trkpt>
      <trkpt lat="59.797835" lon="17.8372503">
        <ele>29.9381</ele>
        <time>2013-05-26T10:40:48Z</time>
      </trkpt>
      <trkpt lat="59.7977797" lon="17.8372785">
        <ele>29.4575</ele>
        <time>2013-05-26T10:40:49Z</time>
      </trkpt>
      <trkpt lat="59.7977233" lon="17.8373104">
        <ele>29.4575</ele>
        <time>2013-05-26T10:40:50Z</time>
      </trkpt>
      <trkpt lat="59.7976683" lon="17.8373448">
        <ele>28.9769</ele>
        <time>2013-05-26T10:40:51Z</time>
      </trkpt>
      <trkpt lat="59.7976132" lon="17.8373829">
        <ele>28.9769</ele>
        <time>2013-05-26T10:40:52Z</time>
      </trkpt>
      <trkpt lat="59.7975585" lon="17.8374041">
        <ele>28.4962</ele>
        <time>2013-05-26T10:40:53Z</time>
      </trkpt>
      <trkpt lat="59.7975062" lon="17.8374331">
        <ele>28.4962</ele>
        <time>2013-05-26T10:40:54Z</time>
      </trkpt>
      <trkpt lat="59.7974537" lon="17.837468">
        <ele>28.4962</ele>
        <time>2013-05-26T10:40:55Z</time>
      </trkpt>
      <trkpt lat="59.7974016" lon="17.837502">
        <ele>28.4962</ele>
        <time>2013-05-26T10:40:56Z</time>
      </trkpt>
      <trkpt lat="59.7973491" lon="17.8375333">
        <ele>28.4962</ele>
        <time>2013-05-26T10:40:57Z</time>
      </trkpt>
      <trkpt lat="59.7972947" lon="17.8375564">
        <ele>28.4962</ele>
        <time>2013-05-26T10:40:58Z</time>
      </trkpt>
      <trkpt lat="59.7972385" lon="17.8375653">
        <ele>28.4962</ele>
        <time>2013-05-26T10:40:59Z</time>
      </trkpt>
      <trkpt lat="59.7971808" lon="17.8375566">
        <ele>28.4962</ele>
        <time>2013-05-26T10:41:00Z</time>
      </trkpt>
      <trkpt lat="59.7971226" lon="17.8375394">
        <ele>28.4962</ele>
        <time>2013-05-26T10:41:01Z</time>
      </trkpt>
      <trkpt lat="59.7970648" lon="17.8375151">
        <ele>28.4962</ele>
        <time>2013-05-26T10:41:02Z</time>
      </trkpt>
      <trkpt lat="59.7970083" lon="17.8374821">
        <ele>28.4962</ele>
        <time>2013-05-26T10:41:03Z</time>
      </trkpt>
      <trkpt lat="59.7969533" lon="17.8374405">
        <ele>28.4962</ele>
        <time>2013-05-26T10:41:04Z</time>
      </trkpt>
      <trkpt lat="59.7969009" lon="17.8373949">
        <ele>28.4962</ele>
        <time>2013-05-26T10:41:05Z</time>
      </trkpt>
      <trkpt lat="59.7968526" lon="17.8373411">
        <ele>28.4962</ele>
        <time>2013-05-26T10:41:06Z</time>
      </trkpt>
      <trkpt lat="59.7968083" lon="17.83728">
        <ele>27.5349</ele>
        <time>2013-05-26T10:41:07Z</time>
      </trkpt>
      <trkpt lat="59.7967644" lon="17.837224">
        <ele>27.0543</ele>
        <time>2013-05-26T10:41:08Z</time>
      </trkpt>
      <trkpt lat="59.7967203" lon="17.8371654">
        <ele>27.0543</ele>
        <time>2013-05-26T10:41:09Z</time>
      </trkpt>
      <trkpt lat="59.7966763" lon="17.8371063">
        <ele>27.0543</ele>
        <time>2013-05-26T10:41:10Z</time>
      </trkpt>
      <trkpt lat="59.7966318" lon="17.8370433">
        <ele>27.0543</ele>
        <time>2013-05-26T10:41:11Z</time>
      </trkpt>
      <trkpt lat="59.7965892" lon="17.8369798">
        <ele>27.5349</ele>
        <time>2013-05-26T10:41:12Z</time>
      </trkpt>
      <trkpt lat="59.7965504" lon="17.8369092">
        <ele>26.5736</ele>
        <time>2013-05-26T10:41:13Z</time>
      </trkpt>
      <trkpt lat="59.7965145" lon="17.8368485">
        <ele>27.5349</ele>
        <time>2013-05-26T10:41:14Z</time>
      </trkpt>
      <trkpt lat="59.7964763" lon="17.8367853">
        <ele>27.5349</ele>
        <time>2013-05-26T10:41:15Z</time>
      </trkpt>
      <trkpt lat="59.7964417" lon="17.8367165">
        <ele>28.0155</ele>
        <time>2013-05-26T10:41:16Z</time>
      </trkpt>
      <trkpt lat="59.7964068" lon="17.8366511">
        <ele>28.9769</ele>
        <time>2013-05-26T10:41:17Z</time>
      </trkpt>
      <trkpt lat="59.7963719" lon="17.8365846">
        <ele>29.4575</ele>
        <time>2013-05-26T10:41:18Z</time>
      </trkpt>
      <trkpt lat="59.7963375" lon="17.8365144">
        <ele>29.9381</ele>
        <time>2013-05-26T10:41:19Z</time>
      </trkpt>
      <trkpt lat="59.796303" lon="17.8364352">
        <ele>29.4575</ele>
        <time>2013-05-26T10:41:20Z</time>
      </trkpt>
      <trkpt lat="59.7962679" lon="17.8363662">
        <ele>29.9381</ele>
        <time>2013-05-26T10:41:21Z</time>
      </trkpt>
      <trkpt lat="59.7962325" lon="17.8362914">
        <ele>29.4575</ele>
        <time>2013-05-26T10:41:22Z</time>
      </trkpt>
      <trkpt lat="59.7962017" lon="17.8362256">
        <ele>29.4575</ele>
        <time>2013-05-26T10:41:23Z</time>
      </trkpt>
      <trkpt lat="59.7961723" lon="17.836161">
        <ele>29.4575</ele>
        <time>2013-05-26T10:41:24Z</time>
      </trkpt>
      <trkpt lat="59.7961412" lon="17.8360875">
        <ele>28.0155</ele>
        <time>2013-05-26T10:41:25Z</time>
      </trkpt>
      <trkpt lat="59.7961086" lon="17.8360141">
        <ele>26.5736</ele>
        <time>2013-05-26T10:41:26Z</time>
      </trkpt>
      <trkpt lat="59.7960799" lon="17.8359418">
        <ele>25.1317</ele>
        <time>2013-05-26T10:41:27Z</time>
      </trkpt>
      <trkpt lat="59.7960516" lon="17.8358647">
        <ele>23.6896</ele>
        <time>2013-05-26T10:41:28Z</time>
      </trkpt>
      <trkpt lat="59.7960232" lon="17.8357894">
        <ele>23.6896</ele>
        <time>2013-05-26T10:41:29Z</time>
      </trkpt>
      <trkpt lat="59.7959864" lon="17.8357125">
        <ele>22.7283</ele>
        <time>2013-05-26T10:41:30Z</time>
      </trkpt>
      <trkpt lat="59.7959494" lon="17.8356483">
        <ele>22.2476</ele>
        <time>2013-05-26T10:41:31Z</time>
      </trkpt>
      <trkpt lat="59.7959117" lon="17.8355793">
        <ele>21.767</ele>
        <time>2013-05-26T10:41:32Z</time>
      </trkpt>
      <trkpt lat="59.7958761" lon="17.8355068">
        <ele>21.2864</ele>
        <time>2013-05-26T10:41:33Z</time>
      </trkpt>
      <trkpt lat="59.7958434" lon="17.8354284">
        <ele>20.325</ele>
        <time>2013-05-26T10:41:34Z</time>
      </trkpt>
      <trkpt lat="59.7958064" lon="17.8353535">
        <ele>19.3638</ele>
        <time>2013-05-26T10:41:35Z</time>
      </trkpt>
      <trkpt lat="59.7957697" lon="17.8352779">
        <ele>19.3638</ele>
        <time>2013-05-26T10:41:36Z</time>
      </trkpt>
      <trkpt lat="59.7957342" lon="17.8351996">
        <ele>18.8831</ele>
        <time>2013-05-26T10:41:37Z</time>
      </trkpt>
      <trkpt lat="59.7956983" lon="17.8351239">
        <ele>18.8831</ele>
        <time>2013-05-26T10:41:38Z</time>
      </trkpt>
      <trkpt lat="59.7956621" lon="17.8350495">
        <ele>18.4023</ele>
        <time>2013-05-26T10:41:39Z</time>
      </trkpt>
      <trkpt lat="59.7956242" lon="17.8349726">
        <ele>18.4023</ele>
        <time>2013-05-26T10:41:40Z</time>
      </trkpt>
      <trkpt lat="59.7955858" lon="17.8348945">
        <ele>18.4023</ele>
        <time>2013-05-26T10:41:41Z</time>
      </trkpt>
      <trkpt lat="59.7955485" lon="17.8348132">
        <ele>17.4412</ele>
        <time>2013-05-26T10:41:42Z</time>
      </trkpt>
      <trkpt lat="59.7955137" lon="17.8347311">
        <ele>16.4797</ele>
        <time>2013-05-26T10:41:43Z</time>
      </trkpt>
      <trkpt lat="59.7954813" lon="17.83465">
        <ele>15.999</ele>
        <time>2013-05-26T10:41:44Z</time>
      </trkpt>
      <trkpt lat="59.7954518" lon="17.8345721">
        <ele>15.0377</ele>
        <time>2013-05-26T10:41:45Z</time>
      </trkpt>
      <trkpt lat="59.795417" lon="17.8345022">
        <ele>15.5184</ele>
        <time>2013-05-26T10:41:46Z</time>
      </trkpt>
      <trkpt lat="59.7953781" lon="17.8344323">
        <ele>15.999</ele>
        <time>2013-05-26T10:41:47Z</time>
      </trkpt>
      <trkpt lat="59.7953388" lon="17.8343685">
        <ele>16.4797</ele>
        <time>2013-05-26T10:41:48Z</time>
      </trkpt>
      <trkpt lat="59.7952923" lon="17.8343087">
        <ele>17.4412</ele>
        <time>2013-05-26T10:41:49Z</time>
      </trkpt>
      <trkpt lat="59.7952399" lon="17.8342495">
        <ele>17.4412</ele>
        <time>2013-05-26T10:41:50Z</time>
      </trkpt>
      <trkpt lat="59.795188" lon="17.8341998">
        <ele>16.9604</ele>
        <time>2013-05-26T10:41:51Z</time>
      </trkpt>
      <trkpt lat="59.7951343" lon="17.8341655">
        <ele>16.9604</ele>
        <time>2013-05-26T10:41:52Z</time>
      </trkpt>
      <trkpt lat="59.7950727" lon="17.834145">
        <ele>17.4412</ele>
        <time>2013-05-26T10:41:53Z</time>
      </trkpt>
      <trkpt lat="59.7950099" lon="17.8341336">
        <ele>17.4412</ele>
        <time>2013-05-26T10:41:54Z</time>
      </trkpt>
      <trkpt lat="59.7949463" lon="17.8341437">
        <ele>18.8831</ele>
        <time>2013-05-26T10:41:55Z</time>
      </trkpt>
      <trkpt lat="59.7948865" lon="17.8341785">
        <ele>19.3638</ele>
        <time>2013-05-26T10:41:56Z</time>
      </trkpt>
      <trkpt lat="59.7948322" lon="17.834232">
        <ele>19.8444</ele>
        <time>2013-05-26T10:41:57Z</time>
      </trkpt>
      <trkpt lat="59.7947787" lon="17.8342989">
        <ele>20.325</ele>
        <time>2013-05-26T10:41:58Z</time>
      </trkpt>
      <trkpt lat="59.7947312" lon="17.8343748">
        <ele>21.2864</ele>
        <time>2013-05-26T10:41:59Z</time>
      </trkpt>
      <trkpt lat="59.7946877" lon="17.8344506">
        <ele>21.767</ele>
        <time>2013-05-26T10:42:00Z</time>
      </trkpt>
      <trkpt lat="59.7946481" lon="17.8345242">
        <ele>22.2476</ele>
        <time>2013-05-26T10:42:01Z</time>
      </trkpt>
      <trkpt lat="59.794608" lon="17.8346208">
        <ele>23.6896</ele>
        <time>2013-05-26T10:42:02Z</time>
      </trkpt>
      <trkpt lat="59.7945718" lon="17.8347271">
        <ele>24.1703</ele>
        <time>2013-05-26T10:42:03Z</time>
      </trkpt>
      <trkpt lat="59.7945385" lon="17.8348278">
        <ele>25.1317</ele>
        <time>2013-05-26T10:42:04Z</time>
      </trkpt>
      <trkpt lat="59.7945012" lon="17.8349261">
        <ele>25.6123</ele>
        <time>2013-05-26T10:42:05Z</time>
      </trkpt>
      <trkpt lat="59.7944637" lon="17.8350291">
        <ele>27.0543</ele>
        <time>2013-05-26T10:42:06Z</time>
      </trkpt>
      <trkpt lat="59.7944236" lon="17.8351257">
        <ele>28.0155</ele>
        <time>2013-05-26T10:42:07Z</time>
      </trkpt>
      <trkpt lat="59.7943865" lon="17.8352194">
        <ele>28.9769</ele>
        <time>2013-05-26T10:42:08Z</time>
      </trkpt>
      <trkpt lat="59.7943498" lon="17.8353166">
        <ele>29.4575</ele>
        <time>2013-05-26T10:42:09Z</time>
      </trkpt>
      <trkpt lat="59.794315" lon="17.8354128">
        <ele>29.9381</ele>
        <time>2013-05-26T10:42:10Z</time>
      </trkpt>
      <trkpt lat="59.7942781" lon="17.8355177">
        <ele>29.9381</ele>
        <time>2013-05-26T10:42:11Z</time>
      </trkpt>
      <trkpt lat="59.7942451" lon="17.8356216">
        <ele>30.8995</ele>
        <time>2013-05-26T10:42:12Z</time>
      </trkpt>
      <trkpt lat="59.7942096" lon="17.8357335">
        <ele>30.8995</ele>
        <time>2013-05-26T10:42:13Z</time>
      </trkpt>
      <trkpt lat="59.7941661" lon="17.8358439">
        <ele>30.8995</ele>
        <time>2013-05-26T10:42:14Z</time>
      </trkpt>
      <trkpt lat="59.7941163" lon="17.8359378">
        <ele>30.8995</ele>
        <time>2013-05-26T10:42:15Z</time>
      </trkpt>
      <trkpt lat="59.7940609" lon="17.8360164">
        <ele>30.4188</ele>
        <time>2013-05-26T10:42:16Z</time>
      </trkpt>
      <trkpt lat="59.793998" lon="17.836084">
        <ele>29.9381</ele>
        <time>2013-05-26T10:42:17Z</time>
      </trkpt>
      <trkpt lat="59.7939293" lon="17.8361361">
        <ele>29.9381</ele>
        <time>2013-05-26T10:42:18Z</time>
      </trkpt>
      <trkpt lat="59.7938561" lon="17.8361888">
        <ele>29.4575</ele>
        <time>2013-05-26T10:42:19Z</time>
      </trkpt>
      <trkpt lat="59.7937811" lon="17.8362358">
        <ele>28.9769</ele>
        <time>2013-05-26T10:42:20Z</time>
      </trkpt>
      <trkpt lat="59.7937065" lon="17.8362784">
        <ele>28.9769</ele>
        <time>2013-05-26T10:42:21Z</time>
      </trkpt>
      <trkpt lat="59.7936336" lon="17.8363196">
        <ele>28.4962</ele>
        <time>2013-05-26T10:42:22Z</time>
      </trkpt>
      <trkpt lat="59.793561" lon="17.8363632">
        <ele>28.0155</ele>
        <time>2013-05-26T10:42:23Z</time>
      </trkpt>
      <trkpt lat="59.7934893" lon="17.8364097">
        <ele>27.0543</ele>
        <time>2013-05-26T10:42:24Z</time>
      </trkpt>
      <trkpt lat="59.7934176" lon="17.8364589">
        <ele>26.5736</ele>
        <time>2013-05-26T10:42:25Z</time>
      </trkpt>
      <trkpt lat="59.793345" lon="17.8365115">
        <ele>26.0929</ele>
        <time>2013-05-26T10:42:26Z</time>
      </trkpt>
      <trkpt lat="59.793269" lon="17.8365709">
        <ele>26.0929</ele>
        <time>2013-05-26T10:42:27Z</time>
      </trkpt>
      <trkpt lat="59.793193" lon="17.8366309">
        <ele>26.5736</ele>
        <time>2013-05-26T10:42:28Z</time>
      </trkpt>
      <trkpt lat="59.7931176" lon="17.8366885">
        <ele>26.5736</ele>
        <time>2013-05-26T10:42:29Z</time>
      </trkpt>
      <trkpt lat="59.7930434" lon="17.8367371">
        <ele>26.5736</ele>
        <time>2013-05-26T10:42:30Z</time>
      </trkpt>
      <trkpt lat="59.7929695" lon="17.83678">
        <ele>26.0929</ele>
        <time>2013-05-26T10:42:31Z</time>
      </trkpt>
      <trkpt lat="59.7928965" lon="17.8368196">
        <ele>26.0929</ele>
        <time>2013-05-26T10:42:32Z</time>
      </trkpt>
      <trkpt lat="59.7928245" lon="17.83686">
        <ele>26.0929</ele>
        <time>2013-05-26T10:42:33Z</time>
      </trkpt>
      <trkpt lat="59.7927522" lon="17.8369012">
        <ele>26.0929</ele>
        <time>2013-05-26T10:42:34Z</time>
      </trkpt>
      <trkpt lat="59.7926787" lon="17.8369468">
        <ele>25.6123</ele>
        <time>2013-05-26T10:42:35Z</time>
      </trkpt>
      <trkpt lat="59.7926044" lon="17.8369981">
        <ele>25.6123</ele>
        <time>2013-05-26T10:42:36Z</time>
      </trkpt>
      <trkpt lat="59.7925292" lon="17.8370557">
        <ele>26.0929</ele>
        <time>2013-05-26T10:42:37Z</time>
      </trkpt>
      <trkpt lat="59.792454" lon="17.8371209">
        <ele>26.0929</ele>
        <time>2013-05-26T10:42:38Z</time>
      </trkpt>
      <trkpt lat="59.7923809" lon="17.8371961">
        <ele>26.5736</ele>
        <time>2013-05-26T10:42:39Z</time>
      </trkpt>
      <trkpt lat="59.7923116" lon="17.8372758">
        <ele>26.5736</ele>
        <time>2013-05-26T10:42:40Z</time>
      </trkpt>
      <trkpt lat="59.7922427" lon="17.8373525">
        <ele>26.5736</ele>
        <time>2013-05-26T10:42:41Z</time>
      </trkpt>
      <trkpt lat="59.7921739" lon="17.8374293">
        <ele>26.5736</ele>
        <time>2013-05-26T10:42:42Z</time>
      </trkpt>
      <trkpt lat="59.7921062" lon="17.8375115">
        <ele>27.0543</ele>
        <time>2013-05-26T10:42:43Z</time>
      </trkpt>
      <trkpt lat="59.7920399" lon="17.8375975">
        <ele>27.0543</ele>
        <time>2013-05-26T10:42:44Z</time>
      </trkpt>
      <trkpt lat="59.7919732" lon="17.8376834">
        <ele>27.0543</ele>
        <time>2013-05-26T10:42:45Z</time>
      </trkpt>
      <trkpt lat="59.7919055" lon="17.8377674">
        <ele>27.5349</ele>
        <time>2013-05-26T10:42:46Z</time>
      </trkpt>
      <trkpt lat="59.7918371" lon="17.8378497">
        <ele>27.5349</ele>
        <time>2013-05-26T10:42:47Z</time>
      </trkpt>
      <trkpt lat="59.7917682" lon="17.8379252">
        <ele>27.5349</ele>
        <time>2013-05-26T10:42:48Z</time>
      </trkpt>
      <trkpt lat="59.7916981" lon="17.8379941">
        <ele>27.0543</ele>
        <time>2013-05-26T10:42:49Z</time>
      </trkpt>
      <trkpt lat="59.7916274" lon="17.8380606">
        <ele>27.0543</ele>
        <time>2013-05-26T10:42:50Z</time>
      </trkpt>
      <trkpt lat="59.791558" lon="17.8381229">
        <ele>26.5736</ele>
        <time>2013-05-26T10:42:51Z</time>
      </trkpt>
      <trkpt lat="59.791488" lon="17.8381814">
        <ele>27.0543</ele>
        <time>2013-05-26T10:42:52Z</time>
      </trkpt>
      <trkpt lat="59.7914181" lon="17.8382375">
        <ele>27.0543</ele>
        <time>2013-05-26T10:42:53Z</time>
      </trkpt>
      <trkpt lat="59.7913502" lon="17.8382943">
        <ele>27.0543</ele>
        <time>2013-05-26T10:42:54Z</time>
      </trkpt>
      <trkpt lat="59.7912847" lon="17.8383554">
        <ele>27.5349</ele>
        <time>2013-05-26T10:42:55Z</time>
      </trkpt>
      <trkpt lat="59.7912249" lon="17.8384273">
        <ele>27.5349</ele>
        <time>2013-05-26T10:42:56Z</time>
      </trkpt>
      <trkpt lat="59.7911749" lon="17.8385139">
        <ele>27.5349</ele>
        <time>2013-05-26T10:42:57Z</time>
      </trkpt>
      <trkpt lat="59.791131" lon="17.838611">
        <ele>27.5349</ele>
        <time>2013-05-26T10:42:58Z</time>
      </trkpt>
      <trkpt lat="59.7910927" lon="17.8387164">
        <ele>27.0543</ele>
        <time>2013-05-26T10:42:59Z</time>
      </trkpt>
      <trkpt lat="59.7910607" lon="17.8388319">
        <ele>27.0543</ele>
        <time>2013-05-26T10:43:00Z</time>
      </trkpt>
      <trkpt lat="59.7910298" lon="17.8389582">
        <ele>26.5736</ele>
        <time>2013-05-26T10:43:01Z</time>
      </trkpt>
      <trkpt lat="59.7909956" lon="17.8390925">
        <ele>26.5736</ele>
        <time>2013-05-26T10:43:02Z</time>
      </trkpt>
      <trkpt lat="59.7909585" lon="17.8392298">
        <ele>26.5736</ele>
        <time>2013-05-26T10:43:03Z</time>
      </trkpt>
      <trkpt lat="59.7909181" lon="17.8393665">
        <ele>26.5736</ele>
        <time>2013-05-26T10:43:04Z</time>
      </trkpt>
      <trkpt lat="59.7908734" lon="17.839495">
        <ele>25.6123</ele>
        <time>2013-05-26T10:43:05Z</time>
      </trkpt>
      <trkpt lat="59.7908114" lon="17.8396296">
        <ele>25.1317</ele>
        <time>2013-05-26T10:43:06Z</time>
      </trkpt>
      <trkpt lat="59.7907561" lon="17.8397421">
        <ele>25.1317</ele>
        <time>2013-05-26T10:43:07Z</time>
      </trkpt>
      <trkpt lat="59.7906923" lon="17.8398108">
        <ele>24.1703</ele>
        <time>2013-05-26T10:43:08Z</time>
      </trkpt>
      <trkpt lat="59.7906281" lon="17.8398515">
        <ele>23.6896</ele>
        <time>2013-05-26T10:43:09Z</time>
      </trkpt>
      <trkpt lat="59.7905559" lon="17.8398514">
        <ele>23.6896</ele>
        <time>2013-05-26T10:43:10Z</time>
      </trkpt>
      <trkpt lat="59.7904824" lon="17.8398191">
        <ele>23.6896</ele>
        <time>2013-05-26T10:43:11Z</time>
      </trkpt>
      <trkpt lat="59.7904085" lon="17.8397824">
        <ele>23.6896</ele>
        <time>2013-05-26T10:43:12Z</time>
      </trkpt>
      <trkpt lat="59.790337" lon="17.8397206">
        <ele>21.767</ele>
        <time>2013-05-26T10:43:13Z</time>
      </trkpt>
      <trkpt lat="59.7902526" lon="17.839611">
        <ele>19.3638</ele>
        <time>2013-05-26T10:43:14Z</time>
      </trkpt>
      <trkpt lat="59.7901691" lon="17.8395754">
        <ele>19.3638</ele>
        <time>2013-05-26T10:43:15Z</time>
      </trkpt>
      <trkpt lat="59.7900935" lon="17.8395528">
        <ele>19.3638</ele>
        <time>2013-05-26T10:43:16Z</time>
      </trkpt>
      <trkpt lat="59.7900247" lon="17.839524">
        <ele>19.3638</ele>
        <time>2013-05-26T10:43:17Z</time>
      </trkpt>
      <trkpt lat="59.7899581" lon="17.8394897">
        <ele>19.3638</ele>
        <time>2013-05-26T10:43:18Z</time>
      </trkpt>
      <trkpt lat="59.7898889" lon="17.8394547">
        <ele>18.8831</ele>
        <time>2013-05-26T10:43:19Z</time>
      </trkpt>
      <trkpt lat="59.7898175" lon="17.8394142">
        <ele>18.4023</ele>
        <time>2013-05-26T10:43:20Z</time>
      </trkpt>
      <trkpt lat="59.7897433" lon="17.8393705">
        <ele>18.8831</ele>
        <time>2013-05-26T10:43:21Z</time>
      </trkpt>
      <trkpt lat="59.789663" lon="17.8393251">
        <ele>18.8831</ele>
        <time>2013-05-26T10:43:22Z</time>
      </trkpt>
      <trkpt lat="59.7895828" lon="17.8392789">
        <ele>18.4023</ele>
        <time>2013-05-26T10:43:23Z</time>
      </trkpt>
      <trkpt lat="59.7894981" lon="17.8392359">
        <ele>17.9218</ele>
        <time>2013-05-26T10:43:24Z</time>
      </trkpt>
      <trkpt lat="59.7894114" lon="17.839192">
        <ele>17.4412</ele>
        <time>2013-05-26T10:43:25Z</time>
      </trkpt>
      <trkpt lat="59.7893257" lon="17.839147">
        <ele>16.9604</ele>
        <time>2013-05-26T10:43:26Z</time>
      </trkpt>
      <trkpt lat="59.7892408" lon="17.8391014">
        <ele>16.4797</ele>
        <time>2013-05-26T10:43:27Z</time>
      </trkpt>
      <trkpt lat="59.7891568" lon="17.8390572">
        <ele>15.999</ele>
        <time>2013-05-26T10:43:28Z</time>
      </trkpt>
      <trkpt lat="59.7890728" lon="17.8390141">
        <ele>15.5184</ele>
        <time>2013-05-26T10:43:29Z</time>
      </trkpt>
      <trkpt lat="59.7889884" lon="17.8389733">
        <ele>15.0377</ele>
        <time>2013-05-26T10:43:30Z</time>
      </trkpt>
      <trkpt lat="59.7889035" lon="17.8389301">
        <ele>14.557</ele>
        <time>2013-05-26T10:43:31Z</time>
      </trkpt>
      <trkpt lat="59.7888176" lon="17.8388843">
        <ele>14.0764</ele>
        <time>2013-05-26T10:43:32Z</time>
      </trkpt>
      <trkpt lat="59.788731" lon="17.838833">
        <ele>13.5958</ele>
        <time>2013-05-26T10:43:33Z</time>
      </trkpt>
      <trkpt lat="59.7886404" lon="17.8387763">
        <ele>13.1151</ele>
        <time>2013-05-26T10:43:34Z</time>
      </trkpt>
      <trkpt lat="59.7885518" lon="17.83871">
        <ele>13.1151</ele>
        <time>2013-05-26T10:43:35Z</time>
      </trkpt>
      <trkpt lat="59.7884653" lon="17.8386274">
        <ele>12.6344</ele>
        <time>2013-05-26T10:43:36Z</time>
      </trkpt>
      <trkpt lat="59.7883838" lon="17.8385294">
        <ele>12.6344</ele>
        <time>2013-05-26T10:43:37Z</time>
      </trkpt>
      <trkpt lat="59.788309" lon="17.8384202">
        <ele>12.6344</ele>
        <time>2013-05-26T10:43:38Z</time>
      </trkpt>
      <trkpt lat="59.7882403" lon="17.8383015">
        <ele>12.6344</ele>
        <time>2013-05-26T10:43:39Z</time>
      </trkpt>
      <trkpt lat="59.7881774" lon="17.838178">
        <ele>12.6344</ele>
        <time>2013-05-26T10:43:40Z</time>
      </trkpt>
      <trkpt lat="59.788117" lon="17.8380524">
        <ele>13.1151</ele>
        <time>2013-05-26T10:43:41Z</time>
      </trkpt>
      <trkpt lat="59.7880551" lon="17.837925">
        <ele>12.6344</ele>
        <time>2013-05-26T10:43:42Z</time>
      </trkpt>
      <trkpt lat="59.7879914" lon="17.8377974">
        <ele>12.6344</ele>
        <time>2013-05-26T10:43:43Z</time>
      </trkpt>
      <trkpt lat="59.787927" lon="17.8376735">
        <ele>12.6344</ele>
        <time>2013-05-26T10:43:44Z</time>
      </trkpt>
      <trkpt lat="59.787864" lon="17.8375524">
        <ele>12.6344</ele>
        <time>2013-05-26T10:43:45Z</time>
      </trkpt>
      <trkpt lat="59.7878021" lon="17.8374367">
        <ele>12.6344</ele>
        <time>2013-05-26T10:43:46Z</time>
      </trkpt>
      <trkpt lat="59.7877402" lon="17.8373262">
        <ele>13.1151</ele>
        <time>2013-05-26T10:43:47Z</time>
      </trkpt>
      <trkpt lat="59.7876776" lon="17.8372173">
        <ele>13.1151</ele>
        <time>2013-05-26T10:43:48Z</time>
      </trkpt>
      <trkpt lat="59.7876147" lon="17.8371126">
        <ele>13.5958</ele>
        <time>2013-05-26T10:43:49Z</time>
      </trkpt>
      <trkpt lat="59.7875505" lon="17.8370116">
        <ele>13.5958</ele>
        <time>2013-05-26T10:43:50Z</time>
      </trkpt>
      <trkpt lat="59.7874867" lon="17.8369132">
        <ele>14.0764</ele>
        <time>2013-05-26T10:43:51Z</time>
      </trkpt>
      <trkpt lat="59.7874231" lon="17.8368138">
        <ele>14.0764</ele>
        <time>2013-05-26T10:43:52Z</time>
      </trkpt>
      <trkpt lat="59.7873595" lon="17.8367219">
        <ele>15.0377</ele>
        <time>2013-05-26T10:43:53Z</time>
      </trkpt>
      <trkpt lat="59.7872952" lon="17.8366382">
        <ele>15.0377</ele>
        <time>2013-05-26T10:43:54Z</time>
      </trkpt>
      <trkpt lat="59.7872309" lon="17.8365564">
        <ele>15.5184</ele>
        <time>2013-05-26T10:43:55Z</time>
      </trkpt>
      <trkpt lat="59.7871662" lon="17.8364729">
        <ele>15.999</ele>
        <time>2013-05-26T10:43:56Z</time>
      </trkpt>
      <trkpt lat="59.7871002" lon="17.8363863">
        <ele>15.999</ele>
        <time>2013-05-26T10:43:57Z</time>
      </trkpt>
      <trkpt lat="59.7870331" lon="17.8362992">
        <ele>16.4797</ele>
        <time>2013-05-26T10:43:58Z</time>
      </trkpt>
      <trkpt lat="59.7869651" lon="17.836213">
        <ele>16.9604</ele>
        <time>2013-05-26T10:43:59Z</time>
      </trkpt>
      <trkpt lat="59.7868964" lon="17.8361316">
        <ele>17.4412</ele>
        <time>2013-05-26T10:44:00Z</time>
      </trkpt>
      <trkpt lat="59.7868283" lon="17.8360533">
        <ele>17.9218</ele>
        <time>2013-05-26T10:44:01Z</time>
      </trkpt>
      <trkpt lat="59.7867607" lon="17.8359751">
        <ele>17.9218</ele>
        <time>2013-05-26T10:44:02Z</time>
      </trkpt>
      <trkpt lat="59.786693" lon="17.8358977">
        <ele>18.4023</ele>
        <time>2013-05-26T10:44:03Z</time>
      </trkpt>
      <trkpt lat="59.786625" lon="17.8358218">
        <ele>18.8831</ele>
        <time>2013-05-26T10:44:04Z</time>
      </trkpt>
      <trkpt lat="59.786557" lon="17.835748">
        <ele>18.8831</ele>
        <time>2013-05-26T10:44:05Z</time>
      </trkpt>
      <trkpt lat="59.7864882" lon="17.8356767">
        <ele>19.3638</ele>
        <time>2013-05-26T10:44:06Z</time>
      </trkpt>
      <trkpt lat="59.786419" lon="17.8356105">
        <ele>19.3638</ele>
        <time>2013-05-26T10:44:07Z</time>
      </trkpt>
      <trkpt lat="59.7863487" lon="17.8355555">
        <ele>19.8444</ele>
        <time>2013-05-26T10:44:08Z</time>
      </trkpt>
      <trkpt lat="59.7862751" lon="17.835499">
        <ele>17.4412</ele>
        <time>2013-05-26T10:44:09Z</time>
      </trkpt>
      <trkpt lat="59.786202" lon="17.83547">
        <ele>16.4797</ele>
        <time>2013-05-26T10:44:10Z</time>
      </trkpt>
      <trkpt lat="59.7861331" lon="17.8354631">
        <ele>14.557</ele>
        <time>2013-05-26T10:44:11Z</time>
      </trkpt>
      <trkpt lat="59.7860665" lon="17.835483">
        <ele>13.5958</ele>
        <time>2013-05-26T10:44:12Z</time>
      </trkpt>
      <trkpt lat="59.7860034" lon="17.8355274">
        <ele>13.1151</ele>
        <time>2013-05-26T10:44:13Z</time>
      </trkpt>
      <trkpt lat="59.785944" lon="17.8355902">
        <ele>12.6344</ele>
        <time>2013-05-26T10:44:14Z</time>
      </trkpt>
      <trkpt lat="59.7858897" lon="17.8356678">
        <ele>12.6344</ele>
        <time>2013-05-26T10:44:15Z</time>
      </trkpt>
      <trkpt lat="59.7858409" lon="17.8357556">
        <ele>12.1538</ele>
        <time>2013-05-26T10:44:16Z</time>
      </trkpt>
      <trkpt lat="59.7857981" lon="17.8358554">
        <ele>12.1538</ele>
        <time>2013-05-26T10:44:17Z</time>
      </trkpt>
      <trkpt lat="59.7857598" lon="17.8359656">
        <ele>11.6732</ele>
        <time>2013-05-26T10:44:18Z</time>
      </trkpt>
      <trkpt lat="59.7857273" lon="17.8360822">
        <ele>11.6732</ele>
        <time>2013-05-26T10:44:19Z</time>
      </trkpt>
      <trkpt lat="59.7857005" lon="17.8362024">
        <ele>11.6732</ele>
        <time>2013-05-26T10:44:20Z</time>
      </trkpt>
      <trkpt lat="59.7856806" lon="17.8363309">
        <ele>12.1538</ele>
        <time>2013-05-26T10:44:21Z</time>
      </trkpt>
      <trkpt lat="59.7856674" lon="17.8364579">
        <ele>12.1538</ele>
        <time>2013-05-26T10:44:22Z</time>
      </trkpt>
      <trkpt lat="59.7856558" lon="17.8365805">
        <ele>11.6732</ele>
        <time>2013-05-26T10:44:23Z</time>
      </trkpt>
      <trkpt lat="59.7856444" lon="17.8366997">
        <ele>11.6732</ele>
        <time>2013-05-26T10:44:24Z</time>
      </trkpt>
      <trkpt lat="59.7856317" lon="17.8368188">
        <ele>11.1925</ele>
        <time>2013-05-26T10:44:25Z</time>
      </trkpt>
      <trkpt lat="59.7856158" lon="17.8369376">
        <ele>11.1925</ele>
        <time>2013-05-26T10:44:26Z</time>
      </trkpt>
      <trkpt lat="59.7855977" lon="17.8370581">
        <ele>11.1925</ele>
        <time>2013-05-26T10:44:27Z</time>
      </trkpt>
      <trkpt lat="59.7855762" lon="17.8371814">
        <ele>11.6732</ele>
        <time>2013-05-26T10:44:28Z</time>
      </trkpt>
      <trkpt lat="59.7855517" lon="17.8373042">
        <ele>11.6732</ele>
        <time>2013-05-26T10:44:29Z</time>
      </trkpt>
      <trkpt lat="59.785525" lon="17.8374251">
        <ele>12.1538</ele>
        <time>2013-05-26T10:44:30Z</time>
      </trkpt>
      <trkpt lat="59.7854971" lon="17.8375513">
        <ele>12.6344</ele>
        <time>2013-05-26T10:44:31Z</time>
      </trkpt>
      <trkpt lat="59.7854645" lon="17.8376742">
        <ele>12.6344</ele>
        <time>2013-05-26T10:44:32Z</time>
      </trkpt>
      <trkpt lat="59.7854288" lon="17.8377927">
        <ele>13.1151</ele>
        <time>2013-05-26T10:44:33Z</time>
      </trkpt>
      <trkpt lat="59.7853921" lon="17.8379088">
        <ele>13.1151</ele>
        <time>2013-05-26T10:44:34Z</time>
      </trkpt>
      <trkpt lat="59.7853525" lon="17.8380176">
        <ele>13.1151</ele>
        <time>2013-05-26T10:44:35Z</time>
      </trkpt>
      <trkpt lat="59.7853081" lon="17.8381153">
        <ele>12.6344</ele>
        <time>2013-05-26T10:44:36Z</time>
      </trkpt>
      <trkpt lat="59.7852588" lon="17.8382089">
        <ele>12.6344</ele>
        <time>2013-05-26T10:44:37Z</time>
      </trkpt>
      <trkpt lat="59.7852065" lon="17.8382947">
        <ele>12.6344</ele>
        <time>2013-05-26T10:44:38Z</time>
      </trkpt>
      <trkpt lat="59.7851559" lon="17.8383753">
        <ele>13.1151</ele>
        <time>2013-05-26T10:44:39Z</time>
      </trkpt>
      <trkpt lat="59.785111" lon="17.8384491">
        <ele>13.5958</ele>
        <time>2013-05-26T10:44:40Z</time>
      </trkpt>
      <trkpt lat="59.7850675" lon="17.8385149">
        <ele>14.0764</ele>
        <time>2013-05-26T10:44:41Z</time>
      </trkpt>
      <trkpt lat="59.7850235" lon="17.8385759">
        <ele>14.0764</ele>
        <time>2013-05-26T10:44:42Z</time>
      </trkpt>
      <trkpt lat="59.7849766" lon="17.8386423">
        <ele>14.0764</ele>
        <time>2013-05-26T10:44:43Z</time>
      </trkpt>
      <trkpt lat="59.7849256" lon="17.8387105">
        <ele>14.0764</ele>
        <time>2013-05-26T10:44:44Z</time>
      </trkpt>
      <trkpt lat="59.7848713" lon="17.8387827">
        <ele>14.0764</ele>
        <time>2013-05-26T10:44:45Z</time>
      </trkpt>
      <trkpt lat="59.784815" lon="17.8388595">
        <ele>13.5958</ele>
        <time>2013-05-26T10:44:46Z</time>
      </trkpt>
      <trkpt lat="59.7847569" lon="17.8389444">
        <ele>13.5958</ele>
        <time>2013-05-26T10:44:47Z</time>
      </trkpt>
      <trkpt lat="59.7846982" lon="17.8390317">
        <ele>13.5958</ele>
        <time>2013-05-26T10:44:48Z</time>
      </trkpt>
      <trkpt lat="59.7846391" lon="17.8391068">
        <ele>13.5958</ele>
        <time>2013-05-26T10:44:49Z</time>
      </trkpt>
      <trkpt lat="59.7845765" lon="17.8391648">
        <ele>13.1151</ele>
        <time>2013-05-26T10:44:50Z</time>
      </trkpt>
      <trkpt lat="59.7845086" lon="17.8391969">
        <ele>13.5958</ele>
        <time>2013-05-26T10:44:51Z</time>
      </trkpt>
      <trkpt lat="59.7844387" lon="17.8391907">
        <ele>13.5958</ele>
        <time>2013-05-26T10:44:52Z</time>
      </trkpt>
      <trkpt lat="59.7843726" lon="17.8391541">
        <ele>13.5958</ele>
        <time>2013-05-26T10:44:53Z</time>
      </trkpt>
      <trkpt lat="59.7843125" lon="17.8390962">
        <ele>12.6344</ele>
        <time>2013-05-26T10:44:54Z</time>
      </trkpt>
      <trkpt lat="59.7842545" lon="17.8390337">
        <ele>12.6344</ele>
        <time>2013-05-26T10:44:55Z</time>
      </trkpt>
      <trkpt lat="59.7841958" lon="17.8389718">
        <ele>12.1538</ele>
        <time>2013-05-26T10:44:56Z</time>
      </trkpt>
      <trkpt lat="59.7841375" lon="17.8389138">
        <ele>12.1538</ele>
        <time>2013-05-26T10:44:57Z</time>
      </trkpt>
      <trkpt lat="59.7840768" lon="17.8388537">
        <ele>11.6732</ele>
        <time>2013-05-26T10:44:58Z</time>
      </trkpt>
      <trkpt lat="59.7840156" lon="17.8388003">
        <ele>12.6344</ele>
        <time>2013-05-26T10:44:59Z</time>
      </trkpt>
      <trkpt lat="59.783951" lon="17.8387775">
        <ele>13.1151</ele>
        <time>2013-05-26T10:45:00Z</time>
      </trkpt>
      <trkpt lat="59.7838885" lon="17.8387978">
        <ele>13.5958</ele>
        <time>2013-05-26T10:45:01Z</time>
      </trkpt>
      <trkpt lat="59.7838339" lon="17.8388618">
        <ele>14.0764</ele>
        <time>2013-05-26T10:45:02Z</time>
      </trkpt>
      <trkpt lat="59.7837915" lon="17.8389568">
        <ele>14.557</ele>
        <time>2013-05-26T10:45:03Z</time>
      </trkpt>
      <trkpt lat="59.7837533" lon="17.8390598">
        <ele>15.0377</ele>
        <time>2013-05-26T10:45:04Z</time>
      </trkpt>
      <trkpt lat="59.7837142" lon="17.8391609">
        <ele>15.0377</ele>
        <time>2013-05-26T10:45:05Z</time>
      </trkpt>
      <trkpt lat="59.7836769" lon="17.8392602">
        <ele>15.0377</ele>
        <time>2013-05-26T10:45:06Z</time>
      </trkpt>
      <trkpt lat="59.7836417" lon="17.8393629">
        <ele>15.5184</ele>
        <time>2013-05-26T10:45:07Z</time>
      </trkpt>
      <trkpt lat="59.7836062" lon="17.8394645">
        <ele>15.5184</ele>
        <time>2013-05-26T10:45:08Z</time>
      </trkpt>
      <trkpt lat="59.7835695" lon="17.8395676">
        <ele>15.999</ele>
        <time>2013-05-26T10:45:09Z</time>
      </trkpt>
      <trkpt lat="59.7835313" lon="17.8396678">
        <ele>15.999</ele>
        <time>2013-05-26T10:45:10Z</time>
      </trkpt>
      <trkpt lat="59.7834889" lon="17.8397616">
        <ele>15.999</ele>
        <time>2013-05-26T10:45:11Z</time>
      </trkpt>
      <trkpt lat="59.7834423" lon="17.8398446">
        <ele>15.5184</ele>
        <time>2013-05-26T10:45:12Z</time>
      </trkpt>
      <trkpt lat="59.7833842" lon="17.8399165">
        <ele>15.5184</ele>
        <time>2013-05-26T10:45:13Z</time>
      </trkpt>
      <trkpt lat="59.7833148" lon="17.8399605">
        <ele>15.0377</ele>
        <time>2013-05-26T10:45:14Z</time>
      </trkpt>
      <trkpt lat="59.78324" lon="17.8399739">
        <ele>15.0377</ele>
        <time>2013-05-26T10:45:15Z</time>
      </trkpt>
      <trkpt lat="59.783162" lon="17.8399648">
        <ele>14.557</ele>
        <time>2013-05-26T10:45:16Z</time>
      </trkpt>
      <trkpt lat="59.7830827" lon="17.8399389">
        <ele>14.557</ele>
        <time>2013-05-26T10:45:17Z</time>
      </trkpt>
      <trkpt lat="59.7830019" lon="17.8399063">
        <ele>14.557</ele>
        <time>2013-05-26T10:45:18Z</time>
      </trkpt>
      <trkpt lat="59.782918" lon="17.8398709">
        <ele>15.0377</ele>
        <time>2013-05-26T10:45:19Z</time>
      </trkpt>
      <trkpt lat="59.782832" lon="17.8398369">
        <ele>15.0377</ele>
        <time>2013-05-26T10:45:20Z</time>
      </trkpt>
      <trkpt lat="59.7827443" lon="17.8398021">
        <ele>15.0377</ele>
        <time>2013-05-26T10:45:21Z</time>
      </trkpt>
      <trkpt lat="59.7826543" lon="17.8397653">
        <ele>15.0377</ele>
        <time>2013-05-26T10:45:22Z</time>
      </trkpt>
      <trkpt lat="59.7825624" lon="17.83973">
        <ele>15.5184</ele>
        <time>2013-05-26T10:45:23Z</time>
      </trkpt>
      <trkpt lat="59.7824684" lon="17.8396954">
        <ele>15.5184</ele>
        <time>2013-05-26T10:45:24Z</time>
      </trkpt>
      <trkpt lat="59.7823729" lon="17.8396597">
        <ele>15.5184</ele>
        <time>2013-05-26T10:45:25Z</time>
      </trkpt>
      <trkpt lat="59.7822757" lon="17.8396196">
        <ele>15.5184</ele>
        <time>2013-05-26T10:45:26Z</time>
      </trkpt>
      <trkpt lat="59.7821777" lon="17.8395799">
        <ele>15.5184</ele>
        <time>2013-05-26T10:45:27Z</time>
      </trkpt>
      <trkpt lat="59.78208" lon="17.8395421">
        <ele>15.999</ele>
        <time>2013-05-26T10:45:28Z</time>
      </trkpt>
      <trkpt lat="59.7819835" lon="17.8395064">
        <ele>15.999</ele>
        <time>2013-05-26T10:45:29Z</time>
      </trkpt>
      <trkpt lat="59.7818883" lon="17.8394725">
        <ele>16.4797</ele>
        <time>2013-05-26T10:45:30Z</time>
      </trkpt>
      <trkpt lat="59.7817949" lon="17.8394416">
        <ele>16.4797</ele>
        <time>2013-05-26T10:45:31Z</time>
      </trkpt>
      <trkpt lat="59.7817039" lon="17.8394165">
        <ele>16.4797</ele>
        <time>2013-05-26T10:45:32Z</time>
      </trkpt>
      <trkpt lat="59.7816157" lon="17.8393977">
        <ele>16.9604</ele>
        <time>2013-05-26T10:45:33Z</time>
      </trkpt>
      <trkpt lat="59.7815302" lon="17.8393783">
        <ele>17.4412</ele>
        <time>2013-05-26T10:45:34Z</time>
      </trkpt>
      <trkpt lat="59.7814483" lon="17.8393528">
        <ele>17.9218</ele>
        <time>2013-05-26T10:45:35Z</time>
      </trkpt>
      <trkpt lat="59.7813698" lon="17.8393199">
        <ele>18.4023</ele>
        <time>2013-05-26T10:45:36Z</time>
      </trkpt>
      <trkpt lat="59.7812959" lon="17.8392773">
        <ele>18.8831</ele>
        <time>2013-05-26T10:45:37Z</time>
      </trkpt>
      <trkpt lat="59.7812272" lon="17.839223">
        <ele>19.3638</ele>
        <time>2013-05-26T10:45:38Z</time>
      </trkpt>
      <trkpt lat="59.7811649" lon="17.8391615">
        <ele>19.8444</ele>
        <time>2013-05-26T10:45:39Z</time>
      </trkpt>
      <trkpt lat="59.781112" lon="17.8391018">
        <ele>20.325</ele>
        <time>2013-05-26T10:45:40Z</time>
      </trkpt>
      <trkpt lat="59.7810716" lon="17.8390474">
        <ele>20.8057</ele>
        <time>2013-05-26T10:45:41Z</time>
      </trkpt>
      <trkpt lat="59.7810432" lon="17.8389998">
        <ele>20.8057</ele>
        <time>2013-05-26T10:45:42Z</time>
      </trkpt>
      <trkpt lat="59.7810205" lon="17.8389562">
        <ele>21.2864</ele>
        <time>2013-05-26T10:45:43Z</time>
      </trkpt>
      <trkpt lat="59.7810009" lon="17.8389163">
        <ele>21.767</ele>
        <time>2013-05-26T10:45:44Z</time>
      </trkpt>
      <trkpt lat="59.7809827" lon="17.838879">
        <ele>21.767</ele>
        <time>2013-05-26T10:45:45Z</time>
      </trkpt>
      <trkpt lat="59.780966" lon="17.8388431">
        <ele>22.2476</ele>
        <time>2013-05-26T10:45:46Z</time>
      </trkpt>
      <trkpt lat="59.7809521" lon="17.838805">
        <ele>22.2476</ele>
        <time>2013-05-26T10:45:47Z</time>
      </trkpt>
      <trkpt lat="59.7809454" lon="17.8387629">
        <ele>22.7283</ele>
        <time>2013-05-26T10:45:48Z</time>
      </trkpt>
      <trkpt lat="59.7809464" lon="17.8387174">
        <ele>23.209</ele>
        <time>2013-05-26T10:45:49Z</time>
      </trkpt>
      <trkpt lat="59.7809533" lon="17.8386703">
        <ele>23.209</ele>
        <time>2013-05-26T10:45:50Z</time>
      </trkpt>
      <trkpt lat="59.7809671" lon="17.8386229">
        <ele>23.6896</ele>
        <time>2013-05-26T10:45:51Z</time>
      </trkpt>
      <trkpt lat="59.7809861" lon="17.8385708">
        <ele>23.6896</ele>
        <time>2013-05-26T10:45:52Z</time>
      </trkpt>
      <trkpt lat="59.7810076" lon="17.8385164">
        <ele>23.6896</ele>
        <time>2013-05-26T10:45:53Z</time>
      </trkpt>
      <trkpt lat="59.7810293" lon="17.8384539">
        <ele>23.209</ele>
        <time>2013-05-26T10:45:54Z</time>
      </trkpt>
      <trkpt lat="59.7810529" lon="17.8383869">
        <ele>22.2476</ele>
        <time>2013-05-26T10:45:55Z</time>
      </trkpt>
      <trkpt lat="59.7810768" lon="17.8383161">
        <ele>22.2476</ele>
        <time>2013-05-26T10:45:56Z</time>
      </trkpt>
      <trkpt lat="59.7811011" lon="17.8382413">
        <ele>21.767</ele>
        <time>2013-05-26T10:45:57Z</time>
      </trkpt>
      <trkpt lat="59.7811262" lon="17.8381626">
        <ele>21.2864</ele>
        <time>2013-05-26T10:45:58Z</time>
      </trkpt>
      <trkpt lat="59.781153" lon="17.838083">
        <ele>20.8057</ele>
        <time>2013-05-26T10:45:59Z</time>
      </trkpt>
      <trkpt lat="59.7811822" lon="17.8380006">
        <ele>20.325</ele>
        <time>2013-05-26T10:46:00Z</time>
      </trkpt>
      <trkpt lat="59.7812106" lon="17.8379036">
        <ele>19.3638</ele>
        <time>2013-05-26T10:46:01Z</time>
      </trkpt>
      <trkpt lat="59.7812413" lon="17.8378117">
        <ele>18.4023</ele>
        <time>2013-05-26T10:46:02Z</time>
      </trkpt>
      <trkpt lat="59.7812728" lon="17.8377176">
        <ele>17.9218</ele>
        <time>2013-05-26T10:46:03Z</time>
      </trkpt>
      <trkpt lat="59.7813031" lon="17.8376098">
        <ele>15.999</ele>
        <time>2013-05-26T10:46:04Z</time>
      </trkpt>
      <trkpt lat="59.7813349" lon="17.8375149">
        <ele>15.5184</ele>
        <time>2013-05-26T10:46:05Z</time>
      </trkpt>
      <trkpt lat="59.7813681" lon="17.8374215">
        <ele>15.5184</ele>
        <time>2013-05-26T10:46:06Z</time>
      </trkpt>
      <trkpt lat="59.7814005" lon="17.8373245">
        <ele>15.5184</ele>
        <time>2013-05-26T10:46:07Z</time>
      </trkpt>
      <trkpt lat="59.7814333" lon="17.8372292">
        <ele>15.5184</ele>
        <time>2013-05-26T10:46:08Z</time>
      </trkpt>
      <trkpt lat="59.7814673" lon="17.8371378">
        <ele>15.5184</ele>
        <time>2013-05-26T10:46:09Z</time>
      </trkpt>
      <trkpt lat="59.7815007" lon="17.8370483">
        <ele>15.5184</ele>
        <time>2013-05-26T10:46:10Z</time>
      </trkpt>
      <trkpt lat="59.7815331" lon="17.8369593">
        <ele>15.999</ele>
        <time>2013-05-26T10:46:11Z</time>
      </trkpt>
      <trkpt lat="59.7815623" lon="17.8368687">
        <ele>15.999</ele>
        <time>2013-05-26T10:46:12Z</time>
      </trkpt>
      <trkpt lat="59.7815908" lon="17.8367731">
        <ele>15.999</ele>
        <time>2013-05-26T10:46:13Z</time>
      </trkpt>
      <trkpt lat="59.78162" lon="17.836678">
        <ele>15.999</ele>
        <time>2013-05-26T10:46:14Z</time>
      </trkpt>
      <trkpt lat="59.7816474" lon="17.8365857">
        <ele>15.999</ele>
        <time>2013-05-26T10:46:15Z</time>
      </trkpt>
      <trkpt lat="59.7816762" lon="17.8364939">
        <ele>16.4797</ele>
        <time>2013-05-26T10:46:16Z</time>
      </trkpt>
      <trkpt lat="59.7816938" lon="17.8363869">
        <ele>16.4797</ele>
        <time>2013-05-26T10:46:17Z</time>
      </trkpt>
      <trkpt lat="59.7816982" lon="17.8362693">
        <ele>16.4797</ele>
        <time>2013-05-26T10:46:18Z</time>
      </trkpt>
      <trkpt lat="59.7816658" lon="17.8361735">
        <ele>15.5184</ele>
        <time>2013-05-26T10:46:19Z</time>
      </trkpt>
      <trkpt lat="59.7816283" lon="17.8360686">
        <ele>15.5184</ele>
        <time>2013-05-26T10:46:20Z</time>
      </trkpt>
      <trkpt lat="59.7815827" lon="17.8359917">
        <ele>15.5184</ele>
        <time>2013-05-26T10:46:21Z</time>
      </trkpt>
      <trkpt lat="59.7815359" lon="17.8359215">
        <ele>15.0377</ele>
        <time>2013-05-26T10:46:22Z</time>
      </trkpt>
      <trkpt lat="59.7814902" lon="17.8358552">
        <ele>15.0377</ele>
        <time>2013-05-26T10:46:23Z</time>
      </trkpt>
      <trkpt lat="59.7814446" lon="17.8357819">
        <ele>14.557</ele>
        <time>2013-05-26T10:46:24Z</time>
      </trkpt>
      <trkpt lat="59.7813974" lon="17.8357121">
        <ele>14.557</ele>
        <time>2013-05-26T10:46:25Z</time>
      </trkpt>
      <trkpt lat="59.7813494" lon="17.8356444">
        <ele>14.557</ele>
        <time>2013-05-26T10:46:26Z</time>
      </trkpt>
      <trkpt lat="59.7813007" lon="17.8355753">
        <ele>14.557</ele>
        <time>2013-05-26T10:46:27Z</time>
      </trkpt>
      <trkpt lat="59.7812524" lon="17.8355046">
        <ele>14.557</ele>
        <time>2013-05-26T10:46:28Z</time>
      </trkpt>
      <trkpt lat="59.7812044" lon="17.8354328">
        <ele>14.557</ele>
        <time>2013-05-26T10:46:29Z</time>
      </trkpt>
      <trkpt lat="59.7811562" lon="17.8353628">
        <ele>15.0377</ele>
        <time>2013-05-26T10:46:30Z</time>
      </trkpt>
      <trkpt lat="59.7811091" lon="17.8352951">
        <ele>15.0377</ele>
        <time>2013-05-26T10:46:31Z</time>
      </trkpt>
      <trkpt lat="59.7810608" lon="17.835228">
        <ele>15.5184</ele>
        <time>2013-05-26T10:46:32Z</time>
      </trkpt>
      <trkpt lat="59.7810122" lon="17.8351607">
        <ele>16.4797</ele>
        <time>2013-05-26T10:46:33Z</time>
      </trkpt>
      <trkpt lat="59.7809629" lon="17.8350913">
        <ele>16.4797</ele>
        <time>2013-05-26T10:46:34Z</time>
      </trkpt>
      <trkpt lat="59.7809133" lon="17.8350225">
        <ele>16.9604</ele>
        <time>2013-05-26T10:46:35Z</time>
      </trkpt>
      <trkpt lat="59.7808644" lon="17.8349539">
        <ele>17.4412</ele>
        <time>2013-05-26T10:46:36Z</time>
      </trkpt>
      <trkpt lat="59.7808154" lon="17.8348848">
        <ele>17.9218</ele>
        <time>2013-05-26T10:46:37Z</time>
      </trkpt>
      <trkpt lat="59.7807667" lon="17.8348138">
        <ele>17.9218</ele>
        <time>2013-05-26T10:46:38Z</time>
      </trkpt>
      <trkpt lat="59.7807184" lon="17.8347417">
        <ele>18.4023</ele>
        <time>2013-05-26T10:46:39Z</time>
      </trkpt>
      <trkpt lat="59.7806693" lon="17.8346703">
        <ele>18.4023</ele>
        <time>2013-05-26T10:46:40Z</time>
      </trkpt>
      <trkpt lat="59.7806206" lon="17.8345993">
        <ele>18.4023</ele>
        <time>2013-05-26T10:46:41Z</time>
      </trkpt>
      <trkpt lat="59.780572" lon="17.8345286">
        <ele>18.8831</ele>
        <time>2013-05-26T10:46:42Z</time>
      </trkpt>
      <trkpt lat="59.7805235" lon="17.8344574">
        <ele>18.8831</ele>
        <time>2013-05-26T10:46:43Z</time>
      </trkpt>
      <trkpt lat="59.7804757" lon="17.8343874">
        <ele>19.3638</ele>
        <time>2013-05-26T10:46:44Z</time>
      </trkpt>
      <trkpt lat="59.7804283" lon="17.834318">
        <ele>19.8444</ele>
        <time>2013-05-26T10:46:45Z</time>
      </trkpt>
      <trkpt lat="59.7803808" lon="17.834252">
        <ele>20.325</ele>
        <time>2013-05-26T10:46:46Z</time>
      </trkpt>
      <trkpt lat="59.780334" lon="17.8341863">
        <ele>20.8057</ele>
        <time>2013-05-26T10:46:47Z</time>
      </trkpt>
      <trkpt lat="59.7802873" lon="17.83412">
        <ele>20.8057</ele>
        <time>2013-05-26T10:46:48Z</time>
      </trkpt>
      <trkpt lat="59.78024" lon="17.8340568">
        <ele>21.767</ele>
        <time>2013-05-26T10:46:49Z</time>
      </trkpt>
      <trkpt lat="59.7801934" lon="17.8339961">
        <ele>22.2476</ele>
        <time>2013-05-26T10:46:50Z</time>
      </trkpt>
      <trkpt lat="59.7801461" lon="17.8339362">
        <ele>22.7283</ele>
        <time>2013-05-26T10:46:51Z</time>
      </trkpt>
      <trkpt lat="59.7800965" lon="17.8338749">
        <ele>23.209</ele>
        <time>2013-05-26T10:46:52Z</time>
      </trkpt>
      <trkpt lat="59.780046" lon="17.8338161">
        <ele>23.6896</ele>
        <time>2013-05-26T10:46:53Z</time>
      </trkpt>
      <trkpt lat="59.7799917" lon="17.8337476">
        <ele>21.767</ele>
        <time>2013-05-26T10:46:54Z</time>
      </trkpt>
      <trkpt lat="59.7799413" lon="17.8336951">
        <ele>20.8057</ele>
        <time>2013-05-26T10:46:55Z</time>
      </trkpt>
      <trkpt lat="59.7798949" lon="17.8336529">
        <ele>19.8444</ele>
        <time>2013-05-26T10:46:56Z</time>
      </trkpt>
      <trkpt lat="59.7798482" lon="17.833624">
        <ele>19.8444</ele>
        <time>2013-05-26T10:46:57Z</time>
      </trkpt>
      <trkpt lat="59.7798016" lon="17.8335979">
        <ele>19.8444</ele>
        <time>2013-05-26T10:46:58Z</time>
      </trkpt>
      <trkpt lat="59.779755" lon="17.8335695">
        <ele>19.3638</ele>
        <time>2013-05-26T10:46:59Z</time>
      </trkpt>
      <trkpt lat="59.7797066" lon="17.8335428">
        <ele>19.3638</ele>
        <time>2013-05-26T10:47:00Z</time>
      </trkpt>
      <trkpt lat="59.7796545" lon="17.8335197">
        <ele>19.3638</ele>
        <time>2013-05-26T10:47:01Z</time>
      </trkpt>
      <trkpt lat="59.7796" lon="17.8335007">
        <ele>19.3638</ele>
        <time>2013-05-26T10:47:02Z</time>
      </trkpt>
      <trkpt lat="59.7795429" lon="17.833485">
        <ele>19.8444</ele>
        <time>2013-05-26T10:47:03Z</time>
      </trkpt>
      <trkpt lat="59.7794842" lon="17.833473">
        <ele>20.325</ele>
        <time>2013-05-26T10:47:04Z</time>
      </trkpt>
      <trkpt lat="59.7794249" lon="17.8334581">
        <ele>20.8057</ele>
        <time>2013-05-26T10:47:05Z</time>
      </trkpt>
      <trkpt lat="59.779365" lon="17.8334423">
        <ele>21.2864</ele>
        <time>2013-05-26T10:47:06Z</time>
      </trkpt>
      <trkpt lat="59.7793063" lon="17.8334269">
        <ele>21.767</ele>
        <time>2013-05-26T10:47:07Z</time>
      </trkpt>
      <trkpt lat="59.7792508" lon="17.8334081">
        <ele>21.767</ele>
        <time>2013-05-26T10:47:08Z</time>
      </trkpt>
      <trkpt lat="59.779197" lon="17.8333871">
        <ele>21.767</ele>
        <time>2013-05-26T10:47:09Z</time>
      </trkpt>
      <trkpt lat="59.7791444" lon="17.8333705">
        <ele>21.2864</ele>
        <time>2013-05-26T10:47:10Z</time>
      </trkpt>
      <trkpt lat="59.7790935" lon="17.8333598">
        <ele>20.8057</ele>
        <time>2013-05-26T10:47:11Z</time>
      </trkpt>
      <trkpt lat="59.7790446" lon="17.8333462">
        <ele>20.8057</ele>
        <time>2013-05-26T10:47:12Z</time>
      </trkpt>
      <trkpt lat="59.778998" lon="17.83333">
        <ele>21.2864</ele>
        <time>2013-05-26T10:47:13Z</time>
      </trkpt>
      <trkpt lat="59.7789495" lon="17.8333125">
        <ele>21.2864</ele>
        <time>2013-05-26T10:47:14Z</time>
      </trkpt>
      <trkpt lat="59.7788981" lon="17.8332932">
        <ele>21.2864</ele>
        <time>2013-05-26T10:47:15Z</time>
      </trkpt>
      <trkpt lat="59.7788447" lon="17.8332737">
        <ele>21.767</ele>
        <time>2013-05-26T10:47:16Z</time>
      </trkpt>
      <trkpt lat="59.7787914" lon="17.8332481">
        <ele>21.767</ele>
        <time>2013-05-26T10:47:17Z</time>
      </trkpt>
      <trkpt lat="59.7787372" lon="17.8332144">
        <ele>21.767</ele>
        <time>2013-05-26T10:47:18Z</time>
      </trkpt>
      <trkpt lat="59.7786827" lon="17.8331716">
        <ele>21.2864</ele>
        <time>2013-05-26T10:47:19Z</time>
      </trkpt>
      <trkpt lat="59.7786284" lon="17.8331188">
        <ele>20.8057</ele>
        <time>2013-05-26T10:47:20Z</time>
      </trkpt>
      <trkpt lat="59.7785749" lon="17.8330585">
        <ele>20.8057</ele>
        <time>2013-05-26T10:47:21Z</time>
      </trkpt>
      <trkpt lat="59.7785217" lon="17.8329955">
        <ele>20.8057</ele>
        <time>2013-05-26T10:47:22Z</time>
      </trkpt>
      <trkpt lat="59.7784692" lon="17.8329314">
        <ele>20.8057</ele>
        <time>2013-05-26T10:47:23Z</time>
      </trkpt>
      <trkpt lat="59.7784168" lon="17.8328684">
        <ele>21.2864</ele>
        <time>2013-05-26T10:47:24Z</time>
      </trkpt>
      <trkpt lat="59.778366" lon="17.8328021">
        <ele>21.767</ele>
        <time>2013-05-26T10:47:25Z</time>
      </trkpt>
      <trkpt lat="59.7783159" lon="17.8327349">
        <ele>22.2476</ele>
        <time>2013-05-26T10:47:26Z</time>
      </trkpt>
      <trkpt lat="59.7782651" lon="17.8326695">
        <ele>22.7283</ele>
        <time>2013-05-26T10:47:27Z</time>
      </trkpt>
      <trkpt lat="59.7782134" lon="17.8326047">
        <ele>22.7283</ele>
        <time>2013-05-26T10:47:28Z</time>
      </trkpt>
      <trkpt lat="59.7781628" lon="17.8325374">
        <ele>22.7283</ele>
        <time>2013-05-26T10:47:29Z</time>
      </trkpt>
      <trkpt lat="59.7781145" lon="17.8324815">
        <ele>23.209</ele>
        <time>2013-05-26T10:47:30Z</time>
      </trkpt>
      <trkpt lat="59.7780679" lon="17.8324289">
        <ele>23.209</ele>
        <time>2013-05-26T10:47:31Z</time>
      </trkpt>
      <trkpt lat="59.7780239" lon="17.8323791">
        <ele>24.1703</ele>
        <time>2013-05-26T10:47:32Z</time>
      </trkpt>
      <trkpt lat="59.7779762" lon="17.8323308">
        <ele>24.1703</ele>
        <time>2013-05-26T10:47:33Z</time>
      </trkpt>
      <trkpt lat="59.777927" lon="17.8322745">
        <ele>23.6896</ele>
        <time>2013-05-26T10:47:34Z</time>
      </trkpt>
      <trkpt lat="59.7778772" lon="17.8322247">
        <ele>23.6896</ele>
        <time>2013-05-26T10:47:35Z</time>
      </trkpt>
      <trkpt lat="59.7778265" lon="17.8321799">
        <ele>23.6896</ele>
        <time>2013-05-26T10:47:36Z</time>
      </trkpt>
      <trkpt lat="59.7777746" lon="17.8321324">
        <ele>22.7283</ele>
        <time>2013-05-26T10:47:37Z</time>
      </trkpt>
      <trkpt lat="59.7777227" lon="17.8320973">
        <ele>23.209</ele>
        <time>2013-05-26T10:47:38Z</time>
      </trkpt>
      <trkpt lat="59.7776696" lon="17.8320642">
        <ele>23.6896</ele>
        <time>2013-05-26T10:47:39Z</time>
      </trkpt>
      <trkpt lat="59.7776163" lon="17.8320303">
        <ele>24.1703</ele>
        <time>2013-05-26T10:47:40Z</time>
      </trkpt>
      <trkpt lat="59.7775629" lon="17.8319932">
        <ele>24.651</ele>
        <time>2013-05-26T10:47:41Z</time>
      </trkpt>
      <trkpt lat="59.7775095" lon="17.8319539">
        <ele>25.1317</ele>
        <time>2013-05-26T10:47:42Z</time>
      </trkpt>
      <trkpt lat="59.777457" lon="17.8319119">
        <ele>26.0929</ele>
        <time>2013-05-26T10:47:43Z</time>
      </trkpt>
      <trkpt lat="59.7774053" lon="17.8318668">
        <ele>26.0929</ele>
        <time>2013-05-26T10:47:44Z</time>
      </trkpt>
      <trkpt lat="59.7773561" lon="17.8318165">
        <ele>26.5736</ele>
        <time>2013-05-26T10:47:45Z</time>
      </trkpt>
      <trkpt lat="59.7773096" lon="17.8317538">
        <ele>25.6123</ele>
        <time>2013-05-26T10:47:46Z</time>
      </trkpt>
      <trkpt lat="59.7772664" lon="17.8316913">
        <ele>25.6123</ele>
        <time>2013-05-26T10:47:47Z</time>
      </trkpt>
      <trkpt lat="59.7772234" lon="17.8316224">
        <ele>24.651</ele>
        <time>2013-05-26T10:47:48Z</time>
      </trkpt>
      <trkpt lat="59.777181" lon="17.8315528">
        <ele>24.1703</ele>
        <time>2013-05-26T10:47:49Z</time>
      </trkpt>
      <trkpt lat="59.7771383" lon="17.8314794">
        <ele>24.1703</ele>
        <time>2013-05-26T10:47:50Z</time>
      </trkpt>
      <trkpt lat="59.7770944" lon="17.8314042">
        <ele>24.1703</ele>
        <time>2013-05-26T10:47:51Z</time>
      </trkpt>
      <trkpt lat="59.7770504" lon="17.8313299">
        <ele>24.1703</ele>
        <time>2013-05-26T10:47:52Z</time>
      </trkpt>
      <trkpt lat="59.7770069" lon="17.8312525">
        <ele>23.6896</ele>
        <time>2013-05-26T10:47:53Z</time>
      </trkpt>
      <trkpt lat="59.7769644" lon="17.8311797">
        <ele>24.1703</ele>
        <time>2013-05-26T10:47:54Z</time>
      </trkpt>
      <trkpt lat="59.7769234" lon="17.8311072">
        <ele>24.651</ele>
        <time>2013-05-26T10:47:55Z</time>
      </trkpt>
      <trkpt lat="59.7768832" lon="17.8310327">
        <ele>25.1317</ele>
        <time>2013-05-26T10:47:56Z</time>
      </trkpt>
      <trkpt lat="59.7768446" lon="17.8309543">
        <ele>25.6123</ele>
        <time>2013-05-26T10:47:57Z</time>
      </trkpt>
      <trkpt lat="59.7768066" lon="17.8308759">
        <ele>26.0929</ele>
        <time>2013-05-26T10:47:58Z</time>
      </trkpt>
      <trkpt lat="59.7767713" lon="17.8307944">
        <ele>26.5736</ele>
        <time>2013-05-26T10:47:59Z</time>
      </trkpt>
      <trkpt lat="59.7767341" lon="17.8307122">
        <ele>27.0543</ele>
        <time>2013-05-26T10:48:00Z</time>
      </trkpt>
      <trkpt lat="59.7766931" lon="17.8306269">
        <ele>27.0543</ele>
        <time>2013-05-26T10:48:01Z</time>
      </trkpt>
      <trkpt lat="59.7766548" lon="17.8305444">
        <ele>27.5349</ele>
        <time>2013-05-26T10:48:02Z</time>
      </trkpt>
      <trkpt lat="59.7766217" lon="17.8304482">
        <ele>26.5736</ele>
        <time>2013-05-26T10:48:03Z</time>
      </trkpt>
      <trkpt lat="59.7765905" lon="17.83035">
        <ele>26.0929</ele>
        <time>2013-05-26T10:48:04Z</time>
      </trkpt>
      <trkpt lat="59.7765595" lon="17.8302511">
        <ele>25.6123</ele>
        <time>2013-05-26T10:48:05Z</time>
      </trkpt>
      <trkpt lat="59.7765276" lon="17.830153">
        <ele>25.6123</ele>
        <time>2013-05-26T10:48:06Z</time>
      </trkpt>
      <trkpt lat="59.7764963" lon="17.8300557">
        <ele>26.0929</ele>
        <time>2013-05-26T10:48:07Z</time>
      </trkpt>
      <trkpt lat="59.7764666" lon="17.8299527">
        <ele>26.0929</ele>
        <time>2013-05-26T10:48:08Z</time>
      </trkpt>
      <trkpt lat="59.7764372" lon="17.8298497">
        <ele>26.5736</ele>
        <time>2013-05-26T10:48:09Z</time>
      </trkpt>
      <trkpt lat="59.7764071" lon="17.82975">
        <ele>26.5736</ele>
        <time>2013-05-26T10:48:10Z</time>
      </trkpt>
      <trkpt lat="59.7763764" lon="17.8296528">
        <ele>26.5736</ele>
        <time>2013-05-26T10:48:11Z</time>
      </trkpt>
      <trkpt lat="59.7763475" lon="17.8295526">
        <ele>26.0929</ele>
        <time>2013-05-26T10:48:12Z</time>
      </trkpt>
      <trkpt lat="59.7763211" lon="17.8294521">
        <ele>25.1317</ele>
        <time>2013-05-26T10:48:13Z</time>
      </trkpt>
      <trkpt lat="59.7762947" lon="17.8293579">
        <ele>24.1703</ele>
        <time>2013-05-26T10:48:14Z</time>
      </trkpt>
      <trkpt lat="59.7762688" lon="17.8292731">
        <ele>24.651</ele>
        <time>2013-05-26T10:48:15Z</time>
      </trkpt>
      <trkpt lat="59.7762423" lon="17.8291862">
        <ele>24.1703</ele>
        <time>2013-05-26T10:48:16Z</time>
      </trkpt>
      <trkpt lat="59.7762155" lon="17.8290996">
        <ele>23.209</ele>
        <time>2013-05-26T10:48:17Z</time>
      </trkpt>
      <trkpt lat="59.7761904" lon="17.8290217">
        <ele>23.209</ele>
        <time>2013-05-26T10:48:18Z</time>
      </trkpt>
      <trkpt lat="59.7761673" lon="17.8289403">
        <ele>22.7283</ele>
        <time>2013-05-26T10:48:19Z</time>
      </trkpt>
      <trkpt lat="59.7761429" lon="17.8288525">
        <ele>22.2476</ele>
        <time>2013-05-26T10:48:20Z</time>
      </trkpt>
      <trkpt lat="59.7761143" lon="17.8287649">
        <ele>22.2476</ele>
        <time>2013-05-26T10:48:21Z</time>
      </trkpt>
      <trkpt lat="59.7760866" lon="17.8286806">
        <ele>22.7283</ele>
        <time>2013-05-26T10:48:22Z</time>
      </trkpt>
      <trkpt lat="59.7760611" lon="17.8285857">
        <ele>22.2476</ele>
        <time>2013-05-26T10:48:23Z</time>
      </trkpt>
      <trkpt lat="59.7760306" lon="17.8284853">
        <ele>20.8057</ele>
        <time>2013-05-26T10:48:24Z</time>
      </trkpt>
      <trkpt lat="59.7759989" lon="17.8283812">
        <ele>19.3638</ele>
        <time>2013-05-26T10:48:25Z</time>
      </trkpt>
      <trkpt lat="59.7759673" lon="17.8282685">
        <ele>17.9218</ele>
        <time>2013-05-26T10:48:26Z</time>
      </trkpt>
      <trkpt lat="59.7759366" lon="17.8281612">
        <ele>18.8831</ele>
        <time>2013-05-26T10:48:27Z</time>
      </trkpt>
      <trkpt lat="59.7759066" lon="17.8280562">
        <ele>19.3638</ele>
        <time>2013-05-26T10:48:28Z</time>
      </trkpt>
      <trkpt lat="59.7758775" lon="17.8279538">
        <ele>19.8444</ele>
        <time>2013-05-26T10:48:29Z</time>
      </trkpt>
      <trkpt lat="59.7758514" lon="17.8278516">
        <ele>20.325</ele>
        <time>2013-05-26T10:48:30Z</time>
      </trkpt>
      <trkpt lat="59.775828" lon="17.8277455">
        <ele>19.3638</ele>
        <time>2013-05-26T10:48:31Z</time>
      </trkpt>
      <trkpt lat="59.7758047" lon="17.8276393">
        <ele>19.3638</ele>
        <time>2013-05-26T10:48:32Z</time>
      </trkpt>
      <trkpt lat="59.7757823" lon="17.8275326">
        <ele>18.8831</ele>
        <time>2013-05-26T10:48:33Z</time>
      </trkpt>
      <trkpt lat="59.7757626" lon="17.8274257">
        <ele>18.4023</ele>
        <time>2013-05-26T10:48:34Z</time>
      </trkpt>
      <trkpt lat="59.775744" lon="17.8273165">
        <ele>17.9218</ele>
        <time>2013-05-26T10:48:35Z</time>
      </trkpt>
      <trkpt lat="59.7757237" lon="17.8272063">
        <ele>17.4412</ele>
        <time>2013-05-26T10:48:36Z</time>
      </trkpt>
      <trkpt lat="59.7757026" lon="17.8270983">
        <ele>16.9604</ele>
        <time>2013-05-26T10:48:37Z</time>
      </trkpt>
      <trkpt lat="59.7756855" lon="17.826985">
        <ele>16.4797</ele>
        <time>2013-05-26T10:48:38Z</time>
      </trkpt>
      <trkpt lat="59.775671" lon="17.8268712">
        <ele>15.999</ele>
        <time>2013-05-26T10:48:39Z</time>
      </trkpt>
      <trkpt lat="59.7756518" lon="17.8267619">
        <ele>15.5184</ele>
        <time>2013-05-26T10:48:40Z</time>
      </trkpt>
      <trkpt lat="59.7756327" lon="17.8266499">
        <ele>15.0377</ele>
        <time>2013-05-26T10:48:41Z</time>
      </trkpt>
      <trkpt lat="59.775611" lon="17.8265415">
        <ele>14.0764</ele>
        <time>2013-05-26T10:48:42Z</time>
      </trkpt>
      <trkpt lat="59.7755887" lon="17.8264469">
        <ele>14.0764</ele>
        <time>2013-05-26T10:48:43Z</time>
      </trkpt>
      <trkpt lat="59.7755681" lon="17.8263556">
        <ele>14.0764</ele>
        <time>2013-05-26T10:48:44Z</time>
      </trkpt>
      <trkpt lat="59.7755453" lon="17.8262518">
        <ele>14.557</ele>
        <time>2013-05-26T10:48:45Z</time>
      </trkpt>
      <trkpt lat="59.77551" lon="17.8261309">
        <ele>14.0764</ele>
        <time>2013-05-26T10:48:46Z</time>
      </trkpt>
      <trkpt lat="59.7754691" lon="17.8260092">
        <ele>13.5958</ele>
        <time>2013-05-26T10:48:47Z</time>
      </trkpt>
      <trkpt lat="59.7754281" lon="17.8258898">
        <ele>13.5958</ele>
        <time>2013-05-26T10:48:48Z</time>
      </trkpt>
      <trkpt lat="59.7753856" lon="17.8257693">
        <ele>14.0764</ele>
        <time>2013-05-26T10:48:49Z</time>
      </trkpt>
      <trkpt lat="59.7753416" lon="17.8256459">
        <ele>14.557</ele>
        <time>2013-05-26T10:48:50Z</time>
      </trkpt>
      <trkpt lat="59.775296" lon="17.8255217">
        <ele>15.0377</ele>
        <time>2013-05-26T10:48:51Z</time>
      </trkpt>
      <trkpt lat="59.7752526" lon="17.8253947">
        <ele>14.0764</ele>
        <time>2013-05-26T10:48:52Z</time>
      </trkpt>
      <trkpt lat="59.7752111" lon="17.8252615">
        <ele>12.1538</ele>
        <time>2013-05-26T10:48:53Z</time>
      </trkpt>
      <trkpt lat="59.7751715" lon="17.8251459">
        <ele>12.1538</ele>
        <time>2013-05-26T10:48:54Z</time>
      </trkpt>
      <trkpt lat="59.7751309" lon="17.8250317">
        <ele>12.6344</ele>
        <time>2013-05-26T10:48:55Z</time>
      </trkpt>
      <trkpt lat="59.7750901" lon="17.8249011">
        <ele>11.1925</ele>
        <time>2013-05-26T10:48:56Z</time>
      </trkpt>
      <trkpt lat="59.7750479" lon="17.8247706">
        <ele>9.75061</ele>
        <time>2013-05-26T10:48:57Z</time>
      </trkpt>
      <trkpt lat="59.7750059" lon="17.8246422">
        <ele>8.78918</ele>
        <time>2013-05-26T10:48:58Z</time>
      </trkpt>
      <trkpt lat="59.7749639" lon="17.8245224">
        <ele>8.78918</ele>
        <time>2013-05-26T10:48:59Z</time>
      </trkpt>
      <trkpt lat="59.7749246" lon="17.8243986">
        <ele>8.78918</ele>
        <time>2013-05-26T10:49:00Z</time>
      </trkpt>
      <trkpt lat="59.7748842" lon="17.8242793">
        <ele>8.30859</ele>
        <time>2013-05-26T10:49:01Z</time>
      </trkpt>
      <trkpt lat="59.7748453" lon="17.8241618">
        <ele>8.78918</ele>
        <time>2013-05-26T10:49:02Z</time>
      </trkpt>
      <trkpt lat="59.7748091" lon="17.8240506">
        <ele>10.2312</ele>
        <time>2013-05-26T10:49:03Z</time>
      </trkpt>
      <trkpt lat="59.7747692" lon="17.8239402">
        <ele>11.1925</ele>
        <time>2013-05-26T10:49:04Z</time>
      </trkpt>
      <trkpt lat="59.774724" lon="17.8238323">
        <ele>11.1925</ele>
        <time>2013-05-26T10:49:05Z</time>
      </trkpt>
      <trkpt lat="59.7746758" lon="17.8237326">
        <ele>11.1925</ele>
        <time>2013-05-26T10:49:06Z</time>
      </trkpt>
      <trkpt lat="59.7746277" lon="17.8236273">
        <ele>10.7118</ele>
        <time>2013-05-26T10:49:07Z</time>
      </trkpt>
      <trkpt lat="59.774578" lon="17.8235195">
        <ele>9.75061</ele>
        <time>2013-05-26T10:49:08Z</time>
      </trkpt>
      <trkpt lat="59.7745268" lon="17.8234315">
        <ele>11.1925</ele>
        <time>2013-05-26T10:49:09Z</time>
      </trkpt>
      <trkpt lat="59.7744727" lon="17.8233491">
        <ele>12.6344</ele>
        <time>2013-05-26T10:49:10Z</time>
      </trkpt>
      <trkpt lat="59.7744113" lon="17.8232755">
        <ele>14.0764</ele>
        <time>2013-05-26T10:49:11Z</time>
      </trkpt>
      <trkpt lat="59.7743533" lon="17.8231985">
        <ele>15.0377</ele>
        <time>2013-05-26T10:49:12Z</time>
      </trkpt>
      <trkpt lat="59.7742925" lon="17.8231217">
        <ele>15.5184</ele>
        <time>2013-05-26T10:49:13Z</time>
      </trkpt>
      <trkpt lat="59.7742294" lon="17.8230456">
        <ele>16.4797</ele>
        <time>2013-05-26T10:49:14Z</time>
      </trkpt>
      <trkpt lat="59.7741662" lon="17.8229673">
        <ele>16.9604</ele>
        <time>2013-05-26T10:49:15Z</time>
      </trkpt>
      <trkpt lat="59.7741013" lon="17.8228865">
        <ele>17.4412</ele>
        <time>2013-05-26T10:49:16Z</time>
      </trkpt>
      <trkpt lat="59.7740362" lon="17.8228031">
        <ele>17.9218</ele>
        <time>2013-05-26T10:49:17Z</time>
      </trkpt>
      <trkpt lat="59.7739712" lon="17.8227221">
        <ele>18.4023</ele>
        <time>2013-05-26T10:49:18Z</time>
      </trkpt>
      <trkpt lat="59.7739035" lon="17.8226378">
        <ele>19.8444</ele>
        <time>2013-05-26T10:49:19Z</time>
      </trkpt>
      <trkpt lat="59.7738355" lon="17.8225503">
        <ele>21.2864</ele>
        <time>2013-05-26T10:49:20Z</time>
      </trkpt>
      <trkpt lat="59.7737673" lon="17.8224628">
        <ele>22.2476</ele>
        <time>2013-05-26T10:49:21Z</time>
      </trkpt>
      <trkpt lat="59.773699" lon="17.8223774">
        <ele>23.6896</ele>
        <time>2013-05-26T10:49:22Z</time>
      </trkpt>
      <trkpt lat="59.7736306" lon="17.8222914">
        <ele>25.1317</ele>
        <time>2013-05-26T10:49:23Z</time>
      </trkpt>
      <trkpt lat="59.7735632" lon="17.8222052">
        <ele>26.0929</ele>
        <time>2013-05-26T10:49:24Z</time>
      </trkpt>
      <trkpt lat="59.7734964" lon="17.8221173">
        <ele>27.5349</ele>
        <time>2013-05-26T10:49:25Z</time>
      </trkpt>
      <trkpt lat="59.7734312" lon="17.8220308">
        <ele>28.0155</ele>
        <time>2013-05-26T10:49:26Z</time>
      </trkpt>
      <trkpt lat="59.7733662" lon="17.8219458">
        <ele>28.0155</ele>
        <time>2013-05-26T10:49:27Z</time>
      </trkpt>
      <trkpt lat="59.7733017" lon="17.8218623">
        <ele>28.4962</ele>
        <time>2013-05-26T10:49:28Z</time>
      </trkpt>
      <trkpt lat="59.7732399" lon="17.821782">
        <ele>29.4575</ele>
        <time>2013-05-26T10:49:29Z</time>
      </trkpt>
      <trkpt lat="59.7731798" lon="17.8216987">
        <ele>29.9381</ele>
        <time>2013-05-26T10:49:30Z</time>
      </trkpt>
      <trkpt lat="59.7731193" lon="17.8216178">
        <ele>30.4188</ele>
        <time>2013-05-26T10:49:31Z</time>
      </trkpt>
      <trkpt lat="59.7730582" lon="17.8215346">
        <ele>30.4188</ele>
        <time>2013-05-26T10:49:32Z</time>
      </trkpt>
      <trkpt lat="59.7729955" lon="17.8214491">
        <ele>30.4188</ele>
        <time>2013-05-26T10:49:33Z</time>
      </trkpt>
      <trkpt lat="59.7729323" lon="17.8213641">
        <ele>30.4188</ele>
        <time>2013-05-26T10:49:34Z</time>
      </trkpt>
      <trkpt lat="59.7728723" lon="17.821276">
        <ele>29.9381</ele>
        <time>2013-05-26T10:49:35Z</time>
      </trkpt>
      <trkpt lat="59.7728126" lon="17.8211937">
        <ele>30.4188</ele>
        <time>2013-05-26T10:49:36Z</time>
      </trkpt>
      <trkpt lat="59.7727204" lon="17.8211144">
        <ele>31.8607</ele>
        <time>2013-05-26T10:49:37Z</time>
      </trkpt>
      <trkpt lat="59.7726544" lon="17.8210291">
        <ele>32.3416</ele>
        <time>2013-05-26T10:49:38Z</time>
      </trkpt>
      <trkpt lat="59.7725903" lon="17.8209601">
        <ele>33.3029</ele>
        <time>2013-05-26T10:49:39Z</time>
      </trkpt>
      <trkpt lat="59.7725258" lon="17.8208931">
        <ele>34.2642</ele>
        <time>2013-05-26T10:49:40Z</time>
      </trkpt>
      <trkpt lat="59.7724649" lon="17.8208227">
        <ele>34.7449</ele>
        <time>2013-05-26T10:49:41Z</time>
      </trkpt>
      <trkpt lat="59.7724009" lon="17.8207669">
        <ele>35.7061</ele>
        <time>2013-05-26T10:49:42Z</time>
      </trkpt>
      <trkpt lat="59.7723391" lon="17.8207151">
        <ele>36.1868</ele>
        <time>2013-05-26T10:49:43Z</time>
      </trkpt>
      <trkpt lat="59.772277" lon="17.8206696">
        <ele>36.6675</ele>
        <time>2013-05-26T10:49:44Z</time>
      </trkpt>
      <trkpt lat="59.7722162" lon="17.8206239">
        <ele>36.6675</ele>
        <time>2013-05-26T10:49:45Z</time>
      </trkpt>
      <trkpt lat="59.7721516" lon="17.820585">
        <ele>37.1481</ele>
        <time>2013-05-26T10:49:46Z</time>
      </trkpt>
      <trkpt lat="59.7720868" lon="17.8205406">
        <ele>37.6287</ele>
        <time>2013-05-26T10:49:47Z</time>
      </trkpt>
      <trkpt lat="59.7720201" lon="17.8204957">
        <ele>37.6287</ele>
        <time>2013-05-26T10:49:48Z</time>
      </trkpt>
      <trkpt lat="59.7719522" lon="17.8204466">
        <ele>37.6287</ele>
        <time>2013-05-26T10:49:49Z</time>
      </trkpt>
      <trkpt lat="59.7718836" lon="17.8203949">
        <ele>37.6287</ele>
        <time>2013-05-26T10:49:50Z</time>
      </trkpt>
      <trkpt lat="59.7718146" lon="17.8203422">
        <ele>37.6287</ele>
        <time>2013-05-26T10:49:51Z</time>
      </trkpt>
      <trkpt lat="59.7717454" lon="17.8202896">
        <ele>37.6287</ele>
        <time>2013-05-26T10:49:52Z</time>
      </trkpt>
      <trkpt lat="59.7716766" lon="17.8202367">
        <ele>37.6287</ele>
        <time>2013-05-26T10:49:53Z</time>
      </trkpt>
      <trkpt lat="59.7716071" lon="17.8201846">
        <ele>38.1094</ele>
        <time>2013-05-26T10:49:54Z</time>
      </trkpt>
      <trkpt lat="59.7715368" lon="17.8201321">
        <ele>38.1094</ele>
        <time>2013-05-26T10:49:55Z</time>
      </trkpt>
      <trkpt lat="59.7714682" lon="17.8200777">
        <ele>38.1094</ele>
        <time>2013-05-26T10:49:56Z</time>
      </trkpt>
      <trkpt lat="59.7713989" lon="17.8200283">
        <ele>38.5901</ele>
        <time>2013-05-26T10:49:57Z</time>
      </trkpt>
      <trkpt lat="59.7713302" lon="17.8199808">
        <ele>39.0707</ele>
        <time>2013-05-26T10:49:58Z</time>
      </trkpt>
      <trkpt lat="59.7712617" lon="17.8199364">
        <ele>40.0321</ele>
        <time>2013-05-26T10:49:59Z</time>
      </trkpt>
      <trkpt lat="59.7711934" lon="17.8198903">
        <ele>40.5128</ele>
        <time>2013-05-26T10:50:00Z</time>
      </trkpt>
      <trkpt lat="59.7711265" lon="17.8198442">
        <ele>40.9934</ele>
        <time>2013-05-26T10:50:01Z</time>
      </trkpt>
      <trkpt lat="59.7710592" lon="17.8198024">
        <ele>41.9547</ele>
        <time>2013-05-26T10:50:02Z</time>
      </trkpt>
      <trkpt lat="59.7709944" lon="17.8197578">
        <ele>42.4354</ele>
        <time>2013-05-26T10:50:03Z</time>
      </trkpt>
      <trkpt lat="59.7709292" lon="17.8197166">
        <ele>43.3966</ele>
        <time>2013-05-26T10:50:04Z</time>
      </trkpt>
      <trkpt lat="59.7708633" lon="17.8196745">
        <ele>43.8773</ele>
        <time>2013-05-26T10:50:05Z</time>
      </trkpt>
      <trkpt lat="59.770798" lon="17.8196338">
        <ele>44.358</ele>
        <time>2013-05-26T10:50:06Z</time>
      </trkpt>
      <trkpt lat="59.7707347" lon="17.8195884">
        <ele>45.3192</ele>
        <time>2013-05-26T10:50:07Z</time>
      </trkpt>
      <trkpt lat="59.7706715" lon="17.8195411">
        <ele>45.3192</ele>
        <time>2013-05-26T10:50:08Z</time>
      </trkpt>
      <trkpt lat="59.770608" lon="17.8194968">
        <ele>46.2806</ele>
        <time>2013-05-26T10:50:09Z</time>
      </trkpt>
      <trkpt lat="59.7705443" lon="17.8194506">
        <ele>46.2806</ele>
        <time>2013-05-26T10:50:10Z</time>
      </trkpt>
      <trkpt lat="59.77048" lon="17.8194035">
        <ele>46.2806</ele>
        <time>2013-05-26T10:50:11Z</time>
      </trkpt>
      <trkpt lat="59.7704156" lon="17.8193579">
        <ele>46.7612</ele>
        <time>2013-05-26T10:50:12Z</time>
      </trkpt>
      <trkpt lat="59.7703495" lon="17.8193106">
        <ele>46.7612</ele>
        <time>2013-05-26T10:50:13Z</time>
      </trkpt>
      <trkpt lat="59.7702831" lon="17.8192681">
        <ele>47.2418</ele>
        <time>2013-05-26T10:50:14Z</time>
      </trkpt>
      <trkpt lat="59.7702173" lon="17.8192232">
        <ele>47.2418</ele>
        <time>2013-05-26T10:50:15Z</time>
      </trkpt>
      <trkpt lat="59.7701515" lon="17.8191782">
        <ele>47.7225</ele>
        <time>2013-05-26T10:50:16Z</time>
      </trkpt>
      <trkpt lat="59.7700863" lon="17.8191306">
        <ele>48.2034</ele>
        <time>2013-05-26T10:50:17Z</time>
      </trkpt>
      <trkpt lat="59.7700219" lon="17.819085">
        <ele>48.684</ele>
        <time>2013-05-26T10:50:18Z</time>
      </trkpt>
      <trkpt lat="59.7699574" lon="17.8190408">
        <ele>49.1646</ele>
        <time>2013-05-26T10:50:19Z</time>
      </trkpt>
      <trkpt lat="59.7698941" lon="17.8189985">
        <ele>49.1646</ele>
        <time>2013-05-26T10:50:20Z</time>
      </trkpt>
      <trkpt lat="59.7698305" lon="17.818956">
        <ele>49.6453</ele>
        <time>2013-05-26T10:50:21Z</time>
      </trkpt>
      <trkpt lat="59.7697663" lon="17.8189102">
        <ele>49.6453</ele>
        <time>2013-05-26T10:50:22Z</time>
      </trkpt>
      <trkpt lat="59.769701" lon="17.8188541">
        <ele>48.684</ele>
        <time>2013-05-26T10:50:23Z</time>
      </trkpt>
      <trkpt lat="59.7696341" lon="17.8188025">
        <ele>48.2034</ele>
        <time>2013-05-26T10:50:24Z</time>
      </trkpt>
      <trkpt lat="59.7695658" lon="17.8187502">
        <ele>47.7225</ele>
        <time>2013-05-26T10:50:25Z</time>
      </trkpt>
      <trkpt lat="59.7694954" lon="17.8187004">
        <ele>47.2418</ele>
        <time>2013-05-26T10:50:26Z</time>
      </trkpt>
      <trkpt lat="59.7694259" lon="17.8186478">
        <ele>46.7612</ele>
        <time>2013-05-26T10:50:27Z</time>
      </trkpt>
      <trkpt lat="59.7693555" lon="17.8185957">
        <ele>46.7612</ele>
        <time>2013-05-26T10:50:28Z</time>
      </trkpt>
      <trkpt lat="59.7692838" lon="17.8185446">
        <ele>46.2806</ele>
        <time>2013-05-26T10:50:29Z</time>
      </trkpt>
      <trkpt lat="59.7692123" lon="17.8184917">
        <ele>46.2806</ele>
        <time>2013-05-26T10:50:30Z</time>
      </trkpt>
      <trkpt lat="59.769142" lon="17.8184368">
        <ele>46.2806</ele>
        <time>2013-05-26T10:50:31Z</time>
      </trkpt>
      <trkpt lat="59.7690696" lon="17.8183871">
        <ele>46.2806</ele>
        <time>2013-05-26T10:50:32Z</time>
      </trkpt>
      <trkpt lat="59.7689988" lon="17.8183343">
        <ele>46.2806</ele>
        <time>2013-05-26T10:50:33Z</time>
      </trkpt>
      <trkpt lat="59.768927" lon="17.8182819">
        <ele>45.7999</ele>
        <time>2013-05-26T10:50:34Z</time>
      </trkpt>
      <trkpt lat="59.7688548" lon="17.8182307">
        <ele>45.7999</ele>
        <time>2013-05-26T10:50:35Z</time>
      </trkpt>
      <trkpt lat="59.7687825" lon="17.8181804">
        <ele>45.7999</ele>
        <time>2013-05-26T10:50:36Z</time>
      </trkpt>
      <trkpt lat="59.76871" lon="17.8181303">
        <ele>45.3192</ele>
        <time>2013-05-26T10:50:37Z</time>
      </trkpt>
      <trkpt lat="59.7686384" lon="17.8180803">
        <ele>45.7999</ele>
        <time>2013-05-26T10:50:38Z</time>
      </trkpt>
      <trkpt lat="59.768568" lon="17.81803">
        <ele>45.7999</ele>
        <time>2013-05-26T10:50:39Z</time>
      </trkpt>
      <trkpt lat="59.7684986" lon="17.8179799">
        <ele>46.2806</ele>
        <time>2013-05-26T10:50:40Z</time>
      </trkpt>
      <trkpt lat="59.7684293" lon="17.8179292">
        <ele>46.2806</ele>
        <time>2013-05-26T10:50:41Z</time>
      </trkpt>
      <trkpt lat="59.7683586" lon="17.8178801">
        <ele>46.2806</ele>
        <time>2013-05-26T10:50:42Z</time>
      </trkpt>
      <trkpt lat="59.7682873" lon="17.8178278">
        <ele>46.2806</ele>
        <time>2013-05-26T10:50:43Z</time>
      </trkpt>
      <trkpt lat="59.7682146" lon="17.8177768">
        <ele>46.2806</ele>
        <time>2013-05-26T10:50:44Z</time>
      </trkpt>
      <trkpt lat="59.7681407" lon="17.8177266">
        <ele>46.2806</ele>
        <time>2013-05-26T10:50:45Z</time>
      </trkpt>
      <trkpt lat="59.7680669" lon="17.817677">
        <ele>46.2806</ele>
        <time>2013-05-26T10:50:46Z</time>
      </trkpt>
      <trkpt lat="59.7679932" lon="17.817627">
        <ele>45.7999</ele>
        <time>2013-05-26T10:50:47Z</time>
      </trkpt>
      <trkpt lat="59.7679195" lon="17.817575">
        <ele>45.7999</ele>
        <time>2013-05-26T10:50:48Z</time>
      </trkpt>
      <trkpt lat="59.7678466" lon="17.8175189">
        <ele>45.3192</ele>
        <time>2013-05-26T10:50:49Z</time>
      </trkpt>
      <trkpt lat="59.7677743" lon="17.8174639">
        <ele>44.8386</ele>
        <time>2013-05-26T10:50:50Z</time>
      </trkpt>
      <trkpt lat="59.7677025" lon="17.8174125">
        <ele>44.358</ele>
        <time>2013-05-26T10:50:51Z</time>
      </trkpt>
      <trkpt lat="59.7676305" lon="17.817362">
        <ele>44.358</ele>
        <time>2013-05-26T10:50:52Z</time>
      </trkpt>
      <trkpt lat="59.7675586" lon="17.8173111">
        <ele>43.8773</ele>
        <time>2013-05-26T10:50:53Z</time>
      </trkpt>
      <trkpt lat="59.7674866" lon="17.817265">
        <ele>43.3966</ele>
        <time>2013-05-26T10:50:54Z</time>
      </trkpt>
      <trkpt lat="59.7674143" lon="17.8172205">
        <ele>43.3966</ele>
        <time>2013-05-26T10:50:55Z</time>
      </trkpt>
      <trkpt lat="59.7673404" lon="17.8171734">
        <ele>42.916</ele>
        <time>2013-05-26T10:50:56Z</time>
      </trkpt>
      <trkpt lat="59.7672669" lon="17.8171221">
        <ele>42.4354</ele>
        <time>2013-05-26T10:50:57Z</time>
      </trkpt>
      <trkpt lat="59.7671931" lon="17.8170691">
        <ele>41.9547</ele>
        <time>2013-05-26T10:50:58Z</time>
      </trkpt>
      <trkpt lat="59.7671191" lon="17.8170118">
        <ele>41.474</ele>
        <time>2013-05-26T10:50:59Z</time>
      </trkpt>
      <trkpt lat="59.7670428" lon="17.8169531">
        <ele>40.9934</ele>
        <time>2013-05-26T10:51:00Z</time>
      </trkpt>
      <trkpt lat="59.7669652" lon="17.8169002">
        <ele>40.5128</ele>
        <time>2013-05-26T10:51:01Z</time>
      </trkpt>
      <trkpt lat="59.7668851" lon="17.8168448">
        <ele>40.0321</ele>
        <time>2013-05-26T10:51:02Z</time>
      </trkpt>
      <trkpt lat="59.7668048" lon="17.8167857">
        <ele>39.5513</ele>
        <time>2013-05-26T10:51:03Z</time>
      </trkpt>
      <trkpt lat="59.766725" lon="17.8167252">
        <ele>39.5513</ele>
        <time>2013-05-26T10:51:04Z</time>
      </trkpt>
      <trkpt lat="59.7666446" lon="17.8166628">
        <ele>38.5901</ele>
        <time>2013-05-26T10:51:05Z</time>
      </trkpt>
      <trkpt lat="59.7665635" lon="17.8166026">
        <ele>38.1094</ele>
        <time>2013-05-26T10:51:06Z</time>
      </trkpt>
      <trkpt lat="59.7664815" lon="17.8165443">
        <ele>37.1481</ele>
        <time>2013-05-26T10:51:07Z</time>
      </trkpt>
      <trkpt lat="59.7663976" lon="17.8164855">
        <ele>36.6675</ele>
        <time>2013-05-26T10:51:08Z</time>
      </trkpt>
      <trkpt lat="59.7663137" lon="17.8164239">
        <ele>35.7061</ele>
        <time>2013-05-26T10:51:09Z</time>
      </trkpt>
      <trkpt lat="59.7662268" lon="17.8163641">
        <ele>35.7061</ele>
        <time>2013-05-26T10:51:10Z</time>
      </trkpt>
      <trkpt lat="59.7661406" lon="17.8163024">
        <ele>35.7061</ele>
        <time>2013-05-26T10:51:11Z</time>
      </trkpt>
      <trkpt lat="59.7660543" lon="17.816239">
        <ele>35.7061</ele>
        <time>2013-05-26T10:51:12Z</time>
      </trkpt>
      <trkpt lat="59.7659671" lon="17.8161765">
        <ele>35.7061</ele>
        <time>2013-05-26T10:51:13Z</time>
      </trkpt>
      <trkpt lat="59.7658795" lon="17.8161137">
        <ele>35.7061</ele>
        <time>2013-05-26T10:51:14Z</time>
      </trkpt>
      <trkpt lat="59.7657915" lon="17.8160528">
        <ele>35.7061</ele>
        <time>2013-05-26T10:51:15Z</time>
      </trkpt>
      <trkpt lat="59.765704" lon="17.8159855">
        <ele>35.7061</ele>
        <time>2013-05-26T10:51:16Z</time>
      </trkpt>
      <trkpt lat="59.7656159" lon="17.8159167">
        <ele>35.7061</ele>
        <time>2013-05-26T10:51:17Z</time>
      </trkpt>
      <trkpt lat="59.7655236" lon="17.8158524">
        <ele>35.2255</ele>
        <time>2013-05-26T10:51:18Z</time>
      </trkpt>
      <trkpt lat="59.7654287" lon="17.8157876">
        <ele>35.2255</ele>
        <time>2013-05-26T10:51:19Z</time>
      </trkpt>
      <trkpt lat="59.7653337" lon="17.8157204">
        <ele>34.7449</ele>
        <time>2013-05-26T10:51:20Z</time>
      </trkpt>
      <trkpt lat="59.7652386" lon="17.8156528">
        <ele>34.2642</ele>
        <time>2013-05-26T10:51:21Z</time>
      </trkpt>
      <trkpt lat="59.7651428" lon="17.8155843">
        <ele>34.2642</ele>
        <time>2013-05-26T10:51:22Z</time>
      </trkpt>
      <trkpt lat="59.7650459" lon="17.8155163">
        <ele>33.7834</ele>
        <time>2013-05-26T10:51:23Z</time>
      </trkpt>
      <trkpt lat="59.7649494" lon="17.815447">
        <ele>33.7834</ele>
        <time>2013-05-26T10:51:24Z</time>
      </trkpt>
      <trkpt lat="59.7648508" lon="17.8153781">
        <ele>33.7834</ele>
        <time>2013-05-26T10:51:25Z</time>
      </trkpt>
      <trkpt lat="59.764751" lon="17.8153087">
        <ele>33.7834</ele>
        <time>2013-05-26T10:51:26Z</time>
      </trkpt>
      <trkpt lat="59.7646529" lon="17.8152382">
        <ele>33.7834</ele>
        <time>2013-05-26T10:51:27Z</time>
      </trkpt>
      <trkpt lat="59.764554" lon="17.8151712">
        <ele>33.7834</ele>
        <time>2013-05-26T10:51:28Z</time>
      </trkpt>
      <trkpt lat="59.764456" lon="17.8151091">
        <ele>33.7834</ele>
        <time>2013-05-26T10:51:29Z</time>
      </trkpt>
      <trkpt lat="59.7643632" lon="17.8150406">
        <ele>33.3029</ele>
        <time>2013-05-26T10:51:30Z</time>
      </trkpt>
      <trkpt lat="59.7642718" lon="17.8149703">
        <ele>32.8223</ele>
        <time>2013-05-26T10:51:31Z</time>
      </trkpt>
      <trkpt lat="59.7641821" lon="17.8149004">
        <ele>32.3416</ele>
        <time>2013-05-26T10:51:32Z</time>
      </trkpt>
      <trkpt lat="59.7640898" lon="17.8148325">
        <ele>31.8607</ele>
        <time>2013-05-26T10:51:33Z</time>
      </trkpt>
      <trkpt lat="59.7639965" lon="17.8147641">
        <ele>31.3801</ele>
        <time>2013-05-26T10:51:34Z</time>
      </trkpt>
      <trkpt lat="59.7639024" lon="17.8147019">
        <ele>31.3801</ele>
        <time>2013-05-26T10:51:35Z</time>
      </trkpt>
      <trkpt lat="59.7638091" lon="17.8146377">
        <ele>31.3801</ele>
        <time>2013-05-26T10:51:36Z</time>
      </trkpt>
      <trkpt lat="59.7637173" lon="17.8145707">
        <ele>31.3801</ele>
        <time>2013-05-26T10:51:37Z</time>
      </trkpt>
      <trkpt lat="59.7636233" lon="17.8145058">
        <ele>31.3801</ele>
        <time>2013-05-26T10:51:38Z</time>
      </trkpt>
      <trkpt lat="59.7635299" lon="17.8144357">
        <ele>30.8995</ele>
        <time>2013-05-26T10:51:39Z</time>
      </trkpt>
      <trkpt lat="59.7634346" lon="17.8143682">
        <ele>30.4188</ele>
        <time>2013-05-26T10:51:40Z</time>
      </trkpt>
      <trkpt lat="59.7633289" lon="17.8143024">
        <ele>29.9381</ele>
        <time>2013-05-26T10:51:41Z</time>
      </trkpt>
      <trkpt lat="59.7632304" lon="17.8142366">
        <ele>29.4575</ele>
        <time>2013-05-26T10:51:42Z</time>
      </trkpt>
      <trkpt lat="59.7631322" lon="17.8141657">
        <ele>29.4575</ele>
        <time>2013-05-26T10:51:43Z</time>
      </trkpt>
      <trkpt lat="59.7630345" lon="17.8140952">
        <ele>29.4575</ele>
        <time>2013-05-26T10:51:44Z</time>
      </trkpt>
      <trkpt lat="59.7629368" lon="17.8140256">
        <ele>29.9381</ele>
        <time>2013-05-26T10:51:45Z</time>
      </trkpt>
      <trkpt lat="59.7628398" lon="17.8139576">
        <ele>29.9381</ele>
        <time>2013-05-26T10:51:46Z</time>
      </trkpt>
      <trkpt lat="59.7627423" lon="17.8138885">
        <ele>29.9381</ele>
        <time>2013-05-26T10:51:47Z</time>
      </trkpt>
      <trkpt lat="59.7626451" lon="17.8138188">
        <ele>30.4188</ele>
        <time>2013-05-26T10:51:48Z</time>
      </trkpt>
      <trkpt lat="59.7625479" lon="17.8137498">
        <ele>30.4188</ele>
        <time>2013-05-26T10:51:49Z</time>
      </trkpt>
      <trkpt lat="59.7624517" lon="17.8136789">
        <ele>29.9381</ele>
        <time>2013-05-26T10:51:50Z</time>
      </trkpt>
      <trkpt lat="59.7623556" lon="17.8136086">
        <ele>29.4575</ele>
        <time>2013-05-26T10:51:51Z</time>
      </trkpt>
      <trkpt lat="59.7622599" lon="17.8135411">
        <ele>29.9381</ele>
        <time>2013-05-26T10:51:52Z</time>
      </trkpt>
      <trkpt lat="59.7621648" lon="17.8134733">
        <ele>29.9381</ele>
        <time>2013-05-26T10:51:53Z</time>
      </trkpt>
      <trkpt lat="59.7620702" lon="17.8134044">
        <ele>29.9381</ele>
        <time>2013-05-26T10:51:54Z</time>
      </trkpt>
      <trkpt lat="59.7619752" lon="17.8133376">
        <ele>29.9381</ele>
        <time>2013-05-26T10:51:55Z</time>
      </trkpt>
      <trkpt lat="59.76188" lon="17.8132712">
        <ele>30.4188</ele>
        <time>2013-05-26T10:51:56Z</time>
      </trkpt>
      <trkpt lat="59.7617861" lon="17.813203">
        <ele>30.4188</ele>
        <time>2013-05-26T10:51:57Z</time>
      </trkpt>
      <trkpt lat="59.7616926" lon="17.813135">
        <ele>30.4188</ele>
        <time>2013-05-26T10:51:58Z</time>
      </trkpt>
      <trkpt lat="59.7615998" lon="17.8130685">
        <ele>30.4188</ele>
        <time>2013-05-26T10:51:59Z</time>
      </trkpt>
      <trkpt lat="59.7615081" lon="17.8130038">
        <ele>30.8995</ele>
        <time>2013-05-26T10:52:00Z</time>
      </trkpt>
      <trkpt lat="59.7614169" lon="17.8129387">
        <ele>30.8995</ele>
        <time>2013-05-26T10:52:01Z</time>
      </trkpt>
      <trkpt lat="59.7613257" lon="17.8128733">
        <ele>30.8995</ele>
        <time>2013-05-26T10:52:02Z</time>
      </trkpt>
      <trkpt lat="59.7612342" lon="17.8128086">
        <ele>30.8995</ele>
        <time>2013-05-26T10:52:03Z</time>
      </trkpt>
      <trkpt lat="59.7611428" lon="17.812744">
        <ele>30.8995</ele>
        <time>2013-05-26T10:52:04Z</time>
      </trkpt>
      <trkpt lat="59.7610521" lon="17.8126795">
        <ele>31.3801</ele>
        <time>2013-05-26T10:52:05Z</time>
      </trkpt>
      <trkpt lat="59.7609622" lon="17.812617">
        <ele>31.3801</ele>
        <time>2013-05-26T10:52:06Z</time>
      </trkpt>
      <trkpt lat="59.7608729" lon="17.8125543">
        <ele>31.3801</ele>
        <time>2013-05-26T10:52:07Z</time>
      </trkpt>
      <trkpt lat="59.7607837" lon="17.81249">
        <ele>31.8607</ele>
        <time>2013-05-26T10:52:08Z</time>
      </trkpt>
      <trkpt lat="59.7606941" lon="17.8124269">
        <ele>31.8607</ele>
        <time>2013-05-26T10:52:09Z</time>
      </trkpt>
      <trkpt lat="59.7606047" lon="17.8123643">
        <ele>31.8607</ele>
        <time>2013-05-26T10:52:10Z</time>
      </trkpt>
      <trkpt lat="59.7605156" lon="17.8122996">
        <ele>31.8607</ele>
        <time>2013-05-26T10:52:11Z</time>
      </trkpt>
      <trkpt lat="59.760426" lon="17.8122343">
        <ele>32.3416</ele>
        <time>2013-05-26T10:52:12Z</time>
      </trkpt>
      <trkpt lat="59.7603353" lon="17.8121705">
        <ele>32.3416</ele>
        <time>2013-05-26T10:52:13Z</time>
      </trkpt>
      <trkpt lat="59.760244" lon="17.8121083">
        <ele>32.3416</ele>
        <time>2013-05-26T10:52:14Z</time>
      </trkpt>
      <trkpt lat="59.7601525" lon="17.8120451">
        <ele>32.3416</ele>
        <time>2013-05-26T10:52:15Z</time>
      </trkpt>
      <trkpt lat="59.7600612" lon="17.8119787">
        <ele>32.8223</ele>
        <time>2013-05-26T10:52:16Z</time>
      </trkpt>
      <trkpt lat="59.7599702" lon="17.8119108">
        <ele>32.8223</ele>
        <time>2013-05-26T10:52:17Z</time>
      </trkpt>
      <trkpt lat="59.7598796" lon="17.8118421">
        <ele>32.8223</ele>
        <time>2013-05-26T10:52:18Z</time>
      </trkpt>
      <trkpt lat="59.7597887" lon="17.8117743">
        <ele>32.8223</ele>
        <time>2013-05-26T10:52:19Z</time>
      </trkpt>
      <trkpt lat="59.7596967" lon="17.8117092">
        <ele>33.3029</ele>
        <time>2013-05-26T10:52:20Z</time>
      </trkpt>
      <trkpt lat="59.7596043" lon="17.8116432">
        <ele>33.3029</ele>
        <time>2013-05-26T10:52:21Z</time>
      </trkpt>
      <trkpt lat="59.7595122" lon="17.8115757">
        <ele>33.3029</ele>
        <time>2013-05-26T10:52:22Z</time>
      </trkpt>
      <trkpt lat="59.7594216" lon="17.8115088">
        <ele>33.7834</ele>
        <time>2013-05-26T10:52:23Z</time>
      </trkpt>
      <trkpt lat="59.7593318" lon="17.8114433">
        <ele>33.7834</ele>
        <time>2013-05-26T10:52:24Z</time>
      </trkpt>
      <trkpt lat="59.7592429" lon="17.8113795">
        <ele>33.7834</ele>
        <time>2013-05-26T10:52:25Z</time>
      </trkpt>
      <trkpt lat="59.7591548" lon="17.8113181">
        <ele>34.2642</ele>
        <time>2013-05-26T10:52:26Z</time>
      </trkpt>
      <trkpt lat="59.7590679" lon="17.8112586">
        <ele>34.2642</ele>
        <time>2013-05-26T10:52:27Z</time>
      </trkpt>
      <trkpt lat="59.7589837" lon="17.8111986">
        <ele>34.2642</ele>
        <time>2013-05-26T10:52:28Z</time>
      </trkpt>
      <trkpt lat="59.7589023" lon="17.8111387">
        <ele>34.7449</ele>
        <time>2013-05-26T10:52:29Z</time>
      </trkpt>
      <trkpt lat="59.7588233" lon="17.8110798">
        <ele>34.7449</ele>
        <time>2013-05-26T10:52:30Z</time>
      </trkpt>
      <trkpt lat="59.7587464" lon="17.8110231">
        <ele>35.2255</ele>
        <time>2013-05-26T10:52:31Z</time>
      </trkpt>
      <trkpt lat="59.7586714" lon="17.8109676">
        <ele>35.2255</ele>
        <time>2013-05-26T10:52:32Z</time>
      </trkpt>
      <trkpt lat="59.7585968" lon="17.8109137">
        <ele>35.2255</ele>
        <time>2013-05-26T10:52:33Z</time>
      </trkpt>
      <trkpt lat="59.7585223" lon="17.8108588">
        <ele>35.2255</ele>
        <time>2013-05-26T10:52:34Z</time>
      </trkpt>
      <trkpt lat="59.7584478" lon="17.8108022">
        <ele>35.2255</ele>
        <time>2013-05-26T10:52:35Z</time>
      </trkpt>
      <trkpt lat="59.7583731" lon="17.8107439">
        <ele>35.2255</ele>
        <time>2013-05-26T10:52:36Z</time>
      </trkpt>
      <trkpt lat="59.758298" lon="17.8106874">
        <ele>35.2255</ele>
        <time>2013-05-26T10:52:37Z</time>
      </trkpt>
      <trkpt lat="59.7582233" lon="17.8106329">
        <ele>35.7061</ele>
        <time>2013-05-26T10:52:38Z</time>
      </trkpt>
      <trkpt lat="59.7581494" lon="17.8105798">
        <ele>35.7061</ele>
        <time>2013-05-26T10:52:39Z</time>
      </trkpt>
      <trkpt lat="59.7580758" lon="17.8105264">
        <ele>36.1868</ele>
        <time>2013-05-26T10:52:40Z</time>
      </trkpt>
      <trkpt lat="59.7580029" lon="17.810473">
        <ele>36.1868</ele>
        <time>2013-05-26T10:52:41Z</time>
      </trkpt>
      <trkpt lat="59.7579302" lon="17.8104228">
        <ele>36.1868</ele>
        <time>2013-05-26T10:52:42Z</time>
      </trkpt>
      <trkpt lat="59.7578578" lon="17.8103745">
        <ele>36.1868</ele>
        <time>2013-05-26T10:52:43Z</time>
      </trkpt>
      <trkpt lat="59.7577867" lon="17.8103263">
        <ele>36.6675</ele>
        <time>2013-05-26T10:52:44Z</time>
      </trkpt>
      <trkpt lat="59.7577169" lon="17.8102786">
        <ele>36.6675</ele>
        <time>2013-05-26T10:52:45Z</time>
      </trkpt>
      <trkpt lat="59.7576487" lon="17.8102305">
        <ele>37.1481</ele>
        <time>2013-05-26T10:52:46Z</time>
      </trkpt>
      <trkpt lat="59.7575814" lon="17.810183">
        <ele>37.1481</ele>
        <time>2013-05-26T10:52:47Z</time>
      </trkpt>
      <trkpt lat="59.7575146" lon="17.8101383">
        <ele>37.1481</ele>
        <time>2013-05-26T10:52:48Z</time>
      </trkpt>
      <trkpt lat="59.7574484" lon="17.8100953">
        <ele>37.1481</ele>
        <time>2013-05-26T10:52:49Z</time>
      </trkpt>
      <trkpt lat="59.7573832" lon="17.8100539">
        <ele>37.6287</ele>
        <time>2013-05-26T10:52:50Z</time>
      </trkpt>
      <trkpt lat="59.7573185" lon="17.8100117">
        <ele>37.6287</ele>
        <time>2013-05-26T10:52:51Z</time>
      </trkpt>
      <trkpt lat="59.757254" lon="17.8099698">
        <ele>37.6287</ele>
        <time>2013-05-26T10:52:52Z</time>
      </trkpt>
      <trkpt lat="59.7571899" lon="17.8099259">
        <ele>38.1094</ele>
        <time>2013-05-26T10:52:53Z</time>
      </trkpt>
      <trkpt lat="59.7571268" lon="17.8098817">
        <ele>38.1094</ele>
        <time>2013-05-26T10:52:54Z</time>
      </trkpt>
      <trkpt lat="59.7570632" lon="17.8098379">
        <ele>38.1094</ele>
        <time>2013-05-26T10:52:55Z</time>
      </trkpt>
      <trkpt lat="59.7569992" lon="17.8097926">
        <ele>38.5901</ele>
        <time>2013-05-26T10:52:56Z</time>
      </trkpt>
      <trkpt lat="59.7569345" lon="17.809745">
        <ele>38.5901</ele>
        <time>2013-05-26T10:52:57Z</time>
      </trkpt>
      <trkpt lat="59.7568678" lon="17.8096942">
        <ele>38.5901</ele>
        <time>2013-05-26T10:52:58Z</time>
      </trkpt>
      <trkpt lat="59.7567983" lon="17.8096427">
        <ele>38.5901</ele>
        <time>2013-05-26T10:52:59Z</time>
      </trkpt>
      <trkpt lat="59.7567248" lon="17.8095903">
        <ele>38.5901</ele>
        <time>2013-05-26T10:53:00Z</time>
      </trkpt>
      <trkpt lat="59.7566487" lon="17.8095379">
        <ele>38.5901</ele>
        <time>2013-05-26T10:53:01Z</time>
      </trkpt>
      <trkpt lat="59.7565704" lon="17.8094847">
        <ele>38.5901</ele>
        <time>2013-05-26T10:53:02Z</time>
      </trkpt>
      <trkpt lat="59.7564915" lon="17.8094287">
        <ele>38.5901</ele>
        <time>2013-05-26T10:53:03Z</time>
      </trkpt>
      <trkpt lat="59.7564125" lon="17.8093687">
        <ele>38.5901</ele>
        <time>2013-05-26T10:53:04Z</time>
      </trkpt>
      <trkpt lat="59.756334" lon="17.809307">
        <ele>38.5901</ele>
        <time>2013-05-26T10:53:05Z</time>
      </trkpt>
      <trkpt lat="59.7562553" lon="17.8092454">
        <ele>38.5901</ele>
        <time>2013-05-26T10:53:06Z</time>
      </trkpt>
      <trkpt lat="59.7561765" lon="17.8091834">
        <ele>38.5901</ele>
        <time>2013-05-26T10:53:07Z</time>
      </trkpt>
      <trkpt lat="59.7560981" lon="17.8091215">
        <ele>38.5901</ele>
        <time>2013-05-26T10:53:08Z</time>
      </trkpt>
      <trkpt lat="59.7560197" lon="17.8090608">
        <ele>38.5901</ele>
        <time>2013-05-26T10:53:09Z</time>
      </trkpt>
      <trkpt lat="59.7559409" lon="17.8090023">
        <ele>38.5901</ele>
        <time>2013-05-26T10:53:10Z</time>
      </trkpt>
      <trkpt lat="59.7558618" lon="17.8089448">
        <ele>39.0707</ele>
        <time>2013-05-26T10:53:11Z</time>
      </trkpt>
      <trkpt lat="59.7557826" lon="17.8088842">
        <ele>39.0707</ele>
        <time>2013-05-26T10:53:12Z</time>
      </trkpt>
      <trkpt lat="59.7557033" lon="17.8088215">
        <ele>39.0707</ele>
        <time>2013-05-26T10:53:13Z</time>
      </trkpt>
      <trkpt lat="59.7556245" lon="17.8087578">
        <ele>39.0707</ele>
        <time>2013-05-26T10:53:14Z</time>
      </trkpt>
      <trkpt lat="59.7555461" lon="17.8086944">
        <ele>39.0707</ele>
        <time>2013-05-26T10:53:15Z</time>
      </trkpt>
      <trkpt lat="59.755467" lon="17.8086314">
        <ele>38.5901</ele>
        <time>2013-05-26T10:53:16Z</time>
      </trkpt>
      <trkpt lat="59.7553871" lon="17.8085668">
        <ele>38.5901</ele>
        <time>2013-05-26T10:53:17Z</time>
      </trkpt>
      <trkpt lat="59.7553065" lon="17.8084993">
        <ele>38.5901</ele>
        <time>2013-05-26T10:53:18Z</time>
      </trkpt>
      <trkpt lat="59.7552252" lon="17.8084328">
        <ele>38.1094</ele>
        <time>2013-05-26T10:53:19Z</time>
      </trkpt>
      <trkpt lat="59.7551428" lon="17.8083662">
        <ele>38.1094</ele>
        <time>2013-05-26T10:53:20Z</time>
      </trkpt>
      <trkpt lat="59.7550599" lon="17.8082952">
        <ele>37.6287</ele>
        <time>2013-05-26T10:53:21Z</time>
      </trkpt>
      <trkpt lat="59.754977" lon="17.8082196">
        <ele>37.6287</ele>
        <time>2013-05-26T10:53:22Z</time>
      </trkpt>
      <trkpt lat="59.7548917" lon="17.808142">
        <ele>37.1481</ele>
        <time>2013-05-26T10:53:23Z</time>
      </trkpt>
      <trkpt lat="59.7548071" lon="17.8080606">
        <ele>36.6675</ele>
        <time>2013-05-26T10:53:24Z</time>
      </trkpt>
      <trkpt lat="59.7547215" lon="17.8079759">
        <ele>36.6675</ele>
        <time>2013-05-26T10:53:25Z</time>
      </trkpt>
      <trkpt lat="59.7546352" lon="17.8078848">
        <ele>36.1868</ele>
        <time>2013-05-26T10:53:26Z</time>
      </trkpt>
      <trkpt lat="59.7545481" lon="17.8077881">
        <ele>35.7061</ele>
        <time>2013-05-26T10:53:27Z</time>
      </trkpt>
      <trkpt lat="59.7544627" lon="17.807686">
        <ele>35.7061</ele>
        <time>2013-05-26T10:53:28Z</time>
      </trkpt>
      <trkpt lat="59.7543775" lon="17.8075787">
        <ele>35.2255</ele>
        <time>2013-05-26T10:53:29Z</time>
      </trkpt>
      <trkpt lat="59.7542902" lon="17.8074705">
        <ele>34.7449</ele>
        <time>2013-05-26T10:53:30Z</time>
      </trkpt>
      <trkpt lat="59.7542037" lon="17.8073686">
        <ele>34.7449</ele>
        <time>2013-05-26T10:53:31Z</time>
      </trkpt>
      <trkpt lat="59.7541327" lon="17.8073312">
        <ele>34.7449</ele>
        <time>2013-05-26T10:53:32Z</time>
      </trkpt>
      <trkpt lat="59.7540403" lon="17.8072167">
        <ele>34.7449</ele>
        <time>2013-05-26T10:53:33Z</time>
      </trkpt>
      <trkpt lat="59.753952" lon="17.8070998">
        <ele>34.2642</ele>
        <time>2013-05-26T10:53:34Z</time>
      </trkpt>
      <trkpt lat="59.753853" lon="17.8070354">
        <ele>34.2642</ele>
        <time>2013-05-26T10:53:35Z</time>
      </trkpt>
      <trkpt lat="59.7537577" lon="17.806979">
        <ele>34.7449</ele>
        <time>2013-05-26T10:53:36Z</time>
      </trkpt>
      <trkpt lat="59.7536639" lon="17.8069199">
        <ele>35.2255</ele>
        <time>2013-05-26T10:53:37Z</time>
      </trkpt>
      <trkpt lat="59.7535718" lon="17.8068753">
        <ele>35.2255</ele>
        <time>2013-05-26T10:53:38Z</time>
      </trkpt>
      <trkpt lat="59.7534824" lon="17.8068375">
        <ele>35.7061</ele>
        <time>2013-05-26T10:53:39Z</time>
      </trkpt>
      <trkpt lat="59.7533935" lon="17.8068081">
        <ele>35.7061</ele>
        <time>2013-05-26T10:53:40Z</time>
      </trkpt>
      <trkpt lat="59.7533049" lon="17.8067899">
        <ele>35.7061</ele>
        <time>2013-05-26T10:53:41Z</time>
      </trkpt>
      <trkpt lat="59.7532174" lon="17.8067837">
        <ele>36.1868</ele>
        <time>2013-05-26T10:53:42Z</time>
      </trkpt>
      <trkpt lat="59.7531306" lon="17.8067863">
        <ele>36.1868</ele>
        <time>2013-05-26T10:53:43Z</time>
      </trkpt>
      <trkpt lat="59.753046" lon="17.8067938">
        <ele>36.1868</ele>
        <time>2013-05-26T10:53:44Z</time>
      </trkpt>
      <trkpt lat="59.7529626" lon="17.8068059">
        <ele>36.1868</ele>
        <time>2013-05-26T10:53:45Z</time>
      </trkpt>
      <trkpt lat="59.7528812" lon="17.806825">
        <ele>36.1868</ele>
        <time>2013-05-26T10:53:46Z</time>
      </trkpt>
      <trkpt lat="59.7528008" lon="17.80685">
        <ele>36.1868</ele>
        <time>2013-05-26T10:53:47Z</time>
      </trkpt>
      <trkpt lat="59.7527212" lon="17.8068829">
        <ele>36.1868</ele>
        <time>2013-05-26T10:53:48Z</time>
      </trkpt>
      <trkpt lat="59.752643" lon="17.8069318">
        <ele>36.6675</ele>
        <time>2013-05-26T10:53:49Z</time>
      </trkpt>
      <trkpt lat="59.7525645" lon="17.8069886">
        <ele>37.6287</ele>
        <time>2013-05-26T10:53:50Z</time>
      </trkpt>
      <trkpt lat="59.7524857" lon="17.8070635">
        <ele>38.5901</ele>
        <time>2013-05-26T10:53:51Z</time>
      </trkpt>
      <trkpt lat="59.7524124" lon="17.8071296">
        <ele>39.0707</ele>
        <time>2013-05-26T10:53:52Z</time>
      </trkpt>
      <trkpt lat="59.7523424" lon="17.8072012">
        <ele>39.5513</ele>
        <time>2013-05-26T10:53:53Z</time>
      </trkpt>
      <trkpt lat="59.7522742" lon="17.8072783">
        <ele>40.5128</ele>
        <time>2013-05-26T10:53:54Z</time>
      </trkpt>
      <trkpt lat="59.7522067" lon="17.8073554">
        <ele>40.5128</ele>
        <time>2013-05-26T10:53:55Z</time>
      </trkpt>
      <trkpt lat="59.7521416" lon="17.8074429">
        <ele>40.9934</ele>
        <time>2013-05-26T10:53:56Z</time>
      </trkpt>
      <trkpt lat="59.7520778" lon="17.8075364">
        <ele>41.474</ele>
        <time>2013-05-26T10:53:57Z</time>
      </trkpt>
      <trkpt lat="59.7520161" lon="17.8076271">
        <ele>41.9547</ele>
        <time>2013-05-26T10:53:58Z</time>
      </trkpt>
      <trkpt lat="59.751956" lon="17.8077176">
        <ele>41.474</ele>
        <time>2013-05-26T10:53:59Z</time>
      </trkpt>
      <trkpt lat="59.751899" lon="17.8078073">
        <ele>41.474</ele>
        <time>2013-05-26T10:54:00Z</time>
      </trkpt>
      <trkpt lat="59.7518405" lon="17.8078957">
        <ele>40.9934</ele>
        <time>2013-05-26T10:54:01Z</time>
      </trkpt>
      <trkpt lat="59.7517783" lon="17.8079818">
        <ele>40.5128</ele>
        <time>2013-05-26T10:54:02Z</time>
      </trkpt>
      <trkpt lat="59.7517145" lon="17.8080622">
        <ele>40.0321</ele>
        <time>2013-05-26T10:54:03Z</time>
      </trkpt>
      <trkpt lat="59.7516514" lon="17.8081454">
        <ele>39.0707</ele>
        <time>2013-05-26T10:54:04Z</time>
      </trkpt>
      <trkpt lat="59.7515859" lon="17.8082221">
        <ele>38.5901</ele>
        <time>2013-05-26T10:54:05Z</time>
      </trkpt>
      <trkpt lat="59.7515155" lon="17.8082999">
        <ele>38.1094</ele>
        <time>2013-05-26T10:54:06Z</time>
      </trkpt>
      <trkpt lat="59.7514438" lon="17.8083761">
        <ele>38.1094</ele>
        <time>2013-05-26T10:54:07Z</time>
      </trkpt>
      <trkpt lat="59.7513697" lon="17.8084423">
        <ele>37.6287</ele>
        <time>2013-05-26T10:54:08Z</time>
      </trkpt>
      <trkpt lat="59.7512938" lon="17.8084956">
        <ele>37.6287</ele>
        <time>2013-05-26T10:54:09Z</time>
      </trkpt>
      <trkpt lat="59.7512137" lon="17.8085361">
        <ele>37.1481</ele>
        <time>2013-05-26T10:54:10Z</time>
      </trkpt>
      <trkpt lat="59.7511329" lon="17.8085765">
        <ele>36.6675</ele>
        <time>2013-05-26T10:54:11Z</time>
      </trkpt>
      <trkpt lat="59.7510516" lon="17.8086224">
        <ele>36.6675</ele>
        <time>2013-05-26T10:54:12Z</time>
      </trkpt>
      <trkpt lat="59.75097" lon="17.8086708">
        <ele>36.6675</ele>
        <time>2013-05-26T10:54:13Z</time>
      </trkpt>
      <trkpt lat="59.7508867" lon="17.8087075">
        <ele>37.1481</ele>
        <time>2013-05-26T10:54:14Z</time>
      </trkpt>
      <trkpt lat="59.7508013" lon="17.8087405">
        <ele>37.1481</ele>
        <time>2013-05-26T10:54:15Z</time>
      </trkpt>
      <trkpt lat="59.7507149" lon="17.8087675">
        <ele>37.6287</ele>
        <time>2013-05-26T10:54:16Z</time>
      </trkpt>
      <trkpt lat="59.7506263" lon="17.8087859">
        <ele>37.6287</ele>
        <time>2013-05-26T10:54:17Z</time>
      </trkpt>
      <trkpt lat="59.7505356" lon="17.8087941">
        <ele>37.1481</ele>
        <time>2013-05-26T10:54:18Z</time>
      </trkpt>
      <trkpt lat="59.7504435" lon="17.8087929">
        <ele>37.1481</ele>
        <time>2013-05-26T10:54:19Z</time>
      </trkpt>
      <trkpt lat="59.7503497" lon="17.8087894">
        <ele>36.6675</ele>
        <time>2013-05-26T10:54:20Z</time>
      </trkpt>
      <trkpt lat="59.7502543" lon="17.808791">
        <ele>36.6675</ele>
        <time>2013-05-26T10:54:21Z</time>
      </trkpt>
      <trkpt lat="59.7501527" lon="17.8088143">
        <ele>36.6675</ele>
        <time>2013-05-26T10:54:22Z</time>
      </trkpt>
      <trkpt lat="59.7500504" lon="17.8088431">
        <ele>36.1868</ele>
        <time>2013-05-26T10:54:23Z</time>
      </trkpt>
      <trkpt lat="59.749948" lon="17.808878">
        <ele>36.1868</ele>
        <time>2013-05-26T10:54:24Z</time>
      </trkpt>
      <trkpt lat="59.7498444" lon="17.8089184">
        <ele>36.1868</ele>
        <time>2013-05-26T10:54:25Z</time>
      </trkpt>
      <trkpt lat="59.749741" lon="17.8089617">
        <ele>36.1868</ele>
        <time>2013-05-26T10:54:26Z</time>
      </trkpt>
      <trkpt lat="59.749638" lon="17.8090106">
        <ele>36.1868</ele>
        <time>2013-05-26T10:54:27Z</time>
      </trkpt>
      <trkpt lat="59.7495357" lon="17.8090634">
        <ele>36.1868</ele>
        <time>2013-05-26T10:54:28Z</time>
      </trkpt>
      <trkpt lat="59.749435" lon="17.8091117">
        <ele>35.2255</ele>
        <time>2013-05-26T10:54:29Z</time>
      </trkpt>
      <trkpt lat="59.7493359" lon="17.8091612">
        <ele>34.2642</ele>
        <time>2013-05-26T10:54:30Z</time>
      </trkpt>
      <trkpt lat="59.7492428" lon="17.8092067">
        <ele>33.3029</ele>
        <time>2013-05-26T10:54:31Z</time>
      </trkpt>
      <trkpt lat="59.7491521" lon="17.8092478">
        <ele>32.3416</ele>
        <time>2013-05-26T10:54:32Z</time>
      </trkpt>
      <trkpt lat="59.7490619" lon="17.8092836">
        <ele>31.3801</ele>
        <time>2013-05-26T10:54:33Z</time>
      </trkpt>
      <trkpt lat="59.7489732" lon="17.8093173">
        <ele>30.4188</ele>
        <time>2013-05-26T10:54:34Z</time>
      </trkpt>
      <trkpt lat="59.7488874" lon="17.8093525">
        <ele>29.9381</ele>
        <time>2013-05-26T10:54:35Z</time>
      </trkpt>
      <trkpt lat="59.7488038" lon="17.8093872">
        <ele>28.9769</ele>
        <time>2013-05-26T10:54:36Z</time>
      </trkpt>
      <trkpt lat="59.7487205" lon="17.8094197">
        <ele>28.4962</ele>
        <time>2013-05-26T10:54:37Z</time>
      </trkpt>
      <trkpt lat="59.7486376" lon="17.8094503">
        <ele>28.0155</ele>
        <time>2013-05-26T10:54:38Z</time>
      </trkpt>
      <trkpt lat="59.7485549" lon="17.8094763">
        <ele>27.5349</ele>
        <time>2013-05-26T10:54:39Z</time>
      </trkpt>
      <trkpt lat="59.7484724" lon="17.8094975">
        <ele>27.0543</ele>
        <time>2013-05-26T10:54:40Z</time>
      </trkpt>
      <trkpt lat="59.7483905" lon="17.8095166">
        <ele>26.5736</ele>
        <time>2013-05-26T10:54:41Z</time>
      </trkpt>
      <trkpt lat="59.7483088" lon="17.8095363">
        <ele>26.5736</ele>
        <time>2013-05-26T10:54:42Z</time>
      </trkpt>
      <trkpt lat="59.7482278" lon="17.8095588">
        <ele>26.5736</ele>
        <time>2013-05-26T10:54:43Z</time>
      </trkpt>
      <trkpt lat="59.7481472" lon="17.8095809">
        <ele>26.0929</ele>
        <time>2013-05-26T10:54:44Z</time>
      </trkpt>
      <trkpt lat="59.7480678" lon="17.8096042">
        <ele>26.0929</ele>
        <time>2013-05-26T10:54:45Z</time>
      </trkpt>
      <trkpt lat="59.7479896" lon="17.8096334">
        <ele>25.6123</ele>
        <time>2013-05-26T10:54:46Z</time>
      </trkpt>
      <trkpt lat="59.7479135" lon="17.8096685">
        <ele>25.6123</ele>
        <time>2013-05-26T10:54:47Z</time>
      </trkpt>
      <trkpt lat="59.7478381" lon="17.8097054">
        <ele>25.1317</ele>
        <time>2013-05-26T10:54:48Z</time>
      </trkpt>
      <trkpt lat="59.7477627" lon="17.8097408">
        <ele>25.1317</ele>
        <time>2013-05-26T10:54:49Z</time>
      </trkpt>
      <trkpt lat="59.7476874" lon="17.8097724">
        <ele>25.1317</ele>
        <time>2013-05-26T10:54:50Z</time>
      </trkpt>
      <trkpt lat="59.7476107" lon="17.8097985">
        <ele>25.1317</ele>
        <time>2013-05-26T10:54:51Z</time>
      </trkpt>
      <trkpt lat="59.747533" lon="17.8098223">
        <ele>24.651</ele>
        <time>2013-05-26T10:54:52Z</time>
      </trkpt>
      <trkpt lat="59.7474548" lon="17.8098459">
        <ele>24.651</ele>
        <time>2013-05-26T10:54:53Z</time>
      </trkpt>
      <trkpt lat="59.7473762" lon="17.8098664">
        <ele>24.1703</ele>
        <time>2013-05-26T10:54:54Z</time>
      </trkpt>
      <trkpt lat="59.7472961" lon="17.8098879">
        <ele>24.1703</ele>
        <time>2013-05-26T10:54:55Z</time>
      </trkpt>
      <trkpt lat="59.7472141" lon="17.8099061">
        <ele>24.1703</ele>
        <time>2013-05-26T10:54:56Z</time>
      </trkpt>
      <trkpt lat="59.7471295" lon="17.8099219">
        <ele>24.1703</ele>
        <time>2013-05-26T10:54:57Z</time>
      </trkpt>
      <trkpt lat="59.7470431" lon="17.8099369">
        <ele>24.651</ele>
        <time>2013-05-26T10:54:58Z</time>
      </trkpt>
      <trkpt lat="59.746956" lon="17.8099478">
        <ele>24.651</ele>
        <time>2013-05-26T10:54:59Z</time>
      </trkpt>
      <trkpt lat="59.7468681" lon="17.8099516">
        <ele>25.1317</ele>
        <time>2013-05-26T10:55:00Z</time>
      </trkpt>
      <trkpt lat="59.7467796" lon="17.8099492">
        <ele>25.1317</ele>
        <time>2013-05-26T10:55:01Z</time>
      </trkpt>
      <trkpt lat="59.7466909" lon="17.809943">
        <ele>25.1317</ele>
        <time>2013-05-26T10:55:02Z</time>
      </trkpt>
      <trkpt lat="59.7466015" lon="17.8099327">
        <ele>25.6123</ele>
        <time>2013-05-26T10:55:03Z</time>
      </trkpt>
      <trkpt lat="59.7465122" lon="17.8099196">
        <ele>25.6123</ele>
        <time>2013-05-26T10:55:04Z</time>
      </trkpt>
      <trkpt lat="59.746423" lon="17.8099057">
        <ele>25.6123</ele>
        <time>2013-05-26T10:55:05Z</time>
      </trkpt>
      <trkpt lat="59.746335" lon="17.8098902">
        <ele>26.0929</ele>
        <time>2013-05-26T10:55:06Z</time>
      </trkpt>
      <trkpt lat="59.7462475" lon="17.8098745">
        <ele>26.0929</ele>
        <time>2013-05-26T10:55:07Z</time>
      </trkpt>
      <trkpt lat="59.7461608" lon="17.8098594">
        <ele>26.0929</ele>
        <time>2013-05-26T10:55:08Z</time>
      </trkpt>
      <trkpt lat="59.7460745" lon="17.8098424">
        <ele>26.5736</ele>
        <time>2013-05-26T10:55:09Z</time>
      </trkpt>
      <trkpt lat="59.7459884" lon="17.8098252">
        <ele>26.5736</ele>
        <time>2013-05-26T10:55:10Z</time>
      </trkpt>
      <trkpt lat="59.7459029" lon="17.8098089">
        <ele>26.5736</ele>
        <time>2013-05-26T10:55:11Z</time>
      </trkpt>
      <trkpt lat="59.745818" lon="17.8097945">
        <ele>26.0929</ele>
        <time>2013-05-26T10:55:12Z</time>
      </trkpt>
      <trkpt lat="59.7457331" lon="17.8097776">
        <ele>26.0929</ele>
        <time>2013-05-26T10:55:13Z</time>
      </trkpt>
      <trkpt lat="59.7456478" lon="17.8097597">
        <ele>26.0929</ele>
        <time>2013-05-26T10:55:14Z</time>
      </trkpt>
      <trkpt lat="59.7455626" lon="17.8097405">
        <ele>26.0929</ele>
        <time>2013-05-26T10:55:15Z</time>
      </trkpt>
      <trkpt lat="59.7454778" lon="17.8097208">
        <ele>26.0929</ele>
        <time>2013-05-26T10:55:16Z</time>
      </trkpt>
      <trkpt lat="59.7453933" lon="17.8097031">
        <ele>25.6123</ele>
        <time>2013-05-26T10:55:17Z</time>
      </trkpt>
      <trkpt lat="59.74531" lon="17.8096862">
        <ele>25.6123</ele>
        <time>2013-05-26T10:55:18Z</time>
      </trkpt>
      <trkpt lat="59.7452279" lon="17.8096699">
        <ele>25.6123</ele>
        <time>2013-05-26T10:55:19Z</time>
      </trkpt>
      <trkpt lat="59.7451442" lon="17.8096576">
        <ele>26.0929</ele>
        <time>2013-05-26T10:55:20Z</time>
      </trkpt>
      <trkpt lat="59.7450606" lon="17.8096457">
        <ele>26.0929</ele>
        <time>2013-05-26T10:55:21Z</time>
      </trkpt>
      <trkpt lat="59.744977" lon="17.8096311">
        <ele>26.5736</ele>
        <time>2013-05-26T10:55:22Z</time>
      </trkpt>
      <trkpt lat="59.7448949" lon="17.8096125">
        <ele>26.5736</ele>
        <time>2013-05-26T10:55:23Z</time>
      </trkpt>
      <trkpt lat="59.7448111" lon="17.8095929">
        <ele>26.5736</ele>
        <time>2013-05-26T10:55:24Z</time>
      </trkpt>
      <trkpt lat="59.7447179" lon="17.8095742">
        <ele>27.0543</ele>
        <time>2013-05-26T10:55:25Z</time>
      </trkpt>
      <trkpt lat="59.7446309" lon="17.8095622">
        <ele>27.0543</ele>
        <time>2013-05-26T10:55:26Z</time>
      </trkpt>
      <trkpt lat="59.7445459" lon="17.8095549">
        <ele>27.5349</ele>
        <time>2013-05-26T10:55:27Z</time>
      </trkpt>
      <trkpt lat="59.7444655" lon="17.8095567">
        <ele>27.0543</ele>
        <time>2013-05-26T10:55:28Z</time>
      </trkpt>
      <trkpt lat="59.7443817" lon="17.8095641">
        <ele>27.5349</ele>
        <time>2013-05-26T10:55:29Z</time>
      </trkpt>
      <trkpt lat="59.7442983" lon="17.8095731">
        <ele>27.5349</ele>
        <time>2013-05-26T10:55:30Z</time>
      </trkpt>
      <trkpt lat="59.7442155" lon="17.8095882">
        <ele>27.0543</ele>
        <time>2013-05-26T10:55:31Z</time>
      </trkpt>
      <trkpt lat="59.7441315" lon="17.8096092">
        <ele>27.0543</ele>
        <time>2013-05-26T10:55:32Z</time>
      </trkpt>
      <trkpt lat="59.744047" lon="17.8096346">
        <ele>27.0543</ele>
        <time>2013-05-26T10:55:33Z</time>
      </trkpt>
      <trkpt lat="59.7439625" lon="17.8096654">
        <ele>26.5736</ele>
        <time>2013-05-26T10:55:34Z</time>
      </trkpt>
      <trkpt lat="59.7438781" lon="17.8097031">
        <ele>26.5736</ele>
        <time>2013-05-26T10:55:35Z</time>
      </trkpt>
      <trkpt lat="59.7437935" lon="17.8097462">
        <ele>26.5736</ele>
        <time>2013-05-26T10:55:36Z</time>
      </trkpt>
      <trkpt lat="59.7437097" lon="17.8097947">
        <ele>26.5736</ele>
        <time>2013-05-26T10:55:37Z</time>
      </trkpt>
      <trkpt lat="59.7436286" lon="17.8098456">
        <ele>27.0543</ele>
        <time>2013-05-26T10:55:38Z</time>
      </trkpt>
      <trkpt lat="59.7435503" lon="17.8098979">
        <ele>27.0543</ele>
        <time>2013-05-26T10:55:39Z</time>
      </trkpt>
      <trkpt lat="59.7434765" lon="17.8099538">
        <ele>27.0543</ele>
        <time>2013-05-26T10:55:40Z</time>
      </trkpt>
      <trkpt lat="59.7434051" lon="17.8100161">
        <ele>27.5349</ele>
        <time>2013-05-26T10:55:41Z</time>
      </trkpt>
      <trkpt lat="59.7433346" lon="17.810089">
        <ele>28.0155</ele>
        <time>2013-05-26T10:55:42Z</time>
      </trkpt>
      <trkpt lat="59.7432643" lon="17.8101606">
        <ele>28.0155</ele>
        <time>2013-05-26T10:55:43Z</time>
      </trkpt>
      <trkpt lat="59.743194" lon="17.8102306">
        <ele>28.4962</ele>
        <time>2013-05-26T10:55:44Z</time>
      </trkpt>
      <trkpt lat="59.7431229" lon="17.810299">
        <ele>29.4575</ele>
        <time>2013-05-26T10:55:45Z</time>
      </trkpt>
      <trkpt lat="59.7430533" lon="17.8103704">
        <ele>30.4188</ele>
        <time>2013-05-26T10:55:46Z</time>
      </trkpt>
      <trkpt lat="59.7429857" lon="17.8104412">
        <ele>30.8995</ele>
        <time>2013-05-26T10:55:47Z</time>
      </trkpt>
      <trkpt lat="59.7429174" lon="17.8105119">
        <ele>31.3801</ele>
        <time>2013-05-26T10:55:48Z</time>
      </trkpt>
      <trkpt lat="59.7428477" lon="17.8105813">
        <ele>31.3801</ele>
        <time>2013-05-26T10:55:49Z</time>
      </trkpt>
      <trkpt lat="59.7427779" lon="17.8106533">
        <ele>31.8607</ele>
        <time>2013-05-26T10:55:50Z</time>
      </trkpt>
      <trkpt lat="59.7427106" lon="17.8107295">
        <ele>31.8607</ele>
        <time>2013-05-26T10:55:51Z</time>
      </trkpt>
      <trkpt lat="59.7426423" lon="17.810805">
        <ele>31.8607</ele>
        <time>2013-05-26T10:55:52Z</time>
      </trkpt>
      <trkpt lat="59.7425732" lon="17.8108749">
        <ele>31.8607</ele>
        <time>2013-05-26T10:55:53Z</time>
      </trkpt>
      <trkpt lat="59.7425035" lon="17.8109437">
        <ele>31.8607</ele>
        <time>2013-05-26T10:55:54Z</time>
      </trkpt>
      <trkpt lat="59.7424349" lon="17.8110075">
        <ele>31.8607</ele>
        <time>2013-05-26T10:55:55Z</time>
      </trkpt>
      <trkpt lat="59.7423654" lon="17.811067">
        <ele>31.3801</ele>
        <time>2013-05-26T10:55:56Z</time>
      </trkpt>
      <trkpt lat="59.7422962" lon="17.8111288">
        <ele>30.8995</ele>
        <time>2013-05-26T10:55:57Z</time>
      </trkpt>
      <trkpt lat="59.7422278" lon="17.8111949">
        <ele>30.8995</ele>
        <time>2013-05-26T10:55:58Z</time>
      </trkpt>
      <trkpt lat="59.7421592" lon="17.8112562">
        <ele>30.4188</ele>
        <time>2013-05-26T10:55:59Z</time>
      </trkpt>
      <trkpt lat="59.7420906" lon="17.8113176">
        <ele>30.4188</ele>
        <time>2013-05-26T10:56:00Z</time>
      </trkpt>
      <trkpt lat="59.7420227" lon="17.8113809">
        <ele>29.9381</ele>
        <time>2013-05-26T10:56:01Z</time>
      </trkpt>
      <trkpt lat="59.7419549" lon="17.8114432">
        <ele>29.4575</ele>
        <time>2013-05-26T10:56:02Z</time>
      </trkpt>
      <trkpt lat="59.7418869" lon="17.8115048">
        <ele>28.9769</ele>
        <time>2013-05-26T10:56:03Z</time>
      </trkpt>
      <trkpt lat="59.741819" lon="17.8115658">
        <ele>28.4962</ele>
        <time>2013-05-26T10:56:04Z</time>
      </trkpt>
      <trkpt lat="59.7417497" lon="17.8116296">
        <ele>28.4962</ele>
        <time>2013-05-26T10:56:05Z</time>
      </trkpt>
      <trkpt lat="59.7416793" lon="17.8116939">
        <ele>28.4962</ele>
        <time>2013-05-26T10:56:06Z</time>
      </trkpt>
      <trkpt lat="59.7416106" lon="17.8117482">
        <ele>28.0155</ele>
        <time>2013-05-26T10:56:07Z</time>
      </trkpt>
      <trkpt lat="59.7415429" lon="17.8117914">
        <ele>28.0155</ele>
        <time>2013-05-26T10:56:08Z</time>
      </trkpt>
      <trkpt lat="59.7414751" lon="17.8118274">
        <ele>27.5349</ele>
        <time>2013-05-26T10:56:09Z</time>
      </trkpt>
      <trkpt lat="59.7414062" lon="17.8118545">
        <ele>27.5349</ele>
        <time>2013-05-26T10:56:10Z</time>
      </trkpt>
      <trkpt lat="59.7413359" lon="17.8118768">
        <ele>27.0543</ele>
        <time>2013-05-26T10:56:11Z</time>
      </trkpt>
      <trkpt lat="59.7412643" lon="17.8118945">
        <ele>27.0543</ele>
        <time>2013-05-26T10:56:12Z</time>
      </trkpt>
      <trkpt lat="59.7411918" lon="17.8119099">
        <ele>26.5736</ele>
        <time>2013-05-26T10:56:13Z</time>
      </trkpt>
      <trkpt lat="59.741119" lon="17.8119265">
        <ele>26.5736</ele>
        <time>2013-05-26T10:56:14Z</time>
      </trkpt>
      <trkpt lat="59.7410466" lon="17.8119366">
        <ele>26.5736</ele>
        <time>2013-05-26T10:56:15Z</time>
      </trkpt>
      <trkpt lat="59.7409752" lon="17.8119462">
        <ele>26.0929</ele>
        <time>2013-05-26T10:56:16Z</time>
      </trkpt>
      <trkpt lat="59.7409079" lon="17.8119621">
        <ele>26.0929</ele>
        <time>2013-05-26T10:56:17Z</time>
      </trkpt>
      <trkpt lat="59.7408512" lon="17.811971">
        <ele>26.5736</ele>
        <time>2013-05-26T10:56:18Z</time>
      </trkpt>
      <trkpt lat="59.7408121" lon="17.8119621">
        <ele>26.0929</ele>
        <time>2013-05-26T10:56:19Z</time>
      </trkpt>
      <trkpt lat="59.7407876" lon="17.8119504">
        <ele>25.6123</ele>
        <time>2013-05-26T10:56:20Z</time>
      </trkpt>
      <trkpt lat="59.7407706" lon="17.811926">
        <ele>24.651</ele>
        <time>2013-05-26T10:56:21Z</time>
      </trkpt>
      <trkpt lat="59.7407608" lon="17.811902">
        <ele>24.1703</ele>
        <time>2013-05-26T10:56:22Z</time>
      </trkpt>
      <trkpt lat="59.7407577" lon="17.8118781">
        <ele>24.1703</ele>
        <time>2013-05-26T10:56:23Z</time>
      </trkpt>
      <trkpt lat="59.7407524" lon="17.811856">
        <ele>23.6896</ele>
        <time>2013-05-26T10:56:24Z</time>
      </trkpt>
      <trkpt lat="59.7407435" lon="17.811827">
        <ele>23.6896</ele>
        <time>2013-05-26T10:56:25Z</time>
      </trkpt>
      <trkpt lat="59.740736" lon="17.8117834">
        <ele>24.1703</ele>
        <time>2013-05-26T10:56:26Z</time>
      </trkpt>
      <trkpt lat="59.7407312" lon="17.8117297">
        <ele>24.1703</ele>
        <time>2013-05-26T10:56:27Z</time>
      </trkpt>
      <trkpt lat="59.7407293" lon="17.8116691">
        <ele>24.1703</ele>
        <time>2013-05-26T10:56:28Z</time>
      </trkpt>
      <trkpt lat="59.7407313" lon="17.8116023">
        <ele>24.1703</ele>
        <time>2013-05-26T10:56:29Z</time>
      </trkpt>
      <trkpt lat="59.7407368" lon="17.8115276">
        <ele>24.1703</ele>
        <time>2013-05-26T10:56:30Z</time>
      </trkpt>
      <trkpt lat="59.7407432" lon="17.811443">
        <ele>23.6896</ele>
        <time>2013-05-26T10:56:31Z</time>
      </trkpt>
      <trkpt lat="59.7407494" lon="17.8113528">
        <ele>23.209</ele>
        <time>2013-05-26T10:56:32Z</time>
      </trkpt>
      <trkpt lat="59.7407551" lon="17.8112603">
        <ele>23.209</ele>
        <time>2013-05-26T10:56:33Z</time>
      </trkpt>
      <trkpt lat="59.7407613" lon="17.8111666">
        <ele>22.7283</ele>
        <time>2013-05-26T10:56:34Z</time>
      </trkpt>
      <trkpt lat="59.7407681" lon="17.8110702">
        <ele>22.2476</ele>
        <time>2013-05-26T10:56:35Z</time>
      </trkpt>
      <trkpt lat="59.7407768" lon="17.8109729">
        <ele>21.767</ele>
        <time>2013-05-26T10:56:36Z</time>
      </trkpt>
      <trkpt lat="59.7407866" lon="17.8108706">
        <ele>21.2864</ele>
        <time>2013-05-26T10:56:37Z</time>
      </trkpt>
      <trkpt lat="59.7407939" lon="17.8107628">
        <ele>20.8057</ele>
        <time>2013-05-26T10:56:38Z</time>
      </trkpt>
      <trkpt lat="59.7407992" lon="17.8106511">
        <ele>20.325</ele>
        <time>2013-05-26T10:56:39Z</time>
      </trkpt>
      <trkpt lat="59.7408041" lon="17.8105366">
        <ele>19.8444</ele>
        <time>2013-05-26T10:56:40Z</time>
      </trkpt>
      <trkpt lat="59.7408096" lon="17.8104235">
        <ele>19.8444</ele>
        <time>2013-05-26T10:56:41Z</time>
      </trkpt>
      <trkpt lat="59.740814" lon="17.8103114">
        <ele>19.3638</ele>
        <time>2013-05-26T10:56:42Z</time>
      </trkpt>
      <trkpt lat="59.7408168" lon="17.8101997">
        <ele>19.3638</ele>
        <time>2013-05-26T10:56:43Z</time>
      </trkpt>
      <trkpt lat="59.7408209" lon="17.8100885">
        <ele>19.3638</ele>
        <time>2013-05-26T10:56:44Z</time>
      </trkpt>
      <trkpt lat="59.7408275" lon="17.8099701">
        <ele>19.3638</ele>
        <time>2013-05-26T10:56:45Z</time>
      </trkpt>
      <trkpt lat="59.7408315" lon="17.8098456">
        <ele>18.8831</ele>
        <time>2013-05-26T10:56:46Z</time>
      </trkpt>
      <trkpt lat="59.7408332" lon="17.8097167">
        <ele>18.8831</ele>
        <time>2013-05-26T10:56:47Z</time>
      </trkpt>
      <trkpt lat="59.7408338" lon="17.809584">
        <ele>18.8831</ele>
        <time>2013-05-26T10:56:48Z</time>
      </trkpt>
      <trkpt lat="59.7408307" lon="17.8094488">
        <ele>18.8831</ele>
        <time>2013-05-26T10:56:49Z</time>
      </trkpt>
      <trkpt lat="59.740825" lon="17.809309">
        <ele>19.3638</ele>
        <time>2013-05-26T10:56:50Z</time>
      </trkpt>
      <trkpt lat="59.7408194" lon="17.8091682">
        <ele>20.325</ele>
        <time>2013-05-26T10:56:51Z</time>
      </trkpt>
      <trkpt lat="59.7408152" lon="17.8090319">
        <ele>20.8057</ele>
        <time>2013-05-26T10:56:52Z</time>
      </trkpt>
      <trkpt lat="59.7408089" lon="17.8088965">
        <ele>20.8057</ele>
        <time>2013-05-26T10:56:53Z</time>
      </trkpt>
      <trkpt lat="59.7407999" lon="17.8087652">
        <ele>21.2864</ele>
        <time>2013-05-26T10:56:54Z</time>
      </trkpt>
      <trkpt lat="59.7407898" lon="17.8086367">
        <ele>21.767</ele>
        <time>2013-05-26T10:56:55Z</time>
      </trkpt>
      <trkpt lat="59.7407784" lon="17.8085113">
        <ele>22.2476</ele>
        <time>2013-05-26T10:56:56Z</time>
      </trkpt>
      <trkpt lat="59.7407618" lon="17.808389">
        <ele>23.6896</ele>
        <time>2013-05-26T10:56:57Z</time>
      </trkpt>
      <trkpt lat="59.7407435" lon="17.8082687">
        <ele>24.651</ele>
        <time>2013-05-26T10:56:58Z</time>
      </trkpt>
      <trkpt lat="59.7407279" lon="17.8081502">
        <ele>25.1317</ele>
        <time>2013-05-26T10:56:59Z</time>
      </trkpt>
      <trkpt lat="59.74071" lon="17.8080365">
        <ele>26.5736</ele>
        <time>2013-05-26T10:57:00Z</time>
      </trkpt>
      <trkpt lat="59.7406912" lon="17.8079211">
        <ele>27.5349</ele>
        <time>2013-05-26T10:57:01Z</time>
      </trkpt>
      <trkpt lat="59.7406707" lon="17.8078016">
        <ele>28.4962</ele>
        <time>2013-05-26T10:57:02Z</time>
      </trkpt>
      <trkpt lat="59.7406483" lon="17.8076803">
        <ele>29.4575</ele>
        <time>2013-05-26T10:57:03Z</time>
      </trkpt>
      <trkpt lat="59.7406264" lon="17.8075587">
        <ele>29.9381</ele>
        <time>2013-05-26T10:57:04Z</time>
      </trkpt>
      <trkpt lat="59.7406028" lon="17.8074363">
        <ele>30.4188</ele>
        <time>2013-05-26T10:57:05Z</time>
      </trkpt>
      <trkpt lat="59.7405784" lon="17.8073131">
        <ele>30.8995</ele>
        <time>2013-05-26T10:57:06Z</time>
      </trkpt>
      <trkpt lat="59.7405539" lon="17.8071929">
        <ele>31.3801</ele>
        <time>2013-05-26T10:57:07Z</time>
      </trkpt>
      <trkpt lat="59.7405285" lon="17.8070741">
        <ele>31.8607</ele>
        <time>2013-05-26T10:57:08Z</time>
      </trkpt>
      <trkpt lat="59.7405023" lon="17.8069567">
        <ele>32.3416</ele>
        <time>2013-05-26T10:57:09Z</time>
      </trkpt>
      <trkpt lat="59.7404743" lon="17.8068412">
        <ele>32.8223</ele>
        <time>2013-05-26T10:57:10Z</time>
      </trkpt>
      <trkpt lat="59.7404463" lon="17.8067255">
        <ele>33.3029</ele>
        <time>2013-05-26T10:57:11Z</time>
      </trkpt>
      <trkpt lat="59.7404169" lon="17.8066122">
        <ele>33.7834</ele>
        <time>2013-05-26T10:57:12Z</time>
      </trkpt>
      <trkpt lat="59.740386" lon="17.8065013">
        <ele>34.2642</ele>
        <time>2013-05-26T10:57:13Z</time>
      </trkpt>
      <trkpt lat="59.7403557" lon="17.8063952">
        <ele>34.7449</ele>
        <time>2013-05-26T10:57:14Z</time>
      </trkpt>
      <trkpt lat="59.7403262" lon="17.8062849">
        <ele>35.2255</ele>
        <time>2013-05-26T10:57:15Z</time>
      </trkpt>
      <trkpt lat="59.7402938" lon="17.8061831">
        <ele>35.2255</ele>
        <time>2013-05-26T10:57:16Z</time>
      </trkpt>
      <trkpt lat="59.7402635" lon="17.8060826">
        <ele>35.2255</ele>
        <time>2013-05-26T10:57:17Z</time>
      </trkpt>
      <trkpt lat="59.7402328" lon="17.8059883">
        <ele>36.1868</ele>
        <time>2013-05-26T10:57:18Z</time>
      </trkpt>
      <trkpt lat="59.7401982" lon="17.8058875">
        <ele>36.6675</ele>
        <time>2013-05-26T10:57:19Z</time>
      </trkpt>
      <trkpt lat="59.740163" lon="17.8057878">
        <ele>37.1481</ele>
        <time>2013-05-26T10:57:20Z</time>
      </trkpt>
      <trkpt lat="59.7401273" lon="17.8056684">
        <ele>35.2255</ele>
        <time>2013-05-26T10:57:21Z</time>
      </trkpt>
      <trkpt lat="59.7400914" lon="17.8055516">
        <ele>33.7834</ele>
        <time>2013-05-26T10:57:22Z</time>
      </trkpt>
      <trkpt lat="59.7400548" lon="17.8054409">
        <ele>32.3416</ele>
        <time>2013-05-26T10:57:23Z</time>
      </trkpt>
      <trkpt lat="59.7400185" lon="17.8053317">
        <ele>31.3801</ele>
        <time>2013-05-26T10:57:24Z</time>
      </trkpt>
      <trkpt lat="59.7399869" lon="17.8052256">
        <ele>32.3416</ele>
        <time>2013-05-26T10:57:25Z</time>
      </trkpt>
      <trkpt lat="59.7399678" lon="17.8051074">
        <ele>31.8607</ele>
        <time>2013-05-26T10:57:26Z</time>
      </trkpt>
      <trkpt lat="59.7399527" lon="17.8049877">
        <ele>32.3416</ele>
        <time>2013-05-26T10:57:27Z</time>
      </trkpt>
      <trkpt lat="59.7399289" lon="17.8048777">
        <ele>32.3416</ele>
        <time>2013-05-26T10:57:28Z</time>
      </trkpt>
      <trkpt lat="59.7398929" lon="17.8047981">
        <ele>32.8223</ele>
        <time>2013-05-26T10:57:29Z</time>
      </trkpt>
      <trkpt lat="59.7398443" lon="17.8047368">
        <ele>33.7834</ele>
        <time>2013-05-26T10:57:30Z</time>
      </trkpt>
      <trkpt lat="59.7397898" lon="17.8046883">
        <ele>34.2642</ele>
        <time>2013-05-26T10:57:31Z</time>
      </trkpt>
      <trkpt lat="59.7397341" lon="17.8046401">
        <ele>34.7449</ele>
        <time>2013-05-26T10:57:32Z</time>
      </trkpt>
      <trkpt lat="59.7396779" lon="17.8045842">
        <ele>35.2255</ele>
        <time>2013-05-26T10:57:33Z</time>
      </trkpt>
      <trkpt lat="59.7396227" lon="17.8045241">
        <ele>35.2255</ele>
        <time>2013-05-26T10:57:34Z</time>
      </trkpt>
      <trkpt lat="59.7395673" lon="17.8044604">
        <ele>35.2255</ele>
        <time>2013-05-26T10:57:35Z</time>
      </trkpt>
      <trkpt lat="59.7395129" lon="17.804394">
        <ele>34.7449</ele>
        <time>2013-05-26T10:57:36Z</time>
      </trkpt>
      <trkpt lat="59.73946" lon="17.8043211">
        <ele>34.7449</ele>
        <time>2013-05-26T10:57:37Z</time>
      </trkpt>
      <trkpt lat="59.7394133" lon="17.8042319">
        <ele>35.2255</ele>
        <time>2013-05-26T10:57:38Z</time>
      </trkpt>
      <trkpt lat="59.7393583" lon="17.8041449">
        <ele>35.7061</ele>
        <time>2013-05-26T10:57:39Z</time>
      </trkpt>
      <trkpt lat="59.7393079" lon="17.8040563">
        <ele>36.1868</ele>
        <time>2013-05-26T10:57:40Z</time>
      </trkpt>
      <trkpt lat="59.7392623" lon="17.8039657">
        <ele>36.6675</ele>
        <time>2013-05-26T10:57:41Z</time>
      </trkpt>
      <trkpt lat="59.7392102" lon="17.8038759">
        <ele>36.6675</ele>
        <time>2013-05-26T10:57:42Z</time>
      </trkpt>
      <trkpt lat="59.7391623" lon="17.8037813">
        <ele>36.6675</ele>
        <time>2013-05-26T10:57:43Z</time>
      </trkpt>
      <trkpt lat="59.7391052" lon="17.8036799">
        <ele>36.6675</ele>
        <time>2013-05-26T10:57:44Z</time>
      </trkpt>
      <trkpt lat="59.7390493" lon="17.8035858">
        <ele>36.6675</ele>
        <time>2013-05-26T10:57:45Z</time>
      </trkpt>
      <trkpt lat="59.738998" lon="17.8034882">
        <ele>37.1481</ele>
        <time>2013-05-26T10:57:46Z</time>
      </trkpt>
      <trkpt lat="59.738941" lon="17.8033855">
        <ele>36.6675</ele>
        <time>2013-05-26T10:57:47Z</time>
      </trkpt>
      <trkpt lat="59.7388829" lon="17.8032833">
        <ele>35.7061</ele>
        <time>2013-05-26T10:57:48Z</time>
      </trkpt>
      <trkpt lat="59.7388277" lon="17.803185">
        <ele>35.2255</ele>
        <time>2013-05-26T10:57:49Z</time>
      </trkpt>
      <trkpt lat="59.7387725" lon="17.8030893">
        <ele>34.7449</ele>
        <time>2013-05-26T10:57:50Z</time>
      </trkpt>
      <trkpt lat="59.7387177" lon="17.8029917">
        <ele>33.7834</ele>
        <time>2013-05-26T10:57:51Z</time>
      </trkpt>
      <trkpt lat="59.7386643" lon="17.8028945">
        <ele>33.7834</ele>
        <time>2013-05-26T10:57:52Z</time>
      </trkpt>
      <trkpt lat="59.738611" lon="17.8027961">
        <ele>33.3029</ele>
        <time>2013-05-26T10:57:53Z</time>
      </trkpt>
      <trkpt lat="59.738558" lon="17.8026981">
        <ele>32.8223</ele>
        <time>2013-05-26T10:57:54Z</time>
      </trkpt>
      <trkpt lat="59.7385043" lon="17.8026001">
        <ele>32.8223</ele>
        <time>2013-05-26T10:57:55Z</time>
      </trkpt>
      <trkpt lat="59.7384497" lon="17.8025016">
        <ele>32.8223</ele>
        <time>2013-05-26T10:57:56Z</time>
      </trkpt>
      <trkpt lat="59.7383945" lon="17.8024033">
        <ele>32.8223</ele>
        <time>2013-05-26T10:57:57Z</time>
      </trkpt>
      <trkpt lat="59.7383399" lon="17.8023045">
        <ele>32.3416</ele>
        <time>2013-05-26T10:57:58Z</time>
      </trkpt>
      <trkpt lat="59.7382853" lon="17.8022058">
        <ele>32.3416</ele>
        <time>2013-05-26T10:57:59Z</time>
      </trkpt>
      <trkpt lat="59.7382309" lon="17.8021069">
        <ele>31.8607</ele>
        <time>2013-05-26T10:58:00Z</time>
      </trkpt>
      <trkpt lat="59.738176" lon="17.802007">
        <ele>31.8607</ele>
        <time>2013-05-26T10:58:01Z</time>
      </trkpt>
      <trkpt lat="59.7381215" lon="17.8019056">
        <ele>31.3801</ele>
        <time>2013-05-26T10:58:02Z</time>
      </trkpt>
      <trkpt lat="59.7380657" lon="17.8018045">
        <ele>31.3801</ele>
        <time>2013-05-26T10:58:03Z</time>
      </trkpt>
      <trkpt lat="59.7380091" lon="17.8017025">
        <ele>30.8995</ele>
        <time>2013-05-26T10:58:04Z</time>
      </trkpt>
      <trkpt lat="59.7379524" lon="17.8016009">
        <ele>30.4188</ele>
        <time>2013-05-26T10:58:05Z</time>
      </trkpt>
      <trkpt lat="59.7378971" lon="17.8014989">
        <ele>29.9381</ele>
        <time>2013-05-26T10:58:06Z</time>
      </trkpt>
      <trkpt lat="59.7378413" lon="17.8013964">
        <ele>29.4575</ele>
        <time>2013-05-26T10:58:07Z</time>
      </trkpt>
      <trkpt lat="59.7377848" lon="17.8012923">
        <ele>28.9769</ele>
        <time>2013-05-26T10:58:08Z</time>
      </trkpt>
      <trkpt lat="59.7377277" lon="17.8011861">
        <ele>28.9769</ele>
        <time>2013-05-26T10:58:09Z</time>
      </trkpt>
      <trkpt lat="59.7376688" lon="17.8010795">
        <ele>28.4962</ele>
        <time>2013-05-26T10:58:10Z</time>
      </trkpt>
      <trkpt lat="59.7376077" lon="17.8009706">
        <ele>28.0155</ele>
        <time>2013-05-26T10:58:11Z</time>
      </trkpt>
      <trkpt lat="59.7375464" lon="17.8008577">
        <ele>27.5349</ele>
        <time>2013-05-26T10:58:12Z</time>
      </trkpt>
      <trkpt lat="59.7374855" lon="17.8007432">
        <ele>27.0543</ele>
        <time>2013-05-26T10:58:13Z</time>
      </trkpt>
      <trkpt lat="59.7374249" lon="17.8006287">
        <ele>27.0543</ele>
        <time>2013-05-26T10:58:14Z</time>
      </trkpt>
      <trkpt lat="59.7373637" lon="17.8005126">
        <ele>27.0543</ele>
        <time>2013-05-26T10:58:15Z</time>
      </trkpt>
      <trkpt lat="59.7373025" lon="17.8003962">
        <ele>27.0543</ele>
        <time>2013-05-26T10:58:16Z</time>
      </trkpt>
      <trkpt lat="59.7372382" lon="17.8002816">
        <ele>26.0929</ele>
        <time>2013-05-26T10:58:17Z</time>
      </trkpt>
      <trkpt lat="59.7371745" lon="17.8001674">
        <ele>26.0929</ele>
        <time>2013-05-26T10:58:18Z</time>
      </trkpt>
      <trkpt lat="59.7371096" lon="17.8000517">
        <ele>25.1317</ele>
        <time>2013-05-26T10:58:19Z</time>
      </trkpt>
      <trkpt lat="59.7370436" lon="17.7999345">
        <ele>24.651</ele>
        <time>2013-05-26T10:58:20Z</time>
      </trkpt>
      <trkpt lat="59.7369783" lon="17.7998131">
        <ele>24.1703</ele>
        <time>2013-05-26T10:58:21Z</time>
      </trkpt>
      <trkpt lat="59.736913" lon="17.7996904">
        <ele>24.1703</ele>
        <time>2013-05-26T10:58:22Z</time>
      </trkpt>
      <trkpt lat="59.7368477" lon="17.7995678">
        <ele>23.6896</ele>
        <time>2013-05-26T10:58:23Z</time>
      </trkpt>
      <trkpt lat="59.7367812" lon="17.7994484">
        <ele>23.6896</ele>
        <time>2013-05-26T10:58:24Z</time>
      </trkpt>
      <trkpt lat="59.7367145" lon="17.7993285">
        <ele>23.6896</ele>
        <time>2013-05-26T10:58:25Z</time>
      </trkpt>
      <trkpt lat="59.7366478" lon="17.7992087">
        <ele>23.6896</ele>
        <time>2013-05-26T10:58:26Z</time>
      </trkpt>
      <trkpt lat="59.7365807" lon="17.799091">
        <ele>24.1703</ele>
        <time>2013-05-26T10:58:27Z</time>
      </trkpt>
      <trkpt lat="59.7365141" lon="17.7989745">
        <ele>24.1703</ele>
        <time>2013-05-26T10:58:28Z</time>
      </trkpt>
      <trkpt lat="59.7364489" lon="17.798857">
        <ele>24.1703</ele>
        <time>2013-05-26T10:58:29Z</time>
      </trkpt>
      <trkpt lat="59.7363857" lon="17.7987383">
        <ele>24.1703</ele>
        <time>2013-05-26T10:58:30Z</time>
      </trkpt>
      <trkpt lat="59.7363213" lon="17.7986209">
        <ele>23.6896</ele>
        <time>2013-05-26T10:58:31Z</time>
      </trkpt>
      <trkpt lat="59.7362555" lon="17.7985069">
        <ele>23.6896</ele>
        <time>2013-05-26T10:58:32Z</time>
      </trkpt>
      <trkpt lat="59.7361879" lon="17.798394">
        <ele>24.1703</ele>
        <time>2013-05-26T10:58:33Z</time>
      </trkpt>
      <trkpt lat="59.7361199" lon="17.7982764">
        <ele>25.1317</ele>
        <time>2013-05-26T10:58:34Z</time>
      </trkpt>
      <trkpt lat="59.7360521" lon="17.7981525">
        <ele>25.6123</ele>
        <time>2013-05-26T10:58:35Z</time>
      </trkpt>
      <trkpt lat="59.7359833" lon="17.7980265">
        <ele>25.6123</ele>
        <time>2013-05-26T10:58:36Z</time>
      </trkpt>
      <trkpt lat="59.7359121" lon="17.7979025">
        <ele>25.6123</ele>
        <time>2013-05-26T10:58:37Z</time>
      </trkpt>
      <trkpt lat="59.7358397" lon="17.7977789">
        <ele>26.0929</ele>
        <time>2013-05-26T10:58:38Z</time>
      </trkpt>
      <trkpt lat="59.7357667" lon="17.7976592">
        <ele>26.5736</ele>
        <time>2013-05-26T10:58:39Z</time>
      </trkpt>
      <trkpt lat="59.7356926" lon="17.7975393">
        <ele>26.5736</ele>
        <time>2013-05-26T10:58:40Z</time>
      </trkpt>
      <trkpt lat="59.7356152" lon="17.797421">
        <ele>26.5736</ele>
        <time>2013-05-26T10:58:41Z</time>
      </trkpt>
      <trkpt lat="59.7355352" lon="17.7973044">
        <ele>26.5736</ele>
        <time>2013-05-26T10:58:42Z</time>
      </trkpt>
      <trkpt lat="59.7354538" lon="17.7971906">
        <ele>26.5736</ele>
        <time>2013-05-26T10:58:43Z</time>
      </trkpt>
      <trkpt lat="59.735372" lon="17.7970814">
        <ele>26.5736</ele>
        <time>2013-05-26T10:58:44Z</time>
      </trkpt>
      <trkpt lat="59.7352904" lon="17.7969782">
        <ele>27.0543</ele>
        <time>2013-05-26T10:58:45Z</time>
      </trkpt>
      <trkpt lat="59.7352094" lon="17.7968793">
        <ele>27.0543</ele>
        <time>2013-05-26T10:58:46Z</time>
      </trkpt>
      <trkpt lat="59.7351288" lon="17.7967841">
        <ele>27.0543</ele>
        <time>2013-05-26T10:58:47Z</time>
      </trkpt>
      <trkpt lat="59.7350474" lon="17.796694">
        <ele>27.5349</ele>
        <time>2013-05-26T10:58:48Z</time>
      </trkpt>
      <trkpt lat="59.7349653" lon="17.7966079">
        <ele>27.5349</ele>
        <time>2013-05-26T10:58:49Z</time>
      </trkpt>
      <trkpt lat="59.7348829" lon="17.796526">
        <ele>28.0155</ele>
        <time>2013-05-26T10:58:50Z</time>
      </trkpt>
      <trkpt lat="59.7348011" lon="17.7964472">
        <ele>28.0155</ele>
        <time>2013-05-26T10:58:51Z</time>
      </trkpt>
      <trkpt lat="59.734719" lon="17.7963748">
        <ele>28.4962</ele>
        <time>2013-05-26T10:58:52Z</time>
      </trkpt>
      <trkpt lat="59.7346363" lon="17.7963069">
        <ele>28.9769</ele>
        <time>2013-05-26T10:58:53Z</time>
      </trkpt>
      <trkpt lat="59.7345546" lon="17.7962418">
        <ele>28.9769</ele>
        <time>2013-05-26T10:58:54Z</time>
      </trkpt>
      <trkpt lat="59.7344731" lon="17.7961816">
        <ele>28.9769</ele>
        <time>2013-05-26T10:58:55Z</time>
      </trkpt>
      <trkpt lat="59.7343913" lon="17.7961267">
        <ele>29.4575</ele>
        <time>2013-05-26T10:58:56Z</time>
      </trkpt>
      <trkpt lat="59.7343103" lon="17.7960747">
        <ele>29.9381</ele>
        <time>2013-05-26T10:58:57Z</time>
      </trkpt>
      <trkpt lat="59.7342313" lon="17.7960241">
        <ele>30.4188</ele>
        <time>2013-05-26T10:58:58Z</time>
      </trkpt>
      <trkpt lat="59.734154" lon="17.7959784">
        <ele>30.8995</ele>
        <time>2013-05-26T10:58:59Z</time>
      </trkpt>
      <trkpt lat="59.7340764" lon="17.7959355">
        <ele>31.3801</ele>
        <time>2013-05-26T10:59:00Z</time>
      </trkpt>
      <trkpt lat="59.7340005" lon="17.7958964">
        <ele>32.3416</ele>
        <time>2013-05-26T10:59:01Z</time>
      </trkpt>
      <trkpt lat="59.733927" lon="17.7958635">
        <ele>32.8223</ele>
        <time>2013-05-26T10:59:02Z</time>
      </trkpt>
      <trkpt lat="59.7338546" lon="17.7958362">
        <ele>33.3029</ele>
        <time>2013-05-26T10:59:03Z</time>
      </trkpt>
      <trkpt lat="59.7337831" lon="17.7958101">
        <ele>33.7834</ele>
        <time>2013-05-26T10:59:04Z</time>
      </trkpt>
      <trkpt lat="59.7337133" lon="17.7957844">
        <ele>33.7834</ele>
        <time>2013-05-26T10:59:05Z</time>
      </trkpt>
      <trkpt lat="59.7336445" lon="17.7957602">
        <ele>33.7834</ele>
        <time>2013-05-26T10:59:06Z</time>
      </trkpt>
      <trkpt lat="59.7335765" lon="17.7957339">
        <ele>34.2642</ele>
        <time>2013-05-26T10:59:07Z</time>
      </trkpt>
      <trkpt lat="59.7335077" lon="17.7957122">
        <ele>34.7449</ele>
        <time>2013-05-26T10:59:08Z</time>
      </trkpt>
      <trkpt lat="59.7334388" lon="17.7956952">
        <ele>35.2255</ele>
        <time>2013-05-26T10:59:09Z</time>
      </trkpt>
      <trkpt lat="59.7333697" lon="17.7956787">
        <ele>35.7061</ele>
        <time>2013-05-26T10:59:10Z</time>
      </trkpt>
      <trkpt lat="59.7332999" lon="17.7956633">
        <ele>35.7061</ele>
        <time>2013-05-26T10:59:11Z</time>
      </trkpt>
      <trkpt lat="59.7332294" lon="17.7956478">
        <ele>36.1868</ele>
        <time>2013-05-26T10:59:12Z</time>
      </trkpt>
      <trkpt lat="59.7331573" lon="17.7956346">
        <ele>36.1868</ele>
        <time>2013-05-26T10:59:13Z</time>
      </trkpt>
      <trkpt lat="59.7330838" lon="17.7956226">
        <ele>36.6675</ele>
        <time>2013-05-26T10:59:14Z</time>
      </trkpt>
      <trkpt lat="59.7330088" lon="17.7956111">
        <ele>36.6675</ele>
        <time>2013-05-26T10:59:15Z</time>
      </trkpt>
      <trkpt lat="59.7329324" lon="17.7956013">
        <ele>36.6675</ele>
        <time>2013-05-26T10:59:16Z</time>
      </trkpt>
      <trkpt lat="59.7328549" lon="17.7955919">
        <ele>36.6675</ele>
        <time>2013-05-26T10:59:17Z</time>
      </trkpt>
      <trkpt lat="59.7327772" lon="17.7955807">
        <ele>36.6675</ele>
        <time>2013-05-26T10:59:18Z</time>
      </trkpt>
      <trkpt lat="59.7326978" lon="17.7955696">
        <ele>36.6675</ele>
        <time>2013-05-26T10:59:19Z</time>
      </trkpt>
      <trkpt lat="59.7326166" lon="17.7955554">
        <ele>36.6675</ele>
        <time>2013-05-26T10:59:20Z</time>
      </trkpt>
      <trkpt lat="59.7325343" lon="17.7955371">
        <ele>37.1481</ele>
        <time>2013-05-26T10:59:21Z</time>
      </trkpt>
      <trkpt lat="59.7324505" lon="17.7955159">
        <ele>36.6675</ele>
        <time>2013-05-26T10:59:22Z</time>
      </trkpt>
      <trkpt lat="59.732365" lon="17.795487">
        <ele>36.6675</ele>
        <time>2013-05-26T10:59:23Z</time>
      </trkpt>
      <trkpt lat="59.7322785" lon="17.7954463">
        <ele>36.6675</ele>
        <time>2013-05-26T10:59:24Z</time>
      </trkpt>
      <trkpt lat="59.7321922" lon="17.7953936">
        <ele>36.1868</ele>
        <time>2013-05-26T10:59:25Z</time>
      </trkpt>
      <trkpt lat="59.7321057" lon="17.7953321">
        <ele>35.7061</ele>
        <time>2013-05-26T10:59:26Z</time>
      </trkpt>
      <trkpt lat="59.7320178" lon="17.795266">
        <ele>35.7061</ele>
        <time>2013-05-26T10:59:27Z</time>
      </trkpt>
      <trkpt lat="59.7319308" lon="17.7951949">
        <ele>35.2255</ele>
        <time>2013-05-26T10:59:28Z</time>
      </trkpt>
      <trkpt lat="59.7318464" lon="17.795116">
        <ele>34.7449</ele>
        <time>2013-05-26T10:59:29Z</time>
      </trkpt>
      <trkpt lat="59.7317638" lon="17.7950272">
        <ele>34.2642</ele>
        <time>2013-05-26T10:59:30Z</time>
      </trkpt>
      <trkpt lat="59.7316838" lon="17.7949275">
        <ele>33.7834</ele>
        <time>2013-05-26T10:59:31Z</time>
      </trkpt>
      <trkpt lat="59.7316051" lon="17.7948228">
        <ele>33.7834</ele>
        <time>2013-05-26T10:59:32Z</time>
      </trkpt>
      <trkpt lat="59.7315267" lon="17.7947173">
        <ele>33.7834</ele>
        <time>2013-05-26T10:59:33Z</time>
      </trkpt>
      <trkpt lat="59.731449" lon="17.7946107">
        <ele>33.3029</ele>
        <time>2013-05-26T10:59:34Z</time>
      </trkpt>
      <trkpt lat="59.7313713" lon="17.7945048">
        <ele>33.3029</ele>
        <time>2013-05-26T10:59:35Z</time>
      </trkpt>
      <trkpt lat="59.731294" lon="17.7943984">
        <ele>33.3029</ele>
        <time>2013-05-26T10:59:36Z</time>
      </trkpt>
      <trkpt lat="59.7312175" lon="17.7942897">
        <ele>33.3029</ele>
        <time>2013-05-26T10:59:37Z</time>
      </trkpt>
      <trkpt lat="59.7311434" lon="17.7941752">
        <ele>32.8223</ele>
        <time>2013-05-26T10:59:38Z</time>
      </trkpt>
      <trkpt lat="59.7310692" lon="17.7940601">
        <ele>32.8223</ele>
        <time>2013-05-26T10:59:39Z</time>
      </trkpt>
      <trkpt lat="59.7309937" lon="17.7939477">
        <ele>32.3416</ele>
        <time>2013-05-26T10:59:40Z</time>
      </trkpt>
      <trkpt lat="59.7309189" lon="17.7938349">
        <ele>32.3416</ele>
        <time>2013-05-26T10:59:41Z</time>
      </trkpt>
      <trkpt lat="59.730845" lon="17.7937185">
        <ele>31.8607</ele>
        <time>2013-05-26T10:59:42Z</time>
      </trkpt>
      <trkpt lat="59.7307716" lon="17.7935967">
        <ele>31.8607</ele>
        <time>2013-05-26T10:59:43Z</time>
      </trkpt>
      <trkpt lat="59.7306991" lon="17.7934657">
        <ele>31.3801</ele>
        <time>2013-05-26T10:59:44Z</time>
      </trkpt>
      <trkpt lat="59.7306306" lon="17.793323">
        <ele>29.9381</ele>
        <time>2013-05-26T10:59:45Z</time>
      </trkpt>
      <trkpt lat="59.7305628" lon="17.7931744">
        <ele>28.4962</ele>
        <time>2013-05-26T10:59:46Z</time>
      </trkpt>
      <trkpt lat="59.7304959" lon="17.7930166">
        <ele>27.5349</ele>
        <time>2013-05-26T10:59:47Z</time>
      </trkpt>
      <trkpt lat="59.7304294" lon="17.7928506">
        <ele>26.0929</ele>
        <time>2013-05-26T10:59:48Z</time>
      </trkpt>
      <trkpt lat="59.7303646" lon="17.7926751">
        <ele>25.1317</ele>
        <time>2013-05-26T10:59:49Z</time>
      </trkpt>
      <trkpt lat="59.7303017" lon="17.7924914">
        <ele>24.651</ele>
        <time>2013-05-26T10:59:50Z</time>
      </trkpt>
      <trkpt lat="59.7302436" lon="17.7922984">
        <ele>24.1703</ele>
        <time>2013-05-26T10:59:51Z</time>
      </trkpt>
      <trkpt lat="59.7301908" lon="17.792096">
        <ele>23.6896</ele>
        <time>2013-05-26T10:59:52Z</time>
      </trkpt>
      <trkpt lat="59.7301436" lon="17.7918858">
        <ele>22.7283</ele>
        <time>2013-05-26T10:59:53Z</time>
      </trkpt>
      <trkpt lat="59.7301036" lon="17.7916686">
        <ele>21.767</ele>
        <time>2013-05-26T10:59:54Z</time>
      </trkpt>
      <trkpt lat="59.7300692" lon="17.791448">
        <ele>21.2864</ele>
        <time>2013-05-26T10:59:55Z</time>
      </trkpt>
      <trkpt lat="59.7300395" lon="17.7912251">
        <ele>20.8057</ele>
        <time>2013-05-26T10:59:56Z</time>
      </trkpt>
      <trkpt lat="59.7300141" lon="17.7910016">
        <ele>20.325</ele>
        <time>2013-05-26T10:59:57Z</time>
      </trkpt>
      <trkpt lat="59.7299932" lon="17.7907757">
        <ele>20.325</ele>
        <time>2013-05-26T10:59:58Z</time>
      </trkpt>
      <trkpt lat="59.7299877" lon="17.790511">
        <ele>20.325</ele>
        <time>2013-05-26T10:59:59Z</time>
      </trkpt>
      <trkpt lat="59.7299803" lon="17.7902643">
        <ele>19.8444</ele>
        <time>2013-05-26T11:00:00Z</time>
      </trkpt>
      <trkpt lat="59.7299766" lon="17.790029">
        <ele>19.3638</ele>
        <time>2013-05-26T11:00:01Z</time>
      </trkpt>
      <trkpt lat="59.7299769" lon="17.7898019">
        <ele>19.3638</ele>
        <time>2013-05-26T11:00:02Z</time>
      </trkpt>
      <trkpt lat="59.7299862" lon="17.7895809">
        <ele>18.8831</ele>
        <time>2013-05-26T11:00:03Z</time>
      </trkpt>
      <trkpt lat="59.7300064" lon="17.7893683">
        <ele>18.4023</ele>
        <time>2013-05-26T11:00:04Z</time>
      </trkpt>
      <trkpt lat="59.7300223" lon="17.7891523">
        <ele>17.9218</ele>
        <time>2013-05-26T11:00:05Z</time>
      </trkpt>
      <trkpt lat="59.7300193" lon="17.7889386">
        <ele>17.9218</ele>
        <time>2013-05-26T11:00:06Z</time>
      </trkpt>
      <trkpt lat="59.7299986" lon="17.7887341">
        <ele>17.4412</ele>
        <time>2013-05-26T11:00:07Z</time>
      </trkpt>
      <trkpt lat="59.7299716" lon="17.7885276">
        <ele>17.9218</ele>
        <time>2013-05-26T11:00:08Z</time>
      </trkpt>
      <trkpt lat="59.729955" lon="17.7883177">
        <ele>17.9218</ele>
        <time>2013-05-26T11:00:09Z</time>
      </trkpt>
      <trkpt lat="59.7299463" lon="17.7881068">
        <ele>17.9218</ele>
        <time>2013-05-26T11:00:10Z</time>
      </trkpt>
      <trkpt lat="59.7299397" lon="17.7878977">
        <ele>17.9218</ele>
        <time>2013-05-26T11:00:11Z</time>
      </trkpt>
      <trkpt lat="59.7299344" lon="17.7876905">
        <ele>17.9218</ele>
        <time>2013-05-26T11:00:12Z</time>
      </trkpt>
      <trkpt lat="59.7299307" lon="17.7874856">
        <ele>17.9218</ele>
        <time>2013-05-26T11:00:13Z</time>
      </trkpt>
      <trkpt lat="59.7299282" lon="17.7872837">
        <ele>17.9218</ele>
        <time>2013-05-26T11:00:14Z</time>
      </trkpt>
      <trkpt lat="59.7299262" lon="17.7870791">
        <ele>17.9218</ele>
        <time>2013-05-26T11:00:15Z</time>
      </trkpt>
      <trkpt lat="59.7299245" lon="17.7868749">
        <ele>18.4023</ele>
        <time>2013-05-26T11:00:16Z</time>
      </trkpt>
      <trkpt lat="59.729924" lon="17.7866745">
        <ele>18.8831</ele>
        <time>2013-05-26T11:00:17Z</time>
      </trkpt>
      <trkpt lat="59.7299233" lon="17.7864778">
        <ele>19.3638</ele>
        <time>2013-05-26T11:00:18Z</time>
      </trkpt>
      <trkpt lat="59.7299204" lon="17.7862882">
        <ele>19.8444</ele>
        <time>2013-05-26T11:00:19Z</time>
      </trkpt>
      <trkpt lat="59.7299187" lon="17.7861227">
        <ele>21.2864</ele>
        <time>2013-05-26T11:00:20Z</time>
      </trkpt>
      <trkpt lat="59.72991" lon="17.7859351">
        <ele>22.2476</ele>
        <time>2013-05-26T11:00:21Z</time>
      </trkpt>
      <trkpt lat="59.7298976" lon="17.7857489">
        <ele>22.7283</ele>
        <time>2013-05-26T11:00:22Z</time>
      </trkpt>
      <trkpt lat="59.7298836" lon="17.7855658">
        <ele>23.209</ele>
        <time>2013-05-26T11:00:23Z</time>
      </trkpt>
      <trkpt lat="59.7298696" lon="17.7853822">
        <ele>23.6896</ele>
        <time>2013-05-26T11:00:24Z</time>
      </trkpt>
      <trkpt lat="59.729856" lon="17.7852068">
        <ele>24.651</ele>
        <time>2013-05-26T11:00:25Z</time>
      </trkpt>
      <trkpt lat="59.7298385" lon="17.7850314">
        <ele>25.6123</ele>
        <time>2013-05-26T11:00:26Z</time>
      </trkpt>
      <trkpt lat="59.7298163" lon="17.784846">
        <ele>25.1317</ele>
        <time>2013-05-26T11:00:27Z</time>
      </trkpt>
      <trkpt lat="59.7297924" lon="17.7846667">
        <ele>25.1317</ele>
        <time>2013-05-26T11:00:28Z</time>
      </trkpt>
      <trkpt lat="59.729766" lon="17.7844878">
        <ele>25.1317</ele>
        <time>2013-05-26T11:00:29Z</time>
      </trkpt>
      <trkpt lat="59.7297376" lon="17.7843098">
        <ele>25.1317</ele>
        <time>2013-05-26T11:00:30Z</time>
      </trkpt>
      <trkpt lat="59.7297071" lon="17.7841341">
        <ele>25.6123</ele>
        <time>2013-05-26T11:00:31Z</time>
      </trkpt>
      <trkpt lat="59.7296743" lon="17.7839586">
        <ele>25.6123</ele>
        <time>2013-05-26T11:00:32Z</time>
      </trkpt>
      <trkpt lat="59.729638" lon="17.7837844">
        <ele>25.6123</ele>
        <time>2013-05-26T11:00:33Z</time>
      </trkpt>
      <trkpt lat="59.7295986" lon="17.783611">
        <ele>25.6123</ele>
        <time>2013-05-26T11:00:34Z</time>
      </trkpt>
      <trkpt lat="59.7295562" lon="17.7834389">
        <ele>26.0929</ele>
        <time>2013-05-26T11:00:35Z</time>
      </trkpt>
      <trkpt lat="59.7295132" lon="17.7832664">
        <ele>26.5736</ele>
        <time>2013-05-26T11:00:36Z</time>
      </trkpt>
      <trkpt lat="59.7294702" lon="17.7830939">
        <ele>26.5736</ele>
        <time>2013-05-26T11:00:37Z</time>
      </trkpt>
      <trkpt lat="59.729425" lon="17.7829219">
        <ele>27.0543</ele>
        <time>2013-05-26T11:00:38Z</time>
      </trkpt>
      <trkpt lat="59.7293768" lon="17.7827516">
        <ele>27.0543</ele>
        <time>2013-05-26T11:00:39Z</time>
      </trkpt>
      <trkpt lat="59.7293266" lon="17.7825838">
        <ele>27.5349</ele>
        <time>2013-05-26T11:00:40Z</time>
      </trkpt>
      <trkpt lat="59.7292749" lon="17.7824197">
        <ele>27.5349</ele>
        <time>2013-05-26T11:00:41Z</time>
      </trkpt>
      <trkpt lat="59.7292211" lon="17.7822594">
        <ele>27.5349</ele>
        <time>2013-05-26T11:00:42Z</time>
      </trkpt>
      <trkpt lat="59.7291661" lon="17.7821032">
        <ele>28.0155</ele>
        <time>2013-05-26T11:00:43Z</time>
      </trkpt>
      <trkpt lat="59.7291102" lon="17.7819514">
        <ele>28.0155</ele>
        <time>2013-05-26T11:00:44Z</time>
      </trkpt>
      <trkpt lat="59.7290535" lon="17.7818033">
        <ele>28.4962</ele>
        <time>2013-05-26T11:00:45Z</time>
      </trkpt>
      <trkpt lat="59.7289937" lon="17.7816545">
        <ele>28.0155</ele>
        <time>2013-05-26T11:00:46Z</time>
      </trkpt>
      <trkpt lat="59.7289319" lon="17.7815115">
        <ele>28.0155</ele>
        <time>2013-05-26T11:00:47Z</time>
      </trkpt>
      <trkpt lat="59.7288702" lon="17.7813751">
        <ele>27.5349</ele>
        <time>2013-05-26T11:00:48Z</time>
      </trkpt>
      <trkpt lat="59.7288077" lon="17.7812402">
        <ele>27.5349</ele>
        <time>2013-05-26T11:00:49Z</time>
      </trkpt>
      <trkpt lat="59.728745" lon="17.7811085">
        <ele>27.5349</ele>
        <time>2013-05-26T11:00:50Z</time>
      </trkpt>
      <trkpt lat="59.7286793" lon="17.7809815">
        <ele>27.0543</ele>
        <time>2013-05-26T11:00:51Z</time>
      </trkpt>
      <trkpt lat="59.7286123" lon="17.7808587">
        <ele>27.0543</ele>
        <time>2013-05-26T11:00:52Z</time>
      </trkpt>
      <trkpt lat="59.728544" lon="17.7807444">
        <ele>27.5349</ele>
        <time>2013-05-26T11:00:53Z</time>
      </trkpt>
      <trkpt lat="59.7284762" lon="17.7806354">
        <ele>27.5349</ele>
        <time>2013-05-26T11:00:54Z</time>
      </trkpt>
      <trkpt lat="59.7284083" lon="17.7805325">
        <ele>27.0543</ele>
        <time>2013-05-26T11:00:55Z</time>
      </trkpt>
      <trkpt lat="59.7283471" lon="17.7804418">
        <ele>27.0543</ele>
        <time>2013-05-26T11:00:56Z</time>
      </trkpt>
      <trkpt lat="59.7283032" lon="17.780365">
        <ele>27.0543</ele>
        <time>2013-05-26T11:00:57Z</time>
      </trkpt>
      <trkpt lat="59.7282729" lon="17.7803273">
        <ele>27.0543</ele>
        <time>2013-05-26T11:00:58Z</time>
      </trkpt>
      <trkpt lat="59.7282537" lon="17.7803359">
        <ele>27.0543</ele>
        <time>2013-05-26T11:00:59Z</time>
      </trkpt>
      <trkpt lat="59.7282488" lon="17.7803995">
        <ele>26.5736</ele>
        <time>2013-05-26T11:01:00Z</time>
      </trkpt>
      <trkpt lat="59.7282683" lon="17.7804682">
        <ele>26.5736</ele>
        <time>2013-05-26T11:01:01Z</time>
      </trkpt>
      <trkpt lat="59.7282939" lon="17.7805242">
        <ele>26.0929</ele>
        <time>2013-05-26T11:01:02Z</time>
      </trkpt>
      <trkpt lat="59.7283223" lon="17.7805818">
        <ele>25.6123</ele>
        <time>2013-05-26T11:01:03Z</time>
      </trkpt>
      <trkpt lat="59.7283518" lon="17.7806438">
        <ele>25.6123</ele>
        <time>2013-05-26T11:01:04Z</time>
      </trkpt>
      <trkpt lat="59.7283829" lon="17.7807079">
        <ele>25.1317</ele>
        <time>2013-05-26T11:01:05Z</time>
      </trkpt>
      <trkpt lat="59.7284169" lon="17.7807742">
        <ele>24.651</ele>
        <time>2013-05-26T11:01:06Z</time>
      </trkpt>
      <trkpt lat="59.7284535" lon="17.7808374">
        <ele>24.1703</ele>
        <time>2013-05-26T11:01:07Z</time>
      </trkpt>
      <trkpt lat="59.7284881" lon="17.7808995">
        <ele>23.209</ele>
        <time>2013-05-26T11:01:08Z</time>
      </trkpt>
      <trkpt lat="59.7285255" lon="17.7809648">
        <ele>22.7283</ele>
        <time>2013-05-26T11:01:09Z</time>
      </trkpt>
      <trkpt lat="59.7285606" lon="17.7810394">
        <ele>22.2476</ele>
        <time>2013-05-26T11:01:10Z</time>
      </trkpt>
      <trkpt lat="59.7285921" lon="17.7811111">
        <ele>21.767</ele>
        <time>2013-05-26T11:01:11Z</time>
      </trkpt>
      <trkpt lat="59.7286255" lon="17.781167">
        <ele>20.325</ele>
        <time>2013-05-26T11:01:12Z</time>
      </trkpt>
      <trkpt lat="59.7286678" lon="17.78121">
        <ele>20.325</ele>
        <time>2013-05-26T11:01:13Z</time>
      </trkpt>
      <trkpt lat="59.7287168" lon="17.7812385">
        <ele>20.325</ele>
        <time>2013-05-26T11:01:14Z</time>
      </trkpt>
      <trkpt lat="59.7287692" lon="17.7812554">
        <ele>19.8444</ele>
        <time>2013-05-26T11:01:15Z</time>
      </trkpt>
      <trkpt lat="59.7288217" lon="17.7812582">
        <ele>19.3638</ele>
        <time>2013-05-26T11:01:16Z</time>
      </trkpt>
      <trkpt lat="59.7288769" lon="17.7812487">
        <ele>19.3638</ele>
        <time>2013-05-26T11:01:17Z</time>
      </trkpt>
      <trkpt lat="59.7289294" lon="17.7812241">
        <ele>19.3638</ele>
        <time>2013-05-26T11:01:18Z</time>
      </trkpt>
      <trkpt lat="59.72898" lon="17.7811897">
        <ele>19.3638</ele>
        <time>2013-05-26T11:01:19Z</time>
      </trkpt>
      <trkpt lat="59.729032" lon="17.7811576">
        <ele>19.3638</ele>
        <time>2013-05-26T11:01:20Z</time>
      </trkpt>
      <trkpt lat="59.7290843" lon="17.7811349">
        <ele>19.3638</ele>
        <time>2013-05-26T11:01:21Z</time>
      </trkpt>
      <trkpt lat="59.7291402" lon="17.7811135">
        <ele>19.8444</ele>
        <time>2013-05-26T11:01:22Z</time>
      </trkpt>
      <trkpt lat="59.7291956" lon="17.7811084">
        <ele>20.325</ele>
        <time>2013-05-26T11:01:23Z</time>
      </trkpt>
      <trkpt lat="59.7292509" lon="17.7811054">
        <ele>20.325</ele>
        <time>2013-05-26T11:01:24Z</time>
      </trkpt>
      <trkpt lat="59.729305" lon="17.7811083">
        <ele>20.325</ele>
        <time>2013-05-26T11:01:25Z</time>
      </trkpt>
      <trkpt lat="59.7293609" lon="17.7811114">
        <ele>20.325</ele>
        <time>2013-05-26T11:01:26Z</time>
      </trkpt>
      <trkpt lat="59.7294177" lon="17.7811086">
        <ele>20.325</ele>
        <time>2013-05-26T11:01:27Z</time>
      </trkpt>
      <trkpt lat="59.7294759" lon="17.7810975">
        <ele>20.325</ele>
        <time>2013-05-26T11:01:28Z</time>
      </trkpt>
      <trkpt lat="59.7295361" lon="17.7810821">
        <ele>20.8057</ele>
        <time>2013-05-26T11:01:29Z</time>
      </trkpt>
      <trkpt lat="59.7295951" lon="17.781068">
        <ele>20.8057</ele>
        <time>2013-05-26T11:01:30Z</time>
      </trkpt>
      <trkpt lat="59.7296522" lon="17.7810573">
        <ele>20.8057</ele>
        <time>2013-05-26T11:01:31Z</time>
      </trkpt>
      <trkpt lat="59.7297085" lon="17.7810505">
        <ele>21.2864</ele>
        <time>2013-05-26T11:01:32Z</time>
      </trkpt>
      <trkpt lat="59.729764" lon="17.7810431">
        <ele>21.2864</ele>
        <time>2013-05-26T11:01:33Z</time>
      </trkpt>
      <trkpt lat="59.7298204" lon="17.7810277">
        <ele>21.767</ele>
        <time>2013-05-26T11:01:34Z</time>
      </trkpt>
      <trkpt lat="59.7298748" lon="17.7810079">
        <ele>21.2864</ele>
        <time>2013-05-26T11:01:35Z</time>
      </trkpt>
      <trkpt lat="59.7299301" lon="17.7810013">
        <ele>21.767</ele>
        <time>2013-05-26T11:01:36Z</time>
      </trkpt>
      <trkpt lat="59.7299882" lon="17.7809913">
        <ele>22.2476</ele>
        <time>2013-05-26T11:01:37Z</time>
      </trkpt>
      <trkpt lat="59.7300493" lon="17.7809762">
        <ele>22.7283</ele>
        <time>2013-05-26T11:01:38Z</time>
      </trkpt>
      <trkpt lat="59.7301121" lon="17.780955">
        <ele>23.6896</ele>
        <time>2013-05-26T11:01:39Z</time>
      </trkpt>
      <trkpt lat="59.7301747" lon="17.780935">
        <ele>24.651</ele>
        <time>2013-05-26T11:01:40Z</time>
      </trkpt>
      <trkpt lat="59.7302367" lon="17.7809153">
        <ele>25.6123</ele>
        <time>2013-05-26T11:01:41Z</time>
      </trkpt>
      <trkpt lat="59.730298" lon="17.7808959">
        <ele>26.0929</ele>
        <time>2013-05-26T11:01:42Z</time>
      </trkpt>
      <trkpt lat="59.7303602" lon="17.7808866">
        <ele>27.0543</ele>
        <time>2013-05-26T11:01:43Z</time>
      </trkpt>
      <trkpt lat="59.7304198" lon="17.7808889">
        <ele>27.0543</ele>
        <time>2013-05-26T11:01:44Z</time>
      </trkpt>
      <trkpt lat="59.7304803" lon="17.780895">
        <ele>27.0543</ele>
        <time>2013-05-26T11:01:45Z</time>
      </trkpt>
      <trkpt lat="59.730542" lon="17.7809078">
        <ele>26.5736</ele>
        <time>2013-05-26T11:01:46Z</time>
      </trkpt>
      <trkpt lat="59.7306052" lon="17.7809251">
        <ele>26.5736</ele>
        <time>2013-05-26T11:01:47Z</time>
      </trkpt>
      <trkpt lat="59.730669" lon="17.7809443">
        <ele>26.5736</ele>
        <time>2013-05-26T11:01:48Z</time>
      </trkpt>
      <trkpt lat="59.7307342" lon="17.7809617">
        <ele>26.0929</ele>
        <time>2013-05-26T11:01:49Z</time>
      </trkpt>
      <trkpt lat="59.7308018" lon="17.7809731">
        <ele>25.6123</ele>
        <time>2013-05-26T11:01:50Z</time>
      </trkpt>
      <trkpt lat="59.7308707" lon="17.7809726">
        <ele>24.651</ele>
        <time>2013-05-26T11:01:51Z</time>
      </trkpt>
      <trkpt lat="59.7309403" lon="17.7809524">
        <ele>23.6896</ele>
        <time>2013-05-26T11:01:52Z</time>
      </trkpt>
      <trkpt lat="59.7310088" lon="17.7809063">
        <ele>23.209</ele>
        <time>2013-05-26T11:01:53Z</time>
      </trkpt>
      <trkpt lat="59.7310771" lon="17.7808164">
        <ele>22.7283</ele>
        <time>2013-05-26T11:01:54Z</time>
      </trkpt>
      <trkpt lat="59.7311341" lon="17.7807056">
        <ele>22.2476</ele>
        <time>2013-05-26T11:01:55Z</time>
      </trkpt>
      <trkpt lat="59.7311964" lon="17.7805672">
        <ele>23.6896</ele>
        <time>2013-05-26T11:01:56Z</time>
      </trkpt>
      <trkpt lat="59.7312512" lon="17.7804237">
        <ele>24.651</ele>
        <time>2013-05-26T11:01:57Z</time>
      </trkpt>
      <trkpt lat="59.7313059" lon="17.7802844">
        <ele>25.6123</ele>
        <time>2013-05-26T11:01:58Z</time>
      </trkpt>
      <trkpt lat="59.7313651" lon="17.7801362">
        <ele>27.0543</ele>
        <time>2013-05-26T11:01:59Z</time>
      </trkpt>
      <trkpt lat="59.7314177" lon="17.7799886">
        <ele>26.5736</ele>
        <time>2013-05-26T11:02:00Z</time>
      </trkpt>
      <trkpt lat="59.7314717" lon="17.7798328">
        <ele>25.1317</ele>
        <time>2013-05-26T11:02:01Z</time>
      </trkpt>
      <trkpt lat="59.7315305" lon="17.7796798">
        <ele>24.1703</ele>
        <time>2013-05-26T11:02:02Z</time>
      </trkpt>
      <trkpt lat="59.7315957" lon="17.7795301">
        <ele>24.1703</ele>
        <time>2013-05-26T11:02:03Z</time>
      </trkpt>
      <trkpt lat="59.7316625" lon="17.7793824">
        <ele>23.6896</ele>
        <time>2013-05-26T11:02:04Z</time>
      </trkpt>
      <trkpt lat="59.7317312" lon="17.7792337">
        <ele>23.6896</ele>
        <time>2013-05-26T11:02:05Z</time>
      </trkpt>
      <trkpt lat="59.7318013" lon="17.7790805">
        <ele>23.6896</ele>
        <time>2013-05-26T11:02:06Z</time>
      </trkpt>
      <trkpt lat="59.7318724" lon="17.7789271">
        <ele>24.1703</ele>
        <time>2013-05-26T11:02:07Z</time>
      </trkpt>
      <trkpt lat="59.7319467" lon="17.7787826">
        <ele>24.1703</ele>
        <time>2013-05-26T11:02:08Z</time>
      </trkpt>
      <trkpt lat="59.732023" lon="17.7786506">
        <ele>24.1703</ele>
        <time>2013-05-26T11:02:09Z</time>
      </trkpt>
      <trkpt lat="59.7320992" lon="17.7785305">
        <ele>23.6896</ele>
        <time>2013-05-26T11:02:10Z</time>
      </trkpt>
      <trkpt lat="59.732178" lon="17.7784253">
        <ele>22.7283</ele>
        <time>2013-05-26T11:02:11Z</time>
      </trkpt>
      <trkpt lat="59.7322575" lon="17.7783356">
        <ele>22.2476</ele>
        <time>2013-05-26T11:02:12Z</time>
      </trkpt>
      <trkpt lat="59.7323384" lon="17.7782592">
        <ele>21.767</ele>
        <time>2013-05-26T11:02:13Z</time>
      </trkpt>
      <trkpt lat="59.7324211" lon="17.7781916">
        <ele>21.2864</ele>
        <time>2013-05-26T11:02:14Z</time>
      </trkpt>
      <trkpt lat="59.7325051" lon="17.7781201">
        <ele>19.8444</ele>
        <time>2013-05-26T11:02:15Z</time>
      </trkpt>
      <trkpt lat="59.7325886" lon="17.7780503">
        <ele>18.4023</ele>
        <time>2013-05-26T11:02:16Z</time>
      </trkpt>
      <trkpt lat="59.7326716" lon="17.7779834">
        <ele>17.9218</ele>
        <time>2013-05-26T11:02:17Z</time>
      </trkpt>
      <trkpt lat="59.7327528" lon="17.7779052">
        <ele>17.4412</ele>
        <time>2013-05-26T11:02:18Z</time>
      </trkpt>
      <trkpt lat="59.7328347" lon="17.7778134">
        <ele>16.9604</ele>
        <time>2013-05-26T11:02:19Z</time>
      </trkpt>
      <trkpt lat="59.7329176" lon="17.7776984">
        <ele>17.9218</ele>
        <time>2013-05-26T11:02:20Z</time>
      </trkpt>
      <trkpt lat="59.7329879" lon="17.7775736">
        <ele>17.9218</ele>
        <time>2013-05-26T11:02:21Z</time>
      </trkpt>
      <trkpt lat="59.7330554" lon="17.7774346">
        <ele>17.4412</ele>
        <time>2013-05-26T11:02:22Z</time>
      </trkpt>
      <trkpt lat="59.7331194" lon="17.7772877">
        <ele>17.9218</ele>
        <time>2013-05-26T11:02:23Z</time>
      </trkpt>
      <trkpt lat="59.7331781" lon="17.777138">
        <ele>17.9218</ele>
        <time>2013-05-26T11:02:24Z</time>
      </trkpt>
      <trkpt lat="59.7332346" lon="17.7769867">
        <ele>17.9218</ele>
        <time>2013-05-26T11:02:25Z</time>
      </trkpt>
      <trkpt lat="59.7332911" lon="17.7768335">
        <ele>18.4023</ele>
        <time>2013-05-26T11:02:26Z</time>
      </trkpt>
      <trkpt lat="59.7333489" lon="17.7766795">
        <ele>18.4023</ele>
        <time>2013-05-26T11:02:27Z</time>
      </trkpt>
      <trkpt lat="59.733405" lon="17.7765237">
        <ele>18.4023</ele>
        <time>2013-05-26T11:02:28Z</time>
      </trkpt>
      <trkpt lat="59.7334594" lon="17.7763662">
        <ele>18.4023</ele>
        <time>2013-05-26T11:02:29Z</time>
      </trkpt>
      <trkpt lat="59.7335131" lon="17.7762071">
        <ele>18.8831</ele>
        <time>2013-05-26T11:02:30Z</time>
      </trkpt>
      <trkpt lat="59.7335667" lon="17.7760477">
        <ele>18.8831</ele>
        <time>2013-05-26T11:02:31Z</time>
      </trkpt>
      <trkpt lat="59.7336211" lon="17.7758895">
        <ele>19.3638</ele>
        <time>2013-05-26T11:02:32Z</time>
      </trkpt>
      <trkpt lat="59.7336765" lon="17.775734">
        <ele>19.3638</ele>
        <time>2013-05-26T11:02:33Z</time>
      </trkpt>
      <trkpt lat="59.7337315" lon="17.7755808">
        <ele>19.3638</ele>
        <time>2013-05-26T11:02:34Z</time>
      </trkpt>
      <trkpt lat="59.7337858" lon="17.7754291">
        <ele>19.8444</ele>
        <time>2013-05-26T11:02:35Z</time>
      </trkpt>
      <trkpt lat="59.7338405" lon="17.7752786">
        <ele>19.8444</ele>
        <time>2013-05-26T11:02:36Z</time>
      </trkpt>
      <trkpt lat="59.7338952" lon="17.7751292">
        <ele>19.8444</ele>
        <time>2013-05-26T11:02:37Z</time>
      </trkpt>
      <trkpt lat="59.7339496" lon="17.7749816">
        <ele>20.325</ele>
        <time>2013-05-26T11:02:38Z</time>
      </trkpt>
      <trkpt lat="59.7340039" lon="17.7748374">
        <ele>20.8057</ele>
        <time>2013-05-26T11:02:39Z</time>
      </trkpt>
      <trkpt lat="59.7340588" lon="17.7746987">
        <ele>20.8057</ele>
        <time>2013-05-26T11:02:40Z</time>
      </trkpt>
      <trkpt lat="59.7341125" lon="17.7745645">
        <ele>21.2864</ele>
        <time>2013-05-26T11:02:41Z</time>
      </trkpt>
      <trkpt lat="59.7341619" lon="17.774432">
        <ele>21.2864</ele>
        <time>2013-05-26T11:02:42Z</time>
      </trkpt>
      <trkpt lat="59.7342114" lon="17.7743081">
        <ele>21.2864</ele>
        <time>2013-05-26T11:02:43Z</time>
      </trkpt>
      <trkpt lat="59.7342617" lon="17.7741951">
        <ele>21.767</ele>
        <time>2013-05-26T11:02:44Z</time>
      </trkpt>
      <trkpt lat="59.7343094" lon="17.7740864">
        <ele>21.767</ele>
        <time>2013-05-26T11:02:45Z</time>
      </trkpt>
      <trkpt lat="59.7343546" lon="17.7739817">
        <ele>22.2476</ele>
        <time>2013-05-26T11:02:46Z</time>
      </trkpt>
      <trkpt lat="59.7343986" lon="17.7738818">
        <ele>22.2476</ele>
        <time>2013-05-26T11:02:47Z</time>
      </trkpt>
      <trkpt lat="59.7344412" lon="17.7737854">
        <ele>22.2476</ele>
        <time>2013-05-26T11:02:48Z</time>
      </trkpt>
      <trkpt lat="59.7344823" lon="17.7736922">
        <ele>22.2476</ele>
        <time>2013-05-26T11:02:49Z</time>
      </trkpt>
      <trkpt lat="59.7345222" lon="17.7736031">
        <ele>22.2476</ele>
        <time>2013-05-26T11:02:50Z</time>
      </trkpt>
      <trkpt lat="59.7345608" lon="17.7735176">
        <ele>22.2476</ele>
        <time>2013-05-26T11:02:51Z</time>
      </trkpt>
      <trkpt lat="59.734598" lon="17.7734332">
        <ele>22.2476</ele>
        <time>2013-05-26T11:02:52Z</time>
      </trkpt>
      <trkpt lat="59.7346349" lon="17.7733512">
        <ele>22.2476</ele>
        <time>2013-05-26T11:02:53Z</time>
      </trkpt>
      <trkpt lat="59.7346716" lon="17.773271">
        <ele>22.2476</ele>
        <time>2013-05-26T11:02:54Z</time>
      </trkpt>
      <trkpt lat="59.7347085" lon="17.7731918">
        <ele>22.7283</ele>
        <time>2013-05-26T11:02:55Z</time>
      </trkpt>
      <trkpt lat="59.7347449" lon="17.7731109">
        <ele>22.7283</ele>
        <time>2013-05-26T11:02:56Z</time>
      </trkpt>
      <trkpt lat="59.7347787" lon="17.7730274">
        <ele>23.209</ele>
        <time>2013-05-26T11:02:57Z</time>
      </trkpt>
      <trkpt lat="59.7348114" lon="17.7729442">
        <ele>23.209</ele>
        <time>2013-05-26T11:02:58Z</time>
      </trkpt>
      <trkpt lat="59.7348435" lon="17.7728597">
        <ele>23.6896</ele>
        <time>2013-05-26T11:02:59Z</time>
      </trkpt>
      <trkpt lat="59.7348758" lon="17.7727758">
        <ele>23.6896</ele>
        <time>2013-05-26T11:03:00Z</time>
      </trkpt>
      <trkpt lat="59.7349061" lon="17.7726898">
        <ele>23.209</ele>
        <time>2013-05-26T11:03:01Z</time>
      </trkpt>
      <trkpt lat="59.7349352" lon="17.7726053">
        <ele>23.6896</ele>
        <time>2013-05-26T11:03:02Z</time>
      </trkpt>
      <trkpt lat="59.7349614" lon="17.7725189">
        <ele>23.6896</ele>
        <time>2013-05-26T11:03:03Z</time>
      </trkpt>
      <trkpt lat="59.7349853" lon="17.7724285">
        <ele>23.209</ele>
        <time>2013-05-26T11:03:04Z</time>
      </trkpt>
      <trkpt lat="59.7350062" lon="17.7723332">
        <ele>23.209</ele>
        <time>2013-05-26T11:03:05Z</time>
      </trkpt>
      <trkpt lat="59.7350249" lon="17.7722322">
        <ele>23.209</ele>
        <time>2013-05-26T11:03:06Z</time>
      </trkpt>
      <trkpt lat="59.7350439" lon="17.7721252">
        <ele>23.209</ele>
        <time>2013-05-26T11:03:07Z</time>
      </trkpt>
      <trkpt lat="59.735059" lon="17.7720122">
        <ele>23.209</ele>
        <time>2013-05-26T11:03:08Z</time>
      </trkpt>
      <trkpt lat="59.7350699" lon="17.7718955">
        <ele>23.209</ele>
        <time>2013-05-26T11:03:09Z</time>
      </trkpt>
      <trkpt lat="59.7350809" lon="17.7717745">
        <ele>22.7283</ele>
        <time>2013-05-26T11:03:10Z</time>
      </trkpt>
      <trkpt lat="59.7350908" lon="17.7716507">
        <ele>22.7283</ele>
        <time>2013-05-26T11:03:11Z</time>
      </trkpt>
      <trkpt lat="59.7351006" lon="17.7715231">
        <ele>22.2476</ele>
        <time>2013-05-26T11:03:12Z</time>
      </trkpt>
      <trkpt lat="59.7351109" lon="17.7713899">
        <ele>22.2476</ele>
        <time>2013-05-26T11:03:13Z</time>
      </trkpt>
      <trkpt lat="59.7351227" lon="17.7712512">
        <ele>21.767</ele>
        <time>2013-05-26T11:03:14Z</time>
      </trkpt>
      <trkpt lat="59.7351362" lon="17.7711073">
        <ele>21.767</ele>
        <time>2013-05-26T11:03:15Z</time>
      </trkpt>
      <trkpt lat="59.7351523" lon="17.7709591">
        <ele>21.767</ele>
        <time>2013-05-26T11:03:16Z</time>
      </trkpt>
      <trkpt lat="59.7351719" lon="17.7708084">
        <ele>21.2864</ele>
        <time>2013-05-26T11:03:17Z</time>
      </trkpt>
      <trkpt lat="59.7351933" lon="17.7706544">
        <ele>21.2864</ele>
        <time>2013-05-26T11:03:18Z</time>
      </trkpt>
      <trkpt lat="59.7352146" lon="17.7704914">
        <ele>19.8444</ele>
        <time>2013-05-26T11:03:19Z</time>
      </trkpt>
      <trkpt lat="59.7352423" lon="17.770336">
        <ele>19.8444</ele>
        <time>2013-05-26T11:03:20Z</time>
      </trkpt>
      <trkpt lat="59.7352736" lon="17.7701815">
        <ele>19.8444</ele>
        <time>2013-05-26T11:03:21Z</time>
      </trkpt>
      <trkpt lat="59.7353065" lon="17.7700265">
        <ele>19.8444</ele>
        <time>2013-05-26T11:03:22Z</time>
      </trkpt>
      <trkpt lat="59.7353394" lon="17.7698711">
        <ele>19.8444</ele>
        <time>2013-05-26T11:03:23Z</time>
      </trkpt>
      <trkpt lat="59.7353741" lon="17.7697164">
        <ele>19.8444</ele>
        <time>2013-05-26T11:03:24Z</time>
      </trkpt>
      <trkpt lat="59.7354121" lon="17.7695646">
        <ele>20.325</ele>
        <time>2013-05-26T11:03:25Z</time>
      </trkpt>
      <trkpt lat="59.7354508" lon="17.7694125">
        <ele>20.325</ele>
        <time>2013-05-26T11:03:26Z</time>
      </trkpt>
      <trkpt lat="59.7354888" lon="17.7692578">
        <ele>20.325</ele>
        <time>2013-05-26T11:03:27Z</time>
      </trkpt>
      <trkpt lat="59.7355267" lon="17.7690995">
        <ele>20.325</ele>
        <time>2013-05-26T11:03:28Z</time>
      </trkpt>
      <trkpt lat="59.7355658" lon="17.7689399">
        <ele>20.325</ele>
        <time>2013-05-26T11:03:29Z</time>
      </trkpt>
      <trkpt lat="59.7356061" lon="17.7687809">
        <ele>20.325</ele>
        <time>2013-05-26T11:03:30Z</time>
      </trkpt>
      <trkpt lat="59.7356461" lon="17.7686214">
        <ele>20.325</ele>
        <time>2013-05-26T11:03:31Z</time>
      </trkpt>
      <trkpt lat="59.7356861" lon="17.7684609">
        <ele>20.325</ele>
        <time>2013-05-26T11:03:32Z</time>
      </trkpt>
      <trkpt lat="59.7357265" lon="17.7682991">
        <ele>19.8444</ele>
        <time>2013-05-26T11:03:33Z</time>
      </trkpt>
      <trkpt lat="59.7357685" lon="17.7681338">
        <ele>19.8444</ele>
        <time>2013-05-26T11:03:34Z</time>
      </trkpt>
      <trkpt lat="59.7358106" lon="17.7679635">
        <ele>19.8444</ele>
        <time>2013-05-26T11:03:35Z</time>
      </trkpt>
      <trkpt lat="59.735853" lon="17.7677895">
        <ele>19.8444</ele>
        <time>2013-05-26T11:03:36Z</time>
      </trkpt>
      <trkpt lat="59.7358966" lon="17.7676136">
        <ele>19.8444</ele>
        <time>2013-05-26T11:03:37Z</time>
      </trkpt>
      <trkpt lat="59.7359403" lon="17.7674339">
        <ele>19.8444</ele>
        <time>2013-05-26T11:03:38Z</time>
      </trkpt>
      <trkpt lat="59.7359847" lon="17.7672517">
        <ele>19.8444</ele>
        <time>2013-05-26T11:03:39Z</time>
      </trkpt>
      <trkpt lat="59.7360297" lon="17.7670673">
        <ele>19.8444</ele>
        <time>2013-05-26T11:03:40Z</time>
      </trkpt>
      <trkpt lat="59.7360749" lon="17.7668798">
        <ele>19.8444</ele>
        <time>2013-05-26T11:03:41Z</time>
      </trkpt>
      <trkpt lat="59.7361206" lon="17.7666916">
        <ele>19.8444</ele>
        <time>2013-05-26T11:03:42Z</time>
      </trkpt>
      <trkpt lat="59.7361667" lon="17.7665044">
        <ele>19.8444</ele>
        <time>2013-05-26T11:03:43Z</time>
      </trkpt>
      <trkpt lat="59.7362126" lon="17.7663184">
        <ele>19.8444</ele>
        <time>2013-05-26T11:03:44Z</time>
      </trkpt>
      <trkpt lat="59.7362582" lon="17.7661334">
        <ele>19.8444</ele>
        <time>2013-05-26T11:03:45Z</time>
      </trkpt>
      <trkpt lat="59.7363038" lon="17.7659495">
        <ele>19.8444</ele>
        <time>2013-05-26T11:03:46Z</time>
      </trkpt>
      <trkpt lat="59.7363489" lon="17.7657649">
        <ele>19.8444</ele>
        <time>2013-05-26T11:03:47Z</time>
      </trkpt>
      <trkpt lat="59.7363945" lon="17.7655784">
        <ele>19.8444</ele>
        <time>2013-05-26T11:03:48Z</time>
      </trkpt>
      <trkpt lat="59.7364385" lon="17.7653901">
        <ele>19.8444</ele>
        <time>2013-05-26T11:03:49Z</time>
      </trkpt>
      <trkpt lat="59.7364824" lon="17.765202">
        <ele>19.8444</ele>
        <time>2013-05-26T11:03:50Z</time>
      </trkpt>
      <trkpt lat="59.7365277" lon="17.7650168">
        <ele>20.325</ele>
        <time>2013-05-26T11:03:51Z</time>
      </trkpt>
      <trkpt lat="59.7365742" lon="17.7648311">
        <ele>20.325</ele>
        <time>2013-05-26T11:03:52Z</time>
      </trkpt>
      <trkpt lat="59.7366201" lon="17.7646441">
        <ele>20.325</ele>
        <time>2013-05-26T11:03:53Z</time>
      </trkpt>
      <trkpt lat="59.7366657" lon="17.764457">
        <ele>20.325</ele>
        <time>2013-05-26T11:03:54Z</time>
      </trkpt>
      <trkpt lat="59.7367123" lon="17.7642723">
        <ele>20.8057</ele>
        <time>2013-05-26T11:03:55Z</time>
      </trkpt>
      <trkpt lat="59.7367597" lon="17.7640872">
        <ele>20.8057</ele>
        <time>2013-05-26T11:03:56Z</time>
      </trkpt>
      <trkpt lat="59.7368094" lon="17.7639044">
        <ele>21.2864</ele>
        <time>2013-05-26T11:03:57Z</time>
      </trkpt>
      <trkpt lat="59.7368611" lon="17.7637261">
        <ele>21.2864</ele>
        <time>2013-05-26T11:03:58Z</time>
      </trkpt>
      <trkpt lat="59.7369166" lon="17.763551">
        <ele>21.2864</ele>
        <time>2013-05-26T11:03:59Z</time>
      </trkpt>
      <trkpt lat="59.7369771" lon="17.7633804">
        <ele>21.2864</ele>
        <time>2013-05-26T11:04:00Z</time>
      </trkpt>
      <trkpt lat="59.7370414" lon="17.763216">
        <ele>21.767</ele>
        <time>2013-05-26T11:04:01Z</time>
      </trkpt>
      <trkpt lat="59.7371087" lon="17.7630615">
        <ele>21.2864</ele>
        <time>2013-05-26T11:04:02Z</time>
      </trkpt>
      <trkpt lat="59.7371787" lon="17.762915">
        <ele>21.2864</ele>
        <time>2013-05-26T11:04:03Z</time>
      </trkpt>
      <trkpt lat="59.7372505" lon="17.7627741">
        <ele>20.8057</ele>
        <time>2013-05-26T11:04:04Z</time>
      </trkpt>
      <trkpt lat="59.7373238" lon="17.762639">
        <ele>20.8057</ele>
        <time>2013-05-26T11:04:05Z</time>
      </trkpt>
      <trkpt lat="59.7373946" lon="17.7625058">
        <ele>21.2864</ele>
        <time>2013-05-26T11:04:06Z</time>
      </trkpt>
      <trkpt lat="59.7374642" lon="17.7623773">
        <ele>21.767</ele>
        <time>2013-05-26T11:04:07Z</time>
      </trkpt>
      <trkpt lat="59.737534" lon="17.7622548">
        <ele>21.767</ele>
        <time>2013-05-26T11:04:08Z</time>
      </trkpt>
      <trkpt lat="59.7376029" lon="17.7621375">
        <ele>22.2476</ele>
        <time>2013-05-26T11:04:09Z</time>
      </trkpt>
      <trkpt lat="59.7376706" lon="17.7620235">
        <ele>22.7283</ele>
        <time>2013-05-26T11:04:10Z</time>
      </trkpt>
      <trkpt lat="59.7377365" lon="17.7619109">
        <ele>22.7283</ele>
        <time>2013-05-26T11:04:11Z</time>
      </trkpt>
      <trkpt lat="59.7378014" lon="17.7618002">
        <ele>23.209</ele>
        <time>2013-05-26T11:04:12Z</time>
      </trkpt>
      <trkpt lat="59.7378656" lon="17.7616913">
        <ele>23.209</ele>
        <time>2013-05-26T11:04:13Z</time>
      </trkpt>
      <trkpt lat="59.7379283" lon="17.7615832">
        <ele>23.6896</ele>
        <time>2013-05-26T11:04:14Z</time>
      </trkpt>
      <trkpt lat="59.7379894" lon="17.7614766">
        <ele>24.1703</ele>
        <time>2013-05-26T11:04:15Z</time>
      </trkpt>
      <trkpt lat="59.7380491" lon="17.7613698">
        <ele>24.1703</ele>
        <time>2013-05-26T11:04:16Z</time>
      </trkpt>
      <trkpt lat="59.7381086" lon="17.7612615">
        <ele>24.651</ele>
        <time>2013-05-26T11:04:17Z</time>
      </trkpt>
      <trkpt lat="59.7381669" lon="17.7611466">
        <ele>24.651</ele>
        <time>2013-05-26T11:04:18Z</time>
      </trkpt>
      <trkpt lat="59.7382237" lon="17.7610279">
        <ele>24.651</ele>
        <time>2013-05-26T11:04:19Z</time>
      </trkpt>
      <trkpt lat="59.738278" lon="17.7609055">
        <ele>25.1317</ele>
        <time>2013-05-26T11:04:20Z</time>
      </trkpt>
      <trkpt lat="59.738329" lon="17.7607788">
        <ele>25.1317</ele>
        <time>2013-05-26T11:04:21Z</time>
      </trkpt>
      <trkpt lat="59.7383764" lon="17.7606493">
        <ele>25.1317</ele>
        <time>2013-05-26T11:04:22Z</time>
      </trkpt>
      <trkpt lat="59.7384195" lon="17.7605164">
        <ele>25.1317</ele>
        <time>2013-05-26T11:04:23Z</time>
      </trkpt>
      <trkpt lat="59.7384577" lon="17.7603793">
        <ele>25.1317</ele>
        <time>2013-05-26T11:04:24Z</time>
      </trkpt>
      <trkpt lat="59.738493" lon="17.7602375">
        <ele>24.651</ele>
        <time>2013-05-26T11:04:25Z</time>
      </trkpt>
      <trkpt lat="59.7385266" lon="17.7600934">
        <ele>24.651</ele>
        <time>2013-05-26T11:04:26Z</time>
      </trkpt>
      <trkpt lat="59.7385577" lon="17.7599451">
        <ele>24.1703</ele>
        <time>2013-05-26T11:04:27Z</time>
      </trkpt>
      <trkpt lat="59.7385883" lon="17.759796">
        <ele>24.1703</ele>
        <time>2013-05-26T11:04:28Z</time>
      </trkpt>
      <trkpt lat="59.7386198" lon="17.7596479">
        <ele>24.1703</ele>
        <time>2013-05-26T11:04:29Z</time>
      </trkpt>
      <trkpt lat="59.7386484" lon="17.759498">
        <ele>23.6896</ele>
        <time>2013-05-26T11:04:30Z</time>
      </trkpt>
      <trkpt lat="59.7386758" lon="17.7593468">
        <ele>23.6896</ele>
        <time>2013-05-26T11:04:31Z</time>
      </trkpt>
      <trkpt lat="59.7387043" lon="17.7591972">
        <ele>23.6896</ele>
        <time>2013-05-26T11:04:32Z</time>
      </trkpt>
      <trkpt lat="59.7387334" lon="17.7590521">
        <ele>23.6896</ele>
        <time>2013-05-26T11:04:33Z</time>
      </trkpt>
      <trkpt lat="59.7387631" lon="17.7589112">
        <ele>23.6896</ele>
        <time>2013-05-26T11:04:34Z</time>
      </trkpt>
      <trkpt lat="59.7387934" lon="17.7587741">
        <ele>23.6896</ele>
        <time>2013-05-26T11:04:35Z</time>
      </trkpt>
      <trkpt lat="59.7388235" lon="17.7586405">
        <ele>23.209</ele>
        <time>2013-05-26T11:04:36Z</time>
      </trkpt>
      <trkpt lat="59.7388538" lon="17.7585106">
        <ele>23.209</ele>
        <time>2013-05-26T11:04:37Z</time>
      </trkpt>
      <trkpt lat="59.7388861" lon="17.7583833">
        <ele>23.209</ele>
        <time>2013-05-26T11:04:38Z</time>
      </trkpt>
      <trkpt lat="59.7389191" lon="17.7582561">
        <ele>23.209</ele>
        <time>2013-05-26T11:04:39Z</time>
      </trkpt>
      <trkpt lat="59.7389522" lon="17.7581311">
        <ele>23.209</ele>
        <time>2013-05-26T11:04:40Z</time>
      </trkpt>
      <trkpt lat="59.7389852" lon="17.7580105">
        <ele>22.7283</ele>
        <time>2013-05-26T11:04:41Z</time>
      </trkpt>
      <trkpt lat="59.7390172" lon="17.7578965">
        <ele>22.7283</ele>
        <time>2013-05-26T11:04:42Z</time>
      </trkpt>
      <trkpt lat="59.7390487" lon="17.7577837">
        <ele>22.7283</ele>
        <time>2013-05-26T11:04:43Z</time>
      </trkpt>
      <trkpt lat="59.7390818" lon="17.7576666">
        <ele>22.2476</ele>
        <time>2013-05-26T11:04:44Z</time>
      </trkpt>
      <trkpt lat="59.7391149" lon="17.7575456">
        <ele>22.2476</ele>
        <time>2013-05-26T11:04:45Z</time>
      </trkpt>
      <trkpt lat="59.7391491" lon="17.757422">
        <ele>21.767</ele>
        <time>2013-05-26T11:04:46Z</time>
      </trkpt>
      <trkpt lat="59.739185" lon="17.7572944">
        <ele>21.2864</ele>
        <time>2013-05-26T11:04:47Z</time>
      </trkpt>
      <trkpt lat="59.7392198" lon="17.7571595">
        <ele>20.8057</ele>
        <time>2013-05-26T11:04:48Z</time>
      </trkpt>
      <trkpt lat="59.7392539" lon="17.7570239">
        <ele>20.8057</ele>
        <time>2013-05-26T11:04:49Z</time>
      </trkpt>
      <trkpt lat="59.7392887" lon="17.7568896">
        <ele>20.325</ele>
        <time>2013-05-26T11:04:50Z</time>
      </trkpt>
      <trkpt lat="59.7393218" lon="17.7567538">
        <ele>20.325</ele>
        <time>2013-05-26T11:04:51Z</time>
      </trkpt>
      <trkpt lat="59.7393521" lon="17.7566161">
        <ele>19.8444</ele>
        <time>2013-05-26T11:04:52Z</time>
      </trkpt>
      <trkpt lat="59.7393797" lon="17.7564749">
        <ele>19.8444</ele>
        <time>2013-05-26T11:04:53Z</time>
      </trkpt>
      <trkpt lat="59.7394056" lon="17.7563322">
        <ele>19.8444</ele>
        <time>2013-05-26T11:04:54Z</time>
      </trkpt>
      <trkpt lat="59.7394324" lon="17.75619">
        <ele>19.3638</ele>
        <time>2013-05-26T11:04:55Z</time>
      </trkpt>
      <trkpt lat="59.7394601" lon="17.756048">
        <ele>19.3638</ele>
        <time>2013-05-26T11:04:56Z</time>
      </trkpt>
      <trkpt lat="59.7394873" lon="17.7559057">
        <ele>19.3638</ele>
        <time>2013-05-26T11:04:57Z</time>
      </trkpt>
      <trkpt lat="59.7395149" lon="17.7557649">
        <ele>19.3638</ele>
        <time>2013-05-26T11:04:58Z</time>
      </trkpt>
      <trkpt lat="59.7395424" lon="17.755624">
        <ele>19.3638</ele>
        <time>2013-05-26T11:04:59Z</time>
      </trkpt>
      <trkpt lat="59.7395699" lon="17.755483">
        <ele>19.3638</ele>
        <time>2013-05-26T11:05:00Z</time>
      </trkpt>
      <trkpt lat="59.7395969" lon="17.7553422">
        <ele>19.3638</ele>
        <time>2013-05-26T11:05:01Z</time>
      </trkpt>
      <trkpt lat="59.7396233" lon="17.7552012">
        <ele>19.3638</ele>
        <time>2013-05-26T11:05:02Z</time>
      </trkpt>
      <trkpt lat="59.739648" lon="17.7550614">
        <ele>19.3638</ele>
        <time>2013-05-26T11:05:03Z</time>
      </trkpt>
      <trkpt lat="59.7396724" lon="17.754923">
        <ele>19.3638</ele>
        <time>2013-05-26T11:05:04Z</time>
      </trkpt>
      <trkpt lat="59.7396971" lon="17.7547875">
        <ele>19.3638</ele>
        <time>2013-05-26T11:05:05Z</time>
      </trkpt>
      <trkpt lat="59.7397209" lon="17.7546526">
        <ele>19.3638</ele>
        <time>2013-05-26T11:05:06Z</time>
      </trkpt>
      <trkpt lat="59.7397445" lon="17.7545145">
        <ele>19.3638</ele>
        <time>2013-05-26T11:05:07Z</time>
      </trkpt>
      <trkpt lat="59.7397678" lon="17.7543756">
        <ele>19.3638</ele>
        <time>2013-05-26T11:05:08Z</time>
      </trkpt>
      <trkpt lat="59.7397917" lon="17.7542352">
        <ele>19.3638</ele>
        <time>2013-05-26T11:05:09Z</time>
      </trkpt>
      <trkpt lat="59.7398155" lon="17.7540933">
        <ele>19.8444</ele>
        <time>2013-05-26T11:05:10Z</time>
      </trkpt>
      <trkpt lat="59.7398392" lon="17.7539498">
        <ele>19.8444</ele>
        <time>2013-05-26T11:05:11Z</time>
      </trkpt>
      <trkpt lat="59.7398631" lon="17.7538047">
        <ele>20.325</ele>
        <time>2013-05-26T11:05:12Z</time>
      </trkpt>
      <trkpt lat="59.7398873" lon="17.7536586">
        <ele>20.325</ele>
        <time>2013-05-26T11:05:13Z</time>
      </trkpt>
      <trkpt lat="59.7399108" lon="17.7535126">
        <ele>20.8057</ele>
        <time>2013-05-26T11:05:14Z</time>
      </trkpt>
      <trkpt lat="59.7399333" lon="17.7533669">
        <ele>20.8057</ele>
        <time>2013-05-26T11:05:15Z</time>
      </trkpt>
      <trkpt lat="59.7399558" lon="17.7532213">
        <ele>20.8057</ele>
        <time>2013-05-26T11:05:16Z</time>
      </trkpt>
      <trkpt lat="59.7399784" lon="17.7530743">
        <ele>20.8057</ele>
        <time>2013-05-26T11:05:17Z</time>
      </trkpt>
      <trkpt lat="59.7400017" lon="17.7529262">
        <ele>21.2864</ele>
        <time>2013-05-26T11:05:18Z</time>
      </trkpt>
      <trkpt lat="59.7400252" lon="17.7527768">
        <ele>21.2864</ele>
        <time>2013-05-26T11:05:19Z</time>
      </trkpt>
      <trkpt lat="59.7400485" lon="17.7526257">
        <ele>21.2864</ele>
        <time>2013-05-26T11:05:20Z</time>
      </trkpt>
      <trkpt lat="59.7400704" lon="17.7524727">
        <ele>21.2864</ele>
        <time>2013-05-26T11:05:21Z</time>
      </trkpt>
      <trkpt lat="59.7400894" lon="17.7523199">
        <ele>21.2864</ele>
        <time>2013-05-26T11:05:22Z</time>
      </trkpt>
      <trkpt lat="59.7401039" lon="17.7521657">
        <ele>20.8057</ele>
        <time>2013-05-26T11:05:23Z</time>
      </trkpt>
      <trkpt lat="59.7401174" lon="17.7520066">
        <ele>20.8057</ele>
        <time>2013-05-26T11:05:24Z</time>
      </trkpt>
      <trkpt lat="59.7401314" lon="17.7518407">
        <ele>20.325</ele>
        <time>2013-05-26T11:05:25Z</time>
      </trkpt>
      <trkpt lat="59.7401445" lon="17.7516678">
        <ele>20.325</ele>
        <time>2013-05-26T11:05:26Z</time>
      </trkpt>
      <trkpt lat="59.7401553" lon="17.751489">
        <ele>19.8444</ele>
        <time>2013-05-26T11:05:27Z</time>
      </trkpt>
      <trkpt lat="59.7401633" lon="17.7513084">
        <ele>19.8444</ele>
        <time>2013-05-26T11:05:28Z</time>
      </trkpt>
      <trkpt lat="59.740169" lon="17.7511296">
        <ele>19.8444</ele>
        <time>2013-05-26T11:05:29Z</time>
      </trkpt>
      <trkpt lat="59.740174" lon="17.7509526">
        <ele>19.8444</ele>
        <time>2013-05-26T11:05:30Z</time>
      </trkpt>
      <trkpt lat="59.7401788" lon="17.750776">
        <ele>19.8444</ele>
        <time>2013-05-26T11:05:31Z</time>
      </trkpt>
      <trkpt lat="59.7401837" lon="17.7505977">
        <ele>19.8444</ele>
        <time>2013-05-26T11:05:32Z</time>
      </trkpt>
      <trkpt lat="59.7401899" lon="17.7504175">
        <ele>19.3638</ele>
        <time>2013-05-26T11:05:33Z</time>
      </trkpt>
      <trkpt lat="59.7401972" lon="17.7502346">
        <ele>19.8444</ele>
        <time>2013-05-26T11:05:34Z</time>
      </trkpt>
      <trkpt lat="59.7402038" lon="17.7500503">
        <ele>19.3638</ele>
        <time>2013-05-26T11:05:35Z</time>
      </trkpt>
      <trkpt lat="59.7402091" lon="17.7498646">
        <ele>19.3638</ele>
        <time>2013-05-26T11:05:36Z</time>
      </trkpt>
      <trkpt lat="59.7402138" lon="17.7496806">
        <ele>19.8444</ele>
        <time>2013-05-26T11:05:37Z</time>
      </trkpt>
      <trkpt lat="59.7402191" lon="17.7494979">
        <ele>19.3638</ele>
        <time>2013-05-26T11:05:38Z</time>
      </trkpt>
      <trkpt lat="59.7402261" lon="17.749312">
        <ele>19.3638</ele>
        <time>2013-05-26T11:05:39Z</time>
      </trkpt>
      <trkpt lat="59.7402307" lon="17.7491213">
        <ele>19.3638</ele>
        <time>2013-05-26T11:05:40Z</time>
      </trkpt>
      <trkpt lat="59.7402333" lon="17.7489271">
        <ele>19.3638</ele>
        <time>2013-05-26T11:05:41Z</time>
      </trkpt>
      <trkpt lat="59.7402353" lon="17.748732">
        <ele>19.3638</ele>
        <time>2013-05-26T11:05:42Z</time>
      </trkpt>
      <trkpt lat="59.7402367" lon="17.7485366">
        <ele>19.3638</ele>
        <time>2013-05-26T11:05:43Z</time>
      </trkpt>
      <trkpt lat="59.740238" lon="17.7483392">
        <ele>19.8444</ele>
        <time>2013-05-26T11:05:44Z</time>
      </trkpt>
      <trkpt lat="59.7402382" lon="17.7481421">
        <ele>19.8444</ele>
        <time>2013-05-26T11:05:45Z</time>
      </trkpt>
      <trkpt lat="59.7402376" lon="17.7479474">
        <ele>19.8444</ele>
        <time>2013-05-26T11:05:46Z</time>
      </trkpt>
      <trkpt lat="59.7402366" lon="17.7477549">
        <ele>20.325</ele>
        <time>2013-05-26T11:05:47Z</time>
      </trkpt>
      <trkpt lat="59.7402355" lon="17.7475658">
        <ele>20.325</ele>
        <time>2013-05-26T11:05:48Z</time>
      </trkpt>
      <trkpt lat="59.7402329" lon="17.7473779">
        <ele>20.325</ele>
        <time>2013-05-26T11:05:49Z</time>
      </trkpt>
      <trkpt lat="59.7402304" lon="17.7471913">
        <ele>20.325</ele>
        <time>2013-05-26T11:05:50Z</time>
      </trkpt>
      <trkpt lat="59.7402303" lon="17.7470023">
        <ele>19.8444</ele>
        <time>2013-05-26T11:05:51Z</time>
      </trkpt>
      <trkpt lat="59.7402334" lon="17.7468075">
        <ele>19.8444</ele>
        <time>2013-05-26T11:05:52Z</time>
      </trkpt>
      <trkpt lat="59.7402386" lon="17.7466076">
        <ele>19.3638</ele>
        <time>2013-05-26T11:05:53Z</time>
      </trkpt>
      <trkpt lat="59.7402489" lon="17.7464092">
        <ele>19.3638</ele>
        <time>2013-05-26T11:05:54Z</time>
      </trkpt>
      <trkpt lat="59.7402622" lon="17.7462097">
        <ele>18.8831</ele>
        <time>2013-05-26T11:05:55Z</time>
      </trkpt>
      <trkpt lat="59.7402743" lon="17.7460067">
        <ele>18.8831</ele>
        <time>2013-05-26T11:05:56Z</time>
      </trkpt>
      <trkpt lat="59.7402832" lon="17.7458015">
        <ele>18.8831</ele>
        <time>2013-05-26T11:05:57Z</time>
      </trkpt>
      <trkpt lat="59.7402857" lon="17.7455951">
        <ele>18.4023</ele>
        <time>2013-05-26T11:05:58Z</time>
      </trkpt>
      <trkpt lat="59.7402802" lon="17.7453881">
        <ele>18.4023</ele>
        <time>2013-05-26T11:05:59Z</time>
      </trkpt>
      <trkpt lat="59.740269" lon="17.7451819">
        <ele>17.9218</ele>
        <time>2013-05-26T11:06:00Z</time>
      </trkpt>
      <trkpt lat="59.7402532" lon="17.7449736">
        <ele>17.9218</ele>
        <time>2013-05-26T11:06:01Z</time>
      </trkpt>
      <trkpt lat="59.7402358" lon="17.7447642">
        <ele>17.9218</ele>
        <time>2013-05-26T11:06:02Z</time>
      </trkpt>
      <trkpt lat="59.7402174" lon="17.7445542">
        <ele>17.9218</ele>
        <time>2013-05-26T11:06:03Z</time>
      </trkpt>
      <trkpt lat="59.7401992" lon="17.7443454">
        <ele>17.4412</ele>
        <time>2013-05-26T11:06:04Z</time>
      </trkpt>
      <trkpt lat="59.7401801" lon="17.7441382">
        <ele>17.4412</ele>
        <time>2013-05-26T11:06:05Z</time>
      </trkpt>
      <trkpt lat="59.7401589" lon="17.7439347">
        <ele>17.4412</ele>
        <time>2013-05-26T11:06:06Z</time>
      </trkpt>
      <trkpt lat="59.7401339" lon="17.7437381">
        <ele>17.4412</ele>
        <time>2013-05-26T11:06:07Z</time>
      </trkpt>
      <trkpt lat="59.7401044" lon="17.743548">
        <ele>17.4412</ele>
        <time>2013-05-26T11:06:08Z</time>
      </trkpt>
      <trkpt lat="59.7400729" lon="17.7433626">
        <ele>17.4412</ele>
        <time>2013-05-26T11:06:09Z</time>
      </trkpt>
      <trkpt lat="59.740044" lon="17.7431752">
        <ele>17.4412</ele>
        <time>2013-05-26T11:06:10Z</time>
      </trkpt>
      <trkpt lat="59.7400162" lon="17.7429818">
        <ele>17.4412</ele>
        <time>2013-05-26T11:06:11Z</time>
      </trkpt>
      <trkpt lat="59.7399908" lon="17.7427833">
        <ele>17.4412</ele>
        <time>2013-05-26T11:06:12Z</time>
      </trkpt>
      <trkpt lat="59.7399694" lon="17.7425798">
        <ele>17.4412</ele>
        <time>2013-05-26T11:06:13Z</time>
      </trkpt>
      <trkpt lat="59.7399492" lon="17.7423754">
        <ele>17.9218</ele>
        <time>2013-05-26T11:06:14Z</time>
      </trkpt>
      <trkpt lat="59.7399299" lon="17.7421721">
        <ele>17.9218</ele>
        <time>2013-05-26T11:06:15Z</time>
      </trkpt>
      <trkpt lat="59.7399107" lon="17.7419716">
        <ele>17.9218</ele>
        <time>2013-05-26T11:06:16Z</time>
      </trkpt>
      <trkpt lat="59.7398901" lon="17.741775">
        <ele>18.4023</ele>
        <time>2013-05-26T11:06:17Z</time>
      </trkpt>
      <trkpt lat="59.7398682" lon="17.7415802">
        <ele>18.4023</ele>
        <time>2013-05-26T11:06:18Z</time>
      </trkpt>
      <trkpt lat="59.7398452" lon="17.7413864">
        <ele>18.4023</ele>
        <time>2013-05-26T11:06:19Z</time>
      </trkpt>
      <trkpt lat="59.7398217" lon="17.7411928">
        <ele>18.4023</ele>
        <time>2013-05-26T11:06:20Z</time>
      </trkpt>
      <trkpt lat="59.7397973" lon="17.741">
        <ele>18.8831</ele>
        <time>2013-05-26T11:06:21Z</time>
      </trkpt>
      <trkpt lat="59.7397745" lon="17.7408052">
        <ele>18.8831</ele>
        <time>2013-05-26T11:06:22Z</time>
      </trkpt>
      <trkpt lat="59.7397543" lon="17.7406104">
        <ele>18.8831</ele>
        <time>2013-05-26T11:06:23Z</time>
      </trkpt>
      <trkpt lat="59.7397346" lon="17.7404165">
        <ele>19.3638</ele>
        <time>2013-05-26T11:06:24Z</time>
      </trkpt>
      <trkpt lat="59.7397142" lon="17.7402241">
        <ele>19.3638</ele>
        <time>2013-05-26T11:06:25Z</time>
      </trkpt>
      <trkpt lat="59.7396905" lon="17.7400374">
        <ele>19.8444</ele>
        <time>2013-05-26T11:06:26Z</time>
      </trkpt>
      <trkpt lat="59.7396599" lon="17.7398545">
        <ele>19.8444</ele>
        <time>2013-05-26T11:06:27Z</time>
      </trkpt>
      <trkpt lat="59.7396239" lon="17.7396743">
        <ele>19.3638</ele>
        <time>2013-05-26T11:06:28Z</time>
      </trkpt>
      <trkpt lat="59.7395862" lon="17.7394984">
        <ele>18.8831</ele>
        <time>2013-05-26T11:06:29Z</time>
      </trkpt>
      <trkpt lat="59.7395459" lon="17.7393212">
        <ele>18.8831</ele>
        <time>2013-05-26T11:06:30Z</time>
      </trkpt>
      <trkpt lat="59.7395026" lon="17.7391379">
        <ele>18.4023</ele>
        <time>2013-05-26T11:06:31Z</time>
      </trkpt>
      <trkpt lat="59.7394602" lon="17.7389456">
        <ele>18.4023</ele>
        <time>2013-05-26T11:06:32Z</time>
      </trkpt>
      <trkpt lat="59.7394232" lon="17.7387425">
        <ele>18.4023</ele>
        <time>2013-05-26T11:06:33Z</time>
      </trkpt>
      <trkpt lat="59.739393" lon="17.7385336">
        <ele>17.9218</ele>
        <time>2013-05-26T11:06:34Z</time>
      </trkpt>
      <trkpt lat="59.7393674" lon="17.7383235">
        <ele>17.9218</ele>
        <time>2013-05-26T11:06:35Z</time>
      </trkpt>
      <trkpt lat="59.7393445" lon="17.7381117">
        <ele>17.9218</ele>
        <time>2013-05-26T11:06:36Z</time>
      </trkpt>
      <trkpt lat="59.7393223" lon="17.7378981">
        <ele>18.4023</ele>
        <time>2013-05-26T11:06:37Z</time>
      </trkpt>
      <trkpt lat="59.7392994" lon="17.7376848">
        <ele>18.4023</ele>
        <time>2013-05-26T11:06:38Z</time>
      </trkpt>
      <trkpt lat="59.7392758" lon="17.7374739">
        <ele>18.4023</ele>
        <time>2013-05-26T11:06:39Z</time>
      </trkpt>
      <trkpt lat="59.739256" lon="17.7372627">
        <ele>18.4023</ele>
        <time>2013-05-26T11:06:40Z</time>
      </trkpt>
      <trkpt lat="59.7392419" lon="17.7370544">
        <ele>18.8831</ele>
        <time>2013-05-26T11:06:41Z</time>
      </trkpt>
      <trkpt lat="59.7392332" lon="17.7368472">
        <ele>18.8831</ele>
        <time>2013-05-26T11:06:42Z</time>
      </trkpt>
      <trkpt lat="59.7392283" lon="17.7366425">
        <ele>19.3638</ele>
        <time>2013-05-26T11:06:43Z</time>
      </trkpt>
      <trkpt lat="59.7392245" lon="17.73644">
        <ele>19.3638</ele>
        <time>2013-05-26T11:06:44Z</time>
      </trkpt>
      <trkpt lat="59.7392208" lon="17.7362386">
        <ele>19.8444</ele>
        <time>2013-05-26T11:06:45Z</time>
      </trkpt>
      <trkpt lat="59.7392181" lon="17.7360394">
        <ele>19.8444</ele>
        <time>2013-05-26T11:06:46Z</time>
      </trkpt>
      <trkpt lat="59.7392149" lon="17.7358405">
        <ele>19.8444</ele>
        <time>2013-05-26T11:06:47Z</time>
      </trkpt>
      <trkpt lat="59.7392096" lon="17.7356384">
        <ele>19.8444</ele>
        <time>2013-05-26T11:06:48Z</time>
      </trkpt>
      <trkpt lat="59.7392015" lon="17.7354339">
        <ele>19.3638</ele>
        <time>2013-05-26T11:06:49Z</time>
      </trkpt>
      <trkpt lat="59.7391902" lon="17.7352251">
        <ele>18.8831</ele>
        <time>2013-05-26T11:06:50Z</time>
      </trkpt>
      <trkpt lat="59.7391782" lon="17.7350113">
        <ele>18.4023</ele>
        <time>2013-05-26T11:06:51Z</time>
      </trkpt>
      <trkpt lat="59.7391679" lon="17.7347946">
        <ele>18.4023</ele>
        <time>2013-05-26T11:06:52Z</time>
      </trkpt>
      <trkpt lat="59.7391587" lon="17.7345766">
        <ele>17.9218</ele>
        <time>2013-05-26T11:06:53Z</time>
      </trkpt>
      <trkpt lat="59.7391482" lon="17.734359">
        <ele>17.9218</ele>
        <time>2013-05-26T11:06:54Z</time>
      </trkpt>
      <trkpt lat="59.7391341" lon="17.7341446">
        <ele>17.4412</ele>
        <time>2013-05-26T11:06:55Z</time>
      </trkpt>
      <trkpt lat="59.7391133" lon="17.7339343">
        <ele>17.4412</ele>
        <time>2013-05-26T11:06:56Z</time>
      </trkpt>
      <trkpt lat="59.7390812" lon="17.7337309">
        <ele>17.4412</ele>
        <time>2013-05-26T11:06:57Z</time>
      </trkpt>
      <trkpt lat="59.7390399" lon="17.733536">
        <ele>17.4412</ele>
        <time>2013-05-26T11:06:58Z</time>
      </trkpt>
      <trkpt lat="59.7389924" lon="17.7333506">
        <ele>16.9604</ele>
        <time>2013-05-26T11:06:59Z</time>
      </trkpt>
      <trkpt lat="59.7389415" lon="17.7331728">
        <ele>16.9604</ele>
        <time>2013-05-26T11:07:00Z</time>
      </trkpt>
      <trkpt lat="59.7388897" lon="17.7329986">
        <ele>16.9604</ele>
        <time>2013-05-26T11:07:01Z</time>
      </trkpt>
      <trkpt lat="59.7388394" lon="17.7328233">
        <ele>17.4412</ele>
        <time>2013-05-26T11:07:02Z</time>
      </trkpt>
      <trkpt lat="59.7387904" lon="17.7326513">
        <ele>17.4412</ele>
        <time>2013-05-26T11:07:03Z</time>
      </trkpt>
      <trkpt lat="59.7387395" lon="17.7324834">
        <ele>17.4412</ele>
        <time>2013-05-26T11:07:04Z</time>
      </trkpt>
      <trkpt lat="59.7386868" lon="17.7323175">
        <ele>17.4412</ele>
        <time>2013-05-26T11:07:05Z</time>
      </trkpt>
      <trkpt lat="59.7386336" lon="17.7321524">
        <ele>17.4412</ele>
        <time>2013-05-26T11:07:06Z</time>
      </trkpt>
      <trkpt lat="59.7385801" lon="17.7319877">
        <ele>17.4412</ele>
        <time>2013-05-26T11:07:07Z</time>
      </trkpt>
      <trkpt lat="59.7385274" lon="17.7318253">
        <ele>17.4412</ele>
        <time>2013-05-26T11:07:08Z</time>
      </trkpt>
      <trkpt lat="59.7384742" lon="17.7316664">
        <ele>17.4412</ele>
        <time>2013-05-26T11:07:09Z</time>
      </trkpt>
      <trkpt lat="59.7384207" lon="17.731508">
        <ele>17.4412</ele>
        <time>2013-05-26T11:07:10Z</time>
      </trkpt>
      <trkpt lat="59.7383675" lon="17.7313494">
        <ele>17.4412</ele>
        <time>2013-05-26T11:07:11Z</time>
      </trkpt>
      <trkpt lat="59.7383145" lon="17.7311915">
        <ele>17.4412</ele>
        <time>2013-05-26T11:07:12Z</time>
      </trkpt>
      <trkpt lat="59.7382622" lon="17.7310344">
        <ele>17.9218</ele>
        <time>2013-05-26T11:07:13Z</time>
      </trkpt>
      <trkpt lat="59.7382115" lon="17.730877">
        <ele>17.9218</ele>
        <time>2013-05-26T11:07:14Z</time>
      </trkpt>
      <trkpt lat="59.7381615" lon="17.7307222">
        <ele>17.9218</ele>
        <time>2013-05-26T11:07:15Z</time>
      </trkpt>
      <trkpt lat="59.7381125" lon="17.7305699">
        <ele>17.9218</ele>
        <time>2013-05-26T11:07:16Z</time>
      </trkpt>
      <trkpt lat="59.7380656" lon="17.730421">
        <ele>18.4023</ele>
        <time>2013-05-26T11:07:17Z</time>
      </trkpt>
      <trkpt lat="59.7380198" lon="17.7302749">
        <ele>18.4023</ele>
        <time>2013-05-26T11:07:18Z</time>
      </trkpt>
      <trkpt lat="59.7379752" lon="17.7301309">
        <ele>18.4023</ele>
        <time>2013-05-26T11:07:19Z</time>
      </trkpt>
      <trkpt lat="59.7379345" lon="17.72998">
        <ele>18.4023</ele>
        <time>2013-05-26T11:07:20Z</time>
      </trkpt>
      <trkpt lat="59.7378977" lon="17.729826">
        <ele>17.9218</ele>
        <time>2013-05-26T11:07:21Z</time>
      </trkpt>
      <trkpt lat="59.7378577" lon="17.7296448">
        <ele>16.9604</ele>
        <time>2013-05-26T11:07:22Z</time>
      </trkpt>
      <trkpt lat="59.7378134" lon="17.7294466">
        <ele>15.5184</ele>
        <time>2013-05-26T11:07:23Z</time>
      </trkpt>
      <trkpt lat="59.7377853" lon="17.7292868">
        <ele>15.0377</ele>
        <time>2013-05-26T11:07:24Z</time>
      </trkpt>
      <trkpt lat="59.7377547" lon="17.729111">
        <ele>14.557</ele>
        <time>2013-05-26T11:07:25Z</time>
      </trkpt>
      <trkpt lat="59.7377437" lon="17.7289895">
        <ele>15.0377</ele>
        <time>2013-05-26T11:07:26Z</time>
      </trkpt>
      <trkpt lat="59.7377197" lon="17.7288336">
        <ele>15.0377</ele>
        <time>2013-05-26T11:07:27Z</time>
      </trkpt>
      <trkpt lat="59.7376946" lon="17.7286956">
        <ele>15.0377</ele>
        <time>2013-05-26T11:07:28Z</time>
      </trkpt>
      <trkpt lat="59.7376625" lon="17.7285398">
        <ele>15.0377</ele>
        <time>2013-05-26T11:07:29Z</time>
      </trkpt>
      <trkpt lat="59.7376268" lon="17.7283849">
        <ele>14.557</ele>
        <time>2013-05-26T11:07:30Z</time>
      </trkpt>
      <trkpt lat="59.7375868" lon="17.7282245">
        <ele>14.557</ele>
        <time>2013-05-26T11:07:31Z</time>
      </trkpt>
      <trkpt lat="59.7375432" lon="17.7280632">
        <ele>14.0764</ele>
        <time>2013-05-26T11:07:32Z</time>
      </trkpt>
      <trkpt lat="59.7374984" lon="17.7278943">
        <ele>14.0764</ele>
        <time>2013-05-26T11:07:33Z</time>
      </trkpt>
      <trkpt lat="59.7374553" lon="17.7277192">
        <ele>13.5958</ele>
        <time>2013-05-26T11:07:34Z</time>
      </trkpt>
      <trkpt lat="59.737414" lon="17.7275409">
        <ele>13.5958</ele>
        <time>2013-05-26T11:07:35Z</time>
      </trkpt>
      <trkpt lat="59.7373739" lon="17.7273582">
        <ele>14.0764</ele>
        <time>2013-05-26T11:07:36Z</time>
      </trkpt>
      <trkpt lat="59.7373326" lon="17.7271745">
        <ele>14.0764</ele>
        <time>2013-05-26T11:07:37Z</time>
      </trkpt>
      <trkpt lat="59.7372915" lon="17.7269909">
        <ele>14.0764</ele>
        <time>2013-05-26T11:07:38Z</time>
      </trkpt>
      <trkpt lat="59.7372519" lon="17.726805">
        <ele>14.557</ele>
        <time>2013-05-26T11:07:39Z</time>
      </trkpt>
      <trkpt lat="59.7372145" lon="17.7266183">
        <ele>14.557</ele>
        <time>2013-05-26T11:07:40Z</time>
      </trkpt>
      <trkpt lat="59.7371791" lon="17.7264299">
        <ele>14.557</ele>
        <time>2013-05-26T11:07:41Z</time>
      </trkpt>
      <trkpt lat="59.7371447" lon="17.7262399">
        <ele>14.557</ele>
        <time>2013-05-26T11:07:42Z</time>
      </trkpt>
      <trkpt lat="59.7371124" lon="17.7260477">
        <ele>14.557</ele>
        <time>2013-05-26T11:07:43Z</time>
      </trkpt>
      <trkpt lat="59.7370813" lon="17.7258535">
        <ele>14.557</ele>
        <time>2013-05-26T11:07:44Z</time>
      </trkpt>
      <trkpt lat="59.7370452" lon="17.7256436">
        <ele>13.1151</ele>
        <time>2013-05-26T11:07:45Z</time>
      </trkpt>
      <trkpt lat="59.7370121" lon="17.7254373">
        <ele>12.6344</ele>
        <time>2013-05-26T11:07:46Z</time>
      </trkpt>
      <trkpt lat="59.7369803" lon="17.7252436">
        <ele>12.6344</ele>
        <time>2013-05-26T11:07:47Z</time>
      </trkpt>
      <trkpt lat="59.7369466" lon="17.7250547">
        <ele>12.6344</ele>
        <time>2013-05-26T11:07:48Z</time>
      </trkpt>
      <trkpt lat="59.7369116" lon="17.7248654">
        <ele>13.1151</ele>
        <time>2013-05-26T11:07:49Z</time>
      </trkpt>
      <trkpt lat="59.7368758" lon="17.7246758">
        <ele>13.1151</ele>
        <time>2013-05-26T11:07:50Z</time>
      </trkpt>
      <trkpt lat="59.7368387" lon="17.7244878">
        <ele>13.1151</ele>
        <time>2013-05-26T11:07:51Z</time>
      </trkpt>
      <trkpt lat="59.7368007" lon="17.7243003">
        <ele>13.5958</ele>
        <time>2013-05-26T11:07:52Z</time>
      </trkpt>
      <trkpt lat="59.7367638" lon="17.7241128">
        <ele>13.5958</ele>
        <time>2013-05-26T11:07:53Z</time>
      </trkpt>
      <trkpt lat="59.7367301" lon="17.7239228">
        <ele>13.5958</ele>
        <time>2013-05-26T11:07:54Z</time>
      </trkpt>
      <trkpt lat="59.7366997" lon="17.723728">
        <ele>14.0764</ele>
        <time>2013-05-26T11:07:55Z</time>
      </trkpt>
      <trkpt lat="59.7366706" lon="17.7235322">
        <ele>14.0764</ele>
        <time>2013-05-26T11:07:56Z</time>
      </trkpt>
      <trkpt lat="59.7366409" lon="17.7233393">
        <ele>14.557</ele>
        <time>2013-05-26T11:07:57Z</time>
      </trkpt>
      <trkpt lat="59.7366115" lon="17.723148">
        <ele>14.557</ele>
        <time>2013-05-26T11:07:58Z</time>
      </trkpt>
      <trkpt lat="59.73658" lon="17.7229598">
        <ele>15.0377</ele>
        <time>2013-05-26T11:07:59Z</time>
      </trkpt>
      <trkpt lat="59.7365433" lon="17.722778">
        <ele>15.0377</ele>
        <time>2013-05-26T11:08:00Z</time>
      </trkpt>
      <trkpt lat="59.7364991" lon="17.7226039">
        <ele>15.5184</ele>
        <time>2013-05-26T11:08:01Z</time>
      </trkpt>
      <trkpt lat="59.7364469" lon="17.72244">
        <ele>15.5184</ele>
        <time>2013-05-26T11:08:02Z</time>
      </trkpt>
      <trkpt lat="59.7363913" lon="17.7222834">
        <ele>15.5184</ele>
        <time>2013-05-26T11:08:03Z</time>
      </trkpt>
      <trkpt lat="59.7363329" lon="17.7221274">
        <ele>15.5184</ele>
        <time>2013-05-26T11:08:04Z</time>
      </trkpt>
      <trkpt lat="59.7362712" lon="17.7219712">
        <ele>15.5184</ele>
        <time>2013-05-26T11:08:05Z</time>
      </trkpt>
      <trkpt lat="59.736208" lon="17.7218171">
        <ele>15.5184</ele>
        <time>2013-05-26T11:08:06Z</time>
      </trkpt>
      <trkpt lat="59.7361467" lon="17.7216662">
        <ele>15.999</ele>
        <time>2013-05-26T11:08:07Z</time>
      </trkpt>
      <trkpt lat="59.7360856" lon="17.721514">
        <ele>16.4797</ele>
        <time>2013-05-26T11:08:08Z</time>
      </trkpt>
      <trkpt lat="59.7360261" lon="17.7213683">
        <ele>16.4797</ele>
        <time>2013-05-26T11:08:09Z</time>
      </trkpt>
      <trkpt lat="59.7359697" lon="17.721226">
        <ele>16.9604</ele>
        <time>2013-05-26T11:08:10Z</time>
      </trkpt>
      <trkpt lat="59.7359169" lon="17.7210881">
        <ele>17.4412</ele>
        <time>2013-05-26T11:08:11Z</time>
      </trkpt>
      <trkpt lat="59.735866" lon="17.720952">
        <ele>17.9218</ele>
        <time>2013-05-26T11:08:12Z</time>
      </trkpt>
      <trkpt lat="59.7358165" lon="17.7208153">
        <ele>17.9218</ele>
        <time>2013-05-26T11:08:13Z</time>
      </trkpt>
      <trkpt lat="59.7357672" lon="17.7206745">
        <ele>18.4023</ele>
        <time>2013-05-26T11:08:14Z</time>
      </trkpt>
      <trkpt lat="59.7357168" lon="17.7205343">
        <ele>18.4023</ele>
        <time>2013-05-26T11:08:15Z</time>
      </trkpt>
      <trkpt lat="59.7356667" lon="17.7203952">
        <ele>18.4023</ele>
        <time>2013-05-26T11:08:16Z</time>
      </trkpt>
      <trkpt lat="59.7356173" lon="17.720254">
        <ele>18.4023</ele>
        <time>2013-05-26T11:08:17Z</time>
      </trkpt>
      <trkpt lat="59.7355678" lon="17.7201107">
        <ele>18.4023</ele>
        <time>2013-05-26T11:08:18Z</time>
      </trkpt>
      <trkpt lat="59.7355171" lon="17.7199674">
        <ele>17.9218</ele>
        <time>2013-05-26T11:08:19Z</time>
      </trkpt>
      <trkpt lat="59.7354661" lon="17.7198222">
        <ele>17.9218</ele>
        <time>2013-05-26T11:08:20Z</time>
      </trkpt>
      <trkpt lat="59.7354137" lon="17.7196761">
        <ele>17.9218</ele>
        <time>2013-05-26T11:08:21Z</time>
      </trkpt>
      <trkpt lat="59.7353595" lon="17.7195275">
        <ele>17.4412</ele>
        <time>2013-05-26T11:08:22Z</time>
      </trkpt>
      <trkpt lat="59.7353059" lon="17.7193724">
        <ele>17.4412</ele>
        <time>2013-05-26T11:08:23Z</time>
      </trkpt>
      <trkpt lat="59.7352537" lon="17.7192124">
        <ele>16.9604</ele>
        <time>2013-05-26T11:08:24Z</time>
      </trkpt>
      <trkpt lat="59.7352047" lon="17.7190525">
        <ele>16.9604</ele>
        <time>2013-05-26T11:08:25Z</time>
      </trkpt>
      <trkpt lat="59.7351609" lon="17.718892">
        <ele>16.9604</ele>
        <time>2013-05-26T11:08:26Z</time>
      </trkpt>
      <trkpt lat="59.7351207" lon="17.7187135">
        <ele>16.4797</ele>
        <time>2013-05-26T11:08:27Z</time>
      </trkpt>
      <trkpt lat="59.7350834" lon="17.7185208">
        <ele>15.999</ele>
        <time>2013-05-26T11:08:28Z</time>
      </trkpt>
      <trkpt lat="59.7350519" lon="17.7183231">
        <ele>15.5184</ele>
        <time>2013-05-26T11:08:29Z</time>
      </trkpt>
      <trkpt lat="59.7350243" lon="17.71812">
        <ele>15.5184</ele>
        <time>2013-05-26T11:08:30Z</time>
      </trkpt>
      <trkpt lat="59.7350008" lon="17.7179134">
        <ele>15.5184</ele>
        <time>2013-05-26T11:08:31Z</time>
      </trkpt>
      <trkpt lat="59.7349827" lon="17.7177068">
        <ele>15.5184</ele>
        <time>2013-05-26T11:08:32Z</time>
      </trkpt>
      <trkpt lat="59.7349672" lon="17.7175022">
        <ele>15.5184</ele>
        <time>2013-05-26T11:08:33Z</time>
      </trkpt>
      <trkpt lat="59.7349519" lon="17.7173015">
        <ele>15.5184</ele>
        <time>2013-05-26T11:08:34Z</time>
      </trkpt>
      <trkpt lat="59.7349364" lon="17.7171049">
        <ele>15.999</ele>
        <time>2013-05-26T11:08:35Z</time>
      </trkpt>
      <trkpt lat="59.7349211" lon="17.7169109">
        <ele>15.999</ele>
        <time>2013-05-26T11:08:36Z</time>
      </trkpt>
      <trkpt lat="59.7349069" lon="17.7167199">
        <ele>16.4797</ele>
        <time>2013-05-26T11:08:37Z</time>
      </trkpt>
      <trkpt lat="59.7348941" lon="17.716536">
        <ele>16.4797</ele>
        <time>2013-05-26T11:08:38Z</time>
      </trkpt>
      <trkpt lat="59.7348846" lon="17.7163589">
        <ele>16.9604</ele>
        <time>2013-05-26T11:08:39Z</time>
      </trkpt>
      <trkpt lat="59.7348803" lon="17.7161853">
        <ele>17.4412</ele>
        <time>2013-05-26T11:08:40Z</time>
      </trkpt>
      <trkpt lat="59.7348846" lon="17.7160212">
        <ele>17.4412</ele>
        <time>2013-05-26T11:08:41Z</time>
      </trkpt>
      <trkpt lat="59.7348993" lon="17.7158634">
        <ele>17.9218</ele>
        <time>2013-05-26T11:08:42Z</time>
      </trkpt>
      <trkpt lat="59.7349273" lon="17.7157173">
        <ele>17.9218</ele>
        <time>2013-05-26T11:08:43Z</time>
      </trkpt>
      <trkpt lat="59.7349679" lon="17.7155811">
        <ele>18.4023</ele>
        <time>2013-05-26T11:08:44Z</time>
      </trkpt>
      <trkpt lat="59.7350223" lon="17.7154653">
        <ele>18.4023</ele>
        <time>2013-05-26T11:08:45Z</time>
      </trkpt>
      <trkpt lat="59.7350839" lon="17.7153818">
        <ele>18.8831</ele>
        <time>2013-05-26T11:08:46Z</time>
      </trkpt>
      <trkpt lat="59.73515" lon="17.7153166">
        <ele>19.3638</ele>
        <time>2013-05-26T11:08:47Z</time>
      </trkpt>
      <trkpt lat="59.7352168" lon="17.7152647">
        <ele>19.8444</ele>
        <time>2013-05-26T11:08:48Z</time>
      </trkpt>
      <trkpt lat="59.7352844" lon="17.7152359">
        <ele>20.8057</ele>
        <time>2013-05-26T11:08:49Z</time>
      </trkpt>
      <trkpt lat="59.7353484" lon="17.7152042">
        <ele>21.2864</ele>
        <time>2013-05-26T11:08:50Z</time>
      </trkpt>
      <trkpt lat="59.7354092" lon="17.7151695">
        <ele>22.2476</ele>
        <time>2013-05-26T11:08:51Z</time>
      </trkpt>
      <trkpt lat="59.7354666" lon="17.7151306">
        <ele>22.2476</ele>
        <time>2013-05-26T11:08:52Z</time>
      </trkpt>
      <trkpt lat="59.7355225" lon="17.715087">
        <ele>22.7283</ele>
        <time>2013-05-26T11:08:53Z</time>
      </trkpt>
      <trkpt lat="59.7355765" lon="17.7150316">
        <ele>22.2476</ele>
        <time>2013-05-26T11:08:54Z</time>
      </trkpt>
      <trkpt lat="59.7356295" lon="17.7149721">
        <ele>21.767</ele>
        <time>2013-05-26T11:08:55Z</time>
      </trkpt>
      <trkpt lat="59.7356801" lon="17.7149053">
        <ele>21.2864</ele>
        <time>2013-05-26T11:08:56Z</time>
      </trkpt>
      <trkpt lat="59.7357265" lon="17.7148158">
        <ele>21.2864</ele>
        <time>2013-05-26T11:08:57Z</time>
      </trkpt>
      <trkpt lat="59.7357631" lon="17.7147105">
        <ele>20.8057</ele>
        <time>2013-05-26T11:08:58Z</time>
      </trkpt>
      <trkpt lat="59.7357898" lon="17.7145934">
        <ele>19.3638</ele>
        <time>2013-05-26T11:08:59Z</time>
      </trkpt>
      <trkpt lat="59.7358108" lon="17.7144728">
        <ele>19.8444</ele>
        <time>2013-05-26T11:09:00Z</time>
      </trkpt>
      <trkpt lat="59.7358258" lon="17.7143477">
        <ele>20.8057</ele>
        <time>2013-05-26T11:09:01Z</time>
      </trkpt>
      <trkpt lat="59.7358377" lon="17.714227">
        <ele>21.2864</ele>
        <time>2013-05-26T11:09:02Z</time>
      </trkpt>
      <trkpt lat="59.7358472" lon="17.7141288">
        <ele>22.2476</ele>
        <time>2013-05-26T11:09:03Z</time>
      </trkpt>
      <trkpt lat="59.7358491" lon="17.7140353">
        <ele>22.7283</ele>
        <time>2013-05-26T11:09:04Z</time>
      </trkpt>
      <trkpt lat="59.7358457" lon="17.7139406">
        <ele>24.1703</ele>
        <time>2013-05-26T11:09:05Z</time>
      </trkpt>
      <trkpt lat="59.7358362" lon="17.713848">
        <ele>24.1703</ele>
        <time>2013-05-26T11:09:06Z</time>
      </trkpt>
      <trkpt lat="59.7358252" lon="17.7137575">
        <ele>25.1317</ele>
        <time>2013-05-26T11:09:07Z</time>
      </trkpt>
      <trkpt lat="59.7358064" lon="17.7136461">
        <ele>24.651</ele>
        <time>2013-05-26T11:09:08Z</time>
      </trkpt>
      <trkpt lat="59.7357924" lon="17.7135381">
        <ele>24.651</ele>
        <time>2013-05-26T11:09:09Z</time>
      </trkpt>
      <trkpt lat="59.7357755" lon="17.7134233">
        <ele>24.651</ele>
        <time>2013-05-26T11:09:10Z</time>
      </trkpt>
      <trkpt lat="59.7357546" lon="17.7133042">
        <ele>24.651</ele>
        <time>2013-05-26T11:09:11Z</time>
      </trkpt>
      <trkpt lat="59.7357283" lon="17.7131682">
        <ele>23.6896</ele>
        <time>2013-05-26T11:09:12Z</time>
      </trkpt>
      <trkpt lat="59.7357067" lon="17.7130389">
        <ele>23.6896</ele>
        <time>2013-05-26T11:09:13Z</time>
      </trkpt>
      <trkpt lat="59.7356873" lon="17.7129021">
        <ele>23.6896</ele>
        <time>2013-05-26T11:09:14Z</time>
      </trkpt>
      <trkpt lat="59.7356687" lon="17.7127591">
        <ele>23.6896</ele>
        <time>2013-05-26T11:09:15Z</time>
      </trkpt>
      <trkpt lat="59.7356396" lon="17.7126115">
        <ele>23.6896</ele>
        <time>2013-05-26T11:09:16Z</time>
      </trkpt>
      <trkpt lat="59.7356019" lon="17.7124784">
        <ele>23.6896</ele>
        <time>2013-05-26T11:09:17Z</time>
      </trkpt>
      <trkpt lat="59.7355527" lon="17.7123536">
        <ele>23.209</ele>
        <time>2013-05-26T11:09:18Z</time>
      </trkpt>
      <trkpt lat="59.7354802" lon="17.7122503">
        <ele>21.2864</ele>
        <time>2013-05-26T11:09:19Z</time>
      </trkpt>
      <trkpt lat="59.7353973" lon="17.712179">
        <ele>20.325</ele>
        <time>2013-05-26T11:09:20Z</time>
      </trkpt>
      <trkpt lat="59.7353096" lon="17.7121096">
        <ele>19.8444</ele>
        <time>2013-05-26T11:09:21Z</time>
      </trkpt>
      <trkpt lat="59.735216" lon="17.7120464">
        <ele>18.8831</ele>
        <time>2013-05-26T11:09:22Z</time>
      </trkpt>
      <trkpt lat="59.7351013" lon="17.7119678">
        <ele>18.4023</ele>
        <time>2013-05-26T11:09:23Z</time>
      </trkpt>
      <trkpt lat="59.7350003" lon="17.7119055">
        <ele>17.9218</ele>
        <time>2013-05-26T11:09:24Z</time>
      </trkpt>
      <trkpt lat="59.7349067" lon="17.7118438">
        <ele>16.9604</ele>
        <time>2013-05-26T11:09:25Z</time>
      </trkpt>
      <trkpt lat="59.7348145" lon="17.711766">
        <ele>15.999</ele>
        <time>2013-05-26T11:09:26Z</time>
      </trkpt>
      <trkpt lat="59.7347255" lon="17.7116448">
        <ele>15.0377</ele>
        <time>2013-05-26T11:09:27Z</time>
      </trkpt>
      <trkpt lat="59.7346703" lon="17.7114998">
        <ele>15.0377</ele>
        <time>2013-05-26T11:09:28Z</time>
      </trkpt>
      <trkpt lat="59.7346312" lon="17.7113631">
        <ele>15.0377</ele>
        <time>2013-05-26T11:09:29Z</time>
      </trkpt>
      <trkpt lat="59.7346104" lon="17.711175">
        <ele>14.557</ele>
        <time>2013-05-26T11:09:30Z</time>
      </trkpt>
      <trkpt lat="59.7346105" lon="17.7109708">
        <ele>14.557</ele>
        <time>2013-05-26T11:09:31Z</time>
      </trkpt>
      <trkpt lat="59.7346136" lon="17.7107786">
        <ele>15.0377</ele>
        <time>2013-05-26T11:09:32Z</time>
      </trkpt>
      <trkpt lat="59.7346185" lon="17.7105969">
        <ele>14.0764</ele>
        <time>2013-05-26T11:09:33Z</time>
      </trkpt>
      <trkpt lat="59.7346211" lon="17.7104096">
        <ele>14.0764</ele>
        <time>2013-05-26T11:09:34Z</time>
      </trkpt>
      <trkpt lat="59.7346229" lon="17.7102266">
        <ele>14.557</ele>
        <time>2013-05-26T11:09:35Z</time>
      </trkpt>
      <trkpt lat="59.734625" lon="17.7100542">
        <ele>15.5184</ele>
        <time>2013-05-26T11:09:36Z</time>
      </trkpt>
      <trkpt lat="59.7346358" lon="17.7098789">
        <ele>15.999</ele>
        <time>2013-05-26T11:09:37Z</time>
      </trkpt>
      <trkpt lat="59.7346418" lon="17.7097146">
        <ele>16.4797</ele>
        <time>2013-05-26T11:09:38Z</time>
      </trkpt>
      <trkpt lat="59.734645" lon="17.7095485">
        <ele>16.9604</ele>
        <time>2013-05-26T11:09:39Z</time>
      </trkpt>
      <trkpt lat="59.7346453" lon="17.70939">
        <ele>17.4412</ele>
        <time>2013-05-26T11:09:40Z</time>
      </trkpt>
      <trkpt lat="59.7346446" lon="17.7092377">
        <ele>18.4023</ele>
        <time>2013-05-26T11:09:41Z</time>
      </trkpt>
      <trkpt lat="59.7346467" lon="17.7090828">
        <ele>18.8831</ele>
        <time>2013-05-26T11:09:42Z</time>
      </trkpt>
      <trkpt lat="59.7346524" lon="17.7089248">
        <ele>18.8831</ele>
        <time>2013-05-26T11:09:43Z</time>
      </trkpt>
      <trkpt lat="59.7346544" lon="17.7087718">
        <ele>19.3638</ele>
        <time>2013-05-26T11:09:44Z</time>
      </trkpt>
      <trkpt lat="59.7346523" lon="17.7086264">
        <ele>19.3638</ele>
        <time>2013-05-26T11:09:45Z</time>
      </trkpt>
      <trkpt lat="59.7346462" lon="17.7084843">
        <ele>19.8444</ele>
        <time>2013-05-26T11:09:46Z</time>
      </trkpt>
      <trkpt lat="59.7346336" lon="17.7083279">
        <ele>20.325</ele>
        <time>2013-05-26T11:09:47Z</time>
      </trkpt>
      <trkpt lat="59.734627" lon="17.7081799">
        <ele>20.325</ele>
        <time>2013-05-26T11:09:48Z</time>
      </trkpt>
      <trkpt lat="59.7346191" lon="17.7080204">
        <ele>20.325</ele>
        <time>2013-05-26T11:09:49Z</time>
      </trkpt>
      <trkpt lat="59.734613" lon="17.7078707">
        <ele>20.8057</ele>
        <time>2013-05-26T11:09:50Z</time>
      </trkpt>
      <trkpt lat="59.7346073" lon="17.7077266">
        <ele>20.325</ele>
        <time>2013-05-26T11:09:51Z</time>
      </trkpt>
      <trkpt lat="59.7345971" lon="17.7075706">
        <ele>19.8444</ele>
        <time>2013-05-26T11:09:52Z</time>
      </trkpt>
      <trkpt lat="59.7345829" lon="17.7074048">
        <ele>20.325</ele>
        <time>2013-05-26T11:09:53Z</time>
      </trkpt>
      <trkpt lat="59.7345676" lon="17.70723">
        <ele>20.325</ele>
        <time>2013-05-26T11:09:54Z</time>
      </trkpt>
      <trkpt lat="59.7345585" lon="17.7070533">
        <ele>20.325</ele>
        <time>2013-05-26T11:09:55Z</time>
      </trkpt>
      <trkpt lat="59.7345539" lon="17.706872">
        <ele>20.8057</ele>
        <time>2013-05-26T11:09:56Z</time>
      </trkpt>
      <trkpt lat="59.7345513" lon="17.7067043">
        <ele>20.8057</ele>
        <time>2013-05-26T11:09:57Z</time>
      </trkpt>
      <trkpt lat="59.7345455" lon="17.7065342">
        <ele>21.767</ele>
        <time>2013-05-26T11:09:58Z</time>
      </trkpt>
      <trkpt lat="59.7345383" lon="17.7063721">
        <ele>22.2476</ele>
        <time>2013-05-26T11:09:59Z</time>
      </trkpt>
      <trkpt lat="59.7345275" lon="17.7062183">
        <ele>22.2476</ele>
        <time>2013-05-26T11:10:00Z</time>
      </trkpt>
      <trkpt lat="59.7345131" lon="17.7060746">
        <ele>22.7283</ele>
        <time>2013-05-26T11:10:01Z</time>
      </trkpt>
      <trkpt lat="59.7344949" lon="17.7059234">
        <ele>22.7283</ele>
        <time>2013-05-26T11:10:02Z</time>
      </trkpt>
      <trkpt lat="59.7344664" lon="17.7057423">
        <ele>21.2864</ele>
        <time>2013-05-26T11:10:03Z</time>
      </trkpt>
      <trkpt lat="59.73444" lon="17.7055681">
        <ele>20.8057</ele>
        <time>2013-05-26T11:10:04Z</time>
      </trkpt>
      <trkpt lat="59.7344219" lon="17.7053884">
        <ele>20.8057</ele>
        <time>2013-05-26T11:10:05Z</time>
      </trkpt>
      <trkpt lat="59.7344057" lon="17.7051947">
        <ele>19.8444</ele>
        <time>2013-05-26T11:10:06Z</time>
      </trkpt>
      <trkpt lat="59.7343906" lon="17.7050106">
        <ele>19.3638</ele>
        <time>2013-05-26T11:10:07Z</time>
      </trkpt>
      <trkpt lat="59.7343758" lon="17.704828">
        <ele>19.3638</ele>
        <time>2013-05-26T11:10:08Z</time>
      </trkpt>
      <trkpt lat="59.7343597" lon="17.704646">
        <ele>18.8831</ele>
        <time>2013-05-26T11:10:09Z</time>
      </trkpt>
      <trkpt lat="59.7343447" lon="17.7044679">
        <ele>18.8831</ele>
        <time>2013-05-26T11:10:10Z</time>
      </trkpt>
      <trkpt lat="59.734331" lon="17.70429">
        <ele>18.8831</ele>
        <time>2013-05-26T11:10:11Z</time>
      </trkpt>
      <trkpt lat="59.7343167" lon="17.7041082">
        <ele>18.4023</ele>
        <time>2013-05-26T11:10:12Z</time>
      </trkpt>
      <trkpt lat="59.7343026" lon="17.7039162">
        <ele>17.9218</ele>
        <time>2013-05-26T11:10:13Z</time>
      </trkpt>
      <trkpt lat="59.7343017" lon="17.7037339">
        <ele>18.8831</ele>
        <time>2013-05-26T11:10:14Z</time>
      </trkpt>
      <trkpt lat="59.734313" lon="17.7035632">
        <ele>19.3638</ele>
        <time>2013-05-26T11:10:15Z</time>
      </trkpt>
      <trkpt lat="59.7343359" lon="17.7034087">
        <ele>18.8831</ele>
        <time>2013-05-26T11:10:16Z</time>
      </trkpt>
      <trkpt lat="59.7343616" lon="17.7032537">
        <ele>19.3638</ele>
        <time>2013-05-26T11:10:17Z</time>
      </trkpt>
      <trkpt lat="59.7343903" lon="17.7031035">
        <ele>18.8831</ele>
        <time>2013-05-26T11:10:18Z</time>
      </trkpt>
      <trkpt lat="59.7344132" lon="17.7029491">
        <ele>18.8831</ele>
        <time>2013-05-26T11:10:19Z</time>
      </trkpt>
      <trkpt lat="59.7344277" lon="17.7027857">
        <ele>18.8831</ele>
        <time>2013-05-26T11:10:20Z</time>
      </trkpt>
      <trkpt lat="59.7344354" lon="17.702605">
        <ele>19.3638</ele>
        <time>2013-05-26T11:10:21Z</time>
      </trkpt>
      <trkpt lat="59.7344343" lon="17.7024351">
        <ele>19.8444</ele>
        <time>2013-05-26T11:10:22Z</time>
      </trkpt>
      <trkpt lat="59.7344421" lon="17.7022752">
        <ele>20.325</ele>
        <time>2013-05-26T11:10:23Z</time>
      </trkpt>
      <trkpt lat="59.7344477" lon="17.7021136">
        <ele>20.325</ele>
        <time>2013-05-26T11:10:24Z</time>
      </trkpt>
      <trkpt lat="59.7344587" lon="17.701971">
        <ele>19.8444</ele>
        <time>2013-05-26T11:10:25Z</time>
      </trkpt>
      <trkpt lat="59.7344623" lon="17.7018306">
        <ele>20.325</ele>
        <time>2013-05-26T11:10:26Z</time>
      </trkpt>
      <trkpt lat="59.7344674" lon="17.7016862">
        <ele>20.325</ele>
        <time>2013-05-26T11:10:27Z</time>
      </trkpt>
      <trkpt lat="59.7344685" lon="17.7015412">
        <ele>20.325</ele>
        <time>2013-05-26T11:10:28Z</time>
      </trkpt>
      <trkpt lat="59.7344648" lon="17.7013827">
        <ele>19.3638</ele>
        <time>2013-05-26T11:10:29Z</time>
      </trkpt>
      <trkpt lat="59.7344603" lon="17.7012303">
        <ele>18.4023</ele>
        <time>2013-05-26T11:10:30Z</time>
      </trkpt>
      <trkpt lat="59.7344565" lon="17.7010887">
        <ele>17.9218</ele>
        <time>2013-05-26T11:10:31Z</time>
      </trkpt>
      <trkpt lat="59.7344491" lon="17.7009475">
        <ele>17.4412</ele>
        <time>2013-05-26T11:10:32Z</time>
      </trkpt>
      <trkpt lat="59.7344391" lon="17.7008102">
        <ele>17.4412</ele>
        <time>2013-05-26T11:10:33Z</time>
      </trkpt>
      <trkpt lat="59.7344301" lon="17.7006744">
        <ele>16.9604</ele>
        <time>2013-05-26T11:10:34Z</time>
      </trkpt>
      <trkpt lat="59.7344198" lon="17.70053">
        <ele>15.999</ele>
        <time>2013-05-26T11:10:35Z</time>
      </trkpt>
      <trkpt lat="59.7344124" lon="17.7003963">
        <ele>16.4797</ele>
        <time>2013-05-26T11:10:36Z</time>
      </trkpt>
      <trkpt lat="59.7344058" lon="17.7002625">
        <ele>16.9604</ele>
        <time>2013-05-26T11:10:37Z</time>
      </trkpt>
      <trkpt lat="59.7344002" lon="17.7001238">
        <ele>16.9604</ele>
        <time>2013-05-26T11:10:38Z</time>
      </trkpt>
      <trkpt lat="59.734395" lon="17.699986">
        <ele>17.4412</ele>
        <time>2013-05-26T11:10:39Z</time>
      </trkpt>
      <trkpt lat="59.734393" lon="17.6998505">
        <ele>17.4412</ele>
        <time>2013-05-26T11:10:40Z</time>
      </trkpt>
      <trkpt lat="59.7343903" lon="17.6997171">
        <ele>17.4412</ele>
        <time>2013-05-26T11:10:41Z</time>
      </trkpt>
      <trkpt lat="59.7343847" lon="17.6995815">
        <ele>17.4412</ele>
        <time>2013-05-26T11:10:42Z</time>
      </trkpt>
      <trkpt lat="59.7343751" lon="17.6994423">
        <ele>17.9218</ele>
        <time>2013-05-26T11:10:43Z</time>
      </trkpt>
      <trkpt lat="59.7343652" lon="17.6993044">
        <ele>18.8831</ele>
        <time>2013-05-26T11:10:44Z</time>
      </trkpt>
      <trkpt lat="59.7343582" lon="17.6991712">
        <ele>18.8831</ele>
        <time>2013-05-26T11:10:45Z</time>
      </trkpt>
      <trkpt lat="59.7343499" lon="17.6990329">
        <ele>19.3638</ele>
        <time>2013-05-26T11:10:46Z</time>
      </trkpt>
      <trkpt lat="59.7343385" lon="17.6988988">
        <ele>19.8444</ele>
        <time>2013-05-26T11:10:47Z</time>
      </trkpt>
      <trkpt lat="59.7343291" lon="17.698777">
        <ele>21.2864</ele>
        <time>2013-05-26T11:10:48Z</time>
      </trkpt>
      <trkpt lat="59.7343167" lon="17.6986548">
        <ele>21.767</ele>
        <time>2013-05-26T11:10:49Z</time>
      </trkpt>
      <trkpt lat="59.7343012" lon="17.6985393">
        <ele>21.767</ele>
        <time>2013-05-26T11:10:50Z</time>
      </trkpt>
      <trkpt lat="59.7342842" lon="17.6984306">
        <ele>21.767</ele>
        <time>2013-05-26T11:10:51Z</time>
      </trkpt>
      <trkpt lat="59.7342649" lon="17.6983247">
        <ele>21.767</ele>
        <time>2013-05-26T11:10:52Z</time>
      </trkpt>
      <trkpt lat="59.7342492" lon="17.6982143">
        <ele>21.767</ele>
        <time>2013-05-26T11:10:53Z</time>
      </trkpt>
      <trkpt lat="59.7342395" lon="17.6980995">
        <ele>21.767</ele>
        <time>2013-05-26T11:10:54Z</time>
      </trkpt>
      <trkpt lat="59.7342364" lon="17.6979845">
        <ele>21.767</ele>
        <time>2013-05-26T11:10:55Z</time>
      </trkpt>
      <trkpt lat="59.7342388" lon="17.6978664">
        <ele>21.767</ele>
        <time>2013-05-26T11:10:56Z</time>
      </trkpt>
      <trkpt lat="59.7342432" lon="17.6977446">
        <ele>21.767</ele>
        <time>2013-05-26T11:10:57Z</time>
      </trkpt>
      <trkpt lat="59.7342472" lon="17.6976198">
        <ele>21.767</ele>
        <time>2013-05-26T11:10:58Z</time>
      </trkpt>
      <trkpt lat="59.7342519" lon="17.6974929">
        <ele>21.767</ele>
        <time>2013-05-26T11:10:59Z</time>
      </trkpt>
      <trkpt lat="59.7342547" lon="17.6973629">
        <ele>21.2864</ele>
        <time>2013-05-26T11:11:00Z</time>
      </trkpt>
      <trkpt lat="59.7342546" lon="17.6972271">
        <ele>21.2864</ele>
        <time>2013-05-26T11:11:01Z</time>
      </trkpt>
      <trkpt lat="59.7342545" lon="17.6970876">
        <ele>21.2864</ele>
        <time>2013-05-26T11:11:02Z</time>
      </trkpt>
      <trkpt lat="59.7342546" lon="17.6969453">
        <ele>20.8057</ele>
        <time>2013-05-26T11:11:03Z</time>
      </trkpt>
      <trkpt lat="59.7342533" lon="17.6967991">
        <ele>20.8057</ele>
        <time>2013-05-26T11:11:04Z</time>
      </trkpt>
      <trkpt lat="59.7342514" lon="17.69665">
        <ele>20.8057</ele>
        <time>2013-05-26T11:11:05Z</time>
      </trkpt>
      <trkpt lat="59.7342498" lon="17.6964966">
        <ele>20.8057</ele>
        <time>2013-05-26T11:11:06Z</time>
      </trkpt>
      <trkpt lat="59.7342489" lon="17.6963414">
        <ele>20.8057</ele>
        <time>2013-05-26T11:11:07Z</time>
      </trkpt>
      <trkpt lat="59.7342468" lon="17.6961875">
        <ele>21.2864</ele>
        <time>2013-05-26T11:11:08Z</time>
      </trkpt>
      <trkpt lat="59.7342436" lon="17.6960288">
        <ele>20.8057</ele>
        <time>2013-05-26T11:11:09Z</time>
      </trkpt>
      <trkpt lat="59.7342402" lon="17.6958689">
        <ele>20.8057</ele>
        <time>2013-05-26T11:11:10Z</time>
      </trkpt>
      <trkpt lat="59.7342364" lon="17.6957063">
        <ele>20.325</ele>
        <time>2013-05-26T11:11:11Z</time>
      </trkpt>
      <trkpt lat="59.7342319" lon="17.6955477">
        <ele>19.8444</ele>
        <time>2013-05-26T11:11:12Z</time>
      </trkpt>
      <trkpt lat="59.7342281" lon="17.6953911">
        <ele>19.8444</ele>
        <time>2013-05-26T11:11:13Z</time>
      </trkpt>
      <trkpt lat="59.7342238" lon="17.6952318">
        <ele>20.325</ele>
        <time>2013-05-26T11:11:14Z</time>
      </trkpt>
      <trkpt lat="59.7342195" lon="17.6950708">
        <ele>20.8057</ele>
        <time>2013-05-26T11:11:15Z</time>
      </trkpt>
      <trkpt lat="59.7342183" lon="17.6949132">
        <ele>20.8057</ele>
        <time>2013-05-26T11:11:16Z</time>
      </trkpt>
      <trkpt lat="59.7342166" lon="17.6947536">
        <ele>20.325</ele>
        <time>2013-05-26T11:11:17Z</time>
      </trkpt>
      <trkpt lat="59.7342137" lon="17.6945944">
        <ele>20.325</ele>
        <time>2013-05-26T11:11:18Z</time>
      </trkpt>
      <trkpt lat="59.7342112" lon="17.6944325">
        <ele>20.325</ele>
        <time>2013-05-26T11:11:19Z</time>
      </trkpt>
      <trkpt lat="59.7342093" lon="17.6942656">
        <ele>19.8444</ele>
        <time>2013-05-26T11:11:20Z</time>
      </trkpt>
      <trkpt lat="59.734211" lon="17.6941121">
        <ele>20.8057</ele>
        <time>2013-05-26T11:11:21Z</time>
      </trkpt>
      <trkpt lat="59.7342111" lon="17.6939516">
        <ele>20.8057</ele>
        <time>2013-05-26T11:11:22Z</time>
      </trkpt>
      <trkpt lat="59.7342105" lon="17.693786">
        <ele>20.8057</ele>
        <time>2013-05-26T11:11:23Z</time>
      </trkpt>
      <trkpt lat="59.7342093" lon="17.6936183">
        <ele>20.325</ele>
        <time>2013-05-26T11:11:24Z</time>
      </trkpt>
      <trkpt lat="59.7342067" lon="17.6934483">
        <ele>19.8444</ele>
        <time>2013-05-26T11:11:25Z</time>
      </trkpt>
      <trkpt lat="59.7342017" lon="17.6932776">
        <ele>20.325</ele>
        <time>2013-05-26T11:11:26Z</time>
      </trkpt>
      <trkpt lat="59.734195" lon="17.6931015">
        <ele>20.325</ele>
        <time>2013-05-26T11:11:27Z</time>
      </trkpt>
      <trkpt lat="59.7341879" lon="17.6929244">
        <ele>19.8444</ele>
        <time>2013-05-26T11:11:28Z</time>
      </trkpt>
      <trkpt lat="59.73418" lon="17.6927447">
        <ele>19.8444</ele>
        <time>2013-05-26T11:11:29Z</time>
      </trkpt>
      <trkpt lat="59.7341774" lon="17.6925526">
        <ele>19.8444</ele>
        <time>2013-05-26T11:11:30Z</time>
      </trkpt>
      <trkpt lat="59.7341748" lon="17.6923641">
        <ele>19.3638</ele>
        <time>2013-05-26T11:11:31Z</time>
      </trkpt>
      <trkpt lat="59.7341681" lon="17.6921761">
        <ele>19.3638</ele>
        <time>2013-05-26T11:11:32Z</time>
      </trkpt>
      <trkpt lat="59.734158" lon="17.6919941">
        <ele>19.3638</ele>
        <time>2013-05-26T11:11:33Z</time>
      </trkpt>
      <trkpt lat="59.7341445" lon="17.6918051">
        <ele>19.3638</ele>
        <time>2013-05-26T11:11:34Z</time>
      </trkpt>
      <trkpt lat="59.7341317" lon="17.6916159">
        <ele>19.3638</ele>
        <time>2013-05-26T11:11:35Z</time>
      </trkpt>
      <trkpt lat="59.734126" lon="17.6914401">
        <ele>19.3638</ele>
        <time>2013-05-26T11:11:36Z</time>
      </trkpt>
      <trkpt lat="59.7341209" lon="17.6912705">
        <ele>19.8444</ele>
        <time>2013-05-26T11:11:37Z</time>
      </trkpt>
      <trkpt lat="59.7341079" lon="17.6910819">
        <ele>19.8444</ele>
        <time>2013-05-26T11:11:38Z</time>
      </trkpt>
      <trkpt lat="59.7340955" lon="17.6908969">
        <ele>19.8444</ele>
        <time>2013-05-26T11:11:39Z</time>
      </trkpt>
      <trkpt lat="59.7340834" lon="17.6907148">
        <ele>20.325</ele>
        <time>2013-05-26T11:11:40Z</time>
      </trkpt>
      <trkpt lat="59.7340765" lon="17.6905439">
        <ele>19.8444</ele>
        <time>2013-05-26T11:11:41Z</time>
      </trkpt>
      <trkpt lat="59.7340668" lon="17.69036">
        <ele>19.8444</ele>
        <time>2013-05-26T11:11:42Z</time>
      </trkpt>
      <trkpt lat="59.7340563" lon="17.6901745">
        <ele>19.8444</ele>
        <time>2013-05-26T11:11:43Z</time>
      </trkpt>
      <trkpt lat="59.7340475" lon="17.689989">
        <ele>19.3638</ele>
        <time>2013-05-26T11:11:44Z</time>
      </trkpt>
      <trkpt lat="59.7340412" lon="17.6898041">
        <ele>19.3638</ele>
        <time>2013-05-26T11:11:45Z</time>
      </trkpt>
      <trkpt lat="59.734037" lon="17.689619">
        <ele>18.8831</ele>
        <time>2013-05-26T11:11:46Z</time>
      </trkpt>
      <trkpt lat="59.7340335" lon="17.6894332">
        <ele>18.8831</ele>
        <time>2013-05-26T11:11:47Z</time>
      </trkpt>
      <trkpt lat="59.7340285" lon="17.6892434">
        <ele>18.8831</ele>
        <time>2013-05-26T11:11:48Z</time>
      </trkpt>
      <trkpt lat="59.7340286" lon="17.6890566">
        <ele>19.3638</ele>
        <time>2013-05-26T11:11:49Z</time>
      </trkpt>
      <trkpt lat="59.7340311" lon="17.6888726">
        <ele>19.3638</ele>
        <time>2013-05-26T11:11:50Z</time>
      </trkpt>
      <trkpt lat="59.7340353" lon="17.6886912">
        <ele>19.8444</ele>
        <time>2013-05-26T11:11:51Z</time>
      </trkpt>
      <trkpt lat="59.7340423" lon="17.6885095">
        <ele>19.8444</ele>
        <time>2013-05-26T11:11:52Z</time>
      </trkpt>
      <trkpt lat="59.7340546" lon="17.6883298">
        <ele>19.8444</ele>
        <time>2013-05-26T11:11:53Z</time>
      </trkpt>
      <trkpt lat="59.734072" lon="17.6881552">
        <ele>19.8444</ele>
        <time>2013-05-26T11:11:54Z</time>
      </trkpt>
      <trkpt lat="59.7340931" lon="17.6879864">
        <ele>19.8444</ele>
        <time>2013-05-26T11:11:55Z</time>
      </trkpt>
      <trkpt lat="59.7341135" lon="17.6878122">
        <ele>19.8444</ele>
        <time>2013-05-26T11:11:56Z</time>
      </trkpt>
      <trkpt lat="59.7341385" lon="17.6876439">
        <ele>20.325</ele>
        <time>2013-05-26T11:11:57Z</time>
      </trkpt>
      <trkpt lat="59.7341664" lon="17.6874793">
        <ele>20.325</ele>
        <time>2013-05-26T11:11:58Z</time>
      </trkpt>
      <trkpt lat="59.7342" lon="17.6873188">
        <ele>20.325</ele>
        <time>2013-05-26T11:11:59Z</time>
      </trkpt>
      <trkpt lat="59.7342363" lon="17.6871601">
        <ele>20.325</ele>
        <time>2013-05-26T11:12:00Z</time>
      </trkpt>
      <trkpt lat="59.7342721" lon="17.6869912">
        <ele>19.3638</ele>
        <time>2013-05-26T11:12:01Z</time>
      </trkpt>
      <trkpt lat="59.7343122" lon="17.686831">
        <ele>19.3638</ele>
        <time>2013-05-26T11:12:02Z</time>
      </trkpt>
      <trkpt lat="59.7343566" lon="17.6866774">
        <ele>19.3638</ele>
        <time>2013-05-26T11:12:03Z</time>
      </trkpt>
      <trkpt lat="59.7344049" lon="17.6865287">
        <ele>18.8831</ele>
        <time>2013-05-26T11:12:04Z</time>
      </trkpt>
      <trkpt lat="59.7344581" lon="17.68638">
        <ele>18.8831</ele>
        <time>2013-05-26T11:12:05Z</time>
      </trkpt>
      <trkpt lat="59.7345114" lon="17.6862261">
        <ele>19.3638</ele>
        <time>2013-05-26T11:12:06Z</time>
      </trkpt>
      <trkpt lat="59.7345643" lon="17.6860709">
        <ele>19.8444</ele>
        <time>2013-05-26T11:12:07Z</time>
      </trkpt>
      <trkpt lat="59.7346196" lon="17.685919">
        <ele>20.325</ele>
        <time>2013-05-26T11:12:08Z</time>
      </trkpt>
      <trkpt lat="59.7346752" lon="17.6857677">
        <ele>20.325</ele>
        <time>2013-05-26T11:12:09Z</time>
      </trkpt>
      <trkpt lat="59.7347318" lon="17.6856137">
        <ele>20.325</ele>
        <time>2013-05-26T11:12:10Z</time>
      </trkpt>
      <trkpt lat="59.734787" lon="17.6854553">
        <ele>20.325</ele>
        <time>2013-05-26T11:12:11Z</time>
      </trkpt>
      <trkpt lat="59.734843" lon="17.6852956">
        <ele>19.8444</ele>
        <time>2013-05-26T11:12:12Z</time>
      </trkpt>
      <trkpt lat="59.734899" lon="17.6851384">
        <ele>19.8444</ele>
        <time>2013-05-26T11:12:13Z</time>
      </trkpt>
      <trkpt lat="59.734954" lon="17.684983">
        <ele>19.3638</ele>
        <time>2013-05-26T11:12:14Z</time>
      </trkpt>
      <trkpt lat="59.7350068" lon="17.6848259">
        <ele>18.8831</ele>
        <time>2013-05-26T11:12:15Z</time>
      </trkpt>
      <trkpt lat="59.7350617" lon="17.6846804">
        <ele>18.8831</ele>
        <time>2013-05-26T11:12:16Z</time>
      </trkpt>
      <trkpt lat="59.7351159" lon="17.6845343">
        <ele>19.3638</ele>
        <time>2013-05-26T11:12:17Z</time>
      </trkpt>
      <trkpt lat="59.7351678" lon="17.6843944">
        <ele>19.3638</ele>
        <time>2013-05-26T11:12:18Z</time>
      </trkpt>
      <trkpt lat="59.7352181" lon="17.6842562">
        <ele>19.3638</ele>
        <time>2013-05-26T11:12:19Z</time>
      </trkpt>
      <trkpt lat="59.7352686" lon="17.6841198">
        <ele>18.8831</ele>
        <time>2013-05-26T11:12:20Z</time>
      </trkpt>
      <trkpt lat="59.7353191" lon="17.6839845">
        <ele>18.8831</ele>
        <time>2013-05-26T11:12:21Z</time>
      </trkpt>
      <trkpt lat="59.7353686" lon="17.6838489">
        <ele>18.8831</ele>
        <time>2013-05-26T11:12:22Z</time>
      </trkpt>
      <trkpt lat="59.7354175" lon="17.6837133">
        <ele>18.8831</ele>
        <time>2013-05-26T11:12:23Z</time>
      </trkpt>
      <trkpt lat="59.7354672" lon="17.6835786">
        <ele>18.8831</ele>
        <time>2013-05-26T11:12:24Z</time>
      </trkpt>
      <trkpt lat="59.7355165" lon="17.6834441">
        <ele>18.4023</ele>
        <time>2013-05-26T11:12:25Z</time>
      </trkpt>
      <trkpt lat="59.7355657" lon="17.6833092">
        <ele>18.4023</ele>
        <time>2013-05-26T11:12:26Z</time>
      </trkpt>
      <trkpt lat="59.7356153" lon="17.6831729">
        <ele>18.4023</ele>
        <time>2013-05-26T11:12:27Z</time>
      </trkpt>
      <trkpt lat="59.735666" lon="17.6830352">
        <ele>17.9218</ele>
        <time>2013-05-26T11:12:28Z</time>
      </trkpt>
      <trkpt lat="59.7357172" lon="17.682895">
        <ele>17.9218</ele>
        <time>2013-05-26T11:12:29Z</time>
      </trkpt>
      <trkpt lat="59.7357692" lon="17.6827565">
        <ele>17.9218</ele>
        <time>2013-05-26T11:12:30Z</time>
      </trkpt>
      <trkpt lat="59.7358224" lon="17.6826162">
        <ele>17.9218</ele>
        <time>2013-05-26T11:12:31Z</time>
      </trkpt>
      <trkpt lat="59.7358766" lon="17.6824737">
        <ele>17.4412</ele>
        <time>2013-05-26T11:12:32Z</time>
      </trkpt>
      <trkpt lat="59.7359314" lon="17.6823302">
        <ele>17.4412</ele>
        <time>2013-05-26T11:12:33Z</time>
      </trkpt>
      <trkpt lat="59.7359871" lon="17.6821841">
        <ele>17.4412</ele>
        <time>2013-05-26T11:12:34Z</time>
      </trkpt>
      <trkpt lat="59.7360416" lon="17.6820344">
        <ele>17.4412</ele>
        <time>2013-05-26T11:12:35Z</time>
      </trkpt>
      <trkpt lat="59.7360969" lon="17.6818864">
        <ele>17.4412</ele>
        <time>2013-05-26T11:12:36Z</time>
      </trkpt>
      <trkpt lat="59.7361518" lon="17.6817412">
        <ele>17.4412</ele>
        <time>2013-05-26T11:12:37Z</time>
      </trkpt>
      <trkpt lat="59.7362075" lon="17.681595">
        <ele>17.4412</ele>
        <time>2013-05-26T11:12:38Z</time>
      </trkpt>
      <trkpt lat="59.7362632" lon="17.681443">
        <ele>17.4412</ele>
        <time>2013-05-26T11:12:39Z</time>
      </trkpt>
      <trkpt lat="59.7363188" lon="17.6812885">
        <ele>16.9604</ele>
        <time>2013-05-26T11:12:40Z</time>
      </trkpt>
      <trkpt lat="59.7363753" lon="17.6811325">
        <ele>16.9604</ele>
        <time>2013-05-26T11:12:41Z</time>
      </trkpt>
      <trkpt lat="59.7364324" lon="17.6809757">
        <ele>16.9604</ele>
        <time>2013-05-26T11:12:42Z</time>
      </trkpt>
      <trkpt lat="59.7364892" lon="17.6808183">
        <ele>16.9604</ele>
        <time>2013-05-26T11:12:43Z</time>
      </trkpt>
      <trkpt lat="59.7365448" lon="17.6806615">
        <ele>16.9604</ele>
        <time>2013-05-26T11:12:44Z</time>
      </trkpt>
      <trkpt lat="59.736599" lon="17.6805058">
        <ele>16.4797</ele>
        <time>2013-05-26T11:12:45Z</time>
      </trkpt>
      <trkpt lat="59.7366524" lon="17.6803447">
        <ele>16.9604</ele>
        <time>2013-05-26T11:12:46Z</time>
      </trkpt>
      <trkpt lat="59.7367052" lon="17.6801873">
        <ele>17.4412</ele>
        <time>2013-05-26T11:12:47Z</time>
      </trkpt>
      <trkpt lat="59.736756" lon="17.6800308">
        <ele>17.9218</ele>
        <time>2013-05-26T11:12:48Z</time>
      </trkpt>
      <trkpt lat="59.7368058" lon="17.6798738">
        <ele>18.4023</ele>
        <time>2013-05-26T11:12:49Z</time>
      </trkpt>
      <trkpt lat="59.7368544" lon="17.6797153">
        <ele>18.8831</ele>
        <time>2013-05-26T11:12:50Z</time>
      </trkpt>
      <trkpt lat="59.7369022" lon="17.6795547">
        <ele>18.8831</ele>
        <time>2013-05-26T11:12:51Z</time>
      </trkpt>
      <trkpt lat="59.7369503" lon="17.6793931">
        <ele>19.3638</ele>
        <time>2013-05-26T11:12:52Z</time>
      </trkpt>
      <trkpt lat="59.736998" lon="17.6792303">
        <ele>19.8444</ele>
        <time>2013-05-26T11:12:53Z</time>
      </trkpt>
      <trkpt lat="59.737043" lon="17.6790622">
        <ele>19.3638</ele>
        <time>2013-05-26T11:12:54Z</time>
      </trkpt>
      <trkpt lat="59.7370875" lon="17.6788979">
        <ele>18.8831</ele>
        <time>2013-05-26T11:12:55Z</time>
      </trkpt>
      <trkpt lat="59.7371317" lon="17.6787399">
        <ele>18.8831</ele>
        <time>2013-05-26T11:12:56Z</time>
      </trkpt>
      <trkpt lat="59.7371754" lon="17.6785838">
        <ele>18.4023</ele>
        <time>2013-05-26T11:12:57Z</time>
      </trkpt>
      <trkpt lat="59.7372184" lon="17.6784274">
        <ele>17.9218</ele>
        <time>2013-05-26T11:12:58Z</time>
      </trkpt>
      <trkpt lat="59.7372627" lon="17.6782728">
        <ele>17.9218</ele>
        <time>2013-05-26T11:12:59Z</time>
      </trkpt>
      <trkpt lat="59.7373077" lon="17.6781181">
        <ele>18.4023</ele>
        <time>2013-05-26T11:13:00Z</time>
      </trkpt>
      <trkpt lat="59.7373519" lon="17.6779608">
        <ele>18.4023</ele>
        <time>2013-05-26T11:13:01Z</time>
      </trkpt>
      <trkpt lat="59.7373959" lon="17.6778024">
        <ele>18.4023</ele>
        <time>2013-05-26T11:13:02Z</time>
      </trkpt>
      <trkpt lat="59.7374401" lon="17.677646">
        <ele>18.4023</ele>
        <time>2013-05-26T11:13:03Z</time>
      </trkpt>
      <trkpt lat="59.7374836" lon="17.6774919">
        <ele>18.4023</ele>
        <time>2013-05-26T11:13:04Z</time>
      </trkpt>
      <trkpt lat="59.7375267" lon="17.6773388">
        <ele>18.4023</ele>
        <time>2013-05-26T11:13:05Z</time>
      </trkpt>
      <trkpt lat="59.7375701" lon="17.6771874">
        <ele>18.4023</ele>
        <time>2013-05-26T11:13:06Z</time>
      </trkpt>
      <trkpt lat="59.7376131" lon="17.6770387">
        <ele>18.8831</ele>
        <time>2013-05-26T11:13:07Z</time>
      </trkpt>
      <trkpt lat="59.7376559" lon="17.6768935">
        <ele>18.8831</ele>
        <time>2013-05-26T11:13:08Z</time>
      </trkpt>
      <trkpt lat="59.7376986" lon="17.6767517">
        <ele>18.8831</ele>
        <time>2013-05-26T11:13:09Z</time>
      </trkpt>
      <trkpt lat="59.7377397" lon="17.6766109">
        <ele>18.8831</ele>
        <time>2013-05-26T11:13:10Z</time>
      </trkpt>
      <trkpt lat="59.7377807" lon="17.6764683">
        <ele>18.8831</ele>
        <time>2013-05-26T11:13:11Z</time>
      </trkpt>
      <trkpt lat="59.7378225" lon="17.6763253">
        <ele>18.8831</ele>
        <time>2013-05-26T11:13:12Z</time>
      </trkpt>
      <trkpt lat="59.7378646" lon="17.6761835">
        <ele>18.8831</ele>
        <time>2013-05-26T11:13:13Z</time>
      </trkpt>
      <trkpt lat="59.737906" lon="17.6760416">
        <ele>18.4023</ele>
        <time>2013-05-26T11:13:14Z</time>
      </trkpt>
      <trkpt lat="59.7379464" lon="17.6758977">
        <ele>18.8831</ele>
        <time>2013-05-26T11:13:15Z</time>
      </trkpt>
      <trkpt lat="59.7379869" lon="17.6757551">
        <ele>18.4023</ele>
        <time>2013-05-26T11:13:16Z</time>
      </trkpt>
      <trkpt lat="59.7380278" lon="17.6756143">
        <ele>18.4023</ele>
        <time>2013-05-26T11:13:17Z</time>
      </trkpt>
      <trkpt lat="59.7380677" lon="17.6754738">
        <ele>18.8831</ele>
        <time>2013-05-26T11:13:18Z</time>
      </trkpt>
      <trkpt lat="59.7381064" lon="17.675332">
        <ele>18.8831</ele>
        <time>2013-05-26T11:13:19Z</time>
      </trkpt>
      <trkpt lat="59.7381446" lon="17.6751904">
        <ele>18.8831</ele>
        <time>2013-05-26T11:13:20Z</time>
      </trkpt>
      <trkpt lat="59.7381832" lon="17.6750501">
        <ele>18.8831</ele>
        <time>2013-05-26T11:13:21Z</time>
      </trkpt>
      <trkpt lat="59.7382202" lon="17.6749078">
        <ele>18.8831</ele>
        <time>2013-05-26T11:13:22Z</time>
      </trkpt>
      <trkpt lat="59.7382542" lon="17.6747621">
        <ele>18.8831</ele>
        <time>2013-05-26T11:13:23Z</time>
      </trkpt>
      <trkpt lat="59.7382857" lon="17.6746148">
        <ele>18.8831</ele>
        <time>2013-05-26T11:13:24Z</time>
      </trkpt>
      <trkpt lat="59.7383152" lon="17.6744668">
        <ele>18.8831</ele>
        <time>2013-05-26T11:13:25Z</time>
      </trkpt>
      <trkpt lat="59.7383422" lon="17.6743185">
        <ele>18.8831</ele>
        <time>2013-05-26T11:13:26Z</time>
      </trkpt>
      <trkpt lat="59.738366" lon="17.6741684">
        <ele>18.8831</ele>
        <time>2013-05-26T11:13:27Z</time>
      </trkpt>
      <trkpt lat="59.7383872" lon="17.6740162">
        <ele>19.3638</ele>
        <time>2013-05-26T11:13:28Z</time>
      </trkpt>
      <trkpt lat="59.7384055" lon="17.6738626">
        <ele>19.3638</ele>
        <time>2013-05-26T11:13:29Z</time>
      </trkpt>
      <trkpt lat="59.738422" lon="17.6737079">
        <ele>19.3638</ele>
        <time>2013-05-26T11:13:30Z</time>
      </trkpt>
      <trkpt lat="59.7384381" lon="17.6735525">
        <ele>19.3638</ele>
        <time>2013-05-26T11:13:31Z</time>
      </trkpt>
      <trkpt lat="59.7384537" lon="17.6733969">
        <ele>19.8444</ele>
        <time>2013-05-26T11:13:32Z</time>
      </trkpt>
      <trkpt lat="59.7384695" lon="17.6732407">
        <ele>19.8444</ele>
        <time>2013-05-26T11:13:33Z</time>
      </trkpt>
      <trkpt lat="59.738485" lon="17.6730844">
        <ele>19.8444</ele>
        <time>2013-05-26T11:13:34Z</time>
      </trkpt>
      <trkpt lat="59.7384996" lon="17.6729266">
        <ele>20.325</ele>
        <time>2013-05-26T11:13:35Z</time>
      </trkpt>
      <trkpt lat="59.7385155" lon="17.6727718">
        <ele>19.8444</ele>
        <time>2013-05-26T11:13:36Z</time>
      </trkpt>
      <trkpt lat="59.7385323" lon="17.6726171">
        <ele>19.8444</ele>
        <time>2013-05-26T11:13:37Z</time>
      </trkpt>
      <trkpt lat="59.7385503" lon="17.6724609">
        <ele>19.8444</ele>
        <time>2013-05-26T11:13:38Z</time>
      </trkpt>
      <trkpt lat="59.7385701" lon="17.6723072">
        <ele>19.8444</ele>
        <time>2013-05-26T11:13:39Z</time>
      </trkpt>
      <trkpt lat="59.7385913" lon="17.6721537">
        <ele>19.8444</ele>
        <time>2013-05-26T11:13:40Z</time>
      </trkpt>
      <trkpt lat="59.7386141" lon="17.6720022">
        <ele>19.3638</ele>
        <time>2013-05-26T11:13:41Z</time>
      </trkpt>
      <trkpt lat="59.7386404" lon="17.671857">
        <ele>19.3638</ele>
        <time>2013-05-26T11:13:42Z</time>
      </trkpt>
      <trkpt lat="59.7386675" lon="17.6717189">
        <ele>19.3638</ele>
        <time>2013-05-26T11:13:43Z</time>
      </trkpt>
      <trkpt lat="59.7386954" lon="17.6715882">
        <ele>19.8444</ele>
        <time>2013-05-26T11:13:44Z</time>
      </trkpt>
      <trkpt lat="59.7387259" lon="17.6714568">
        <ele>20.325</ele>
        <time>2013-05-26T11:13:45Z</time>
      </trkpt>
      <trkpt lat="59.7387582" lon="17.6713215">
        <ele>20.325</ele>
        <time>2013-05-26T11:13:46Z</time>
      </trkpt>
      <trkpt lat="59.7387916" lon="17.6711866">
        <ele>20.8057</ele>
        <time>2013-05-26T11:13:47Z</time>
      </trkpt>
      <trkpt lat="59.738827" lon="17.6710509">
        <ele>21.2864</ele>
        <time>2013-05-26T11:13:48Z</time>
      </trkpt>
      <trkpt lat="59.7388634" lon="17.6709142">
        <ele>21.2864</ele>
        <time>2013-05-26T11:13:49Z</time>
      </trkpt>
      <trkpt lat="59.7389011" lon="17.6707769">
        <ele>21.2864</ele>
        <time>2013-05-26T11:13:50Z</time>
      </trkpt>
      <trkpt lat="59.7389399" lon="17.6706399">
        <ele>21.767</ele>
        <time>2013-05-26T11:13:51Z</time>
      </trkpt>
      <trkpt lat="59.7389799" lon="17.6705044">
        <ele>21.767</ele>
        <time>2013-05-26T11:13:52Z</time>
      </trkpt>
      <trkpt lat="59.7390199" lon="17.6703699">
        <ele>21.767</ele>
        <time>2013-05-26T11:13:53Z</time>
      </trkpt>
      <trkpt lat="59.7390615" lon="17.6702329">
        <ele>22.2476</ele>
        <time>2013-05-26T11:13:54Z</time>
      </trkpt>
      <trkpt lat="59.739103" lon="17.6700941">
        <ele>22.2476</ele>
        <time>2013-05-26T11:13:55Z</time>
      </trkpt>
      <trkpt lat="59.7391461" lon="17.6699574">
        <ele>22.2476</ele>
        <time>2013-05-26T11:13:56Z</time>
      </trkpt>
      <trkpt lat="59.7391903" lon="17.6698218">
        <ele>22.2476</ele>
        <time>2013-05-26T11:13:57Z</time>
      </trkpt>
      <trkpt lat="59.7392352" lon="17.6696876">
        <ele>22.2476</ele>
        <time>2013-05-26T11:13:58Z</time>
      </trkpt>
      <trkpt lat="59.7392803" lon="17.6695581">
        <ele>22.2476</ele>
        <time>2013-05-26T11:13:59Z</time>
      </trkpt>
      <trkpt lat="59.7393252" lon="17.6694283">
        <ele>22.2476</ele>
        <time>2013-05-26T11:14:00Z</time>
      </trkpt>
      <trkpt lat="59.7393716" lon="17.6692965">
        <ele>21.767</ele>
        <time>2013-05-26T11:14:01Z</time>
      </trkpt>
      <trkpt lat="59.7394197" lon="17.6691617">
        <ele>21.767</ele>
        <time>2013-05-26T11:14:02Z</time>
      </trkpt>
      <trkpt lat="59.7394668" lon="17.6690272">
        <ele>21.767</ele>
        <time>2013-05-26T11:14:03Z</time>
      </trkpt>
      <trkpt lat="59.739513" lon="17.6688923">
        <ele>21.2864</ele>
        <time>2013-05-26T11:14:04Z</time>
      </trkpt>
      <trkpt lat="59.7395609" lon="17.668759">
        <ele>20.8057</ele>
        <time>2013-05-26T11:14:05Z</time>
      </trkpt>
      <trkpt lat="59.7396114" lon="17.6686215">
        <ele>20.8057</ele>
        <time>2013-05-26T11:14:06Z</time>
      </trkpt>
      <trkpt lat="59.7396636" lon="17.6684818">
        <ele>20.8057</ele>
        <time>2013-05-26T11:14:07Z</time>
      </trkpt>
      <trkpt lat="59.7397149" lon="17.6683403">
        <ele>21.2864</ele>
        <time>2013-05-26T11:14:08Z</time>
      </trkpt>
      <trkpt lat="59.7397658" lon="17.6681993">
        <ele>21.2864</ele>
        <time>2013-05-26T11:14:09Z</time>
      </trkpt>
      <trkpt lat="59.7398166" lon="17.6680619">
        <ele>21.2864</ele>
        <time>2013-05-26T11:14:10Z</time>
      </trkpt>
      <trkpt lat="59.7398698" lon="17.667929">
        <ele>21.767</ele>
        <time>2013-05-26T11:14:11Z</time>
      </trkpt>
      <trkpt lat="59.7399219" lon="17.6677949">
        <ele>22.2476</ele>
        <time>2013-05-26T11:14:12Z</time>
      </trkpt>
      <trkpt lat="59.7399707" lon="17.6676621">
        <ele>22.2476</ele>
        <time>2013-05-26T11:14:13Z</time>
      </trkpt>
      <trkpt lat="59.7400199" lon="17.6675363">
        <ele>21.767</ele>
        <time>2013-05-26T11:14:14Z</time>
      </trkpt>
      <trkpt lat="59.7400721" lon="17.6674141">
        <ele>21.767</ele>
        <time>2013-05-26T11:14:15Z</time>
      </trkpt>
      <trkpt lat="59.7401276" lon="17.6673016">
        <ele>21.767</ele>
        <time>2013-05-26T11:14:16Z</time>
      </trkpt>
      <trkpt lat="59.7401877" lon="17.6671989">
        <ele>22.2476</ele>
        <time>2013-05-26T11:14:17Z</time>
      </trkpt>
      <trkpt lat="59.7402521" lon="17.6671064">
        <ele>22.2476</ele>
        <time>2013-05-26T11:14:18Z</time>
      </trkpt>
      <trkpt lat="59.7403194" lon="17.6670157">
        <ele>22.7283</ele>
        <time>2013-05-26T11:14:19Z</time>
      </trkpt>
      <trkpt lat="59.7403858" lon="17.6669307">
        <ele>22.7283</ele>
        <time>2013-05-26T11:14:20Z</time>
      </trkpt>
      <trkpt lat="59.7404495" lon="17.6668552">
        <ele>22.7283</ele>
        <time>2013-05-26T11:14:21Z</time>
      </trkpt>
      <trkpt lat="59.740514" lon="17.6667827">
        <ele>22.7283</ele>
        <time>2013-05-26T11:14:22Z</time>
      </trkpt>
      <trkpt lat="59.740578" lon="17.6667125">
        <ele>22.2476</ele>
        <time>2013-05-26T11:14:23Z</time>
      </trkpt>
      <trkpt lat="59.7406422" lon="17.6666494">
        <ele>22.2476</ele>
        <time>2013-05-26T11:14:24Z</time>
      </trkpt>
      <trkpt lat="59.7407044" lon="17.6665882">
        <ele>22.2476</ele>
        <time>2013-05-26T11:14:25Z</time>
      </trkpt>
      <trkpt lat="59.7407654" lon="17.6665261">
        <ele>22.7283</ele>
        <time>2013-05-26T11:14:26Z</time>
      </trkpt>
      <trkpt lat="59.7408253" lon="17.6664631">
        <ele>22.7283</ele>
        <time>2013-05-26T11:14:27Z</time>
      </trkpt>
      <trkpt lat="59.7408852" lon="17.6664004">
        <ele>23.209</ele>
        <time>2013-05-26T11:14:28Z</time>
      </trkpt>
      <trkpt lat="59.7409458" lon="17.6663424">
        <ele>23.209</ele>
        <time>2013-05-26T11:14:29Z</time>
      </trkpt>
      <trkpt lat="59.741008" lon="17.6662935">
        <ele>23.209</ele>
        <time>2013-05-26T11:14:30Z</time>
      </trkpt>
      <trkpt lat="59.7410741" lon="17.6662548">
        <ele>23.209</ele>
        <time>2013-05-26T11:14:31Z</time>
      </trkpt>
      <trkpt lat="59.7411409" lon="17.6662273">
        <ele>23.209</ele>
        <time>2013-05-26T11:14:32Z</time>
      </trkpt>
      <trkpt lat="59.7412043" lon="17.6661973">
        <ele>23.209</ele>
        <time>2013-05-26T11:14:33Z</time>
      </trkpt>
      <trkpt lat="59.7412647" lon="17.6661722">
        <ele>23.209</ele>
        <time>2013-05-26T11:14:34Z</time>
      </trkpt>
      <trkpt lat="59.7413275" lon="17.6661475">
        <ele>23.209</ele>
        <time>2013-05-26T11:14:35Z</time>
      </trkpt>
      <trkpt lat="59.7413905" lon="17.6661253">
        <ele>23.209</ele>
        <time>2013-05-26T11:14:36Z</time>
      </trkpt>
      <trkpt lat="59.7414492" lon="17.6660966">
        <ele>23.209</ele>
        <time>2013-05-26T11:14:37Z</time>
      </trkpt>
      <trkpt lat="59.7415056" lon="17.6660568">
        <ele>23.209</ele>
        <time>2013-05-26T11:14:38Z</time>
      </trkpt>
      <trkpt lat="59.7415614" lon="17.6660181">
        <ele>23.209</ele>
        <time>2013-05-26T11:14:39Z</time>
      </trkpt>
      <trkpt lat="59.7416153" lon="17.6659832">
        <ele>23.6896</ele>
        <time>2013-05-26T11:14:40Z</time>
      </trkpt>
      <trkpt lat="59.7416667" lon="17.6659448">
        <ele>23.6896</ele>
        <time>2013-05-26T11:14:41Z</time>
      </trkpt>
      <trkpt lat="59.741716" lon="17.6659058">
        <ele>23.6896</ele>
        <time>2013-05-26T11:14:42Z</time>
      </trkpt>
      <trkpt lat="59.7417646" lon="17.6658763">
        <ele>23.6896</ele>
        <time>2013-05-26T11:14:43Z</time>
      </trkpt>
      <trkpt lat="59.7418123" lon="17.6658435">
        <ele>23.6896</ele>
        <time>2013-05-26T11:14:44Z</time>
      </trkpt>
      <trkpt lat="59.7418585" lon="17.6658062">
        <ele>23.6896</ele>
        <time>2013-05-26T11:14:45Z</time>
      </trkpt>
      <trkpt lat="59.7419051" lon="17.6657699">
        <ele>23.6896</ele>
        <time>2013-05-26T11:14:46Z</time>
      </trkpt>
      <trkpt lat="59.7419527" lon="17.6657311">
        <ele>24.1703</ele>
        <time>2013-05-26T11:14:47Z</time>
      </trkpt>
      <trkpt lat="59.7420007" lon="17.6656912">
        <ele>24.651</ele>
        <time>2013-05-26T11:14:48Z</time>
      </trkpt>
      <trkpt lat="59.7420475" lon="17.6656519">
        <ele>24.651</ele>
        <time>2013-05-26T11:14:49Z</time>
      </trkpt>
      <trkpt lat="59.742094" lon="17.6656114">
        <ele>24.651</ele>
        <time>2013-05-26T11:14:50Z</time>
      </trkpt>
      <trkpt lat="59.7421414" lon="17.6655716">
        <ele>25.1317</ele>
        <time>2013-05-26T11:14:51Z</time>
      </trkpt>
      <trkpt lat="59.7421892" lon="17.6655279">
        <ele>25.6123</ele>
        <time>2013-05-26T11:14:52Z</time>
      </trkpt>
      <trkpt lat="59.7422348" lon="17.6654867">
        <ele>25.6123</ele>
        <time>2013-05-26T11:14:53Z</time>
      </trkpt>
      <trkpt lat="59.7422802" lon="17.6654467">
        <ele>26.0929</ele>
        <time>2013-05-26T11:14:54Z</time>
      </trkpt>
      <trkpt lat="59.7423265" lon="17.6654058">
        <ele>26.0929</ele>
        <time>2013-05-26T11:14:55Z</time>
      </trkpt>
      <trkpt lat="59.7423723" lon="17.6653639">
        <ele>26.5736</ele>
        <time>2013-05-26T11:14:56Z</time>
      </trkpt>
      <trkpt lat="59.7424188" lon="17.665325">
        <ele>26.5736</ele>
        <time>2013-05-26T11:14:57Z</time>
      </trkpt>
      <trkpt lat="59.7424645" lon="17.6652825">
        <ele>26.5736</ele>
        <time>2013-05-26T11:14:58Z</time>
      </trkpt>
      <trkpt lat="59.742511" lon="17.6652385">
        <ele>27.0543</ele>
        <time>2013-05-26T11:14:59Z</time>
      </trkpt>
      <trkpt lat="59.7425568" lon="17.6651948">
        <ele>27.0543</ele>
        <time>2013-05-26T11:15:00Z</time>
      </trkpt>
      <trkpt lat="59.7426006" lon="17.6651542">
        <ele>27.0543</ele>
        <time>2013-05-26T11:15:01Z</time>
      </trkpt>
      <trkpt lat="59.7426428" lon="17.6651105">
        <ele>27.0543</ele>
        <time>2013-05-26T11:15:02Z</time>
      </trkpt>
      <trkpt lat="59.7426882" lon="17.665067">
        <ele>27.5349</ele>
        <time>2013-05-26T11:15:03Z</time>
      </trkpt>
      <trkpt lat="59.7427328" lon="17.6650204">
        <ele>27.5349</ele>
        <time>2013-05-26T11:15:04Z</time>
      </trkpt>
      <trkpt lat="59.742777" lon="17.6649638">
        <ele>27.0543</ele>
        <time>2013-05-26T11:15:05Z</time>
      </trkpt>
      <trkpt lat="59.7428225" lon="17.6648987">
        <ele>26.5736</ele>
        <time>2013-05-26T11:15:06Z</time>
      </trkpt>
      <trkpt lat="59.7428684" lon="17.6648272">
        <ele>25.6123</ele>
        <time>2013-05-26T11:15:07Z</time>
      </trkpt>
      <trkpt lat="59.7429172" lon="17.6647467">
        <ele>25.1317</ele>
        <time>2013-05-26T11:15:08Z</time>
      </trkpt>
      <trkpt lat="59.742966" lon="17.6646572">
        <ele>24.651</ele>
        <time>2013-05-26T11:15:09Z</time>
      </trkpt>
      <trkpt lat="59.7430182" lon="17.6645635">
        <ele>24.1703</ele>
        <time>2013-05-26T11:15:10Z</time>
      </trkpt>
      <trkpt lat="59.7430714" lon="17.6644634">
        <ele>24.1703</ele>
        <time>2013-05-26T11:15:11Z</time>
      </trkpt>
      <trkpt lat="59.7431243" lon="17.6643567">
        <ele>23.209</ele>
        <time>2013-05-26T11:15:12Z</time>
      </trkpt>
      <trkpt lat="59.7431773" lon="17.6642453">
        <ele>22.7283</ele>
        <time>2013-05-26T11:15:13Z</time>
      </trkpt>
      <trkpt lat="59.7432311" lon="17.6641324">
        <ele>22.7283</ele>
        <time>2013-05-26T11:15:14Z</time>
      </trkpt>
      <trkpt lat="59.7432845" lon="17.6640196">
        <ele>22.7283</ele>
        <time>2013-05-26T11:15:15Z</time>
      </trkpt>
      <trkpt lat="59.7433393" lon="17.6639075">
        <ele>22.2476</ele>
        <time>2013-05-26T11:15:16Z</time>
      </trkpt>
      <trkpt lat="59.743396" lon="17.6637969">
        <ele>22.7283</ele>
        <time>2013-05-26T11:15:17Z</time>
      </trkpt>
      <trkpt lat="59.7434525" lon="17.6636882">
        <ele>22.7283</ele>
        <time>2013-05-26T11:15:18Z</time>
      </trkpt>
      <trkpt lat="59.7435079" lon="17.663582">
        <ele>22.7283</ele>
        <time>2013-05-26T11:15:19Z</time>
      </trkpt>
      <trkpt lat="59.7435631" lon="17.6634782">
        <ele>23.209</ele>
        <time>2013-05-26T11:15:20Z</time>
      </trkpt>
      <trkpt lat="59.7436189" lon="17.6633778">
        <ele>23.209</ele>
        <time>2013-05-26T11:15:21Z</time>
      </trkpt>
      <trkpt lat="59.7436751" lon="17.6632807">
        <ele>23.209</ele>
        <time>2013-05-26T11:15:22Z</time>
      </trkpt>
      <trkpt lat="59.7437316" lon="17.6631847">
        <ele>23.6896</ele>
        <time>2013-05-26T11:15:23Z</time>
      </trkpt>
      <trkpt lat="59.743788" lon="17.6630898">
        <ele>23.6896</ele>
        <time>2013-05-26T11:15:24Z</time>
      </trkpt>
      <trkpt lat="59.743845" lon="17.6629955">
        <ele>24.1703</ele>
        <time>2013-05-26T11:15:25Z</time>
      </trkpt>
      <trkpt lat="59.7439028" lon="17.6629029">
        <ele>24.651</ele>
        <time>2013-05-26T11:15:26Z</time>
      </trkpt>
      <trkpt lat="59.7439606" lon="17.662811">
        <ele>24.651</ele>
        <time>2013-05-26T11:15:27Z</time>
      </trkpt>
      <trkpt lat="59.7440185" lon="17.6627203">
        <ele>25.1317</ele>
        <time>2013-05-26T11:15:28Z</time>
      </trkpt>
      <trkpt lat="59.744076" lon="17.6626313">
        <ele>25.1317</ele>
        <time>2013-05-26T11:15:29Z</time>
      </trkpt>
      <trkpt lat="59.744133" lon="17.6625427">
        <ele>25.6123</ele>
        <time>2013-05-26T11:15:30Z</time>
      </trkpt>
      <trkpt lat="59.7441896" lon="17.6624537">
        <ele>25.6123</ele>
        <time>2013-05-26T11:15:31Z</time>
      </trkpt>
      <trkpt lat="59.7442449" lon="17.662365">
        <ele>26.0929</ele>
        <time>2013-05-26T11:15:32Z</time>
      </trkpt>
      <trkpt lat="59.7442996" lon="17.6622759">
        <ele>26.0929</ele>
        <time>2013-05-26T11:15:33Z</time>
      </trkpt>
      <trkpt lat="59.7443537" lon="17.6621843">
        <ele>26.0929</ele>
        <time>2013-05-26T11:15:34Z</time>
      </trkpt>
      <trkpt lat="59.7444061" lon="17.6620905">
        <ele>26.0929</ele>
        <time>2013-05-26T11:15:35Z</time>
      </trkpt>
      <trkpt lat="59.7444609" lon="17.6619983">
        <ele>26.5736</ele>
        <time>2013-05-26T11:15:36Z</time>
      </trkpt>
      <trkpt lat="59.7445137" lon="17.6619026">
        <ele>27.0543</ele>
        <time>2013-05-26T11:15:37Z</time>
      </trkpt>
      <trkpt lat="59.7445641" lon="17.6618129">
        <ele>27.5349</ele>
        <time>2013-05-26T11:15:38Z</time>
      </trkpt>
      <trkpt lat="59.7446122" lon="17.6617176">
        <ele>27.5349</ele>
        <time>2013-05-26T11:15:39Z</time>
      </trkpt>
      <trkpt lat="59.7446604" lon="17.6616221">
        <ele>28.0155</ele>
        <time>2013-05-26T11:15:40Z</time>
      </trkpt>
      <trkpt lat="59.7447089" lon="17.6615284">
        <ele>28.4962</ele>
        <time>2013-05-26T11:15:41Z</time>
      </trkpt>
      <trkpt lat="59.7447539" lon="17.6614301">
        <ele>28.4962</ele>
        <time>2013-05-26T11:15:42Z</time>
      </trkpt>
      <trkpt lat="59.7447949" lon="17.6613248">
        <ele>28.9769</ele>
        <time>2013-05-26T11:15:43Z</time>
      </trkpt>
      <trkpt lat="59.7448311" lon="17.6612095">
        <ele>29.4575</ele>
        <time>2013-05-26T11:15:44Z</time>
      </trkpt>
      <trkpt lat="59.744866" lon="17.6610903">
        <ele>29.4575</ele>
        <time>2013-05-26T11:15:45Z</time>
      </trkpt>
      <trkpt lat="59.7449011" lon="17.660974">
        <ele>29.9381</ele>
        <time>2013-05-26T11:15:46Z</time>
      </trkpt>
      <trkpt lat="59.7449338" lon="17.6608535">
        <ele>30.4188</ele>
        <time>2013-05-26T11:15:47Z</time>
      </trkpt>
      <trkpt lat="59.744964" lon="17.6607292">
        <ele>30.8995</ele>
        <time>2013-05-26T11:15:48Z</time>
      </trkpt>
      <trkpt lat="59.7449948" lon="17.6606036">
        <ele>31.3801</ele>
        <time>2013-05-26T11:15:49Z</time>
      </trkpt>
      <trkpt lat="59.7450234" lon="17.66048">
        <ele>31.3801</ele>
        <time>2013-05-26T11:15:50Z</time>
      </trkpt>
      <trkpt lat="59.7450515" lon="17.6603553">
        <ele>31.8607</ele>
        <time>2013-05-26T11:15:51Z</time>
      </trkpt>
      <trkpt lat="59.7450784" lon="17.660231">
        <ele>32.3416</ele>
        <time>2013-05-26T11:15:52Z</time>
      </trkpt>
      <trkpt lat="59.7451058" lon="17.6601126">
        <ele>32.8223</ele>
        <time>2013-05-26T11:15:53Z</time>
      </trkpt>
      <trkpt lat="59.7451306" lon="17.6599883">
        <ele>32.8223</ele>
        <time>2013-05-26T11:15:54Z</time>
      </trkpt>
      <trkpt lat="59.7451555" lon="17.6598682">
        <ele>32.8223</ele>
        <time>2013-05-26T11:15:55Z</time>
      </trkpt>
      <trkpt lat="59.7451763" lon="17.6597461">
        <ele>32.8223</ele>
        <time>2013-05-26T11:15:56Z</time>
      </trkpt>
      <trkpt lat="59.7451976" lon="17.6596269">
        <ele>32.8223</ele>
        <time>2013-05-26T11:15:57Z</time>
      </trkpt>
      <trkpt lat="59.7452181" lon="17.6595117">
        <ele>32.8223</ele>
        <time>2013-05-26T11:15:58Z</time>
      </trkpt>
      <trkpt lat="59.745236" lon="17.6593985">
        <ele>32.8223</ele>
        <time>2013-05-26T11:15:59Z</time>
      </trkpt>
      <trkpt lat="59.7452541" lon="17.659285">
        <ele>32.8223</ele>
        <time>2013-05-26T11:16:00Z</time>
      </trkpt>
      <trkpt lat="59.7452685" lon="17.6591662">
        <ele>32.8223</ele>
        <time>2013-05-26T11:16:01Z</time>
      </trkpt>
      <trkpt lat="59.7452815" lon="17.6590457">
        <ele>32.8223</ele>
        <time>2013-05-26T11:16:02Z</time>
      </trkpt>
      <trkpt lat="59.7452965" lon="17.6589307">
        <ele>32.8223</ele>
        <time>2013-05-26T11:16:03Z</time>
      </trkpt>
      <trkpt lat="59.7453115" lon="17.658809">
        <ele>32.8223</ele>
        <time>2013-05-26T11:16:04Z</time>
      </trkpt>
      <trkpt lat="59.7453323" lon="17.6586965">
        <ele>33.7834</ele>
        <time>2013-05-26T11:16:05Z</time>
      </trkpt>
      <trkpt lat="59.7453489" lon="17.6585815">
        <ele>34.2642</ele>
        <time>2013-05-26T11:16:06Z</time>
      </trkpt>
      <trkpt lat="59.7453642" lon="17.6584603">
        <ele>34.2642</ele>
        <time>2013-05-26T11:16:07Z</time>
      </trkpt>
      <trkpt lat="59.7453731" lon="17.6583324">
        <ele>34.7449</ele>
        <time>2013-05-26T11:16:08Z</time>
      </trkpt>
      <trkpt lat="59.745385" lon="17.6582025">
        <ele>34.7449</ele>
        <time>2013-05-26T11:16:09Z</time>
      </trkpt>
      <trkpt lat="59.7453968" lon="17.6580646">
        <ele>34.7449</ele>
        <time>2013-05-26T11:16:10Z</time>
      </trkpt>
      <trkpt lat="59.7454115" lon="17.6579242">
        <ele>34.7449</ele>
        <time>2013-05-26T11:16:11Z</time>
      </trkpt>
      <trkpt lat="59.7454275" lon="17.6577968">
        <ele>34.7449</ele>
        <time>2013-05-26T11:16:12Z</time>
      </trkpt>
      <trkpt lat="59.745445" lon="17.6576683">
        <ele>34.2642</ele>
        <time>2013-05-26T11:16:13Z</time>
      </trkpt>
      <trkpt lat="59.7454622" lon="17.6575331">
        <ele>33.7834</ele>
        <time>2013-05-26T11:16:14Z</time>
      </trkpt>
      <trkpt lat="59.7454786" lon="17.6573923">
        <ele>33.7834</ele>
        <time>2013-05-26T11:16:15Z</time>
      </trkpt>
      <trkpt lat="59.745497" lon="17.6572345">
        <ele>34.2642</ele>
        <time>2013-05-26T11:16:16Z</time>
      </trkpt>
      <trkpt lat="59.7455146" lon="17.6570792">
        <ele>34.7449</ele>
        <time>2013-05-26T11:16:17Z</time>
      </trkpt>
      <trkpt lat="59.7455268" lon="17.6569187">
        <ele>34.7449</ele>
        <time>2013-05-26T11:16:18Z</time>
      </trkpt>
      <trkpt lat="59.7455461" lon="17.6567671">
        <ele>35.2255</ele>
        <time>2013-05-26T11:16:19Z</time>
      </trkpt>
      <trkpt lat="59.7455658" lon="17.6566141">
        <ele>36.1868</ele>
        <time>2013-05-26T11:16:20Z</time>
      </trkpt>
      <trkpt lat="59.7455855" lon="17.6564616">
        <ele>37.1481</ele>
        <time>2013-05-26T11:16:21Z</time>
      </trkpt>
      <trkpt lat="59.7456051" lon="17.6563163">
        <ele>37.1481</ele>
        <time>2013-05-26T11:16:22Z</time>
      </trkpt>
      <trkpt lat="59.7456223" lon="17.6561686">
        <ele>37.1481</ele>
        <time>2013-05-26T11:16:23Z</time>
      </trkpt>
      <trkpt lat="59.7456411" lon="17.6560164">
        <ele>37.6287</ele>
        <time>2013-05-26T11:16:24Z</time>
      </trkpt>
      <trkpt lat="59.7456599" lon="17.6558659">
        <ele>37.1481</ele>
        <time>2013-05-26T11:16:25Z</time>
      </trkpt>
      <trkpt lat="59.7456804" lon="17.6557259">
        <ele>36.6675</ele>
        <time>2013-05-26T11:16:26Z</time>
      </trkpt>
      <trkpt lat="59.7457096" lon="17.6555843">
        <ele>36.6675</ele>
        <time>2013-05-26T11:16:27Z</time>
      </trkpt>
      <trkpt lat="59.7457444" lon="17.6554458">
        <ele>37.1481</ele>
        <time>2013-05-26T11:16:28Z</time>
      </trkpt>
      <trkpt lat="59.7457824" lon="17.6553005">
        <ele>38.5901</ele>
        <time>2013-05-26T11:16:29Z</time>
      </trkpt>
      <trkpt lat="59.7458254" lon="17.6551685">
        <ele>39.0707</ele>
        <time>2013-05-26T11:16:30Z</time>
      </trkpt>
      <trkpt lat="59.7458688" lon="17.6550447">
        <ele>39.0707</ele>
        <time>2013-05-26T11:16:31Z</time>
      </trkpt>
      <trkpt lat="59.7459238" lon="17.6549395">
        <ele>40.0321</ele>
        <time>2013-05-26T11:16:32Z</time>
      </trkpt>
      <trkpt lat="59.7459826" lon="17.6548463">
        <ele>40.5128</ele>
        <time>2013-05-26T11:16:33Z</time>
      </trkpt>
      <trkpt lat="59.7460436" lon="17.6547606">
        <ele>40.5128</ele>
        <time>2013-05-26T11:16:34Z</time>
      </trkpt>
      <trkpt lat="59.7461078" lon="17.654683">
        <ele>41.474</ele>
        <time>2013-05-26T11:16:35Z</time>
      </trkpt>
      <trkpt lat="59.7461776" lon="17.6546675">
        <ele>41.474</ele>
        <time>2013-05-26T11:16:36Z</time>
      </trkpt>
      <trkpt lat="59.7462366" lon="17.6546359">
        <ele>40.9934</ele>
        <time>2013-05-26T11:16:37Z</time>
      </trkpt>
      <trkpt lat="59.7462937" lon="17.6545688">
        <ele>41.474</ele>
        <time>2013-05-26T11:16:38Z</time>
      </trkpt>
      <trkpt lat="59.7463537" lon="17.6545312">
        <ele>41.474</ele>
        <time>2013-05-26T11:16:39Z</time>
      </trkpt>
      <trkpt lat="59.7464103" lon="17.6544997">
        <ele>40.9934</ele>
        <time>2013-05-26T11:16:40Z</time>
      </trkpt>
      <trkpt lat="59.7464675" lon="17.6544633">
        <ele>40.5128</ele>
        <time>2013-05-26T11:16:41Z</time>
      </trkpt>
      <trkpt lat="59.7465251" lon="17.6544318">
        <ele>39.5513</ele>
        <time>2013-05-26T11:16:42Z</time>
      </trkpt>
      <trkpt lat="59.746584" lon="17.6543991">
        <ele>39.0707</ele>
        <time>2013-05-26T11:16:43Z</time>
      </trkpt>
      <trkpt lat="59.7466491" lon="17.6543526">
        <ele>39.0707</ele>
        <time>2013-05-26T11:16:44Z</time>
      </trkpt>
      <trkpt lat="59.7467127" lon="17.6543182">
        <ele>38.5901</ele>
        <time>2013-05-26T11:16:45Z</time>
      </trkpt>
      <trkpt lat="59.7467769" lon="17.6542884">
        <ele>38.1094</ele>
        <time>2013-05-26T11:16:46Z</time>
      </trkpt>
      <trkpt lat="59.7468405" lon="17.6542573">
        <ele>37.1481</ele>
        <time>2013-05-26T11:16:47Z</time>
      </trkpt>
      <trkpt lat="59.7469037" lon="17.6542275">
        <ele>36.6675</ele>
        <time>2013-05-26T11:16:48Z</time>
      </trkpt>
      <trkpt lat="59.7469695" lon="17.6541966">
        <ele>36.6675</ele>
        <time>2013-05-26T11:16:49Z</time>
      </trkpt>
      <trkpt lat="59.7470363" lon="17.6541633">
        <ele>36.6675</ele>
        <time>2013-05-26T11:16:50Z</time>
      </trkpt>
      <trkpt lat="59.7471027" lon="17.6541278">
        <ele>36.6675</ele>
        <time>2013-05-26T11:16:51Z</time>
      </trkpt>
      <trkpt lat="59.7471707" lon="17.6540907">
        <ele>36.1868</ele>
        <time>2013-05-26T11:16:52Z</time>
      </trkpt>
      <trkpt lat="59.7472406" lon="17.6540558">
        <ele>36.6675</ele>
        <time>2013-05-26T11:16:53Z</time>
      </trkpt>
      <trkpt lat="59.7473088" lon="17.6540189">
        <ele>36.6675</ele>
        <time>2013-05-26T11:16:54Z</time>
      </trkpt>
      <trkpt lat="59.7473815" lon="17.6539806">
        <ele>36.6675</ele>
        <time>2013-05-26T11:16:55Z</time>
      </trkpt>
      <trkpt lat="59.7474567" lon="17.65394">
        <ele>37.1481</ele>
        <time>2013-05-26T11:16:56Z</time>
      </trkpt>
      <trkpt lat="59.7475332" lon="17.6538956">
        <ele>38.1094</ele>
        <time>2013-05-26T11:16:57Z</time>
      </trkpt>
      <trkpt lat="59.7476056" lon="17.6538553">
        <ele>38.5901</ele>
        <time>2013-05-26T11:16:58Z</time>
      </trkpt>
      <trkpt lat="59.7476777" lon="17.653819">
        <ele>39.5513</ele>
        <time>2013-05-26T11:16:59Z</time>
      </trkpt>
      <trkpt lat="59.7477456" lon="17.6537815">
        <ele>40.0321</ele>
        <time>2013-05-26T11:17:00Z</time>
      </trkpt>
      <trkpt lat="59.7478145" lon="17.653745">
        <ele>40.0321</ele>
        <time>2013-05-26T11:17:01Z</time>
      </trkpt>
      <trkpt lat="59.7478848" lon="17.6537069">
        <ele>40.0321</ele>
        <time>2013-05-26T11:17:02Z</time>
      </trkpt>
      <trkpt lat="59.747957" lon="17.6536692">
        <ele>40.5128</ele>
        <time>2013-05-26T11:17:03Z</time>
      </trkpt>
      <trkpt lat="59.7480303" lon="17.6536317">
        <ele>40.9934</ele>
        <time>2013-05-26T11:17:04Z</time>
      </trkpt>
      <trkpt lat="59.7481" lon="17.6535941">
        <ele>40.5128</ele>
        <time>2013-05-26T11:17:05Z</time>
      </trkpt>
      <trkpt lat="59.7481688" lon="17.6535635">
        <ele>40.5128</ele>
        <time>2013-05-26T11:17:06Z</time>
      </trkpt>
      <trkpt lat="59.7482415" lon="17.6535329">
        <ele>40.9934</ele>
        <time>2013-05-26T11:17:07Z</time>
      </trkpt>
      <trkpt lat="59.7483164" lon="17.6534993">
        <ele>41.474</ele>
        <time>2013-05-26T11:17:08Z</time>
      </trkpt>
      <trkpt lat="59.7483888" lon="17.6534675">
        <ele>41.9547</ele>
        <time>2013-05-26T11:17:09Z</time>
      </trkpt>
      <trkpt lat="59.7484587" lon="17.6534371">
        <ele>41.474</ele>
        <time>2013-05-26T11:17:10Z</time>
      </trkpt>
      <trkpt lat="59.7485267" lon="17.6534045">
        <ele>41.474</ele>
        <time>2013-05-26T11:17:11Z</time>
      </trkpt>
      <trkpt lat="59.7485968" lon="17.6533745">
        <ele>41.9547</ele>
        <time>2013-05-26T11:17:12Z</time>
      </trkpt>
      <trkpt lat="59.7486664" lon="17.6533486">
        <ele>42.4354</ele>
        <time>2013-05-26T11:17:13Z</time>
      </trkpt>
      <trkpt lat="59.7487354" lon="17.653322">
        <ele>42.916</ele>
        <time>2013-05-26T11:17:14Z</time>
      </trkpt>
      <trkpt lat="59.7488096" lon="17.6533004">
        <ele>43.8773</ele>
        <time>2013-05-26T11:17:15Z</time>
      </trkpt>
      <trkpt lat="59.7488757" lon="17.6532823">
        <ele>43.8773</ele>
        <time>2013-05-26T11:17:16Z</time>
      </trkpt>
      <trkpt lat="59.7489624" lon="17.6532703">
        <ele>44.8386</ele>
        <time>2013-05-26T11:17:17Z</time>
      </trkpt>
      <trkpt lat="59.7490514" lon="17.6532292">
        <ele>45.3192</ele>
        <time>2013-05-26T11:17:18Z</time>
      </trkpt>
      <trkpt lat="59.7491174" lon="17.6532013">
        <ele>45.3192</ele>
        <time>2013-05-26T11:17:19Z</time>
      </trkpt>
      <trkpt lat="59.7491904" lon="17.6531707">
        <ele>44.8386</ele>
        <time>2013-05-26T11:17:20Z</time>
      </trkpt>
      <trkpt lat="59.7492616" lon="17.6531474">
        <ele>44.8386</ele>
        <time>2013-05-26T11:17:21Z</time>
      </trkpt>
      <trkpt lat="59.7493445" lon="17.6531149">
        <ele>44.8386</ele>
        <time>2013-05-26T11:17:22Z</time>
      </trkpt>
      <trkpt lat="59.7494245" lon="17.6530885">
        <ele>44.358</ele>
        <time>2013-05-26T11:17:23Z</time>
      </trkpt>
      <trkpt lat="59.7495022" lon="17.6530454">
        <ele>43.3966</ele>
        <time>2013-05-26T11:17:24Z</time>
      </trkpt>
      <trkpt lat="59.7495766" lon="17.6530005">
        <ele>41.9547</ele>
        <time>2013-05-26T11:17:25Z</time>
      </trkpt>
      <trkpt lat="59.7496493" lon="17.6529558">
        <ele>40.5128</ele>
        <time>2013-05-26T11:17:26Z</time>
      </trkpt>
      <trkpt lat="59.7497192" lon="17.6529113">
        <ele>39.0707</ele>
        <time>2013-05-26T11:17:27Z</time>
      </trkpt>
      <trkpt lat="59.7497881" lon="17.6528739">
        <ele>38.5901</ele>
        <time>2013-05-26T11:17:28Z</time>
      </trkpt>
      <trkpt lat="59.7498542" lon="17.6528348">
        <ele>38.1094</ele>
        <time>2013-05-26T11:17:29Z</time>
      </trkpt>
      <trkpt lat="59.7499226" lon="17.6527912">
        <ele>37.1481</ele>
        <time>2013-05-26T11:17:30Z</time>
      </trkpt>
      <trkpt lat="59.7499917" lon="17.6527585">
        <ele>36.6675</ele>
        <time>2013-05-26T11:17:31Z</time>
      </trkpt>
      <trkpt lat="59.7500583" lon="17.652712">
        <ele>35.7061</ele>
        <time>2013-05-26T11:17:32Z</time>
      </trkpt>
      <trkpt lat="59.7501255" lon="17.6526633">
        <ele>34.7449</ele>
        <time>2013-05-26T11:17:33Z</time>
      </trkpt>
      <trkpt lat="59.7501941" lon="17.6526116">
        <ele>34.2642</ele>
        <time>2013-05-26T11:17:34Z</time>
      </trkpt>
      <trkpt lat="59.7502652" lon="17.6525669">
        <ele>33.3029</ele>
        <time>2013-05-26T11:17:35Z</time>
      </trkpt>
      <trkpt lat="59.7503367" lon="17.6525203">
        <ele>32.3416</ele>
        <time>2013-05-26T11:17:36Z</time>
      </trkpt>
      <trkpt lat="59.7504107" lon="17.6524757">
        <ele>31.3801</ele>
        <time>2013-05-26T11:17:37Z</time>
      </trkpt>
      <trkpt lat="59.7504869" lon="17.6524333">
        <ele>30.4188</ele>
        <time>2013-05-26T11:17:38Z</time>
      </trkpt>
      <trkpt lat="59.7505656" lon="17.6523891">
        <ele>29.9381</ele>
        <time>2013-05-26T11:17:39Z</time>
      </trkpt>
      <trkpt lat="59.7506439" lon="17.6523467">
        <ele>28.9769</ele>
        <time>2013-05-26T11:17:40Z</time>
      </trkpt>
      <trkpt lat="59.7507226" lon="17.6523005">
        <ele>28.4962</ele>
        <time>2013-05-26T11:17:41Z</time>
      </trkpt>
      <trkpt lat="59.7508019" lon="17.6522534">
        <ele>28.0155</ele>
        <time>2013-05-26T11:17:42Z</time>
      </trkpt>
      <trkpt lat="59.7508807" lon="17.6522126">
        <ele>27.5349</ele>
        <time>2013-05-26T11:17:43Z</time>
      </trkpt>
      <trkpt lat="59.7509599" lon="17.6521788">
        <ele>27.0543</ele>
        <time>2013-05-26T11:17:44Z</time>
      </trkpt>
      <trkpt lat="59.7510397" lon="17.6521427">
        <ele>26.5736</ele>
        <time>2013-05-26T11:17:45Z</time>
      </trkpt>
      <trkpt lat="59.7511193" lon="17.6521038">
        <ele>26.0929</ele>
        <time>2013-05-26T11:17:46Z</time>
      </trkpt>
      <trkpt lat="59.7512075" lon="17.6520617">
        <ele>27.5349</ele>
        <time>2013-05-26T11:17:47Z</time>
      </trkpt>
      <trkpt lat="59.7512984" lon="17.6520192">
        <ele>28.9769</ele>
        <time>2013-05-26T11:17:48Z</time>
      </trkpt>
      <trkpt lat="59.7513905" lon="17.6519779">
        <ele>30.4188</ele>
        <time>2013-05-26T11:17:49Z</time>
      </trkpt>
      <trkpt lat="59.7514772" lon="17.6519422">
        <ele>29.4575</ele>
        <time>2013-05-26T11:17:50Z</time>
      </trkpt>
      <trkpt lat="59.7515669" lon="17.6519073">
        <ele>28.9769</ele>
        <time>2013-05-26T11:17:51Z</time>
      </trkpt>
      <trkpt lat="59.7516577" lon="17.6518662">
        <ele>28.4962</ele>
        <time>2013-05-26T11:17:52Z</time>
      </trkpt>
      <trkpt lat="59.7517509" lon="17.6518252">
        <ele>27.5349</ele>
        <time>2013-05-26T11:17:53Z</time>
      </trkpt>
      <trkpt lat="59.7518453" lon="17.6517835">
        <ele>26.5736</ele>
        <time>2013-05-26T11:17:54Z</time>
      </trkpt>
      <trkpt lat="59.7519405" lon="17.6517448">
        <ele>26.0929</ele>
        <time>2013-05-26T11:17:55Z</time>
      </trkpt>
      <trkpt lat="59.7520362" lon="17.6517081">
        <ele>25.6123</ele>
        <time>2013-05-26T11:17:56Z</time>
      </trkpt>
      <trkpt lat="59.752133" lon="17.6516674">
        <ele>25.1317</ele>
        <time>2013-05-26T11:17:57Z</time>
      </trkpt>
      <trkpt lat="59.7522293" lon="17.651622">
        <ele>24.651</ele>
        <time>2013-05-26T11:17:58Z</time>
      </trkpt>
      <trkpt lat="59.7523244" lon="17.6515773">
        <ele>24.651</ele>
        <time>2013-05-26T11:17:59Z</time>
      </trkpt>
      <trkpt lat="59.7524191" lon="17.6515391">
        <ele>24.1703</ele>
        <time>2013-05-26T11:18:00Z</time>
      </trkpt>
      <trkpt lat="59.7525112" lon="17.651504">
        <ele>23.6896</ele>
        <time>2013-05-26T11:18:01Z</time>
      </trkpt>
      <trkpt lat="59.7526009" lon="17.6514687">
        <ele>23.209</ele>
        <time>2013-05-26T11:18:02Z</time>
      </trkpt>
      <trkpt lat="59.7526893" lon="17.6514366">
        <ele>23.209</ele>
        <time>2013-05-26T11:18:03Z</time>
      </trkpt>
      <trkpt lat="59.752781" lon="17.6514107">
        <ele>23.6896</ele>
        <time>2013-05-26T11:18:04Z</time>
      </trkpt>
      <trkpt lat="59.7528711" lon="17.6513812">
        <ele>24.651</ele>
        <time>2013-05-26T11:18:05Z</time>
      </trkpt>
      <trkpt lat="59.7529594" lon="17.6513479">
        <ele>25.1317</ele>
        <time>2013-05-26T11:18:06Z</time>
      </trkpt>
      <trkpt lat="59.7530467" lon="17.6513123">
        <ele>25.1317</ele>
        <time>2013-05-26T11:18:07Z</time>
      </trkpt>
      <trkpt lat="59.7531343" lon="17.6512779">
        <ele>25.6123</ele>
        <time>2013-05-26T11:18:08Z</time>
      </trkpt>
      <trkpt lat="59.7532244" lon="17.6512386">
        <ele>26.5736</ele>
        <time>2013-05-26T11:18:09Z</time>
      </trkpt>
      <trkpt lat="59.7533179" lon="17.6512043">
        <ele>27.0543</ele>
        <time>2013-05-26T11:18:10Z</time>
      </trkpt>
      <trkpt lat="59.753404" lon="17.6511821">
        <ele>27.5349</ele>
        <time>2013-05-26T11:18:11Z</time>
      </trkpt>
      <trkpt lat="59.7534901" lon="17.6511491">
        <ele>26.5736</ele>
        <time>2013-05-26T11:18:12Z</time>
      </trkpt>
      <trkpt lat="59.7535773" lon="17.6511098">
        <ele>26.5736</ele>
        <time>2013-05-26T11:18:13Z</time>
      </trkpt>
      <trkpt lat="59.7536634" lon="17.6510761">
        <ele>26.0929</ele>
        <time>2013-05-26T11:18:14Z</time>
      </trkpt>
      <trkpt lat="59.7537478" lon="17.6510319">
        <ele>26.0929</ele>
        <time>2013-05-26T11:18:15Z</time>
      </trkpt>
      <trkpt lat="59.7538494" lon="17.6509837">
        <ele>27.0543</ele>
        <time>2013-05-26T11:18:16Z</time>
      </trkpt>
      <trkpt lat="59.7539447" lon="17.650943">
        <ele>27.5349</ele>
        <time>2013-05-26T11:18:17Z</time>
      </trkpt>
      <trkpt lat="59.7540431" lon="17.6509175">
        <ele>28.0155</ele>
        <time>2013-05-26T11:18:18Z</time>
      </trkpt>
      <trkpt lat="59.7541317" lon="17.6509003">
        <ele>28.4962</ele>
        <time>2013-05-26T11:18:19Z</time>
      </trkpt>
      <trkpt lat="59.754215" lon="17.650893">
        <ele>28.4962</ele>
        <time>2013-05-26T11:18:20Z</time>
      </trkpt>
      <trkpt lat="59.754302" lon="17.6508808">
        <ele>28.9769</ele>
        <time>2013-05-26T11:18:21Z</time>
      </trkpt>
      <trkpt lat="59.7543825" lon="17.6508777">
        <ele>28.9769</ele>
        <time>2013-05-26T11:18:22Z</time>
      </trkpt>
      <trkpt lat="59.7544663" lon="17.6508698">
        <ele>29.4575</ele>
        <time>2013-05-26T11:18:23Z</time>
      </trkpt>
      <trkpt lat="59.7545522" lon="17.6508627">
        <ele>29.9381</ele>
        <time>2013-05-26T11:18:24Z</time>
      </trkpt>
      <trkpt lat="59.7546387" lon="17.6508549">
        <ele>29.4575</ele>
        <time>2013-05-26T11:18:25Z</time>
      </trkpt>
      <trkpt lat="59.7547283" lon="17.650842">
        <ele>30.4188</ele>
        <time>2013-05-26T11:18:26Z</time>
      </trkpt>
      <trkpt lat="59.75482" lon="17.6508196">
        <ele>30.4188</ele>
        <time>2013-05-26T11:18:27Z</time>
      </trkpt>
      <trkpt lat="59.7549061" lon="17.6508057">
        <ele>30.4188</ele>
        <time>2013-05-26T11:18:28Z</time>
      </trkpt>
      <trkpt lat="59.7549926" lon="17.6507972">
        <ele>31.8607</ele>
        <time>2013-05-26T11:18:29Z</time>
      </trkpt>
      <trkpt lat="59.7550797" lon="17.6507709">
        <ele>31.8607</ele>
        <time>2013-05-26T11:18:30Z</time>
      </trkpt>
      <trkpt lat="59.755169" lon="17.6507419">
        <ele>31.8607</ele>
        <time>2013-05-26T11:18:31Z</time>
      </trkpt>
      <trkpt lat="59.7552581" lon="17.6506999">
        <ele>31.8607</ele>
        <time>2013-05-26T11:18:32Z</time>
      </trkpt>
      <trkpt lat="59.7553437" lon="17.6506506">
        <ele>31.3801</ele>
        <time>2013-05-26T11:18:33Z</time>
      </trkpt>
      <trkpt lat="59.7554298" lon="17.6505969">
        <ele>30.8995</ele>
        <time>2013-05-26T11:18:34Z</time>
      </trkpt>
      <trkpt lat="59.7555161" lon="17.6505335">
        <ele>29.9381</ele>
        <time>2013-05-26T11:18:35Z</time>
      </trkpt>
      <trkpt lat="59.7556022" lon="17.6504595">
        <ele>29.4575</ele>
        <time>2013-05-26T11:18:36Z</time>
      </trkpt>
      <trkpt lat="59.7556853" lon="17.6503897">
        <ele>29.4575</ele>
        <time>2013-05-26T11:18:37Z</time>
      </trkpt>
      <trkpt lat="59.7557639" lon="17.6503125">
        <ele>28.4962</ele>
        <time>2013-05-26T11:18:38Z</time>
      </trkpt>
      <trkpt lat="59.7558373" lon="17.6502312">
        <ele>27.5349</ele>
        <time>2013-05-26T11:18:39Z</time>
      </trkpt>
      <trkpt lat="59.7559161" lon="17.6501429">
        <ele>28.0155</ele>
        <time>2013-05-26T11:18:40Z</time>
      </trkpt>
      <trkpt lat="59.7559929" lon="17.650056">
        <ele>27.5349</ele>
        <time>2013-05-26T11:18:41Z</time>
      </trkpt>
      <trkpt lat="59.756071" lon="17.6499658">
        <ele>27.5349</ele>
        <time>2013-05-26T11:18:42Z</time>
      </trkpt>
      <trkpt lat="59.7561554" lon="17.6498603">
        <ele>28.4962</ele>
        <time>2013-05-26T11:18:43Z</time>
      </trkpt>
      <trkpt lat="59.756234" lon="17.6497557">
        <ele>29.4575</ele>
        <time>2013-05-26T11:18:44Z</time>
      </trkpt>
      <trkpt lat="59.7563017" lon="17.6496478">
        <ele>28.9769</ele>
        <time>2013-05-26T11:18:45Z</time>
      </trkpt>
      <trkpt lat="59.7563834" lon="17.6495443">
        <ele>30.4188</ele>
        <time>2013-05-26T11:18:46Z</time>
      </trkpt>
      <trkpt lat="59.7564544" lon="17.6494418">
        <ele>29.9381</ele>
        <time>2013-05-26T11:18:47Z</time>
      </trkpt>
      <trkpt lat="59.7565307" lon="17.6493401">
        <ele>30.4188</ele>
        <time>2013-05-26T11:18:48Z</time>
      </trkpt>
      <trkpt lat="59.7566062" lon="17.6492429">
        <ele>30.8995</ele>
        <time>2013-05-26T11:18:49Z</time>
      </trkpt>
      <trkpt lat="59.7566801" lon="17.649146">
        <ele>30.4188</ele>
        <time>2013-05-26T11:18:50Z</time>
      </trkpt>
      <trkpt lat="59.7567527" lon="17.6490442">
        <ele>29.9381</ele>
        <time>2013-05-26T11:18:51Z</time>
      </trkpt>
      <trkpt lat="59.7568287" lon="17.6489467">
        <ele>29.9381</ele>
        <time>2013-05-26T11:18:52Z</time>
      </trkpt>
      <trkpt lat="59.7569051" lon="17.648849">
        <ele>30.4188</ele>
        <time>2013-05-26T11:18:53Z</time>
      </trkpt>
      <trkpt lat="59.7569849" lon="17.6487495">
        <ele>30.8995</ele>
        <time>2013-05-26T11:18:54Z</time>
      </trkpt>
      <trkpt lat="59.7570554" lon="17.6486575">
        <ele>30.4188</ele>
        <time>2013-05-26T11:18:55Z</time>
      </trkpt>
      <trkpt lat="59.7571278" lon="17.6485601">
        <ele>29.9381</ele>
        <time>2013-05-26T11:18:56Z</time>
      </trkpt>
      <trkpt lat="59.7572027" lon="17.6484642">
        <ele>29.4575</ele>
        <time>2013-05-26T11:18:57Z</time>
      </trkpt>
      <trkpt lat="59.7572776" lon="17.648368">
        <ele>29.4575</ele>
        <time>2013-05-26T11:18:58Z</time>
      </trkpt>
      <trkpt lat="59.757353" lon="17.6482741">
        <ele>28.9769</ele>
        <time>2013-05-26T11:18:59Z</time>
      </trkpt>
      <trkpt lat="59.7574276" lon="17.6481787">
        <ele>28.4962</ele>
        <time>2013-05-26T11:19:00Z</time>
      </trkpt>
      <trkpt lat="59.7575009" lon="17.6480867">
        <ele>28.4962</ele>
        <time>2013-05-26T11:19:01Z</time>
      </trkpt>
      <trkpt lat="59.7575743" lon="17.6480002">
        <ele>28.4962</ele>
        <time>2013-05-26T11:19:02Z</time>
      </trkpt>
      <trkpt lat="59.7576483" lon="17.6479155">
        <ele>28.4962</ele>
        <time>2013-05-26T11:19:03Z</time>
      </trkpt>
      <trkpt lat="59.7577199" lon="17.647825">
        <ele>28.0155</ele>
        <time>2013-05-26T11:19:04Z</time>
      </trkpt>
      <trkpt lat="59.7577917" lon="17.6477324">
        <ele>28.0155</ele>
        <time>2013-05-26T11:19:05Z</time>
      </trkpt>
      <trkpt lat="59.7578635" lon="17.6476421">
        <ele>27.5349</ele>
        <time>2013-05-26T11:19:06Z</time>
      </trkpt>
      <trkpt lat="59.7579365" lon="17.647548">
        <ele>28.0155</ele>
        <time>2013-05-26T11:19:07Z</time>
      </trkpt>
      <trkpt lat="59.7580094" lon="17.6474576">
        <ele>28.0155</ele>
        <time>2013-05-26T11:19:08Z</time>
      </trkpt>
      <trkpt lat="59.7580798" lon="17.6473664">
        <ele>28.0155</ele>
        <time>2013-05-26T11:19:09Z</time>
      </trkpt>
      <trkpt lat="59.758146" lon="17.6472742">
        <ele>28.0155</ele>
        <time>2013-05-26T11:19:10Z</time>
      </trkpt>
      <trkpt lat="59.7582119" lon="17.6471807">
        <ele>28.0155</ele>
        <time>2013-05-26T11:19:11Z</time>
      </trkpt>
      <trkpt lat="59.7582787" lon="17.6470915">
        <ele>27.5349</ele>
        <time>2013-05-26T11:19:12Z</time>
      </trkpt>
      <trkpt lat="59.7583439" lon="17.6470072">
        <ele>27.0543</ele>
        <time>2013-05-26T11:19:13Z</time>
      </trkpt>
      <trkpt lat="59.7584094" lon="17.6469261">
        <ele>27.0543</ele>
        <time>2013-05-26T11:19:14Z</time>
      </trkpt>
      <trkpt lat="59.758477" lon="17.6468381">
        <ele>26.5736</ele>
        <time>2013-05-26T11:19:15Z</time>
      </trkpt>
      <trkpt lat="59.7585467" lon="17.6467484">
        <ele>26.5736</ele>
        <time>2013-05-26T11:19:16Z</time>
      </trkpt>
      <trkpt lat="59.758617" lon="17.6466692">
        <ele>26.5736</ele>
        <time>2013-05-26T11:19:17Z</time>
      </trkpt>
      <trkpt lat="59.758688" lon="17.6465944">
        <ele>26.5736</ele>
        <time>2013-05-26T11:19:18Z</time>
      </trkpt>
      <trkpt lat="59.7587585" lon="17.6465217">
        <ele>26.0929</ele>
        <time>2013-05-26T11:19:19Z</time>
      </trkpt>
      <trkpt lat="59.7588305" lon="17.6464565">
        <ele>26.0929</ele>
        <time>2013-05-26T11:19:20Z</time>
      </trkpt>
      <trkpt lat="59.7589015" lon="17.6464012">
        <ele>26.0929</ele>
        <time>2013-05-26T11:19:21Z</time>
      </trkpt>
      <trkpt lat="59.7589723" lon="17.6463511">
        <ele>26.0929</ele>
        <time>2013-05-26T11:19:22Z</time>
      </trkpt>
      <trkpt lat="59.7590434" lon="17.6463068">
        <ele>26.0929</ele>
        <time>2013-05-26T11:19:23Z</time>
      </trkpt>
      <trkpt lat="59.7591138" lon="17.6462696">
        <ele>25.6123</ele>
        <time>2013-05-26T11:19:24Z</time>
      </trkpt>
      <trkpt lat="59.7591842" lon="17.6462367">
        <ele>25.1317</ele>
        <time>2013-05-26T11:19:25Z</time>
      </trkpt>
      <trkpt lat="59.7592564" lon="17.6462052">
        <ele>25.1317</ele>
        <time>2013-05-26T11:19:26Z</time>
      </trkpt>
      <trkpt lat="59.7593288" lon="17.6461751">
        <ele>24.651</ele>
        <time>2013-05-26T11:19:27Z</time>
      </trkpt>
      <trkpt lat="59.7594009" lon="17.6461471">
        <ele>24.1703</ele>
        <time>2013-05-26T11:19:28Z</time>
      </trkpt>
      <trkpt lat="59.7594748" lon="17.646118">
        <ele>23.209</ele>
        <time>2013-05-26T11:19:29Z</time>
      </trkpt>
      <trkpt lat="59.7595463" lon="17.6460912">
        <ele>22.2476</ele>
        <time>2013-05-26T11:19:30Z</time>
      </trkpt>
      <trkpt lat="59.759621" lon="17.6460647">
        <ele>22.2476</ele>
        <time>2013-05-26T11:19:31Z</time>
      </trkpt>
      <trkpt lat="59.7596952" lon="17.646041">
        <ele>21.767</ele>
        <time>2013-05-26T11:19:32Z</time>
      </trkpt>
      <trkpt lat="59.7597685" lon="17.6460151">
        <ele>21.2864</ele>
        <time>2013-05-26T11:19:33Z</time>
      </trkpt>
      <trkpt lat="59.7598441" lon="17.6459867">
        <ele>20.8057</ele>
        <time>2013-05-26T11:19:34Z</time>
      </trkpt>
      <trkpt lat="59.7599242" lon="17.6459621">
        <ele>20.8057</ele>
        <time>2013-05-26T11:19:35Z</time>
      </trkpt>
      <trkpt lat="59.7600049" lon="17.6459364">
        <ele>20.8057</ele>
        <time>2013-05-26T11:19:36Z</time>
      </trkpt>
      <trkpt lat="59.7600858" lon="17.6459099">
        <ele>20.8057</ele>
        <time>2013-05-26T11:19:37Z</time>
      </trkpt>
      <trkpt lat="59.7601675" lon="17.6458836">
        <ele>20.325</ele>
        <time>2013-05-26T11:19:38Z</time>
      </trkpt>
      <trkpt lat="59.7602518" lon="17.6458554">
        <ele>20.325</ele>
        <time>2013-05-26T11:19:39Z</time>
      </trkpt>
      <trkpt lat="59.7603377" lon="17.6458239">
        <ele>19.8444</ele>
        <time>2013-05-26T11:19:40Z</time>
      </trkpt>
      <trkpt lat="59.7604245" lon="17.6457894">
        <ele>19.3638</ele>
        <time>2013-05-26T11:19:41Z</time>
      </trkpt>
      <trkpt lat="59.7605125" lon="17.6457581">
        <ele>18.8831</ele>
        <time>2013-05-26T11:19:42Z</time>
      </trkpt>
      <trkpt lat="59.7606007" lon="17.6457256">
        <ele>18.8831</ele>
        <time>2013-05-26T11:19:43Z</time>
      </trkpt>
      <trkpt lat="59.7606897" lon="17.6456935">
        <ele>18.4023</ele>
        <time>2013-05-26T11:19:44Z</time>
      </trkpt>
      <trkpt lat="59.7607781" lon="17.6456644">
        <ele>18.4023</ele>
        <time>2013-05-26T11:19:45Z</time>
      </trkpt>
      <trkpt lat="59.7608663" lon="17.6456329">
        <ele>17.4412</ele>
        <time>2013-05-26T11:19:46Z</time>
      </trkpt>
      <trkpt lat="59.7609552" lon="17.6456069">
        <ele>17.4412</ele>
        <time>2013-05-26T11:19:47Z</time>
      </trkpt>
      <trkpt lat="59.7610439" lon="17.6455878">
        <ele>16.9604</ele>
        <time>2013-05-26T11:19:48Z</time>
      </trkpt>
      <trkpt lat="59.7611326" lon="17.6455754">
        <ele>16.9604</ele>
        <time>2013-05-26T11:19:49Z</time>
      </trkpt>
      <trkpt lat="59.7612206" lon="17.6455689">
        <ele>16.4797</ele>
        <time>2013-05-26T11:19:50Z</time>
      </trkpt>
      <trkpt lat="59.7613066" lon="17.6455743">
        <ele>16.4797</ele>
        <time>2013-05-26T11:19:51Z</time>
      </trkpt>
      <trkpt lat="59.7613905" lon="17.6455938">
        <ele>16.9604</ele>
        <time>2013-05-26T11:19:52Z</time>
      </trkpt>
      <trkpt lat="59.761472" lon="17.6456178">
        <ele>16.9604</ele>
        <time>2013-05-26T11:19:53Z</time>
      </trkpt>
      <trkpt lat="59.7615517" lon="17.6456473">
        <ele>16.9604</ele>
        <time>2013-05-26T11:19:54Z</time>
      </trkpt>
      <trkpt lat="59.7616293" lon="17.6456805">
        <ele>16.9604</ele>
        <time>2013-05-26T11:19:55Z</time>
      </trkpt>
      <trkpt lat="59.761705" lon="17.6457181">
        <ele>17.4412</ele>
        <time>2013-05-26T11:19:56Z</time>
      </trkpt>
      <trkpt lat="59.761778" lon="17.6457603">
        <ele>17.9218</ele>
        <time>2013-05-26T11:19:57Z</time>
      </trkpt>
      <trkpt lat="59.7618491" lon="17.6458042">
        <ele>17.9218</ele>
        <time>2013-05-26T11:19:58Z</time>
      </trkpt>
      <trkpt lat="59.7619167" lon="17.6458497">
        <ele>17.9218</ele>
        <time>2013-05-26T11:19:59Z</time>
      </trkpt>
      <trkpt lat="59.7619831" lon="17.6458922">
        <ele>17.4412</ele>
        <time>2013-05-26T11:20:00Z</time>
      </trkpt>
      <trkpt lat="59.7620485" lon="17.645929">
        <ele>16.9604</ele>
        <time>2013-05-26T11:20:01Z</time>
      </trkpt>
      <trkpt lat="59.7621133" lon="17.6459649">
        <ele>16.4797</ele>
        <time>2013-05-26T11:20:02Z</time>
      </trkpt>
      <trkpt lat="59.7621769" lon="17.6459989">
        <ele>15.999</ele>
        <time>2013-05-26T11:20:03Z</time>
      </trkpt>
      <trkpt lat="59.762245" lon="17.6460259">
        <ele>15.999</ele>
        <time>2013-05-26T11:20:04Z</time>
      </trkpt>
      <trkpt lat="59.762315" lon="17.646053">
        <ele>16.4797</ele>
        <time>2013-05-26T11:20:05Z</time>
      </trkpt>
      <trkpt lat="59.762382" lon="17.6460821">
        <ele>16.4797</ele>
        <time>2013-05-26T11:20:06Z</time>
      </trkpt>
      <trkpt lat="59.7624497" lon="17.6461066">
        <ele>16.4797</ele>
        <time>2013-05-26T11:20:07Z</time>
      </trkpt>
      <trkpt lat="59.762514" lon="17.6461325">
        <ele>15.5184</ele>
        <time>2013-05-26T11:20:08Z</time>
      </trkpt>
      <trkpt lat="59.7625954" lon="17.6461415">
        <ele>17.4412</ele>
        <time>2013-05-26T11:20:09Z</time>
      </trkpt>
      <trkpt lat="59.7626743" lon="17.6461499">
        <ele>18.4023</ele>
        <time>2013-05-26T11:20:10Z</time>
      </trkpt>
      <trkpt lat="59.7627535" lon="17.646156">
        <ele>19.8444</ele>
        <time>2013-05-26T11:20:11Z</time>
      </trkpt>
      <trkpt lat="59.7628244" lon="17.646169">
        <ele>20.325</ele>
        <time>2013-05-26T11:20:12Z</time>
      </trkpt>
      <trkpt lat="59.7628926" lon="17.6461773">
        <ele>20.325</ele>
        <time>2013-05-26T11:20:13Z</time>
      </trkpt>
      <trkpt lat="59.762961" lon="17.6461822">
        <ele>20.325</ele>
        <time>2013-05-26T11:20:14Z</time>
      </trkpt>
      <trkpt lat="59.7630305" lon="17.6461876">
        <ele>20.325</ele>
        <time>2013-05-26T11:20:15Z</time>
      </trkpt>
      <trkpt lat="59.763101" lon="17.6461888">
        <ele>20.325</ele>
        <time>2013-05-26T11:20:16Z</time>
      </trkpt>
      <trkpt lat="59.763169" lon="17.6461892">
        <ele>20.325</ele>
        <time>2013-05-26T11:20:17Z</time>
      </trkpt>
      <trkpt lat="59.7632375" lon="17.6461912">
        <ele>20.325</ele>
        <time>2013-05-26T11:20:18Z</time>
      </trkpt>
      <trkpt lat="59.763307" lon="17.6461933">
        <ele>19.8444</ele>
        <time>2013-05-26T11:20:19Z</time>
      </trkpt>
      <trkpt lat="59.7633926" lon="17.6461831">
        <ele>22.2476</ele>
        <time>2013-05-26T11:20:20Z</time>
      </trkpt>
      <trkpt lat="59.7634636" lon="17.6461829">
        <ele>22.7283</ele>
        <time>2013-05-26T11:20:21Z</time>
      </trkpt>
      <trkpt lat="59.7635326" lon="17.6461857">
        <ele>22.2476</ele>
        <time>2013-05-26T11:20:22Z</time>
      </trkpt>
      <trkpt lat="59.7636022" lon="17.6461902">
        <ele>22.2476</ele>
        <time>2013-05-26T11:20:23Z</time>
      </trkpt>
      <trkpt lat="59.7636717" lon="17.6461933">
        <ele>22.2476</ele>
        <time>2013-05-26T11:20:24Z</time>
      </trkpt>
      <trkpt lat="59.7637391" lon="17.646197">
        <ele>22.2476</ele>
        <time>2013-05-26T11:20:25Z</time>
      </trkpt>
      <trkpt lat="59.7638071" lon="17.6462047">
        <ele>22.7283</ele>
        <time>2013-05-26T11:20:26Z</time>
      </trkpt>
      <trkpt lat="59.7638792" lon="17.6462429">
        <ele>22.7283</ele>
        <time>2013-05-26T11:20:27Z</time>
      </trkpt>
      <trkpt lat="59.7639453" lon="17.6462647">
        <ele>22.7283</ele>
        <time>2013-05-26T11:20:28Z</time>
      </trkpt>
      <trkpt lat="59.7640115" lon="17.6462933">
        <ele>22.7283</ele>
        <time>2013-05-26T11:20:29Z</time>
      </trkpt>
      <trkpt lat="59.7640742" lon="17.6462955">
        <ele>23.209</ele>
        <time>2013-05-26T11:20:30Z</time>
      </trkpt>
      <trkpt lat="59.764134" lon="17.646299">
        <ele>22.7283</ele>
        <time>2013-05-26T11:20:31Z</time>
      </trkpt>
      <trkpt lat="59.7641926" lon="17.6463103">
        <ele>22.7283</ele>
        <time>2013-05-26T11:20:32Z</time>
      </trkpt>
      <trkpt lat="59.7642525" lon="17.6463196">
        <ele>22.7283</ele>
        <time>2013-05-26T11:20:33Z</time>
      </trkpt>
      <trkpt lat="59.7643131" lon="17.6463296">
        <ele>22.2476</ele>
        <time>2013-05-26T11:20:34Z</time>
      </trkpt>
      <trkpt lat="59.7643737" lon="17.6463431">
        <ele>22.2476</ele>
        <time>2013-05-26T11:20:35Z</time>
      </trkpt>
      <trkpt lat="59.7644364" lon="17.6463606">
        <ele>22.7283</ele>
        <time>2013-05-26T11:20:36Z</time>
      </trkpt>
      <trkpt lat="59.7644989" lon="17.6463783">
        <ele>23.209</ele>
        <time>2013-05-26T11:20:37Z</time>
      </trkpt>
      <trkpt lat="59.7645609" lon="17.6463968">
        <ele>23.6896</ele>
        <time>2013-05-26T11:20:38Z</time>
      </trkpt>
      <trkpt lat="59.7646239" lon="17.6464161">
        <ele>24.1703</ele>
        <time>2013-05-26T11:20:39Z</time>
      </trkpt>
      <trkpt lat="59.7646872" lon="17.6464374">
        <ele>24.651</ele>
        <time>2013-05-26T11:20:40Z</time>
      </trkpt>
      <trkpt lat="59.7647508" lon="17.6464606">
        <ele>24.651</ele>
        <time>2013-05-26T11:20:41Z</time>
      </trkpt>
      <trkpt lat="59.7648146" lon="17.6464837">
        <ele>24.651</ele>
        <time>2013-05-26T11:20:42Z</time>
      </trkpt>
      <trkpt lat="59.7648789" lon="17.646506">
        <ele>25.1317</ele>
        <time>2013-05-26T11:20:43Z</time>
      </trkpt>
      <trkpt lat="59.7649428" lon="17.6465274">
        <ele>25.1317</ele>
        <time>2013-05-26T11:20:44Z</time>
      </trkpt>
      <trkpt lat="59.7650057" lon="17.6465485">
        <ele>25.1317</ele>
        <time>2013-05-26T11:20:45Z</time>
      </trkpt>
      <trkpt lat="59.7650687" lon="17.6465704">
        <ele>25.6123</ele>
        <time>2013-05-26T11:20:46Z</time>
      </trkpt>
      <trkpt lat="59.7651315" lon="17.6465942">
        <ele>25.6123</ele>
        <time>2013-05-26T11:20:47Z</time>
      </trkpt>
      <trkpt lat="59.7651943" lon="17.6466179">
        <ele>25.6123</ele>
        <time>2013-05-26T11:20:48Z</time>
      </trkpt>
      <trkpt lat="59.7652558" lon="17.6466412">
        <ele>25.6123</ele>
        <time>2013-05-26T11:20:49Z</time>
      </trkpt>
      <trkpt lat="59.7653182" lon="17.6466642">
        <ele>26.0929</ele>
        <time>2013-05-26T11:20:50Z</time>
      </trkpt>
      <trkpt lat="59.7653808" lon="17.646688">
        <ele>26.0929</ele>
        <time>2013-05-26T11:20:51Z</time>
      </trkpt>
      <trkpt lat="59.7654434" lon="17.6467158">
        <ele>26.0929</ele>
        <time>2013-05-26T11:20:52Z</time>
      </trkpt>
      <trkpt lat="59.7655066" lon="17.6467469">
        <ele>26.0929</ele>
        <time>2013-05-26T11:20:53Z</time>
      </trkpt>
      <trkpt lat="59.7655705" lon="17.6467792">
        <ele>26.0929</ele>
        <time>2013-05-26T11:20:54Z</time>
      </trkpt>
      <trkpt lat="59.765635" lon="17.646814">
        <ele>26.0929</ele>
        <time>2013-05-26T11:20:55Z</time>
      </trkpt>
      <trkpt lat="59.7656993" lon="17.6468503">
        <ele>26.0929</ele>
        <time>2013-05-26T11:20:56Z</time>
      </trkpt>
      <trkpt lat="59.7657637" lon="17.6468876">
        <ele>26.0929</ele>
        <time>2013-05-26T11:20:57Z</time>
      </trkpt>
      <trkpt lat="59.7658278" lon="17.6469272">
        <ele>26.0929</ele>
        <time>2013-05-26T11:20:58Z</time>
      </trkpt>
      <trkpt lat="59.765892" lon="17.6469688">
        <ele>26.0929</ele>
        <time>2013-05-26T11:20:59Z</time>
      </trkpt>
      <trkpt lat="59.7659564" lon="17.6470118">
        <ele>26.0929</ele>
        <time>2013-05-26T11:21:00Z</time>
      </trkpt>
      <trkpt lat="59.7660203" lon="17.6470574">
        <ele>26.0929</ele>
        <time>2013-05-26T11:21:01Z</time>
      </trkpt>
      <trkpt lat="59.7660837" lon="17.6471035">
        <ele>26.0929</ele>
        <time>2013-05-26T11:21:02Z</time>
      </trkpt>
      <trkpt lat="59.7661478" lon="17.6471485">
        <ele>26.0929</ele>
        <time>2013-05-26T11:21:03Z</time>
      </trkpt>
      <trkpt lat="59.7662099" lon="17.6471947">
        <ele>26.0929</ele>
        <time>2013-05-26T11:21:04Z</time>
      </trkpt>
      <trkpt lat="59.7662703" lon="17.6472407">
        <ele>26.5736</ele>
        <time>2013-05-26T11:21:05Z</time>
      </trkpt>
      <trkpt lat="59.7663292" lon="17.6472863">
        <ele>26.5736</ele>
        <time>2013-05-26T11:21:06Z</time>
      </trkpt>
      <trkpt lat="59.7663851" lon="17.6473317">
        <ele>26.5736</ele>
        <time>2013-05-26T11:21:07Z</time>
      </trkpt>
      <trkpt lat="59.7664404" lon="17.6473761">
        <ele>27.0543</ele>
        <time>2013-05-26T11:21:08Z</time>
      </trkpt>
      <trkpt lat="59.7664963" lon="17.6474218">
        <ele>27.0543</ele>
        <time>2013-05-26T11:21:09Z</time>
      </trkpt>
      <trkpt lat="59.7665523" lon="17.6474683">
        <ele>27.0543</ele>
        <time>2013-05-26T11:21:10Z</time>
      </trkpt>
      <trkpt lat="59.7666077" lon="17.6475153">
        <ele>27.5349</ele>
        <time>2013-05-26T11:21:11Z</time>
      </trkpt>
      <trkpt lat="59.7666633" lon="17.6475629">
        <ele>27.5349</ele>
        <time>2013-05-26T11:21:12Z</time>
      </trkpt>
      <trkpt lat="59.7667196" lon="17.6476123">
        <ele>27.5349</ele>
        <time>2013-05-26T11:21:13Z</time>
      </trkpt>
      <trkpt lat="59.7667761" lon="17.6476645">
        <ele>27.5349</ele>
        <time>2013-05-26T11:21:14Z</time>
      </trkpt>
      <trkpt lat="59.7668332" lon="17.6477169">
        <ele>27.5349</ele>
        <time>2013-05-26T11:21:15Z</time>
      </trkpt>
      <trkpt lat="59.7668909" lon="17.6477685">
        <ele>27.5349</ele>
        <time>2013-05-26T11:21:16Z</time>
      </trkpt>
      <trkpt lat="59.7669488" lon="17.6478207">
        <ele>27.5349</ele>
        <time>2013-05-26T11:21:17Z</time>
      </trkpt>
      <trkpt lat="59.7670059" lon="17.6478749">
        <ele>27.5349</ele>
        <time>2013-05-26T11:21:18Z</time>
      </trkpt>
      <trkpt lat="59.7670638" lon="17.6479303">
        <ele>28.0155</ele>
        <time>2013-05-26T11:21:19Z</time>
      </trkpt>
      <trkpt lat="59.7671201" lon="17.6479872">
        <ele>28.0155</ele>
        <time>2013-05-26T11:21:20Z</time>
      </trkpt>
      <trkpt lat="59.7671755" lon="17.6480438">
        <ele>28.0155</ele>
        <time>2013-05-26T11:21:21Z</time>
      </trkpt>
      <trkpt lat="59.7672294" lon="17.6480986">
        <ele>28.0155</ele>
        <time>2013-05-26T11:21:22Z</time>
      </trkpt>
      <trkpt lat="59.7672828" lon="17.6481519">
        <ele>28.0155</ele>
        <time>2013-05-26T11:21:23Z</time>
      </trkpt>
      <trkpt lat="59.7673357" lon="17.6482064">
        <ele>28.0155</ele>
        <time>2013-05-26T11:21:24Z</time>
      </trkpt>
      <trkpt lat="59.767388" lon="17.6482623">
        <ele>28.0155</ele>
        <time>2013-05-26T11:21:25Z</time>
      </trkpt>
      <trkpt lat="59.7674388" lon="17.648317">
        <ele>28.0155</ele>
        <time>2013-05-26T11:21:26Z</time>
      </trkpt>
      <trkpt lat="59.7674883" lon="17.6483705">
        <ele>28.0155</ele>
        <time>2013-05-26T11:21:27Z</time>
      </trkpt>
      <trkpt lat="59.7675386" lon="17.6484244">
        <ele>28.0155</ele>
        <time>2013-05-26T11:21:28Z</time>
      </trkpt>
      <trkpt lat="59.767589" lon="17.6484801">
        <ele>28.0155</ele>
        <time>2013-05-26T11:21:29Z</time>
      </trkpt>
      <trkpt lat="59.7676408" lon="17.6485372">
        <ele>28.0155</ele>
        <time>2013-05-26T11:21:30Z</time>
      </trkpt>
      <trkpt lat="59.7676937" lon="17.6485933">
        <ele>28.0155</ele>
        <time>2013-05-26T11:21:31Z</time>
      </trkpt>
      <trkpt lat="59.7677473" lon="17.6486497">
        <ele>28.0155</ele>
        <time>2013-05-26T11:21:32Z</time>
      </trkpt>
      <trkpt lat="59.7678007" lon="17.6487077">
        <ele>28.0155</ele>
        <time>2013-05-26T11:21:33Z</time>
      </trkpt>
      <trkpt lat="59.7678552" lon="17.6487646">
        <ele>28.0155</ele>
        <time>2013-05-26T11:21:34Z</time>
      </trkpt>
      <trkpt lat="59.7679096" lon="17.6488213">
        <ele>28.0155</ele>
        <time>2013-05-26T11:21:35Z</time>
      </trkpt>
      <trkpt lat="59.7679634" lon="17.648879">
        <ele>28.0155</ele>
        <time>2013-05-26T11:21:36Z</time>
      </trkpt>
      <trkpt lat="59.7680169" lon="17.6489346">
        <ele>28.4962</ele>
        <time>2013-05-26T11:21:37Z</time>
      </trkpt>
      <trkpt lat="59.7680693" lon="17.6489885">
        <ele>28.4962</ele>
        <time>2013-05-26T11:21:38Z</time>
      </trkpt>
      <trkpt lat="59.7681211" lon="17.6490415">
        <ele>28.4962</ele>
        <time>2013-05-26T11:21:39Z</time>
      </trkpt>
      <trkpt lat="59.7681733" lon="17.6490938">
        <ele>28.4962</ele>
        <time>2013-05-26T11:21:40Z</time>
      </trkpt>
      <trkpt lat="59.7682256" lon="17.6491459">
        <ele>28.9769</ele>
        <time>2013-05-26T11:21:41Z</time>
      </trkpt>
      <trkpt lat="59.7682775" lon="17.6491979">
        <ele>28.9769</ele>
        <time>2013-05-26T11:21:42Z</time>
      </trkpt>
      <trkpt lat="59.7683293" lon="17.6492507">
        <ele>28.9769</ele>
        <time>2013-05-26T11:21:43Z</time>
      </trkpt>
      <trkpt lat="59.76838" lon="17.6493039">
        <ele>28.9769</ele>
        <time>2013-05-26T11:21:44Z</time>
      </trkpt>
      <trkpt lat="59.7684308" lon="17.6493584">
        <ele>28.9769</ele>
        <time>2013-05-26T11:21:45Z</time>
      </trkpt>
      <trkpt lat="59.7684829" lon="17.6494132">
        <ele>28.9769</ele>
        <time>2013-05-26T11:21:46Z</time>
      </trkpt>
      <trkpt lat="59.7685348" lon="17.6494686">
        <ele>28.9769</ele>
        <time>2013-05-26T11:21:47Z</time>
      </trkpt>
      <trkpt lat="59.7685858" lon="17.6495267">
        <ele>28.9769</ele>
        <time>2013-05-26T11:21:48Z</time>
      </trkpt>
      <trkpt lat="59.7686363" lon="17.6495892">
        <ele>28.9769</ele>
        <time>2013-05-26T11:21:49Z</time>
      </trkpt>
      <trkpt lat="59.7686862" lon="17.6496537">
        <ele>28.9769</ele>
        <time>2013-05-26T11:21:50Z</time>
      </trkpt>
      <trkpt lat="59.7687368" lon="17.6497203">
        <ele>28.4962</ele>
        <time>2013-05-26T11:21:51Z</time>
      </trkpt>
      <trkpt lat="59.768787" lon="17.6497898">
        <ele>28.9769</ele>
        <time>2013-05-26T11:21:52Z</time>
      </trkpt>
      <trkpt lat="59.7688354" lon="17.6498611">
        <ele>28.9769</ele>
        <time>2013-05-26T11:21:53Z</time>
      </trkpt>
      <trkpt lat="59.768882" lon="17.6499339">
        <ele>28.9769</ele>
        <time>2013-05-26T11:21:54Z</time>
      </trkpt>
      <trkpt lat="59.7689271" lon="17.6500086">
        <ele>28.9769</ele>
        <time>2013-05-26T11:21:55Z</time>
      </trkpt>
      <trkpt lat="59.7689702" lon="17.6500857">
        <ele>28.9769</ele>
        <time>2013-05-26T11:21:56Z</time>
      </trkpt>
      <trkpt lat="59.7690115" lon="17.650164">
        <ele>28.9769</ele>
        <time>2013-05-26T11:21:57Z</time>
      </trkpt>
      <trkpt lat="59.7690543" lon="17.6502422">
        <ele>29.4575</ele>
        <time>2013-05-26T11:21:58Z</time>
      </trkpt>
      <trkpt lat="59.7690953" lon="17.6503213">
        <ele>29.9381</ele>
        <time>2013-05-26T11:21:59Z</time>
      </trkpt>
      <trkpt lat="59.7691343" lon="17.6504019">
        <ele>30.4188</ele>
        <time>2013-05-26T11:22:00Z</time>
      </trkpt>
      <trkpt lat="59.7691726" lon="17.6504845">
        <ele>30.4188</ele>
        <time>2013-05-26T11:22:01Z</time>
      </trkpt>
      <trkpt lat="59.7692099" lon="17.650569">
        <ele>30.8995</ele>
        <time>2013-05-26T11:22:02Z</time>
      </trkpt>
      <trkpt lat="59.7692461" lon="17.6506549">
        <ele>30.8995</ele>
        <time>2013-05-26T11:22:03Z</time>
      </trkpt>
      <trkpt lat="59.7692817" lon="17.6507412">
        <ele>31.3801</ele>
        <time>2013-05-26T11:22:04Z</time>
      </trkpt>
      <trkpt lat="59.769317" lon="17.6508269">
        <ele>31.3801</ele>
        <time>2013-05-26T11:22:05Z</time>
      </trkpt>
      <trkpt lat="59.7693523" lon="17.6509129">
        <ele>31.3801</ele>
        <time>2013-05-26T11:22:06Z</time>
      </trkpt>
      <trkpt lat="59.7693871" lon="17.6510005">
        <ele>31.8607</ele>
        <time>2013-05-26T11:22:07Z</time>
      </trkpt>
      <trkpt lat="59.7694221" lon="17.6510906">
        <ele>32.3416</ele>
        <time>2013-05-26T11:22:08Z</time>
      </trkpt>
      <trkpt lat="59.7694579" lon="17.6511814">
        <ele>32.3416</ele>
        <time>2013-05-26T11:22:09Z</time>
      </trkpt>
      <trkpt lat="59.7694936" lon="17.6512699">
        <ele>32.8223</ele>
        <time>2013-05-26T11:22:10Z</time>
      </trkpt>
      <trkpt lat="59.7695281" lon="17.6513553">
        <ele>32.8223</ele>
        <time>2013-05-26T11:22:11Z</time>
      </trkpt>
      <trkpt lat="59.7695607" lon="17.6514404">
        <ele>32.8223</ele>
        <time>2013-05-26T11:22:12Z</time>
      </trkpt>
      <trkpt lat="59.7695922" lon="17.6515255">
        <ele>33.3029</ele>
        <time>2013-05-26T11:22:13Z</time>
      </trkpt>
      <trkpt lat="59.7696241" lon="17.6516085">
        <ele>33.3029</ele>
        <time>2013-05-26T11:22:14Z</time>
      </trkpt>
      <trkpt lat="59.7696563" lon="17.6516899">
        <ele>33.7834</ele>
        <time>2013-05-26T11:22:15Z</time>
      </trkpt>
      <trkpt lat="59.7696881" lon="17.6517707">
        <ele>34.2642</ele>
        <time>2013-05-26T11:22:16Z</time>
      </trkpt>
      <trkpt lat="59.7697196" lon="17.6518505">
        <ele>34.2642</ele>
        <time>2013-05-26T11:22:17Z</time>
      </trkpt>
      <trkpt lat="59.7697507" lon="17.6519291">
        <ele>34.7449</ele>
        <time>2013-05-26T11:22:18Z</time>
      </trkpt>
      <trkpt lat="59.7697817" lon="17.6520083">
        <ele>34.7449</ele>
        <time>2013-05-26T11:22:19Z</time>
      </trkpt>
      <trkpt lat="59.7698116" lon="17.6520892">
        <ele>35.2255</ele>
        <time>2013-05-26T11:22:20Z</time>
      </trkpt>
      <trkpt lat="59.7698413" lon="17.65217">
        <ele>35.7061</ele>
        <time>2013-05-26T11:22:21Z</time>
      </trkpt>
      <trkpt lat="59.7698714" lon="17.6522485">
        <ele>35.7061</ele>
        <time>2013-05-26T11:22:22Z</time>
      </trkpt>
      <trkpt lat="59.7699014" lon="17.652325">
        <ele>36.1868</ele>
        <time>2013-05-26T11:22:23Z</time>
      </trkpt>
      <trkpt lat="59.769931" lon="17.6524023">
        <ele>36.6675</ele>
        <time>2013-05-26T11:22:24Z</time>
      </trkpt>
      <trkpt lat="59.7699608" lon="17.6524815">
        <ele>36.6675</ele>
        <time>2013-05-26T11:22:25Z</time>
      </trkpt>
      <trkpt lat="59.769991" lon="17.6525602">
        <ele>36.6675</ele>
        <time>2013-05-26T11:22:26Z</time>
      </trkpt>
      <trkpt lat="59.7700232" lon="17.6526379">
        <ele>37.6287</ele>
        <time>2013-05-26T11:22:27Z</time>
      </trkpt>
      <trkpt lat="59.7700527" lon="17.652717">
        <ele>37.6287</ele>
        <time>2013-05-26T11:22:28Z</time>
      </trkpt>
      <trkpt lat="59.7700799" lon="17.6527965">
        <ele>38.1094</ele>
        <time>2013-05-26T11:22:29Z</time>
      </trkpt>
      <trkpt lat="59.7701117" lon="17.6528749">
        <ele>38.5901</ele>
        <time>2013-05-26T11:22:30Z</time>
      </trkpt>
      <trkpt lat="59.7701449" lon="17.6529534">
        <ele>39.0707</ele>
        <time>2013-05-26T11:22:31Z</time>
      </trkpt>
      <trkpt lat="59.7701804" lon="17.6530336">
        <ele>40.5128</ele>
        <time>2013-05-26T11:22:32Z</time>
      </trkpt>
      <trkpt lat="59.7702138" lon="17.6531166">
        <ele>40.9934</ele>
        <time>2013-05-26T11:22:33Z</time>
      </trkpt>
      <trkpt lat="59.7702469" lon="17.6531988">
        <ele>41.474</ele>
        <time>2013-05-26T11:22:34Z</time>
      </trkpt>
      <trkpt lat="59.7702794" lon="17.6532796">
        <ele>41.474</ele>
        <time>2013-05-26T11:22:35Z</time>
      </trkpt>
      <trkpt lat="59.7703107" lon="17.6533609">
        <ele>41.9547</ele>
        <time>2013-05-26T11:22:36Z</time>
      </trkpt>
      <trkpt lat="59.77034" lon="17.6534413">
        <ele>41.9547</ele>
        <time>2013-05-26T11:22:37Z</time>
      </trkpt>
      <trkpt lat="59.7703615" lon="17.6535279">
        <ele>40.9934</ele>
        <time>2013-05-26T11:22:38Z</time>
      </trkpt>
      <trkpt lat="59.7703857" lon="17.6536072">
        <ele>40.9934</ele>
        <time>2013-05-26T11:22:39Z</time>
      </trkpt>
      <trkpt lat="59.7704166" lon="17.653679">
        <ele>40.9934</ele>
        <time>2013-05-26T11:22:40Z</time>
      </trkpt>
      <trkpt lat="59.7704521" lon="17.6537485">
        <ele>41.9547</ele>
        <time>2013-05-26T11:22:41Z</time>
      </trkpt>
      <trkpt lat="59.7704928" lon="17.6538184">
        <ele>42.4354</ele>
        <time>2013-05-26T11:22:42Z</time>
      </trkpt>
      <trkpt lat="59.7705333" lon="17.6538976">
        <ele>43.3966</ele>
        <time>2013-05-26T11:22:43Z</time>
      </trkpt>
      <trkpt lat="59.7705644" lon="17.6539881">
        <ele>42.916</ele>
        <time>2013-05-26T11:22:44Z</time>
      </trkpt>
      <trkpt lat="59.7706065" lon="17.6540679">
        <ele>44.358</ele>
        <time>2013-05-26T11:22:45Z</time>
      </trkpt>
      <trkpt lat="59.7706396" lon="17.6541442">
        <ele>44.358</ele>
        <time>2013-05-26T11:22:46Z</time>
      </trkpt>
      <trkpt lat="59.770676" lon="17.6542159">
        <ele>44.8386</ele>
        <time>2013-05-26T11:22:47Z</time>
      </trkpt>
      <trkpt lat="59.7707132" lon="17.6542879">
        <ele>45.7999</ele>
        <time>2013-05-26T11:22:48Z</time>
      </trkpt>
      <trkpt lat="59.7707506" lon="17.6543649">
        <ele>45.7999</ele>
        <time>2013-05-26T11:22:49Z</time>
      </trkpt>
      <trkpt lat="59.7707938" lon="17.6544386">
        <ele>47.7225</ele>
        <time>2013-05-26T11:22:50Z</time>
      </trkpt>
      <trkpt lat="59.7708364" lon="17.6545025">
        <ele>48.684</ele>
        <time>2013-05-26T11:22:51Z</time>
      </trkpt>
      <trkpt lat="59.7708818" lon="17.6545678">
        <ele>48.684</ele>
        <time>2013-05-26T11:22:52Z</time>
      </trkpt>
      <trkpt lat="59.7709282" lon="17.6546389">
        <ele>48.684</ele>
        <time>2013-05-26T11:22:53Z</time>
      </trkpt>
      <trkpt lat="59.7709756" lon="17.6547131">
        <ele>49.1646</ele>
        <time>2013-05-26T11:22:54Z</time>
      </trkpt>
      <trkpt lat="59.771023" lon="17.6547913">
        <ele>49.1646</ele>
        <time>2013-05-26T11:22:55Z</time>
      </trkpt>
      <trkpt lat="59.7710724" lon="17.6548643">
        <ele>50.126</ele>
        <time>2013-05-26T11:22:56Z</time>
      </trkpt>
      <trkpt lat="59.7711115" lon="17.6549374">
        <ele>48.684</ele>
        <time>2013-05-26T11:22:57Z</time>
      </trkpt>
      <trkpt lat="59.7711517" lon="17.6550076">
        <ele>48.2034</ele>
        <time>2013-05-26T11:22:58Z</time>
      </trkpt>
      <trkpt lat="59.7711922" lon="17.6550768">
        <ele>47.7225</ele>
        <time>2013-05-26T11:22:59Z</time>
      </trkpt>
      <trkpt lat="59.7712315" lon="17.6551446">
        <ele>47.7225</ele>
        <time>2013-05-26T11:23:00Z</time>
      </trkpt>
      <trkpt lat="59.7712695" lon="17.6552005">
        <ele>47.2418</ele>
        <time>2013-05-26T11:23:01Z</time>
      </trkpt>
      <trkpt lat="59.7713063" lon="17.6552422">
        <ele>45.7999</ele>
        <time>2013-05-26T11:23:02Z</time>
      </trkpt>
      <trkpt lat="59.7713477" lon="17.6553026">
        <ele>45.3192</ele>
        <time>2013-05-26T11:23:03Z</time>
      </trkpt>
      <trkpt lat="59.7713861" lon="17.655373">
        <ele>44.358</ele>
        <time>2013-05-26T11:23:04Z</time>
      </trkpt>
      <trkpt lat="59.7714307" lon="17.6554508">
        <ele>44.8386</ele>
        <time>2013-05-26T11:23:05Z</time>
      </trkpt>
      <trkpt lat="59.7714732" lon="17.6555176">
        <ele>44.8386</ele>
        <time>2013-05-26T11:23:06Z</time>
      </trkpt>
      <trkpt lat="59.7715135" lon="17.6555852">
        <ele>43.8773</ele>
        <time>2013-05-26T11:23:07Z</time>
      </trkpt>
      <trkpt lat="59.7715521" lon="17.6556522">
        <ele>43.8773</ele>
        <time>2013-05-26T11:23:08Z</time>
      </trkpt>
      <trkpt lat="59.7715953" lon="17.6557256">
        <ele>44.358</ele>
        <time>2013-05-26T11:23:09Z</time>
      </trkpt>
      <trkpt lat="59.7716382" lon="17.6558019">
        <ele>44.358</ele>
        <time>2013-05-26T11:23:10Z</time>
      </trkpt>
      <trkpt lat="59.7716871" lon="17.6558737">
        <ele>45.3192</ele>
        <time>2013-05-26T11:23:11Z</time>
      </trkpt>
      <trkpt lat="59.7717208" lon="17.6559449">
        <ele>44.358</ele>
        <time>2013-05-26T11:23:12Z</time>
      </trkpt>
      <trkpt lat="59.771763" lon="17.6560075">
        <ele>43.8773</ele>
        <time>2013-05-26T11:23:13Z</time>
      </trkpt>
      <trkpt lat="59.7718067" lon="17.6560739">
        <ele>43.3966</ele>
        <time>2013-05-26T11:23:14Z</time>
      </trkpt>
      <trkpt lat="59.7718506" lon="17.6561402">
        <ele>43.3966</ele>
        <time>2013-05-26T11:23:15Z</time>
      </trkpt>
      <trkpt lat="59.7718984" lon="17.6561935">
        <ele>42.4354</ele>
        <time>2013-05-26T11:23:16Z</time>
      </trkpt>
      <trkpt lat="59.7719438" lon="17.6562453">
        <ele>40.9934</ele>
        <time>2013-05-26T11:23:17Z</time>
      </trkpt>
      <trkpt lat="59.7719869" lon="17.6562979">
        <ele>39.5513</ele>
        <time>2013-05-26T11:23:18Z</time>
      </trkpt>
      <trkpt lat="59.7720362" lon="17.6563488">
        <ele>39.0707</ele>
        <time>2013-05-26T11:23:19Z</time>
      </trkpt>
      <trkpt lat="59.7720864" lon="17.6564019">
        <ele>38.5901</ele>
        <time>2013-05-26T11:23:20Z</time>
      </trkpt>
      <trkpt lat="59.7721325" lon="17.6564591">
        <ele>38.1094</ele>
        <time>2013-05-26T11:23:21Z</time>
      </trkpt>
      <trkpt lat="59.772177" lon="17.6565204">
        <ele>37.6287</ele>
        <time>2013-05-26T11:23:22Z</time>
      </trkpt>
      <trkpt lat="59.7722271" lon="17.6565736">
        <ele>38.5901</ele>
        <time>2013-05-26T11:23:23Z</time>
      </trkpt>
      <trkpt lat="59.7722694" lon="17.6566224">
        <ele>37.6287</ele>
        <time>2013-05-26T11:23:24Z</time>
      </trkpt>
      <trkpt lat="59.7723148" lon="17.6566706">
        <ele>37.6287</ele>
        <time>2013-05-26T11:23:25Z</time>
      </trkpt>
      <trkpt lat="59.7723611" lon="17.6567192">
        <ele>37.6287</ele>
        <time>2013-05-26T11:23:26Z</time>
      </trkpt>
      <trkpt lat="59.7724116" lon="17.6567662">
        <ele>38.1094</ele>
        <time>2013-05-26T11:23:27Z</time>
      </trkpt>
      <trkpt lat="59.7724564" lon="17.6568197">
        <ele>37.1481</ele>
        <time>2013-05-26T11:23:28Z</time>
      </trkpt>
      <trkpt lat="59.7725081" lon="17.6568664">
        <ele>37.1481</ele>
        <time>2013-05-26T11:23:29Z</time>
      </trkpt>
      <trkpt lat="59.7725752" lon="17.6569021">
        <ele>39.0707</ele>
        <time>2013-05-26T11:23:30Z</time>
      </trkpt>
      <trkpt lat="59.7726283" lon="17.6569467">
        <ele>39.5513</ele>
        <time>2013-05-26T11:23:31Z</time>
      </trkpt>
      <trkpt lat="59.772678" lon="17.6569965">
        <ele>39.5513</ele>
        <time>2013-05-26T11:23:32Z</time>
      </trkpt>
      <trkpt lat="59.7727275" lon="17.6570519">
        <ele>40.0321</ele>
        <time>2013-05-26T11:23:33Z</time>
      </trkpt>
      <trkpt lat="59.7727758" lon="17.6571117">
        <ele>40.0321</ele>
        <time>2013-05-26T11:23:34Z</time>
      </trkpt>
      <trkpt lat="59.772819" lon="17.6571699">
        <ele>40.0321</ele>
        <time>2013-05-26T11:23:35Z</time>
      </trkpt>
      <trkpt lat="59.7728653" lon="17.6572376">
        <ele>40.0321</ele>
        <time>2013-05-26T11:23:36Z</time>
      </trkpt>
      <trkpt lat="59.772907" lon="17.6573003">
        <ele>40.0321</ele>
        <time>2013-05-26T11:23:37Z</time>
      </trkpt>
      <trkpt lat="59.772952" lon="17.6573658">
        <ele>40.0321</ele>
        <time>2013-05-26T11:23:38Z</time>
      </trkpt>
      <trkpt lat="59.772993" lon="17.6574326">
        <ele>40.0321</ele>
        <time>2013-05-26T11:23:39Z</time>
      </trkpt>
      <trkpt lat="59.7730312" lon="17.6575026">
        <ele>39.5513</ele>
        <time>2013-05-26T11:23:40Z</time>
      </trkpt>
      <trkpt lat="59.7730674" lon="17.6575831">
        <ele>40.0321</ele>
        <time>2013-05-26T11:23:41Z</time>
      </trkpt>
      <trkpt lat="59.7731028" lon="17.657661">
        <ele>39.5513</ele>
        <time>2013-05-26T11:23:42Z</time>
      </trkpt>
      <trkpt lat="59.7731404" lon="17.6577398">
        <ele>39.0707</ele>
        <time>2013-05-26T11:23:43Z</time>
      </trkpt>
      <trkpt lat="59.7731741" lon="17.6578228">
        <ele>39.0707</ele>
        <time>2013-05-26T11:23:44Z</time>
      </trkpt>
      <trkpt lat="59.7732058" lon="17.6579064">
        <ele>38.5901</ele>
        <time>2013-05-26T11:23:45Z</time>
      </trkpt>
      <trkpt lat="59.7732374" lon="17.6579905">
        <ele>38.5901</ele>
        <time>2013-05-26T11:23:46Z</time>
      </trkpt>
      <trkpt lat="59.773267" lon="17.6580796">
        <ele>38.1094</ele>
        <time>2013-05-26T11:23:47Z</time>
      </trkpt>
      <trkpt lat="59.7732975" lon="17.6581676">
        <ele>38.1094</ele>
        <time>2013-05-26T11:23:48Z</time>
      </trkpt>
      <trkpt lat="59.7733518" lon="17.6582468">
        <ele>40.5128</ele>
        <time>2013-05-26T11:23:49Z</time>
      </trkpt>
      <trkpt lat="59.7733981" lon="17.6583272">
        <ele>42.4354</ele>
        <time>2013-05-26T11:23:50Z</time>
      </trkpt>
      <trkpt lat="59.7734415" lon="17.6584141">
        <ele>44.358</ele>
        <time>2013-05-26T11:23:51Z</time>
      </trkpt>
      <trkpt lat="59.7734807" lon="17.6585042">
        <ele>45.3192</ele>
        <time>2013-05-26T11:23:52Z</time>
      </trkpt>
      <trkpt lat="59.7735222" lon="17.6585873">
        <ele>46.2806</ele>
        <time>2013-05-26T11:23:53Z</time>
      </trkpt>
      <trkpt lat="59.7735564" lon="17.6586723">
        <ele>46.7612</ele>
        <time>2013-05-26T11:23:54Z</time>
      </trkpt>
      <trkpt lat="59.7735928" lon="17.6587561">
        <ele>47.2418</ele>
        <time>2013-05-26T11:23:55Z</time>
      </trkpt>
      <trkpt lat="59.773628" lon="17.6588396">
        <ele>47.2418</ele>
        <time>2013-05-26T11:23:56Z</time>
      </trkpt>
      <trkpt lat="59.7736602" lon="17.6589238">
        <ele>47.2418</ele>
        <time>2013-05-26T11:23:57Z</time>
      </trkpt>
      <trkpt lat="59.7736943" lon="17.6590041">
        <ele>47.7225</ele>
        <time>2013-05-26T11:23:58Z</time>
      </trkpt>
      <trkpt lat="59.7737222" lon="17.6590804">
        <ele>46.7612</ele>
        <time>2013-05-26T11:23:59Z</time>
      </trkpt>
      <trkpt lat="59.7737553" lon="17.6591637">
        <ele>47.7225</ele>
        <time>2013-05-26T11:24:00Z</time>
      </trkpt>
      <trkpt lat="59.7737816" lon="17.6592522">
        <ele>47.7225</ele>
        <time>2013-05-26T11:24:01Z</time>
      </trkpt>
      <trkpt lat="59.773813" lon="17.659341">
        <ele>48.684</ele>
        <time>2013-05-26T11:24:02Z</time>
      </trkpt>
      <trkpt lat="59.7738491" lon="17.659432">
        <ele>49.6453</ele>
        <time>2013-05-26T11:24:03Z</time>
      </trkpt>
      <trkpt lat="59.7738797" lon="17.6595336">
        <ele>49.6453</ele>
        <time>2013-05-26T11:24:04Z</time>
      </trkpt>
      <trkpt lat="59.7739094" lon="17.6596342">
        <ele>48.684</ele>
        <time>2013-05-26T11:24:05Z</time>
      </trkpt>
      <trkpt lat="59.7739404" lon="17.6597351">
        <ele>48.2034</ele>
        <time>2013-05-26T11:24:06Z</time>
      </trkpt>
      <trkpt lat="59.7739677" lon="17.6598287">
        <ele>46.2806</ele>
        <time>2013-05-26T11:24:07Z</time>
      </trkpt>
      <trkpt lat="59.7739968" lon="17.6599225">
        <ele>44.8386</ele>
        <time>2013-05-26T11:24:08Z</time>
      </trkpt>
      <trkpt lat="59.7740388" lon="17.6600128">
        <ele>44.8386</ele>
        <time>2013-05-26T11:24:09Z</time>
      </trkpt>
      <trkpt lat="59.774084" lon="17.6600989">
        <ele>45.3192</ele>
        <time>2013-05-26T11:24:10Z</time>
      </trkpt>
      <trkpt lat="59.7741248" lon="17.6601791">
        <ele>45.7999</ele>
        <time>2013-05-26T11:24:11Z</time>
      </trkpt>
      <trkpt lat="59.7741683" lon="17.6602537">
        <ele>45.7999</ele>
        <time>2013-05-26T11:24:12Z</time>
      </trkpt>
      <trkpt lat="59.774206" lon="17.6603325">
        <ele>45.3192</ele>
        <time>2013-05-26T11:24:13Z</time>
      </trkpt>
      <trkpt lat="59.7742536" lon="17.6604154">
        <ele>45.7999</ele>
        <time>2013-05-26T11:24:14Z</time>
      </trkpt>
      <trkpt lat="59.7743035" lon="17.6604956">
        <ele>45.7999</ele>
        <time>2013-05-26T11:24:15Z</time>
      </trkpt>
      <trkpt lat="59.7743568" lon="17.6605736">
        <ele>46.2806</ele>
        <time>2013-05-26T11:24:16Z</time>
      </trkpt>
      <trkpt lat="59.7744087" lon="17.6606509">
        <ele>46.2806</ele>
        <time>2013-05-26T11:24:17Z</time>
      </trkpt>
      <trkpt lat="59.7744592" lon="17.6607225">
        <ele>46.7612</ele>
        <time>2013-05-26T11:24:18Z</time>
      </trkpt>
      <trkpt lat="59.7745115" lon="17.6607945">
        <ele>47.2418</ele>
        <time>2013-05-26T11:24:19Z</time>
      </trkpt>
      <trkpt lat="59.774563" lon="17.6608661">
        <ele>47.7225</ele>
        <time>2013-05-26T11:24:20Z</time>
      </trkpt>
      <trkpt lat="59.7746136" lon="17.6609354">
        <ele>48.2034</ele>
        <time>2013-05-26T11:24:21Z</time>
      </trkpt>
      <trkpt lat="59.7746594" lon="17.6610078">
        <ele>47.7225</ele>
        <time>2013-05-26T11:24:22Z</time>
      </trkpt>
      <trkpt lat="59.7747084" lon="17.6610769">
        <ele>47.2418</ele>
        <time>2013-05-26T11:24:23Z</time>
      </trkpt>
      <trkpt lat="59.7747552" lon="17.6611399">
        <ele>46.7612</ele>
        <time>2013-05-26T11:24:24Z</time>
      </trkpt>
      <trkpt lat="59.7748022" lon="17.6612007">
        <ele>46.2806</ele>
        <time>2013-05-26T11:24:25Z</time>
      </trkpt>
      <trkpt lat="59.7748464" lon="17.6612559">
        <ele>44.8386</ele>
        <time>2013-05-26T11:24:26Z</time>
      </trkpt>
      <trkpt lat="59.7749008" lon="17.6613129">
        <ele>45.3192</ele>
        <time>2013-05-26T11:24:27Z</time>
      </trkpt>
      <trkpt lat="59.7749549" lon="17.6613778">
        <ele>45.3192</ele>
        <time>2013-05-26T11:24:28Z</time>
      </trkpt>
      <trkpt lat="59.7750062" lon="17.6614403">
        <ele>44.8386</ele>
        <time>2013-05-26T11:24:29Z</time>
      </trkpt>
      <trkpt lat="59.7750617" lon="17.6615022">
        <ele>43.8773</ele>
        <time>2013-05-26T11:24:30Z</time>
      </trkpt>
      <trkpt lat="59.775122" lon="17.6615659">
        <ele>43.8773</ele>
        <time>2013-05-26T11:24:31Z</time>
      </trkpt>
      <trkpt lat="59.7751857" lon="17.6616399">
        <ele>43.8773</ele>
        <time>2013-05-26T11:24:32Z</time>
      </trkpt>
      <trkpt lat="59.7752504" lon="17.6617212">
        <ele>44.358</ele>
        <time>2013-05-26T11:24:33Z</time>
      </trkpt>
      <trkpt lat="59.7753179" lon="17.661801">
        <ele>44.8386</ele>
        <time>2013-05-26T11:24:34Z</time>
      </trkpt>
      <trkpt lat="59.7753864" lon="17.6618741">
        <ele>44.8386</ele>
        <time>2013-05-26T11:24:35Z</time>
      </trkpt>
      <trkpt lat="59.7754598" lon="17.6619407">
        <ele>45.7999</ele>
        <time>2013-05-26T11:24:36Z</time>
      </trkpt>
      <trkpt lat="59.775533" lon="17.6620077">
        <ele>45.7999</ele>
        <time>2013-05-26T11:24:37Z</time>
      </trkpt>
      <trkpt lat="59.7756035" lon="17.6620756">
        <ele>45.3192</ele>
        <time>2013-05-26T11:24:38Z</time>
      </trkpt>
      <trkpt lat="59.7756762" lon="17.6621418">
        <ele>45.3192</ele>
        <time>2013-05-26T11:24:39Z</time>
      </trkpt>
      <trkpt lat="59.7757491" lon="17.6622014">
        <ele>44.8386</ele>
        <time>2013-05-26T11:24:40Z</time>
      </trkpt>
      <trkpt lat="59.7758236" lon="17.6622559">
        <ele>44.8386</ele>
        <time>2013-05-26T11:24:41Z</time>
      </trkpt>
      <trkpt lat="59.775898" lon="17.6623072">
        <ele>44.358</ele>
        <time>2013-05-26T11:24:42Z</time>
      </trkpt>
      <trkpt lat="59.7759739" lon="17.6623543">
        <ele>43.8773</ele>
        <time>2013-05-26T11:24:43Z</time>
      </trkpt>
      <trkpt lat="59.7760502" lon="17.6624017">
        <ele>43.3966</ele>
        <time>2013-05-26T11:24:44Z</time>
      </trkpt>
      <trkpt lat="59.7761263" lon="17.6624522">
        <ele>42.916</ele>
        <time>2013-05-26T11:24:45Z</time>
      </trkpt>
      <trkpt lat="59.7762046" lon="17.6625018">
        <ele>42.4354</ele>
        <time>2013-05-26T11:24:46Z</time>
      </trkpt>
      <trkpt lat="59.7762838" lon="17.6625495">
        <ele>42.4354</ele>
        <time>2013-05-26T11:24:47Z</time>
      </trkpt>
      <trkpt lat="59.7763653" lon="17.6625954">
        <ele>42.4354</ele>
        <time>2013-05-26T11:24:48Z</time>
      </trkpt>
      <trkpt lat="59.776446" lon="17.6626469">
        <ele>42.4354</ele>
        <time>2013-05-26T11:24:49Z</time>
      </trkpt>
      <trkpt lat="59.7765242" lon="17.6626965">
        <ele>41.474</ele>
        <time>2013-05-26T11:24:50Z</time>
      </trkpt>
      <trkpt lat="59.776603" lon="17.6627469">
        <ele>40.5128</ele>
        <time>2013-05-26T11:24:51Z</time>
      </trkpt>
      <trkpt lat="59.77669" lon="17.6627934">
        <ele>40.9934</ele>
        <time>2013-05-26T11:24:52Z</time>
      </trkpt>
      <trkpt lat="59.7767745" lon="17.6628414">
        <ele>40.9934</ele>
        <time>2013-05-26T11:24:53Z</time>
      </trkpt>
      <trkpt lat="59.7768547" lon="17.6628846">
        <ele>40.5128</ele>
        <time>2013-05-26T11:24:54Z</time>
      </trkpt>
      <trkpt lat="59.7769344" lon="17.6629255">
        <ele>40.0321</ele>
        <time>2013-05-26T11:24:55Z</time>
      </trkpt>
      <trkpt lat="59.7770125" lon="17.6629712">
        <ele>39.0707</ele>
        <time>2013-05-26T11:24:56Z</time>
      </trkpt>
      <trkpt lat="59.777095" lon="17.6630176">
        <ele>39.0707</ele>
        <time>2013-05-26T11:24:57Z</time>
      </trkpt>
      <trkpt lat="59.7771808" lon="17.6630752">
        <ele>38.5901</ele>
        <time>2013-05-26T11:24:58Z</time>
      </trkpt>
      <trkpt lat="59.7772684" lon="17.6631297">
        <ele>38.1094</ele>
        <time>2013-05-26T11:24:59Z</time>
      </trkpt>
      <trkpt lat="59.7773619" lon="17.6631805">
        <ele>38.1094</ele>
        <time>2013-05-26T11:25:00Z</time>
      </trkpt>
      <trkpt lat="59.7774588" lon="17.6632271">
        <ele>38.5901</ele>
        <time>2013-05-26T11:25:01Z</time>
      </trkpt>
      <trkpt lat="59.7775505" lon="17.6632722">
        <ele>38.1094</ele>
        <time>2013-05-26T11:25:02Z</time>
      </trkpt>
      <trkpt lat="59.7776441" lon="17.6633197">
        <ele>37.1481</ele>
        <time>2013-05-26T11:25:03Z</time>
      </trkpt>
      <trkpt lat="59.7777415" lon="17.6633634">
        <ele>36.1868</ele>
        <time>2013-05-26T11:25:04Z</time>
      </trkpt>
      <trkpt lat="59.7778444" lon="17.6634026">
        <ele>35.7061</ele>
        <time>2013-05-26T11:25:05Z</time>
      </trkpt>
      <trkpt lat="59.7779472" lon="17.6634429">
        <ele>34.7449</ele>
        <time>2013-05-26T11:25:06Z</time>
      </trkpt>
      <trkpt lat="59.7780581" lon="17.6634747">
        <ele>32.8223</ele>
        <time>2013-05-26T11:25:07Z</time>
      </trkpt>
      <trkpt lat="59.7781728" lon="17.6635074">
        <ele>31.3801</ele>
        <time>2013-05-26T11:25:08Z</time>
      </trkpt>
      <trkpt lat="59.7782907" lon="17.6635409">
        <ele>30.4188</ele>
        <time>2013-05-26T11:25:09Z</time>
      </trkpt>
      <trkpt lat="59.7784095" lon="17.663568">
        <ele>29.9381</ele>
        <time>2013-05-26T11:25:10Z</time>
      </trkpt>
      <trkpt lat="59.7785273" lon="17.6635947">
        <ele>28.4962</ele>
        <time>2013-05-26T11:25:11Z</time>
      </trkpt>
      <trkpt lat="59.778647" lon="17.6636185">
        <ele>27.0543</ele>
        <time>2013-05-26T11:25:12Z</time>
      </trkpt>
      <trkpt lat="59.7787694" lon="17.6636397">
        <ele>25.6123</ele>
        <time>2013-05-26T11:25:13Z</time>
      </trkpt>
      <trkpt lat="59.778893" lon="17.6636618">
        <ele>24.651</ele>
        <time>2013-05-26T11:25:14Z</time>
      </trkpt>
      <trkpt lat="59.7790194" lon="17.6636849">
        <ele>23.209</ele>
        <time>2013-05-26T11:25:15Z</time>
      </trkpt>
      <trkpt lat="59.7791474" lon="17.6637071">
        <ele>22.2476</ele>
        <time>2013-05-26T11:25:16Z</time>
      </trkpt>
      <trkpt lat="59.7792774" lon="17.6637285">
        <ele>21.2864</ele>
        <time>2013-05-26T11:25:17Z</time>
      </trkpt>
      <trkpt lat="59.7794095" lon="17.6637491">
        <ele>20.325</ele>
        <time>2013-05-26T11:25:18Z</time>
      </trkpt>
      <trkpt lat="59.7795431" lon="17.6637713">
        <ele>19.3638</ele>
        <time>2013-05-26T11:25:19Z</time>
      </trkpt>
      <trkpt lat="59.7796784" lon="17.6637938">
        <ele>18.8831</ele>
        <time>2013-05-26T11:25:20Z</time>
      </trkpt>
      <trkpt lat="59.7798123" lon="17.6638181">
        <ele>18.8831</ele>
        <time>2013-05-26T11:25:21Z</time>
      </trkpt>
      <trkpt lat="59.7799447" lon="17.6638423">
        <ele>18.4023</ele>
        <time>2013-05-26T11:25:22Z</time>
      </trkpt>
      <trkpt lat="59.780075" lon="17.6638645">
        <ele>18.4023</ele>
        <time>2013-05-26T11:25:23Z</time>
      </trkpt>
      <trkpt lat="59.7802027" lon="17.663887">
        <ele>17.9218</ele>
        <time>2013-05-26T11:25:24Z</time>
      </trkpt>
      <trkpt lat="59.7803285" lon="17.6639081">
        <ele>17.4412</ele>
        <time>2013-05-26T11:25:25Z</time>
      </trkpt>
      <trkpt lat="59.7804538" lon="17.6639288">
        <ele>16.9604</ele>
        <time>2013-05-26T11:25:26Z</time>
      </trkpt>
      <trkpt lat="59.7805776" lon="17.6639521">
        <ele>16.4797</ele>
        <time>2013-05-26T11:25:27Z</time>
      </trkpt>
      <trkpt lat="59.7806995" lon="17.6639725">
        <ele>15.999</ele>
        <time>2013-05-26T11:25:28Z</time>
      </trkpt>
      <trkpt lat="59.7808201" lon="17.663995">
        <ele>15.5184</ele>
        <time>2013-05-26T11:25:29Z</time>
      </trkpt>
      <trkpt lat="59.7809406" lon="17.664014">
        <ele>15.5184</ele>
        <time>2013-05-26T11:25:30Z</time>
      </trkpt>
      <trkpt lat="59.7810581" lon="17.6640342">
        <ele>15.0377</ele>
        <time>2013-05-26T11:25:31Z</time>
      </trkpt>
      <trkpt lat="59.7811736" lon="17.6640538">
        <ele>14.557</ele>
        <time>2013-05-26T11:25:32Z</time>
      </trkpt>
      <trkpt lat="59.7812868" lon="17.6640766">
        <ele>14.0764</ele>
        <time>2013-05-26T11:25:33Z</time>
      </trkpt>
      <trkpt lat="59.781399" lon="17.6640973">
        <ele>13.5958</ele>
        <time>2013-05-26T11:25:34Z</time>
      </trkpt>
      <trkpt lat="59.7815101" lon="17.6641165">
        <ele>13.5958</ele>
        <time>2013-05-26T11:25:35Z</time>
      </trkpt>
      <trkpt lat="59.7816208" lon="17.6641349">
        <ele>13.5958</ele>
        <time>2013-05-26T11:25:36Z</time>
      </trkpt>
      <trkpt lat="59.7817289" lon="17.6641543">
        <ele>13.5958</ele>
        <time>2013-05-26T11:25:37Z</time>
      </trkpt>
      <trkpt lat="59.7818341" lon="17.6641753">
        <ele>13.5958</ele>
        <time>2013-05-26T11:25:38Z</time>
      </trkpt>
      <trkpt lat="59.7819374" lon="17.6641945">
        <ele>13.5958</ele>
        <time>2013-05-26T11:25:39Z</time>
      </trkpt>
      <trkpt lat="59.7820382" lon="17.664214">
        <ele>13.5958</ele>
        <time>2013-05-26T11:25:40Z</time>
      </trkpt>
      <trkpt lat="59.7821373" lon="17.6642351">
        <ele>13.5958</ele>
        <time>2013-05-26T11:25:41Z</time>
      </trkpt>
      <trkpt lat="59.7822346" lon="17.66426">
        <ele>13.5958</ele>
        <time>2013-05-26T11:25:42Z</time>
      </trkpt>
      <trkpt lat="59.7823294" lon="17.664289">
        <ele>13.5958</ele>
        <time>2013-05-26T11:25:43Z</time>
      </trkpt>
      <trkpt lat="59.7824212" lon="17.6643172">
        <ele>13.5958</ele>
        <time>2013-05-26T11:25:44Z</time>
      </trkpt>
      <trkpt lat="59.7825104" lon="17.6643489">
        <ele>13.5958</ele>
        <time>2013-05-26T11:25:45Z</time>
      </trkpt>
      <trkpt lat="59.7826011" lon="17.6643769">
        <ele>13.5958</ele>
        <time>2013-05-26T11:25:46Z</time>
      </trkpt>
      <trkpt lat="59.7826895" lon="17.6644024">
        <ele>13.5958</ele>
        <time>2013-05-26T11:25:47Z</time>
      </trkpt>
      <trkpt lat="59.7827776" lon="17.6644366">
        <ele>14.0764</ele>
        <time>2013-05-26T11:25:48Z</time>
      </trkpt>
      <trkpt lat="59.7828625" lon="17.6644686">
        <ele>14.0764</ele>
        <time>2013-05-26T11:25:49Z</time>
      </trkpt>
      <trkpt lat="59.7829454" lon="17.6644947">
        <ele>14.557</ele>
        <time>2013-05-26T11:25:50Z</time>
      </trkpt>
      <trkpt lat="59.783025" lon="17.664518">
        <ele>14.0764</ele>
        <time>2013-05-26T11:25:51Z</time>
      </trkpt>
      <trkpt lat="59.7831043" lon="17.6645469">
        <ele>14.0764</ele>
        <time>2013-05-26T11:25:52Z</time>
      </trkpt>
      <trkpt lat="59.7831831" lon="17.664578">
        <ele>14.0764</ele>
        <time>2013-05-26T11:25:53Z</time>
      </trkpt>
      <trkpt lat="59.7832617" lon="17.6646143">
        <ele>14.0764</ele>
        <time>2013-05-26T11:25:54Z</time>
      </trkpt>
      <trkpt lat="59.7833395" lon="17.6646543">
        <ele>14.0764</ele>
        <time>2013-05-26T11:25:55Z</time>
      </trkpt>
      <trkpt lat="59.7834163" lon="17.6646947">
        <ele>14.557</ele>
        <time>2013-05-26T11:25:56Z</time>
      </trkpt>
      <trkpt lat="59.7834914" lon="17.6647356">
        <ele>14.557</ele>
        <time>2013-05-26T11:25:57Z</time>
      </trkpt>
      <trkpt lat="59.783564" lon="17.6647764">
        <ele>14.557</ele>
        <time>2013-05-26T11:25:58Z</time>
      </trkpt>
      <trkpt lat="59.7836349" lon="17.6648195">
        <ele>14.557</ele>
        <time>2013-05-26T11:25:59Z</time>
      </trkpt>
      <trkpt lat="59.7837041" lon="17.6648663">
        <ele>14.557</ele>
        <time>2013-05-26T11:26:00Z</time>
      </trkpt>
      <trkpt lat="59.7837723" lon="17.6649142">
        <ele>14.557</ele>
        <time>2013-05-26T11:26:01Z</time>
      </trkpt>
      <trkpt lat="59.78384" lon="17.6649642">
        <ele>14.557</ele>
        <time>2013-05-26T11:26:02Z</time>
      </trkpt>
      <trkpt lat="59.7839073" lon="17.6650162">
        <ele>14.557</ele>
        <time>2013-05-26T11:26:03Z</time>
      </trkpt>
      <trkpt lat="59.7839756" lon="17.6650692">
        <ele>14.557</ele>
        <time>2013-05-26T11:26:04Z</time>
      </trkpt>
      <trkpt lat="59.7840431" lon="17.6651249">
        <ele>14.557</ele>
        <time>2013-05-26T11:26:05Z</time>
      </trkpt>
      <trkpt lat="59.7841105" lon="17.6651804">
        <ele>14.557</ele>
        <time>2013-05-26T11:26:06Z</time>
      </trkpt>
      <trkpt lat="59.7841793" lon="17.6652321">
        <ele>15.0377</ele>
        <time>2013-05-26T11:26:07Z</time>
      </trkpt>
      <trkpt lat="59.7842477" lon="17.665281">
        <ele>15.0377</ele>
        <time>2013-05-26T11:26:08Z</time>
      </trkpt>
      <trkpt lat="59.7843154" lon="17.6653285">
        <ele>15.5184</ele>
        <time>2013-05-26T11:26:09Z</time>
      </trkpt>
      <trkpt lat="59.784382" lon="17.6653747">
        <ele>15.5184</ele>
        <time>2013-05-26T11:26:10Z</time>
      </trkpt>
      <trkpt lat="59.7844481" lon="17.6654198">
        <ele>15.999</ele>
        <time>2013-05-26T11:26:11Z</time>
      </trkpt>
      <trkpt lat="59.7845124" lon="17.6654653">
        <ele>15.999</ele>
        <time>2013-05-26T11:26:12Z</time>
      </trkpt>
      <trkpt lat="59.7845754" lon="17.6655118">
        <ele>15.999</ele>
        <time>2013-05-26T11:26:13Z</time>
      </trkpt>
      <trkpt lat="59.7846353" lon="17.6655597">
        <ele>16.4797</ele>
        <time>2013-05-26T11:26:14Z</time>
      </trkpt>
      <trkpt lat="59.7846902" lon="17.6656073">
        <ele>16.4797</ele>
        <time>2013-05-26T11:26:15Z</time>
      </trkpt>
      <trkpt lat="59.7847419" lon="17.6656472">
        <ele>16.4797</ele>
        <time>2013-05-26T11:26:16Z</time>
      </trkpt>
      <trkpt lat="59.7847896" lon="17.6656735">
        <ele>16.4797</ele>
        <time>2013-05-26T11:26:17Z</time>
      </trkpt>
      <trkpt lat="59.7848341" lon="17.665677">
        <ele>15.999</ele>
        <time>2013-05-26T11:26:18Z</time>
      </trkpt>
      <trkpt lat="59.7848736" lon="17.6656487">
        <ele>16.4797</ele>
        <time>2013-05-26T11:26:19Z</time>
      </trkpt>
      <trkpt lat="59.7849049" lon="17.6655884">
        <ele>16.4797</ele>
        <time>2013-05-26T11:26:20Z</time>
      </trkpt>
      <trkpt lat="59.7849299" lon="17.6655047">
        <ele>17.9218</ele>
        <time>2013-05-26T11:26:21Z</time>
      </trkpt>
      <trkpt lat="59.7849518" lon="17.6654208">
        <ele>17.9218</ele>
        <time>2013-05-26T11:26:22Z</time>
      </trkpt>
      <trkpt lat="59.7849832" lon="17.6653462">
        <ele>18.4023</ele>
        <time>2013-05-26T11:26:23Z</time>
      </trkpt>
      <trkpt lat="59.7850216" lon="17.665279">
        <ele>18.8831</ele>
        <time>2013-05-26T11:26:24Z</time>
      </trkpt>
      <trkpt lat="59.7850595" lon="17.6652249">
        <ele>18.8831</ele>
        <time>2013-05-26T11:26:25Z</time>
      </trkpt>
      <trkpt lat="59.7851041" lon="17.665181">
        <ele>18.8831</ele>
        <time>2013-05-26T11:26:26Z</time>
      </trkpt>
      <trkpt lat="59.7851522" lon="17.665152">
        <ele>18.8831</ele>
        <time>2013-05-26T11:26:27Z</time>
      </trkpt>
      <trkpt lat="59.7852023" lon="17.6651357">
        <ele>18.4023</ele>
        <time>2013-05-26T11:26:28Z</time>
      </trkpt>
      <trkpt lat="59.7852536" lon="17.6651281">
        <ele>17.9218</ele>
        <time>2013-05-26T11:26:29Z</time>
      </trkpt>
      <trkpt lat="59.785305" lon="17.6651323">
        <ele>16.9604</ele>
        <time>2013-05-26T11:26:30Z</time>
      </trkpt>
      <trkpt lat="59.7853607" lon="17.6651416">
        <ele>16.9604</ele>
        <time>2013-05-26T11:26:31Z</time>
      </trkpt>
      <trkpt lat="59.785418" lon="17.6651519">
        <ele>16.9604</ele>
        <time>2013-05-26T11:26:32Z</time>
      </trkpt>
      <trkpt lat="59.7854754" lon="17.6651639">
        <ele>16.4797</ele>
        <time>2013-05-26T11:26:33Z</time>
      </trkpt>
      <trkpt lat="59.7855349" lon="17.6651784">
        <ele>16.4797</ele>
        <time>2013-05-26T11:26:34Z</time>
      </trkpt>
      <trkpt lat="59.7855952" lon="17.6651961">
        <ele>15.999</ele>
        <time>2013-05-26T11:26:35Z</time>
      </trkpt>
      <trkpt lat="59.7856545" lon="17.6652134">
        <ele>15.999</ele>
        <time>2013-05-26T11:26:36Z</time>
      </trkpt>
      <trkpt lat="59.7857141" lon="17.6652297">
        <ele>15.5184</ele>
        <time>2013-05-26T11:26:37Z</time>
      </trkpt>
      <trkpt lat="59.7857733" lon="17.6652455">
        <ele>15.0377</ele>
        <time>2013-05-26T11:26:38Z</time>
      </trkpt>
      <trkpt lat="59.7858321" lon="17.6652623">
        <ele>15.0377</ele>
        <time>2013-05-26T11:26:39Z</time>
      </trkpt>
      <trkpt lat="59.7858919" lon="17.6652763">
        <ele>14.557</ele>
        <time>2013-05-26T11:26:40Z</time>
      </trkpt>
      <trkpt lat="59.7859521" lon="17.6652842">
        <ele>14.557</ele>
        <time>2013-05-26T11:26:41Z</time>
      </trkpt>
      <trkpt lat="59.7860137" lon="17.6652837">
        <ele>14.0764</ele>
        <time>2013-05-26T11:26:42Z</time>
      </trkpt>
      <trkpt lat="59.7860758" lon="17.665278">
        <ele>13.1151</ele>
        <time>2013-05-26T11:26:43Z</time>
      </trkpt>
      <trkpt lat="59.7861405" lon="17.6652696">
        <ele>12.1538</ele>
        <time>2013-05-26T11:26:44Z</time>
      </trkpt>
      <trkpt lat="59.7862071" lon="17.6652525">
        <ele>11.6732</ele>
        <time>2013-05-26T11:26:45Z</time>
      </trkpt>
      <trkpt lat="59.786274" lon="17.6652179">
        <ele>10.7118</ele>
        <time>2013-05-26T11:26:46Z</time>
      </trkpt>
      <trkpt lat="59.7863415" lon="17.6651699">
        <ele>10.2312</ele>
        <time>2013-05-26T11:26:47Z</time>
      </trkpt>
      <trkpt lat="59.7864118" lon="17.6651114">
        <ele>9.75061</ele>
        <time>2013-05-26T11:26:48Z</time>
      </trkpt>
      <trkpt lat="59.7864822" lon="17.6650376">
        <ele>9.2699</ele>
        <time>2013-05-26T11:26:49Z</time>
      </trkpt>
      <trkpt lat="59.7865506" lon="17.6649501">
        <ele>8.78918</ele>
        <time>2013-05-26T11:26:50Z</time>
      </trkpt>
      <trkpt lat="59.7866155" lon="17.6648475">
        <ele>8.30859</ele>
        <time>2013-05-26T11:26:51Z</time>
      </trkpt>
      <trkpt lat="59.7866772" lon="17.6647324">
        <ele>7.82788</ele>
        <time>2013-05-26T11:26:52Z</time>
      </trkpt>
      <trkpt lat="59.7867362" lon="17.6646048">
        <ele>7.82788</ele>
        <time>2013-05-26T11:26:53Z</time>
      </trkpt>
      <trkpt lat="59.7867922" lon="17.664462">
        <ele>7.82788</ele>
        <time>2013-05-26T11:26:54Z</time>
      </trkpt>
      <trkpt lat="59.7868456" lon="17.6643056">
        <ele>7.82788</ele>
        <time>2013-05-26T11:26:55Z</time>
      </trkpt>
      <trkpt lat="59.7868982" lon="17.6641368">
        <ele>7.82788</ele>
        <time>2013-05-26T11:26:56Z</time>
      </trkpt>
      <trkpt lat="59.7869507" lon="17.6639591">
        <ele>7.34717</ele>
        <time>2013-05-26T11:26:57Z</time>
      </trkpt>
      <trkpt lat="59.7870045" lon="17.6637735">
        <ele>7.34717</ele>
        <time>2013-05-26T11:26:58Z</time>
      </trkpt>
      <trkpt lat="59.7870596" lon="17.6635824">
        <ele>6.86646</ele>
        <time>2013-05-26T11:26:59Z</time>
      </trkpt>
      <trkpt lat="59.7871153" lon="17.663389">
        <ele>6.86646</ele>
        <time>2013-05-26T11:27:00Z</time>
      </trkpt>
      <trkpt lat="59.7871693" lon="17.663195">
        <ele>6.86646</ele>
        <time>2013-05-26T11:27:01Z</time>
      </trkpt>
      <trkpt lat="59.7872214" lon="17.6630005">
        <ele>7.34717</ele>
        <time>2013-05-26T11:27:02Z</time>
      </trkpt>
      <trkpt lat="59.7872738" lon="17.6628088">
        <ele>7.34717</ele>
        <time>2013-05-26T11:27:03Z</time>
      </trkpt>
      <trkpt lat="59.7873283" lon="17.6626223">
        <ele>7.34717</ele>
        <time>2013-05-26T11:27:04Z</time>
      </trkpt>
      <trkpt lat="59.7873838" lon="17.6624415">
        <ele>7.34717</ele>
        <time>2013-05-26T11:27:05Z</time>
      </trkpt>
      <trkpt lat="59.7874353" lon="17.6622576">
        <ele>6.86646</ele>
        <time>2013-05-26T11:27:06Z</time>
      </trkpt>
      <trkpt lat="59.7874847" lon="17.6620653">
        <ele>6.86646</ele>
        <time>2013-05-26T11:27:07Z</time>
      </trkpt>
      <trkpt lat="59.7875353" lon="17.6618844">
        <ele>6.86646</ele>
        <time>2013-05-26T11:27:08Z</time>
      </trkpt>
      <trkpt lat="59.7875864" lon="17.661708">
        <ele>7.34717</ele>
        <time>2013-05-26T11:27:09Z</time>
      </trkpt>
      <trkpt lat="59.7876385" lon="17.6615347">
        <ele>7.34717</ele>
        <time>2013-05-26T11:27:10Z</time>
      </trkpt>
      <trkpt lat="59.7876895" lon="17.6613693">
        <ele>7.82788</ele>
        <time>2013-05-26T11:27:11Z</time>
      </trkpt>
      <trkpt lat="59.7877411" lon="17.6612162">
        <ele>8.30859</ele>
        <time>2013-05-26T11:27:12Z</time>
      </trkpt>
      <trkpt lat="59.7877923" lon="17.6610759">
        <ele>8.30859</ele>
        <time>2013-05-26T11:27:13Z</time>
      </trkpt>
      <trkpt lat="59.7878395" lon="17.6609328">
        <ele>7.82788</ele>
        <time>2013-05-26T11:27:14Z</time>
      </trkpt>
      <trkpt lat="59.7878861" lon="17.660798">
        <ele>8.30859</ele>
        <time>2013-05-26T11:27:15Z</time>
      </trkpt>
      <trkpt lat="59.7879313" lon="17.6606649">
        <ele>9.2699</ele>
        <time>2013-05-26T11:27:16Z</time>
      </trkpt>
      <trkpt lat="59.7879762" lon="17.6605446">
        <ele>9.75061</ele>
        <time>2013-05-26T11:27:17Z</time>
      </trkpt>
      <trkpt lat="59.7880214" lon="17.6604265">
        <ele>10.7118</ele>
        <time>2013-05-26T11:27:18Z</time>
      </trkpt>
      <trkpt lat="59.7880669" lon="17.6603177">
        <ele>10.7118</ele>
        <time>2013-05-26T11:27:19Z</time>
      </trkpt>
      <trkpt lat="59.788113" lon="17.6602174">
        <ele>11.1925</ele>
        <time>2013-05-26T11:27:20Z</time>
      </trkpt>
      <trkpt lat="59.7881608" lon="17.660118">
        <ele>11.1925</ele>
        <time>2013-05-26T11:27:21Z</time>
      </trkpt>
      <trkpt lat="59.7882092" lon="17.660029">
        <ele>12.1538</ele>
        <time>2013-05-26T11:27:22Z</time>
      </trkpt>
      <trkpt lat="59.7882583" lon="17.6599463">
        <ele>12.6344</ele>
        <time>2013-05-26T11:27:23Z</time>
      </trkpt>
      <trkpt lat="59.7883073" lon="17.6598682">
        <ele>13.1151</ele>
        <time>2013-05-26T11:27:24Z</time>
      </trkpt>
      <trkpt lat="59.7883561" lon="17.6597922">
        <ele>13.5958</ele>
        <time>2013-05-26T11:27:25Z</time>
      </trkpt>
      <trkpt lat="59.7884027" lon="17.6597222">
        <ele>13.1151</ele>
        <time>2013-05-26T11:27:26Z</time>
      </trkpt>
      <trkpt lat="59.7884478" lon="17.6596552">
        <ele>13.1151</ele>
        <time>2013-05-26T11:27:27Z</time>
      </trkpt>
      <trkpt lat="59.788494" lon="17.6595899">
        <ele>13.1151</ele>
        <time>2013-05-26T11:27:28Z</time>
      </trkpt>
      <trkpt lat="59.7885408" lon="17.6595274">
        <ele>13.1151</ele>
        <time>2013-05-26T11:27:29Z</time>
      </trkpt>
      <trkpt lat="59.7885864" lon="17.6594646">
        <ele>12.1538</ele>
        <time>2013-05-26T11:27:30Z</time>
      </trkpt>
      <trkpt lat="59.7886328" lon="17.6594087">
        <ele>12.1538</ele>
        <time>2013-05-26T11:27:31Z</time>
      </trkpt>
      <trkpt lat="59.7886806" lon="17.6593482">
        <ele>12.1538</ele>
        <time>2013-05-26T11:27:32Z</time>
      </trkpt>
      <trkpt lat="59.7887285" lon="17.6592911">
        <ele>12.1538</ele>
        <time>2013-05-26T11:27:33Z</time>
      </trkpt>
      <trkpt lat="59.7887777" lon="17.6592408">
        <ele>12.6344</ele>
        <time>2013-05-26T11:27:34Z</time>
      </trkpt>
      <trkpt lat="59.7888285" lon="17.6591952">
        <ele>12.6344</ele>
        <time>2013-05-26T11:27:35Z</time>
      </trkpt>
      <trkpt lat="59.7888786" lon="17.6591444">
        <ele>12.6344</ele>
        <time>2013-05-26T11:27:36Z</time>
      </trkpt>
      <trkpt lat="59.7889282" lon="17.6590851">
        <ele>13.1151</ele>
        <time>2013-05-26T11:27:37Z</time>
      </trkpt>
      <trkpt lat="59.7889795" lon="17.6590317">
        <ele>13.5958</ele>
        <time>2013-05-26T11:27:38Z</time>
      </trkpt>
      <trkpt lat="59.7890339" lon="17.6589861">
        <ele>13.5958</ele>
        <time>2013-05-26T11:27:39Z</time>
      </trkpt>
      <trkpt lat="59.7890896" lon="17.6589477">
        <ele>13.5958</ele>
        <time>2013-05-26T11:27:40Z</time>
      </trkpt>
      <trkpt lat="59.7891434" lon="17.6589093">
        <ele>14.0764</ele>
        <time>2013-05-26T11:27:41Z</time>
      </trkpt>
      <trkpt lat="59.7891978" lon="17.6588811">
        <ele>14.557</ele>
        <time>2013-05-26T11:27:42Z</time>
      </trkpt>
      <trkpt lat="59.7892537" lon="17.6588491">
        <ele>14.557</ele>
        <time>2013-05-26T11:27:43Z</time>
      </trkpt>
      <trkpt lat="59.7893091" lon="17.6588227">
        <ele>15.0377</ele>
        <time>2013-05-26T11:27:44Z</time>
      </trkpt>
      <trkpt lat="59.7893642" lon="17.6587907">
        <ele>14.557</ele>
        <time>2013-05-26T11:27:45Z</time>
      </trkpt>
      <trkpt lat="59.7894181" lon="17.6587504">
        <ele>14.0764</ele>
        <time>2013-05-26T11:27:46Z</time>
      </trkpt>
      <trkpt lat="59.7894729" lon="17.6587255">
        <ele>13.5958</ele>
        <time>2013-05-26T11:27:47Z</time>
      </trkpt>
      <trkpt lat="59.7895271" lon="17.6587002">
        <ele>13.5958</ele>
        <time>2013-05-26T11:27:48Z</time>
      </trkpt>
      <trkpt lat="59.7895786" lon="17.6586733">
        <ele>13.5958</ele>
        <time>2013-05-26T11:27:49Z</time>
      </trkpt>
      <trkpt lat="59.7896288" lon="17.6586371">
        <ele>13.1151</ele>
        <time>2013-05-26T11:27:50Z</time>
      </trkpt>
      <trkpt lat="59.7896773" lon="17.6586052">
        <ele>13.1151</ele>
        <time>2013-05-26T11:27:51Z</time>
      </trkpt>
      <trkpt lat="59.789725" lon="17.6585777">
        <ele>12.6344</ele>
        <time>2013-05-26T11:27:52Z</time>
      </trkpt>
      <trkpt lat="59.7897719" lon="17.6585399">
        <ele>11.6732</ele>
        <time>2013-05-26T11:27:53Z</time>
      </trkpt>
      <trkpt lat="59.7898197" lon="17.6585037">
        <ele>11.6732</ele>
        <time>2013-05-26T11:27:54Z</time>
      </trkpt>
      <trkpt lat="59.7898634" lon="17.658452">
        <ele>11.1925</ele>
        <time>2013-05-26T11:27:55Z</time>
      </trkpt>
      <trkpt lat="59.7899013" lon="17.6583936">
        <ele>10.7118</ele>
        <time>2013-05-26T11:27:56Z</time>
      </trkpt>
      <trkpt lat="59.7899328" lon="17.6583437">
        <ele>9.2699</ele>
        <time>2013-05-26T11:27:57Z</time>
      </trkpt>
      <trkpt lat="59.7899628" lon="17.6583117">
        <ele>8.78918</ele>
        <time>2013-05-26T11:27:58Z</time>
      </trkpt>
      <trkpt lat="59.7899855" lon="17.6582732">
        <ele>8.78918</ele>
        <time>2013-05-26T11:27:59Z</time>
      </trkpt>
      <trkpt lat="59.7900002" lon="17.6582262">
        <ele>8.30859</ele>
        <time>2013-05-26T11:28:00Z</time>
      </trkpt>
      <trkpt lat="59.7900018" lon="17.6581718">
        <ele>8.30859</ele>
        <time>2013-05-26T11:28:01Z</time>
      </trkpt>
      <trkpt lat="59.7899909" lon="17.6580975">
        <ele>7.82788</ele>
        <time>2013-05-26T11:28:02Z</time>
      </trkpt>
      <trkpt lat="59.789977" lon="17.6580081">
        <ele>7.34717</ele>
        <time>2013-05-26T11:28:03Z</time>
      </trkpt>
      <trkpt lat="59.7899555" lon="17.6578869">
        <ele>6.86646</ele>
        <time>2013-05-26T11:28:04Z</time>
      </trkpt>
      <trkpt lat="59.7899339" lon="17.6577795">
        <ele>5.90527</ele>
        <time>2013-05-26T11:28:05Z</time>
      </trkpt>
      <trkpt lat="59.7899172" lon="17.6576639">
        <ele>4.94385</ele>
        <time>2013-05-26T11:28:06Z</time>
      </trkpt>
      <trkpt lat="59.7898947" lon="17.6575391">
        <ele>3.50195</ele>
        <time>2013-05-26T11:28:07Z</time>
      </trkpt>
      <trkpt lat="59.7898743" lon="17.6574137">
        <ele>3.02124</ele>
        <time>2013-05-26T11:28:08Z</time>
      </trkpt>
      <trkpt lat="59.789849" lon="17.6572803">
        <ele>2.54065</ele>
        <time>2013-05-26T11:28:09Z</time>
      </trkpt>
      <trkpt lat="59.7898018" lon="17.6570944">
        <ele>1.57935</ele>
        <time>2013-05-26T11:28:10Z</time>
      </trkpt>
      <trkpt lat="59.7897645" lon="17.6569497">
        <ele>0.618042</ele>
        <time>2013-05-26T11:28:11Z</time>
      </trkpt>
      <trkpt lat="59.7897128" lon="17.6567728">
        <ele>0</ele>
        <time>2013-05-26T11:28:12Z</time>
      </trkpt>
      <trkpt lat="59.7896587" lon="17.6566044">
        <ele>0</ele>
        <time>2013-05-26T11:28:13Z</time>
      </trkpt>
      <trkpt lat="59.789607" lon="17.656441">
        <ele>0</ele>
        <time>2013-05-26T11:28:14Z</time>
      </trkpt>
      <trkpt lat="59.7895391" lon="17.6562612">
        <ele>0</ele>
        <time>2013-05-26T11:28:15Z</time>
      </trkpt>
      <trkpt lat="59.7894804" lon="17.6560951">
        <ele>0</ele>
        <time>2013-05-26T11:28:16Z</time>
      </trkpt>
      <trkpt lat="59.789416" lon="17.6559319">
        <ele>0</ele>
        <time>2013-05-26T11:28:17Z</time>
      </trkpt>
      <trkpt lat="59.7893553" lon="17.6557764">
        <ele>0</ele>
        <time>2013-05-26T11:28:18Z</time>
      </trkpt>
      <trkpt lat="59.7892942" lon="17.6556034">
        <ele>0</ele>
        <time>2013-05-26T11:28:19Z</time>
      </trkpt>
      <trkpt lat="59.7892403" lon="17.65542">
        <ele>0</ele>
        <time>2013-05-26T11:28:20Z</time>
      </trkpt>
      <trkpt lat="59.7891936" lon="17.6552343">
        <ele>0</ele>
        <time>2013-05-26T11:28:21Z</time>
      </trkpt>
      <trkpt lat="59.7891505" lon="17.6550543">
        <ele>0</ele>
        <time>2013-05-26T11:28:22Z</time>
      </trkpt>
      <trkpt lat="59.7891124" lon="17.6548706">
        <ele>0</ele>
        <time>2013-05-26T11:28:23Z</time>
      </trkpt>
      <trkpt lat="59.7890748" lon="17.6546861">
        <ele>0</ele>
        <time>2013-05-26T11:28:24Z</time>
      </trkpt>
      <trkpt lat="59.7890443" lon="17.6544986">
        <ele>0</ele>
        <time>2013-05-26T11:28:25Z</time>
      </trkpt>
      <trkpt lat="59.7890222" lon="17.6543111">
        <ele>0</ele>
        <time>2013-05-26T11:28:26Z</time>
      </trkpt>
      <trkpt lat="59.7890041" lon="17.6541242">
        <ele>0</ele>
        <time>2013-05-26T11:28:27Z</time>
      </trkpt>
      <trkpt lat="59.7889885" lon="17.6539391">
        <ele>0</ele>
        <time>2013-05-26T11:28:28Z</time>
      </trkpt>
      <trkpt lat="59.7889757" lon="17.6537547">
        <ele>0</ele>
        <time>2013-05-26T11:28:29Z</time>
      </trkpt>
      <trkpt lat="59.7889624" lon="17.6535666">
        <ele>0</ele>
        <time>2013-05-26T11:28:30Z</time>
      </trkpt>
      <trkpt lat="59.7889453" lon="17.6533798">
        <ele>0</ele>
        <time>2013-05-26T11:28:31Z</time>
      </trkpt>
      <trkpt lat="59.7889304" lon="17.6531997">
        <ele>0</ele>
        <time>2013-05-26T11:28:32Z</time>
      </trkpt>
      <trkpt lat="59.7889145" lon="17.6530224">
        <ele>0</ele>
        <time>2013-05-26T11:28:33Z</time>
      </trkpt>
      <trkpt lat="59.7888994" lon="17.6528501">
        <ele>0</ele>
        <time>2013-05-26T11:28:34Z</time>
      </trkpt>
      <trkpt lat="59.788884" lon="17.6526834">
        <ele>0</ele>
        <time>2013-05-26T11:28:35Z</time>
      </trkpt>
      <trkpt lat="59.7888697" lon="17.6525229">
        <ele>0.137451</ele>
        <time>2013-05-26T11:28:36Z</time>
      </trkpt>
      <trkpt lat="59.7888539" lon="17.6523719">
        <ele>0.618042</ele>
        <time>2013-05-26T11:28:37Z</time>
      </trkpt>
      <trkpt lat="59.7888425" lon="17.6522176">
        <ele>1.09863</ele>
        <time>2013-05-26T11:28:38Z</time>
      </trkpt>
      <trkpt lat="59.7888332" lon="17.6520712">
        <ele>2.06006</ele>
        <time>2013-05-26T11:28:39Z</time>
      </trkpt>
      <trkpt lat="59.7888276" lon="17.6519359">
        <ele>3.02124</ele>
        <time>2013-05-26T11:28:40Z</time>
      </trkpt>
      <trkpt lat="59.7888201" lon="17.6518022">
        <ele>3.50195</ele>
        <time>2013-05-26T11:28:41Z</time>
      </trkpt>
      <trkpt lat="59.7888134" lon="17.6516707">
        <ele>3.98267</ele>
        <time>2013-05-26T11:28:42Z</time>
      </trkpt>
      <trkpt lat="59.7888062" lon="17.6515366">
        <ele>4.94385</ele>
        <time>2013-05-26T11:28:43Z</time>
      </trkpt>
      <trkpt lat="59.7888004" lon="17.6514025">
        <ele>5.42456</ele>
        <time>2013-05-26T11:28:44Z</time>
      </trkpt>
      <trkpt lat="59.7887946" lon="17.6512652">
        <ele>5.42456</ele>
        <time>2013-05-26T11:28:45Z</time>
      </trkpt>
      <trkpt lat="59.7887918" lon="17.6511262">
        <ele>6.38586</ele>
        <time>2013-05-26T11:28:46Z</time>
      </trkpt>
      <trkpt lat="59.788791" lon="17.6509979">
        <ele>6.86646</ele>
        <time>2013-05-26T11:28:47Z</time>
      </trkpt>
      <trkpt lat="59.7887953" lon="17.6508817">
        <ele>7.34717</ele>
        <time>2013-05-26T11:28:48Z</time>
      </trkpt>
      <trkpt lat="59.788806" lon="17.6507788">
        <ele>7.82788</ele>
        <time>2013-05-26T11:28:49Z</time>
      </trkpt>
      <trkpt lat="59.7887975" lon="17.6506349">
        <ele>7.34717</ele>
        <time>2013-05-26T11:28:50Z</time>
      </trkpt>
      <trkpt lat="59.7887751" lon="17.6504667">
        <ele>8.30859</ele>
        <time>2013-05-26T11:28:51Z</time>
      </trkpt>
      <trkpt lat="59.7887668" lon="17.6503425">
        <ele>8.78918</ele>
        <time>2013-05-26T11:28:52Z</time>
      </trkpt>
      <trkpt lat="59.78876" lon="17.6502106">
        <ele>8.78918</ele>
        <time>2013-05-26T11:28:53Z</time>
      </trkpt>
      <trkpt lat="59.7887537" lon="17.6500634">
        <ele>7.82788</ele>
        <time>2013-05-26T11:28:54Z</time>
      </trkpt>
      <trkpt lat="59.7887517" lon="17.6499363">
        <ele>8.30859</ele>
        <time>2013-05-26T11:28:55Z</time>
      </trkpt>
      <trkpt lat="59.7887491" lon="17.6498143">
        <ele>8.30859</ele>
        <time>2013-05-26T11:28:56Z</time>
      </trkpt>
      <trkpt lat="59.7887509" lon="17.6497122">
        <ele>8.78918</ele>
        <time>2013-05-26T11:28:57Z</time>
      </trkpt>
      <trkpt lat="59.7887456" lon="17.6496003">
        <ele>7.82788</ele>
        <time>2013-05-26T11:28:58Z</time>
      </trkpt>
      <trkpt lat="59.7887449" lon="17.6494976">
        <ele>7.82788</ele>
        <time>2013-05-26T11:28:59Z</time>
      </trkpt>
      <trkpt lat="59.7887418" lon="17.6494087">
        <ele>8.78918</ele>
        <time>2013-05-26T11:29:00Z</time>
      </trkpt>
      <trkpt lat="59.7887367" lon="17.6492932">
        <ele>8.30859</ele>
        <time>2013-05-26T11:29:01Z</time>
      </trkpt>
      <trkpt lat="59.7887399" lon="17.6491974">
        <ele>9.2699</ele>
        <time>2013-05-26T11:29:02Z</time>
      </trkpt>
      <trkpt lat="59.7887456" lon="17.6490993">
        <ele>9.75061</ele>
        <time>2013-05-26T11:29:03Z</time>
      </trkpt>
      <trkpt lat="59.7887492" lon="17.6490042">
        <ele>9.75061</ele>
        <time>2013-05-26T11:29:04Z</time>
      </trkpt>
      <trkpt lat="59.7887509" lon="17.6489041">
        <ele>10.2312</ele>
        <time>2013-05-26T11:29:05Z</time>
      </trkpt>
      <trkpt lat="59.7887483" lon="17.6488166">
        <ele>10.7118</ele>
        <time>2013-05-26T11:29:06Z</time>
      </trkpt>
      <trkpt lat="59.7887436" lon="17.6487207">
        <ele>11.6732</ele>
        <time>2013-05-26T11:29:07Z</time>
      </trkpt>
      <trkpt lat="59.7887409" lon="17.6486107">
        <ele>12.6344</ele>
        <time>2013-05-26T11:29:08Z</time>
      </trkpt>
      <trkpt lat="59.7887428" lon="17.6485171">
        <ele>12.6344</ele>
        <time>2013-05-26T11:29:09Z</time>
      </trkpt>
      <trkpt lat="59.7887441" lon="17.6484367">
        <ele>12.1538</ele>
        <time>2013-05-26T11:29:10Z</time>
      </trkpt>
      <trkpt lat="59.7887487" lon="17.6483581">
        <ele>12.1538</ele>
        <time>2013-05-26T11:29:11Z</time>
      </trkpt>
      <trkpt lat="59.7887508" lon="17.6482747">
        <ele>12.6344</ele>
        <time>2013-05-26T11:29:12Z</time>
      </trkpt>
      <trkpt lat="59.7887513" lon="17.6481916">
        <ele>12.6344</ele>
        <time>2013-05-26T11:29:13Z</time>
      </trkpt>
      <trkpt lat="59.7887557" lon="17.6481092">
        <ele>12.6344</ele>
        <time>2013-05-26T11:29:14Z</time>
      </trkpt>
      <trkpt lat="59.7887559" lon="17.6480248">
        <ele>12.1538</ele>
        <time>2013-05-26T11:29:15Z</time>
      </trkpt>
      <trkpt lat="59.7887566" lon="17.6479463">
        <ele>12.1538</ele>
        <time>2013-05-26T11:29:16Z</time>
      </trkpt>
      <trkpt lat="59.7887626" lon="17.6478712">
        <ele>11.6732</ele>
        <time>2013-05-26T11:29:17Z</time>
      </trkpt>
      <trkpt lat="59.788769" lon="17.6477909">
        <ele>11.1925</ele>
        <time>2013-05-26T11:29:18Z</time>
      </trkpt>
      <trkpt lat="59.7887709" lon="17.6477031">
        <ele>10.2312</ele>
        <time>2013-05-26T11:29:19Z</time>
      </trkpt>
      <trkpt lat="59.7887725" lon="17.6476268">
        <ele>10.2312</ele>
        <time>2013-05-26T11:29:20Z</time>
      </trkpt>
      <trkpt lat="59.7887782" lon="17.647549">
        <ele>10.2312</ele>
        <time>2013-05-26T11:29:21Z</time>
      </trkpt>
      <trkpt lat="59.7887782" lon="17.6474604">
        <ele>9.75061</ele>
        <time>2013-05-26T11:29:22Z</time>
      </trkpt>
      <trkpt lat="59.7887814" lon="17.6473716">
        <ele>9.75061</ele>
        <time>2013-05-26T11:29:23Z</time>
      </trkpt>
      <trkpt lat="59.7887874" lon="17.647291">
        <ele>9.75061</ele>
        <time>2013-05-26T11:29:24Z</time>
      </trkpt>
      <trkpt lat="59.7887925" lon="17.6472096">
        <ele>10.2312</ele>
        <time>2013-05-26T11:29:25Z</time>
      </trkpt>
      <trkpt lat="59.7887958" lon="17.64713">
        <ele>10.2312</ele>
        <time>2013-05-26T11:29:26Z</time>
      </trkpt>
      <trkpt lat="59.7888004" lon="17.6470496">
        <ele>10.2312</ele>
        <time>2013-05-26T11:29:27Z</time>
      </trkpt>
      <trkpt lat="59.7888034" lon="17.6469651">
        <ele>10.2312</ele>
        <time>2013-05-26T11:29:28Z</time>
      </trkpt>
      <trkpt lat="59.7888072" lon="17.6468914">
        <ele>9.75061</ele>
        <time>2013-05-26T11:29:29Z</time>
      </trkpt>
      <trkpt lat="59.7888145" lon="17.6468187">
        <ele>10.2312</ele>
        <time>2013-05-26T11:29:30Z</time>
      </trkpt>
      <trkpt lat="59.7888215" lon="17.646744">
        <ele>11.1925</ele>
        <time>2013-05-26T11:29:31Z</time>
      </trkpt>
      <trkpt lat="59.7888254" lon="17.6466513">
        <ele>10.7118</ele>
        <time>2013-05-26T11:29:32Z</time>
      </trkpt>
      <trkpt lat="59.7888311" lon="17.6465652">
        <ele>11.1925</ele>
        <time>2013-05-26T11:29:33Z</time>
      </trkpt>
      <trkpt lat="59.7888371" lon="17.6464736">
        <ele>11.6732</ele>
        <time>2013-05-26T11:29:34Z</time>
      </trkpt>
      <trkpt lat="59.7888444" lon="17.6463796">
        <ele>12.1538</ele>
        <time>2013-05-26T11:29:35Z</time>
      </trkpt>
      <trkpt lat="59.7888537" lon="17.6462796">
        <ele>13.1151</ele>
        <time>2013-05-26T11:29:36Z</time>
      </trkpt>
      <trkpt lat="59.7888592" lon="17.6461861">
        <ele>13.5958</ele>
        <time>2013-05-26T11:29:37Z</time>
      </trkpt>
      <trkpt lat="59.7888659" lon="17.6460944">
        <ele>14.0764</ele>
        <time>2013-05-26T11:29:38Z</time>
      </trkpt>
      <trkpt lat="59.7888746" lon="17.6459952">
        <ele>14.557</ele>
        <time>2013-05-26T11:29:39Z</time>
      </trkpt>
      <trkpt lat="59.788883" lon="17.6458999">
        <ele>14.557</ele>
        <time>2013-05-26T11:29:40Z</time>
      </trkpt>
      <trkpt lat="59.7888892" lon="17.6457991">
        <ele>14.0764</ele>
        <time>2013-05-26T11:29:41Z</time>
      </trkpt>
      <trkpt lat="59.7888946" lon="17.6456969">
        <ele>14.557</ele>
        <time>2013-05-26T11:29:42Z</time>
      </trkpt>
      <trkpt lat="59.7888987" lon="17.6455913">
        <ele>14.557</ele>
        <time>2013-05-26T11:29:43Z</time>
      </trkpt>
      <trkpt lat="59.7889077" lon="17.6454931">
        <ele>14.557</ele>
        <time>2013-05-26T11:29:44Z</time>
      </trkpt>
      <trkpt lat="59.7889118" lon="17.6453894">
        <ele>15.0377</ele>
        <time>2013-05-26T11:29:45Z</time>
      </trkpt>
      <trkpt lat="59.7889128" lon="17.6452944">
        <ele>15.5184</ele>
        <time>2013-05-26T11:29:46Z</time>
      </trkpt>
      <trkpt lat="59.7889141" lon="17.6452169">
        <ele>15.999</ele>
        <time>2013-05-26T11:29:47Z</time>
      </trkpt>
      <trkpt lat="59.788914" lon="17.6451307">
        <ele>16.4797</ele>
        <time>2013-05-26T11:29:48Z</time>
      </trkpt>
      <trkpt lat="59.7889175" lon="17.6450361">
        <ele>17.4412</ele>
        <time>2013-05-26T11:29:49Z</time>
      </trkpt>
      <trkpt lat="59.7889203" lon="17.6449506">
        <ele>17.9218</ele>
        <time>2013-05-26T11:29:50Z</time>
      </trkpt>
      <trkpt lat="59.7889217" lon="17.6448815">
        <ele>17.9218</ele>
        <time>2013-05-26T11:29:51Z</time>
      </trkpt>
      <trkpt lat="59.788928" lon="17.6448209">
        <ele>17.9218</ele>
        <time>2013-05-26T11:29:52Z</time>
      </trkpt>
      <trkpt lat="59.7889324" lon="17.6447748">
        <ele>17.9218</ele>
        <time>2013-05-26T11:29:53Z</time>
      </trkpt>
      <trkpt lat="59.7889342" lon="17.6447324">
        <ele>18.4023</ele>
        <time>2013-05-26T11:29:54Z</time>
      </trkpt>
      <trkpt lat="59.7889321" lon="17.6446982">
        <ele>18.4023</ele>
        <time>2013-05-26T11:29:55Z</time>
      </trkpt>
      <trkpt lat="59.7889353" lon="17.6446648">
        <ele>18.8831</ele>
        <time>2013-05-26T11:29:56Z</time>
      </trkpt>
      <trkpt lat="59.7889386" lon="17.644642">
        <ele>19.3638</ele>
        <time>2013-05-26T11:29:57Z</time>
      </trkpt>
      <trkpt lat="59.7889426" lon="17.6446185">
        <ele>19.8444</ele>
        <time>2013-05-26T11:29:58Z</time>
      </trkpt>
      <trkpt lat="59.7889466" lon="17.6445818">
        <ele>20.325</ele>
        <time>2013-05-26T11:29:59Z</time>
      </trkpt>
      <trkpt lat="59.7889464" lon="17.6445274">
        <ele>19.8444</ele>
        <time>2013-05-26T11:30:00Z</time>
      </trkpt>
      <trkpt lat="59.7889445" lon="17.6444689">
        <ele>19.3638</ele>
        <time>2013-05-26T11:30:01Z</time>
      </trkpt>
      <trkpt lat="59.7889502" lon="17.6444067">
        <ele>19.3638</ele>
        <time>2013-05-26T11:30:02Z</time>
      </trkpt>
      <trkpt lat="59.7889585" lon="17.6443409">
        <ele>20.325</ele>
        <time>2013-05-26T11:30:03Z</time>
      </trkpt>
      <trkpt lat="59.7889616" lon="17.6442673">
        <ele>21.2864</ele>
        <time>2013-05-26T11:30:04Z</time>
      </trkpt>
      <trkpt lat="59.7889688" lon="17.6441911">
        <ele>21.2864</ele>
        <time>2013-05-26T11:30:05Z</time>
      </trkpt>
      <trkpt lat="59.7889807" lon="17.6441099">
        <ele>21.2864</ele>
        <time>2013-05-26T11:30:06Z</time>
      </trkpt>
      <trkpt lat="59.7889911" lon="17.6440249">
        <ele>20.325</ele>
        <time>2013-05-26T11:30:07Z</time>
      </trkpt>
      <trkpt lat="59.7890032" lon="17.6439347">
        <ele>19.3638</ele>
        <time>2013-05-26T11:30:08Z</time>
      </trkpt>
      <trkpt lat="59.7890159" lon="17.6438363">
        <ele>18.4023</ele>
        <time>2013-05-26T11:30:09Z</time>
      </trkpt>
      <trkpt lat="59.7890295" lon="17.6437365">
        <ele>17.4412</ele>
        <time>2013-05-26T11:30:10Z</time>
      </trkpt>
      <trkpt lat="59.7890484" lon="17.64364">
        <ele>16.9604</ele>
        <time>2013-05-26T11:30:11Z</time>
      </trkpt>
      <trkpt lat="59.7890695" lon="17.6435469">
        <ele>16.4797</ele>
        <time>2013-05-26T11:30:12Z</time>
      </trkpt>
      <trkpt lat="59.7890896" lon="17.6434494">
        <ele>16.4797</ele>
        <time>2013-05-26T11:30:13Z</time>
      </trkpt>
      <trkpt lat="59.7891082" lon="17.6433495">
        <ele>16.4797</ele>
        <time>2013-05-26T11:30:14Z</time>
      </trkpt>
      <trkpt lat="59.7891258" lon="17.6432509">
        <ele>16.4797</ele>
        <time>2013-05-26T11:30:15Z</time>
      </trkpt>
      <trkpt lat="59.7891417" lon="17.6431512">
        <ele>16.9604</ele>
        <time>2013-05-26T11:30:16Z</time>
      </trkpt>
      <trkpt lat="59.789149" lon="17.6430547">
        <ele>16.4797</ele>
        <time>2013-05-26T11:30:17Z</time>
      </trkpt>
      <trkpt lat="59.7891578" lon="17.642951">
        <ele>16.9604</ele>
        <time>2013-05-26T11:30:18Z</time>
      </trkpt>
      <trkpt lat="59.7891674" lon="17.642854">
        <ele>16.9604</ele>
        <time>2013-05-26T11:30:19Z</time>
      </trkpt>
      <trkpt lat="59.7891667" lon="17.6427518">
        <ele>16.9604</ele>
        <time>2013-05-26T11:30:20Z</time>
      </trkpt>
      <trkpt lat="59.7891665" lon="17.6426494">
        <ele>16.9604</ele>
        <time>2013-05-26T11:30:21Z</time>
      </trkpt>
      <trkpt lat="59.78917" lon="17.6425506">
        <ele>16.4797</ele>
        <time>2013-05-26T11:30:22Z</time>
      </trkpt>
      <trkpt lat="59.7891735" lon="17.6424482">
        <ele>16.4797</ele>
        <time>2013-05-26T11:30:23Z</time>
      </trkpt>
      <trkpt lat="59.7891733" lon="17.6423466">
        <ele>15.999</ele>
        <time>2013-05-26T11:30:24Z</time>
      </trkpt>
      <trkpt lat="59.7891724" lon="17.6422452">
        <ele>15.5184</ele>
        <time>2013-05-26T11:30:25Z</time>
      </trkpt>
      <trkpt lat="59.789175" lon="17.6421429">
        <ele>15.5184</ele>
        <time>2013-05-26T11:30:26Z</time>
      </trkpt>
      <trkpt lat="59.7891766" lon="17.6420411">
        <ele>15.0377</ele>
        <time>2013-05-26T11:30:27Z</time>
      </trkpt>
      <trkpt lat="59.7891839" lon="17.6419399">
        <ele>15.5184</ele>
        <time>2013-05-26T11:30:28Z</time>
      </trkpt>
      <trkpt lat="59.7891895" lon="17.6418357">
        <ele>15.5184</ele>
        <time>2013-05-26T11:30:29Z</time>
      </trkpt>
      <trkpt lat="59.7891957" lon="17.6417333">
        <ele>15.999</ele>
        <time>2013-05-26T11:30:30Z</time>
      </trkpt>
      <trkpt lat="59.7892023" lon="17.6416316">
        <ele>16.9604</ele>
        <time>2013-05-26T11:30:31Z</time>
      </trkpt>
      <trkpt lat="59.7892046" lon="17.6415269">
        <ele>17.9218</ele>
        <time>2013-05-26T11:30:32Z</time>
      </trkpt>
      <trkpt lat="59.7892067" lon="17.6414173">
        <ele>18.4023</ele>
        <time>2013-05-26T11:30:33Z</time>
      </trkpt>
      <trkpt lat="59.7892052" lon="17.6413173">
        <ele>18.8831</ele>
        <time>2013-05-26T11:30:34Z</time>
      </trkpt>
      <trkpt lat="59.7892004" lon="17.6412117">
        <ele>18.8831</ele>
        <time>2013-05-26T11:30:35Z</time>
      </trkpt>
      <trkpt lat="59.7891962" lon="17.6411038">
        <ele>18.8831</ele>
        <time>2013-05-26T11:30:36Z</time>
      </trkpt>
      <trkpt lat="59.7891955" lon="17.6410038">
        <ele>18.8831</ele>
        <time>2013-05-26T11:30:37Z</time>
      </trkpt>
      <trkpt lat="59.7891884" lon="17.6408987">
        <ele>18.8831</ele>
        <time>2013-05-26T11:30:38Z</time>
      </trkpt>
      <trkpt lat="59.7891788" lon="17.6407966">
        <ele>19.8444</ele>
        <time>2013-05-26T11:30:39Z</time>
      </trkpt>
      <trkpt lat="59.7891624" lon="17.6406917">
        <ele>19.3638</ele>
        <time>2013-05-26T11:30:40Z</time>
      </trkpt>
      <trkpt lat="59.7891439" lon="17.6405784">
        <ele>19.3638</ele>
        <time>2013-05-26T11:30:41Z</time>
      </trkpt>
      <trkpt lat="59.7891241" lon="17.6404673">
        <ele>19.3638</ele>
        <time>2013-05-26T11:30:42Z</time>
      </trkpt>
      <trkpt lat="59.7891076" lon="17.6403715">
        <ele>19.3638</ele>
        <time>2013-05-26T11:30:43Z</time>
      </trkpt>
      <trkpt lat="59.7890919" lon="17.6402852">
        <ele>19.3638</ele>
        <time>2013-05-26T11:30:44Z</time>
      </trkpt>
      <trkpt lat="59.789072" lon="17.6402013">
        <ele>19.8444</ele>
        <time>2013-05-26T11:30:45Z</time>
      </trkpt>
      <trkpt lat="59.789046" lon="17.6401135">
        <ele>19.8444</ele>
        <time>2013-05-26T11:30:46Z</time>
      </trkpt>
      <trkpt lat="59.7890164" lon="17.6400129">
        <ele>19.8444</ele>
        <time>2013-05-26T11:30:47Z</time>
      </trkpt>
      <trkpt lat="59.788986" lon="17.6399159">
        <ele>19.3638</ele>
        <time>2013-05-26T11:30:48Z</time>
      </trkpt>
      <trkpt lat="59.7889554" lon="17.6398317">
        <ele>18.8831</ele>
        <time>2013-05-26T11:30:49Z</time>
      </trkpt>
      <trkpt lat="59.7889221" lon="17.6397463">
        <ele>18.4023</ele>
        <time>2013-05-26T11:30:50Z</time>
      </trkpt>
      <trkpt lat="59.7888875" lon="17.6396586">
        <ele>17.9218</ele>
        <time>2013-05-26T11:30:51Z</time>
      </trkpt>
      <trkpt lat="59.7888482" lon="17.6395733">
        <ele>17.9218</ele>
        <time>2013-05-26T11:30:52Z</time>
      </trkpt>
      <trkpt lat="59.7888068" lon="17.6394903">
        <ele>17.9218</ele>
        <time>2013-05-26T11:30:53Z</time>
      </trkpt>
      <trkpt lat="59.7887623" lon="17.6394044">
        <ele>17.4412</ele>
        <time>2013-05-26T11:30:54Z</time>
      </trkpt>
      <trkpt lat="59.7887181" lon="17.6393176">
        <ele>16.9604</ele>
        <time>2013-05-26T11:30:55Z</time>
      </trkpt>
      <trkpt lat="59.788674" lon="17.6392293">
        <ele>16.4797</ele>
        <time>2013-05-26T11:30:56Z</time>
      </trkpt>
      <trkpt lat="59.78863" lon="17.6391378">
        <ele>16.4797</ele>
        <time>2013-05-26T11:30:57Z</time>
      </trkpt>
      <trkpt lat="59.7885861" lon="17.6390465">
        <ele>15.999</ele>
        <time>2013-05-26T11:30:58Z</time>
      </trkpt>
      <trkpt lat="59.788539" lon="17.6389531">
        <ele>15.5184</ele>
        <time>2013-05-26T11:30:59Z</time>
      </trkpt>
      <trkpt lat="59.7884968" lon="17.6388547">
        <ele>15.0377</ele>
        <time>2013-05-26T11:31:00Z</time>
      </trkpt>
      <trkpt lat="59.7884512" lon="17.6387625">
        <ele>15.0377</ele>
        <time>2013-05-26T11:31:01Z</time>
      </trkpt>
      <trkpt lat="59.7884056" lon="17.6386695">
        <ele>14.557</ele>
        <time>2013-05-26T11:31:02Z</time>
      </trkpt>
      <trkpt lat="59.7883561" lon="17.6385775">
        <ele>14.0764</ele>
        <time>2013-05-26T11:31:03Z</time>
      </trkpt>
      <trkpt lat="59.7883077" lon="17.6384848">
        <ele>14.0764</ele>
        <time>2013-05-26T11:31:04Z</time>
      </trkpt>
      <trkpt lat="59.7882633" lon="17.6383917">
        <ele>13.5958</ele>
        <time>2013-05-26T11:31:05Z</time>
      </trkpt>
      <trkpt lat="59.7882105" lon="17.6382556">
        <ele>13.5958</ele>
        <time>2013-05-26T11:31:06Z</time>
      </trkpt>
      <trkpt lat="59.7881633" lon="17.6381573">
        <ele>13.5958</ele>
        <time>2013-05-26T11:31:07Z</time>
      </trkpt>
      <trkpt lat="59.7881215" lon="17.6380329">
        <ele>13.5958</ele>
        <time>2013-05-26T11:31:08Z</time>
      </trkpt>
      <trkpt lat="59.7880652" lon="17.637931">
        <ele>12.6344</ele>
        <time>2013-05-26T11:31:09Z</time>
      </trkpt>
      <trkpt lat="59.7880193" lon="17.6378238">
        <ele>12.6344</ele>
        <time>2013-05-26T11:31:10Z</time>
      </trkpt>
      <trkpt lat="59.7879738" lon="17.6377183">
        <ele>12.1538</ele>
        <time>2013-05-26T11:31:11Z</time>
      </trkpt>
      <trkpt lat="59.7879233" lon="17.6376368">
        <ele>11.6732</ele>
        <time>2013-05-26T11:31:12Z</time>
      </trkpt>
      <trkpt lat="59.7878757" lon="17.6375348">
        <ele>11.1925</ele>
        <time>2013-05-26T11:31:13Z</time>
      </trkpt>
      <trkpt lat="59.7878225" lon="17.6374182">
        <ele>10.7118</ele>
        <time>2013-05-26T11:31:14Z</time>
      </trkpt>
      <trkpt lat="59.7877624" lon="17.6372909">
        <ele>10.2312</ele>
        <time>2013-05-26T11:31:15Z</time>
      </trkpt>
      <trkpt lat="59.7877039" lon="17.6371645">
        <ele>10.2312</ele>
        <time>2013-05-26T11:31:16Z</time>
      </trkpt>
      <trkpt lat="59.7876408" lon="17.6370385">
        <ele>9.75061</ele>
        <time>2013-05-26T11:31:17Z</time>
      </trkpt>
      <trkpt lat="59.787577" lon="17.6369106">
        <ele>9.75061</ele>
        <time>2013-05-26T11:31:18Z</time>
      </trkpt>
      <trkpt lat="59.7875115" lon="17.6367805">
        <ele>9.2699</ele>
        <time>2013-05-26T11:31:19Z</time>
      </trkpt>
      <trkpt lat="59.787447" lon="17.6366465">
        <ele>8.78918</ele>
        <time>2013-05-26T11:31:20Z</time>
      </trkpt>
      <trkpt lat="59.7873811" lon="17.6365101">
        <ele>8.30859</ele>
        <time>2013-05-26T11:31:21Z</time>
      </trkpt>
      <trkpt lat="59.7873203" lon="17.6363677">
        <ele>8.30859</ele>
        <time>2013-05-26T11:31:22Z</time>
      </trkpt>
      <trkpt lat="59.7872598" lon="17.6362207">
        <ele>8.30859</ele>
        <time>2013-05-26T11:31:23Z</time>
      </trkpt>
      <trkpt lat="59.7872004" lon="17.6360703">
        <ele>8.30859</ele>
        <time>2013-05-26T11:31:24Z</time>
      </trkpt>
      <trkpt lat="59.7871416" lon="17.635917">
        <ele>7.82788</ele>
        <time>2013-05-26T11:31:25Z</time>
      </trkpt>
      <trkpt lat="59.7870863" lon="17.6357622">
        <ele>8.30859</ele>
        <time>2013-05-26T11:31:26Z</time>
      </trkpt>
      <trkpt lat="59.7870357" lon="17.6356068">
        <ele>8.30859</ele>
        <time>2013-05-26T11:31:27Z</time>
      </trkpt>
      <trkpt lat="59.7869881" lon="17.6354476">
        <ele>8.78918</ele>
        <time>2013-05-26T11:31:28Z</time>
      </trkpt>
      <trkpt lat="59.7869435" lon="17.6352896">
        <ele>9.2699</ele>
        <time>2013-05-26T11:31:29Z</time>
      </trkpt>
      <trkpt lat="59.7869011" lon="17.6351317">
        <ele>9.75061</ele>
        <time>2013-05-26T11:31:30Z</time>
      </trkpt>
      <trkpt lat="59.7868586" lon="17.6349732">
        <ele>9.75061</ele>
        <time>2013-05-26T11:31:31Z</time>
      </trkpt>
      <trkpt lat="59.7868143" lon="17.6348112">
        <ele>9.75061</ele>
        <time>2013-05-26T11:31:32Z</time>
      </trkpt>
      <trkpt lat="59.7867746" lon="17.6346422">
        <ele>9.75061</ele>
        <time>2013-05-26T11:31:33Z</time>
      </trkpt>
      <trkpt lat="59.7867422" lon="17.6344688">
        <ele>10.2312</ele>
        <time>2013-05-26T11:31:34Z</time>
      </trkpt>
      <trkpt lat="59.7867124" lon="17.6342973">
        <ele>10.2312</ele>
        <time>2013-05-26T11:31:35Z</time>
      </trkpt>
      <trkpt lat="59.7866832" lon="17.634129">
        <ele>10.2312</ele>
        <time>2013-05-26T11:31:36Z</time>
      </trkpt>
      <trkpt lat="59.7866534" lon="17.633958">
        <ele>10.7118</ele>
        <time>2013-05-26T11:31:37Z</time>
      </trkpt>
      <trkpt lat="59.7866231" lon="17.6337869">
        <ele>10.7118</ele>
        <time>2013-05-26T11:31:38Z</time>
      </trkpt>
      <trkpt lat="59.7865911" lon="17.6336165">
        <ele>11.1925</ele>
        <time>2013-05-26T11:31:39Z</time>
      </trkpt>
      <trkpt lat="59.7865611" lon="17.6334462">
        <ele>11.1925</ele>
        <time>2013-05-26T11:31:40Z</time>
      </trkpt>
      <trkpt lat="59.7865325" lon="17.6332757">
        <ele>11.6732</ele>
        <time>2013-05-26T11:31:41Z</time>
      </trkpt>
      <trkpt lat="59.7865082" lon="17.6331047">
        <ele>12.1538</ele>
        <time>2013-05-26T11:31:42Z</time>
      </trkpt>
      <trkpt lat="59.7864869" lon="17.6329277">
        <ele>12.1538</ele>
        <time>2013-05-26T11:31:43Z</time>
      </trkpt>
      <trkpt lat="59.7864752" lon="17.6327421">
        <ele>12.6344</ele>
        <time>2013-05-26T11:31:44Z</time>
      </trkpt>
      <trkpt lat="59.7864599" lon="17.6325578">
        <ele>12.6344</ele>
        <time>2013-05-26T11:31:45Z</time>
      </trkpt>
      <trkpt lat="59.7864493" lon="17.6323721">
        <ele>12.6344</ele>
        <time>2013-05-26T11:31:46Z</time>
      </trkpt>
      <trkpt lat="59.7864424" lon="17.6321784">
        <ele>12.1538</ele>
        <time>2013-05-26T11:31:47Z</time>
      </trkpt>
      <trkpt lat="59.7864402" lon="17.6319822">
        <ele>11.6732</ele>
        <time>2013-05-26T11:31:48Z</time>
      </trkpt>
      <trkpt lat="59.7864414" lon="17.6317771">
        <ele>11.1925</ele>
        <time>2013-05-26T11:31:49Z</time>
      </trkpt>
      <trkpt lat="59.7864454" lon="17.6315776">
        <ele>9.75061</ele>
        <time>2013-05-26T11:31:50Z</time>
      </trkpt>
      <trkpt lat="59.7864566" lon="17.6313765">
        <ele>9.75061</ele>
        <time>2013-05-26T11:31:51Z</time>
      </trkpt>
      <trkpt lat="59.7864713" lon="17.6311753">
        <ele>9.2699</ele>
        <time>2013-05-26T11:31:52Z</time>
      </trkpt>
      <trkpt lat="59.7864906" lon="17.6309752">
        <ele>8.30859</ele>
        <time>2013-05-26T11:31:53Z</time>
      </trkpt>
      <trkpt lat="59.786514" lon="17.6307748">
        <ele>7.82788</ele>
        <time>2013-05-26T11:31:54Z</time>
      </trkpt>
      <trkpt lat="59.7865415" lon="17.6305713">
        <ele>6.86646</ele>
        <time>2013-05-26T11:31:55Z</time>
      </trkpt>
      <trkpt lat="59.786576" lon="17.630365">
        <ele>6.38586</ele>
        <time>2013-05-26T11:31:56Z</time>
      </trkpt>
      <trkpt lat="59.7866144" lon="17.6301541">
        <ele>6.38586</ele>
        <time>2013-05-26T11:31:57Z</time>
      </trkpt>
      <trkpt lat="59.786657" lon="17.6299419">
        <ele>5.90527</ele>
        <time>2013-05-26T11:31:58Z</time>
      </trkpt>
      <trkpt lat="59.7867056" lon="17.6297337">
        <ele>5.90527</ele>
        <time>2013-05-26T11:31:59Z</time>
      </trkpt>
      <trkpt lat="59.7867601" lon="17.6295322">
        <ele>5.42456</ele>
        <time>2013-05-26T11:32:00Z</time>
      </trkpt>
      <trkpt lat="59.7868206" lon="17.6293335">
        <ele>5.42456</ele>
        <time>2013-05-26T11:32:01Z</time>
      </trkpt>
      <trkpt lat="59.7868839" lon="17.6291511">
        <ele>5.42456</ele>
        <time>2013-05-26T11:32:02Z</time>
      </trkpt>
      <trkpt lat="59.7869471" lon="17.6289819">
        <ele>5.42456</ele>
        <time>2013-05-26T11:32:03Z</time>
      </trkpt>
      <trkpt lat="59.7870129" lon="17.6288346">
        <ele>5.42456</ele>
        <time>2013-05-26T11:32:04Z</time>
      </trkpt>
      <trkpt lat="59.7870787" lon="17.6287004">
        <ele>5.42456</ele>
        <time>2013-05-26T11:32:05Z</time>
      </trkpt>
      <trkpt lat="59.7871424" lon="17.6285715">
        <ele>5.90527</ele>
        <time>2013-05-26T11:32:06Z</time>
      </trkpt>
      <trkpt lat="59.7872083" lon="17.6284567">
        <ele>5.42456</ele>
        <time>2013-05-26T11:32:07Z</time>
      </trkpt>
      <trkpt lat="59.7872807" lon="17.6283655">
        <ele>5.42456</ele>
        <time>2013-05-26T11:32:08Z</time>
      </trkpt>
      <trkpt lat="59.7873505" lon="17.6282726">
        <ele>5.90527</ele>
        <time>2013-05-26T11:32:09Z</time>
      </trkpt>
      <trkpt lat="59.7874217" lon="17.6281924">
        <ele>5.90527</ele>
        <time>2013-05-26T11:32:10Z</time>
      </trkpt>
      <trkpt lat="59.7874892" lon="17.6281117">
        <ele>5.90527</ele>
        <time>2013-05-26T11:32:11Z</time>
      </trkpt>
      <trkpt lat="59.7875548" lon="17.6280386">
        <ele>5.42456</ele>
        <time>2013-05-26T11:32:12Z</time>
      </trkpt>
      <trkpt lat="59.7876244" lon="17.6279742">
        <ele>5.90527</ele>
        <time>2013-05-26T11:32:13Z</time>
      </trkpt>
      <trkpt lat="59.7876889" lon="17.6279061">
        <ele>5.42456</ele>
        <time>2013-05-26T11:32:14Z</time>
      </trkpt>
      <trkpt lat="59.7877552" lon="17.6278357">
        <ele>5.42456</ele>
        <time>2013-05-26T11:32:15Z</time>
      </trkpt>
      <trkpt lat="59.7878229" lon="17.6277652">
        <ele>4.94385</ele>
        <time>2013-05-26T11:32:16Z</time>
      </trkpt>
      <trkpt lat="59.7878892" lon="17.6276967">
        <ele>4.46326</ele>
        <time>2013-05-26T11:32:17Z</time>
      </trkpt>
      <trkpt lat="59.7879518" lon="17.6276289">
        <ele>3.98267</ele>
        <time>2013-05-26T11:32:18Z</time>
      </trkpt>
      <trkpt lat="59.788015" lon="17.6275574">
        <ele>3.98267</ele>
        <time>2013-05-26T11:32:19Z</time>
      </trkpt>
      <trkpt lat="59.7880789" lon="17.6274834">
        <ele>3.98267</ele>
        <time>2013-05-26T11:32:20Z</time>
      </trkpt>
      <trkpt lat="59.7881438" lon="17.627416">
        <ele>3.50195</ele>
        <time>2013-05-26T11:32:21Z</time>
      </trkpt>
      <trkpt lat="59.78821" lon="17.6273438">
        <ele>3.02124</ele>
        <time>2013-05-26T11:32:22Z</time>
      </trkpt>
      <trkpt lat="59.7882758" lon="17.6272673">
        <ele>2.54065</ele>
        <time>2013-05-26T11:32:23Z</time>
      </trkpt>
      <trkpt lat="59.7883426" lon="17.627192">
        <ele>2.06006</ele>
        <time>2013-05-26T11:32:24Z</time>
      </trkpt>
      <trkpt lat="59.7884063" lon="17.6271167">
        <ele>1.09863</ele>
        <time>2013-05-26T11:32:25Z</time>
      </trkpt>
      <trkpt lat="59.7884729" lon="17.6270445">
        <ele>0.618042</ele>
        <time>2013-05-26T11:32:26Z</time>
      </trkpt>
      <trkpt lat="59.7885393" lon="17.6269687">
        <ele>0.137451</ele>
        <time>2013-05-26T11:32:27Z</time>
      </trkpt>
      <trkpt lat="59.7886047" lon="17.6268923">
        <ele>0.137451</ele>
        <time>2013-05-26T11:32:28Z</time>
      </trkpt>
      <trkpt lat="59.7886694" lon="17.6268185">
        <ele>0</ele>
        <time>2013-05-26T11:32:29Z</time>
      </trkpt>
      <trkpt lat="59.7887326" lon="17.6267472">
        <ele>0</ele>
        <time>2013-05-26T11:32:30Z</time>
      </trkpt>
      <trkpt lat="59.7887952" lon="17.6266726">
        <ele>0</ele>
        <time>2013-05-26T11:32:31Z</time>
      </trkpt>
      <trkpt lat="59.7888574" lon="17.6266001">
        <ele>0</ele>
        <time>2013-05-26T11:32:32Z</time>
      </trkpt>
      <trkpt lat="59.7889191" lon="17.6265302">
        <ele>0</ele>
        <time>2013-05-26T11:32:33Z</time>
      </trkpt>
      <trkpt lat="59.7889817" lon="17.6264614">
        <ele>0</ele>
        <time>2013-05-26T11:32:34Z</time>
      </trkpt>
      <trkpt lat="59.7890432" lon="17.626392">
        <ele>0</ele>
        <time>2013-05-26T11:32:35Z</time>
      </trkpt>
      <trkpt lat="59.7891036" lon="17.6263243">
        <ele>0</ele>
        <time>2013-05-26T11:32:36Z</time>
      </trkpt>
      <trkpt lat="59.7891642" lon="17.6262573">
        <ele>0</ele>
        <time>2013-05-26T11:32:37Z</time>
      </trkpt>
      <trkpt lat="59.789224" lon="17.626191">
        <ele>0</ele>
        <time>2013-05-26T11:32:38Z</time>
      </trkpt>
      <trkpt lat="59.7892839" lon="17.6261265">
        <ele>0</ele>
        <time>2013-05-26T11:32:39Z</time>
      </trkpt>
      <trkpt lat="59.7893429" lon="17.6260625">
        <ele>0</ele>
        <time>2013-05-26T11:32:40Z</time>
      </trkpt>
      <trkpt lat="59.7894002" lon="17.6259972">
        <ele>0</ele>
        <time>2013-05-26T11:32:41Z</time>
      </trkpt>
      <trkpt lat="59.7894562" lon="17.6259329">
        <ele>0</ele>
        <time>2013-05-26T11:32:42Z</time>
      </trkpt>
      <trkpt lat="59.7895127" lon="17.6258709">
        <ele>0</ele>
        <time>2013-05-26T11:32:43Z</time>
      </trkpt>
      <trkpt lat="59.7895691" lon="17.6258141">
        <ele>0</ele>
        <time>2013-05-26T11:32:44Z</time>
      </trkpt>
      <trkpt lat="59.7896221" lon="17.6257577">
        <ele>0</ele>
        <time>2013-05-26T11:32:45Z</time>
      </trkpt>
      <trkpt lat="59.7896752" lon="17.6256961">
        <ele>0</ele>
        <time>2013-05-26T11:32:46Z</time>
      </trkpt>
      <trkpt lat="59.7897272" lon="17.625634">
        <ele>0</ele>
        <time>2013-05-26T11:32:47Z</time>
      </trkpt>
      <trkpt lat="59.7897811" lon="17.6255742">
        <ele>0</ele>
        <time>2013-05-26T11:32:48Z</time>
      </trkpt>
      <trkpt lat="59.7898359" lon="17.6255148">
        <ele>0</ele>
        <time>2013-05-26T11:32:49Z</time>
      </trkpt>
      <trkpt lat="59.7898913" lon="17.6254532">
        <ele>0</ele>
        <time>2013-05-26T11:32:50Z</time>
      </trkpt>
      <trkpt lat="59.7899464" lon="17.6253906">
        <ele>0</ele>
        <time>2013-05-26T11:32:51Z</time>
      </trkpt>
      <trkpt lat="59.7900033" lon="17.625329">
        <ele>0</ele>
        <time>2013-05-26T11:32:52Z</time>
      </trkpt>
      <trkpt lat="59.7900619" lon="17.6252672">
        <ele>0</ele>
        <time>2013-05-26T11:32:53Z</time>
      </trkpt>
      <trkpt lat="59.7901208" lon="17.6252015">
        <ele>0</ele>
        <time>2013-05-26T11:32:54Z</time>
      </trkpt>
      <trkpt lat="59.790181" lon="17.6251348">
        <ele>0</ele>
        <time>2013-05-26T11:32:55Z</time>
      </trkpt>
      <trkpt lat="59.790242" lon="17.625065">
        <ele>0</ele>
        <time>2013-05-26T11:32:56Z</time>
      </trkpt>
      <trkpt lat="59.7903034" lon="17.6249959">
        <ele>0</ele>
        <time>2013-05-26T11:32:57Z</time>
      </trkpt>
      <trkpt lat="59.7903662" lon="17.6249294">
        <ele>0</ele>
        <time>2013-05-26T11:32:58Z</time>
      </trkpt>
      <trkpt lat="59.7904318" lon="17.6248641">
        <ele>0</ele>
        <time>2013-05-26T11:32:59Z</time>
      </trkpt>
      <trkpt lat="59.790497" lon="17.6247979">
        <ele>0</ele>
        <time>2013-05-26T11:33:00Z</time>
      </trkpt>
      <trkpt lat="59.7905621" lon="17.6247317">
        <ele>0</ele>
        <time>2013-05-26T11:33:01Z</time>
      </trkpt>
      <trkpt lat="59.790627" lon="17.6246662">
        <ele>0</ele>
        <time>2013-05-26T11:33:02Z</time>
      </trkpt>
      <trkpt lat="59.7906911" lon="17.6246006">
        <ele>0</ele>
        <time>2013-05-26T11:33:03Z</time>
      </trkpt>
      <trkpt lat="59.7907566" lon="17.6245349">
        <ele>0</ele>
        <time>2013-05-26T11:33:04Z</time>
      </trkpt>
      <trkpt lat="59.7908217" lon="17.6244686">
        <ele>0</ele>
        <time>2013-05-26T11:33:05Z</time>
      </trkpt>
      <trkpt lat="59.7908863" lon="17.6244005">
        <ele>0</ele>
        <time>2013-05-26T11:33:06Z</time>
      </trkpt>
      <trkpt lat="59.7909501" lon="17.6243303">
        <ele>0.618042</ele>
        <time>2013-05-26T11:33:07Z</time>
      </trkpt>
      <trkpt lat="59.7910122" lon="17.6242613">
        <ele>0.618042</ele>
        <time>2013-05-26T11:33:08Z</time>
      </trkpt>
      <trkpt lat="59.7910723" lon="17.6241913">
        <ele>1.09863</ele>
        <time>2013-05-26T11:33:09Z</time>
      </trkpt>
      <trkpt lat="59.7911326" lon="17.6241212">
        <ele>1.57935</ele>
        <time>2013-05-26T11:33:10Z</time>
      </trkpt>
      <trkpt lat="59.7911935" lon="17.6240519">
        <ele>1.57935</ele>
        <time>2013-05-26T11:33:11Z</time>
      </trkpt>
      <trkpt lat="59.7912538" lon="17.6239825">
        <ele>2.06006</ele>
        <time>2013-05-26T11:33:12Z</time>
      </trkpt>
      <trkpt lat="59.7913128" lon="17.6239122">
        <ele>2.06006</ele>
        <time>2013-05-26T11:33:13Z</time>
      </trkpt>
      <trkpt lat="59.7913712" lon="17.6238486">
        <ele>1.57935</ele>
        <time>2013-05-26T11:33:14Z</time>
      </trkpt>
      <trkpt lat="59.7914294" lon="17.6237869">
        <ele>1.57935</ele>
        <time>2013-05-26T11:33:15Z</time>
      </trkpt>
      <trkpt lat="59.791489" lon="17.623726">
        <ele>1.09863</ele>
        <time>2013-05-26T11:33:16Z</time>
      </trkpt>
      <trkpt lat="59.7915517" lon="17.6236675">
        <ele>1.57935</ele>
        <time>2013-05-26T11:33:17Z</time>
      </trkpt>
      <trkpt lat="59.7916139" lon="17.6236117">
        <ele>2.06006</ele>
        <time>2013-05-26T11:33:18Z</time>
      </trkpt>
      <trkpt lat="59.7916755" lon="17.6235546">
        <ele>2.54065</ele>
        <time>2013-05-26T11:33:19Z</time>
      </trkpt>
      <trkpt lat="59.7917369" lon="17.6234931">
        <ele>3.02124</ele>
        <time>2013-05-26T11:33:20Z</time>
      </trkpt>
      <trkpt lat="59.7917977" lon="17.6234324">
        <ele>3.02124</ele>
        <time>2013-05-26T11:33:21Z</time>
      </trkpt>
      <trkpt lat="59.7918576" lon="17.6233698">
        <ele>3.50195</ele>
        <time>2013-05-26T11:33:22Z</time>
      </trkpt>
      <trkpt lat="59.7919151" lon="17.6233061">
        <ele>3.98267</ele>
        <time>2013-05-26T11:33:23Z</time>
      </trkpt>
      <trkpt lat="59.7919718" lon="17.6232455">
        <ele>3.98267</ele>
        <time>2013-05-26T11:33:24Z</time>
      </trkpt>
      <trkpt lat="59.7920285" lon="17.6231849">
        <ele>4.46326</ele>
        <time>2013-05-26T11:33:25Z</time>
      </trkpt>
      <trkpt lat="59.7920842" lon="17.6231244">
        <ele>4.46326</ele>
        <time>2013-05-26T11:33:26Z</time>
      </trkpt>
      <trkpt lat="59.7921411" lon="17.6230661">
        <ele>4.94385</ele>
        <time>2013-05-26T11:33:27Z</time>
      </trkpt>
      <trkpt lat="59.7921974" lon="17.6230067">
        <ele>4.94385</ele>
        <time>2013-05-26T11:33:28Z</time>
      </trkpt>
      <trkpt lat="59.792253" lon="17.6229471">
        <ele>5.42456</ele>
        <time>2013-05-26T11:33:29Z</time>
      </trkpt>
      <trkpt lat="59.792308" lon="17.6228873">
        <ele>5.42456</ele>
        <time>2013-05-26T11:33:30Z</time>
      </trkpt>
      <trkpt lat="59.7923599" lon="17.6228272">
        <ele>5.90527</ele>
        <time>2013-05-26T11:33:31Z</time>
      </trkpt>
      <trkpt lat="59.7924113" lon="17.6227703">
        <ele>5.90527</ele>
        <time>2013-05-26T11:33:32Z</time>
      </trkpt>
      <trkpt lat="59.7924631" lon="17.6227151">
        <ele>5.90527</ele>
        <time>2013-05-26T11:33:33Z</time>
      </trkpt>
      <trkpt lat="59.7925162" lon="17.6226596">
        <ele>5.90527</ele>
        <time>2013-05-26T11:33:34Z</time>
      </trkpt>
      <trkpt lat="59.7925715" lon="17.622603">
        <ele>6.38586</ele>
        <time>2013-05-26T11:33:35Z</time>
      </trkpt>
      <trkpt lat="59.7926279" lon="17.622546">
        <ele>7.34717</ele>
        <time>2013-05-26T11:33:36Z</time>
      </trkpt>
      <trkpt lat="59.792683" lon="17.6224861">
        <ele>7.34717</ele>
        <time>2013-05-26T11:33:37Z</time>
      </trkpt>
      <trkpt lat="59.7927378" lon="17.6224229">
        <ele>7.82788</ele>
        <time>2013-05-26T11:33:38Z</time>
      </trkpt>
      <trkpt lat="59.792791" lon="17.6223659">
        <ele>7.82788</ele>
        <time>2013-05-26T11:33:39Z</time>
      </trkpt>
      <trkpt lat="59.7928421" lon="17.6223069">
        <ele>7.82788</ele>
        <time>2013-05-26T11:33:40Z</time>
      </trkpt>
      <trkpt lat="59.7928933" lon="17.6222488">
        <ele>8.30859</ele>
        <time>2013-05-26T11:33:41Z</time>
      </trkpt>
      <trkpt lat="59.7929429" lon="17.6221901">
        <ele>8.30859</ele>
        <time>2013-05-26T11:33:42Z</time>
      </trkpt>
      <trkpt lat="59.7929917" lon="17.6221297">
        <ele>8.78918</ele>
        <time>2013-05-26T11:33:43Z</time>
      </trkpt>
      <trkpt lat="59.7930395" lon="17.6220699">
        <ele>8.78918</ele>
        <time>2013-05-26T11:33:44Z</time>
      </trkpt>
      <trkpt lat="59.7930882" lon="17.6220182">
        <ele>8.78918</ele>
        <time>2013-05-26T11:33:45Z</time>
      </trkpt>
      <trkpt lat="59.7931371" lon="17.6219691">
        <ele>8.78918</ele>
        <time>2013-05-26T11:33:46Z</time>
      </trkpt>
      <trkpt lat="59.7931881" lon="17.621924">
        <ele>8.78918</ele>
        <time>2013-05-26T11:33:47Z</time>
      </trkpt>
      <trkpt lat="59.7932376" lon="17.6218732">
        <ele>9.2699</ele>
        <time>2013-05-26T11:33:48Z</time>
      </trkpt>
      <trkpt lat="59.7932848" lon="17.6218189">
        <ele>8.78918</ele>
        <time>2013-05-26T11:33:49Z</time>
      </trkpt>
      <trkpt lat="59.7933341" lon="17.6217681">
        <ele>9.2699</ele>
        <time>2013-05-26T11:33:50Z</time>
      </trkpt>
      <trkpt lat="59.7933842" lon="17.6217221">
        <ele>9.2699</ele>
        <time>2013-05-26T11:33:51Z</time>
      </trkpt>
      <trkpt lat="59.793434" lon="17.6216695">
        <ele>10.2312</ele>
        <time>2013-05-26T11:33:52Z</time>
      </trkpt>
      <trkpt lat="59.7934827" lon="17.6216151">
        <ele>10.7118</ele>
        <time>2013-05-26T11:33:53Z</time>
      </trkpt>
      <trkpt lat="59.7935304" lon="17.6215553">
        <ele>10.7118</ele>
        <time>2013-05-26T11:33:54Z</time>
      </trkpt>
      <trkpt lat="59.7935785" lon="17.621506">
        <ele>11.6732</ele>
        <time>2013-05-26T11:33:55Z</time>
      </trkpt>
      <trkpt lat="59.7936272" lon="17.6214537">
        <ele>11.6732</ele>
        <time>2013-05-26T11:33:56Z</time>
      </trkpt>
      <trkpt lat="59.7936766" lon="17.6214029">
        <ele>12.1538</ele>
        <time>2013-05-26T11:33:57Z</time>
      </trkpt>
      <trkpt lat="59.7937268" lon="17.6213519">
        <ele>12.6344</ele>
        <time>2013-05-26T11:33:58Z</time>
      </trkpt>
      <trkpt lat="59.7937758" lon="17.6212993">
        <ele>13.1151</ele>
        <time>2013-05-26T11:33:59Z</time>
      </trkpt>
      <trkpt lat="59.7938245" lon="17.6212458">
        <ele>13.1151</ele>
        <time>2013-05-26T11:34:00Z</time>
      </trkpt>
      <trkpt lat="59.7938745" lon="17.6211999">
        <ele>13.5958</ele>
        <time>2013-05-26T11:34:01Z</time>
      </trkpt>
      <trkpt lat="59.7939248" lon="17.6211569">
        <ele>13.5958</ele>
        <time>2013-05-26T11:34:02Z</time>
      </trkpt>
      <trkpt lat="59.7939749" lon="17.6211152">
        <ele>14.0764</ele>
        <time>2013-05-26T11:34:03Z</time>
      </trkpt>
      <trkpt lat="59.7940267" lon="17.621074">
        <ele>14.0764</ele>
        <time>2013-05-26T11:34:04Z</time>
      </trkpt>
      <trkpt lat="59.7940771" lon="17.6210294">
        <ele>14.0764</ele>
        <time>2013-05-26T11:34:05Z</time>
      </trkpt>
      <trkpt lat="59.7941277" lon="17.6209795">
        <ele>14.557</ele>
        <time>2013-05-26T11:34:06Z</time>
      </trkpt>
      <trkpt lat="59.7941791" lon="17.6209279">
        <ele>14.557</ele>
        <time>2013-05-26T11:34:07Z</time>
      </trkpt>
      <trkpt lat="59.7942311" lon="17.6208762">
        <ele>14.557</ele>
        <time>2013-05-26T11:34:08Z</time>
      </trkpt>
      <trkpt lat="59.7942832" lon="17.6208248">
        <ele>14.557</ele>
        <time>2013-05-26T11:34:09Z</time>
      </trkpt>
      <trkpt lat="59.7943361" lon="17.6207734">
        <ele>15.0377</ele>
        <time>2013-05-26T11:34:10Z</time>
      </trkpt>
      <trkpt lat="59.7943881" lon="17.6207227">
        <ele>14.557</ele>
        <time>2013-05-26T11:34:11Z</time>
      </trkpt>
      <trkpt lat="59.794439" lon="17.6206721">
        <ele>14.0764</ele>
        <time>2013-05-26T11:34:12Z</time>
      </trkpt>
      <trkpt lat="59.7944912" lon="17.6206219">
        <ele>14.0764</ele>
        <time>2013-05-26T11:34:13Z</time>
      </trkpt>
      <trkpt lat="59.7945437" lon="17.620575">
        <ele>14.0764</ele>
        <time>2013-05-26T11:34:14Z</time>
      </trkpt>
      <trkpt lat="59.7945964" lon="17.6205285">
        <ele>13.5958</ele>
        <time>2013-05-26T11:34:15Z</time>
      </trkpt>
      <trkpt lat="59.7946471" lon="17.6204807">
        <ele>13.5958</ele>
        <time>2013-05-26T11:34:16Z</time>
      </trkpt>
      <trkpt lat="59.7946986" lon="17.6204315">
        <ele>13.5958</ele>
        <time>2013-05-26T11:34:17Z</time>
      </trkpt>
      <trkpt lat="59.7947488" lon="17.6203809">
        <ele>13.5958</ele>
        <time>2013-05-26T11:34:18Z</time>
      </trkpt>
      <trkpt lat="59.7947996" lon="17.6203309">
        <ele>13.5958</ele>
        <time>2013-05-26T11:34:19Z</time>
      </trkpt>
      <trkpt lat="59.7948491" lon="17.6202865">
        <ele>13.5958</ele>
        <time>2013-05-26T11:34:20Z</time>
      </trkpt>
      <trkpt lat="59.7949014" lon="17.6202444">
        <ele>13.5958</ele>
        <time>2013-05-26T11:34:21Z</time>
      </trkpt>
      <trkpt lat="59.7949528" lon="17.620199">
        <ele>13.5958</ele>
        <time>2013-05-26T11:34:22Z</time>
      </trkpt>
      <trkpt lat="59.7950052" lon="17.6201565">
        <ele>13.5958</ele>
        <time>2013-05-26T11:34:23Z</time>
      </trkpt>
      <trkpt lat="59.7950591" lon="17.6201196">
        <ele>13.5958</ele>
        <time>2013-05-26T11:34:24Z</time>
      </trkpt>
      <trkpt lat="59.7951151" lon="17.6200811">
        <ele>13.5958</ele>
        <time>2013-05-26T11:34:25Z</time>
      </trkpt>
      <trkpt lat="59.795173" lon="17.6200363">
        <ele>13.1151</ele>
        <time>2013-05-26T11:34:26Z</time>
      </trkpt>
      <trkpt lat="59.7952364" lon="17.6199804">
        <ele>13.1151</ele>
        <time>2013-05-26T11:34:27Z</time>
      </trkpt>
      <trkpt lat="59.7953006" lon="17.6199209">
        <ele>13.1151</ele>
        <time>2013-05-26T11:34:28Z</time>
      </trkpt>
      <trkpt lat="59.7953633" lon="17.6198598">
        <ele>13.1151</ele>
        <time>2013-05-26T11:34:29Z</time>
      </trkpt>
      <trkpt lat="59.7954237" lon="17.6197981">
        <ele>13.1151</ele>
        <time>2013-05-26T11:34:30Z</time>
      </trkpt>
      <trkpt lat="59.7954847" lon="17.6197332">
        <ele>13.1151</ele>
        <time>2013-05-26T11:34:31Z</time>
      </trkpt>
      <trkpt lat="59.7955459" lon="17.6196685">
        <ele>13.1151</ele>
        <time>2013-05-26T11:34:32Z</time>
      </trkpt>
      <trkpt lat="59.7956077" lon="17.6196038">
        <ele>13.1151</ele>
        <time>2013-05-26T11:34:33Z</time>
      </trkpt>
      <trkpt lat="59.7956666" lon="17.6195459">
        <ele>12.6344</ele>
        <time>2013-05-26T11:34:34Z</time>
      </trkpt>
      <trkpt lat="59.7957295" lon="17.6194941">
        <ele>12.6344</ele>
        <time>2013-05-26T11:34:35Z</time>
      </trkpt>
      <trkpt lat="59.795792" lon="17.6194417">
        <ele>12.6344</ele>
        <time>2013-05-26T11:34:36Z</time>
      </trkpt>
      <trkpt lat="59.7958513" lon="17.6193875">
        <ele>13.1151</ele>
        <time>2013-05-26T11:34:37Z</time>
      </trkpt>
      <trkpt lat="59.795917" lon="17.6193362">
        <ele>14.0764</ele>
        <time>2013-05-26T11:34:38Z</time>
      </trkpt>
      <trkpt lat="59.7959792" lon="17.6192823">
        <ele>14.557</ele>
        <time>2013-05-26T11:34:39Z</time>
      </trkpt>
      <trkpt lat="59.7960359" lon="17.6192262">
        <ele>14.557</ele>
        <time>2013-05-26T11:34:40Z</time>
      </trkpt>
      <trkpt lat="59.796093" lon="17.6191737">
        <ele>14.557</ele>
        <time>2013-05-26T11:34:41Z</time>
      </trkpt>
      <trkpt lat="59.7961506" lon="17.6191215">
        <ele>14.0764</ele>
        <time>2013-05-26T11:34:42Z</time>
      </trkpt>
      <trkpt lat="59.7962096" lon="17.619068">
        <ele>14.0764</ele>
        <time>2013-05-26T11:34:43Z</time>
      </trkpt>
      <trkpt lat="59.7962676" lon="17.6190134">
        <ele>14.0764</ele>
        <time>2013-05-26T11:34:44Z</time>
      </trkpt>
      <trkpt lat="59.7963237" lon="17.6189609">
        <ele>14.0764</ele>
        <time>2013-05-26T11:34:45Z</time>
      </trkpt>
      <trkpt lat="59.7963785" lon="17.6189104">
        <ele>13.5958</ele>
        <time>2013-05-26T11:34:46Z</time>
      </trkpt>
      <trkpt lat="59.7964353" lon="17.6188585">
        <ele>13.5958</ele>
        <time>2013-05-26T11:34:47Z</time>
      </trkpt>
      <trkpt lat="59.796493" lon="17.6188054">
        <ele>13.5958</ele>
        <time>2013-05-26T11:34:48Z</time>
      </trkpt>
      <trkpt lat="59.7965521" lon="17.6187491">
        <ele>13.1151</ele>
        <time>2013-05-26T11:34:49Z</time>
      </trkpt>
      <trkpt lat="59.7966126" lon="17.6186915">
        <ele>13.1151</ele>
        <time>2013-05-26T11:34:50Z</time>
      </trkpt>
      <trkpt lat="59.7966738" lon="17.6186362">
        <ele>13.1151</ele>
        <time>2013-05-26T11:34:51Z</time>
      </trkpt>
      <trkpt lat="59.7967354" lon="17.6185814">
        <ele>13.1151</ele>
        <time>2013-05-26T11:34:52Z</time>
      </trkpt>
      <trkpt lat="59.7967969" lon="17.6185252">
        <ele>13.1151</ele>
        <time>2013-05-26T11:34:53Z</time>
      </trkpt>
      <trkpt lat="59.7968581" lon="17.6184693">
        <ele>13.1151</ele>
        <time>2013-05-26T11:34:54Z</time>
      </trkpt>
      <trkpt lat="59.7969198" lon="17.6184139">
        <ele>12.6344</ele>
        <time>2013-05-26T11:34:55Z</time>
      </trkpt>
      <trkpt lat="59.7969818" lon="17.6183561">
        <ele>12.6344</ele>
        <time>2013-05-26T11:34:56Z</time>
      </trkpt>
      <trkpt lat="59.7970445" lon="17.6182984">
        <ele>13.1151</ele>
        <time>2013-05-26T11:34:57Z</time>
      </trkpt>
      <trkpt lat="59.7971073" lon="17.6182394">
        <ele>13.1151</ele>
        <time>2013-05-26T11:34:58Z</time>
      </trkpt>
      <trkpt lat="59.7971695" lon="17.6181809">
        <ele>13.1151</ele>
        <time>2013-05-26T11:34:59Z</time>
      </trkpt>
      <trkpt lat="59.7972322" lon="17.6181222">
        <ele>13.5958</ele>
        <time>2013-05-26T11:35:00Z</time>
      </trkpt>
      <trkpt lat="59.7972951" lon="17.6180647">
        <ele>13.5958</ele>
        <time>2013-05-26T11:35:01Z</time>
      </trkpt>
      <trkpt lat="59.7973576" lon="17.6180048">
        <ele>14.0764</ele>
        <time>2013-05-26T11:35:02Z</time>
      </trkpt>
      <trkpt lat="59.797419" lon="17.617943">
        <ele>14.0764</ele>
        <time>2013-05-26T11:35:03Z</time>
      </trkpt>
      <trkpt lat="59.7974797" lon="17.617881">
        <ele>14.0764</ele>
        <time>2013-05-26T11:35:04Z</time>
      </trkpt>
      <trkpt lat="59.7975415" lon="17.6178266">
        <ele>14.557</ele>
        <time>2013-05-26T11:35:05Z</time>
      </trkpt>
      <trkpt lat="59.7976037" lon="17.6177735">
        <ele>14.557</ele>
        <time>2013-05-26T11:35:06Z</time>
      </trkpt>
      <trkpt lat="59.7976652" lon="17.6177173">
        <ele>14.557</ele>
        <time>2013-05-26T11:35:07Z</time>
      </trkpt>
      <trkpt lat="59.7977275" lon="17.6176602">
        <ele>14.557</ele>
        <time>2013-05-26T11:35:08Z</time>
      </trkpt>
      <trkpt lat="59.7977898" lon="17.6175988">
        <ele>14.557</ele>
        <time>2013-05-26T11:35:09Z</time>
      </trkpt>
      <trkpt lat="59.7978523" lon="17.6175373">
        <ele>14.557</ele>
        <time>2013-05-26T11:35:10Z</time>
      </trkpt>
      <trkpt lat="59.7979155" lon="17.6174743">
        <ele>14.0764</ele>
        <time>2013-05-26T11:35:11Z</time>
      </trkpt>
      <trkpt lat="59.7979796" lon="17.6174127">
        <ele>14.0764</ele>
        <time>2013-05-26T11:35:12Z</time>
      </trkpt>
      <trkpt lat="59.7980438" lon="17.6173539">
        <ele>14.0764</ele>
        <time>2013-05-26T11:35:13Z</time>
      </trkpt>
      <trkpt lat="59.7981089" lon="17.6172975">
        <ele>14.0764</ele>
        <time>2013-05-26T11:35:14Z</time>
      </trkpt>
      <trkpt lat="59.7981728" lon="17.6172392">
        <ele>14.0764</ele>
        <time>2013-05-26T11:35:15Z</time>
      </trkpt>
      <trkpt lat="59.7982328" lon="17.6171805">
        <ele>13.5958</ele>
        <time>2013-05-26T11:35:16Z</time>
      </trkpt>
      <trkpt lat="59.7982931" lon="17.6171251">
        <ele>13.1151</ele>
        <time>2013-05-26T11:35:17Z</time>
      </trkpt>
      <trkpt lat="59.7983555" lon="17.6170702">
        <ele>13.5958</ele>
        <time>2013-05-26T11:35:18Z</time>
      </trkpt>
      <trkpt lat="59.7984179" lon="17.6170142">
        <ele>13.5958</ele>
        <time>2013-05-26T11:35:19Z</time>
      </trkpt>
      <trkpt lat="59.7984821" lon="17.6169575">
        <ele>14.557</ele>
        <time>2013-05-26T11:35:20Z</time>
      </trkpt>
      <trkpt lat="59.7985443" lon="17.6168997">
        <ele>14.557</ele>
        <time>2013-05-26T11:35:21Z</time>
      </trkpt>
      <trkpt lat="59.7986059" lon="17.6168438">
        <ele>15.0377</ele>
        <time>2013-05-26T11:35:22Z</time>
      </trkpt>
      <trkpt lat="59.7986658" lon="17.6167932">
        <ele>15.0377</ele>
        <time>2013-05-26T11:35:23Z</time>
      </trkpt>
      <trkpt lat="59.7987282" lon="17.6167388">
        <ele>15.5184</ele>
        <time>2013-05-26T11:35:24Z</time>
      </trkpt>
      <trkpt lat="59.7987892" lon="17.6166831">
        <ele>15.999</ele>
        <time>2013-05-26T11:35:25Z</time>
      </trkpt>
      <trkpt lat="59.7988437" lon="17.6166287">
        <ele>16.4797</ele>
        <time>2013-05-26T11:35:26Z</time>
      </trkpt>
      <trkpt lat="59.7988956" lon="17.6165767">
        <ele>16.9604</ele>
        <time>2013-05-26T11:35:27Z</time>
      </trkpt>
      <trkpt lat="59.7989499" lon="17.6165253">
        <ele>16.9604</ele>
        <time>2013-05-26T11:35:28Z</time>
      </trkpt>
      <trkpt lat="59.7990054" lon="17.6164715">
        <ele>17.4412</ele>
        <time>2013-05-26T11:35:29Z</time>
      </trkpt>
      <trkpt lat="59.7990638" lon="17.616416">
        <ele>17.4412</ele>
        <time>2013-05-26T11:35:30Z</time>
      </trkpt>
      <trkpt lat="59.7991213" lon="17.6163684">
        <ele>16.9604</ele>
        <time>2013-05-26T11:35:31Z</time>
      </trkpt>
      <trkpt lat="59.7991819" lon="17.6163212">
        <ele>16.4797</ele>
        <time>2013-05-26T11:35:32Z</time>
      </trkpt>
      <trkpt lat="59.7992403" lon="17.6162569">
        <ele>15.999</ele>
        <time>2013-05-26T11:35:33Z</time>
      </trkpt>
      <trkpt lat="59.7992938" lon="17.6161798">
        <ele>15.5184</ele>
        <time>2013-05-26T11:35:34Z</time>
      </trkpt>
      <trkpt lat="59.7993483" lon="17.6160969">
        <ele>15.5184</ele>
        <time>2013-05-26T11:35:35Z</time>
      </trkpt>
      <trkpt lat="59.7994043" lon="17.6160151">
        <ele>15.0377</ele>
        <time>2013-05-26T11:35:36Z</time>
      </trkpt>
      <trkpt lat="59.7994627" lon="17.6159341">
        <ele>15.5184</ele>
        <time>2013-05-26T11:35:37Z</time>
      </trkpt>
      <trkpt lat="59.7995145" lon="17.6158468">
        <ele>15.5184</ele>
        <time>2013-05-26T11:35:38Z</time>
      </trkpt>
      <trkpt lat="59.7995651" lon="17.6157606">
        <ele>15.5184</ele>
        <time>2013-05-26T11:35:39Z</time>
      </trkpt>
      <trkpt lat="59.799612" lon="17.6156758">
        <ele>15.5184</ele>
        <time>2013-05-26T11:35:40Z</time>
      </trkpt>
      <trkpt lat="59.7996579" lon="17.6155903">
        <ele>15.0377</ele>
        <time>2013-05-26T11:35:41Z</time>
      </trkpt>
      <trkpt lat="59.7997023" lon="17.6155013">
        <ele>14.557</ele>
        <time>2013-05-26T11:35:42Z</time>
      </trkpt>
      <trkpt lat="59.799749" lon="17.6154054">
        <ele>15.0377</ele>
        <time>2013-05-26T11:35:43Z</time>
      </trkpt>
      <trkpt lat="59.7997963" lon="17.6153033">
        <ele>15.5184</ele>
        <time>2013-05-26T11:35:44Z</time>
      </trkpt>
      <trkpt lat="59.7998471" lon="17.6152059">
        <ele>16.4797</ele>
        <time>2013-05-26T11:35:45Z</time>
      </trkpt>
      <trkpt lat="59.7998981" lon="17.6151029">
        <ele>16.9604</ele>
        <time>2013-05-26T11:35:46Z</time>
      </trkpt>
      <trkpt lat="59.7999461" lon="17.6149936">
        <ele>16.9604</ele>
        <time>2013-05-26T11:35:47Z</time>
      </trkpt>
      <trkpt lat="59.7999922" lon="17.6148746">
        <ele>16.9604</ele>
        <time>2013-05-26T11:35:48Z</time>
      </trkpt>
      <trkpt lat="59.8000423" lon="17.6147496">
        <ele>17.9218</ele>
        <time>2013-05-26T11:35:49Z</time>
      </trkpt>
      <trkpt lat="59.8000885" lon="17.614615">
        <ele>17.9218</ele>
        <time>2013-05-26T11:35:50Z</time>
      </trkpt>
      <trkpt lat="59.800132" lon="17.6144725">
        <ele>17.4412</ele>
        <time>2013-05-26T11:35:51Z</time>
      </trkpt>
      <trkpt lat="59.8001754" lon="17.6143274">
        <ele>17.4412</ele>
        <time>2013-05-26T11:35:52Z</time>
      </trkpt>
      <trkpt lat="59.8002162" lon="17.614173">
        <ele>17.4412</ele>
        <time>2013-05-26T11:35:53Z</time>
      </trkpt>
      <trkpt lat="59.8002572" lon="17.6140183">
        <ele>17.9218</ele>
        <time>2013-05-26T11:35:54Z</time>
      </trkpt>
      <trkpt lat="59.8002946" lon="17.6138626">
        <ele>17.9218</ele>
        <time>2013-05-26T11:35:55Z</time>
      </trkpt>
      <trkpt lat="59.8003314" lon="17.6137062">
        <ele>17.9218</ele>
        <time>2013-05-26T11:35:56Z</time>
      </trkpt>
      <trkpt lat="59.8003666" lon="17.6135457">
        <ele>17.4412</ele>
        <time>2013-05-26T11:35:57Z</time>
      </trkpt>
      <trkpt lat="59.8003987" lon="17.6133742">
        <ele>17.4412</ele>
        <time>2013-05-26T11:35:58Z</time>
      </trkpt>
      <trkpt lat="59.8004291" lon="17.6131971">
        <ele>17.4412</ele>
        <time>2013-05-26T11:35:59Z</time>
      </trkpt>
      <trkpt lat="59.8004638" lon="17.6130205">
        <ele>17.4412</ele>
        <time>2013-05-26T11:36:00Z</time>
      </trkpt>
      <trkpt lat="59.8005019" lon="17.6128463">
        <ele>17.4412</ele>
        <time>2013-05-26T11:36:01Z</time>
      </trkpt>
      <trkpt lat="59.800542" lon="17.6126777">
        <ele>16.9604</ele>
        <time>2013-05-26T11:36:02Z</time>
      </trkpt>
      <trkpt lat="59.8005843" lon="17.6124983">
        <ele>17.4412</ele>
        <time>2013-05-26T11:36:03Z</time>
      </trkpt>
      <trkpt lat="59.8006239" lon="17.6123094">
        <ele>17.4412</ele>
        <time>2013-05-26T11:36:04Z</time>
      </trkpt>
      <trkpt lat="59.8006613" lon="17.6121269">
        <ele>16.9604</ele>
        <time>2013-05-26T11:36:05Z</time>
      </trkpt>
      <trkpt lat="59.8006997" lon="17.611943">
        <ele>16.4797</ele>
        <time>2013-05-26T11:36:06Z</time>
      </trkpt>
      <trkpt lat="59.8007392" lon="17.6117509">
        <ele>15.999</ele>
        <time>2013-05-26T11:36:07Z</time>
      </trkpt>
      <trkpt lat="59.8007798" lon="17.6115442">
        <ele>15.5184</ele>
        <time>2013-05-26T11:36:08Z</time>
      </trkpt>
      <trkpt lat="59.8008176" lon="17.6113302">
        <ele>15.0377</ele>
        <time>2013-05-26T11:36:09Z</time>
      </trkpt>
      <trkpt lat="59.8008561" lon="17.6111158">
        <ele>15.0377</ele>
        <time>2013-05-26T11:36:10Z</time>
      </trkpt>
      <trkpt lat="59.800897" lon="17.6109043">
        <ele>15.999</ele>
        <time>2013-05-26T11:36:11Z</time>
      </trkpt>
      <trkpt lat="59.8009378" lon="17.6106952">
        <ele>16.4797</ele>
        <time>2013-05-26T11:36:12Z</time>
      </trkpt>
      <trkpt lat="59.8009768" lon="17.6104895">
        <ele>15.999</ele>
        <time>2013-05-26T11:36:13Z</time>
      </trkpt>
      <trkpt lat="59.8010155" lon="17.6102868">
        <ele>15.999</ele>
        <time>2013-05-26T11:36:14Z</time>
      </trkpt>
      <trkpt lat="59.8010566" lon="17.6100917">
        <ele>15.999</ele>
        <time>2013-05-26T11:36:15Z</time>
      </trkpt>
      <trkpt lat="59.8011008" lon="17.6099062">
        <ele>15.999</ele>
        <time>2013-05-26T11:36:16Z</time>
      </trkpt>
      <trkpt lat="59.8011467" lon="17.6097242">
        <ele>16.4797</ele>
        <time>2013-05-26T11:36:17Z</time>
      </trkpt>
      <trkpt lat="59.8011892" lon="17.6095507">
        <ele>15.0377</ele>
        <time>2013-05-26T11:36:18Z</time>
      </trkpt>
      <trkpt lat="59.8012358" lon="17.6093873">
        <ele>14.0764</ele>
        <time>2013-05-26T11:36:19Z</time>
      </trkpt>
      <trkpt lat="59.8012826" lon="17.6092337">
        <ele>13.1151</ele>
        <time>2013-05-26T11:36:20Z</time>
      </trkpt>
      <trkpt lat="59.8013348" lon="17.6090945">
        <ele>12.6344</ele>
        <time>2013-05-26T11:36:21Z</time>
      </trkpt>
      <trkpt lat="59.8013866" lon="17.6089567">
        <ele>12.6344</ele>
        <time>2013-05-26T11:36:22Z</time>
      </trkpt>
      <trkpt lat="59.8014287" lon="17.6088153">
        <ele>11.6732</ele>
        <time>2013-05-26T11:36:23Z</time>
      </trkpt>
      <trkpt lat="59.8014766" lon="17.6086914">
        <ele>11.1925</ele>
        <time>2013-05-26T11:36:24Z</time>
      </trkpt>
      <trkpt lat="59.8015233" lon="17.608569">
        <ele>10.2312</ele>
        <time>2013-05-26T11:36:25Z</time>
      </trkpt>
      <trkpt lat="59.8015784" lon="17.6084568">
        <ele>9.75061</ele>
        <time>2013-05-26T11:36:26Z</time>
      </trkpt>
      <trkpt lat="59.8016332" lon="17.6083468">
        <ele>9.75061</ele>
        <time>2013-05-26T11:36:27Z</time>
      </trkpt>
      <trkpt lat="59.8016894" lon="17.6082408">
        <ele>9.75061</ele>
        <time>2013-05-26T11:36:28Z</time>
      </trkpt>
      <trkpt lat="59.8017492" lon="17.6081476">
        <ele>9.2699</ele>
        <time>2013-05-26T11:36:29Z</time>
      </trkpt>
      <trkpt lat="59.8018082" lon="17.6080463">
        <ele>9.2699</ele>
        <time>2013-05-26T11:36:30Z</time>
      </trkpt>
      <trkpt lat="59.8018716" lon="17.6079488">
        <ele>9.2699</ele>
        <time>2013-05-26T11:36:31Z</time>
      </trkpt>
      <trkpt lat="59.8019387" lon="17.6078562">
        <ele>9.2699</ele>
        <time>2013-05-26T11:36:32Z</time>
      </trkpt>
      <trkpt lat="59.8020005" lon="17.6077565">
        <ele>9.2699</ele>
        <time>2013-05-26T11:36:33Z</time>
      </trkpt>
      <trkpt lat="59.8020676" lon="17.6076621">
        <ele>9.75061</ele>
        <time>2013-05-26T11:36:34Z</time>
      </trkpt>
      <trkpt lat="59.8021325" lon="17.6075648">
        <ele>9.75061</ele>
        <time>2013-05-26T11:36:35Z</time>
      </trkpt>
      <trkpt lat="59.8021967" lon="17.6074634">
        <ele>9.2699</ele>
        <time>2013-05-26T11:36:36Z</time>
      </trkpt>
      <trkpt lat="59.802262" lon="17.607358">
        <ele>8.78918</ele>
        <time>2013-05-26T11:36:37Z</time>
      </trkpt>
      <trkpt lat="59.8023263" lon="17.6072481">
        <ele>8.30859</ele>
        <time>2013-05-26T11:36:38Z</time>
      </trkpt>
      <trkpt lat="59.8023921" lon="17.607138">
        <ele>8.30859</ele>
        <time>2013-05-26T11:36:39Z</time>
      </trkpt>
      <trkpt lat="59.8024608" lon="17.6070267">
        <ele>8.30859</ele>
        <time>2013-05-26T11:36:40Z</time>
      </trkpt>
      <trkpt lat="59.8025293" lon="17.6069152">
        <ele>7.82788</ele>
        <time>2013-05-26T11:36:41Z</time>
      </trkpt>
      <trkpt lat="59.8026007" lon="17.6068038">
        <ele>7.82788</ele>
        <time>2013-05-26T11:36:42Z</time>
      </trkpt>
      <trkpt lat="59.8026723" lon="17.6066895">
        <ele>7.34717</ele>
        <time>2013-05-26T11:36:43Z</time>
      </trkpt>
      <trkpt lat="59.8027406" lon="17.6065676">
        <ele>7.34717</ele>
        <time>2013-05-26T11:36:44Z</time>
      </trkpt>
      <trkpt lat="59.802805" lon="17.6064426">
        <ele>6.86646</ele>
        <time>2013-05-26T11:36:45Z</time>
      </trkpt>
      <trkpt lat="59.802871" lon="17.6063314">
        <ele>5.90527</ele>
        <time>2013-05-26T11:36:46Z</time>
      </trkpt>
      <trkpt lat="59.8029396" lon="17.6062252">
        <ele>5.90527</ele>
        <time>2013-05-26T11:36:47Z</time>
      </trkpt>
      <trkpt lat="59.8030103" lon="17.6061294">
        <ele>5.90527</ele>
        <time>2013-05-26T11:36:48Z</time>
      </trkpt>
      <trkpt lat="59.8030837" lon="17.6060376">
        <ele>6.38586</ele>
        <time>2013-05-26T11:36:49Z</time>
      </trkpt>
      <trkpt lat="59.8031612" lon="17.6059559">
        <ele>6.86646</ele>
        <time>2013-05-26T11:36:50Z</time>
      </trkpt>
      <trkpt lat="59.8032334" lon="17.6058801">
        <ele>7.34717</ele>
        <time>2013-05-26T11:36:51Z</time>
      </trkpt>
      <trkpt lat="59.8033053" lon="17.6058029">
        <ele>7.34717</ele>
        <time>2013-05-26T11:36:52Z</time>
      </trkpt>
      <trkpt lat="59.8033842" lon="17.6057321">
        <ele>8.30859</ele>
        <time>2013-05-26T11:36:53Z</time>
      </trkpt>
      <trkpt lat="59.8034626" lon="17.6056673">
        <ele>9.2699</ele>
        <time>2013-05-26T11:36:54Z</time>
      </trkpt>
      <trkpt lat="59.8035346" lon="17.605602">
        <ele>10.2312</ele>
        <time>2013-05-26T11:36:55Z</time>
      </trkpt>
      <trkpt lat="59.8036026" lon="17.6055426">
        <ele>10.7118</ele>
        <time>2013-05-26T11:36:56Z</time>
      </trkpt>
      <trkpt lat="59.8036751" lon="17.6054858">
        <ele>10.7118</ele>
        <time>2013-05-26T11:36:57Z</time>
      </trkpt>
      <trkpt lat="59.8037589" lon="17.605441">
        <ele>11.1925</ele>
        <time>2013-05-26T11:36:58Z</time>
      </trkpt>
      <trkpt lat="59.8038438" lon="17.6053995">
        <ele>11.6732</ele>
        <time>2013-05-26T11:36:59Z</time>
      </trkpt>
      <trkpt lat="59.8039241" lon="17.6053664">
        <ele>11.6732</ele>
        <time>2013-05-26T11:37:00Z</time>
      </trkpt>
      <trkpt lat="59.804008" lon="17.605327">
        <ele>10.7118</ele>
        <time>2013-05-26T11:37:01Z</time>
      </trkpt>
      <trkpt lat="59.8040917" lon="17.6052957">
        <ele>9.75061</ele>
        <time>2013-05-26T11:37:02Z</time>
      </trkpt>
      <trkpt lat="59.8041771" lon="17.6052716">
        <ele>8.78918</ele>
        <time>2013-05-26T11:37:03Z</time>
      </trkpt>
      <trkpt lat="59.8042662" lon="17.6052556">
        <ele>8.30859</ele>
        <time>2013-05-26T11:37:04Z</time>
      </trkpt>
      <trkpt lat="59.8043547" lon="17.6052483">
        <ele>7.34717</ele>
        <time>2013-05-26T11:37:05Z</time>
      </trkpt>
      <trkpt lat="59.8044408" lon="17.6052481">
        <ele>6.38586</ele>
        <time>2013-05-26T11:37:06Z</time>
      </trkpt>
      <trkpt lat="59.8045283" lon="17.6052548">
        <ele>5.42456</ele>
        <time>2013-05-26T11:37:07Z</time>
      </trkpt>
      <trkpt lat="59.8046152" lon="17.6052628">
        <ele>4.46326</ele>
        <time>2013-05-26T11:37:08Z</time>
      </trkpt>
      <trkpt lat="59.8046998" lon="17.6052721">
        <ele>3.50195</ele>
        <time>2013-05-26T11:37:09Z</time>
      </trkpt>
      <trkpt lat="59.8047819" lon="17.6052926">
        <ele>3.02124</ele>
        <time>2013-05-26T11:37:10Z</time>
      </trkpt>
      <trkpt lat="59.8048708" lon="17.6053291">
        <ele>3.98267</ele>
        <time>2013-05-26T11:37:11Z</time>
      </trkpt>
      <trkpt lat="59.8049423" lon="17.6053563">
        <ele>3.50195</ele>
        <time>2013-05-26T11:37:12Z</time>
      </trkpt>
      <trkpt lat="59.8050138" lon="17.6053938">
        <ele>3.50195</ele>
        <time>2013-05-26T11:37:13Z</time>
      </trkpt>
      <trkpt lat="59.8050791" lon="17.6054366">
        <ele>2.54065</ele>
        <time>2013-05-26T11:37:14Z</time>
      </trkpt>
      <trkpt lat="59.8051428" lon="17.6054844">
        <ele>2.54065</ele>
        <time>2013-05-26T11:37:15Z</time>
      </trkpt>
      <trkpt lat="59.8052059" lon="17.605541">
        <ele>1.57935</ele>
        <time>2013-05-26T11:37:16Z</time>
      </trkpt>
      <trkpt lat="59.8052766" lon="17.6055903">
        <ele>2.06006</ele>
        <time>2013-05-26T11:37:17Z</time>
      </trkpt>
      <trkpt lat="59.8053457" lon="17.6056419">
        <ele>3.50195</ele>
        <time>2013-05-26T11:37:18Z</time>
      </trkpt>
      <trkpt lat="59.8054135" lon="17.6056985">
        <ele>3.98267</ele>
        <time>2013-05-26T11:37:19Z</time>
      </trkpt>
      <trkpt lat="59.8054711" lon="17.6057527">
        <ele>3.50195</ele>
        <time>2013-05-26T11:37:20Z</time>
      </trkpt>
      <trkpt lat="59.8055352" lon="17.6058042">
        <ele>3.50195</ele>
        <time>2013-05-26T11:37:21Z</time>
      </trkpt>
      <trkpt lat="59.8056027" lon="17.6058641">
        <ele>3.50195</ele>
        <time>2013-05-26T11:37:22Z</time>
      </trkpt>
      <trkpt lat="59.80567" lon="17.6059197">
        <ele>3.50195</ele>
        <time>2013-05-26T11:37:23Z</time>
      </trkpt>
      <trkpt lat="59.8057354" lon="17.605976">
        <ele>3.02124</ele>
        <time>2013-05-26T11:37:24Z</time>
      </trkpt>
      <trkpt lat="59.8058032" lon="17.6060378">
        <ele>3.02124</ele>
        <time>2013-05-26T11:37:25Z</time>
      </trkpt>
      <trkpt lat="59.8058699" lon="17.6060969">
        <ele>2.54065</ele>
        <time>2013-05-26T11:37:26Z</time>
      </trkpt>
      <trkpt lat="59.8059425" lon="17.6061492">
        <ele>3.02124</ele>
        <time>2013-05-26T11:37:27Z</time>
      </trkpt>
      <trkpt lat="59.8060105" lon="17.6062071">
        <ele>3.02124</ele>
        <time>2013-05-26T11:37:28Z</time>
      </trkpt>
      <trkpt lat="59.806079" lon="17.6062651">
        <ele>2.54065</ele>
        <time>2013-05-26T11:37:29Z</time>
      </trkpt>
      <trkpt lat="59.8061508" lon="17.606322">
        <ele>2.06006</ele>
        <time>2013-05-26T11:37:30Z</time>
      </trkpt>
      <trkpt lat="59.8062227" lon="17.60638">
        <ele>2.06006</ele>
        <time>2013-05-26T11:37:31Z</time>
      </trkpt>
      <trkpt lat="59.8062972" lon="17.6064367">
        <ele>2.54065</ele>
        <time>2013-05-26T11:37:32Z</time>
      </trkpt>
      <trkpt lat="59.8063663" lon="17.6064946">
        <ele>2.06006</ele>
        <time>2013-05-26T11:37:33Z</time>
      </trkpt>
      <trkpt lat="59.806438" lon="17.6065509">
        <ele>1.57935</ele>
        <time>2013-05-26T11:37:34Z</time>
      </trkpt>
      <trkpt lat="59.8065122" lon="17.6066022">
        <ele>1.57935</ele>
        <time>2013-05-26T11:37:35Z</time>
      </trkpt>
      <trkpt lat="59.806588" lon="17.6066499">
        <ele>1.09863</ele>
        <time>2013-05-26T11:37:36Z</time>
      </trkpt>
      <trkpt lat="59.8066623" lon="17.6067001">
        <ele>0.137451</ele>
        <time>2013-05-26T11:37:37Z</time>
      </trkpt>
      <trkpt lat="59.8067438" lon="17.6067451">
        <ele>0</ele>
        <time>2013-05-26T11:37:38Z</time>
      </trkpt>
      <trkpt lat="59.8068252" lon="17.6067882">
        <ele>0</ele>
        <time>2013-05-26T11:37:39Z</time>
      </trkpt>
      <trkpt lat="59.8069081" lon="17.6068298">
        <ele>0</ele>
        <time>2013-05-26T11:37:40Z</time>
      </trkpt>
      <trkpt lat="59.806991" lon="17.6068694">
        <ele>0</ele>
        <time>2013-05-26T11:37:41Z</time>
      </trkpt>
      <trkpt lat="59.8070992" lon="17.6069017">
        <ele>1.57935</ele>
        <time>2013-05-26T11:37:42Z</time>
      </trkpt>
      <trkpt lat="59.8071982" lon="17.6069365">
        <ele>3.02124</ele>
        <time>2013-05-26T11:37:43Z</time>
      </trkpt>
      <trkpt lat="59.807293" lon="17.6069681">
        <ele>4.46326</ele>
        <time>2013-05-26T11:37:44Z</time>
      </trkpt>
      <trkpt lat="59.8073858" lon="17.6070046">
        <ele>4.94385</ele>
        <time>2013-05-26T11:37:45Z</time>
      </trkpt>
      <trkpt lat="59.8074725" lon="17.6070436">
        <ele>4.46326</ele>
        <time>2013-05-26T11:37:46Z</time>
      </trkpt>
      <trkpt lat="59.8075582" lon="17.6070825">
        <ele>4.46326</ele>
        <time>2013-05-26T11:37:47Z</time>
      </trkpt>
      <trkpt lat="59.8076445" lon="17.6071236">
        <ele>4.46326</ele>
        <time>2013-05-26T11:37:48Z</time>
      </trkpt>
      <trkpt lat="59.8077406" lon="17.6071671">
        <ele>5.42456</ele>
        <time>2013-05-26T11:37:49Z</time>
      </trkpt>
      <trkpt lat="59.807833" lon="17.6072182">
        <ele>5.90527</ele>
        <time>2013-05-26T11:37:50Z</time>
      </trkpt>
      <trkpt lat="59.8079232" lon="17.6072732">
        <ele>6.38586</ele>
        <time>2013-05-26T11:37:51Z</time>
      </trkpt>
      <trkpt lat="59.8080125" lon="17.6073307">
        <ele>6.38586</ele>
        <time>2013-05-26T11:37:52Z</time>
      </trkpt>
      <trkpt lat="59.808098" lon="17.6073886">
        <ele>5.90527</ele>
        <time>2013-05-26T11:37:53Z</time>
      </trkpt>
      <trkpt lat="59.8081824" lon="17.6074497">
        <ele>5.42456</ele>
        <time>2013-05-26T11:37:54Z</time>
      </trkpt>
      <trkpt lat="59.8082646" lon="17.6075152">
        <ele>5.42456</ele>
        <time>2013-05-26T11:37:55Z</time>
      </trkpt>
      <trkpt lat="59.8083439" lon="17.6075835">
        <ele>4.94385</ele>
        <time>2013-05-26T11:37:56Z</time>
      </trkpt>
      <trkpt lat="59.80842" lon="17.6076532">
        <ele>4.46326</ele>
        <time>2013-05-26T11:37:57Z</time>
      </trkpt>
      <trkpt lat="59.8084937" lon="17.6077242">
        <ele>3.98267</ele>
        <time>2013-05-26T11:37:58Z</time>
      </trkpt>
      <trkpt lat="59.8085657" lon="17.6077949">
        <ele>3.50195</ele>
        <time>2013-05-26T11:37:59Z</time>
      </trkpt>
      <trkpt lat="59.8086372" lon="17.6078642">
        <ele>3.98267</ele>
        <time>2013-05-26T11:38:00Z</time>
      </trkpt>
      <trkpt lat="59.8087066" lon="17.6079316">
        <ele>3.98267</ele>
        <time>2013-05-26T11:38:01Z</time>
      </trkpt>
      <trkpt lat="59.8087745" lon="17.6079987">
        <ele>3.50195</ele>
        <time>2013-05-26T11:38:02Z</time>
      </trkpt>
      <trkpt lat="59.8088421" lon="17.6080642">
        <ele>3.98267</ele>
        <time>2013-05-26T11:38:03Z</time>
      </trkpt>
      <trkpt lat="59.8089081" lon="17.6081264">
        <ele>3.50195</ele>
        <time>2013-05-26T11:38:04Z</time>
      </trkpt>
      <trkpt lat="59.8089726" lon="17.6081859">
        <ele>3.50195</ele>
        <time>2013-05-26T11:38:05Z</time>
      </trkpt>
      <trkpt lat="59.8090369" lon="17.6082443">
        <ele>3.50195</ele>
        <time>2013-05-26T11:38:06Z</time>
      </trkpt>
      <trkpt lat="59.8091014" lon="17.6083005">
        <ele>3.50195</ele>
        <time>2013-05-26T11:38:07Z</time>
      </trkpt>
      <trkpt lat="59.8091654" lon="17.6083551">
        <ele>3.50195</ele>
        <time>2013-05-26T11:38:08Z</time>
      </trkpt>
      <trkpt lat="59.8092277" lon="17.6084113">
        <ele>3.50195</ele>
        <time>2013-05-26T11:38:09Z</time>
      </trkpt>
      <trkpt lat="59.8092889" lon="17.6084693">
        <ele>3.50195</ele>
        <time>2013-05-26T11:38:10Z</time>
      </trkpt>
      <trkpt lat="59.8093495" lon="17.6085273">
        <ele>3.50195</ele>
        <time>2013-05-26T11:38:11Z</time>
      </trkpt>
      <trkpt lat="59.8094109" lon="17.6085848">
        <ele>3.50195</ele>
        <time>2013-05-26T11:38:12Z</time>
      </trkpt>
      <trkpt lat="59.8094749" lon="17.6086401">
        <ele>3.50195</ele>
        <time>2013-05-26T11:38:13Z</time>
      </trkpt>
      <trkpt lat="59.8095417" lon="17.608695">
        <ele>3.50195</ele>
        <time>2013-05-26T11:38:14Z</time>
      </trkpt>
      <trkpt lat="59.8096083" lon="17.6087516">
        <ele>3.98267</ele>
        <time>2013-05-26T11:38:15Z</time>
      </trkpt>
      <trkpt lat="59.8096749" lon="17.6088106">
        <ele>3.98267</ele>
        <time>2013-05-26T11:38:16Z</time>
      </trkpt>
      <trkpt lat="59.8097389" lon="17.6088732">
        <ele>3.98267</ele>
        <time>2013-05-26T11:38:17Z</time>
      </trkpt>
      <trkpt lat="59.8098011" lon="17.608936">
        <ele>3.98267</ele>
        <time>2013-05-26T11:38:18Z</time>
      </trkpt>
      <trkpt lat="59.8098622" lon="17.6089954">
        <ele>3.98267</ele>
        <time>2013-05-26T11:38:19Z</time>
      </trkpt>
      <trkpt lat="59.8099237" lon="17.609052">
        <ele>4.46326</ele>
        <time>2013-05-26T11:38:20Z</time>
      </trkpt>
      <trkpt lat="59.8099859" lon="17.6091072">
        <ele>4.46326</ele>
        <time>2013-05-26T11:38:21Z</time>
      </trkpt>
      <trkpt lat="59.8100477" lon="17.6091613">
        <ele>4.94385</ele>
        <time>2013-05-26T11:38:22Z</time>
      </trkpt>
      <trkpt lat="59.8101095" lon="17.6092157">
        <ele>4.94385</ele>
        <time>2013-05-26T11:38:23Z</time>
      </trkpt>
      <trkpt lat="59.8101705" lon="17.6092706">
        <ele>4.94385</ele>
        <time>2013-05-26T11:38:24Z</time>
      </trkpt>
      <trkpt lat="59.8102321" lon="17.609326">
        <ele>5.42456</ele>
        <time>2013-05-26T11:38:25Z</time>
      </trkpt>
      <trkpt lat="59.8102948" lon="17.609382">
        <ele>5.42456</ele>
        <time>2013-05-26T11:38:26Z</time>
      </trkpt>
      <trkpt lat="59.8103575" lon="17.6094368">
        <ele>5.42456</ele>
        <time>2013-05-26T11:38:27Z</time>
      </trkpt>
      <trkpt lat="59.8104191" lon="17.6094921">
        <ele>5.42456</ele>
        <time>2013-05-26T11:38:28Z</time>
      </trkpt>
      <trkpt lat="59.810479" lon="17.6095471">
        <ele>5.42456</ele>
        <time>2013-05-26T11:38:29Z</time>
      </trkpt>
      <trkpt lat="59.8105386" lon="17.6095962">
        <ele>5.42456</ele>
        <time>2013-05-26T11:38:30Z</time>
      </trkpt>
      <trkpt lat="59.8105969" lon="17.6096429">
        <ele>5.90527</ele>
        <time>2013-05-26T11:38:31Z</time>
      </trkpt>
      <trkpt lat="59.8106528" lon="17.6096934">
        <ele>5.90527</ele>
        <time>2013-05-26T11:38:32Z</time>
      </trkpt>
      <trkpt lat="59.8107072" lon="17.6097463">
        <ele>5.90527</ele>
        <time>2013-05-26T11:38:33Z</time>
      </trkpt>
      <trkpt lat="59.8107609" lon="17.6097974">
        <ele>5.90527</ele>
        <time>2013-05-26T11:38:34Z</time>
      </trkpt>
      <trkpt lat="59.8108145" lon="17.6098469">
        <ele>6.38586</ele>
        <time>2013-05-26T11:38:35Z</time>
      </trkpt>
      <trkpt lat="59.8108689" lon="17.6098957">
        <ele>6.38586</ele>
        <time>2013-05-26T11:38:36Z</time>
      </trkpt>
      <trkpt lat="59.8109247" lon="17.6099429">
        <ele>6.38586</ele>
        <time>2013-05-26T11:38:37Z</time>
      </trkpt>
      <trkpt lat="59.8109797" lon="17.6099912">
        <ele>6.86646</ele>
        <time>2013-05-26T11:38:38Z</time>
      </trkpt>
      <trkpt lat="59.8110356" lon="17.6100394">
        <ele>6.86646</ele>
        <time>2013-05-26T11:38:39Z</time>
      </trkpt>
      <trkpt lat="59.8110925" lon="17.6100869">
        <ele>6.86646</ele>
        <time>2013-05-26T11:38:40Z</time>
      </trkpt>
      <trkpt lat="59.8111504" lon="17.6101334">
        <ele>6.86646</ele>
        <time>2013-05-26T11:38:41Z</time>
      </trkpt>
      <trkpt lat="59.8112087" lon="17.6101785">
        <ele>6.86646</ele>
        <time>2013-05-26T11:38:42Z</time>
      </trkpt>
      <trkpt lat="59.8112672" lon="17.6102212">
        <ele>6.86646</ele>
        <time>2013-05-26T11:38:43Z</time>
      </trkpt>
      <trkpt lat="59.8113256" lon="17.6102617">
        <ele>6.86646</ele>
        <time>2013-05-26T11:38:44Z</time>
      </trkpt>
      <trkpt lat="59.8113842" lon="17.6103008">
        <ele>6.86646</ele>
        <time>2013-05-26T11:38:45Z</time>
      </trkpt>
      <trkpt lat="59.811442" lon="17.6103393">
        <ele>6.38586</ele>
        <time>2013-05-26T11:38:46Z</time>
      </trkpt>
      <trkpt lat="59.8114992" lon="17.6103769">
        <ele>6.38586</ele>
        <time>2013-05-26T11:38:47Z</time>
      </trkpt>
      <trkpt lat="59.8115581" lon="17.6104121">
        <ele>6.38586</ele>
        <time>2013-05-26T11:38:48Z</time>
      </trkpt>
      <trkpt lat="59.8116164" lon="17.610446">
        <ele>6.38586</ele>
        <time>2013-05-26T11:38:49Z</time>
      </trkpt>
      <trkpt lat="59.8116747" lon="17.6104776">
        <ele>6.38586</ele>
        <time>2013-05-26T11:38:50Z</time>
      </trkpt>
      <trkpt lat="59.8117323" lon="17.6105062">
        <ele>6.38586</ele>
        <time>2013-05-26T11:38:51Z</time>
      </trkpt>
      <trkpt lat="59.8117907" lon="17.610533">
        <ele>6.38586</ele>
        <time>2013-05-26T11:38:52Z</time>
      </trkpt>
      <trkpt lat="59.8118489" lon="17.610559">
        <ele>5.90527</ele>
        <time>2013-05-26T11:38:53Z</time>
      </trkpt>
      <trkpt lat="59.8119057" lon="17.6105854">
        <ele>5.90527</ele>
        <time>2013-05-26T11:38:54Z</time>
      </trkpt>
      <trkpt lat="59.8119623" lon="17.6106123">
        <ele>5.90527</ele>
        <time>2013-05-26T11:38:55Z</time>
      </trkpt>
      <trkpt lat="59.8120193" lon="17.6106377">
        <ele>5.42456</ele>
        <time>2013-05-26T11:38:56Z</time>
      </trkpt>
      <trkpt lat="59.8120771" lon="17.6106613">
        <ele>4.94385</ele>
        <time>2013-05-26T11:38:57Z</time>
      </trkpt>
      <trkpt lat="59.8121341" lon="17.6106858">
        <ele>4.94385</ele>
        <time>2013-05-26T11:38:58Z</time>
      </trkpt>
      <trkpt lat="59.8121902" lon="17.6107112">
        <ele>4.46326</ele>
        <time>2013-05-26T11:38:59Z</time>
      </trkpt>
      <trkpt lat="59.8122466" lon="17.6107361">
        <ele>4.46326</ele>
        <time>2013-05-26T11:39:00Z</time>
      </trkpt>
      <trkpt lat="59.8123016" lon="17.6107589">
        <ele>4.46326</ele>
        <time>2013-05-26T11:39:01Z</time>
      </trkpt>
      <trkpt lat="59.812353" lon="17.6107804">
        <ele>4.46326</ele>
        <time>2013-05-26T11:39:02Z</time>
      </trkpt>
      <trkpt lat="59.8124047" lon="17.610799">
        <ele>4.46326</ele>
        <time>2013-05-26T11:39:03Z</time>
      </trkpt>
      <trkpt lat="59.8124545" lon="17.6108174">
        <ele>3.98267</ele>
        <time>2013-05-26T11:39:04Z</time>
      </trkpt>
      <trkpt lat="59.8125078" lon="17.6108351">
        <ele>3.98267</ele>
        <time>2013-05-26T11:39:05Z</time>
      </trkpt>
      <trkpt lat="59.8125589" lon="17.6108506">
        <ele>3.98267</ele>
        <time>2013-05-26T11:39:06Z</time>
      </trkpt>
      <trkpt lat="59.8126089" lon="17.6108654">
        <ele>3.50195</ele>
        <time>2013-05-26T11:39:07Z</time>
      </trkpt>
      <trkpt lat="59.8126593" lon="17.610877">
        <ele>3.02124</ele>
        <time>2013-05-26T11:39:08Z</time>
      </trkpt>
      <trkpt lat="59.8127113" lon="17.6108894">
        <ele>3.50195</ele>
        <time>2013-05-26T11:39:09Z</time>
      </trkpt>
      <trkpt lat="59.8127638" lon="17.6109007">
        <ele>3.98267</ele>
        <time>2013-05-26T11:39:10Z</time>
      </trkpt>
      <trkpt lat="59.8128139" lon="17.6109078">
        <ele>3.98267</ele>
        <time>2013-05-26T11:39:11Z</time>
      </trkpt>
      <trkpt lat="59.8128643" lon="17.6109123">
        <ele>4.46326</ele>
        <time>2013-05-26T11:39:12Z</time>
      </trkpt>
      <trkpt lat="59.8129132" lon="17.6109159">
        <ele>4.46326</ele>
        <time>2013-05-26T11:39:13Z</time>
      </trkpt>
      <trkpt lat="59.8129637" lon="17.6109205">
        <ele>4.94385</ele>
        <time>2013-05-26T11:39:14Z</time>
      </trkpt>
      <trkpt lat="59.8130097" lon="17.6109294">
        <ele>4.94385</ele>
        <time>2013-05-26T11:39:15Z</time>
      </trkpt>
      <trkpt lat="59.8130642" lon="17.6109337">
        <ele>6.86646</ele>
        <time>2013-05-26T11:39:16Z</time>
      </trkpt>
      <trkpt lat="59.8131207" lon="17.6109346">
        <ele>8.30859</ele>
        <time>2013-05-26T11:39:17Z</time>
      </trkpt>
      <trkpt lat="59.8131719" lon="17.6109327">
        <ele>9.2699</ele>
        <time>2013-05-26T11:39:18Z</time>
      </trkpt>
      <trkpt lat="59.8132258" lon="17.6109324">
        <ele>10.2312</ele>
        <time>2013-05-26T11:39:19Z</time>
      </trkpt>
      <trkpt lat="59.8132791" lon="17.6109329">
        <ele>11.6732</ele>
        <time>2013-05-26T11:39:20Z</time>
      </trkpt>
      <trkpt lat="59.8133305" lon="17.610934">
        <ele>12.1538</ele>
        <time>2013-05-26T11:39:21Z</time>
      </trkpt>
      <trkpt lat="59.8133791" lon="17.6109303">
        <ele>13.5958</ele>
        <time>2013-05-26T11:39:22Z</time>
      </trkpt>
      <trkpt lat="59.8134227" lon="17.6109231">
        <ele>14.0764</ele>
        <time>2013-05-26T11:39:23Z</time>
      </trkpt>
      <trkpt lat="59.8134666" lon="17.6109188">
        <ele>14.0764</ele>
        <time>2013-05-26T11:39:24Z</time>
      </trkpt>
      <trkpt lat="59.8135101" lon="17.6109138">
        <ele>14.557</ele>
        <time>2013-05-26T11:39:25Z</time>
      </trkpt>
      <trkpt lat="59.8135536" lon="17.6109105">
        <ele>14.557</ele>
        <time>2013-05-26T11:39:26Z</time>
      </trkpt>
      <trkpt lat="59.8135993" lon="17.6109043">
        <ele>15.0377</ele>
        <time>2013-05-26T11:39:27Z</time>
      </trkpt>
      <trkpt lat="59.8136437" lon="17.6108956">
        <ele>15.0377</ele>
        <time>2013-05-26T11:39:28Z</time>
      </trkpt>
      <trkpt lat="59.813685" lon="17.6108878">
        <ele>15.0377</ele>
        <time>2013-05-26T11:39:29Z</time>
      </trkpt>
      <trkpt lat="59.8137287" lon="17.6108806">
        <ele>15.0377</ele>
        <time>2013-05-26T11:39:30Z</time>
      </trkpt>
      <trkpt lat="59.8137718" lon="17.6108745">
        <ele>15.5184</ele>
        <time>2013-05-26T11:39:31Z</time>
      </trkpt>
      <trkpt lat="59.8138158" lon="17.6108643">
        <ele>15.999</ele>
        <time>2013-05-26T11:39:32Z</time>
      </trkpt>
      <trkpt lat="59.8138623" lon="17.6108512">
        <ele>16.9604</ele>
        <time>2013-05-26T11:39:33Z</time>
      </trkpt>
      <trkpt lat="59.8139029" lon="17.6108385">
        <ele>17.4412</ele>
        <time>2013-05-26T11:39:34Z</time>
      </trkpt>
      <trkpt lat="59.8139474" lon="17.6108246">
        <ele>17.9218</ele>
        <time>2013-05-26T11:39:35Z</time>
      </trkpt>
      <trkpt lat="59.8139903" lon="17.6108107">
        <ele>17.9218</ele>
        <time>2013-05-26T11:39:36Z</time>
      </trkpt>
      <trkpt lat="59.814035" lon="17.6108016">
        <ele>18.4023</ele>
        <time>2013-05-26T11:39:37Z</time>
      </trkpt>
      <trkpt lat="59.8140792" lon="17.6107939">
        <ele>18.8831</ele>
        <time>2013-05-26T11:39:38Z</time>
      </trkpt>
      <trkpt lat="59.8141204" lon="17.6107842">
        <ele>18.8831</ele>
        <time>2013-05-26T11:39:39Z</time>
      </trkpt>
      <trkpt lat="59.8141624" lon="17.6107728">
        <ele>18.8831</ele>
        <time>2013-05-26T11:39:40Z</time>
      </trkpt>
      <trkpt lat="59.8142042" lon="17.6107647">
        <ele>18.8831</ele>
        <time>2013-05-26T11:39:41Z</time>
      </trkpt>
      <trkpt lat="59.8142467" lon="17.6107602">
        <ele>18.8831</ele>
        <time>2013-05-26T11:39:42Z</time>
      </trkpt>
      <trkpt lat="59.8142897" lon="17.6107545">
        <ele>18.8831</ele>
        <time>2013-05-26T11:39:43Z</time>
      </trkpt>
      <trkpt lat="59.8143326" lon="17.6107494">
        <ele>18.8831</ele>
        <time>2013-05-26T11:39:44Z</time>
      </trkpt>
      <trkpt lat="59.814377" lon="17.610748">
        <ele>19.3638</ele>
        <time>2013-05-26T11:39:45Z</time>
      </trkpt>
      <trkpt lat="59.8144201" lon="17.6107442">
        <ele>19.3638</ele>
        <time>2013-05-26T11:39:46Z</time>
      </trkpt>
      <trkpt lat="59.8144623" lon="17.6107421">
        <ele>18.8831</ele>
        <time>2013-05-26T11:39:47Z</time>
      </trkpt>
      <trkpt lat="59.8145067" lon="17.6107428">
        <ele>18.8831</ele>
        <time>2013-05-26T11:39:48Z</time>
      </trkpt>
      <trkpt lat="59.8145535" lon="17.6107464">
        <ele>18.8831</ele>
        <time>2013-05-26T11:39:49Z</time>
      </trkpt>
      <trkpt lat="59.8146" lon="17.6107507">
        <ele>18.8831</ele>
        <time>2013-05-26T11:39:50Z</time>
      </trkpt>
      <trkpt lat="59.8146423" lon="17.6107592">
        <ele>17.9218</ele>
        <time>2013-05-26T11:39:51Z</time>
      </trkpt>
      <trkpt lat="59.814687" lon="17.6107672">
        <ele>17.4412</ele>
        <time>2013-05-26T11:39:52Z</time>
      </trkpt>
      <trkpt lat="59.8147296" lon="17.6107791">
        <ele>16.9604</ele>
        <time>2013-05-26T11:39:53Z</time>
      </trkpt>
      <trkpt lat="59.8147764" lon="17.6107936">
        <ele>16.4797</ele>
        <time>2013-05-26T11:39:54Z</time>
      </trkpt>
      <trkpt lat="59.8148231" lon="17.610808">
        <ele>15.999</ele>
        <time>2013-05-26T11:39:55Z</time>
      </trkpt>
      <trkpt lat="59.8148712" lon="17.6108244">
        <ele>15.999</ele>
        <time>2013-05-26T11:39:56Z</time>
      </trkpt>
      <trkpt lat="59.8149153" lon="17.6108412">
        <ele>15.5184</ele>
        <time>2013-05-26T11:39:57Z</time>
      </trkpt>
      <trkpt lat="59.8149616" lon="17.6108613">
        <ele>15.0377</ele>
        <time>2013-05-26T11:39:58Z</time>
      </trkpt>
      <trkpt lat="59.8150118" lon="17.6108867">
        <ele>15.0377</ele>
        <time>2013-05-26T11:39:59Z</time>
      </trkpt>
      <trkpt lat="59.8150621" lon="17.6109131">
        <ele>15.0377</ele>
        <time>2013-05-26T11:40:00Z</time>
      </trkpt>
      <trkpt lat="59.8151165" lon="17.6109391">
        <ele>15.5184</ele>
        <time>2013-05-26T11:40:01Z</time>
      </trkpt>
      <trkpt lat="59.8151704" lon="17.6109675">
        <ele>15.5184</ele>
        <time>2013-05-26T11:40:02Z</time>
      </trkpt>
      <trkpt lat="59.8152211" lon="17.6109985">
        <ele>15.5184</ele>
        <time>2013-05-26T11:40:03Z</time>
      </trkpt>
      <trkpt lat="59.8152723" lon="17.6110313">
        <ele>15.5184</ele>
        <time>2013-05-26T11:40:04Z</time>
      </trkpt>
      <trkpt lat="59.815324" lon="17.6110641">
        <ele>15.999</ele>
        <time>2013-05-26T11:40:05Z</time>
      </trkpt>
      <trkpt lat="59.8153776" lon="17.6110987">
        <ele>16.9604</ele>
        <time>2013-05-26T11:40:06Z</time>
      </trkpt>
      <trkpt lat="59.8154231" lon="17.611141">
        <ele>17.4412</ele>
        <time>2013-05-26T11:40:07Z</time>
      </trkpt>
      <trkpt lat="59.8154706" lon="17.6111789">
        <ele>17.4412</ele>
        <time>2013-05-26T11:40:08Z</time>
      </trkpt>
      <trkpt lat="59.8155169" lon="17.611216">
        <ele>17.4412</ele>
        <time>2013-05-26T11:40:09Z</time>
      </trkpt>
      <trkpt lat="59.8155634" lon="17.6112541">
        <ele>17.4412</ele>
        <time>2013-05-26T11:40:10Z</time>
      </trkpt>
      <trkpt lat="59.8156112" lon="17.6112946">
        <ele>17.4412</ele>
        <time>2013-05-26T11:40:11Z</time>
      </trkpt>
      <trkpt lat="59.8156574" lon="17.6113363">
        <ele>17.9218</ele>
        <time>2013-05-26T11:40:12Z</time>
      </trkpt>
      <trkpt lat="59.8157029" lon="17.611379">
        <ele>17.9218</ele>
        <time>2013-05-26T11:40:13Z</time>
      </trkpt>
      <trkpt lat="59.8157484" lon="17.6114217">
        <ele>17.9218</ele>
        <time>2013-05-26T11:40:14Z</time>
      </trkpt>
      <trkpt lat="59.8157945" lon="17.6114653">
        <ele>17.9218</ele>
        <time>2013-05-26T11:40:15Z</time>
      </trkpt>
      <trkpt lat="59.8158421" lon="17.6115098">
        <ele>17.9218</ele>
        <time>2013-05-26T11:40:16Z</time>
      </trkpt>
      <trkpt lat="59.8158904" lon="17.6115549">
        <ele>17.9218</ele>
        <time>2013-05-26T11:40:17Z</time>
      </trkpt>
      <trkpt lat="59.8159391" lon="17.6116006">
        <ele>18.4023</ele>
        <time>2013-05-26T11:40:18Z</time>
      </trkpt>
      <trkpt lat="59.8159872" lon="17.6116465">
        <ele>18.4023</ele>
        <time>2013-05-26T11:40:19Z</time>
      </trkpt>
      <trkpt lat="59.8160353" lon="17.6116921">
        <ele>18.4023</ele>
        <time>2013-05-26T11:40:20Z</time>
      </trkpt>
      <trkpt lat="59.8160832" lon="17.6117375">
        <ele>18.4023</ele>
        <time>2013-05-26T11:40:21Z</time>
      </trkpt>
      <trkpt lat="59.8161302" lon="17.6117838">
        <ele>18.4023</ele>
        <time>2013-05-26T11:40:22Z</time>
      </trkpt>
      <trkpt lat="59.8161793" lon="17.6118307">
        <ele>18.4023</ele>
        <time>2013-05-26T11:40:23Z</time>
      </trkpt>
      <trkpt lat="59.8162271" lon="17.6118794">
        <ele>18.4023</ele>
        <time>2013-05-26T11:40:24Z</time>
      </trkpt>
      <trkpt lat="59.8162728" lon="17.6119328">
        <ele>18.4023</ele>
        <time>2013-05-26T11:40:25Z</time>
      </trkpt>
      <trkpt lat="59.8163198" lon="17.6119875">
        <ele>17.9218</ele>
        <time>2013-05-26T11:40:26Z</time>
      </trkpt>
      <trkpt lat="59.816371" lon="17.6120347">
        <ele>18.4023</ele>
        <time>2013-05-26T11:40:27Z</time>
      </trkpt>
      <trkpt lat="59.8164206" lon="17.6120799">
        <ele>18.4023</ele>
        <time>2013-05-26T11:40:28Z</time>
      </trkpt>
      <trkpt lat="59.816469" lon="17.6121269">
        <ele>18.4023</ele>
        <time>2013-05-26T11:40:29Z</time>
      </trkpt>
      <trkpt lat="59.8165177" lon="17.6121695">
        <ele>17.9218</ele>
        <time>2013-05-26T11:40:30Z</time>
      </trkpt>
      <trkpt lat="59.8165673" lon="17.6122096">
        <ele>17.9218</ele>
        <time>2013-05-26T11:40:31Z</time>
      </trkpt>
      <trkpt lat="59.8166186" lon="17.612251">
        <ele>18.4023</ele>
        <time>2013-05-26T11:40:32Z</time>
      </trkpt>
      <trkpt lat="59.8166674" lon="17.6122932">
        <ele>17.9218</ele>
        <time>2013-05-26T11:40:33Z</time>
      </trkpt>
      <trkpt lat="59.8167171" lon="17.6123356">
        <ele>17.9218</ele>
        <time>2013-05-26T11:40:34Z</time>
      </trkpt>
      <trkpt lat="59.8167749" lon="17.6123792">
        <ele>18.8831</ele>
        <time>2013-05-26T11:40:35Z</time>
      </trkpt>
      <trkpt lat="59.8168315" lon="17.6124204">
        <ele>19.8444</ele>
        <time>2013-05-26T11:40:36Z</time>
      </trkpt>
      <trkpt lat="59.8168818" lon="17.612464">
        <ele>20.325</ele>
        <time>2013-05-26T11:40:37Z</time>
      </trkpt>
      <trkpt lat="59.8169331" lon="17.6125098">
        <ele>20.8057</ele>
        <time>2013-05-26T11:40:38Z</time>
      </trkpt>
      <trkpt lat="59.8169804" lon="17.6125615">
        <ele>21.2864</ele>
        <time>2013-05-26T11:40:39Z</time>
      </trkpt>
      <trkpt lat="59.8170279" lon="17.6126152">
        <ele>21.2864</ele>
        <time>2013-05-26T11:40:40Z</time>
      </trkpt>
      <trkpt lat="59.817074" lon="17.6126713">
        <ele>21.767</ele>
        <time>2013-05-26T11:40:41Z</time>
      </trkpt>
      <trkpt lat="59.8171176" lon="17.6127324">
        <ele>21.767</ele>
        <time>2013-05-26T11:40:42Z</time>
      </trkpt>
      <trkpt lat="59.8171631" lon="17.6127924">
        <ele>21.767</ele>
        <time>2013-05-26T11:40:43Z</time>
      </trkpt>
      <trkpt lat="59.81721" lon="17.6128562">
        <ele>22.2476</ele>
        <time>2013-05-26T11:40:44Z</time>
      </trkpt>
      <trkpt lat="59.8172561" lon="17.61292">
        <ele>22.7283</ele>
        <time>2013-05-26T11:40:45Z</time>
      </trkpt>
      <trkpt lat="59.8173004" lon="17.6129801">
        <ele>23.209</ele>
        <time>2013-05-26T11:40:46Z</time>
      </trkpt>
      <trkpt lat="59.8173435" lon="17.6130438">
        <ele>23.6896</ele>
        <time>2013-05-26T11:40:47Z</time>
      </trkpt>
      <trkpt lat="59.8173862" lon="17.6131058">
        <ele>23.6896</ele>
        <time>2013-05-26T11:40:48Z</time>
      </trkpt>
      <trkpt lat="59.8174288" lon="17.613168">
        <ele>23.6896</ele>
        <time>2013-05-26T11:40:49Z</time>
      </trkpt>
      <trkpt lat="59.8174725" lon="17.6132307">
        <ele>24.1703</ele>
        <time>2013-05-26T11:40:50Z</time>
      </trkpt>
      <trkpt lat="59.8175129" lon="17.6132974">
        <ele>24.1703</ele>
        <time>2013-05-26T11:40:51Z</time>
      </trkpt>
      <trkpt lat="59.8175524" lon="17.6133649">
        <ele>23.6896</ele>
        <time>2013-05-26T11:40:52Z</time>
      </trkpt>
      <trkpt lat="59.8175946" lon="17.6134302">
        <ele>23.6896</ele>
        <time>2013-05-26T11:40:53Z</time>
      </trkpt>
      <trkpt lat="59.8176336" lon="17.6134969">
        <ele>23.209</ele>
        <time>2013-05-26T11:40:54Z</time>
      </trkpt>
      <trkpt lat="59.8176708" lon="17.6135665">
        <ele>22.7283</ele>
        <time>2013-05-26T11:40:55Z</time>
      </trkpt>
      <trkpt lat="59.8177075" lon="17.6136339">
        <ele>22.2476</ele>
        <time>2013-05-26T11:40:56Z</time>
      </trkpt>
      <trkpt lat="59.8177434" lon="17.613703">
        <ele>22.2476</ele>
        <time>2013-05-26T11:40:57Z</time>
      </trkpt>
      <trkpt lat="59.8177804" lon="17.6137747">
        <ele>22.7283</ele>
        <time>2013-05-26T11:40:58Z</time>
      </trkpt>
      <trkpt lat="59.817822" lon="17.6138406">
        <ele>23.6896</ele>
        <time>2013-05-26T11:40:59Z</time>
      </trkpt>
      <trkpt lat="59.8178599" lon="17.613913">
        <ele>23.6896</ele>
        <time>2013-05-26T11:41:00Z</time>
      </trkpt>
      <trkpt lat="59.8178967" lon="17.6139828">
        <ele>23.209</ele>
        <time>2013-05-26T11:41:01Z</time>
      </trkpt>
      <trkpt lat="59.8179361" lon="17.6140436">
        <ele>23.209</ele>
        <time>2013-05-26T11:41:02Z</time>
      </trkpt>
      <trkpt lat="59.8179752" lon="17.6141057">
        <ele>23.6896</ele>
        <time>2013-05-26T11:41:03Z</time>
      </trkpt>
      <trkpt lat="59.8180128" lon="17.6141662">
        <ele>23.6896</ele>
        <time>2013-05-26T11:41:04Z</time>
      </trkpt>
      <trkpt lat="59.818051" lon="17.614233">
        <ele>24.1703</ele>
        <time>2013-05-26T11:41:05Z</time>
      </trkpt>
      <trkpt lat="59.818081" lon="17.6143104">
        <ele>24.1703</ele>
        <time>2013-05-26T11:41:06Z</time>
      </trkpt>
      <trkpt lat="59.8181024" lon="17.6143994">
        <ele>24.1703</ele>
        <time>2013-05-26T11:41:07Z</time>
      </trkpt>
      <trkpt lat="59.8181205" lon="17.6144952">
        <ele>23.6896</ele>
        <time>2013-05-26T11:41:08Z</time>
      </trkpt>
      <trkpt lat="59.8181473" lon="17.6145863">
        <ele>23.6896</ele>
        <time>2013-05-26T11:41:09Z</time>
      </trkpt>
      <trkpt lat="59.8181846" lon="17.6146618">
        <ele>23.209</ele>
        <time>2013-05-26T11:41:10Z</time>
      </trkpt>
      <trkpt lat="59.8182293" lon="17.6147139">
        <ele>23.209</ele>
        <time>2013-05-26T11:41:11Z</time>
      </trkpt>
      <trkpt lat="59.8182778" lon="17.6147455">
        <ele>22.2476</ele>
        <time>2013-05-26T11:41:12Z</time>
      </trkpt>
      <trkpt lat="59.818329" lon="17.6147707">
        <ele>21.767</ele>
        <time>2013-05-26T11:41:13Z</time>
      </trkpt>
      <trkpt lat="59.8183804" lon="17.6147982">
        <ele>21.767</ele>
        <time>2013-05-26T11:41:14Z</time>
      </trkpt>
      <trkpt lat="59.8184284" lon="17.614844">
        <ele>21.767</ele>
        <time>2013-05-26T11:41:15Z</time>
      </trkpt>
      <trkpt lat="59.8184721" lon="17.6149041">
        <ele>21.767</ele>
        <time>2013-05-26T11:41:16Z</time>
      </trkpt>
      <trkpt lat="59.8185149" lon="17.6149675">
        <ele>21.767</ele>
        <time>2013-05-26T11:41:17Z</time>
      </trkpt>
      <trkpt lat="59.818558" lon="17.6150345">
        <ele>21.767</ele>
        <time>2013-05-26T11:41:18Z</time>
      </trkpt>
      <trkpt lat="59.8186031" lon="17.6151028">
        <ele>22.2476</ele>
        <time>2013-05-26T11:41:19Z</time>
      </trkpt>
      <trkpt lat="59.8186491" lon="17.6151713">
        <ele>22.7283</ele>
        <time>2013-05-26T11:41:20Z</time>
      </trkpt>
      <trkpt lat="59.8187073" lon="17.6152412">
        <ele>24.1703</ele>
        <time>2013-05-26T11:41:21Z</time>
      </trkpt>
      <trkpt lat="59.8187654" lon="17.6153102">
        <ele>25.6123</ele>
        <time>2013-05-26T11:41:22Z</time>
      </trkpt>
      <trkpt lat="59.8188219" lon="17.6153768">
        <ele>27.0543</ele>
        <time>2013-05-26T11:41:23Z</time>
      </trkpt>
      <trkpt lat="59.8188708" lon="17.6154483">
        <ele>27.5349</ele>
        <time>2013-05-26T11:41:24Z</time>
      </trkpt>
      <trkpt lat="59.8189144" lon="17.6155188">
        <ele>28.0155</ele>
        <time>2013-05-26T11:41:25Z</time>
      </trkpt>
      <trkpt lat="59.8189545" lon="17.6155846">
        <ele>28.0155</ele>
        <time>2013-05-26T11:41:26Z</time>
      </trkpt>
      <trkpt lat="59.818993" lon="17.6156438">
        <ele>28.4962</ele>
        <time>2013-05-26T11:41:27Z</time>
      </trkpt>
      <trkpt lat="59.8190286" lon="17.6156954">
        <ele>28.9769</ele>
        <time>2013-05-26T11:41:28Z</time>
      </trkpt>
      <trkpt lat="59.8190631" lon="17.6157471">
        <ele>29.4575</ele>
        <time>2013-05-26T11:41:29Z</time>
      </trkpt>
      <trkpt lat="59.8190962" lon="17.6157975">
        <ele>29.4575</ele>
        <time>2013-05-26T11:41:30Z</time>
      </trkpt>
      <trkpt lat="59.8191298" lon="17.6158544">
        <ele>29.9381</ele>
        <time>2013-05-26T11:41:31Z</time>
      </trkpt>
      <trkpt lat="59.8191648" lon="17.6159069">
        <ele>29.9381</ele>
        <time>2013-05-26T11:41:32Z</time>
      </trkpt>
      <trkpt lat="59.8191997" lon="17.6159595">
        <ele>30.4188</ele>
        <time>2013-05-26T11:41:33Z</time>
      </trkpt>
      <trkpt lat="59.8192357" lon="17.6160077">
        <ele>30.4188</ele>
        <time>2013-05-26T11:41:34Z</time>
      </trkpt>
      <trkpt lat="59.8192715" lon="17.6160529">
        <ele>30.8995</ele>
        <time>2013-05-26T11:41:35Z</time>
      </trkpt>
      <trkpt lat="59.8193061" lon="17.6161036">
        <ele>31.3801</ele>
        <time>2013-05-26T11:41:36Z</time>
      </trkpt>
      <trkpt lat="59.8193424" lon="17.6161584">
        <ele>31.8607</ele>
        <time>2013-05-26T11:41:37Z</time>
      </trkpt>
      <trkpt lat="59.81938" lon="17.6162169">
        <ele>31.8607</ele>
        <time>2013-05-26T11:41:38Z</time>
      </trkpt>
      <trkpt lat="59.8194173" lon="17.6162755">
        <ele>31.8607</ele>
        <time>2013-05-26T11:41:39Z</time>
      </trkpt>
      <trkpt lat="59.8194532" lon="17.6163348">
        <ele>31.8607</ele>
        <time>2013-05-26T11:41:40Z</time>
      </trkpt>
      <trkpt lat="59.8194967" lon="17.616392">
        <ele>32.8223</ele>
        <time>2013-05-26T11:41:41Z</time>
      </trkpt>
      <trkpt lat="59.8195356" lon="17.6164449">
        <ele>32.8223</ele>
        <time>2013-05-26T11:41:42Z</time>
      </trkpt>
      <trkpt lat="59.8195713" lon="17.6164902">
        <ele>31.8607</ele>
        <time>2013-05-26T11:41:43Z</time>
      </trkpt>
      <trkpt lat="59.8196144" lon="17.6165289">
        <ele>31.8607</ele>
        <time>2013-05-26T11:41:44Z</time>
      </trkpt>
      <trkpt lat="59.8196604" lon="17.6165695">
        <ele>31.8607</ele>
        <time>2013-05-26T11:41:45Z</time>
      </trkpt>
      <trkpt lat="59.819705" lon="17.61662">
        <ele>31.8607</ele>
        <time>2013-05-26T11:41:46Z</time>
      </trkpt>
      <trkpt lat="59.8197479" lon="17.6166813">
        <ele>31.8607</ele>
        <time>2013-05-26T11:41:47Z</time>
      </trkpt>
      <trkpt lat="59.8197906" lon="17.6167419">
        <ele>31.3801</ele>
        <time>2013-05-26T11:41:48Z</time>
      </trkpt>
      <trkpt lat="59.819834" lon="17.6168017">
        <ele>31.3801</ele>
        <time>2013-05-26T11:41:49Z</time>
      </trkpt>
      <trkpt lat="59.819884" lon="17.6168619">
        <ele>32.3416</ele>
        <time>2013-05-26T11:41:50Z</time>
      </trkpt>
      <trkpt lat="59.8199335" lon="17.616921">
        <ele>33.3029</ele>
        <time>2013-05-26T11:41:51Z</time>
      </trkpt>
      <trkpt lat="59.8199793" lon="17.6169813">
        <ele>33.7834</ele>
        <time>2013-05-26T11:41:52Z</time>
      </trkpt>
      <trkpt lat="59.8200225" lon="17.6170442">
        <ele>34.2642</ele>
        <time>2013-05-26T11:41:53Z</time>
      </trkpt>
      <trkpt lat="59.8200649" lon="17.6171081">
        <ele>34.7449</ele>
        <time>2013-05-26T11:41:54Z</time>
      </trkpt>
      <trkpt lat="59.8201065" lon="17.617174">
        <ele>34.7449</ele>
        <time>2013-05-26T11:41:55Z</time>
      </trkpt>
      <trkpt lat="59.8201443" lon="17.6172428">
        <ele>35.2255</ele>
        <time>2013-05-26T11:41:56Z</time>
      </trkpt>
      <trkpt lat="59.8201796" lon="17.6173126">
        <ele>35.2255</ele>
        <time>2013-05-26T11:41:57Z</time>
      </trkpt>
      <trkpt lat="59.8202148" lon="17.6173832">
        <ele>35.2255</ele>
        <time>2013-05-26T11:41:58Z</time>
      </trkpt>
      <trkpt lat="59.8202536" lon="17.617451">
        <ele>35.2255</ele>
        <time>2013-05-26T11:41:59Z</time>
      </trkpt>
      <trkpt lat="59.8202975" lon="17.6175014">
        <ele>34.7449</ele>
        <time>2013-05-26T11:42:00Z</time>
      </trkpt>
      <trkpt lat="59.8203468" lon="17.6175215">
        <ele>33.7834</ele>
        <time>2013-05-26T11:42:01Z</time>
      </trkpt>
      <trkpt lat="59.8203971" lon="17.6175073">
        <ele>33.3029</ele>
        <time>2013-05-26T11:42:02Z</time>
      </trkpt>
      <trkpt lat="59.8204474" lon="17.6174618">
        <ele>33.3029</ele>
        <time>2013-05-26T11:42:03Z</time>
      </trkpt>
      <trkpt lat="59.8205057" lon="17.6174006">
        <ele>34.2642</ele>
        <time>2013-05-26T11:42:04Z</time>
      </trkpt>
      <trkpt lat="59.8205566" lon="17.6173293">
        <ele>34.7449</ele>
        <time>2013-05-26T11:42:05Z</time>
      </trkpt>
      <trkpt lat="59.8206077" lon="17.6172557">
        <ele>35.2255</ele>
        <time>2013-05-26T11:42:06Z</time>
      </trkpt>
      <trkpt lat="59.8206618" lon="17.6171806">
        <ele>35.7061</ele>
        <time>2013-05-26T11:42:07Z</time>
      </trkpt>
      <trkpt lat="59.8207094" lon="17.6171049">
        <ele>35.7061</ele>
        <time>2013-05-26T11:42:08Z</time>
      </trkpt>
      <trkpt lat="59.8207638" lon="17.6170331">
        <ele>36.1868</ele>
        <time>2013-05-26T11:42:09Z</time>
      </trkpt>
      <trkpt lat="59.8208191" lon="17.6169611">
        <ele>36.6675</ele>
        <time>2013-05-26T11:42:10Z</time>
      </trkpt>
      <trkpt lat="59.8208721" lon="17.6168899">
        <ele>36.6675</ele>
        <time>2013-05-26T11:42:11Z</time>
      </trkpt>
      <trkpt lat="59.8209265" lon="17.6168214">
        <ele>36.1868</ele>
        <time>2013-05-26T11:42:12Z</time>
      </trkpt>
      <trkpt lat="59.8209848" lon="17.6167521">
        <ele>36.6675</ele>
        <time>2013-05-26T11:42:13Z</time>
      </trkpt>
      <trkpt lat="59.8210429" lon="17.6166792">
        <ele>37.1481</ele>
        <time>2013-05-26T11:42:14Z</time>
      </trkpt>
      <trkpt lat="59.8210998" lon="17.616606">
        <ele>37.6287</ele>
        <time>2013-05-26T11:42:15Z</time>
      </trkpt>
      <trkpt lat="59.8211573" lon="17.6165337">
        <ele>37.6287</ele>
        <time>2013-05-26T11:42:16Z</time>
      </trkpt>
      <trkpt lat="59.8212153" lon="17.6164588">
        <ele>37.6287</ele>
        <time>2013-05-26T11:42:17Z</time>
      </trkpt>
      <trkpt lat="59.8212782" lon="17.6163803">
        <ele>39.0707</ele>
        <time>2013-05-26T11:42:18Z</time>
      </trkpt>
      <trkpt lat="59.8213414" lon="17.6163057">
        <ele>40.5128</ele>
        <time>2013-05-26T11:42:19Z</time>
      </trkpt>
      <trkpt lat="59.821404" lon="17.6162296">
        <ele>40.9934</ele>
        <time>2013-05-26T11:42:20Z</time>
      </trkpt>
      <trkpt lat="59.8214648" lon="17.6161573">
        <ele>41.474</ele>
        <time>2013-05-26T11:42:21Z</time>
      </trkpt>
      <trkpt lat="59.8215264" lon="17.6160917">
        <ele>41.474</ele>
        <time>2013-05-26T11:42:22Z</time>
      </trkpt>
      <trkpt lat="59.8215896" lon="17.6160327">
        <ele>40.9934</ele>
        <time>2013-05-26T11:42:23Z</time>
      </trkpt>
      <trkpt lat="59.8216544" lon="17.6159859">
        <ele>40.5128</ele>
        <time>2013-05-26T11:42:24Z</time>
      </trkpt>
      <trkpt lat="59.8217261" lon="17.6159476">
        <ele>40.9934</ele>
        <time>2013-05-26T11:42:25Z</time>
      </trkpt>
      <trkpt lat="59.8217958" lon="17.6159206">
        <ele>41.474</ele>
        <time>2013-05-26T11:42:26Z</time>
      </trkpt>
      <trkpt lat="59.8218651" lon="17.6158965">
        <ele>41.9547</ele>
        <time>2013-05-26T11:42:27Z</time>
      </trkpt>
      <trkpt lat="59.8219323" lon="17.6158704">
        <ele>41.9547</ele>
        <time>2013-05-26T11:42:28Z</time>
      </trkpt>
      <trkpt lat="59.8220014" lon="17.6158507">
        <ele>41.9547</ele>
        <time>2013-05-26T11:42:29Z</time>
      </trkpt>
      <trkpt lat="59.822069" lon="17.6158486">
        <ele>41.474</ele>
        <time>2013-05-26T11:42:30Z</time>
      </trkpt>
      <trkpt lat="59.8221307" lon="17.6158536">
        <ele>39.5513</ele>
        <time>2013-05-26T11:42:31Z</time>
      </trkpt>
      <trkpt lat="59.8221936" lon="17.6158531">
        <ele>38.5901</ele>
        <time>2013-05-26T11:42:32Z</time>
      </trkpt>
      <trkpt lat="59.8222566" lon="17.6158498">
        <ele>37.1481</ele>
        <time>2013-05-26T11:42:33Z</time>
      </trkpt>
      <trkpt lat="59.8223183" lon="17.6158468">
        <ele>36.1868</ele>
        <time>2013-05-26T11:42:34Z</time>
      </trkpt>
      <trkpt lat="59.8223764" lon="17.6158489">
        <ele>35.2255</ele>
        <time>2013-05-26T11:42:35Z</time>
      </trkpt>
      <trkpt lat="59.8224328" lon="17.6158508">
        <ele>34.2642</ele>
        <time>2013-05-26T11:42:36Z</time>
      </trkpt>
      <trkpt lat="59.8224898" lon="17.6158596">
        <ele>33.7834</ele>
        <time>2013-05-26T11:42:37Z</time>
      </trkpt>
      <trkpt lat="59.8225493" lon="17.615868">
        <ele>32.8223</ele>
        <time>2013-05-26T11:42:38Z</time>
      </trkpt>
      <trkpt lat="59.82261" lon="17.6158764">
        <ele>31.8607</ele>
        <time>2013-05-26T11:42:39Z</time>
      </trkpt>
      <trkpt lat="59.8226709" lon="17.6158844">
        <ele>31.3801</ele>
        <time>2013-05-26T11:42:40Z</time>
      </trkpt>
      <trkpt lat="59.8227287" lon="17.6159017">
        <ele>30.4188</ele>
        <time>2013-05-26T11:42:41Z</time>
      </trkpt>
      <trkpt lat="59.8227913" lon="17.6159256">
        <ele>29.9381</ele>
        <time>2013-05-26T11:42:42Z</time>
      </trkpt>
      <trkpt lat="59.8228478" lon="17.615954">
        <ele>28.9769</ele>
        <time>2013-05-26T11:42:43Z</time>
      </trkpt>
      <trkpt lat="59.8229052" lon="17.6159788">
        <ele>28.4962</ele>
        <time>2013-05-26T11:42:44Z</time>
      </trkpt>
      <trkpt lat="59.8229622" lon="17.6159945">
        <ele>27.0543</ele>
        <time>2013-05-26T11:42:45Z</time>
      </trkpt>
      <trkpt lat="59.8230188" lon="17.6160078">
        <ele>26.0929</ele>
        <time>2013-05-26T11:42:46Z</time>
      </trkpt>
      <trkpt lat="59.8230777" lon="17.616023">
        <ele>26.0929</ele>
        <time>2013-05-26T11:42:47Z</time>
      </trkpt>
      <trkpt lat="59.8231348" lon="17.6160418">
        <ele>26.0929</ele>
        <time>2013-05-26T11:42:48Z</time>
      </trkpt>
      <trkpt lat="59.8231928" lon="17.6160616">
        <ele>26.0929</ele>
        <time>2013-05-26T11:42:49Z</time>
      </trkpt>
      <trkpt lat="59.8232485" lon="17.6160886">
        <ele>25.6123</ele>
        <time>2013-05-26T11:42:50Z</time>
      </trkpt>
      <trkpt lat="59.823302" lon="17.6161171">
        <ele>25.1317</ele>
        <time>2013-05-26T11:42:51Z</time>
      </trkpt>
      <trkpt lat="59.8233579" lon="17.6161444">
        <ele>24.651</ele>
        <time>2013-05-26T11:42:52Z</time>
      </trkpt>
      <trkpt lat="59.8234137" lon="17.6161772">
        <ele>24.651</ele>
        <time>2013-05-26T11:42:53Z</time>
      </trkpt>
      <trkpt lat="59.82347" lon="17.616213">
        <ele>24.1703</ele>
        <time>2013-05-26T11:42:54Z</time>
      </trkpt>
      <trkpt lat="59.8235268" lon="17.6162513">
        <ele>23.6896</ele>
        <time>2013-05-26T11:42:55Z</time>
      </trkpt>
      <trkpt lat="59.8235853" lon="17.6162902">
        <ele>23.209</ele>
        <time>2013-05-26T11:42:56Z</time>
      </trkpt>
      <trkpt lat="59.8236463" lon="17.6163331">
        <ele>23.209</ele>
        <time>2013-05-26T11:42:57Z</time>
      </trkpt>
      <trkpt lat="59.8237066" lon="17.6163813">
        <ele>23.209</ele>
        <time>2013-05-26T11:42:58Z</time>
      </trkpt>
      <trkpt lat="59.8237668" lon="17.6164329">
        <ele>23.209</ele>
        <time>2013-05-26T11:42:59Z</time>
      </trkpt>
      <trkpt lat="59.8238256" lon="17.6164891">
        <ele>22.7283</ele>
        <time>2013-05-26T11:43:00Z</time>
      </trkpt>
      <trkpt lat="59.8238843" lon="17.6165455">
        <ele>22.7283</ele>
        <time>2013-05-26T11:43:01Z</time>
      </trkpt>
      <trkpt lat="59.8239444" lon="17.6166">
        <ele>22.7283</ele>
        <time>2013-05-26T11:43:02Z</time>
      </trkpt>
      <trkpt lat="59.8240012" lon="17.6166575">
        <ele>22.7283</ele>
        <time>2013-05-26T11:43:03Z</time>
      </trkpt>
      <trkpt lat="59.8240583" lon="17.6167123">
        <ele>22.2476</ele>
        <time>2013-05-26T11:43:04Z</time>
      </trkpt>
      <trkpt lat="59.8241139" lon="17.616767">
        <ele>21.767</ele>
        <time>2013-05-26T11:43:05Z</time>
      </trkpt>
      <trkpt lat="59.8241691" lon="17.6168228">
        <ele>21.2864</ele>
        <time>2013-05-26T11:43:06Z</time>
      </trkpt>
      <trkpt lat="59.8242277" lon="17.6168833">
        <ele>20.8057</ele>
        <time>2013-05-26T11:43:07Z</time>
      </trkpt>
      <trkpt lat="59.8242853" lon="17.6169413">
        <ele>20.325</ele>
        <time>2013-05-26T11:43:08Z</time>
      </trkpt>
      <trkpt lat="59.8243483" lon="17.6169966">
        <ele>20.325</ele>
        <time>2013-05-26T11:43:09Z</time>
      </trkpt>
      <trkpt lat="59.8244112" lon="17.6170542">
        <ele>19.8444</ele>
        <time>2013-05-26T11:43:10Z</time>
      </trkpt>
      <trkpt lat="59.8244757" lon="17.6171138">
        <ele>19.3638</ele>
        <time>2013-05-26T11:43:11Z</time>
      </trkpt>
      <trkpt lat="59.8245364" lon="17.6171676">
        <ele>18.8831</ele>
        <time>2013-05-26T11:43:12Z</time>
      </trkpt>
      <trkpt lat="59.8245963" lon="17.6172308">
        <ele>17.9218</ele>
        <time>2013-05-26T11:43:13Z</time>
      </trkpt>
      <trkpt lat="59.8246596" lon="17.6172977">
        <ele>17.4412</ele>
        <time>2013-05-26T11:43:14Z</time>
      </trkpt>
      <trkpt lat="59.8247262" lon="17.61736">
        <ele>17.9218</ele>
        <time>2013-05-26T11:43:15Z</time>
      </trkpt>
      <trkpt lat="59.8247872" lon="17.6174226">
        <ele>17.4412</ele>
        <time>2013-05-26T11:43:16Z</time>
      </trkpt>
      <trkpt lat="59.8248523" lon="17.6174834">
        <ele>17.9218</ele>
        <time>2013-05-26T11:43:17Z</time>
      </trkpt>
      <trkpt lat="59.8249142" lon="17.6175485">
        <ele>17.9218</ele>
        <time>2013-05-26T11:43:18Z</time>
      </trkpt>
      <trkpt lat="59.8249743" lon="17.6176137">
        <ele>17.4412</ele>
        <time>2013-05-26T11:43:19Z</time>
      </trkpt>
      <trkpt lat="59.8250356" lon="17.6176758">
        <ele>16.9604</ele>
        <time>2013-05-26T11:43:20Z</time>
      </trkpt>
      <trkpt lat="59.8250985" lon="17.617738">
        <ele>17.4412</ele>
        <time>2013-05-26T11:43:21Z</time>
      </trkpt>
      <trkpt lat="59.8251618" lon="17.6178033">
        <ele>17.4412</ele>
        <time>2013-05-26T11:43:22Z</time>
      </trkpt>
      <trkpt lat="59.825226" lon="17.6178654">
        <ele>17.4412</ele>
        <time>2013-05-26T11:43:23Z</time>
      </trkpt>
      <trkpt lat="59.8252865" lon="17.6179246">
        <ele>16.9604</ele>
        <time>2013-05-26T11:43:24Z</time>
      </trkpt>
      <trkpt lat="59.8253472" lon="17.6179823">
        <ele>16.4797</ele>
        <time>2013-05-26T11:43:25Z</time>
      </trkpt>
      <trkpt lat="59.8254127" lon="17.6180479">
        <ele>17.4412</ele>
        <time>2013-05-26T11:43:26Z</time>
      </trkpt>
      <trkpt lat="59.8254677" lon="17.618113">
        <ele>16.9604</ele>
        <time>2013-05-26T11:43:27Z</time>
      </trkpt>
      <trkpt lat="59.8255259" lon="17.6181732">
        <ele>16.9604</ele>
        <time>2013-05-26T11:43:28Z</time>
      </trkpt>
      <trkpt lat="59.8255832" lon="17.6182309">
        <ele>17.4412</ele>
        <time>2013-05-26T11:43:29Z</time>
      </trkpt>
      <trkpt lat="59.8256355" lon="17.6182933">
        <ele>17.9218</ele>
        <time>2013-05-26T11:43:30Z</time>
      </trkpt>
      <trkpt lat="59.8256839" lon="17.6183544">
        <ele>17.9218</ele>
        <time>2013-05-26T11:43:31Z</time>
      </trkpt>
      <trkpt lat="59.8257321" lon="17.6184084">
        <ele>17.9218</ele>
        <time>2013-05-26T11:43:32Z</time>
      </trkpt>
      <trkpt lat="59.825776" lon="17.61846">
        <ele>16.9604</ele>
        <time>2013-05-26T11:43:33Z</time>
      </trkpt>
      <trkpt lat="59.8258263" lon="17.6185135">
        <ele>17.4412</ele>
        <time>2013-05-26T11:43:34Z</time>
      </trkpt>
      <trkpt lat="59.8258758" lon="17.6185534">
        <ele>15.999</ele>
        <time>2013-05-26T11:43:35Z</time>
      </trkpt>
      <trkpt lat="59.8259346" lon="17.618587">
        <ele>15.999</ele>
        <time>2013-05-26T11:43:36Z</time>
      </trkpt>
      <trkpt lat="59.826047" lon="17.6186159">
        <ele>22.2476</ele>
        <time>2013-05-26T11:43:37Z</time>
      </trkpt>
      <trkpt lat="59.8261475" lon="17.6186457">
        <ele>27.5349</ele>
        <time>2013-05-26T11:43:38Z</time>
      </trkpt>
      <trkpt lat="59.8262086" lon="17.6186824">
        <ele>27.5349</ele>
        <time>2013-05-26T11:43:39Z</time>
      </trkpt>
      <trkpt lat="59.8262744" lon="17.6187113">
        <ele>28.0155</ele>
        <time>2013-05-26T11:43:40Z</time>
      </trkpt>
      <trkpt lat="59.8263376" lon="17.6187393">
        <ele>28.0155</ele>
        <time>2013-05-26T11:43:41Z</time>
      </trkpt>
      <trkpt lat="59.8264021" lon="17.6187713">
        <ele>28.0155</ele>
        <time>2013-05-26T11:43:42Z</time>
      </trkpt>
      <trkpt lat="59.8264604" lon="17.6188117">
        <ele>27.0543</ele>
        <time>2013-05-26T11:43:43Z</time>
      </trkpt>
      <trkpt lat="59.8265211" lon="17.6188422">
        <ele>26.5736</ele>
        <time>2013-05-26T11:43:44Z</time>
      </trkpt>
      <trkpt lat="59.826581" lon="17.6188705">
        <ele>26.0929</ele>
        <time>2013-05-26T11:43:45Z</time>
      </trkpt>
      <trkpt lat="59.8266536" lon="17.6188982">
        <ele>27.0543</ele>
        <time>2013-05-26T11:43:46Z</time>
      </trkpt>
      <trkpt lat="59.8267244" lon="17.6189199">
        <ele>28.0155</ele>
        <time>2013-05-26T11:43:47Z</time>
      </trkpt>
      <trkpt lat="59.8267945" lon="17.6189425">
        <ele>28.0155</ele>
        <time>2013-05-26T11:43:48Z</time>
      </trkpt>
      <trkpt lat="59.8268543" lon="17.6189657">
        <ele>27.0543</ele>
        <time>2013-05-26T11:43:49Z</time>
      </trkpt>
      <trkpt lat="59.8269114" lon="17.6189884">
        <ele>25.6123</ele>
        <time>2013-05-26T11:43:50Z</time>
      </trkpt>
      <trkpt lat="59.8269716" lon="17.6190106">
        <ele>26.0929</ele>
        <time>2013-05-26T11:43:51Z</time>
      </trkpt>
      <trkpt lat="59.827032" lon="17.6190298">
        <ele>26.0929</ele>
        <time>2013-05-26T11:43:52Z</time>
      </trkpt>
      <trkpt lat="59.8270959" lon="17.619045">
        <ele>26.0929</ele>
        <time>2013-05-26T11:43:53Z</time>
      </trkpt>
      <trkpt lat="59.8271639" lon="17.6190589">
        <ele>26.5736</ele>
        <time>2013-05-26T11:43:54Z</time>
      </trkpt>
      <trkpt lat="59.8272312" lon="17.6190755">
        <ele>27.5349</ele>
        <time>2013-05-26T11:43:55Z</time>
      </trkpt>
      <trkpt lat="59.8272922" lon="17.6190974">
        <ele>27.5349</ele>
        <time>2013-05-26T11:43:56Z</time>
      </trkpt>
      <trkpt lat="59.8273563" lon="17.6191195">
        <ele>28.9769</ele>
        <time>2013-05-26T11:43:57Z</time>
      </trkpt>
      <trkpt lat="59.8274149" lon="17.6191324">
        <ele>29.4575</ele>
        <time>2013-05-26T11:43:58Z</time>
      </trkpt>
      <trkpt lat="59.8274736" lon="17.6191361">
        <ele>29.9381</ele>
        <time>2013-05-26T11:43:59Z</time>
      </trkpt>
      <trkpt lat="59.8275357" lon="17.6191392">
        <ele>29.9381</ele>
        <time>2013-05-26T11:44:00Z</time>
      </trkpt>
      <trkpt lat="59.8275963" lon="17.6191397">
        <ele>29.4575</ele>
        <time>2013-05-26T11:44:01Z</time>
      </trkpt>
      <trkpt lat="59.8276584" lon="17.6191378">
        <ele>29.4575</ele>
        <time>2013-05-26T11:44:02Z</time>
      </trkpt>
      <trkpt lat="59.8277212" lon="17.6191333">
        <ele>28.4962</ele>
        <time>2013-05-26T11:44:03Z</time>
      </trkpt>
      <trkpt lat="59.8277795" lon="17.6191242">
        <ele>26.5736</ele>
        <time>2013-05-26T11:44:04Z</time>
      </trkpt>
      <trkpt lat="59.8278432" lon="17.6191144">
        <ele>26.5736</ele>
        <time>2013-05-26T11:44:05Z</time>
      </trkpt>
      <trkpt lat="59.8279091" lon="17.6191035">
        <ele>26.0929</ele>
        <time>2013-05-26T11:44:06Z</time>
      </trkpt>
      <trkpt lat="59.8279714" lon="17.6190956">
        <ele>25.6123</ele>
        <time>2013-05-26T11:44:07Z</time>
      </trkpt>
      <trkpt lat="59.828038" lon="17.6190782">
        <ele>25.1317</ele>
        <time>2013-05-26T11:44:08Z</time>
      </trkpt>
      <trkpt lat="59.828101" lon="17.6190575">
        <ele>24.651</ele>
        <time>2013-05-26T11:44:09Z</time>
      </trkpt>
      <trkpt lat="59.8281713" lon="17.6190227">
        <ele>23.6896</ele>
        <time>2013-05-26T11:44:10Z</time>
      </trkpt>
      <trkpt lat="59.8282465" lon="17.6189748">
        <ele>24.651</ele>
        <time>2013-05-26T11:44:11Z</time>
      </trkpt>
      <trkpt lat="59.8283216" lon="17.6189359">
        <ele>25.6123</ele>
        <time>2013-05-26T11:44:12Z</time>
      </trkpt>
      <trkpt lat="59.8283923" lon="17.6188899">
        <ele>25.6123</ele>
        <time>2013-05-26T11:44:13Z</time>
      </trkpt>
      <trkpt lat="59.828464" lon="17.6188525">
        <ele>26.5736</ele>
        <time>2013-05-26T11:44:14Z</time>
      </trkpt>
      <trkpt lat="59.8285328" lon="17.6188196">
        <ele>26.0929</ele>
        <time>2013-05-26T11:44:15Z</time>
      </trkpt>
      <trkpt lat="59.8286014" lon="17.6187658">
        <ele>25.6123</ele>
        <time>2013-05-26T11:44:16Z</time>
      </trkpt>
      <trkpt lat="59.8286663" lon="17.6187135">
        <ele>23.6896</ele>
        <time>2013-05-26T11:44:17Z</time>
      </trkpt>
      <trkpt lat="59.8287307" lon="17.6186662">
        <ele>23.209</ele>
        <time>2013-05-26T11:44:18Z</time>
      </trkpt>
      <trkpt lat="59.8287959" lon="17.6186021">
        <ele>22.7283</ele>
        <time>2013-05-26T11:44:19Z</time>
      </trkpt>
      <trkpt lat="59.8288628" lon="17.618546">
        <ele>22.7283</ele>
        <time>2013-05-26T11:44:20Z</time>
      </trkpt>
      <trkpt lat="59.8289286" lon="17.6184977">
        <ele>23.209</ele>
        <time>2013-05-26T11:44:21Z</time>
      </trkpt>
      <trkpt lat="59.8289942" lon="17.6184428">
        <ele>24.1703</ele>
        <time>2013-05-26T11:44:22Z</time>
      </trkpt>
      <trkpt lat="59.8290654" lon="17.618387">
        <ele>26.5736</ele>
        <time>2013-05-26T11:44:23Z</time>
      </trkpt>
      <trkpt lat="59.8291359" lon="17.618328">
        <ele>28.9769</ele>
        <time>2013-05-26T11:44:24Z</time>
      </trkpt>
      <trkpt lat="59.8292001" lon="17.6182513">
        <ele>29.4575</ele>
        <time>2013-05-26T11:44:25Z</time>
      </trkpt>
      <trkpt lat="59.8292633" lon="17.6181716">
        <ele>29.4575</ele>
        <time>2013-05-26T11:44:26Z</time>
      </trkpt>
      <trkpt lat="59.829328" lon="17.6180824">
        <ele>29.4575</ele>
        <time>2013-05-26T11:44:27Z</time>
      </trkpt>
      <trkpt lat="59.8293918" lon="17.6179916">
        <ele>29.4575</ele>
        <time>2013-05-26T11:44:28Z</time>
      </trkpt>
      <trkpt lat="59.8294549" lon="17.617901">
        <ele>29.4575</ele>
        <time>2013-05-26T11:44:29Z</time>
      </trkpt>
      <trkpt lat="59.8295187" lon="17.6178338">
        <ele>29.4575</ele>
        <time>2013-05-26T11:44:30Z</time>
      </trkpt>
      <trkpt lat="59.8295798" lon="17.6177733">
        <ele>28.4962</ele>
        <time>2013-05-26T11:44:31Z</time>
      </trkpt>
      <trkpt lat="59.8296425" lon="17.6177008">
        <ele>26.5736</ele>
        <time>2013-05-26T11:44:32Z</time>
      </trkpt>
      <trkpt lat="59.8297078" lon="17.6176381">
        <ele>27.0543</ele>
        <time>2013-05-26T11:44:33Z</time>
      </trkpt>
      <trkpt lat="59.8297733" lon="17.6175624">
        <ele>26.0929</ele>
        <time>2013-05-26T11:44:34Z</time>
      </trkpt>
      <trkpt lat="59.8298403" lon="17.6174836">
        <ele>26.0929</ele>
        <time>2013-05-26T11:44:35Z</time>
      </trkpt>
      <trkpt lat="59.8299051" lon="17.6174059">
        <ele>25.6123</ele>
        <time>2013-05-26T11:44:36Z</time>
      </trkpt>
      <trkpt lat="59.8299702" lon="17.6173246">
        <ele>25.6123</ele>
        <time>2013-05-26T11:44:37Z</time>
      </trkpt>
      <trkpt lat="59.8300388" lon="17.6172293">
        <ele>26.5736</ele>
        <time>2013-05-26T11:44:38Z</time>
      </trkpt>
      <trkpt lat="59.8301097" lon="17.6171468">
        <ele>28.0155</ele>
        <time>2013-05-26T11:44:39Z</time>
      </trkpt>
      <trkpt lat="59.8301816" lon="17.6170743">
        <ele>29.9381</ele>
        <time>2013-05-26T11:44:40Z</time>
      </trkpt>
      <trkpt lat="59.8302474" lon="17.6170008">
        <ele>29.9381</ele>
        <time>2013-05-26T11:44:41Z</time>
      </trkpt>
      <trkpt lat="59.8303165" lon="17.6169402">
        <ele>29.9381</ele>
        <time>2013-05-26T11:44:42Z</time>
      </trkpt>
      <trkpt lat="59.8303827" lon="17.6168808">
        <ele>29.9381</ele>
        <time>2013-05-26T11:44:43Z</time>
      </trkpt>
      <trkpt lat="59.830447" lon="17.616814">
        <ele>29.4575</ele>
        <time>2013-05-26T11:44:44Z</time>
      </trkpt>
      <trkpt lat="59.8305102" lon="17.6167391">
        <ele>29.4575</ele>
        <time>2013-05-26T11:44:45Z</time>
      </trkpt>
      <trkpt lat="59.8305723" lon="17.6166662">
        <ele>29.4575</ele>
        <time>2013-05-26T11:44:46Z</time>
      </trkpt>
      <trkpt lat="59.8306339" lon="17.6165979">
        <ele>28.9769</ele>
        <time>2013-05-26T11:44:47Z</time>
      </trkpt>
      <trkpt lat="59.8306946" lon="17.6165278">
        <ele>28.4962</ele>
        <time>2013-05-26T11:44:48Z</time>
      </trkpt>
      <trkpt lat="59.8307558" lon="17.6164419">
        <ele>28.9769</ele>
        <time>2013-05-26T11:44:49Z</time>
      </trkpt>
      <trkpt lat="59.8308153" lon="17.6163756">
        <ele>28.4962</ele>
        <time>2013-05-26T11:44:50Z</time>
      </trkpt>
      <trkpt lat="59.8308747" lon="17.6163108">
        <ele>27.5349</ele>
        <time>2013-05-26T11:44:51Z</time>
      </trkpt>
      <trkpt lat="59.8309354" lon="17.6162534">
        <ele>27.0543</ele>
        <time>2013-05-26T11:44:52Z</time>
      </trkpt>
      <trkpt lat="59.8309992" lon="17.6162007">
        <ele>28.0155</ele>
        <time>2013-05-26T11:44:53Z</time>
      </trkpt>
      <trkpt lat="59.831066" lon="17.6161556">
        <ele>28.4962</ele>
        <time>2013-05-26T11:44:54Z</time>
      </trkpt>
      <trkpt lat="59.8311312" lon="17.6161157">
        <ele>28.0155</ele>
        <time>2013-05-26T11:44:55Z</time>
      </trkpt>
      <trkpt lat="59.8312047" lon="17.6160772">
        <ele>27.5349</ele>
        <time>2013-05-26T11:44:56Z</time>
      </trkpt>
      <trkpt lat="59.8312789" lon="17.6160286">
        <ele>27.0543</ele>
        <time>2013-05-26T11:44:57Z</time>
      </trkpt>
      <trkpt lat="59.8313536" lon="17.6159758">
        <ele>25.1317</ele>
        <time>2013-05-26T11:44:58Z</time>
      </trkpt>
      <trkpt lat="59.8314291" lon="17.6159225">
        <ele>25.1317</ele>
        <time>2013-05-26T11:44:59Z</time>
      </trkpt>
      <trkpt lat="59.8315021" lon="17.615873">
        <ele>25.1317</ele>
        <time>2013-05-26T11:45:00Z</time>
      </trkpt>
      <trkpt lat="59.8315792" lon="17.6158192">
        <ele>26.0929</ele>
        <time>2013-05-26T11:45:01Z</time>
      </trkpt>
      <trkpt lat="59.8316575" lon="17.6157699">
        <ele>27.0543</ele>
        <time>2013-05-26T11:45:02Z</time>
      </trkpt>
      <trkpt lat="59.8317338" lon="17.6157342">
        <ele>27.5349</ele>
        <time>2013-05-26T11:45:03Z</time>
      </trkpt>
      <trkpt lat="59.8318114" lon="17.6157188">
        <ele>28.0155</ele>
        <time>2013-05-26T11:45:04Z</time>
      </trkpt>
      <trkpt lat="59.83189" lon="17.6156956">
        <ele>29.4575</ele>
        <time>2013-05-26T11:45:05Z</time>
      </trkpt>
      <trkpt lat="59.831972" lon="17.6156595">
        <ele>31.8607</ele>
        <time>2013-05-26T11:45:06Z</time>
      </trkpt>
      <trkpt lat="59.8320549" lon="17.6156254">
        <ele>32.8223</ele>
        <time>2013-05-26T11:45:07Z</time>
      </trkpt>
      <trkpt lat="59.8321347" lon="17.6156049">
        <ele>31.3801</ele>
        <time>2013-05-26T11:45:08Z</time>
      </trkpt>
      <trkpt lat="59.8322101" lon="17.6155857">
        <ele>31.8607</ele>
        <time>2013-05-26T11:45:09Z</time>
      </trkpt>
      <trkpt lat="59.8322867" lon="17.6155539">
        <ele>30.4188</ele>
        <time>2013-05-26T11:45:10Z</time>
      </trkpt>
      <trkpt lat="59.832362" lon="17.615511">
        <ele>28.9769</ele>
        <time>2013-05-26T11:45:11Z</time>
      </trkpt>
      <trkpt lat="59.8324331" lon="17.6154645">
        <ele>30.4188</ele>
        <time>2013-05-26T11:45:12Z</time>
      </trkpt>
      <trkpt lat="59.8325067" lon="17.6154145">
        <ele>31.3801</ele>
        <time>2013-05-26T11:45:13Z</time>
      </trkpt>
      <trkpt lat="59.8325753" lon="17.6153511">
        <ele>30.8995</ele>
        <time>2013-05-26T11:45:14Z</time>
      </trkpt>
      <trkpt lat="59.8326437" lon="17.6152857">
        <ele>30.4188</ele>
        <time>2013-05-26T11:45:15Z</time>
      </trkpt>
      <trkpt lat="59.8327121" lon="17.6152236">
        <ele>31.3801</ele>
        <time>2013-05-26T11:45:16Z</time>
      </trkpt>
      <trkpt lat="59.8327888" lon="17.6151609">
        <ele>34.2642</ele>
        <time>2013-05-26T11:45:17Z</time>
      </trkpt>
      <trkpt lat="59.8328598" lon="17.6151079">
        <ele>36.1868</ele>
        <time>2013-05-26T11:45:18Z</time>
      </trkpt>
      <trkpt lat="59.8329225" lon="17.615045">
        <ele>33.7834</ele>
        <time>2013-05-26T11:45:19Z</time>
      </trkpt>
      <trkpt lat="59.8329909" lon="17.6149776">
        <ele>33.3029</ele>
        <time>2013-05-26T11:45:20Z</time>
      </trkpt>
      <trkpt lat="59.8330577" lon="17.6149122">
        <ele>32.3416</ele>
        <time>2013-05-26T11:45:21Z</time>
      </trkpt>
      <trkpt lat="59.833123" lon="17.6148625">
        <ele>31.8607</ele>
        <time>2013-05-26T11:45:22Z</time>
      </trkpt>
      <trkpt lat="59.8331908" lon="17.6147968">
        <ele>31.3801</ele>
        <time>2013-05-26T11:45:23Z</time>
      </trkpt>
      <trkpt lat="59.8332577" lon="17.6147328">
        <ele>31.3801</ele>
        <time>2013-05-26T11:45:24Z</time>
      </trkpt>
      <trkpt lat="59.8333276" lon="17.6146701">
        <ele>31.3801</ele>
        <time>2013-05-26T11:45:25Z</time>
      </trkpt>
      <trkpt lat="59.8333971" lon="17.6146041">
        <ele>30.8995</ele>
        <time>2013-05-26T11:45:26Z</time>
      </trkpt>
      <trkpt lat="59.8334675" lon="17.6145301">
        <ele>29.9381</ele>
        <time>2013-05-26T11:45:27Z</time>
      </trkpt>
      <trkpt lat="59.8335395" lon="17.6144652">
        <ele>28.9769</ele>
        <time>2013-05-26T11:45:28Z</time>
      </trkpt>
      <trkpt lat="59.8336125" lon="17.6144005">
        <ele>28.9769</ele>
        <time>2013-05-26T11:45:29Z</time>
      </trkpt>
      <trkpt lat="59.8336879" lon="17.6143325">
        <ele>28.9769</ele>
        <time>2013-05-26T11:45:30Z</time>
      </trkpt>
      <trkpt lat="59.8337643" lon="17.6142594">
        <ele>28.4962</ele>
        <time>2013-05-26T11:45:31Z</time>
      </trkpt>
      <trkpt lat="59.8338393" lon="17.614187">
        <ele>28.0155</ele>
        <time>2013-05-26T11:45:32Z</time>
      </trkpt>
      <trkpt lat="59.8339171" lon="17.6141198">
        <ele>28.4962</ele>
        <time>2013-05-26T11:45:33Z</time>
      </trkpt>
      <trkpt lat="59.8339958" lon="17.6140455">
        <ele>28.4962</ele>
        <time>2013-05-26T11:45:34Z</time>
      </trkpt>
      <trkpt lat="59.8340762" lon="17.6139659">
        <ele>28.4962</ele>
        <time>2013-05-26T11:45:35Z</time>
      </trkpt>
      <trkpt lat="59.8341559" lon="17.6138963">
        <ele>29.4575</ele>
        <time>2013-05-26T11:45:36Z</time>
      </trkpt>
      <trkpt lat="59.8342352" lon="17.61383">
        <ele>29.4575</ele>
        <time>2013-05-26T11:45:37Z</time>
      </trkpt>
      <trkpt lat="59.8343127" lon="17.6137716">
        <ele>29.9381</ele>
        <time>2013-05-26T11:45:38Z</time>
      </trkpt>
      <trkpt lat="59.8343904" lon="17.6137085">
        <ele>30.4188</ele>
        <time>2013-05-26T11:45:39Z</time>
      </trkpt>
      <trkpt lat="59.8344707" lon="17.6136369">
        <ele>30.4188</ele>
        <time>2013-05-26T11:45:40Z</time>
      </trkpt>
      <trkpt lat="59.8345481" lon="17.6135694">
        <ele>30.8995</ele>
        <time>2013-05-26T11:45:41Z</time>
      </trkpt>
      <trkpt lat="59.8346266" lon="17.613492">
        <ele>30.8995</ele>
        <time>2013-05-26T11:45:42Z</time>
      </trkpt>
      <trkpt lat="59.8347004" lon="17.6134255">
        <ele>30.4188</ele>
        <time>2013-05-26T11:45:43Z</time>
      </trkpt>
      <trkpt lat="59.8347718" lon="17.6133691">
        <ele>29.4575</ele>
        <time>2013-05-26T11:45:44Z</time>
      </trkpt>
      <trkpt lat="59.8348397" lon="17.613308">
        <ele>27.5349</ele>
        <time>2013-05-26T11:45:45Z</time>
      </trkpt>
      <trkpt lat="59.8349127" lon="17.6132472">
        <ele>26.5736</ele>
        <time>2013-05-26T11:45:46Z</time>
      </trkpt>
      <trkpt lat="59.8349846" lon="17.6131884">
        <ele>25.6123</ele>
        <time>2013-05-26T11:45:47Z</time>
      </trkpt>
      <trkpt lat="59.8350536" lon="17.6131316">
        <ele>24.1703</ele>
        <time>2013-05-26T11:45:48Z</time>
      </trkpt>
      <trkpt lat="59.8351322" lon="17.6130758">
        <ele>23.209</ele>
        <time>2013-05-26T11:45:49Z</time>
      </trkpt>
      <trkpt lat="59.8352104" lon="17.6130306">
        <ele>23.6896</ele>
        <time>2013-05-26T11:45:50Z</time>
      </trkpt>
      <trkpt lat="59.8352862" lon="17.6129833">
        <ele>24.1703</ele>
        <time>2013-05-26T11:45:51Z</time>
      </trkpt>
      <trkpt lat="59.835357" lon="17.6129309">
        <ele>23.6896</ele>
        <time>2013-05-26T11:45:52Z</time>
      </trkpt>
      <trkpt lat="59.8354326" lon="17.6128706">
        <ele>22.7283</ele>
        <time>2013-05-26T11:45:53Z</time>
      </trkpt>
      <trkpt lat="59.835508" lon="17.6128116">
        <ele>22.2476</ele>
        <time>2013-05-26T11:45:54Z</time>
      </trkpt>
      <trkpt lat="59.835582" lon="17.6127537">
        <ele>21.767</ele>
        <time>2013-05-26T11:45:55Z</time>
      </trkpt>
      <trkpt lat="59.8356577" lon="17.6126901">
        <ele>21.767</ele>
        <time>2013-05-26T11:45:56Z</time>
      </trkpt>
      <trkpt lat="59.8357395" lon="17.6126315">
        <ele>23.6896</ele>
        <time>2013-05-26T11:45:57Z</time>
      </trkpt>
      <trkpt lat="59.8358192" lon="17.6125614">
        <ele>25.1317</ele>
        <time>2013-05-26T11:45:58Z</time>
      </trkpt>
      <trkpt lat="59.8358989" lon="17.6124792">
        <ele>26.5736</ele>
        <time>2013-05-26T11:45:59Z</time>
      </trkpt>
      <trkpt lat="59.8359751" lon="17.6123994">
        <ele>28.0155</ele>
        <time>2013-05-26T11:46:00Z</time>
      </trkpt>
      <trkpt lat="59.8360497" lon="17.6123264">
        <ele>28.4962</ele>
        <time>2013-05-26T11:46:01Z</time>
      </trkpt>
      <trkpt lat="59.8361228" lon="17.6122484">
        <ele>28.9769</ele>
        <time>2013-05-26T11:46:02Z</time>
      </trkpt>
      <trkpt lat="59.8361934" lon="17.6121694">
        <ele>29.4575</ele>
        <time>2013-05-26T11:46:03Z</time>
      </trkpt>
      <trkpt lat="59.836265" lon="17.6120984">
        <ele>29.9381</ele>
        <time>2013-05-26T11:46:04Z</time>
      </trkpt>
      <trkpt lat="59.8363366" lon="17.6120321">
        <ele>30.4188</ele>
        <time>2013-05-26T11:46:05Z</time>
      </trkpt>
      <trkpt lat="59.8364075" lon="17.6119762">
        <ele>30.4188</ele>
        <time>2013-05-26T11:46:06Z</time>
      </trkpt>
      <trkpt lat="59.8364754" lon="17.611914">
        <ele>30.8995</ele>
        <time>2013-05-26T11:46:07Z</time>
      </trkpt>
      <trkpt lat="59.8365407" lon="17.611853">
        <ele>30.8995</ele>
        <time>2013-05-26T11:46:08Z</time>
      </trkpt>
      <trkpt lat="59.8366043" lon="17.6117947">
        <ele>30.8995</ele>
        <time>2013-05-26T11:46:09Z</time>
      </trkpt>
      <trkpt lat="59.8366684" lon="17.6117363">
        <ele>31.3801</ele>
        <time>2013-05-26T11:46:10Z</time>
      </trkpt>
      <trkpt lat="59.8367315" lon="17.6116913">
        <ele>31.3801</ele>
        <time>2013-05-26T11:46:11Z</time>
      </trkpt>
      <trkpt lat="59.8367963" lon="17.6116498">
        <ele>30.8995</ele>
        <time>2013-05-26T11:46:12Z</time>
      </trkpt>
      <trkpt lat="59.8368634" lon="17.6116145">
        <ele>31.8607</ele>
        <time>2013-05-26T11:46:13Z</time>
      </trkpt>
      <trkpt lat="59.83693" lon="17.6115814">
        <ele>32.8223</ele>
        <time>2013-05-26T11:46:14Z</time>
      </trkpt>
      <trkpt lat="59.8369946" lon="17.6115632">
        <ele>33.3029</ele>
        <time>2013-05-26T11:46:15Z</time>
      </trkpt>
      <trkpt lat="59.8370626" lon="17.6115535">
        <ele>33.7834</ele>
        <time>2013-05-26T11:46:16Z</time>
      </trkpt>
      <trkpt lat="59.8371349" lon="17.6115431">
        <ele>34.7449</ele>
        <time>2013-05-26T11:46:17Z</time>
      </trkpt>
      <trkpt lat="59.8372086" lon="17.6115451">
        <ele>35.2255</ele>
        <time>2013-05-26T11:46:18Z</time>
      </trkpt>
      <trkpt lat="59.8372832" lon="17.6115496">
        <ele>35.7061</ele>
        <time>2013-05-26T11:46:19Z</time>
      </trkpt>
      <trkpt lat="59.8373565" lon="17.611568">
        <ele>34.7449</ele>
        <time>2013-05-26T11:46:20Z</time>
      </trkpt>
      <trkpt lat="59.8374293" lon="17.6115949">
        <ele>34.2642</ele>
        <time>2013-05-26T11:46:21Z</time>
      </trkpt>
      <trkpt lat="59.8375033" lon="17.6116301">
        <ele>33.7834</ele>
        <time>2013-05-26T11:46:22Z</time>
      </trkpt>
      <trkpt lat="59.8375794" lon="17.6116791">
        <ele>33.7834</ele>
        <time>2013-05-26T11:46:23Z</time>
      </trkpt>
      <trkpt lat="59.837659" lon="17.6117311">
        <ele>34.7449</ele>
        <time>2013-05-26T11:46:24Z</time>
      </trkpt>
      <trkpt lat="59.8377331" lon="17.6117906">
        <ele>34.7449</ele>
        <time>2013-05-26T11:46:25Z</time>
      </trkpt>
      <trkpt lat="59.83781" lon="17.6118574">
        <ele>35.2255</ele>
        <time>2013-05-26T11:46:26Z</time>
      </trkpt>
      <trkpt lat="59.8378888" lon="17.6119254">
        <ele>36.1868</ele>
        <time>2013-05-26T11:46:27Z</time>
      </trkpt>
      <trkpt lat="59.8379584" lon="17.6119984">
        <ele>35.2255</ele>
        <time>2013-05-26T11:46:28Z</time>
      </trkpt>
      <trkpt lat="59.83803" lon="17.6120687">
        <ele>35.2255</ele>
        <time>2013-05-26T11:46:29Z</time>
      </trkpt>
      <trkpt lat="59.8381051" lon="17.6121343">
        <ele>35.2255</ele>
        <time>2013-05-26T11:46:30Z</time>
      </trkpt>
      <trkpt lat="59.8381788" lon="17.6121977">
        <ele>35.2255</ele>
        <time>2013-05-26T11:46:31Z</time>
      </trkpt>
      <trkpt lat="59.8382526" lon="17.612269">
        <ele>34.2642</ele>
        <time>2013-05-26T11:46:32Z</time>
      </trkpt>
      <trkpt lat="59.8383247" lon="17.6123391">
        <ele>33.3029</ele>
        <time>2013-05-26T11:46:33Z</time>
      </trkpt>
      <trkpt lat="59.8383937" lon="17.6124081">
        <ele>32.8223</ele>
        <time>2013-05-26T11:46:34Z</time>
      </trkpt>
      <trkpt lat="59.8384579" lon="17.6124762">
        <ele>31.8607</ele>
        <time>2013-05-26T11:46:35Z</time>
      </trkpt>
      <trkpt lat="59.8385199" lon="17.6125464">
        <ele>31.8607</ele>
        <time>2013-05-26T11:46:36Z</time>
      </trkpt>
      <trkpt lat="59.8385822" lon="17.6126066">
        <ele>31.3801</ele>
        <time>2013-05-26T11:46:37Z</time>
      </trkpt>
      <trkpt lat="59.8386419" lon="17.6126649">
        <ele>30.8995</ele>
        <time>2013-05-26T11:46:38Z</time>
      </trkpt>
      <trkpt lat="59.8387002" lon="17.61272">
        <ele>30.8995</ele>
        <time>2013-05-26T11:46:39Z</time>
      </trkpt>
      <trkpt lat="59.8387599" lon="17.6127754">
        <ele>30.8995</ele>
        <time>2013-05-26T11:46:40Z</time>
      </trkpt>
      <trkpt lat="59.8388139" lon="17.6128266">
        <ele>30.4188</ele>
        <time>2013-05-26T11:46:41Z</time>
      </trkpt>
      <trkpt lat="59.8388711" lon="17.6128768">
        <ele>30.4188</ele>
        <time>2013-05-26T11:46:42Z</time>
      </trkpt>
      <trkpt lat="59.8389278" lon="17.6129226">
        <ele>30.4188</ele>
        <time>2013-05-26T11:46:43Z</time>
      </trkpt>
      <trkpt lat="59.838977" lon="17.6129807">
        <ele>29.9381</ele>
        <time>2013-05-26T11:46:44Z</time>
      </trkpt>
      <trkpt lat="59.8390282" lon="17.613052">
        <ele>31.3801</ele>
        <time>2013-05-26T11:46:45Z</time>
      </trkpt>
      <trkpt lat="59.8390732" lon="17.6131293">
        <ele>30.8995</ele>
        <time>2013-05-26T11:46:46Z</time>
      </trkpt>
      <trkpt lat="59.8391408" lon="17.6131962">
        <ele>33.7834</ele>
        <time>2013-05-26T11:46:47Z</time>
      </trkpt>
      <trkpt lat="59.839191" lon="17.6132535">
        <ele>34.2642</ele>
        <time>2013-05-26T11:46:48Z</time>
      </trkpt>
      <trkpt lat="59.8392501" lon="17.6132907">
        <ele>34.7449</ele>
        <time>2013-05-26T11:46:49Z</time>
      </trkpt>
      <trkpt lat="59.8393205" lon="17.6133143">
        <ele>36.1868</ele>
        <time>2013-05-26T11:46:50Z</time>
      </trkpt>
      <trkpt lat="59.8393819" lon="17.6133532">
        <ele>36.6675</ele>
        <time>2013-05-26T11:46:51Z</time>
      </trkpt>
      <trkpt lat="59.8394422" lon="17.6134214">
        <ele>37.6287</ele>
        <time>2013-05-26T11:46:52Z</time>
      </trkpt>
      <trkpt lat="59.8395048" lon="17.6134971">
        <ele>38.5901</ele>
        <time>2013-05-26T11:46:53Z</time>
      </trkpt>
      <trkpt lat="59.8395484" lon="17.613583">
        <ele>38.1094</ele>
        <time>2013-05-26T11:46:54Z</time>
      </trkpt>
      <trkpt lat="59.8395927" lon="17.6136725">
        <ele>38.1094</ele>
        <time>2013-05-26T11:46:55Z</time>
      </trkpt>
      <trkpt lat="59.8396428" lon="17.6137628">
        <ele>38.5901</ele>
        <time>2013-05-26T11:46:56Z</time>
      </trkpt>
      <trkpt lat="59.8396856" lon="17.6138575">
        <ele>38.5901</ele>
        <time>2013-05-26T11:46:57Z</time>
      </trkpt>
      <trkpt lat="59.8397338" lon="17.6139548">
        <ele>38.5901</ele>
        <time>2013-05-26T11:46:58Z</time>
      </trkpt>
      <trkpt lat="59.8397735" lon="17.6140539">
        <ele>37.6287</ele>
        <time>2013-05-26T11:46:59Z</time>
      </trkpt>
      <trkpt lat="59.8398202" lon="17.6141478">
        <ele>37.1481</ele>
        <time>2013-05-26T11:47:00Z</time>
      </trkpt>
      <trkpt lat="59.8398658" lon="17.6142487">
        <ele>36.6675</ele>
        <time>2013-05-26T11:47:01Z</time>
      </trkpt>
      <trkpt lat="59.8399115" lon="17.6143476">
        <ele>35.7061</ele>
        <time>2013-05-26T11:47:02Z</time>
      </trkpt>
      <trkpt lat="59.8399576" lon="17.6144467">
        <ele>35.2255</ele>
        <time>2013-05-26T11:47:03Z</time>
      </trkpt>
      <trkpt lat="59.8400022" lon="17.6145489">
        <ele>34.2642</ele>
        <time>2013-05-26T11:47:04Z</time>
      </trkpt>
      <trkpt lat="59.8400507" lon="17.6146496">
        <ele>33.7834</ele>
        <time>2013-05-26T11:47:05Z</time>
      </trkpt>
      <trkpt lat="59.8401015" lon="17.6147512">
        <ele>33.3029</ele>
        <time>2013-05-26T11:47:06Z</time>
      </trkpt>
      <trkpt lat="59.8401503" lon="17.6148538">
        <ele>32.3416</ele>
        <time>2013-05-26T11:47:07Z</time>
      </trkpt>
      <trkpt lat="59.8402067" lon="17.6149551">
        <ele>32.8223</ele>
        <time>2013-05-26T11:47:08Z</time>
      </trkpt>
      <trkpt lat="59.840259" lon="17.6150541">
        <ele>32.8223</ele>
        <time>2013-05-26T11:47:09Z</time>
      </trkpt>
      <trkpt lat="59.8403161" lon="17.6151485">
        <ele>33.7834</ele>
        <time>2013-05-26T11:47:10Z</time>
      </trkpt>
      <trkpt lat="59.8403694" lon="17.6152448">
        <ele>32.3416</ele>
        <time>2013-05-26T11:47:11Z</time>
      </trkpt>
      <trkpt lat="59.8404279" lon="17.6153344">
        <ele>31.8607</ele>
        <time>2013-05-26T11:47:12Z</time>
      </trkpt>
      <trkpt lat="59.8404923" lon="17.6154168">
        <ele>31.8607</ele>
        <time>2013-05-26T11:47:13Z</time>
      </trkpt>
      <trkpt lat="59.8405532" lon="17.6154982">
        <ele>30.8995</ele>
        <time>2013-05-26T11:47:14Z</time>
      </trkpt>
      <trkpt lat="59.8406205" lon="17.6155723">
        <ele>29.9381</ele>
        <time>2013-05-26T11:47:15Z</time>
      </trkpt>
      <trkpt lat="59.8406921" lon="17.6156421">
        <ele>28.9769</ele>
        <time>2013-05-26T11:47:16Z</time>
      </trkpt>
      <trkpt lat="59.8407674" lon="17.6157075">
        <ele>28.0155</ele>
        <time>2013-05-26T11:47:17Z</time>
      </trkpt>
      <trkpt lat="59.840845" lon="17.6157675">
        <ele>27.0543</ele>
        <time>2013-05-26T11:47:18Z</time>
      </trkpt>
      <trkpt lat="59.8409209" lon="17.6158336">
        <ele>26.5736</ele>
        <time>2013-05-26T11:47:19Z</time>
      </trkpt>
      <trkpt lat="59.8409957" lon="17.6158974">
        <ele>25.6123</ele>
        <time>2013-05-26T11:47:20Z</time>
      </trkpt>
      <trkpt lat="59.8410746" lon="17.6159644">
        <ele>26.0929</ele>
        <time>2013-05-26T11:47:21Z</time>
      </trkpt>
      <trkpt lat="59.8411592" lon="17.6160312">
        <ele>25.6123</ele>
        <time>2013-05-26T11:47:22Z</time>
      </trkpt>
      <trkpt lat="59.8412355" lon="17.6161128">
        <ele>25.6123</ele>
        <time>2013-05-26T11:47:23Z</time>
      </trkpt>
      <trkpt lat="59.8413105" lon="17.6161869">
        <ele>25.6123</ele>
        <time>2013-05-26T11:47:24Z</time>
      </trkpt>
      <trkpt lat="59.8413866" lon="17.6162564">
        <ele>25.6123</ele>
        <time>2013-05-26T11:47:25Z</time>
      </trkpt>
      <trkpt lat="59.8414682" lon="17.6163058">
        <ele>25.1317</ele>
        <time>2013-05-26T11:47:26Z</time>
      </trkpt>
      <trkpt lat="59.8415443" lon="17.6163677">
        <ele>25.6123</ele>
        <time>2013-05-26T11:47:27Z</time>
      </trkpt>
      <trkpt lat="59.8416379" lon="17.6164347">
        <ele>28.0155</ele>
        <time>2013-05-26T11:47:28Z</time>
      </trkpt>
      <trkpt lat="59.8417291" lon="17.6164912">
        <ele>30.4188</ele>
        <time>2013-05-26T11:47:29Z</time>
      </trkpt>
      <trkpt lat="59.8418207" lon="17.6165549">
        <ele>31.8607</ele>
        <time>2013-05-26T11:47:30Z</time>
      </trkpt>
      <trkpt lat="59.8419083" lon="17.6166231">
        <ele>33.7834</ele>
        <time>2013-05-26T11:47:31Z</time>
      </trkpt>
      <trkpt lat="59.8419883" lon="17.6166748">
        <ele>33.3029</ele>
        <time>2013-05-26T11:47:32Z</time>
      </trkpt>
      <trkpt lat="59.8420659" lon="17.6167332">
        <ele>32.8223</ele>
        <time>2013-05-26T11:47:33Z</time>
      </trkpt>
      <trkpt lat="59.8421452" lon="17.6167687">
        <ele>32.8223</ele>
        <time>2013-05-26T11:47:34Z</time>
      </trkpt>
      <trkpt lat="59.8422161" lon="17.6168134">
        <ele>32.3416</ele>
        <time>2013-05-26T11:47:35Z</time>
      </trkpt>
      <trkpt lat="59.8422896" lon="17.6168671">
        <ele>32.8223</ele>
        <time>2013-05-26T11:47:36Z</time>
      </trkpt>
      <trkpt lat="59.8423586" lon="17.6169105">
        <ele>33.7834</ele>
        <time>2013-05-26T11:47:37Z</time>
      </trkpt>
      <trkpt lat="59.8424182" lon="17.6169331">
        <ele>33.3029</ele>
        <time>2013-05-26T11:47:38Z</time>
      </trkpt>
      <trkpt lat="59.8424901" lon="17.6169763">
        <ele>33.3029</ele>
        <time>2013-05-26T11:47:39Z</time>
      </trkpt>
      <trkpt lat="59.8425589" lon="17.6169801">
        <ele>32.8223</ele>
        <time>2013-05-26T11:47:40Z</time>
      </trkpt>
      <trkpt lat="59.8426362" lon="17.6169848">
        <ele>32.8223</ele>
        <time>2013-05-26T11:47:41Z</time>
      </trkpt>
      <trkpt lat="59.8427082" lon="17.6169921">
        <ele>33.3029</ele>
        <time>2013-05-26T11:47:42Z</time>
      </trkpt>
      <trkpt lat="59.8427813" lon="17.6169745">
        <ele>33.7834</ele>
        <time>2013-05-26T11:47:43Z</time>
      </trkpt>
      <trkpt lat="59.8428553" lon="17.6169595">
        <ele>34.2642</ele>
        <time>2013-05-26T11:47:44Z</time>
      </trkpt>
      <trkpt lat="59.8429422" lon="17.6169202">
        <ele>33.7834</ele>
        <time>2013-05-26T11:47:45Z</time>
      </trkpt>
      <trkpt lat="59.8430201" lon="17.6168904">
        <ele>33.3029</ele>
        <time>2013-05-26T11:47:46Z</time>
      </trkpt>
      <trkpt lat="59.8430894" lon="17.6168843">
        <ele>34.2642</ele>
        <time>2013-05-26T11:47:47Z</time>
      </trkpt>
      <trkpt lat="59.8431601" lon="17.6168719">
        <ele>35.2255</ele>
        <time>2013-05-26T11:47:48Z</time>
      </trkpt>
      <trkpt lat="59.8432323" lon="17.6168527">
        <ele>35.7061</ele>
        <time>2013-05-26T11:47:49Z</time>
      </trkpt>
      <trkpt lat="59.8433033" lon="17.6168256">
        <ele>36.6675</ele>
        <time>2013-05-26T11:47:50Z</time>
      </trkpt>
      <trkpt lat="59.8433723" lon="17.6168049">
        <ele>37.1481</ele>
        <time>2013-05-26T11:47:51Z</time>
      </trkpt>
      <trkpt lat="59.8434546" lon="17.6167549">
        <ele>37.1481</ele>
        <time>2013-05-26T11:47:52Z</time>
      </trkpt>
      <trkpt lat="59.8435279" lon="17.6166541">
        <ele>37.1481</ele>
        <time>2013-05-26T11:47:53Z</time>
      </trkpt>
      <trkpt lat="59.8435992" lon="17.6166422">
        <ele>38.5901</ele>
        <time>2013-05-26T11:47:54Z</time>
      </trkpt>
      <trkpt lat="59.8436701" lon="17.6166197">
        <ele>39.0707</ele>
        <time>2013-05-26T11:47:55Z</time>
      </trkpt>
      <trkpt lat="59.8437552" lon="17.6165741">
        <ele>40.5128</ele>
        <time>2013-05-26T11:47:56Z</time>
      </trkpt>
      <trkpt lat="59.843838" lon="17.61656">
        <ele>40.9934</ele>
        <time>2013-05-26T11:47:57Z</time>
      </trkpt>
      <trkpt lat="59.8439266" lon="17.616529">
        <ele>40.9934</ele>
        <time>2013-05-26T11:47:58Z</time>
      </trkpt>
      <trkpt lat="59.8440121" lon="17.6164797">
        <ele>39.5513</ele>
        <time>2013-05-26T11:47:59Z</time>
      </trkpt>
      <trkpt lat="59.8440913" lon="17.6164439">
        <ele>39.5513</ele>
        <time>2013-05-26T11:48:00Z</time>
      </trkpt>
      <trkpt lat="59.8441663" lon="17.6164103">
        <ele>39.0707</ele>
        <time>2013-05-26T11:48:01Z</time>
      </trkpt>
      <trkpt lat="59.8442394" lon="17.6163918">
        <ele>38.5901</ele>
        <time>2013-05-26T11:48:02Z</time>
      </trkpt>
      <trkpt lat="59.844311" lon="17.6163865">
        <ele>38.5901</ele>
        <time>2013-05-26T11:48:03Z</time>
      </trkpt>
      <trkpt lat="59.8443763" lon="17.6163851">
        <ele>37.6287</ele>
        <time>2013-05-26T11:48:04Z</time>
      </trkpt>
      <trkpt lat="59.8444414" lon="17.6164046">
        <ele>37.6287</ele>
        <time>2013-05-26T11:48:05Z</time>
      </trkpt>
      <trkpt lat="59.8445143" lon="17.6164092">
        <ele>37.6287</ele>
        <time>2013-05-26T11:48:06Z</time>
      </trkpt>
      <trkpt lat="59.8445884" lon="17.6164005">
        <ele>38.1094</ele>
        <time>2013-05-26T11:48:07Z</time>
      </trkpt>
      <trkpt lat="59.8446574" lon="17.6163959">
        <ele>38.1094</ele>
        <time>2013-05-26T11:48:08Z</time>
      </trkpt>
      <trkpt lat="59.8447275" lon="17.6163999">
        <ele>38.1094</ele>
        <time>2013-05-26T11:48:09Z</time>
      </trkpt>
      <trkpt lat="59.8447989" lon="17.6164047">
        <ele>37.6287</ele>
        <time>2013-05-26T11:48:10Z</time>
      </trkpt>
      <trkpt lat="59.8448746" lon="17.6164176">
        <ele>37.6287</ele>
        <time>2013-05-26T11:48:11Z</time>
      </trkpt>
      <trkpt lat="59.8449461" lon="17.6164404">
        <ele>37.1481</ele>
        <time>2013-05-26T11:48:12Z</time>
      </trkpt>
      <trkpt lat="59.8450185" lon="17.6164741">
        <ele>36.6675</ele>
        <time>2013-05-26T11:48:13Z</time>
      </trkpt>
      <trkpt lat="59.8450914" lon="17.6165203">
        <ele>36.1868</ele>
        <time>2013-05-26T11:48:14Z</time>
      </trkpt>
      <trkpt lat="59.8451678" lon="17.6165678">
        <ele>35.2255</ele>
        <time>2013-05-26T11:48:15Z</time>
      </trkpt>
      <trkpt lat="59.8452455" lon="17.6166216">
        <ele>34.7449</ele>
        <time>2013-05-26T11:48:16Z</time>
      </trkpt>
      <trkpt lat="59.8453227" lon="17.6166862">
        <ele>33.7834</ele>
        <time>2013-05-26T11:48:17Z</time>
      </trkpt>
      <trkpt lat="59.8453967" lon="17.6167531">
        <ele>32.3416</ele>
        <time>2013-05-26T11:48:18Z</time>
      </trkpt>
      <trkpt lat="59.8454717" lon="17.6168112">
        <ele>31.3801</ele>
        <time>2013-05-26T11:48:19Z</time>
      </trkpt>
      <trkpt lat="59.8455483" lon="17.6168624">
        <ele>30.4188</ele>
        <time>2013-05-26T11:48:20Z</time>
      </trkpt>
      <trkpt lat="59.8456265" lon="17.616907">
        <ele>29.4575</ele>
        <time>2013-05-26T11:48:21Z</time>
      </trkpt>
      <trkpt lat="59.8457063" lon="17.6169483">
        <ele>28.4962</ele>
        <time>2013-05-26T11:48:22Z</time>
      </trkpt>
      <trkpt lat="59.8457941" lon="17.6169836">
        <ele>28.9769</ele>
        <time>2013-05-26T11:48:23Z</time>
      </trkpt>
      <trkpt lat="59.8458836" lon="17.6170128">
        <ele>28.9769</ele>
        <time>2013-05-26T11:48:24Z</time>
      </trkpt>
      <trkpt lat="59.8459689" lon="17.6170402">
        <ele>28.0155</ele>
        <time>2013-05-26T11:48:25Z</time>
      </trkpt>
      <trkpt lat="59.8460544" lon="17.6170656">
        <ele>27.0543</ele>
        <time>2013-05-26T11:48:26Z</time>
      </trkpt>
      <trkpt lat="59.8461428" lon="17.6170867">
        <ele>26.0929</ele>
        <time>2013-05-26T11:48:27Z</time>
      </trkpt>
      <trkpt lat="59.8462375" lon="17.6171122">
        <ele>25.6123</ele>
        <time>2013-05-26T11:48:28Z</time>
      </trkpt>
      <trkpt lat="59.8463352" lon="17.6171412">
        <ele>25.6123</ele>
        <time>2013-05-26T11:48:29Z</time>
      </trkpt>
      <trkpt lat="59.8464308" lon="17.617178">
        <ele>25.1317</ele>
        <time>2013-05-26T11:48:30Z</time>
      </trkpt>
      <trkpt lat="59.8465254" lon="17.6172226">
        <ele>24.1703</ele>
        <time>2013-05-26T11:48:31Z</time>
      </trkpt>
      <trkpt lat="59.8466212" lon="17.6172657">
        <ele>23.209</ele>
        <time>2013-05-26T11:48:32Z</time>
      </trkpt>
      <trkpt lat="59.8467174" lon="17.6173182">
        <ele>22.7283</ele>
        <time>2013-05-26T11:48:33Z</time>
      </trkpt>
      <trkpt lat="59.8468109" lon="17.6173744">
        <ele>21.767</ele>
        <time>2013-05-26T11:48:34Z</time>
      </trkpt>
      <trkpt lat="59.8469031" lon="17.6174302">
        <ele>21.2864</ele>
        <time>2013-05-26T11:48:35Z</time>
      </trkpt>
      <trkpt lat="59.8469937" lon="17.6174861">
        <ele>20.8057</ele>
        <time>2013-05-26T11:48:36Z</time>
      </trkpt>
      <trkpt lat="59.8470881" lon="17.6175386">
        <ele>21.767</ele>
        <time>2013-05-26T11:48:37Z</time>
      </trkpt>
      <trkpt lat="59.8471788" lon="17.6175868">
        <ele>22.2476</ele>
        <time>2013-05-26T11:48:38Z</time>
      </trkpt>
      <trkpt lat="59.8472666" lon="17.6176357">
        <ele>22.7283</ele>
        <time>2013-05-26T11:48:39Z</time>
      </trkpt>
      <trkpt lat="59.8473523" lon="17.6176862">
        <ele>22.7283</ele>
        <time>2013-05-26T11:48:40Z</time>
      </trkpt>
      <trkpt lat="59.8474371" lon="17.6177368">
        <ele>23.209</ele>
        <time>2013-05-26T11:48:41Z</time>
      </trkpt>
      <trkpt lat="59.8475207" lon="17.6177867">
        <ele>23.6896</ele>
        <time>2013-05-26T11:48:42Z</time>
      </trkpt>
      <trkpt lat="59.8476036" lon="17.6178375">
        <ele>24.1703</ele>
        <time>2013-05-26T11:48:43Z</time>
      </trkpt>
      <trkpt lat="59.8476864" lon="17.6178893">
        <ele>24.651</ele>
        <time>2013-05-26T11:48:44Z</time>
      </trkpt>
      <trkpt lat="59.8477687" lon="17.6179412">
        <ele>24.651</ele>
        <time>2013-05-26T11:48:45Z</time>
      </trkpt>
      <trkpt lat="59.84785" lon="17.6179933">
        <ele>25.1317</ele>
        <time>2013-05-26T11:48:46Z</time>
      </trkpt>
      <trkpt lat="59.8479262" lon="17.6180535">
        <ele>24.651</ele>
        <time>2013-05-26T11:48:47Z</time>
      </trkpt>
      <trkpt lat="59.8479991" lon="17.618119">
        <ele>24.1703</ele>
        <time>2013-05-26T11:48:48Z</time>
      </trkpt>
      <trkpt lat="59.8480718" lon="17.6181824">
        <ele>23.6896</ele>
        <time>2013-05-26T11:48:49Z</time>
      </trkpt>
      <trkpt lat="59.8481441" lon="17.6182466">
        <ele>23.209</ele>
        <time>2013-05-26T11:48:50Z</time>
      </trkpt>
      <trkpt lat="59.8482161" lon="17.6183152">
        <ele>22.7283</ele>
        <time>2013-05-26T11:48:51Z</time>
      </trkpt>
      <trkpt lat="59.8482872" lon="17.6183856">
        <ele>22.2476</ele>
        <time>2013-05-26T11:48:52Z</time>
      </trkpt>
      <trkpt lat="59.8483593" lon="17.6184544">
        <ele>22.2476</ele>
        <time>2013-05-26T11:48:53Z</time>
      </trkpt>
      <trkpt lat="59.848429" lon="17.6185234">
        <ele>21.767</ele>
        <time>2013-05-26T11:48:54Z</time>
      </trkpt>
      <trkpt lat="59.8485" lon="17.6185936">
        <ele>21.767</ele>
        <time>2013-05-26T11:48:55Z</time>
      </trkpt>
      <trkpt lat="59.84857" lon="17.6186658">
        <ele>21.2864</ele>
        <time>2013-05-26T11:48:56Z</time>
      </trkpt>
      <trkpt lat="59.8486395" lon="17.6187378">
        <ele>21.2864</ele>
        <time>2013-05-26T11:48:57Z</time>
      </trkpt>
      <trkpt lat="59.8487078" lon="17.6188072">
        <ele>21.2864</ele>
        <time>2013-05-26T11:48:58Z</time>
      </trkpt>
      <trkpt lat="59.848772" lon="17.6188719">
        <ele>21.2864</ele>
        <time>2013-05-26T11:48:59Z</time>
      </trkpt>
      <trkpt lat="59.848833" lon="17.6189346">
        <ele>21.2864</ele>
        <time>2013-05-26T11:49:00Z</time>
      </trkpt>
      <trkpt lat="59.8488932" lon="17.6190013">
        <ele>20.8057</ele>
        <time>2013-05-26T11:49:01Z</time>
      </trkpt>
      <trkpt lat="59.8489522" lon="17.6190681">
        <ele>20.8057</ele>
        <time>2013-05-26T11:49:02Z</time>
      </trkpt>
      <trkpt lat="59.8490096" lon="17.6191392">
        <ele>20.8057</ele>
        <time>2013-05-26T11:49:03Z</time>
      </trkpt>
      <trkpt lat="59.8490641" lon="17.6192095">
        <ele>19.8444</ele>
        <time>2013-05-26T11:49:04Z</time>
      </trkpt>
      <trkpt lat="59.849117" lon="17.6192864">
        <ele>19.3638</ele>
        <time>2013-05-26T11:49:05Z</time>
      </trkpt>
      <trkpt lat="59.8491703" lon="17.6193635">
        <ele>18.8831</ele>
        <time>2013-05-26T11:49:06Z</time>
      </trkpt>
      <trkpt lat="59.8492243" lon="17.6194437">
        <ele>18.4023</ele>
        <time>2013-05-26T11:49:07Z</time>
      </trkpt>
      <trkpt lat="59.8492801" lon="17.6195287">
        <ele>17.9218</ele>
        <time>2013-05-26T11:49:08Z</time>
      </trkpt>
      <trkpt lat="59.8493315" lon="17.619611">
        <ele>17.4412</ele>
        <time>2013-05-26T11:49:09Z</time>
      </trkpt>
      <trkpt lat="59.8493802" lon="17.619699">
        <ele>16.9604</ele>
        <time>2013-05-26T11:49:10Z</time>
      </trkpt>
      <trkpt lat="59.849421" lon="17.6197929">
        <ele>16.4797</ele>
        <time>2013-05-26T11:49:11Z</time>
      </trkpt>
      <trkpt lat="59.8494572" lon="17.6198919">
        <ele>16.4797</ele>
        <time>2013-05-26T11:49:12Z</time>
      </trkpt>
      <trkpt lat="59.8494886" lon="17.6199929">
        <ele>16.4797</ele>
        <time>2013-05-26T11:49:13Z</time>
      </trkpt>
      <trkpt lat="59.8495195" lon="17.6200918">
        <ele>16.9604</ele>
        <time>2013-05-26T11:49:14Z</time>
      </trkpt>
      <trkpt lat="59.8495481" lon="17.6201876">
        <ele>17.4412</ele>
        <time>2013-05-26T11:49:15Z</time>
      </trkpt>
      <trkpt lat="59.8495738" lon="17.6202819">
        <ele>17.4412</ele>
        <time>2013-05-26T11:49:16Z</time>
      </trkpt>
      <trkpt lat="59.8496035" lon="17.6203712">
        <ele>17.9218</ele>
        <time>2013-05-26T11:49:17Z</time>
      </trkpt>
      <trkpt lat="59.8496285" lon="17.6204596">
        <ele>17.9218</ele>
        <time>2013-05-26T11:49:18Z</time>
      </trkpt>
      <trkpt lat="59.8496531" lon="17.6205426">
        <ele>18.4023</ele>
        <time>2013-05-26T11:49:19Z</time>
      </trkpt>
      <trkpt lat="59.8496729" lon="17.6206091">
        <ele>18.4023</ele>
        <time>2013-05-26T11:49:20Z</time>
      </trkpt>
      <trkpt lat="59.8496848" lon="17.6206523">
        <ele>18.4023</ele>
        <time>2013-05-26T11:49:21Z</time>
      </trkpt>
      <trkpt lat="59.8496941" lon="17.62067">
        <ele>18.4023</ele>
        <time>2013-05-26T11:49:22Z</time>
      </trkpt>
      <trkpt lat="59.8497023" lon="17.620669">
        <ele>18.8831</ele>
        <time>2013-05-26T11:49:23Z</time>
      </trkpt>
      <trkpt lat="59.8497014" lon="17.6206699">
        <ele>17.9218</ele>
        <time>2013-05-26T11:49:24Z</time>
      </trkpt>
      <trkpt lat="59.8497031" lon="17.6206762">
        <ele>17.9218</ele>
        <time>2013-05-26T11:49:25Z</time>
      </trkpt>
      <trkpt lat="59.8497133" lon="17.6207004">
        <ele>18.8831</ele>
        <time>2013-05-26T11:49:28Z</time>
      </trkpt>
      <trkpt lat="59.849723" lon="17.6207466">
        <ele>18.8831</ele>
        <time>2013-05-26T11:49:29Z</time>
      </trkpt>
      <trkpt lat="59.8497417" lon="17.6207999">
        <ele>19.3638</ele>
        <time>2013-05-26T11:49:30Z</time>
      </trkpt>
      <trkpt lat="59.8497724" lon="17.6208554">
        <ele>19.8444</ele>
        <time>2013-05-26T11:49:31Z</time>
      </trkpt>
      <trkpt lat="59.8498106" lon="17.6209">
        <ele>19.3638</ele>
        <time>2013-05-26T11:49:32Z</time>
      </trkpt>
      <trkpt lat="59.8498625" lon="17.6209223">
        <ele>19.8444</ele>
        <time>2013-05-26T11:49:33Z</time>
      </trkpt>
      <trkpt lat="59.8499157" lon="17.6209122">
        <ele>20.325</ele>
        <time>2013-05-26T11:49:34Z</time>
      </trkpt>
      <trkpt lat="59.8499603" lon="17.6208663">
        <ele>19.8444</ele>
        <time>2013-05-26T11:49:35Z</time>
      </trkpt>
      <trkpt lat="59.8499973" lon="17.6208">
        <ele>19.3638</ele>
        <time>2013-05-26T11:49:36Z</time>
      </trkpt>
      <trkpt lat="59.850034" lon="17.6207098">
        <ele>18.8831</ele>
        <time>2013-05-26T11:49:37Z</time>
      </trkpt>
      <trkpt lat="59.8500781" lon="17.6206157">
        <ele>17.9218</ele>
        <time>2013-05-26T11:49:38Z</time>
      </trkpt>
      <trkpt lat="59.8501229" lon="17.6205104">
        <ele>17.4412</ele>
        <time>2013-05-26T11:49:39Z</time>
      </trkpt>
      <trkpt lat="59.850167" lon="17.620409">
        <ele>16.9604</ele>
        <time>2013-05-26T11:49:40Z</time>
      </trkpt>
      <trkpt lat="59.8502158" lon="17.6203073">
        <ele>16.4797</ele>
        <time>2013-05-26T11:49:41Z</time>
      </trkpt>
      <trkpt lat="59.8502675" lon="17.6202048">
        <ele>15.999</ele>
        <time>2013-05-26T11:49:42Z</time>
      </trkpt>
      <trkpt lat="59.85032" lon="17.6201031">
        <ele>15.999</ele>
        <time>2013-05-26T11:49:43Z</time>
      </trkpt>
      <trkpt lat="59.8503715" lon="17.619997">
        <ele>15.5184</ele>
        <time>2013-05-26T11:49:44Z</time>
      </trkpt>
      <trkpt lat="59.8504204" lon="17.6198917">
        <ele>15.5184</ele>
        <time>2013-05-26T11:49:45Z</time>
      </trkpt>
      <trkpt lat="59.8504731" lon="17.6197904">
        <ele>15.5184</ele>
        <time>2013-05-26T11:49:46Z</time>
      </trkpt>
      <trkpt lat="59.8505253" lon="17.6196919">
        <ele>15.5184</ele>
        <time>2013-05-26T11:49:47Z</time>
      </trkpt>
      <trkpt lat="59.8505784" lon="17.6195868">
        <ele>15.0377</ele>
        <time>2013-05-26T11:49:48Z</time>
      </trkpt>
      <trkpt lat="59.8506328" lon="17.619476">
        <ele>15.0377</ele>
        <time>2013-05-26T11:49:49Z</time>
      </trkpt>
      <trkpt lat="59.8506877" lon="17.619369">
        <ele>14.557</ele>
        <time>2013-05-26T11:49:50Z</time>
      </trkpt>
      <trkpt lat="59.8507411" lon="17.6192644">
        <ele>14.557</ele>
        <time>2013-05-26T11:49:51Z</time>
      </trkpt>
      <trkpt lat="59.8507927" lon="17.6191675">
        <ele>13.5958</ele>
        <time>2013-05-26T11:49:52Z</time>
      </trkpt>
      <trkpt lat="59.8508502" lon="17.6190741">
        <ele>13.1151</ele>
        <time>2013-05-26T11:49:53Z</time>
      </trkpt>
      <trkpt lat="59.8509115" lon="17.618986">
        <ele>13.1151</ele>
        <time>2013-05-26T11:49:54Z</time>
      </trkpt>
      <trkpt lat="59.8509767" lon="17.6189">
        <ele>13.1151</ele>
        <time>2013-05-26T11:49:55Z</time>
      </trkpt>
      <trkpt lat="59.851047" lon="17.6188335">
        <ele>13.1151</ele>
        <time>2013-05-26T11:49:56Z</time>
      </trkpt>
      <trkpt lat="59.8511135" lon="17.618774">
        <ele>12.6344</ele>
        <time>2013-05-26T11:49:57Z</time>
      </trkpt>
      <trkpt lat="59.8511809" lon="17.6187194">
        <ele>12.6344</ele>
        <time>2013-05-26T11:49:58Z</time>
      </trkpt>
      <trkpt lat="59.8512505" lon="17.6186376">
        <ele>11.1925</ele>
        <time>2013-05-26T11:49:59Z</time>
      </trkpt>
      <trkpt lat="59.8513158" lon="17.6185703">
        <ele>10.7118</ele>
        <time>2013-05-26T11:50:00Z</time>
      </trkpt>
      <trkpt lat="59.8513917" lon="17.6185084">
        <ele>11.1925</ele>
        <time>2013-05-26T11:50:01Z</time>
      </trkpt>
      <trkpt lat="59.8514636" lon="17.6184441">
        <ele>11.1925</ele>
        <time>2013-05-26T11:50:02Z</time>
      </trkpt>
      <trkpt lat="59.8515388" lon="17.6183745">
        <ele>11.1925</ele>
        <time>2013-05-26T11:50:03Z</time>
      </trkpt>
      <trkpt lat="59.8516118" lon="17.6183185">
        <ele>10.7118</ele>
        <time>2013-05-26T11:50:04Z</time>
      </trkpt>
      <trkpt lat="59.8516841" lon="17.6182594">
        <ele>11.1925</ele>
        <time>2013-05-26T11:50:05Z</time>
      </trkpt>
      <trkpt lat="59.8517611" lon="17.618197">
        <ele>12.6344</ele>
        <time>2013-05-26T11:50:06Z</time>
      </trkpt>
      <trkpt lat="59.8518393" lon="17.6181337">
        <ele>14.0764</ele>
        <time>2013-05-26T11:50:07Z</time>
      </trkpt>
      <trkpt lat="59.8519126" lon="17.6180825">
        <ele>14.557</ele>
        <time>2013-05-26T11:50:08Z</time>
      </trkpt>
      <trkpt lat="59.851989" lon="17.6180218">
        <ele>15.5184</ele>
        <time>2013-05-26T11:50:09Z</time>
      </trkpt>
      <trkpt lat="59.8520623" lon="17.6179684">
        <ele>16.4797</ele>
        <time>2013-05-26T11:50:10Z</time>
      </trkpt>
      <trkpt lat="59.8521369" lon="17.6179015">
        <ele>17.9218</ele>
        <time>2013-05-26T11:50:11Z</time>
      </trkpt>
      <trkpt lat="59.8522099" lon="17.6178451">
        <ele>18.8831</ele>
        <time>2013-05-26T11:50:12Z</time>
      </trkpt>
      <trkpt lat="59.8522825" lon="17.6177842">
        <ele>19.3638</ele>
        <time>2013-05-26T11:50:13Z</time>
      </trkpt>
      <trkpt lat="59.852351" lon="17.6177254">
        <ele>19.8444</ele>
        <time>2013-05-26T11:50:14Z</time>
      </trkpt>
      <trkpt lat="59.8524203" lon="17.6176635">
        <ele>20.325</ele>
        <time>2013-05-26T11:50:15Z</time>
      </trkpt>
      <trkpt lat="59.8524909" lon="17.6176054">
        <ele>20.325</ele>
        <time>2013-05-26T11:50:16Z</time>
      </trkpt>
      <trkpt lat="59.8525611" lon="17.6175494">
        <ele>20.8057</ele>
        <time>2013-05-26T11:50:17Z</time>
      </trkpt>
      <trkpt lat="59.8526323" lon="17.6174858">
        <ele>20.8057</ele>
        <time>2013-05-26T11:50:18Z</time>
      </trkpt>
      <trkpt lat="59.8527031" lon="17.6174224">
        <ele>20.8057</ele>
        <time>2013-05-26T11:50:19Z</time>
      </trkpt>
      <trkpt lat="59.8527695" lon="17.61737">
        <ele>20.325</ele>
        <time>2013-05-26T11:50:20Z</time>
      </trkpt>
      <trkpt lat="59.8528409" lon="17.6173092">
        <ele>20.8057</ele>
        <time>2013-05-26T11:50:21Z</time>
      </trkpt>
      <trkpt lat="59.8529094" lon="17.6172506">
        <ele>20.325</ele>
        <time>2013-05-26T11:50:22Z</time>
      </trkpt>
      <trkpt lat="59.8529772" lon="17.6172004">
        <ele>20.8057</ele>
        <time>2013-05-26T11:50:23Z</time>
      </trkpt>
      <trkpt lat="59.8530457" lon="17.6171408">
        <ele>21.2864</ele>
        <time>2013-05-26T11:50:24Z</time>
      </trkpt>
      <trkpt lat="59.8531141" lon="17.6170756">
        <ele>21.767</ele>
        <time>2013-05-26T11:50:25Z</time>
      </trkpt>
      <trkpt lat="59.853181" lon="17.6170207">
        <ele>22.2476</ele>
        <time>2013-05-26T11:50:26Z</time>
      </trkpt>
      <trkpt lat="59.8532456" lon="17.6169768">
        <ele>22.7283</ele>
        <time>2013-05-26T11:50:27Z</time>
      </trkpt>
      <trkpt lat="59.8533067" lon="17.616925">
        <ele>23.6896</ele>
        <time>2013-05-26T11:50:28Z</time>
      </trkpt>
      <trkpt lat="59.853364" lon="17.6168688">
        <ele>23.6896</ele>
        <time>2013-05-26T11:50:29Z</time>
      </trkpt>
      <trkpt lat="59.8534181" lon="17.616823">
        <ele>23.209</ele>
        <time>2013-05-26T11:50:30Z</time>
      </trkpt>
      <trkpt lat="59.8534713" lon="17.6167993">
        <ele>23.209</ele>
        <time>2013-05-26T11:50:31Z</time>
      </trkpt>
      <trkpt lat="59.8535264" lon="17.6167813">
        <ele>22.2476</ele>
        <time>2013-05-26T11:50:32Z</time>
      </trkpt>
      <trkpt lat="59.8535837" lon="17.6167559">
        <ele>22.2476</ele>
        <time>2013-05-26T11:50:33Z</time>
      </trkpt>
      <trkpt lat="59.8536474" lon="17.6166423">
        <ele>22.2476</ele>
        <time>2013-05-26T11:50:34Z</time>
      </trkpt>
      <trkpt lat="59.8536745" lon="17.6165438">
        <ele>20.8057</ele>
        <time>2013-05-26T11:50:35Z</time>
      </trkpt>
      <trkpt lat="59.8536989" lon="17.6164336">
        <ele>17.9218</ele>
        <time>2013-05-26T11:50:36Z</time>
      </trkpt>
      <trkpt lat="59.8537339" lon="17.6163596">
        <ele>16.9604</ele>
        <time>2013-05-26T11:50:37Z</time>
      </trkpt>
      <trkpt lat="59.8537776" lon="17.6162834">
        <ele>16.4797</ele>
        <time>2013-05-26T11:50:38Z</time>
      </trkpt>
      <trkpt lat="59.8538279" lon="17.6162205">
        <ele>15.999</ele>
        <time>2013-05-26T11:50:39Z</time>
      </trkpt>
      <trkpt lat="59.8538745" lon="17.6161643">
        <ele>14.0764</ele>
        <time>2013-05-26T11:50:40Z</time>
      </trkpt>
      <trkpt lat="59.8539227" lon="17.6161017">
        <ele>12.6344</ele>
        <time>2013-05-26T11:50:41Z</time>
      </trkpt>
      <trkpt lat="59.8539739" lon="17.6160585">
        <ele>10.2312</ele>
        <time>2013-05-26T11:50:42Z</time>
      </trkpt>
      <trkpt lat="59.8540262" lon="17.6159955">
        <ele>8.78918</ele>
        <time>2013-05-26T11:50:43Z</time>
      </trkpt>
      <trkpt lat="59.8540813" lon="17.6159347">
        <ele>8.30859</ele>
        <time>2013-05-26T11:50:44Z</time>
      </trkpt>
      <trkpt lat="59.8541331" lon="17.6158748">
        <ele>6.38586</ele>
        <time>2013-05-26T11:50:45Z</time>
      </trkpt>
      <trkpt lat="59.8541864" lon="17.6158129">
        <ele>4.94385</ele>
        <time>2013-05-26T11:50:46Z</time>
      </trkpt>
      <trkpt lat="59.85424" lon="17.6157652">
        <ele>2.54065</ele>
        <time>2013-05-26T11:50:47Z</time>
      </trkpt>
      <trkpt lat="59.8542954" lon="17.6156991">
        <ele>1.09863</ele>
        <time>2013-05-26T11:50:48Z</time>
      </trkpt>
      <trkpt lat="59.8543417" lon="17.6156085">
        <ele>0.137451</ele>
        <time>2013-05-26T11:50:49Z</time>
      </trkpt>
      <trkpt lat="59.8543954" lon="17.6155478">
        <ele>0</ele>
        <time>2013-05-26T11:50:50Z</time>
      </trkpt>
      <trkpt lat="59.8544583" lon="17.6154837">
        <ele>0.137451</ele>
        <time>2013-05-26T11:50:51Z</time>
      </trkpt>
      <trkpt lat="59.8545156" lon="17.6154262">
        <ele>0</ele>
        <time>2013-05-26T11:50:52Z</time>
      </trkpt>
      <trkpt lat="59.8545637" lon="17.6153584">
        <ele>0</ele>
        <time>2013-05-26T11:50:53Z</time>
      </trkpt>
      <trkpt lat="59.8546194" lon="17.615298">
        <ele>0</ele>
        <time>2013-05-26T11:50:54Z</time>
      </trkpt>
      <trkpt lat="59.8546774" lon="17.6152353">
        <ele>0</ele>
        <time>2013-05-26T11:50:55Z</time>
      </trkpt>
      <trkpt lat="59.8547249" lon="17.6151604">
        <ele>0</ele>
        <time>2013-05-26T11:50:56Z</time>
      </trkpt>
      <trkpt lat="59.8547778" lon="17.6150866">
        <ele>0</ele>
        <time>2013-05-26T11:50:57Z</time>
      </trkpt>
      <trkpt lat="59.8548312" lon="17.615021">
        <ele>0</ele>
        <time>2013-05-26T11:50:58Z</time>
      </trkpt>
      <trkpt lat="59.8548876" lon="17.6149584">
        <ele>0</ele>
        <time>2013-05-26T11:50:59Z</time>
      </trkpt>
      <trkpt lat="59.8549406" lon="17.6149014">
        <ele>0</ele>
        <time>2013-05-26T11:51:00Z</time>
      </trkpt>
      <trkpt lat="59.8549934" lon="17.6148463">
        <ele>0</ele>
        <time>2013-05-26T11:51:01Z</time>
      </trkpt>
      <trkpt lat="59.8550595" lon="17.6147846">
        <ele>0</ele>
        <time>2013-05-26T11:51:02Z</time>
      </trkpt>
      <trkpt lat="59.8551268" lon="17.6147303">
        <ele>0</ele>
        <time>2013-05-26T11:51:03Z</time>
      </trkpt>
      <trkpt lat="59.8551918" lon="17.6146992">
        <ele>0</ele>
        <time>2013-05-26T11:51:04Z</time>
      </trkpt>
      <trkpt lat="59.8552627" lon="17.6146921">
        <ele>0</ele>
        <time>2013-05-26T11:51:05Z</time>
      </trkpt>
      <trkpt lat="59.855327" lon="17.6146864">
        <ele>0</ele>
        <time>2013-05-26T11:51:06Z</time>
      </trkpt>
      <trkpt lat="59.8553825" lon="17.6146454">
        <ele>0</ele>
        <time>2013-05-26T11:51:07Z</time>
      </trkpt>
      <trkpt lat="59.8554327" lon="17.6145729">
        <ele>0</ele>
        <time>2013-05-26T11:51:08Z</time>
      </trkpt>
      <trkpt lat="59.8554812" lon="17.6144605">
        <ele>0</ele>
        <time>2013-05-26T11:51:09Z</time>
      </trkpt>
      <trkpt lat="59.8555301" lon="17.6143522">
        <ele>0</ele>
        <time>2013-05-26T11:51:10Z</time>
      </trkpt>
      <trkpt lat="59.8555799" lon="17.6142585">
        <ele>0</ele>
        <time>2013-05-26T11:51:11Z</time>
      </trkpt>
      <trkpt lat="59.8556378" lon="17.6141835">
        <ele>0</ele>
        <time>2013-05-26T11:51:12Z</time>
      </trkpt>
      <trkpt lat="59.8557011" lon="17.6141063">
        <ele>0</ele>
        <time>2013-05-26T11:51:13Z</time>
      </trkpt>
      <trkpt lat="59.8557543" lon="17.6140389">
        <ele>0</ele>
        <time>2013-05-26T11:51:14Z</time>
      </trkpt>
      <trkpt lat="59.8558211" lon="17.6139711">
        <ele>0</ele>
        <time>2013-05-26T11:51:15Z</time>
      </trkpt>
      <trkpt lat="59.8558926" lon="17.6138756">
        <ele>0</ele>
        <time>2013-05-26T11:51:16Z</time>
      </trkpt>
      <trkpt lat="59.8559539" lon="17.6138168">
        <ele>0</ele>
        <time>2013-05-26T11:51:17Z</time>
      </trkpt>
      <trkpt lat="59.8560181" lon="17.6137369">
        <ele>0</ele>
        <time>2013-05-26T11:51:18Z</time>
      </trkpt>
      <trkpt lat="59.8560815" lon="17.6136664">
        <ele>0</ele>
        <time>2013-05-26T11:51:19Z</time>
      </trkpt>
      <trkpt lat="59.8561413" lon="17.6136028">
        <ele>0</ele>
        <time>2013-05-26T11:51:20Z</time>
      </trkpt>
      <trkpt lat="59.856203" lon="17.6135464">
        <ele>0</ele>
        <time>2013-05-26T11:51:21Z</time>
      </trkpt>
      <trkpt lat="59.8562651" lon="17.6134857">
        <ele>0</ele>
        <time>2013-05-26T11:51:22Z</time>
      </trkpt>
      <trkpt lat="59.8563333" lon="17.613425">
        <ele>0</ele>
        <time>2013-05-26T11:51:23Z</time>
      </trkpt>
      <trkpt lat="59.8564006" lon="17.6133699">
        <ele>0</ele>
        <time>2013-05-26T11:51:24Z</time>
      </trkpt>
      <trkpt lat="59.8564671" lon="17.6133098">
        <ele>0</ele>
        <time>2013-05-26T11:51:25Z</time>
      </trkpt>
      <trkpt lat="59.8565309" lon="17.6132298">
        <ele>0</ele>
        <time>2013-05-26T11:51:26Z</time>
      </trkpt>
      <trkpt lat="59.8566003" lon="17.6131484">
        <ele>0</ele>
        <time>2013-05-26T11:51:27Z</time>
      </trkpt>
      <trkpt lat="59.8566676" lon="17.6130649">
        <ele>0</ele>
        <time>2013-05-26T11:51:28Z</time>
      </trkpt>
      <trkpt lat="59.8567428" lon="17.6129827">
        <ele>0</ele>
        <time>2013-05-26T11:51:29Z</time>
      </trkpt>
      <trkpt lat="59.8568313" lon="17.612891">
        <ele>0</ele>
        <time>2013-05-26T11:51:30Z</time>
      </trkpt>
      <trkpt lat="59.8569103" lon="17.612792">
        <ele>0</ele>
        <time>2013-05-26T11:51:31Z</time>
      </trkpt>
      <trkpt lat="59.8569894" lon="17.6126972">
        <ele>0.618042</ele>
        <time>2013-05-26T11:51:32Z</time>
      </trkpt>
      <trkpt lat="59.8570665" lon="17.6126062">
        <ele>1.57935</ele>
        <time>2013-05-26T11:51:33Z</time>
      </trkpt>
      <trkpt lat="59.8571401" lon="17.6125098">
        <ele>3.02124</ele>
        <time>2013-05-26T11:51:34Z</time>
      </trkpt>
      <trkpt lat="59.8572126" lon="17.6124161">
        <ele>3.98267</ele>
        <time>2013-05-26T11:51:35Z</time>
      </trkpt>
      <trkpt lat="59.857282" lon="17.6123257">
        <ele>3.98267</ele>
        <time>2013-05-26T11:51:36Z</time>
      </trkpt>
      <trkpt lat="59.8573496" lon="17.6122378">
        <ele>3.50195</ele>
        <time>2013-05-26T11:51:37Z</time>
      </trkpt>
      <trkpt lat="59.8574156" lon="17.6121454">
        <ele>3.50195</ele>
        <time>2013-05-26T11:51:38Z</time>
      </trkpt>
      <trkpt lat="59.8574797" lon="17.6120497">
        <ele>3.50195</ele>
        <time>2013-05-26T11:51:39Z</time>
      </trkpt>
      <trkpt lat="59.8575405" lon="17.6119612">
        <ele>3.02124</ele>
        <time>2013-05-26T11:51:40Z</time>
      </trkpt>
      <trkpt lat="59.8575996" lon="17.6118705">
        <ele>2.06006</ele>
        <time>2013-05-26T11:51:41Z</time>
      </trkpt>
      <trkpt lat="59.8576596" lon="17.6117846">
        <ele>1.57935</ele>
        <time>2013-05-26T11:51:42Z</time>
      </trkpt>
      <trkpt lat="59.8577145" lon="17.6117059">
        <ele>1.09863</ele>
        <time>2013-05-26T11:51:43Z</time>
      </trkpt>
      <trkpt lat="59.8577716" lon="17.6116255">
        <ele>0.618042</ele>
        <time>2013-05-26T11:51:44Z</time>
      </trkpt>
      <trkpt lat="59.857829" lon="17.6115483">
        <ele>0.137451</ele>
        <time>2013-05-26T11:51:45Z</time>
      </trkpt>
      <trkpt lat="59.8578844" lon="17.6114635">
        <ele>0.137451</ele>
        <time>2013-05-26T11:51:46Z</time>
      </trkpt>
      <trkpt lat="59.8579413" lon="17.6113839">
        <ele>0.137451</ele>
        <time>2013-05-26T11:51:47Z</time>
      </trkpt>
      <trkpt lat="59.8579978" lon="17.6113064">
        <ele>0</ele>
        <time>2013-05-26T11:51:48Z</time>
      </trkpt>
      <trkpt lat="59.8580551" lon="17.6112321">
        <ele>0</ele>
        <time>2013-05-26T11:51:49Z</time>
      </trkpt>
      <trkpt lat="59.8581159" lon="17.6111619">
        <ele>0.137451</ele>
        <time>2013-05-26T11:51:50Z</time>
      </trkpt>
      <trkpt lat="59.8581749" lon="17.6110956">
        <ele>0</ele>
        <time>2013-05-26T11:51:51Z</time>
      </trkpt>
      <trkpt lat="59.8582339" lon="17.6110282">
        <ele>0</ele>
        <time>2013-05-26T11:51:52Z</time>
      </trkpt>
      <trkpt lat="59.8582936" lon="17.6109833">
        <ele>0</ele>
        <time>2013-05-26T11:51:53Z</time>
      </trkpt>
      <trkpt lat="59.8583532" lon="17.6109313">
        <ele>0</ele>
        <time>2013-05-26T11:51:54Z</time>
      </trkpt>
      <trkpt lat="59.858416" lon="17.610875">
        <ele>0</ele>
        <time>2013-05-26T11:51:55Z</time>
      </trkpt>
      <trkpt lat="59.8584765" lon="17.6108262">
        <ele>0</ele>
        <time>2013-05-26T11:51:56Z</time>
      </trkpt>
      <trkpt lat="59.8585345" lon="17.6107607">
        <ele>0</ele>
        <time>2013-05-26T11:51:57Z</time>
      </trkpt>
      <trkpt lat="59.858591" lon="17.6107008">
        <ele>0</ele>
        <time>2013-05-26T11:51:58Z</time>
      </trkpt>
      <trkpt lat="59.8586484" lon="17.6106407">
        <ele>0</ele>
        <time>2013-05-26T11:51:59Z</time>
      </trkpt>
      <trkpt lat="59.8587084" lon="17.6105771">
        <ele>0</ele>
        <time>2013-05-26T11:52:00Z</time>
      </trkpt>
      <trkpt lat="59.8587648" lon="17.6104936">
        <ele>0.137451</ele>
        <time>2013-05-26T11:52:01Z</time>
      </trkpt>
      <trkpt lat="59.8588185" lon="17.6104128">
        <ele>0.137451</ele>
        <time>2013-05-26T11:52:02Z</time>
      </trkpt>
      <trkpt lat="59.858866" lon="17.6103292">
        <ele>1.09863</ele>
        <time>2013-05-26T11:52:03Z</time>
      </trkpt>
      <trkpt lat="59.8589169" lon="17.6102424">
        <ele>2.06006</ele>
        <time>2013-05-26T11:52:04Z</time>
      </trkpt>
      <trkpt lat="59.8589715" lon="17.6101565">
        <ele>3.02124</ele>
        <time>2013-05-26T11:52:05Z</time>
      </trkpt>
      <trkpt lat="59.8590338" lon="17.610105">
        <ele>3.98267</ele>
        <time>2013-05-26T11:52:06Z</time>
      </trkpt>
      <trkpt lat="59.8590977" lon="17.6100491">
        <ele>4.94385</ele>
        <time>2013-05-26T11:52:07Z</time>
      </trkpt>
      <trkpt lat="59.8591571" lon="17.6099943">
        <ele>5.42456</ele>
        <time>2013-05-26T11:52:08Z</time>
      </trkpt>
      <trkpt lat="59.8592147" lon="17.6099345">
        <ele>6.38586</ele>
        <time>2013-05-26T11:52:09Z</time>
      </trkpt>
      <trkpt lat="59.8592715" lon="17.6098793">
        <ele>6.38586</ele>
        <time>2013-05-26T11:52:10Z</time>
      </trkpt>
      <trkpt lat="59.8593259" lon="17.6098236">
        <ele>6.86646</ele>
        <time>2013-05-26T11:52:11Z</time>
      </trkpt>
      <trkpt lat="59.8593788" lon="17.6097669">
        <ele>7.34717</ele>
        <time>2013-05-26T11:52:12Z</time>
      </trkpt>
      <trkpt lat="59.8594315" lon="17.6097088">
        <ele>7.34717</ele>
        <time>2013-05-26T11:52:13Z</time>
      </trkpt>
      <trkpt lat="59.8594843" lon="17.6096491">
        <ele>7.82788</ele>
        <time>2013-05-26T11:52:14Z</time>
      </trkpt>
      <trkpt lat="59.8595398" lon="17.6095944">
        <ele>7.82788</ele>
        <time>2013-05-26T11:52:15Z</time>
      </trkpt>
      <trkpt lat="59.8595893" lon="17.6095426">
        <ele>7.34717</ele>
        <time>2013-05-26T11:52:16Z</time>
      </trkpt>
      <trkpt lat="59.8596384" lon="17.6094922">
        <ele>5.90527</ele>
        <time>2013-05-26T11:52:17Z</time>
      </trkpt>
      <trkpt lat="59.8596871" lon="17.6094343">
        <ele>4.94385</ele>
        <time>2013-05-26T11:52:18Z</time>
      </trkpt>
      <trkpt lat="59.8597398" lon="17.6093918">
        <ele>4.94385</ele>
        <time>2013-05-26T11:52:19Z</time>
      </trkpt>
      <trkpt lat="59.859792" lon="17.6093525">
        <ele>4.94385</ele>
        <time>2013-05-26T11:52:20Z</time>
      </trkpt>
      <trkpt lat="59.8598474" lon="17.6093038">
        <ele>4.94385</ele>
        <time>2013-05-26T11:52:21Z</time>
      </trkpt>
      <trkpt lat="59.8599093" lon="17.6092407">
        <ele>3.98267</ele>
        <time>2013-05-26T11:52:22Z</time>
      </trkpt>
      <trkpt lat="59.8599714" lon="17.6091797">
        <ele>3.50195</ele>
        <time>2013-05-26T11:52:23Z</time>
      </trkpt>
      <trkpt lat="59.8600325" lon="17.6091282">
        <ele>3.50195</ele>
        <time>2013-05-26T11:52:24Z</time>
      </trkpt>
      <trkpt lat="59.8600943" lon="17.609079">
        <ele>3.50195</ele>
        <time>2013-05-26T11:52:25Z</time>
      </trkpt>
      <trkpt lat="59.8601534" lon="17.6090233">
        <ele>3.50195</ele>
        <time>2013-05-26T11:52:26Z</time>
      </trkpt>
      <trkpt lat="59.8602108" lon="17.6089696">
        <ele>3.50195</ele>
        <time>2013-05-26T11:52:27Z</time>
      </trkpt>
      <trkpt lat="59.8602703" lon="17.6089197">
        <ele>4.94385</ele>
        <time>2013-05-26T11:52:28Z</time>
      </trkpt>
      <trkpt lat="59.8603268" lon="17.6088697">
        <ele>4.94385</ele>
        <time>2013-05-26T11:52:29Z</time>
      </trkpt>
      <trkpt lat="59.8603828" lon="17.6088109">
        <ele>3.98267</ele>
        <time>2013-05-26T11:52:30Z</time>
      </trkpt>
      <trkpt lat="59.8604414" lon="17.608746">
        <ele>3.98267</ele>
        <time>2013-05-26T11:52:31Z</time>
      </trkpt>
      <trkpt lat="59.8605009" lon="17.608677">
        <ele>3.50195</ele>
        <time>2013-05-26T11:52:32Z</time>
      </trkpt>
      <trkpt lat="59.8605621" lon="17.608612">
        <ele>3.50195</ele>
        <time>2013-05-26T11:52:33Z</time>
      </trkpt>
      <trkpt lat="59.8606224" lon="17.6085383">
        <ele>3.50195</ele>
        <time>2013-05-26T11:52:34Z</time>
      </trkpt>
      <trkpt lat="59.8606827" lon="17.6084649">
        <ele>3.50195</ele>
        <time>2013-05-26T11:52:35Z</time>
      </trkpt>
      <trkpt lat="59.8607474" lon="17.6083978">
        <ele>3.50195</ele>
        <time>2013-05-26T11:52:36Z</time>
      </trkpt>
      <trkpt lat="59.860819" lon="17.6083373">
        <ele>4.94385</ele>
        <time>2013-05-26T11:52:37Z</time>
      </trkpt>
      <trkpt lat="59.8608774" lon="17.6082615">
        <ele>4.46326</ele>
        <time>2013-05-26T11:52:38Z</time>
      </trkpt>
      <trkpt lat="59.8609413" lon="17.6081771">
        <ele>4.46326</ele>
        <time>2013-05-26T11:52:39Z</time>
      </trkpt>
      <trkpt lat="59.8610028" lon="17.6080945">
        <ele>4.46326</ele>
        <time>2013-05-26T11:52:40Z</time>
      </trkpt>
      <trkpt lat="59.8610596" lon="17.6080112">
        <ele>3.98267</ele>
        <time>2013-05-26T11:52:41Z</time>
      </trkpt>
      <trkpt lat="59.8611125" lon="17.6079234">
        <ele>3.98267</ele>
        <time>2013-05-26T11:52:42Z</time>
      </trkpt>
      <trkpt lat="59.8611633" lon="17.6078329">
        <ele>3.50195</ele>
        <time>2013-05-26T11:52:43Z</time>
      </trkpt>
      <trkpt lat="59.8612155" lon="17.6077345">
        <ele>3.98267</ele>
        <time>2013-05-26T11:52:44Z</time>
      </trkpt>
      <trkpt lat="59.8612627" lon="17.6076452">
        <ele>3.02124</ele>
        <time>2013-05-26T11:52:45Z</time>
      </trkpt>
      <trkpt lat="59.8613136" lon="17.6075518">
        <ele>3.02124</ele>
        <time>2013-05-26T11:52:46Z</time>
      </trkpt>
      <trkpt lat="59.8613707" lon="17.6074585">
        <ele>3.50195</ele>
        <time>2013-05-26T11:52:47Z</time>
      </trkpt>
      <trkpt lat="59.8614234" lon="17.6073711">
        <ele>3.02124</ele>
        <time>2013-05-26T11:52:48Z</time>
      </trkpt>
      <trkpt lat="59.8614741" lon="17.6072812">
        <ele>3.02124</ele>
        <time>2013-05-26T11:52:49Z</time>
      </trkpt>
      <trkpt lat="59.8615253" lon="17.6071953">
        <ele>3.02124</ele>
        <time>2013-05-26T11:52:50Z</time>
      </trkpt>
      <trkpt lat="59.8615755" lon="17.6070976">
        <ele>3.50195</ele>
        <time>2013-05-26T11:52:51Z</time>
      </trkpt>
      <trkpt lat="59.8616333" lon="17.6069835">
        <ele>5.90527</ele>
        <time>2013-05-26T11:52:52Z</time>
      </trkpt>
      <trkpt lat="59.8616867" lon="17.6068913">
        <ele>5.90527</ele>
        <time>2013-05-26T11:52:53Z</time>
      </trkpt>
      <trkpt lat="59.861741" lon="17.6068085">
        <ele>4.94385</ele>
        <time>2013-05-26T11:52:54Z</time>
      </trkpt>
      <trkpt lat="59.8617984" lon="17.6067215">
        <ele>5.42456</ele>
        <time>2013-05-26T11:52:55Z</time>
      </trkpt>
      <trkpt lat="59.8618626" lon="17.6066339">
        <ele>5.90527</ele>
        <time>2013-05-26T11:52:56Z</time>
      </trkpt>
      <trkpt lat="59.8619206" lon="17.6065428">
        <ele>6.38586</ele>
        <time>2013-05-26T11:52:57Z</time>
      </trkpt>
      <trkpt lat="59.8619762" lon="17.6064545">
        <ele>6.38586</ele>
        <time>2013-05-26T11:52:58Z</time>
      </trkpt>
      <trkpt lat="59.8620321" lon="17.6063665">
        <ele>5.90527</ele>
        <time>2013-05-26T11:52:59Z</time>
      </trkpt>
      <trkpt lat="59.8620814" lon="17.6062812">
        <ele>3.98267</ele>
        <time>2013-05-26T11:53:00Z</time>
      </trkpt>
      <trkpt lat="59.8621425" lon="17.6061997">
        <ele>3.50195</ele>
        <time>2013-05-26T11:53:01Z</time>
      </trkpt>
      <trkpt lat="59.8622033" lon="17.6061129">
        <ele>3.50195</ele>
        <time>2013-05-26T11:53:02Z</time>
      </trkpt>
      <trkpt lat="59.8622591" lon="17.6060273">
        <ele>3.02124</ele>
        <time>2013-05-26T11:53:03Z</time>
      </trkpt>
      <trkpt lat="59.8623072" lon="17.6059384">
        <ele>1.57935</ele>
        <time>2013-05-26T11:53:04Z</time>
      </trkpt>
      <trkpt lat="59.862358" lon="17.6058487">
        <ele>0.618042</ele>
        <time>2013-05-26T11:53:05Z</time>
      </trkpt>
      <trkpt lat="59.8624106" lon="17.605758">
        <ele>0.137451</ele>
        <time>2013-05-26T11:53:06Z</time>
      </trkpt>
      <trkpt lat="59.8624639" lon="17.6056619">
        <ele>0.137451</ele>
        <time>2013-05-26T11:53:07Z</time>
      </trkpt>
      <trkpt lat="59.8625181" lon="17.6055337">
        <ele>0</ele>
        <time>2013-05-26T11:53:08Z</time>
      </trkpt>
      <trkpt lat="59.8625715" lon="17.6054322">
        <ele>0</ele>
        <time>2013-05-26T11:53:09Z</time>
      </trkpt>
      <trkpt lat="59.8626365" lon="17.6053664">
        <ele>0</ele>
        <time>2013-05-26T11:53:10Z</time>
      </trkpt>
      <trkpt lat="59.8626851" lon="17.6052705">
        <ele>0.137451</ele>
        <time>2013-05-26T11:53:11Z</time>
      </trkpt>
      <trkpt lat="59.8627344" lon="17.60517">
        <ele>0.137451</ele>
        <time>2013-05-26T11:53:12Z</time>
      </trkpt>
      <trkpt lat="59.8627945" lon="17.6050856">
        <ele>0.137451</ele>
        <time>2013-05-26T11:53:13Z</time>
      </trkpt>
      <trkpt lat="59.8628547" lon="17.6050119">
        <ele>0</ele>
        <time>2013-05-26T11:53:14Z</time>
      </trkpt>
      <trkpt lat="59.862917" lon="17.6049249">
        <ele>0</ele>
        <time>2013-05-26T11:53:15Z</time>
      </trkpt>
      <trkpt lat="59.8629718" lon="17.6048245">
        <ele>0</ele>
        <time>2013-05-26T11:53:16Z</time>
      </trkpt>
      <trkpt lat="59.8630293" lon="17.6047162">
        <ele>0</ele>
        <time>2013-05-26T11:53:17Z</time>
      </trkpt>
      <trkpt lat="59.8630763" lon="17.6046428">
        <ele>0</ele>
        <time>2013-05-26T11:53:18Z</time>
      </trkpt>
      <trkpt lat="59.8631313" lon="17.6045184">
        <ele>0</ele>
        <time>2013-05-26T11:53:19Z</time>
      </trkpt>
      <trkpt lat="59.8632" lon="17.6044033">
        <ele>0</ele>
        <time>2013-05-26T11:53:20Z</time>
      </trkpt>
      <trkpt lat="59.8632876" lon="17.6042594">
        <ele>1.57935</ele>
        <time>2013-05-26T11:53:21Z</time>
      </trkpt>
      <trkpt lat="59.8633404" lon="17.6041625">
        <ele>3.02124</ele>
        <time>2013-05-26T11:53:22Z</time>
      </trkpt>
      <trkpt lat="59.8634064" lon="17.604077">
        <ele>4.46326</ele>
        <time>2013-05-26T11:53:23Z</time>
      </trkpt>
      <trkpt lat="59.8634691" lon="17.603992">
        <ele>5.42456</ele>
        <time>2013-05-26T11:53:24Z</time>
      </trkpt>
      <trkpt lat="59.8635276" lon="17.6039134">
        <ele>5.90527</ele>
        <time>2013-05-26T11:53:25Z</time>
      </trkpt>
      <trkpt lat="59.8635873" lon="17.6038412">
        <ele>6.86646</ele>
        <time>2013-05-26T11:53:26Z</time>
      </trkpt>
      <trkpt lat="59.8636524" lon="17.6037834">
        <ele>7.34717</ele>
        <time>2013-05-26T11:53:27Z</time>
      </trkpt>
      <trkpt lat="59.8637141" lon="17.6037206">
        <ele>9.2699</ele>
        <time>2013-05-26T11:53:28Z</time>
      </trkpt>
      <trkpt lat="59.8637593" lon="17.6036979">
        <ele>9.75061</ele>
        <time>2013-05-26T11:53:29Z</time>
      </trkpt>
      <trkpt lat="59.8638291" lon="17.6036429">
        <ele>9.75061</ele>
        <time>2013-05-26T11:53:30Z</time>
      </trkpt>
      <trkpt lat="59.863902" lon="17.6035918">
        <ele>9.75061</ele>
        <time>2013-05-26T11:53:31Z</time>
      </trkpt>
      <trkpt lat="59.8639763" lon="17.6035483">
        <ele>9.75061</ele>
        <time>2013-05-26T11:53:32Z</time>
      </trkpt>
      <trkpt lat="59.8640475" lon="17.6035163">
        <ele>9.75061</ele>
        <time>2013-05-26T11:53:33Z</time>
      </trkpt>
      <trkpt lat="59.8641196" lon="17.6034778">
        <ele>10.2312</ele>
        <time>2013-05-26T11:53:34Z</time>
      </trkpt>
      <trkpt lat="59.8641923" lon="17.6034452">
        <ele>10.2312</ele>
        <time>2013-05-26T11:53:35Z</time>
      </trkpt>
      <trkpt lat="59.8642523" lon="17.6034053">
        <ele>11.6732</ele>
        <time>2013-05-26T11:53:36Z</time>
      </trkpt>
      <trkpt lat="59.8643347" lon="17.6033491">
        <ele>13.1151</ele>
        <time>2013-05-26T11:53:37Z</time>
      </trkpt>
      <trkpt lat="59.8644139" lon="17.6033372">
        <ele>14.557</ele>
        <time>2013-05-26T11:53:38Z</time>
      </trkpt>
      <trkpt lat="59.8644837" lon="17.6033306">
        <ele>14.0764</ele>
        <time>2013-05-26T11:53:39Z</time>
      </trkpt>
      <trkpt lat="59.8645531" lon="17.6033331">
        <ele>15.0377</ele>
        <time>2013-05-26T11:53:40Z</time>
      </trkpt>
      <trkpt lat="59.8646341" lon="17.6033224">
        <ele>15.5184</ele>
        <time>2013-05-26T11:53:41Z</time>
      </trkpt>
      <trkpt lat="59.8647025" lon="17.6032897">
        <ele>17.4412</ele>
        <time>2013-05-26T11:53:42Z</time>
      </trkpt>
      <trkpt lat="59.8647749" lon="17.6033122">
        <ele>17.9218</ele>
        <time>2013-05-26T11:53:43Z</time>
      </trkpt>
      <trkpt lat="59.8648338" lon="17.6033612">
        <ele>18.4023</ele>
        <time>2013-05-26T11:53:44Z</time>
      </trkpt>
      <trkpt lat="59.8648661" lon="17.6034601">
        <ele>18.8831</ele>
        <time>2013-05-26T11:53:45Z</time>
      </trkpt>
      <trkpt lat="59.8648806" lon="17.6035966">
        <ele>18.4023</ele>
        <time>2013-05-26T11:53:46Z</time>
      </trkpt>
      <trkpt lat="59.8648866" lon="17.6037341">
        <ele>18.4023</ele>
        <time>2013-05-26T11:53:47Z</time>
      </trkpt>
      <trkpt lat="59.8648958" lon="17.6038662">
        <ele>17.9218</ele>
        <time>2013-05-26T11:53:48Z</time>
      </trkpt>
      <trkpt lat="59.8649096" lon="17.6039911">
        <ele>17.9218</ele>
        <time>2013-05-26T11:53:49Z</time>
      </trkpt>
      <trkpt lat="59.8649281" lon="17.6041123">
        <ele>17.4412</ele>
        <time>2013-05-26T11:53:50Z</time>
      </trkpt>
      <trkpt lat="59.864951" lon="17.6042282">
        <ele>16.9604</ele>
        <time>2013-05-26T11:53:51Z</time>
      </trkpt>
      <trkpt lat="59.8649742" lon="17.6043438">
        <ele>16.9604</ele>
        <time>2013-05-26T11:53:52Z</time>
      </trkpt>
      <trkpt lat="59.8649972" lon="17.6044599">
        <ele>16.4797</ele>
        <time>2013-05-26T11:53:53Z</time>
      </trkpt>
      <trkpt lat="59.865023" lon="17.6045779">
        <ele>16.4797</ele>
        <time>2013-05-26T11:53:54Z</time>
      </trkpt>
      <trkpt lat="59.8650515" lon="17.6046903">
        <ele>16.4797</ele>
        <time>2013-05-26T11:53:55Z</time>
      </trkpt>
      <trkpt lat="59.8650821" lon="17.6047998">
        <ele>15.999</ele>
        <time>2013-05-26T11:53:56Z</time>
      </trkpt>
      <trkpt lat="59.8651127" lon="17.6049161">
        <ele>15.5184</ele>
        <time>2013-05-26T11:53:57Z</time>
      </trkpt>
      <trkpt lat="59.8651406" lon="17.6050317">
        <ele>15.5184</ele>
        <time>2013-05-26T11:53:58Z</time>
      </trkpt>
      <trkpt lat="59.8651697" lon="17.6051451">
        <ele>15.0377</ele>
        <time>2013-05-26T11:53:59Z</time>
      </trkpt>
      <trkpt lat="59.8651983" lon="17.6052605">
        <ele>15.0377</ele>
        <time>2013-05-26T11:54:00Z</time>
      </trkpt>
      <trkpt lat="59.8652265" lon="17.6053774">
        <ele>15.0377</ele>
        <time>2013-05-26T11:54:01Z</time>
      </trkpt>
      <trkpt lat="59.8652505" lon="17.6054993">
        <ele>15.0377</ele>
        <time>2013-05-26T11:54:02Z</time>
      </trkpt>
      <trkpt lat="59.8652728" lon="17.605626">
        <ele>14.557</ele>
        <time>2013-05-26T11:54:03Z</time>
      </trkpt>
      <trkpt lat="59.8652939" lon="17.6057514">
        <ele>14.557</ele>
        <time>2013-05-26T11:54:04Z</time>
      </trkpt>
      <trkpt lat="59.8653142" lon="17.6058797">
        <ele>14.0764</ele>
        <time>2013-05-26T11:54:05Z</time>
      </trkpt>
      <trkpt lat="59.8653349" lon="17.6060066">
        <ele>14.0764</ele>
        <time>2013-05-26T11:54:06Z</time>
      </trkpt>
      <trkpt lat="59.8653567" lon="17.6061366">
        <ele>13.5958</ele>
        <time>2013-05-26T11:54:07Z</time>
      </trkpt>
      <trkpt lat="59.8653782" lon="17.6062708">
        <ele>13.1151</ele>
        <time>2013-05-26T11:54:08Z</time>
      </trkpt>
      <trkpt lat="59.8653977" lon="17.6064061">
        <ele>12.6344</ele>
        <time>2013-05-26T11:54:09Z</time>
      </trkpt>
      <trkpt lat="59.8654158" lon="17.6065428">
        <ele>12.1538</ele>
        <time>2013-05-26T11:54:10Z</time>
      </trkpt>
      <trkpt lat="59.8654345" lon="17.6066798">
        <ele>11.6732</ele>
        <time>2013-05-26T11:54:11Z</time>
      </trkpt>
      <trkpt lat="59.8654559" lon="17.6068183">
        <ele>11.1925</ele>
        <time>2013-05-26T11:54:12Z</time>
      </trkpt>
      <trkpt lat="59.8654761" lon="17.606957">
        <ele>10.2312</ele>
        <time>2013-05-26T11:54:13Z</time>
      </trkpt>
      <trkpt lat="59.8654966" lon="17.6070927">
        <ele>9.2699</ele>
        <time>2013-05-26T11:54:14Z</time>
      </trkpt>
      <trkpt lat="59.865524" lon="17.6072265">
        <ele>8.78918</ele>
        <time>2013-05-26T11:54:15Z</time>
      </trkpt>
      <trkpt lat="59.8655483" lon="17.6073629">
        <ele>8.30859</ele>
        <time>2013-05-26T11:54:16Z</time>
      </trkpt>
      <trkpt lat="59.865572" lon="17.6075009">
        <ele>7.34717</ele>
        <time>2013-05-26T11:54:17Z</time>
      </trkpt>
      <trkpt lat="59.8655972" lon="17.6076373">
        <ele>6.86646</ele>
        <time>2013-05-26T11:54:18Z</time>
      </trkpt>
      <trkpt lat="59.8656205" lon="17.6077723">
        <ele>6.38586</ele>
        <time>2013-05-26T11:54:19Z</time>
      </trkpt>
      <trkpt lat="59.8656452" lon="17.607902">
        <ele>5.90527</ele>
        <time>2013-05-26T11:54:20Z</time>
      </trkpt>
      <trkpt lat="59.8656737" lon="17.6080256">
        <ele>5.90527</ele>
        <time>2013-05-26T11:54:21Z</time>
      </trkpt>
      <trkpt lat="59.8656995" lon="17.6081491">
        <ele>4.46326</ele>
        <time>2013-05-26T11:54:22Z</time>
      </trkpt>
      <trkpt lat="59.8657264" lon="17.6082666">
        <ele>3.50195</ele>
        <time>2013-05-26T11:54:23Z</time>
      </trkpt>
      <trkpt lat="59.8657538" lon="17.6083795">
        <ele>3.02124</ele>
        <time>2013-05-26T11:54:24Z</time>
      </trkpt>
      <trkpt lat="59.8657808" lon="17.6084915">
        <ele>2.06006</ele>
        <time>2013-05-26T11:54:25Z</time>
      </trkpt>
      <trkpt lat="59.8658082" lon="17.6086025">
        <ele>1.57935</ele>
        <time>2013-05-26T11:54:26Z</time>
      </trkpt>
      <trkpt lat="59.8658378" lon="17.6087073">
        <ele>1.57935</ele>
        <time>2013-05-26T11:54:27Z</time>
      </trkpt>
      <trkpt lat="59.8658658" lon="17.6088225">
        <ele>2.06006</ele>
        <time>2013-05-26T11:54:28Z</time>
      </trkpt>
      <trkpt lat="59.8658887" lon="17.6089298">
        <ele>2.06006</ele>
        <time>2013-05-26T11:54:29Z</time>
      </trkpt>
      <trkpt lat="59.8659135" lon="17.6090303">
        <ele>2.06006</ele>
        <time>2013-05-26T11:54:30Z</time>
      </trkpt>
      <trkpt lat="59.8659415" lon="17.6091256">
        <ele>2.06006</ele>
        <time>2013-05-26T11:54:31Z</time>
      </trkpt>
      <trkpt lat="59.8659628" lon="17.6091809">
        <ele>2.06006</ele>
        <time>2013-05-26T11:54:32Z</time>
      </trkpt>
      <trkpt lat="59.8659804" lon="17.6092156">
        <ele>1.57935</ele>
        <time>2013-05-26T11:54:33Z</time>
      </trkpt>
      <trkpt lat="59.8659969" lon="17.6092422">
        <ele>1.09863</ele>
        <time>2013-05-26T11:54:34Z</time>
      </trkpt>
      <trkpt lat="59.8660284" lon="17.6092706">
        <ele>1.57935</ele>
        <time>2013-05-26T11:54:35Z</time>
      </trkpt>
      <trkpt lat="59.8660601" lon="17.6093059">
        <ele>1.57935</ele>
        <time>2013-05-26T11:54:36Z</time>
      </trkpt>
      <trkpt lat="59.866091" lon="17.6093373">
        <ele>1.57935</ele>
        <time>2013-05-26T11:54:37Z</time>
      </trkpt>
      <trkpt lat="59.8661301" lon="17.609353">
        <ele>1.57935</ele>
        <time>2013-05-26T11:54:38Z</time>
      </trkpt>
      <trkpt lat="59.8661901" lon="17.6093362">
        <ele>2.06006</ele>
        <time>2013-05-26T11:54:39Z</time>
      </trkpt>
      <trkpt lat="59.8662393" lon="17.6093002">
        <ele>2.54065</ele>
        <time>2013-05-26T11:54:40Z</time>
      </trkpt>
      <trkpt lat="59.8662991" lon="17.6092666">
        <ele>2.06006</ele>
        <time>2013-05-26T11:54:41Z</time>
      </trkpt>
      <trkpt lat="59.8663205" lon="17.6092296">
        <ele>1.09863</ele>
        <time>2013-05-26T11:54:42Z</time>
      </trkpt>
      <trkpt lat="59.8663619" lon="17.6091644">
        <ele>0.618042</ele>
        <time>2013-05-26T11:54:43Z</time>
      </trkpt>
      <trkpt lat="59.8664015" lon="17.6091229">
        <ele>0.618042</ele>
        <time>2013-05-26T11:54:44Z</time>
      </trkpt>
      <trkpt lat="59.8664403" lon="17.6090749">
        <ele>0.618042</ele>
        <time>2013-05-26T11:54:45Z</time>
      </trkpt>
      <trkpt lat="59.8664686" lon="17.6090383">
        <ele>2.06006</ele>
        <time>2013-05-26T11:54:46Z</time>
      </trkpt>
      <trkpt lat="59.8665118" lon="17.6090003">
        <ele>2.54065</ele>
        <time>2013-05-26T11:54:47Z</time>
      </trkpt>
      <trkpt lat="59.8665554" lon="17.6089588">
        <ele>3.98267</ele>
        <time>2013-05-26T11:54:48Z</time>
      </trkpt>
      <trkpt lat="59.866619" lon="17.6088858">
        <ele>6.38586</ele>
        <time>2013-05-26T11:54:49Z</time>
      </trkpt>
      <trkpt lat="59.8666718" lon="17.608811">
        <ele>7.34717</ele>
        <time>2013-05-26T11:54:50Z</time>
      </trkpt>
      <trkpt lat="59.8667269" lon="17.608724">
        <ele>8.30859</ele>
        <time>2013-05-26T11:54:51Z</time>
      </trkpt>
      <trkpt lat="59.8667854" lon="17.6086556">
        <ele>8.30859</ele>
        <time>2013-05-26T11:54:52Z</time>
      </trkpt>
      <trkpt lat="59.8668423" lon="17.6085885">
        <ele>8.30859</ele>
        <time>2013-05-26T11:54:53Z</time>
      </trkpt>
      <trkpt lat="59.8668968" lon="17.6085185">
        <ele>7.82788</ele>
        <time>2013-05-26T11:54:54Z</time>
      </trkpt>
      <trkpt lat="59.8669533" lon="17.608434">
        <ele>7.34717</ele>
        <time>2013-05-26T11:54:55Z</time>
      </trkpt>
      <trkpt lat="59.867006" lon="17.6083432">
        <ele>5.90527</ele>
        <time>2013-05-26T11:54:56Z</time>
      </trkpt>
      <trkpt lat="59.8670589" lon="17.6082706">
        <ele>5.42456</ele>
        <time>2013-05-26T11:54:57Z</time>
      </trkpt>
      <trkpt lat="59.8671126" lon="17.6082064">
        <ele>4.94385</ele>
        <time>2013-05-26T11:54:58Z</time>
      </trkpt>
      <trkpt lat="59.8671692" lon="17.6081375">
        <ele>4.94385</ele>
        <time>2013-05-26T11:54:59Z</time>
      </trkpt>
      <trkpt lat="59.867221" lon="17.6080776">
        <ele>3.50195</ele>
        <time>2013-05-26T11:55:00Z</time>
      </trkpt>
      <trkpt lat="59.8672807" lon="17.6080156">
        <ele>3.50195</ele>
        <time>2013-05-26T11:55:01Z</time>
      </trkpt>
      <trkpt lat="59.8673488" lon="17.6079891">
        <ele>3.02124</ele>
        <time>2013-05-26T11:55:02Z</time>
      </trkpt>
      <trkpt lat="59.8674226" lon="17.6079062">
        <ele>2.54065</ele>
        <time>2013-05-26T11:55:03Z</time>
      </trkpt>
      <trkpt lat="59.8674782" lon="17.607848">
        <ele>2.06006</ele>
        <time>2013-05-26T11:55:04Z</time>
      </trkpt>
      <trkpt lat="59.8675406" lon="17.6077649">
        <ele>1.09863</ele>
        <time>2013-05-26T11:55:05Z</time>
      </trkpt>
      <trkpt lat="59.8676021" lon="17.6076881">
        <ele>0</ele>
        <time>2013-05-26T11:55:06Z</time>
      </trkpt>
      <trkpt lat="59.8676645" lon="17.6076187">
        <ele>0</ele>
        <time>2013-05-26T11:55:07Z</time>
      </trkpt>
      <trkpt lat="59.8677255" lon="17.6075512">
        <ele>0</ele>
        <time>2013-05-26T11:55:08Z</time>
      </trkpt>
      <trkpt lat="59.867787" lon="17.6074853">
        <ele>0.618042</ele>
        <time>2013-05-26T11:55:09Z</time>
      </trkpt>
      <trkpt lat="59.8678462" lon="17.6074208">
        <ele>1.09863</ele>
        <time>2013-05-26T11:55:10Z</time>
      </trkpt>
      <trkpt lat="59.8679043" lon="17.60736">
        <ele>1.57935</ele>
        <time>2013-05-26T11:55:11Z</time>
      </trkpt>
      <trkpt lat="59.8679617" lon="17.607303">
        <ele>2.06006</ele>
        <time>2013-05-26T11:55:12Z</time>
      </trkpt>
      <trkpt lat="59.8680251" lon="17.6072499">
        <ele>2.54065</ele>
        <time>2013-05-26T11:55:13Z</time>
      </trkpt>
      <trkpt lat="59.8680897" lon="17.6072151">
        <ele>3.98267</ele>
        <time>2013-05-26T11:55:14Z</time>
      </trkpt>
      <trkpt lat="59.8681482" lon="17.6071631">
        <ele>3.98267</ele>
        <time>2013-05-26T11:55:15Z</time>
      </trkpt>
      <trkpt lat="59.8682021" lon="17.6070948">
        <ele>4.94385</ele>
        <time>2013-05-26T11:55:16Z</time>
      </trkpt>
      <trkpt lat="59.8682548" lon="17.6070225">
        <ele>5.42456</ele>
        <time>2013-05-26T11:55:17Z</time>
      </trkpt>
      <trkpt lat="59.8683098" lon="17.6069613">
        <ele>5.90527</ele>
        <time>2013-05-26T11:55:18Z</time>
      </trkpt>
      <trkpt lat="59.8683612" lon="17.6069028">
        <ele>6.38586</ele>
        <time>2013-05-26T11:55:19Z</time>
      </trkpt>
      <trkpt lat="59.8684062" lon="17.6068473">
        <ele>6.86646</ele>
        <time>2013-05-26T11:55:20Z</time>
      </trkpt>
      <trkpt lat="59.8684502" lon="17.6067846">
        <ele>7.34717</ele>
        <time>2013-05-26T11:55:21Z</time>
      </trkpt>
      <trkpt lat="59.8684942" lon="17.6067263">
        <ele>5.42456</ele>
        <time>2013-05-26T11:55:22Z</time>
      </trkpt>
      <trkpt lat="59.868543" lon="17.6066705">
        <ele>4.46326</ele>
        <time>2013-05-26T11:55:23Z</time>
      </trkpt>
      <trkpt lat="59.8685957" lon="17.6066141">
        <ele>4.46326</ele>
        <time>2013-05-26T11:55:24Z</time>
      </trkpt>
      <trkpt lat="59.86865" lon="17.6065543">
        <ele>4.46326</ele>
        <time>2013-05-26T11:55:25Z</time>
      </trkpt>
      <trkpt lat="59.8687041" lon="17.6064906">
        <ele>4.46326</ele>
        <time>2013-05-26T11:55:26Z</time>
      </trkpt>
      <trkpt lat="59.8687578" lon="17.6064232">
        <ele>4.46326</ele>
        <time>2013-05-26T11:55:27Z</time>
      </trkpt>
      <trkpt lat="59.8688126" lon="17.6063546">
        <ele>4.46326</ele>
        <time>2013-05-26T11:55:28Z</time>
      </trkpt>
      <trkpt lat="59.8688686" lon="17.606287">
        <ele>4.46326</ele>
        <time>2013-05-26T11:55:29Z</time>
      </trkpt>
      <trkpt lat="59.8689243" lon="17.6062216">
        <ele>4.46326</ele>
        <time>2013-05-26T11:55:30Z</time>
      </trkpt>
      <trkpt lat="59.8689807" lon="17.6061579">
        <ele>4.46326</ele>
        <time>2013-05-26T11:55:31Z</time>
      </trkpt>
      <trkpt lat="59.8690383" lon="17.6060931">
        <ele>4.46326</ele>
        <time>2013-05-26T11:55:32Z</time>
      </trkpt>
      <trkpt lat="59.8690963" lon="17.6060279">
        <ele>4.46326</ele>
        <time>2013-05-26T11:55:33Z</time>
      </trkpt>
      <trkpt lat="59.8691542" lon="17.6059614">
        <ele>4.46326</ele>
        <time>2013-05-26T11:55:34Z</time>
      </trkpt>
      <trkpt lat="59.8692133" lon="17.6058958">
        <ele>4.94385</ele>
        <time>2013-05-26T11:55:35Z</time>
      </trkpt>
      <trkpt lat="59.8692728" lon="17.6058321">
        <ele>4.94385</ele>
        <time>2013-05-26T11:55:36Z</time>
      </trkpt>
      <trkpt lat="59.8693309" lon="17.6057682">
        <ele>4.94385</ele>
        <time>2013-05-26T11:55:37Z</time>
      </trkpt>
      <trkpt lat="59.8693898" lon="17.6057044">
        <ele>4.94385</ele>
        <time>2013-05-26T11:55:38Z</time>
      </trkpt>
      <trkpt lat="59.8694484" lon="17.6056358">
        <ele>4.94385</ele>
        <time>2013-05-26T11:55:39Z</time>
      </trkpt>
      <trkpt lat="59.869508" lon="17.6055677">
        <ele>4.94385</ele>
        <time>2013-05-26T11:55:40Z</time>
      </trkpt>
      <trkpt lat="59.8695681" lon="17.6054972">
        <ele>4.94385</ele>
        <time>2013-05-26T11:55:41Z</time>
      </trkpt>
      <trkpt lat="59.8696275" lon="17.6054211">
        <ele>4.94385</ele>
        <time>2013-05-26T11:55:42Z</time>
      </trkpt>
      <trkpt lat="59.8696867" lon="17.605341">
        <ele>4.94385</ele>
        <time>2013-05-26T11:55:43Z</time>
      </trkpt>
      <trkpt lat="59.8697466" lon="17.6052581">
        <ele>4.94385</ele>
        <time>2013-05-26T11:55:44Z</time>
      </trkpt>
      <trkpt lat="59.869807" lon="17.6051711">
        <ele>4.94385</ele>
        <time>2013-05-26T11:55:45Z</time>
      </trkpt>
      <trkpt lat="59.8698668" lon="17.6050784">
        <ele>4.94385</ele>
        <time>2013-05-26T11:55:46Z</time>
      </trkpt>
      <trkpt lat="59.8699245" lon="17.6049831">
        <ele>4.46326</ele>
        <time>2013-05-26T11:55:47Z</time>
      </trkpt>
      <trkpt lat="59.8699829" lon="17.6048873">
        <ele>4.46326</ele>
        <time>2013-05-26T11:55:48Z</time>
      </trkpt>
      <trkpt lat="59.8700396" lon="17.6047929">
        <ele>4.46326</ele>
        <time>2013-05-26T11:55:49Z</time>
      </trkpt>
      <trkpt lat="59.870096" lon="17.6046972">
        <ele>4.94385</ele>
        <time>2013-05-26T11:55:50Z</time>
      </trkpt>
      <trkpt lat="59.8701503" lon="17.6045987">
        <ele>4.46326</ele>
        <time>2013-05-26T11:55:51Z</time>
      </trkpt>
      <trkpt lat="59.8702038" lon="17.6044986">
        <ele>4.46326</ele>
        <time>2013-05-26T11:55:52Z</time>
      </trkpt>
      <trkpt lat="59.8702559" lon="17.6043956">
        <ele>4.46326</ele>
        <time>2013-05-26T11:55:53Z</time>
      </trkpt>
      <trkpt lat="59.8703073" lon="17.6042924">
        <ele>4.46326</ele>
        <time>2013-05-26T11:55:54Z</time>
      </trkpt>
      <trkpt lat="59.870358" lon="17.6041853">
        <ele>3.98267</ele>
        <time>2013-05-26T11:55:55Z</time>
      </trkpt>
      <trkpt lat="59.8704067" lon="17.6040806">
        <ele>3.98267</ele>
        <time>2013-05-26T11:55:56Z</time>
      </trkpt>
      <trkpt lat="59.8704556" lon="17.6039755">
        <ele>3.98267</ele>
        <time>2013-05-26T11:55:57Z</time>
      </trkpt>
      <trkpt lat="59.8705046" lon="17.6038683">
        <ele>3.98267</ele>
        <time>2013-05-26T11:55:58Z</time>
      </trkpt>
      <trkpt lat="59.8705513" lon="17.6037574">
        <ele>3.50195</ele>
        <time>2013-05-26T11:55:59Z</time>
      </trkpt>
      <trkpt lat="59.8705974" lon="17.6036428">
        <ele>3.50195</ele>
        <time>2013-05-26T11:56:00Z</time>
      </trkpt>
      <trkpt lat="59.8706419" lon="17.6035255">
        <ele>3.50195</ele>
        <time>2013-05-26T11:56:01Z</time>
      </trkpt>
      <trkpt lat="59.870684" lon="17.6034026">
        <ele>3.50195</ele>
        <time>2013-05-26T11:56:02Z</time>
      </trkpt>
      <trkpt lat="59.8707237" lon="17.6032788">
        <ele>3.50195</ele>
        <time>2013-05-26T11:56:03Z</time>
      </trkpt>
      <trkpt lat="59.8707549" lon="17.6031313">
        <ele>3.50195</ele>
        <time>2013-05-26T11:56:04Z</time>
      </trkpt>
      <trkpt lat="59.8707904" lon="17.602996">
        <ele>3.50195</ele>
        <time>2013-05-26T11:56:05Z</time>
      </trkpt>
      <trkpt lat="59.8708242" lon="17.6028622">
        <ele>3.98267</ele>
        <time>2013-05-26T11:56:06Z</time>
      </trkpt>
      <trkpt lat="59.8708583" lon="17.6027262">
        <ele>3.98267</ele>
        <time>2013-05-26T11:56:07Z</time>
      </trkpt>
      <trkpt lat="59.8708928" lon="17.6025933">
        <ele>3.50195</ele>
        <time>2013-05-26T11:56:08Z</time>
      </trkpt>
      <trkpt lat="59.8709274" lon="17.6024588">
        <ele>2.54065</ele>
        <time>2013-05-26T11:56:09Z</time>
      </trkpt>
      <trkpt lat="59.8709627" lon="17.6023263">
        <ele>1.57935</ele>
        <time>2013-05-26T11:56:10Z</time>
      </trkpt>
      <trkpt lat="59.8709981" lon="17.6021946">
        <ele>1.09863</ele>
        <time>2013-05-26T11:56:11Z</time>
      </trkpt>
      <trkpt lat="59.8710341" lon="17.6020635">
        <ele>1.09863</ele>
        <time>2013-05-26T11:56:12Z</time>
      </trkpt>
      <trkpt lat="59.8710704" lon="17.6019335">
        <ele>1.09863</ele>
        <time>2013-05-26T11:56:13Z</time>
      </trkpt>
      <trkpt lat="59.8711075" lon="17.601807">
        <ele>0.618042</ele>
        <time>2013-05-26T11:56:14Z</time>
      </trkpt>
      <trkpt lat="59.871144" lon="17.6016787">
        <ele>0.618042</ele>
        <time>2013-05-26T11:56:15Z</time>
      </trkpt>
      <trkpt lat="59.8711802" lon="17.601547">
        <ele>0.618042</ele>
        <time>2013-05-26T11:56:16Z</time>
      </trkpt>
      <trkpt lat="59.871218" lon="17.6014174">
        <ele>0.618042</ele>
        <time>2013-05-26T11:56:17Z</time>
      </trkpt>
      <trkpt lat="59.8712577" lon="17.6012901">
        <ele>0.618042</ele>
        <time>2013-05-26T11:56:18Z</time>
      </trkpt>
      <trkpt lat="59.8712983" lon="17.6011632">
        <ele>0.618042</ele>
        <time>2013-05-26T11:56:19Z</time>
      </trkpt>
      <trkpt lat="59.8713411" lon="17.6010368">
        <ele>0.618042</ele>
        <time>2013-05-26T11:56:20Z</time>
      </trkpt>
      <trkpt lat="59.8713853" lon="17.6009113">
        <ele>0.618042</ele>
        <time>2013-05-26T11:56:21Z</time>
      </trkpt>
      <trkpt lat="59.8714303" lon="17.6007844">
        <ele>0.618042</ele>
        <time>2013-05-26T11:56:22Z</time>
      </trkpt>
      <trkpt lat="59.8714765" lon="17.6006535">
        <ele>0.618042</ele>
        <time>2013-05-26T11:56:23Z</time>
      </trkpt>
      <trkpt lat="59.871524" lon="17.6005207">
        <ele>0.618042</ele>
        <time>2013-05-26T11:56:24Z</time>
      </trkpt>
      <trkpt lat="59.8715723" lon="17.6003794">
        <ele>0.137451</ele>
        <time>2013-05-26T11:56:25Z</time>
      </trkpt>
      <trkpt lat="59.8716229" lon="17.6002416">
        <ele>0</ele>
        <time>2013-05-26T11:56:26Z</time>
      </trkpt>
      <trkpt lat="59.8716862" lon="17.6001671">
        <ele>0</ele>
        <time>2013-05-26T11:56:27Z</time>
      </trkpt>
      <trkpt lat="59.8717328" lon="17.600075">
        <ele>0</ele>
        <time>2013-05-26T11:56:28Z</time>
      </trkpt>
      <trkpt lat="59.8717769" lon="17.5999506">
        <ele>0</ele>
        <time>2013-05-26T11:56:29Z</time>
      </trkpt>
      <trkpt lat="59.8718044" lon="17.5998232">
        <ele>0</ele>
        <time>2013-05-26T11:56:30Z</time>
      </trkpt>
      <trkpt lat="59.8718754" lon="17.5997056">
        <ele>0</ele>
        <time>2013-05-26T11:56:31Z</time>
      </trkpt>
      <trkpt lat="59.8719551" lon="17.5995237">
        <ele>0.137451</ele>
        <time>2013-05-26T11:56:32Z</time>
      </trkpt>
      <trkpt lat="59.8720028" lon="17.5993994">
        <ele>1.09863</ele>
        <time>2013-05-26T11:56:33Z</time>
      </trkpt>
      <trkpt lat="59.8720513" lon="17.5992974">
        <ele>2.06006</ele>
        <time>2013-05-26T11:56:34Z</time>
      </trkpt>
      <trkpt lat="59.8720954" lon="17.5991979">
        <ele>2.54065</ele>
        <time>2013-05-26T11:56:35Z</time>
      </trkpt>
      <trkpt lat="59.8721405" lon="17.5991073">
        <ele>3.02124</ele>
        <time>2013-05-26T11:56:36Z</time>
      </trkpt>
      <trkpt lat="59.8721836" lon="17.5990157">
        <ele>3.50195</ele>
        <time>2013-05-26T11:56:37Z</time>
      </trkpt>
      <trkpt lat="59.8722251" lon="17.5989235">
        <ele>3.98267</ele>
        <time>2013-05-26T11:56:38Z</time>
      </trkpt>
      <trkpt lat="59.8722645" lon="17.598843">
        <ele>4.46326</ele>
        <time>2013-05-26T11:56:39Z</time>
      </trkpt>
      <trkpt lat="59.8723031" lon="17.5987624">
        <ele>4.94385</ele>
        <time>2013-05-26T11:56:40Z</time>
      </trkpt>
      <trkpt lat="59.8723414" lon="17.5986857">
        <ele>4.94385</ele>
        <time>2013-05-26T11:56:41Z</time>
      </trkpt>
      <trkpt lat="59.8723788" lon="17.5986099">
        <ele>4.94385</ele>
        <time>2013-05-26T11:56:42Z</time>
      </trkpt>
      <trkpt lat="59.8724162" lon="17.5985338">
        <ele>5.42456</ele>
        <time>2013-05-26T11:56:43Z</time>
      </trkpt>
      <trkpt lat="59.872455" lon="17.5984565">
        <ele>5.42456</ele>
        <time>2013-05-26T11:56:44Z</time>
      </trkpt>
      <trkpt lat="59.8724954" lon="17.5983794">
        <ele>5.42456</ele>
        <time>2013-05-26T11:56:45Z</time>
      </trkpt>
      <trkpt lat="59.8725363" lon="17.5982981">
        <ele>5.90527</ele>
        <time>2013-05-26T11:56:46Z</time>
      </trkpt>
      <trkpt lat="59.8725784" lon="17.5982138">
        <ele>5.90527</ele>
        <time>2013-05-26T11:56:47Z</time>
      </trkpt>
      <trkpt lat="59.8726207" lon="17.5981251">
        <ele>5.90527</ele>
        <time>2013-05-26T11:56:48Z</time>
      </trkpt>
      <trkpt lat="59.8726631" lon="17.5980365">
        <ele>6.38586</ele>
        <time>2013-05-26T11:56:49Z</time>
      </trkpt>
      <trkpt lat="59.8727047" lon="17.5979463">
        <ele>6.38586</ele>
        <time>2013-05-26T11:56:50Z</time>
      </trkpt>
      <trkpt lat="59.8727476" lon="17.5978574">
        <ele>6.38586</ele>
        <time>2013-05-26T11:56:51Z</time>
      </trkpt>
      <trkpt lat="59.8727916" lon="17.5977671">
        <ele>6.38586</ele>
        <time>2013-05-26T11:56:52Z</time>
      </trkpt>
      <trkpt lat="59.8728369" lon="17.5976737">
        <ele>6.38586</ele>
        <time>2013-05-26T11:56:53Z</time>
      </trkpt>
      <trkpt lat="59.8728829" lon="17.5975764">
        <ele>5.42456</ele>
        <time>2013-05-26T11:56:54Z</time>
      </trkpt>
      <trkpt lat="59.8729295" lon="17.5974806">
        <ele>5.90527</ele>
        <time>2013-05-26T11:56:55Z</time>
      </trkpt>
      <trkpt lat="59.8729769" lon="17.5973869">
        <ele>5.90527</ele>
        <time>2013-05-26T11:56:56Z</time>
      </trkpt>
      <trkpt lat="59.8730257" lon="17.5972941">
        <ele>5.90527</ele>
        <time>2013-05-26T11:56:57Z</time>
      </trkpt>
      <trkpt lat="59.873074" lon="17.5971999">
        <ele>5.90527</ele>
        <time>2013-05-26T11:56:58Z</time>
      </trkpt>
      <trkpt lat="59.8731211" lon="17.5971056">
        <ele>5.90527</ele>
        <time>2013-05-26T11:56:59Z</time>
      </trkpt>
      <trkpt lat="59.8731672" lon="17.5970107">
        <ele>5.90527</ele>
        <time>2013-05-26T11:57:00Z</time>
      </trkpt>
      <trkpt lat="59.8732124" lon="17.5969151">
        <ele>5.90527</ele>
        <time>2013-05-26T11:57:01Z</time>
      </trkpt>
      <trkpt lat="59.8732589" lon="17.5968192">
        <ele>5.90527</ele>
        <time>2013-05-26T11:57:02Z</time>
      </trkpt>
      <trkpt lat="59.8733062" lon="17.5967214">
        <ele>5.90527</ele>
        <time>2013-05-26T11:57:03Z</time>
      </trkpt>
      <trkpt lat="59.8733541" lon="17.5966216">
        <ele>5.90527</ele>
        <time>2013-05-26T11:57:04Z</time>
      </trkpt>
      <trkpt lat="59.8734024" lon="17.5965206">
        <ele>5.90527</ele>
        <time>2013-05-26T11:57:05Z</time>
      </trkpt>
      <trkpt lat="59.8734516" lon="17.5964186">
        <ele>5.90527</ele>
        <time>2013-05-26T11:57:06Z</time>
      </trkpt>
      <trkpt lat="59.8735019" lon="17.5963162">
        <ele>5.90527</ele>
        <time>2013-05-26T11:57:07Z</time>
      </trkpt>
      <trkpt lat="59.8735532" lon="17.5962155">
        <ele>5.90527</ele>
        <time>2013-05-26T11:57:08Z</time>
      </trkpt>
      <trkpt lat="59.8736039" lon="17.596115">
        <ele>5.90527</ele>
        <time>2013-05-26T11:57:09Z</time>
      </trkpt>
      <trkpt lat="59.8736526" lon="17.5960141">
        <ele>5.90527</ele>
        <time>2013-05-26T11:57:10Z</time>
      </trkpt>
      <trkpt lat="59.8736996" lon="17.5959153">
        <ele>5.90527</ele>
        <time>2013-05-26T11:57:11Z</time>
      </trkpt>
      <trkpt lat="59.8737465" lon="17.5958187">
        <ele>5.90527</ele>
        <time>2013-05-26T11:57:12Z</time>
      </trkpt>
      <trkpt lat="59.8737934" lon="17.5957215">
        <ele>6.38586</ele>
        <time>2013-05-26T11:57:13Z</time>
      </trkpt>
      <trkpt lat="59.8738401" lon="17.5956262">
        <ele>6.38586</ele>
        <time>2013-05-26T11:57:14Z</time>
      </trkpt>
      <trkpt lat="59.8738861" lon="17.5955335">
        <ele>6.38586</ele>
        <time>2013-05-26T11:57:15Z</time>
      </trkpt>
      <trkpt lat="59.8739325" lon="17.5954445">
        <ele>6.38586</ele>
        <time>2013-05-26T11:57:16Z</time>
      </trkpt>
      <trkpt lat="59.8739775" lon="17.5953565">
        <ele>6.38586</ele>
        <time>2013-05-26T11:57:17Z</time>
      </trkpt>
      <trkpt lat="59.8740218" lon="17.5952662">
        <ele>6.38586</ele>
        <time>2013-05-26T11:57:18Z</time>
      </trkpt>
      <trkpt lat="59.8740676" lon="17.5951781">
        <ele>6.38586</ele>
        <time>2013-05-26T11:57:19Z</time>
      </trkpt>
      <trkpt lat="59.8741138" lon="17.595091">
        <ele>6.38586</ele>
        <time>2013-05-26T11:57:20Z</time>
      </trkpt>
      <trkpt lat="59.8741592" lon="17.5950045">
        <ele>6.38586</ele>
        <time>2013-05-26T11:57:21Z</time>
      </trkpt>
      <trkpt lat="59.8742049" lon="17.5949213">
        <ele>6.38586</ele>
        <time>2013-05-26T11:57:22Z</time>
      </trkpt>
      <trkpt lat="59.8742495" lon="17.5948397">
        <ele>6.38586</ele>
        <time>2013-05-26T11:57:23Z</time>
      </trkpt>
      <trkpt lat="59.8742937" lon="17.5947585">
        <ele>6.38586</ele>
        <time>2013-05-26T11:57:24Z</time>
      </trkpt>
      <trkpt lat="59.8743388" lon="17.5946783">
        <ele>6.38586</ele>
        <time>2013-05-26T11:57:25Z</time>
      </trkpt>
      <trkpt lat="59.8743852" lon="17.594598">
        <ele>5.90527</ele>
        <time>2013-05-26T11:57:26Z</time>
      </trkpt>
      <trkpt lat="59.8744339" lon="17.5945136">
        <ele>5.90527</ele>
        <time>2013-05-26T11:57:27Z</time>
      </trkpt>
      <trkpt lat="59.8744838" lon="17.594425">
        <ele>5.90527</ele>
        <time>2013-05-26T11:57:28Z</time>
      </trkpt>
      <trkpt lat="59.8745347" lon="17.5943317">
        <ele>5.90527</ele>
        <time>2013-05-26T11:57:29Z</time>
      </trkpt>
      <trkpt lat="59.8745865" lon="17.5942363">
        <ele>5.42456</ele>
        <time>2013-05-26T11:57:30Z</time>
      </trkpt>
      <trkpt lat="59.8746394" lon="17.5941399">
        <ele>5.42456</ele>
        <time>2013-05-26T11:57:31Z</time>
      </trkpt>
      <trkpt lat="59.8746929" lon="17.5940423">
        <ele>5.42456</ele>
        <time>2013-05-26T11:57:32Z</time>
      </trkpt>
      <trkpt lat="59.8747467" lon="17.5939483">
        <ele>4.94385</ele>
        <time>2013-05-26T11:57:33Z</time>
      </trkpt>
      <trkpt lat="59.8748027" lon="17.5938536">
        <ele>4.94385</ele>
        <time>2013-05-26T11:57:34Z</time>
      </trkpt>
      <trkpt lat="59.874859" lon="17.5937547">
        <ele>4.94385</ele>
        <time>2013-05-26T11:57:35Z</time>
      </trkpt>
      <trkpt lat="59.8749158" lon="17.5936546">
        <ele>4.46326</ele>
        <time>2013-05-26T11:57:36Z</time>
      </trkpt>
      <trkpt lat="59.8749728" lon="17.5935552">
        <ele>4.46326</ele>
        <time>2013-05-26T11:57:37Z</time>
      </trkpt>
      <trkpt lat="59.8750295" lon="17.5934552">
        <ele>4.46326</ele>
        <time>2013-05-26T11:57:38Z</time>
      </trkpt>
      <trkpt lat="59.8750857" lon="17.5933548">
        <ele>3.98267</ele>
        <time>2013-05-26T11:57:39Z</time>
      </trkpt>
      <trkpt lat="59.8751429" lon="17.5932506">
        <ele>3.50195</ele>
        <time>2013-05-26T11:57:40Z</time>
      </trkpt>
      <trkpt lat="59.8752021" lon="17.5931458">
        <ele>3.50195</ele>
        <time>2013-05-26T11:57:41Z</time>
      </trkpt>
      <trkpt lat="59.8752613" lon="17.593038">
        <ele>3.50195</ele>
        <time>2013-05-26T11:57:42Z</time>
      </trkpt>
      <trkpt lat="59.8753206" lon="17.5929269">
        <ele>3.02124</ele>
        <time>2013-05-26T11:57:43Z</time>
      </trkpt>
      <trkpt lat="59.8753772" lon="17.5928155">
        <ele>2.54065</ele>
        <time>2013-05-26T11:57:44Z</time>
      </trkpt>
      <trkpt lat="59.8754333" lon="17.5927024">
        <ele>1.57935</ele>
        <time>2013-05-26T11:57:45Z</time>
      </trkpt>
      <trkpt lat="59.8754914" lon="17.5925905">
        <ele>1.09863</ele>
        <time>2013-05-26T11:57:46Z</time>
      </trkpt>
      <trkpt lat="59.8755501" lon="17.5924771">
        <ele>1.09863</ele>
        <time>2013-05-26T11:57:47Z</time>
      </trkpt>
      <trkpt lat="59.8756077" lon="17.5923606">
        <ele>1.09863</ele>
        <time>2013-05-26T11:57:48Z</time>
      </trkpt>
      <trkpt lat="59.8756651" lon="17.5922457">
        <ele>1.09863</ele>
        <time>2013-05-26T11:57:49Z</time>
      </trkpt>
      <trkpt lat="59.8757209" lon="17.5921295">
        <ele>0.618042</ele>
        <time>2013-05-26T11:57:50Z</time>
      </trkpt>
      <trkpt lat="59.8757759" lon="17.5920108">
        <ele>0.618042</ele>
        <time>2013-05-26T11:57:51Z</time>
      </trkpt>
      <trkpt lat="59.8758308" lon="17.5918906">
        <ele>0.618042</ele>
        <time>2013-05-26T11:57:52Z</time>
      </trkpt>
      <trkpt lat="59.8758856" lon="17.5917702">
        <ele>0.618042</ele>
        <time>2013-05-26T11:57:53Z</time>
      </trkpt>
      <trkpt lat="59.8759401" lon="17.591648">
        <ele>0.618042</ele>
        <time>2013-05-26T11:57:54Z</time>
      </trkpt>
      <trkpt lat="59.8759936" lon="17.5915241">
        <ele>0.618042</ele>
        <time>2013-05-26T11:57:55Z</time>
      </trkpt>
      <trkpt lat="59.8760474" lon="17.5913993">
        <ele>1.09863</ele>
        <time>2013-05-26T11:57:56Z</time>
      </trkpt>
      <trkpt lat="59.8761" lon="17.5912733">
        <ele>0.618042</ele>
        <time>2013-05-26T11:57:57Z</time>
      </trkpt>
      <trkpt lat="59.876152" lon="17.591147">
        <ele>0.618042</ele>
        <time>2013-05-26T11:57:58Z</time>
      </trkpt>
      <trkpt lat="59.8761991" lon="17.5910185">
        <ele>0</ele>
        <time>2013-05-26T11:57:59Z</time>
      </trkpt>
      <trkpt lat="59.8762463" lon="17.5908912">
        <ele>0</ele>
        <time>2013-05-26T11:58:00Z</time>
      </trkpt>
      <trkpt lat="59.8762929" lon="17.590765">
        <ele>0</ele>
        <time>2013-05-26T11:58:01Z</time>
      </trkpt>
      <trkpt lat="59.8763389" lon="17.5906379">
        <ele>0</ele>
        <time>2013-05-26T11:58:02Z</time>
      </trkpt>
      <trkpt lat="59.8763842" lon="17.5905098">
        <ele>0</ele>
        <time>2013-05-26T11:58:03Z</time>
      </trkpt>
      <trkpt lat="59.8764296" lon="17.5903808">
        <ele>0</ele>
        <time>2013-05-26T11:58:04Z</time>
      </trkpt>
      <trkpt lat="59.8764731" lon="17.5902519">
        <ele>0</ele>
        <time>2013-05-26T11:58:05Z</time>
      </trkpt>
      <trkpt lat="59.876518" lon="17.5901224">
        <ele>0</ele>
        <time>2013-05-26T11:58:06Z</time>
      </trkpt>
      <trkpt lat="59.8765626" lon="17.5899928">
        <ele>0</ele>
        <time>2013-05-26T11:58:07Z</time>
      </trkpt>
      <trkpt lat="59.8766063" lon="17.58986">
        <ele>0</ele>
        <time>2013-05-26T11:58:08Z</time>
      </trkpt>
      <trkpt lat="59.8766504" lon="17.5897241">
        <ele>0</ele>
        <time>2013-05-26T11:58:09Z</time>
      </trkpt>
      <trkpt lat="59.8766944" lon="17.5895863">
        <ele>0</ele>
        <time>2013-05-26T11:58:10Z</time>
      </trkpt>
      <trkpt lat="59.8767399" lon="17.5894521">
        <ele>0</ele>
        <time>2013-05-26T11:58:11Z</time>
      </trkpt>
      <trkpt lat="59.8767848" lon="17.5893151">
        <ele>0</ele>
        <time>2013-05-26T11:58:12Z</time>
      </trkpt>
      <trkpt lat="59.8768296" lon="17.5891775">
        <ele>0</ele>
        <time>2013-05-26T11:58:13Z</time>
      </trkpt>
      <trkpt lat="59.8768715" lon="17.5890401">
        <ele>0</ele>
        <time>2013-05-26T11:58:14Z</time>
      </trkpt>
      <trkpt lat="59.8769105" lon="17.5889024">
        <ele>0</ele>
        <time>2013-05-26T11:58:15Z</time>
      </trkpt>
      <trkpt lat="59.8769509" lon="17.5887662">
        <ele>0</ele>
        <time>2013-05-26T11:58:16Z</time>
      </trkpt>
      <trkpt lat="59.8769907" lon="17.5886304">
        <ele>0</ele>
        <time>2013-05-26T11:58:17Z</time>
      </trkpt>
      <trkpt lat="59.8770291" lon="17.5884936">
        <ele>0</ele>
        <time>2013-05-26T11:58:18Z</time>
      </trkpt>
      <trkpt lat="59.8770673" lon="17.5883559">
        <ele>0</ele>
        <time>2013-05-26T11:58:19Z</time>
      </trkpt>
      <trkpt lat="59.8771053" lon="17.588216">
        <ele>0</ele>
        <time>2013-05-26T11:58:20Z</time>
      </trkpt>
      <trkpt lat="59.8771412" lon="17.5880763">
        <ele>0</ele>
        <time>2013-05-26T11:58:21Z</time>
      </trkpt>
      <trkpt lat="59.8771782" lon="17.5879365">
        <ele>0</ele>
        <time>2013-05-26T11:58:22Z</time>
      </trkpt>
      <trkpt lat="59.8772174" lon="17.5877969">
        <ele>0</ele>
        <time>2013-05-26T11:58:23Z</time>
      </trkpt>
      <trkpt lat="59.8772546" lon="17.5876592">
        <ele>0</ele>
        <time>2013-05-26T11:58:24Z</time>
      </trkpt>
      <trkpt lat="59.8772916" lon="17.5875235">
        <ele>0</ele>
        <time>2013-05-26T11:58:25Z</time>
      </trkpt>
      <trkpt lat="59.8773253" lon="17.5873834">
        <ele>0</ele>
        <time>2013-05-26T11:58:26Z</time>
      </trkpt>
      <trkpt lat="59.8773608" lon="17.5872438">
        <ele>0</ele>
        <time>2013-05-26T11:58:27Z</time>
      </trkpt>
      <trkpt lat="59.8773947" lon="17.5871084">
        <ele>0</ele>
        <time>2013-05-26T11:58:28Z</time>
      </trkpt>
      <trkpt lat="59.8774257" lon="17.5869706">
        <ele>0</ele>
        <time>2013-05-26T11:58:29Z</time>
      </trkpt>
      <trkpt lat="59.8774549" lon="17.5868201">
        <ele>0</ele>
        <time>2013-05-26T11:58:30Z</time>
      </trkpt>
      <trkpt lat="59.8774817" lon="17.5866702">
        <ele>0</ele>
        <time>2013-05-26T11:58:31Z</time>
      </trkpt>
      <trkpt lat="59.8775173" lon="17.5865067">
        <ele>0</ele>
        <time>2013-05-26T11:58:32Z</time>
      </trkpt>
      <trkpt lat="59.8775533" lon="17.5863492">
        <ele>0</ele>
        <time>2013-05-26T11:58:33Z</time>
      </trkpt>
      <trkpt lat="59.8775867" lon="17.5861819">
        <ele>0</ele>
        <time>2013-05-26T11:58:34Z</time>
      </trkpt>
      <trkpt lat="59.877617" lon="17.5860212">
        <ele>0.618042</ele>
        <time>2013-05-26T11:58:35Z</time>
      </trkpt>
      <trkpt lat="59.8776464" lon="17.5858626">
        <ele>1.09863</ele>
        <time>2013-05-26T11:58:36Z</time>
      </trkpt>
      <trkpt lat="59.877675" lon="17.5857084">
        <ele>1.57935</ele>
        <time>2013-05-26T11:58:37Z</time>
      </trkpt>
      <trkpt lat="59.8777029" lon="17.5855588">
        <ele>2.06006</ele>
        <time>2013-05-26T11:58:38Z</time>
      </trkpt>
      <trkpt lat="59.877731" lon="17.5854119">
        <ele>2.06006</ele>
        <time>2013-05-26T11:58:39Z</time>
      </trkpt>
      <trkpt lat="59.8777589" lon="17.5852679">
        <ele>2.54065</ele>
        <time>2013-05-26T11:58:40Z</time>
      </trkpt>
      <trkpt lat="59.8777904" lon="17.585132">
        <ele>3.02124</ele>
        <time>2013-05-26T11:58:41Z</time>
      </trkpt>
      <trkpt lat="59.8778224" lon="17.5849977">
        <ele>3.98267</ele>
        <time>2013-05-26T11:58:42Z</time>
      </trkpt>
      <trkpt lat="59.8778498" lon="17.584853">
        <ele>3.98267</ele>
        <time>2013-05-26T11:58:43Z</time>
      </trkpt>
      <trkpt lat="59.8778728" lon="17.5847033">
        <ele>4.46326</ele>
        <time>2013-05-26T11:58:44Z</time>
      </trkpt>
      <trkpt lat="59.8778936" lon="17.5845667">
        <ele>3.98267</ele>
        <time>2013-05-26T11:58:45Z</time>
      </trkpt>
      <trkpt lat="59.8778998" lon="17.5844071">
        <ele>3.50195</ele>
        <time>2013-05-26T11:58:46Z</time>
      </trkpt>
      <trkpt lat="59.8779288" lon="17.584272">
        <ele>3.50195</ele>
        <time>2013-05-26T11:58:47Z</time>
      </trkpt>
      <trkpt lat="59.8779617" lon="17.5841362">
        <ele>3.50195</ele>
        <time>2013-05-26T11:58:48Z</time>
      </trkpt>
      <trkpt lat="59.8779946" lon="17.5840078">
        <ele>3.98267</ele>
        <time>2013-05-26T11:58:49Z</time>
      </trkpt>
      <trkpt lat="59.8780226" lon="17.5838612">
        <ele>3.50195</ele>
        <time>2013-05-26T11:58:50Z</time>
      </trkpt>
      <trkpt lat="59.8780449" lon="17.5837068">
        <ele>2.54065</ele>
        <time>2013-05-26T11:58:51Z</time>
      </trkpt>
      <trkpt lat="59.8780731" lon="17.5835593">
        <ele>1.57935</ele>
        <time>2013-05-26T11:58:52Z</time>
      </trkpt>
      <trkpt lat="59.8781002" lon="17.5834146">
        <ele>0.137451</ele>
        <time>2013-05-26T11:58:53Z</time>
      </trkpt>
      <trkpt lat="59.8781275" lon="17.5832675">
        <ele>0.137451</ele>
        <time>2013-05-26T11:58:54Z</time>
      </trkpt>
      <trkpt lat="59.878156" lon="17.5831241">
        <ele>0</ele>
        <time>2013-05-26T11:58:55Z</time>
      </trkpt>
      <trkpt lat="59.8781852" lon="17.5829829">
        <ele>0</ele>
        <time>2013-05-26T11:58:56Z</time>
      </trkpt>
      <trkpt lat="59.8782147" lon="17.5828426">
        <ele>0</ele>
        <time>2013-05-26T11:58:57Z</time>
      </trkpt>
      <trkpt lat="59.8782443" lon="17.5827049">
        <ele>0</ele>
        <time>2013-05-26T11:58:58Z</time>
      </trkpt>
      <trkpt lat="59.8782734" lon="17.5825699">
        <ele>0</ele>
        <time>2013-05-26T11:58:59Z</time>
      </trkpt>
      <trkpt lat="59.8783031" lon="17.5824378">
        <ele>0.137451</ele>
        <time>2013-05-26T11:59:00Z</time>
      </trkpt>
      <trkpt lat="59.8783316" lon="17.5823072">
        <ele>0.137451</ele>
        <time>2013-05-26T11:59:01Z</time>
      </trkpt>
      <trkpt lat="59.878359" lon="17.5821762">
        <ele>0.137451</ele>
        <time>2013-05-26T11:59:02Z</time>
      </trkpt>
      <trkpt lat="59.8783856" lon="17.5820485">
        <ele>0.618042</ele>
        <time>2013-05-26T11:59:03Z</time>
      </trkpt>
      <trkpt lat="59.8784114" lon="17.5819264">
        <ele>0.618042</ele>
        <time>2013-05-26T11:59:04Z</time>
      </trkpt>
      <trkpt lat="59.8784359" lon="17.5818119">
        <ele>0</ele>
        <time>2013-05-26T11:59:05Z</time>
      </trkpt>
      <trkpt lat="59.8784603" lon="17.5817022">
        <ele>0</ele>
        <time>2013-05-26T11:59:06Z</time>
      </trkpt>
      <trkpt lat="59.8784835" lon="17.5815958">
        <ele>0</ele>
        <time>2013-05-26T11:59:07Z</time>
      </trkpt>
      <trkpt lat="59.878511" lon="17.5814926">
        <ele>0</ele>
        <time>2013-05-26T11:59:08Z</time>
      </trkpt>
      <trkpt lat="59.8785492" lon="17.581401">
        <ele>0</ele>
        <time>2013-05-26T11:59:09Z</time>
      </trkpt>
      <trkpt lat="59.8785986" lon="17.5813293">
        <ele>0</ele>
        <time>2013-05-26T11:59:10Z</time>
      </trkpt>
      <trkpt lat="59.87865" lon="17.5812611">
        <ele>0</ele>
        <time>2013-05-26T11:59:11Z</time>
      </trkpt>
      <trkpt lat="59.8786919" lon="17.5811725">
        <ele>0</ele>
        <time>2013-05-26T11:59:12Z</time>
      </trkpt>
      <trkpt lat="59.8787188" lon="17.5810614">
        <ele>0</ele>
        <time>2013-05-26T11:59:13Z</time>
      </trkpt>
      <trkpt lat="59.8787321" lon="17.580938">
        <ele>0.137451</ele>
        <time>2013-05-26T11:59:14Z</time>
      </trkpt>
      <trkpt lat="59.87874" lon="17.5808064">
        <ele>0.137451</ele>
        <time>2013-05-26T11:59:15Z</time>
      </trkpt>
      <trkpt lat="59.8787493" lon="17.5806703">
        <ele>0.137451</ele>
        <time>2013-05-26T11:59:16Z</time>
      </trkpt>
      <trkpt lat="59.8787633" lon="17.580533">
        <ele>0.137451</ele>
        <time>2013-05-26T11:59:17Z</time>
      </trkpt>
      <trkpt lat="59.8787841" lon="17.5803947">
        <ele>0.137451</ele>
        <time>2013-05-26T11:59:18Z</time>
      </trkpt>
      <trkpt lat="59.8788116" lon="17.5802578">
        <ele>0.137451</ele>
        <time>2013-05-26T11:59:19Z</time>
      </trkpt>
      <trkpt lat="59.8788442" lon="17.5801213">
        <ele>0.618042</ele>
        <time>2013-05-26T11:59:20Z</time>
      </trkpt>
      <trkpt lat="59.8788783" lon="17.5799852">
        <ele>0.618042</ele>
        <time>2013-05-26T11:59:21Z</time>
      </trkpt>
      <trkpt lat="59.8789131" lon="17.5798477">
        <ele>0.618042</ele>
        <time>2013-05-26T11:59:22Z</time>
      </trkpt>
      <trkpt lat="59.8789486" lon="17.5797094">
        <ele>0.618042</ele>
        <time>2013-05-26T11:59:23Z</time>
      </trkpt>
      <trkpt lat="59.8789845" lon="17.579571">
        <ele>0.618042</ele>
        <time>2013-05-26T11:59:24Z</time>
      </trkpt>
      <trkpt lat="59.8790213" lon="17.5794353">
        <ele>1.57935</ele>
        <time>2013-05-26T11:59:25Z</time>
      </trkpt>
      <trkpt lat="59.8790564" lon="17.5793037">
        <ele>2.06006</ele>
        <time>2013-05-26T11:59:26Z</time>
      </trkpt>
      <trkpt lat="59.8790913" lon="17.5791757">
        <ele>2.06006</ele>
        <time>2013-05-26T11:59:27Z</time>
      </trkpt>
      <trkpt lat="59.8791263" lon="17.5790507">
        <ele>2.54065</ele>
        <time>2013-05-26T11:59:28Z</time>
      </trkpt>
      <trkpt lat="59.8791617" lon="17.5789262">
        <ele>2.54065</ele>
        <time>2013-05-26T11:59:29Z</time>
      </trkpt>
      <trkpt lat="59.8791974" lon="17.5788009">
        <ele>2.54065</ele>
        <time>2013-05-26T11:59:30Z</time>
      </trkpt>
      <trkpt lat="59.879232" lon="17.5786747">
        <ele>3.02124</ele>
        <time>2013-05-26T11:59:31Z</time>
      </trkpt>
      <trkpt lat="59.8792664" lon="17.5785483">
        <ele>3.02124</ele>
        <time>2013-05-26T11:59:32Z</time>
      </trkpt>
      <trkpt lat="59.8793005" lon="17.5784214">
        <ele>3.50195</ele>
        <time>2013-05-26T11:59:33Z</time>
      </trkpt>
      <trkpt lat="59.8793352" lon="17.5782946">
        <ele>3.50195</ele>
        <time>2013-05-26T11:59:34Z</time>
      </trkpt>
      <trkpt lat="59.87937" lon="17.5781683">
        <ele>3.50195</ele>
        <time>2013-05-26T11:59:35Z</time>
      </trkpt>
      <trkpt lat="59.8794046" lon="17.578042">
        <ele>3.98267</ele>
        <time>2013-05-26T11:59:36Z</time>
      </trkpt>
      <trkpt lat="59.8794401" lon="17.5779159">
        <ele>3.98267</ele>
        <time>2013-05-26T11:59:37Z</time>
      </trkpt>
      <trkpt lat="59.879477" lon="17.5777906">
        <ele>4.46326</ele>
        <time>2013-05-26T11:59:38Z</time>
      </trkpt>
      <trkpt lat="59.879514" lon="17.5776647">
        <ele>4.46326</ele>
        <time>2013-05-26T11:59:39Z</time>
      </trkpt>
      <trkpt lat="59.8795512" lon="17.5775378">
        <ele>4.94385</ele>
        <time>2013-05-26T11:59:40Z</time>
      </trkpt>
      <trkpt lat="59.8795895" lon="17.5774108">
        <ele>4.94385</ele>
        <time>2013-05-26T11:59:41Z</time>
      </trkpt>
      <trkpt lat="59.8796282" lon="17.5772818">
        <ele>4.94385</ele>
        <time>2013-05-26T11:59:42Z</time>
      </trkpt>
      <trkpt lat="59.8796681" lon="17.5771538">
        <ele>5.42456</ele>
        <time>2013-05-26T11:59:43Z</time>
      </trkpt>
      <trkpt lat="59.8797087" lon="17.5770254">
        <ele>5.42456</ele>
        <time>2013-05-26T11:59:44Z</time>
      </trkpt>
      <trkpt lat="59.8797506" lon="17.5768963">
        <ele>5.42456</ele>
        <time>2013-05-26T11:59:45Z</time>
      </trkpt>
      <trkpt lat="59.8797931" lon="17.5767685">
        <ele>5.42456</ele>
        <time>2013-05-26T11:59:46Z</time>
      </trkpt>
      <trkpt lat="59.8798351" lon="17.5766401">
        <ele>5.90527</ele>
        <time>2013-05-26T11:59:47Z</time>
      </trkpt>
      <trkpt lat="59.8798768" lon="17.5765131">
        <ele>5.90527</ele>
        <time>2013-05-26T11:59:48Z</time>
      </trkpt>
      <trkpt lat="59.8799175" lon="17.5763874">
        <ele>5.90527</ele>
        <time>2013-05-26T11:59:49Z</time>
      </trkpt>
      <trkpt lat="59.8799572" lon="17.5762613">
        <ele>5.90527</ele>
        <time>2013-05-26T11:59:50Z</time>
      </trkpt>
      <trkpt lat="59.8799971" lon="17.5761381">
        <ele>5.90527</ele>
        <time>2013-05-26T11:59:51Z</time>
      </trkpt>
      <trkpt lat="59.8800376" lon="17.5760169">
        <ele>5.90527</ele>
        <time>2013-05-26T11:59:52Z</time>
      </trkpt>
      <trkpt lat="59.8800784" lon="17.5758933">
        <ele>5.90527</ele>
        <time>2013-05-26T11:59:53Z</time>
      </trkpt>
      <trkpt lat="59.8801192" lon="17.5757678">
        <ele>5.90527</ele>
        <time>2013-05-26T11:59:54Z</time>
      </trkpt>
      <trkpt lat="59.8801615" lon="17.5756405">
        <ele>6.38586</ele>
        <time>2013-05-26T11:59:55Z</time>
      </trkpt>
      <trkpt lat="59.8802054" lon="17.5755113">
        <ele>6.38586</ele>
        <time>2013-05-26T11:59:56Z</time>
      </trkpt>
      <trkpt lat="59.8802491" lon="17.5753792">
        <ele>6.38586</ele>
        <time>2013-05-26T11:59:57Z</time>
      </trkpt>
      <trkpt lat="59.8802939" lon="17.575247">
        <ele>6.38586</ele>
        <time>2013-05-26T11:59:58Z</time>
      </trkpt>
      <trkpt lat="59.8803378" lon="17.5751166">
        <ele>5.42456</ele>
        <time>2013-05-26T11:59:59Z</time>
      </trkpt>
      <trkpt lat="59.8803817" lon="17.5749834">
        <ele>4.94385</ele>
        <time>2013-05-26T12:00:00Z</time>
      </trkpt>
      <trkpt lat="59.8804266" lon="17.5748492">
        <ele>3.98267</ele>
        <time>2013-05-26T12:00:01Z</time>
      </trkpt>
      <trkpt lat="59.8804723" lon="17.5747145">
        <ele>3.50195</ele>
        <time>2013-05-26T12:00:02Z</time>
      </trkpt>
      <trkpt lat="59.8805188" lon="17.5745793">
        <ele>2.54065</ele>
        <time>2013-05-26T12:00:03Z</time>
      </trkpt>
      <trkpt lat="59.8805655" lon="17.5744456">
        <ele>2.06006</ele>
        <time>2013-05-26T12:00:04Z</time>
      </trkpt>
      <trkpt lat="59.8806132" lon="17.5743127">
        <ele>1.57935</ele>
        <time>2013-05-26T12:00:05Z</time>
      </trkpt>
      <trkpt lat="59.8806617" lon="17.5741796">
        <ele>1.09863</ele>
        <time>2013-05-26T12:00:06Z</time>
      </trkpt>
      <trkpt lat="59.8807106" lon="17.5740455">
        <ele>1.09863</ele>
        <time>2013-05-26T12:00:07Z</time>
      </trkpt>
      <trkpt lat="59.88076" lon="17.5739105">
        <ele>0.618042</ele>
        <time>2013-05-26T12:00:08Z</time>
      </trkpt>
      <trkpt lat="59.8808093" lon="17.5737761">
        <ele>0.137451</ele>
        <time>2013-05-26T12:00:09Z</time>
      </trkpt>
      <trkpt lat="59.8808592" lon="17.5736429">
        <ele>0</ele>
        <time>2013-05-26T12:00:10Z</time>
      </trkpt>
      <trkpt lat="59.8809094" lon="17.5735103">
        <ele>0</ele>
        <time>2013-05-26T12:00:11Z</time>
      </trkpt>
      <trkpt lat="59.8809595" lon="17.5733771">
        <ele>0</ele>
        <time>2013-05-26T12:00:12Z</time>
      </trkpt>
      <trkpt lat="59.88101" lon="17.5732438">
        <ele>0</ele>
        <time>2013-05-26T12:00:13Z</time>
      </trkpt>
      <trkpt lat="59.8810616" lon="17.5731097">
        <ele>0</ele>
        <time>2013-05-26T12:00:14Z</time>
      </trkpt>
      <trkpt lat="59.8811139" lon="17.5729741">
        <ele>0</ele>
        <time>2013-05-26T12:00:15Z</time>
      </trkpt>
      <trkpt lat="59.8811665" lon="17.5728389">
        <ele>0</ele>
        <time>2013-05-26T12:00:16Z</time>
      </trkpt>
      <trkpt lat="59.8812197" lon="17.5727043">
        <ele>0</ele>
        <time>2013-05-26T12:00:17Z</time>
      </trkpt>
      <trkpt lat="59.8812731" lon="17.5725702">
        <ele>0</ele>
        <time>2013-05-26T12:00:18Z</time>
      </trkpt>
      <trkpt lat="59.8813267" lon="17.5724359">
        <ele>0</ele>
        <time>2013-05-26T12:00:19Z</time>
      </trkpt>
      <trkpt lat="59.8813803" lon="17.5723023">
        <ele>0</ele>
        <time>2013-05-26T12:00:20Z</time>
      </trkpt>
      <trkpt lat="59.8814342" lon="17.5721701">
        <ele>0</ele>
        <time>2013-05-26T12:00:21Z</time>
      </trkpt>
      <trkpt lat="59.8814889" lon="17.5720387">
        <ele>0</ele>
        <time>2013-05-26T12:00:22Z</time>
      </trkpt>
      <trkpt lat="59.881544" lon="17.5719069">
        <ele>0</ele>
        <time>2013-05-26T12:00:23Z</time>
      </trkpt>
      <trkpt lat="59.8815987" lon="17.5717739">
        <ele>0</ele>
        <time>2013-05-26T12:00:24Z</time>
      </trkpt>
      <trkpt lat="59.8816533" lon="17.5716402">
        <ele>0</ele>
        <time>2013-05-26T12:00:25Z</time>
      </trkpt>
      <trkpt lat="59.8817083" lon="17.5715083">
        <ele>0</ele>
        <time>2013-05-26T12:00:26Z</time>
      </trkpt>
      <trkpt lat="59.8817641" lon="17.5713803">
        <ele>0</ele>
        <time>2013-05-26T12:00:27Z</time>
      </trkpt>
      <trkpt lat="59.8818192" lon="17.5712555">
        <ele>0</ele>
        <time>2013-05-26T12:00:28Z</time>
      </trkpt>
      <trkpt lat="59.8818728" lon="17.5711322">
        <ele>0</ele>
        <time>2013-05-26T12:00:29Z</time>
      </trkpt>
      <trkpt lat="59.8819257" lon="17.5710113">
        <ele>0</ele>
        <time>2013-05-26T12:00:30Z</time>
      </trkpt>
      <trkpt lat="59.8819786" lon="17.5708919">
        <ele>0</ele>
        <time>2013-05-26T12:00:31Z</time>
      </trkpt>
      <trkpt lat="59.8820318" lon="17.5707736">
        <ele>0</ele>
        <time>2013-05-26T12:00:32Z</time>
      </trkpt>
      <trkpt lat="59.8820844" lon="17.5706564">
        <ele>0</ele>
        <time>2013-05-26T12:00:33Z</time>
      </trkpt>
      <trkpt lat="59.8821376" lon="17.57054">
        <ele>0</ele>
        <time>2013-05-26T12:00:34Z</time>
      </trkpt>
      <trkpt lat="59.8821911" lon="17.5704243">
        <ele>0</ele>
        <time>2013-05-26T12:00:35Z</time>
      </trkpt>
      <trkpt lat="59.8822438" lon="17.5703088">
        <ele>0</ele>
        <time>2013-05-26T12:00:36Z</time>
      </trkpt>
      <trkpt lat="59.8822956" lon="17.5701943">
        <ele>0</ele>
        <time>2013-05-26T12:00:37Z</time>
      </trkpt>
      <trkpt lat="59.882347" lon="17.5700826">
        <ele>0</ele>
        <time>2013-05-26T12:00:38Z</time>
      </trkpt>
      <trkpt lat="59.8823987" lon="17.5699731">
        <ele>0</ele>
        <time>2013-05-26T12:00:39Z</time>
      </trkpt>
      <trkpt lat="59.8824505" lon="17.5698651">
        <ele>0</ele>
        <time>2013-05-26T12:00:40Z</time>
      </trkpt>
      <trkpt lat="59.8825022" lon="17.5697569">
        <ele>0</ele>
        <time>2013-05-26T12:00:41Z</time>
      </trkpt>
      <trkpt lat="59.882554" lon="17.5696484">
        <ele>0</ele>
        <time>2013-05-26T12:00:42Z</time>
      </trkpt>
      <trkpt lat="59.8826059" lon="17.5695399">
        <ele>0</ele>
        <time>2013-05-26T12:00:43Z</time>
      </trkpt>
      <trkpt lat="59.8826587" lon="17.569432">
        <ele>0</ele>
        <time>2013-05-26T12:00:44Z</time>
      </trkpt>
      <trkpt lat="59.8827121" lon="17.5693258">
        <ele>0</ele>
        <time>2013-05-26T12:00:45Z</time>
      </trkpt>
      <trkpt lat="59.8827655" lon="17.5692201">
        <ele>0</ele>
        <time>2013-05-26T12:00:46Z</time>
      </trkpt>
      <trkpt lat="59.8828186" lon="17.5691143">
        <ele>0</ele>
        <time>2013-05-26T12:00:47Z</time>
      </trkpt>
      <trkpt lat="59.8828719" lon="17.5690092">
        <ele>0</ele>
        <time>2013-05-26T12:00:48Z</time>
      </trkpt>
      <trkpt lat="59.882925" lon="17.5689027">
        <ele>0</ele>
        <time>2013-05-26T12:00:49Z</time>
      </trkpt>
      <trkpt lat="59.8829783" lon="17.5687974">
        <ele>0</ele>
        <time>2013-05-26T12:00:50Z</time>
      </trkpt>
      <trkpt lat="59.8830322" lon="17.568695">
        <ele>0</ele>
        <time>2013-05-26T12:00:51Z</time>
      </trkpt>
      <trkpt lat="59.8830856" lon="17.5685933">
        <ele>0</ele>
        <time>2013-05-26T12:00:52Z</time>
      </trkpt>
      <trkpt lat="59.8831388" lon="17.5684919">
        <ele>0</ele>
        <time>2013-05-26T12:00:53Z</time>
      </trkpt>
      <trkpt lat="59.8831913" lon="17.5683913">
        <ele>0</ele>
        <time>2013-05-26T12:00:54Z</time>
      </trkpt>
      <trkpt lat="59.8832436" lon="17.5682918">
        <ele>0</ele>
        <time>2013-05-26T12:00:55Z</time>
      </trkpt>
      <trkpt lat="59.8832959" lon="17.5681934">
        <ele>0</ele>
        <time>2013-05-26T12:00:56Z</time>
      </trkpt>
      <trkpt lat="59.8833483" lon="17.5680961">
        <ele>0</ele>
        <time>2013-05-26T12:00:57Z</time>
      </trkpt>
      <trkpt lat="59.8834011" lon="17.5679988">
        <ele>0</ele>
        <time>2013-05-26T12:00:58Z</time>
      </trkpt>
      <trkpt lat="59.8834535" lon="17.5679004">
        <ele>0</ele>
        <time>2013-05-26T12:00:59Z</time>
      </trkpt>
      <trkpt lat="59.8835063" lon="17.5678022">
        <ele>0</ele>
        <time>2013-05-26T12:01:00Z</time>
      </trkpt>
      <trkpt lat="59.88356" lon="17.5677042">
        <ele>0</ele>
        <time>2013-05-26T12:01:01Z</time>
      </trkpt>
      <trkpt lat="59.8836143" lon="17.5676069">
        <ele>0</ele>
        <time>2013-05-26T12:01:02Z</time>
      </trkpt>
      <trkpt lat="59.8836689" lon="17.5675091">
        <ele>0</ele>
        <time>2013-05-26T12:01:03Z</time>
      </trkpt>
      <trkpt lat="59.8837225" lon="17.5674093">
        <ele>0</ele>
        <time>2013-05-26T12:01:04Z</time>
      </trkpt>
      <trkpt lat="59.883776" lon="17.5673107">
        <ele>0</ele>
        <time>2013-05-26T12:01:05Z</time>
      </trkpt>
      <trkpt lat="59.88383" lon="17.5672139">
        <ele>0</ele>
        <time>2013-05-26T12:01:06Z</time>
      </trkpt>
      <trkpt lat="59.8838845" lon="17.5671168">
        <ele>0</ele>
        <time>2013-05-26T12:01:07Z</time>
      </trkpt>
      <trkpt lat="59.8839396" lon="17.5670196">
        <ele>0</ele>
        <time>2013-05-26T12:01:08Z</time>
      </trkpt>
      <trkpt lat="59.8839947" lon="17.5669223">
        <ele>0</ele>
        <time>2013-05-26T12:01:09Z</time>
      </trkpt>
      <trkpt lat="59.88405" lon="17.5668255">
        <ele>0</ele>
        <time>2013-05-26T12:01:10Z</time>
      </trkpt>
      <trkpt lat="59.884105" lon="17.5667297">
        <ele>0</ele>
        <time>2013-05-26T12:01:11Z</time>
      </trkpt>
      <trkpt lat="59.8841599" lon="17.5666336">
        <ele>0.137451</ele>
        <time>2013-05-26T12:01:12Z</time>
      </trkpt>
      <trkpt lat="59.8842153" lon="17.5665369">
        <ele>0.137451</ele>
        <time>2013-05-26T12:01:13Z</time>
      </trkpt>
      <trkpt lat="59.8842704" lon="17.5664389">
        <ele>0.137451</ele>
        <time>2013-05-26T12:01:14Z</time>
      </trkpt>
      <trkpt lat="59.8843257" lon="17.5663398">
        <ele>0.618042</ele>
        <time>2013-05-26T12:01:15Z</time>
      </trkpt>
      <trkpt lat="59.8843815" lon="17.5662419">
        <ele>0.618042</ele>
        <time>2013-05-26T12:01:16Z</time>
      </trkpt>
      <trkpt lat="59.8844385" lon="17.5661471">
        <ele>0.618042</ele>
        <time>2013-05-26T12:01:17Z</time>
      </trkpt>
      <trkpt lat="59.8844956" lon="17.5660525">
        <ele>1.09863</ele>
        <time>2013-05-26T12:01:18Z</time>
      </trkpt>
      <trkpt lat="59.8845521" lon="17.5659561">
        <ele>1.09863</ele>
        <time>2013-05-26T12:01:19Z</time>
      </trkpt>
      <trkpt lat="59.8846089" lon="17.5658603">
        <ele>1.09863</ele>
        <time>2013-05-26T12:01:20Z</time>
      </trkpt>
      <trkpt lat="59.8846653" lon="17.565766">
        <ele>1.09863</ele>
        <time>2013-05-26T12:01:21Z</time>
      </trkpt>
      <trkpt lat="59.8847203" lon="17.5656714">
        <ele>1.57935</ele>
        <time>2013-05-26T12:01:22Z</time>
      </trkpt>
      <trkpt lat="59.8847746" lon="17.5655768">
        <ele>1.57935</ele>
        <time>2013-05-26T12:01:23Z</time>
      </trkpt>
      <trkpt lat="59.8848276" lon="17.5654832">
        <ele>1.57935</ele>
        <time>2013-05-26T12:01:24Z</time>
      </trkpt>
      <trkpt lat="59.8848788" lon="17.5653924">
        <ele>1.57935</ele>
        <time>2013-05-26T12:01:25Z</time>
      </trkpt>
      <trkpt lat="59.8849297" lon="17.5653018">
        <ele>2.06006</ele>
        <time>2013-05-26T12:01:26Z</time>
      </trkpt>
      <trkpt lat="59.8849813" lon="17.5652118">
        <ele>2.06006</ele>
        <time>2013-05-26T12:01:27Z</time>
      </trkpt>
      <trkpt lat="59.8850338" lon="17.5651223">
        <ele>2.54065</ele>
        <time>2013-05-26T12:01:28Z</time>
      </trkpt>
      <trkpt lat="59.8850862" lon="17.5650321">
        <ele>2.54065</ele>
        <time>2013-05-26T12:01:29Z</time>
      </trkpt>
      <trkpt lat="59.8851388" lon="17.5649432">
        <ele>2.54065</ele>
        <time>2013-05-26T12:01:30Z</time>
      </trkpt>
      <trkpt lat="59.8851918" lon="17.5648549">
        <ele>2.54065</ele>
        <time>2013-05-26T12:01:31Z</time>
      </trkpt>
      <trkpt lat="59.8852447" lon="17.5647664">
        <ele>3.02124</ele>
        <time>2013-05-26T12:01:32Z</time>
      </trkpt>
      <trkpt lat="59.885298" lon="17.5646778">
        <ele>3.02124</ele>
        <time>2013-05-26T12:01:33Z</time>
      </trkpt>
      <trkpt lat="59.8853512" lon="17.5645892">
        <ele>3.02124</ele>
        <time>2013-05-26T12:01:34Z</time>
      </trkpt>
      <trkpt lat="59.8854037" lon="17.5645007">
        <ele>3.50195</ele>
        <time>2013-05-26T12:01:35Z</time>
      </trkpt>
      <trkpt lat="59.8854561" lon="17.5644121">
        <ele>3.50195</ele>
        <time>2013-05-26T12:01:36Z</time>
      </trkpt>
      <trkpt lat="59.8855091" lon="17.5643254">
        <ele>3.50195</ele>
        <time>2013-05-26T12:01:37Z</time>
      </trkpt>
      <trkpt lat="59.8855621" lon="17.5642391">
        <ele>3.50195</ele>
        <time>2013-05-26T12:01:38Z</time>
      </trkpt>
      <trkpt lat="59.8856146" lon="17.5641543">
        <ele>3.98267</ele>
        <time>2013-05-26T12:01:39Z</time>
      </trkpt>
      <trkpt lat="59.8856664" lon="17.564067">
        <ele>3.98267</ele>
        <time>2013-05-26T12:01:40Z</time>
      </trkpt>
      <trkpt lat="59.8857186" lon="17.563982">
        <ele>3.98267</ele>
        <time>2013-05-26T12:01:41Z</time>
      </trkpt>
      <trkpt lat="59.8857708" lon="17.563897">
        <ele>3.98267</ele>
        <time>2013-05-26T12:01:42Z</time>
      </trkpt>
      <trkpt lat="59.8858217" lon="17.5638119">
        <ele>4.46326</ele>
        <time>2013-05-26T12:01:43Z</time>
      </trkpt>
      <trkpt lat="59.8858719" lon="17.5637261">
        <ele>4.46326</ele>
        <time>2013-05-26T12:01:44Z</time>
      </trkpt>
      <trkpt lat="59.8859226" lon="17.5636412">
        <ele>4.46326</ele>
        <time>2013-05-26T12:01:45Z</time>
      </trkpt>
      <trkpt lat="59.8859733" lon="17.5635572">
        <ele>4.46326</ele>
        <time>2013-05-26T12:01:46Z</time>
      </trkpt>
      <trkpt lat="59.8860232" lon="17.5634749">
        <ele>4.46326</ele>
        <time>2013-05-26T12:01:47Z</time>
      </trkpt>
      <trkpt lat="59.8860727" lon="17.5633941">
        <ele>4.46326</ele>
        <time>2013-05-26T12:01:48Z</time>
      </trkpt>
      <trkpt lat="59.8861222" lon="17.5633133">
        <ele>4.94385</ele>
        <time>2013-05-26T12:01:49Z</time>
      </trkpt>
      <trkpt lat="59.8861723" lon="17.563232">
        <ele>4.94385</ele>
        <time>2013-05-26T12:01:50Z</time>
      </trkpt>
      <trkpt lat="59.886223" lon="17.5631497">
        <ele>4.94385</ele>
        <time>2013-05-26T12:01:51Z</time>
      </trkpt>
      <trkpt lat="59.8862734" lon="17.5630667">
        <ele>4.94385</ele>
        <time>2013-05-26T12:01:52Z</time>
      </trkpt>
      <trkpt lat="59.8863238" lon="17.5629831">
        <ele>4.94385</ele>
        <time>2013-05-26T12:01:53Z</time>
      </trkpt>
      <trkpt lat="59.886375" lon="17.5629005">
        <ele>4.94385</ele>
        <time>2013-05-26T12:01:54Z</time>
      </trkpt>
      <trkpt lat="59.8864268" lon="17.5628177">
        <ele>4.94385</ele>
        <time>2013-05-26T12:01:55Z</time>
      </trkpt>
      <trkpt lat="59.8864785" lon="17.5627336">
        <ele>5.42456</ele>
        <time>2013-05-26T12:01:56Z</time>
      </trkpt>
      <trkpt lat="59.8865305" lon="17.5626492">
        <ele>5.42456</ele>
        <time>2013-05-26T12:01:57Z</time>
      </trkpt>
      <trkpt lat="59.8865836" lon="17.5625647">
        <ele>5.42456</ele>
        <time>2013-05-26T12:01:58Z</time>
      </trkpt>
      <trkpt lat="59.8866368" lon="17.5624796">
        <ele>5.42456</ele>
        <time>2013-05-26T12:01:59Z</time>
      </trkpt>
      <trkpt lat="59.88669" lon="17.5623933">
        <ele>5.42456</ele>
        <time>2013-05-26T12:02:00Z</time>
      </trkpt>
      <trkpt lat="59.8867444" lon="17.5623058">
        <ele>5.42456</ele>
        <time>2013-05-26T12:02:01Z</time>
      </trkpt>
      <trkpt lat="59.8867997" lon="17.5622191">
        <ele>5.42456</ele>
        <time>2013-05-26T12:02:02Z</time>
      </trkpt>
      <trkpt lat="59.8868535" lon="17.562132">
        <ele>5.42456</ele>
        <time>2013-05-26T12:02:03Z</time>
      </trkpt>
      <trkpt lat="59.886907" lon="17.5620465">
        <ele>5.42456</ele>
        <time>2013-05-26T12:02:04Z</time>
      </trkpt>
      <trkpt lat="59.8869596" lon="17.5619613">
        <ele>5.42456</ele>
        <time>2013-05-26T12:02:05Z</time>
      </trkpt>
      <trkpt lat="59.8870137" lon="17.5618746">
        <ele>5.42456</ele>
        <time>2013-05-26T12:02:06Z</time>
      </trkpt>
      <trkpt lat="59.8870691" lon="17.5617872">
        <ele>5.42456</ele>
        <time>2013-05-26T12:02:07Z</time>
      </trkpt>
      <trkpt lat="59.887124" lon="17.5616997">
        <ele>5.42456</ele>
        <time>2013-05-26T12:02:08Z</time>
      </trkpt>
      <trkpt lat="59.8871774" lon="17.5616127">
        <ele>4.94385</ele>
        <time>2013-05-26T12:02:09Z</time>
      </trkpt>
      <trkpt lat="59.8872326" lon="17.5615265">
        <ele>4.94385</ele>
        <time>2013-05-26T12:02:10Z</time>
      </trkpt>
      <trkpt lat="59.8872877" lon="17.5614411">
        <ele>4.94385</ele>
        <time>2013-05-26T12:02:11Z</time>
      </trkpt>
      <trkpt lat="59.8873432" lon="17.561354">
        <ele>4.94385</ele>
        <time>2013-05-26T12:02:12Z</time>
      </trkpt>
      <trkpt lat="59.8873988" lon="17.5612671">
        <ele>4.94385</ele>
        <time>2013-05-26T12:02:13Z</time>
      </trkpt>
      <trkpt lat="59.8874549" lon="17.5611815">
        <ele>4.94385</ele>
        <time>2013-05-26T12:02:14Z</time>
      </trkpt>
      <trkpt lat="59.8875114" lon="17.5610947">
        <ele>5.42456</ele>
        <time>2013-05-26T12:02:15Z</time>
      </trkpt>
      <trkpt lat="59.8875684" lon="17.5610092">
        <ele>5.42456</ele>
        <time>2013-05-26T12:02:16Z</time>
      </trkpt>
      <trkpt lat="59.8876268" lon="17.5609202">
        <ele>5.42456</ele>
        <time>2013-05-26T12:02:17Z</time>
      </trkpt>
      <trkpt lat="59.8876849" lon="17.5608289">
        <ele>5.42456</ele>
        <time>2013-05-26T12:02:18Z</time>
      </trkpt>
      <trkpt lat="59.8877436" lon="17.5607388">
        <ele>5.42456</ele>
        <time>2013-05-26T12:02:19Z</time>
      </trkpt>
      <trkpt lat="59.887803" lon="17.5606487">
        <ele>5.42456</ele>
        <time>2013-05-26T12:02:20Z</time>
      </trkpt>
      <trkpt lat="59.8878625" lon="17.5605573">
        <ele>5.42456</ele>
        <time>2013-05-26T12:02:21Z</time>
      </trkpt>
      <trkpt lat="59.8879232" lon="17.5604652">
        <ele>5.42456</ele>
        <time>2013-05-26T12:02:22Z</time>
      </trkpt>
      <trkpt lat="59.8879844" lon="17.5603732">
        <ele>5.42456</ele>
        <time>2013-05-26T12:02:23Z</time>
      </trkpt>
      <trkpt lat="59.8880453" lon="17.5602798">
        <ele>5.42456</ele>
        <time>2013-05-26T12:02:24Z</time>
      </trkpt>
      <trkpt lat="59.8881061" lon="17.5601872">
        <ele>5.42456</ele>
        <time>2013-05-26T12:02:25Z</time>
      </trkpt>
      <trkpt lat="59.8881667" lon="17.5600962">
        <ele>5.42456</ele>
        <time>2013-05-26T12:02:26Z</time>
      </trkpt>
      <trkpt lat="59.8882273" lon="17.5600062">
        <ele>5.42456</ele>
        <time>2013-05-26T12:02:27Z</time>
      </trkpt>
      <trkpt lat="59.8882874" lon="17.5599182">
        <ele>5.42456</ele>
        <time>2013-05-26T12:02:28Z</time>
      </trkpt>
      <trkpt lat="59.8883461" lon="17.5598321">
        <ele>5.42456</ele>
        <time>2013-05-26T12:02:29Z</time>
      </trkpt>
      <trkpt lat="59.888403" lon="17.5597479">
        <ele>5.42456</ele>
        <time>2013-05-26T12:02:30Z</time>
      </trkpt>
      <trkpt lat="59.8884579" lon="17.5596671">
        <ele>5.42456</ele>
        <time>2013-05-26T12:02:31Z</time>
      </trkpt>
      <trkpt lat="59.8885112" lon="17.5595904">
        <ele>5.42456</ele>
        <time>2013-05-26T12:02:32Z</time>
      </trkpt>
      <trkpt lat="59.8885618" lon="17.5595147">
        <ele>5.42456</ele>
        <time>2013-05-26T12:02:33Z</time>
      </trkpt>
      <trkpt lat="59.8886092" lon="17.5594387">
        <ele>4.94385</ele>
        <time>2013-05-26T12:02:34Z</time>
      </trkpt>
      <trkpt lat="59.8886576" lon="17.5593638">
        <ele>4.94385</ele>
        <time>2013-05-26T12:02:35Z</time>
      </trkpt>
      <trkpt lat="59.8887064" lon="17.5592894">
        <ele>4.94385</ele>
        <time>2013-05-26T12:02:36Z</time>
      </trkpt>
      <trkpt lat="59.8887565" lon="17.5592157">
        <ele>4.46326</ele>
        <time>2013-05-26T12:02:37Z</time>
      </trkpt>
      <trkpt lat="59.8888075" lon="17.5591413">
        <ele>4.46326</ele>
        <time>2013-05-26T12:02:38Z</time>
      </trkpt>
      <trkpt lat="59.8888581" lon="17.5590655">
        <ele>4.46326</ele>
        <time>2013-05-26T12:02:39Z</time>
      </trkpt>
      <trkpt lat="59.888909" lon="17.5589894">
        <ele>4.46326</ele>
        <time>2013-05-26T12:02:40Z</time>
      </trkpt>
      <trkpt lat="59.8889604" lon="17.558915">
        <ele>4.46326</ele>
        <time>2013-05-26T12:02:41Z</time>
      </trkpt>
      <trkpt lat="59.8890116" lon="17.5588397">
        <ele>4.46326</ele>
        <time>2013-05-26T12:02:42Z</time>
      </trkpt>
      <trkpt lat="59.8890624" lon="17.5587614">
        <ele>4.46326</ele>
        <time>2013-05-26T12:02:43Z</time>
      </trkpt>
      <trkpt lat="59.889114" lon="17.5586827">
        <ele>4.46326</ele>
        <time>2013-05-26T12:02:44Z</time>
      </trkpt>
      <trkpt lat="59.8891663" lon="17.5586045">
        <ele>4.46326</ele>
        <time>2013-05-26T12:02:45Z</time>
      </trkpt>
      <trkpt lat="59.8892193" lon="17.5585262">
        <ele>4.46326</ele>
        <time>2013-05-26T12:02:46Z</time>
      </trkpt>
      <trkpt lat="59.8892728" lon="17.5584487">
        <ele>4.46326</ele>
        <time>2013-05-26T12:02:47Z</time>
      </trkpt>
      <trkpt lat="59.8893281" lon="17.5583757">
        <ele>3.98267</ele>
        <time>2013-05-26T12:02:48Z</time>
      </trkpt>
      <trkpt lat="59.8893841" lon="17.5583036">
        <ele>3.98267</ele>
        <time>2013-05-26T12:02:49Z</time>
      </trkpt>
      <trkpt lat="59.8894395" lon="17.5582296">
        <ele>3.98267</ele>
        <time>2013-05-26T12:02:50Z</time>
      </trkpt>
      <trkpt lat="59.8894943" lon="17.558157">
        <ele>3.98267</ele>
        <time>2013-05-26T12:02:51Z</time>
      </trkpt>
      <trkpt lat="59.8895489" lon="17.5580803">
        <ele>3.98267</ele>
        <time>2013-05-26T12:02:52Z</time>
      </trkpt>
      <trkpt lat="59.8896038" lon="17.5580009">
        <ele>3.98267</ele>
        <time>2013-05-26T12:02:53Z</time>
      </trkpt>
      <trkpt lat="59.8896596" lon="17.5579203">
        <ele>3.98267</ele>
        <time>2013-05-26T12:02:54Z</time>
      </trkpt>
      <trkpt lat="59.8897166" lon="17.557839">
        <ele>4.46326</ele>
        <time>2013-05-26T12:02:55Z</time>
      </trkpt>
      <trkpt lat="59.8897744" lon="17.557758">
        <ele>4.46326</ele>
        <time>2013-05-26T12:02:56Z</time>
      </trkpt>
      <trkpt lat="59.889833" lon="17.5576763">
        <ele>4.46326</ele>
        <time>2013-05-26T12:02:57Z</time>
      </trkpt>
      <trkpt lat="59.8898922" lon="17.5575937">
        <ele>4.46326</ele>
        <time>2013-05-26T12:02:58Z</time>
      </trkpt>
      <trkpt lat="59.8899516" lon="17.5575106">
        <ele>4.46326</ele>
        <time>2013-05-26T12:02:59Z</time>
      </trkpt>
      <trkpt lat="59.8900104" lon="17.55743">
        <ele>4.46326</ele>
        <time>2013-05-26T12:03:00Z</time>
      </trkpt>
      <trkpt lat="59.8900692" lon="17.5573515">
        <ele>4.46326</ele>
        <time>2013-05-26T12:03:01Z</time>
      </trkpt>
      <trkpt lat="59.8901278" lon="17.5572724">
        <ele>4.46326</ele>
        <time>2013-05-26T12:03:02Z</time>
      </trkpt>
      <trkpt lat="59.8901859" lon="17.5571919">
        <ele>4.46326</ele>
        <time>2013-05-26T12:03:03Z</time>
      </trkpt>
      <trkpt lat="59.8902437" lon="17.5571111">
        <ele>4.46326</ele>
        <time>2013-05-26T12:03:04Z</time>
      </trkpt>
      <trkpt lat="59.8903025" lon="17.5570319">
        <ele>4.46326</ele>
        <time>2013-05-26T12:03:05Z</time>
      </trkpt>
      <trkpt lat="59.8903619" lon="17.5569524">
        <ele>4.46326</ele>
        <time>2013-05-26T12:03:06Z</time>
      </trkpt>
      <trkpt lat="59.8904212" lon="17.5568721">
        <ele>4.46326</ele>
        <time>2013-05-26T12:03:07Z</time>
      </trkpt>
      <trkpt lat="59.8904811" lon="17.5567918">
        <ele>4.94385</ele>
        <time>2013-05-26T12:03:08Z</time>
      </trkpt>
      <trkpt lat="59.8905404" lon="17.5567108">
        <ele>4.94385</ele>
        <time>2013-05-26T12:03:09Z</time>
      </trkpt>
      <trkpt lat="59.8905997" lon="17.5566295">
        <ele>4.94385</ele>
        <time>2013-05-26T12:03:10Z</time>
      </trkpt>
      <trkpt lat="59.8906597" lon="17.5565476">
        <ele>4.94385</ele>
        <time>2013-05-26T12:03:11Z</time>
      </trkpt>
      <trkpt lat="59.89072" lon="17.5564657">
        <ele>4.94385</ele>
        <time>2013-05-26T12:03:12Z</time>
      </trkpt>
      <trkpt lat="59.8907807" lon="17.5563865">
        <ele>4.94385</ele>
        <time>2013-05-26T12:03:13Z</time>
      </trkpt>
      <trkpt lat="59.8908415" lon="17.5563078">
        <ele>4.94385</ele>
        <time>2013-05-26T12:03:14Z</time>
      </trkpt>
      <trkpt lat="59.8909009" lon="17.5562269">
        <ele>4.94385</ele>
        <time>2013-05-26T12:03:15Z</time>
      </trkpt>
      <trkpt lat="59.8909603" lon="17.5561465">
        <ele>4.94385</ele>
        <time>2013-05-26T12:03:16Z</time>
      </trkpt>
      <trkpt lat="59.8910195" lon="17.5560656">
        <ele>4.94385</ele>
        <time>2013-05-26T12:03:17Z</time>
      </trkpt>
      <trkpt lat="59.8910789" lon="17.5559849">
        <ele>4.94385</ele>
        <time>2013-05-26T12:03:18Z</time>
      </trkpt>
      <trkpt lat="59.8911391" lon="17.555905">
        <ele>4.94385</ele>
        <time>2013-05-26T12:03:19Z</time>
      </trkpt>
      <trkpt lat="59.8912002" lon="17.5558242">
        <ele>4.94385</ele>
        <time>2013-05-26T12:03:20Z</time>
      </trkpt>
      <trkpt lat="59.8912623" lon="17.5557427">
        <ele>4.94385</ele>
        <time>2013-05-26T12:03:21Z</time>
      </trkpt>
      <trkpt lat="59.8913248" lon="17.5556613">
        <ele>4.94385</ele>
        <time>2013-05-26T12:03:22Z</time>
      </trkpt>
      <trkpt lat="59.8913873" lon="17.5555804">
        <ele>4.94385</ele>
        <time>2013-05-26T12:03:23Z</time>
      </trkpt>
      <trkpt lat="59.8914499" lon="17.5554991">
        <ele>4.94385</ele>
        <time>2013-05-26T12:03:24Z</time>
      </trkpt>
      <trkpt lat="59.891512" lon="17.5554153">
        <ele>4.94385</ele>
        <time>2013-05-26T12:03:25Z</time>
      </trkpt>
      <trkpt lat="59.8915742" lon="17.5553319">
        <ele>4.94385</ele>
        <time>2013-05-26T12:03:26Z</time>
      </trkpt>
      <trkpt lat="59.8916372" lon="17.5552508">
        <ele>4.94385</ele>
        <time>2013-05-26T12:03:27Z</time>
      </trkpt>
      <trkpt lat="59.8917006" lon="17.5551687">
        <ele>4.94385</ele>
        <time>2013-05-26T12:03:28Z</time>
      </trkpt>
      <trkpt lat="59.8917643" lon="17.5550863">
        <ele>4.94385</ele>
        <time>2013-05-26T12:03:29Z</time>
      </trkpt>
      <trkpt lat="59.8918286" lon="17.5550053">
        <ele>4.94385</ele>
        <time>2013-05-26T12:03:30Z</time>
      </trkpt>
      <trkpt lat="59.8918933" lon="17.554924">
        <ele>4.94385</ele>
        <time>2013-05-26T12:03:31Z</time>
      </trkpt>
      <trkpt lat="59.8919575" lon="17.554841">
        <ele>4.94385</ele>
        <time>2013-05-26T12:03:32Z</time>
      </trkpt>
      <trkpt lat="59.8920218" lon="17.5547584">
        <ele>4.94385</ele>
        <time>2013-05-26T12:03:33Z</time>
      </trkpt>
      <trkpt lat="59.8920865" lon="17.5546773">
        <ele>4.94385</ele>
        <time>2013-05-26T12:03:34Z</time>
      </trkpt>
      <trkpt lat="59.8921512" lon="17.5545965">
        <ele>4.94385</ele>
        <time>2013-05-26T12:03:35Z</time>
      </trkpt>
      <trkpt lat="59.8922159" lon="17.5545162">
        <ele>4.94385</ele>
        <time>2013-05-26T12:03:36Z</time>
      </trkpt>
      <trkpt lat="59.8922806" lon="17.5544356">
        <ele>4.94385</ele>
        <time>2013-05-26T12:03:37Z</time>
      </trkpt>
      <trkpt lat="59.892345" lon="17.5543533">
        <ele>4.94385</ele>
        <time>2013-05-26T12:03:38Z</time>
      </trkpt>
      <trkpt lat="59.8924099" lon="17.5542695">
        <ele>4.94385</ele>
        <time>2013-05-26T12:03:39Z</time>
      </trkpt>
      <trkpt lat="59.8924755" lon="17.5541865">
        <ele>4.94385</ele>
        <time>2013-05-26T12:03:40Z</time>
      </trkpt>
      <trkpt lat="59.8925412" lon="17.5541041">
        <ele>4.94385</ele>
        <time>2013-05-26T12:03:41Z</time>
      </trkpt>
      <trkpt lat="59.8926069" lon="17.5540227">
        <ele>4.94385</ele>
        <time>2013-05-26T12:03:42Z</time>
      </trkpt>
      <trkpt lat="59.8926727" lon="17.5539413">
        <ele>4.94385</ele>
        <time>2013-05-26T12:03:43Z</time>
      </trkpt>
      <trkpt lat="59.892738" lon="17.5538586">
        <ele>4.94385</ele>
        <time>2013-05-26T12:03:44Z</time>
      </trkpt>
      <trkpt lat="59.8928034" lon="17.5537771">
        <ele>4.94385</ele>
        <time>2013-05-26T12:03:45Z</time>
      </trkpt>
      <trkpt lat="59.8928695" lon="17.5536964">
        <ele>4.94385</ele>
        <time>2013-05-26T12:03:46Z</time>
      </trkpt>
      <trkpt lat="59.8929356" lon="17.5536164">
        <ele>4.94385</ele>
        <time>2013-05-26T12:03:47Z</time>
      </trkpt>
      <trkpt lat="59.8929999" lon="17.5535372">
        <ele>4.94385</ele>
        <time>2013-05-26T12:03:48Z</time>
      </trkpt>
      <trkpt lat="59.8930624" lon="17.5534603">
        <ele>4.94385</ele>
        <time>2013-05-26T12:03:49Z</time>
      </trkpt>
      <trkpt lat="59.8931236" lon="17.5533856">
        <ele>4.94385</ele>
        <time>2013-05-26T12:03:50Z</time>
      </trkpt>
      <trkpt lat="59.8931841" lon="17.5533116">
        <ele>4.94385</ele>
        <time>2013-05-26T12:03:51Z</time>
      </trkpt>
      <trkpt lat="59.8932444" lon="17.553239">
        <ele>4.94385</ele>
        <time>2013-05-26T12:03:52Z</time>
      </trkpt>
      <trkpt lat="59.893304" lon="17.5531648">
        <ele>4.94385</ele>
        <time>2013-05-26T12:03:53Z</time>
      </trkpt>
      <trkpt lat="59.8933634" lon="17.5530904">
        <ele>4.94385</ele>
        <time>2013-05-26T12:03:54Z</time>
      </trkpt>
      <trkpt lat="59.8934229" lon="17.5530168">
        <ele>4.94385</ele>
        <time>2013-05-26T12:03:55Z</time>
      </trkpt>
      <trkpt lat="59.8934824" lon="17.5529438">
        <ele>4.94385</ele>
        <time>2013-05-26T12:03:56Z</time>
      </trkpt>
      <trkpt lat="59.8935422" lon="17.5528719">
        <ele>4.94385</ele>
        <time>2013-05-26T12:03:57Z</time>
      </trkpt>
      <trkpt lat="59.8936027" lon="17.5528003">
        <ele>4.94385</ele>
        <time>2013-05-26T12:03:58Z</time>
      </trkpt>
      <trkpt lat="59.8936633" lon="17.5527292">
        <ele>4.94385</ele>
        <time>2013-05-26T12:03:59Z</time>
      </trkpt>
      <trkpt lat="59.8937238" lon="17.5526584">
        <ele>4.46326</ele>
        <time>2013-05-26T12:04:00Z</time>
      </trkpt>
      <trkpt lat="59.8937833" lon="17.5525863">
        <ele>4.46326</ele>
        <time>2013-05-26T12:04:01Z</time>
      </trkpt>
      <trkpt lat="59.8938421" lon="17.5525148">
        <ele>4.46326</ele>
        <time>2013-05-26T12:04:02Z</time>
      </trkpt>
      <trkpt lat="59.8939012" lon="17.5524449">
        <ele>4.46326</ele>
        <time>2013-05-26T12:04:03Z</time>
      </trkpt>
      <trkpt lat="59.8939601" lon="17.5523754">
        <ele>4.94385</ele>
        <time>2013-05-26T12:04:04Z</time>
      </trkpt>
      <trkpt lat="59.8940188" lon="17.5523061">
        <ele>4.94385</ele>
        <time>2013-05-26T12:04:05Z</time>
      </trkpt>
      <trkpt lat="59.8940778" lon="17.5522376">
        <ele>4.94385</ele>
        <time>2013-05-26T12:04:06Z</time>
      </trkpt>
      <trkpt lat="59.8941366" lon="17.5521669">
        <ele>4.94385</ele>
        <time>2013-05-26T12:04:07Z</time>
      </trkpt>
      <trkpt lat="59.8941956" lon="17.5520953">
        <ele>4.46326</ele>
        <time>2013-05-26T12:04:08Z</time>
      </trkpt>
      <trkpt lat="59.8942552" lon="17.5520241">
        <ele>4.46326</ele>
        <time>2013-05-26T12:04:09Z</time>
      </trkpt>
      <trkpt lat="59.8943153" lon="17.5519537">
        <ele>4.46326</ele>
        <time>2013-05-26T12:04:10Z</time>
      </trkpt>
      <trkpt lat="59.8943764" lon="17.5518861">
        <ele>4.46326</ele>
        <time>2013-05-26T12:04:11Z</time>
      </trkpt>
      <trkpt lat="59.8944381" lon="17.551819">
        <ele>4.46326</ele>
        <time>2013-05-26T12:04:12Z</time>
      </trkpt>
      <trkpt lat="59.8944994" lon="17.5517487">
        <ele>4.46326</ele>
        <time>2013-05-26T12:04:13Z</time>
      </trkpt>
      <trkpt lat="59.8945606" lon="17.5516767">
        <ele>4.46326</ele>
        <time>2013-05-26T12:04:14Z</time>
      </trkpt>
      <trkpt lat="59.8946217" lon="17.5516042">
        <ele>4.94385</ele>
        <time>2013-05-26T12:04:15Z</time>
      </trkpt>
      <trkpt lat="59.8946827" lon="17.5515313">
        <ele>4.94385</ele>
        <time>2013-05-26T12:04:16Z</time>
      </trkpt>
      <trkpt lat="59.8947443" lon="17.5514601">
        <ele>4.94385</ele>
        <time>2013-05-26T12:04:17Z</time>
      </trkpt>
      <trkpt lat="59.8948066" lon="17.5513914">
        <ele>4.94385</ele>
        <time>2013-05-26T12:04:18Z</time>
      </trkpt>
      <trkpt lat="59.8948693" lon="17.5513245">
        <ele>4.94385</ele>
        <time>2013-05-26T12:04:19Z</time>
      </trkpt>
      <trkpt lat="59.8949319" lon="17.5512566">
        <ele>4.94385</ele>
        <time>2013-05-26T12:04:20Z</time>
      </trkpt>
      <trkpt lat="59.8949936" lon="17.5511861">
        <ele>4.94385</ele>
        <time>2013-05-26T12:04:21Z</time>
      </trkpt>
      <trkpt lat="59.8950552" lon="17.5511162">
        <ele>4.94385</ele>
        <time>2013-05-26T12:04:22Z</time>
      </trkpt>
      <trkpt lat="59.8951168" lon="17.5510477">
        <ele>4.94385</ele>
        <time>2013-05-26T12:04:23Z</time>
      </trkpt>
      <trkpt lat="59.8951781" lon="17.5509783">
        <ele>4.94385</ele>
        <time>2013-05-26T12:04:24Z</time>
      </trkpt>
      <trkpt lat="59.8952395" lon="17.5509094">
        <ele>4.94385</ele>
        <time>2013-05-26T12:04:25Z</time>
      </trkpt>
      <trkpt lat="59.8953001" lon="17.5508416">
        <ele>4.94385</ele>
        <time>2013-05-26T12:04:26Z</time>
      </trkpt>
      <trkpt lat="59.8953601" lon="17.5507739">
        <ele>4.94385</ele>
        <time>2013-05-26T12:04:27Z</time>
      </trkpt>
      <trkpt lat="59.8954195" lon="17.550708">
        <ele>4.94385</ele>
        <time>2013-05-26T12:04:28Z</time>
      </trkpt>
      <trkpt lat="59.8954785" lon="17.5506431">
        <ele>4.94385</ele>
        <time>2013-05-26T12:04:29Z</time>
      </trkpt>
      <trkpt lat="59.895537" lon="17.5505794">
        <ele>4.94385</ele>
        <time>2013-05-26T12:04:30Z</time>
      </trkpt>
      <trkpt lat="59.895595" lon="17.5505178">
        <ele>4.94385</ele>
        <time>2013-05-26T12:04:31Z</time>
      </trkpt>
      <trkpt lat="59.895652" lon="17.5504562">
        <ele>4.94385</ele>
        <time>2013-05-26T12:04:32Z</time>
      </trkpt>
      <trkpt lat="59.8957077" lon="17.5503942">
        <ele>4.94385</ele>
        <time>2013-05-26T12:04:33Z</time>
      </trkpt>
      <trkpt lat="59.8957629" lon="17.5503318">
        <ele>4.94385</ele>
        <time>2013-05-26T12:04:34Z</time>
      </trkpt>
      <trkpt lat="59.8958177" lon="17.5502698">
        <ele>4.94385</ele>
        <time>2013-05-26T12:04:35Z</time>
      </trkpt>
      <trkpt lat="59.8958726" lon="17.5502114">
        <ele>4.94385</ele>
        <time>2013-05-26T12:04:36Z</time>
      </trkpt>
      <trkpt lat="59.895927" lon="17.5501532">
        <ele>4.94385</ele>
        <time>2013-05-26T12:04:37Z</time>
      </trkpt>
      <trkpt lat="59.8959809" lon="17.5500931">
        <ele>4.94385</ele>
        <time>2013-05-26T12:04:38Z</time>
      </trkpt>
      <trkpt lat="59.8960347" lon="17.550034">
        <ele>4.94385</ele>
        <time>2013-05-26T12:04:39Z</time>
      </trkpt>
      <trkpt lat="59.8960883" lon="17.5499767">
        <ele>4.94385</ele>
        <time>2013-05-26T12:04:40Z</time>
      </trkpt>
      <trkpt lat="59.8961419" lon="17.5499202">
        <ele>4.94385</ele>
        <time>2013-05-26T12:04:41Z</time>
      </trkpt>
      <trkpt lat="59.8961949" lon="17.5498636">
        <ele>4.94385</ele>
        <time>2013-05-26T12:04:42Z</time>
      </trkpt>
      <trkpt lat="59.8962477" lon="17.5498068">
        <ele>4.94385</ele>
        <time>2013-05-26T12:04:43Z</time>
      </trkpt>
      <trkpt lat="59.8963009" lon="17.5497493">
        <ele>4.94385</ele>
        <time>2013-05-26T12:04:44Z</time>
      </trkpt>
      <trkpt lat="59.8963544" lon="17.5496923">
        <ele>4.94385</ele>
        <time>2013-05-26T12:04:45Z</time>
      </trkpt>
      <trkpt lat="59.8964082" lon="17.5496355">
        <ele>4.94385</ele>
        <time>2013-05-26T12:04:46Z</time>
      </trkpt>
      <trkpt lat="59.8964619" lon="17.549578">
        <ele>4.94385</ele>
        <time>2013-05-26T12:04:47Z</time>
      </trkpt>
      <trkpt lat="59.8965163" lon="17.5495218">
        <ele>4.94385</ele>
        <time>2013-05-26T12:04:48Z</time>
      </trkpt>
      <trkpt lat="59.8965704" lon="17.5494647">
        <ele>4.94385</ele>
        <time>2013-05-26T12:04:49Z</time>
      </trkpt>
      <trkpt lat="59.8966244" lon="17.5494069">
        <ele>4.94385</ele>
        <time>2013-05-26T12:04:50Z</time>
      </trkpt>
      <trkpt lat="59.8966783" lon="17.5493501">
        <ele>4.94385</ele>
        <time>2013-05-26T12:04:51Z</time>
      </trkpt>
      <trkpt lat="59.8967323" lon="17.5492952">
        <ele>4.94385</ele>
        <time>2013-05-26T12:04:52Z</time>
      </trkpt>
      <trkpt lat="59.8967859" lon="17.5492403">
        <ele>4.94385</ele>
        <time>2013-05-26T12:04:53Z</time>
      </trkpt>
      <trkpt lat="59.8968393" lon="17.5491836">
        <ele>4.94385</ele>
        <time>2013-05-26T12:04:54Z</time>
      </trkpt>
      <trkpt lat="59.8968925" lon="17.5491277">
        <ele>4.94385</ele>
        <time>2013-05-26T12:04:55Z</time>
      </trkpt>
      <trkpt lat="59.8969476" lon="17.5490704">
        <ele>4.94385</ele>
        <time>2013-05-26T12:04:56Z</time>
      </trkpt>
      <trkpt lat="59.8970034" lon="17.5490121">
        <ele>4.94385</ele>
        <time>2013-05-26T12:04:57Z</time>
      </trkpt>
      <trkpt lat="59.897059" lon="17.5489515">
        <ele>4.94385</ele>
        <time>2013-05-26T12:04:58Z</time>
      </trkpt>
      <trkpt lat="59.897115" lon="17.5488914">
        <ele>4.94385</ele>
        <time>2013-05-26T12:04:59Z</time>
      </trkpt>
      <trkpt lat="59.8971717" lon="17.5488329">
        <ele>4.94385</ele>
        <time>2013-05-26T12:05:00Z</time>
      </trkpt>
      <trkpt lat="59.8972289" lon="17.5487736">
        <ele>4.94385</ele>
        <time>2013-05-26T12:05:01Z</time>
      </trkpt>
      <trkpt lat="59.8972867" lon="17.5487148">
        <ele>5.42456</ele>
        <time>2013-05-26T12:05:02Z</time>
      </trkpt>
      <trkpt lat="59.8973446" lon="17.5486563">
        <ele>5.42456</ele>
        <time>2013-05-26T12:05:03Z</time>
      </trkpt>
      <trkpt lat="59.8974028" lon="17.5485978">
        <ele>5.42456</ele>
        <time>2013-05-26T12:05:04Z</time>
      </trkpt>
      <trkpt lat="59.8974608" lon="17.5485403">
        <ele>5.42456</ele>
        <time>2013-05-26T12:05:05Z</time>
      </trkpt>
      <trkpt lat="59.8975188" lon="17.5484825">
        <ele>5.42456</ele>
        <time>2013-05-26T12:05:06Z</time>
      </trkpt>
      <trkpt lat="59.8975764" lon="17.5484236">
        <ele>5.42456</ele>
        <time>2013-05-26T12:05:07Z</time>
      </trkpt>
      <trkpt lat="59.8976342" lon="17.548366">
        <ele>5.42456</ele>
        <time>2013-05-26T12:05:08Z</time>
      </trkpt>
      <trkpt lat="59.8976918" lon="17.5483094">
        <ele>5.42456</ele>
        <time>2013-05-26T12:05:09Z</time>
      </trkpt>
      <trkpt lat="59.8977488" lon="17.5482516">
        <ele>5.42456</ele>
        <time>2013-05-26T12:05:10Z</time>
      </trkpt>
      <trkpt lat="59.8978062" lon="17.5481945">
        <ele>5.42456</ele>
        <time>2013-05-26T12:05:11Z</time>
      </trkpt>
      <trkpt lat="59.8978623" lon="17.5481398">
        <ele>5.42456</ele>
        <time>2013-05-26T12:05:12Z</time>
      </trkpt>
      <trkpt lat="59.8979161" lon="17.5480867">
        <ele>4.94385</ele>
        <time>2013-05-26T12:05:13Z</time>
      </trkpt>
      <trkpt lat="59.897967" lon="17.5480362">
        <ele>4.94385</ele>
        <time>2013-05-26T12:05:14Z</time>
      </trkpt>
      <trkpt lat="59.8980167" lon="17.5479893">
        <ele>5.42456</ele>
        <time>2013-05-26T12:05:15Z</time>
      </trkpt>
      <trkpt lat="59.8980654" lon="17.5479429">
        <ele>5.42456</ele>
        <time>2013-05-26T12:05:16Z</time>
      </trkpt>
      <trkpt lat="59.8981141" lon="17.5478948">
        <ele>5.42456</ele>
        <time>2013-05-26T12:05:17Z</time>
      </trkpt>
      <trkpt lat="59.8981637" lon="17.5478469">
        <ele>5.42456</ele>
        <time>2013-05-26T12:05:18Z</time>
      </trkpt>
      <trkpt lat="59.8982135" lon="17.5477994">
        <ele>5.42456</ele>
        <time>2013-05-26T12:05:19Z</time>
      </trkpt>
      <trkpt lat="59.8982636" lon="17.5477508">
        <ele>5.42456</ele>
        <time>2013-05-26T12:05:20Z</time>
      </trkpt>
      <trkpt lat="59.8983141" lon="17.547702">
        <ele>5.42456</ele>
        <time>2013-05-26T12:05:21Z</time>
      </trkpt>
      <trkpt lat="59.8983653" lon="17.5476531">
        <ele>5.42456</ele>
        <time>2013-05-26T12:05:22Z</time>
      </trkpt>
      <trkpt lat="59.8984172" lon="17.547604">
        <ele>5.42456</ele>
        <time>2013-05-26T12:05:23Z</time>
      </trkpt>
      <trkpt lat="59.8984697" lon="17.5475534">
        <ele>5.42456</ele>
        <time>2013-05-26T12:05:24Z</time>
      </trkpt>
      <trkpt lat="59.8985223" lon="17.5475019">
        <ele>5.42456</ele>
        <time>2013-05-26T12:05:25Z</time>
      </trkpt>
      <trkpt lat="59.8985757" lon="17.5474513">
        <ele>5.42456</ele>
        <time>2013-05-26T12:05:26Z</time>
      </trkpt>
      <trkpt lat="59.898629" lon="17.5474">
        <ele>5.42456</ele>
        <time>2013-05-26T12:05:27Z</time>
      </trkpt>
      <trkpt lat="59.8986823" lon="17.5473482">
        <ele>5.42456</ele>
        <time>2013-05-26T12:05:28Z</time>
      </trkpt>
      <trkpt lat="59.8987357" lon="17.5472969">
        <ele>5.42456</ele>
        <time>2013-05-26T12:05:29Z</time>
      </trkpt>
      <trkpt lat="59.89879" lon="17.5472451">
        <ele>5.42456</ele>
        <time>2013-05-26T12:05:30Z</time>
      </trkpt>
      <trkpt lat="59.8988441" lon="17.5471918">
        <ele>5.42456</ele>
        <time>2013-05-26T12:05:31Z</time>
      </trkpt>
      <trkpt lat="59.8988982" lon="17.5471384">
        <ele>5.42456</ele>
        <time>2013-05-26T12:05:32Z</time>
      </trkpt>
      <trkpt lat="59.8989523" lon="17.5470871">
        <ele>5.42456</ele>
        <time>2013-05-26T12:05:33Z</time>
      </trkpt>
      <trkpt lat="59.8990066" lon="17.547037">
        <ele>5.42456</ele>
        <time>2013-05-26T12:05:34Z</time>
      </trkpt>
      <trkpt lat="59.899061" lon="17.5469876">
        <ele>5.42456</ele>
        <time>2013-05-26T12:05:35Z</time>
      </trkpt>
      <trkpt lat="59.8991154" lon="17.546938">
        <ele>5.90527</ele>
        <time>2013-05-26T12:05:36Z</time>
      </trkpt>
      <trkpt lat="59.8991693" lon="17.5468885">
        <ele>5.90527</ele>
        <time>2013-05-26T12:05:37Z</time>
      </trkpt>
      <trkpt lat="59.8992226" lon="17.546839">
        <ele>5.90527</ele>
        <time>2013-05-26T12:05:38Z</time>
      </trkpt>
      <trkpt lat="59.8992756" lon="17.5467875">
        <ele>5.90527</ele>
        <time>2013-05-26T12:05:39Z</time>
      </trkpt>
      <trkpt lat="59.8993291" lon="17.5467365">
        <ele>5.90527</ele>
        <time>2013-05-26T12:05:40Z</time>
      </trkpt>
      <trkpt lat="59.8993825" lon="17.5466884">
        <ele>5.90527</ele>
        <time>2013-05-26T12:05:41Z</time>
      </trkpt>
      <trkpt lat="59.8994356" lon="17.5466399">
        <ele>5.90527</ele>
        <time>2013-05-26T12:05:42Z</time>
      </trkpt>
      <trkpt lat="59.8994884" lon="17.5465898">
        <ele>5.90527</ele>
        <time>2013-05-26T12:05:43Z</time>
      </trkpt>
      <trkpt lat="59.899541" lon="17.5465394">
        <ele>5.90527</ele>
        <time>2013-05-26T12:05:44Z</time>
      </trkpt>
      <trkpt lat="59.8995935" lon="17.5464895">
        <ele>5.90527</ele>
        <time>2013-05-26T12:05:45Z</time>
      </trkpt>
      <trkpt lat="59.8996463" lon="17.5464407">
        <ele>5.90527</ele>
        <time>2013-05-26T12:05:46Z</time>
      </trkpt>
      <trkpt lat="59.8996982" lon="17.5463919">
        <ele>5.90527</ele>
        <time>2013-05-26T12:05:47Z</time>
      </trkpt>
      <trkpt lat="59.8997477" lon="17.5463457">
        <ele>5.90527</ele>
        <time>2013-05-26T12:05:48Z</time>
      </trkpt>
      <trkpt lat="59.8997957" lon="17.5463007">
        <ele>5.90527</ele>
        <time>2013-05-26T12:05:49Z</time>
      </trkpt>
      <trkpt lat="59.8998447" lon="17.5462583">
        <ele>5.90527</ele>
        <time>2013-05-26T12:05:50Z</time>
      </trkpt>
      <trkpt lat="59.8998965" lon="17.5462283">
        <ele>5.90527</ele>
        <time>2013-05-26T12:05:51Z</time>
      </trkpt>
      <trkpt lat="59.899951" lon="17.5462198">
        <ele>5.90527</ele>
        <time>2013-05-26T12:05:52Z</time>
      </trkpt>
      <trkpt lat="59.9000054" lon="17.5462381">
        <ele>5.90527</ele>
        <time>2013-05-26T12:05:53Z</time>
      </trkpt>
      <trkpt lat="59.9000566" lon="17.546282">
        <ele>5.90527</ele>
        <time>2013-05-26T12:05:54Z</time>
      </trkpt>
      <trkpt lat="59.9001038" lon="17.5463442">
        <ele>5.90527</ele>
        <time>2013-05-26T12:05:55Z</time>
      </trkpt>
      <trkpt lat="59.9001483" lon="17.5464172">
        <ele>5.90527</ele>
        <time>2013-05-26T12:05:56Z</time>
      </trkpt>
      <trkpt lat="59.9001885" lon="17.5464998">
        <ele>5.90527</ele>
        <time>2013-05-26T12:05:57Z</time>
      </trkpt>
      <trkpt lat="59.9002255" lon="17.5465879">
        <ele>5.90527</ele>
        <time>2013-05-26T12:05:58Z</time>
      </trkpt>
      <trkpt lat="59.9002627" lon="17.5466767">
        <ele>5.90527</ele>
        <time>2013-05-26T12:05:59Z</time>
      </trkpt>
      <trkpt lat="59.9002997" lon="17.5467654">
        <ele>5.90527</ele>
        <time>2013-05-26T12:06:00Z</time>
      </trkpt>
      <trkpt lat="59.9003354" lon="17.5468546">
        <ele>5.90527</ele>
        <time>2013-05-26T12:06:01Z</time>
      </trkpt>
      <trkpt lat="59.9003711" lon="17.5469427">
        <ele>5.90527</ele>
        <time>2013-05-26T12:06:02Z</time>
      </trkpt>
      <trkpt lat="59.9004073" lon="17.5470282">
        <ele>5.90527</ele>
        <time>2013-05-26T12:06:03Z</time>
      </trkpt>
      <trkpt lat="59.9004435" lon="17.5471134">
        <ele>5.90527</ele>
        <time>2013-05-26T12:06:04Z</time>
      </trkpt>
      <trkpt lat="59.9004794" lon="17.5471984">
        <ele>5.90527</ele>
        <time>2013-05-26T12:06:05Z</time>
      </trkpt>
      <trkpt lat="59.9005161" lon="17.5472843">
        <ele>5.90527</ele>
        <time>2013-05-26T12:06:06Z</time>
      </trkpt>
      <trkpt lat="59.9005521" lon="17.5473726">
        <ele>6.38586</ele>
        <time>2013-05-26T12:06:07Z</time>
      </trkpt>
      <trkpt lat="59.9005871" lon="17.5474628">
        <ele>6.38586</ele>
        <time>2013-05-26T12:06:08Z</time>
      </trkpt>
      <trkpt lat="59.9006229" lon="17.5475518">
        <ele>6.38586</ele>
        <time>2013-05-26T12:06:09Z</time>
      </trkpt>
      <trkpt lat="59.90066" lon="17.5476383">
        <ele>6.38586</ele>
        <time>2013-05-26T12:06:10Z</time>
      </trkpt>
      <trkpt lat="59.900696" lon="17.5477262">
        <ele>6.38586</ele>
        <time>2013-05-26T12:06:11Z</time>
      </trkpt>
      <trkpt lat="59.9007316" lon="17.5478155">
        <ele>6.38586</ele>
        <time>2013-05-26T12:06:12Z</time>
      </trkpt>
      <trkpt lat="59.9007678" lon="17.5479044">
        <ele>6.38586</ele>
        <time>2013-05-26T12:06:13Z</time>
      </trkpt>
      <trkpt lat="59.9008031" lon="17.5479924">
        <ele>6.38586</ele>
        <time>2013-05-26T12:06:14Z</time>
      </trkpt>
      <trkpt lat="59.9008374" lon="17.5480797">
        <ele>5.90527</ele>
        <time>2013-05-26T12:06:15Z</time>
      </trkpt>
      <trkpt lat="59.9008719" lon="17.5481655">
        <ele>5.90527</ele>
        <time>2013-05-26T12:06:16Z</time>
      </trkpt>
      <trkpt lat="59.9009063" lon="17.5482483">
        <ele>5.90527</ele>
        <time>2013-05-26T12:06:17Z</time>
      </trkpt>
      <trkpt lat="59.9009396" lon="17.5483304">
        <ele>5.42456</ele>
        <time>2013-05-26T12:06:18Z</time>
      </trkpt>
      <trkpt lat="59.9009725" lon="17.5484122">
        <ele>5.42456</ele>
        <time>2013-05-26T12:06:19Z</time>
      </trkpt>
      <trkpt lat="59.9010056" lon="17.5484934">
        <ele>5.42456</ele>
        <time>2013-05-26T12:06:20Z</time>
      </trkpt>
      <trkpt lat="59.9010394" lon="17.5485737">
        <ele>5.42456</ele>
        <time>2013-05-26T12:06:21Z</time>
      </trkpt>
      <trkpt lat="59.9010724" lon="17.548654">
        <ele>4.94385</ele>
        <time>2013-05-26T12:06:22Z</time>
      </trkpt>
      <trkpt lat="59.9011041" lon="17.5487345">
        <ele>4.94385</ele>
        <time>2013-05-26T12:06:23Z</time>
      </trkpt>
      <trkpt lat="59.9011371" lon="17.5488148">
        <ele>4.94385</ele>
        <time>2013-05-26T12:06:24Z</time>
      </trkpt>
      <trkpt lat="59.9011703" lon="17.5488934">
        <ele>4.94385</ele>
        <time>2013-05-26T12:06:25Z</time>
      </trkpt>
      <trkpt lat="59.901203" lon="17.5489709">
        <ele>4.94385</ele>
        <time>2013-05-26T12:06:26Z</time>
      </trkpt>
      <trkpt lat="59.9012349" lon="17.5490477">
        <ele>4.94385</ele>
        <time>2013-05-26T12:06:27Z</time>
      </trkpt>
      <trkpt lat="59.9012668" lon="17.5491233">
        <ele>4.94385</ele>
        <time>2013-05-26T12:06:28Z</time>
      </trkpt>
      <trkpt lat="59.9012984" lon="17.5491996">
        <ele>4.94385</ele>
        <time>2013-05-26T12:06:29Z</time>
      </trkpt>
      <trkpt lat="59.9013299" lon="17.5492772">
        <ele>4.94385</ele>
        <time>2013-05-26T12:06:30Z</time>
      </trkpt>
      <trkpt lat="59.9013616" lon="17.5493543">
        <ele>4.94385</ele>
        <time>2013-05-26T12:06:31Z</time>
      </trkpt>
      <trkpt lat="59.9013941" lon="17.5494299">
        <ele>5.42456</ele>
        <time>2013-05-26T12:06:32Z</time>
      </trkpt>
      <trkpt lat="59.901426" lon="17.5495057">
        <ele>5.42456</ele>
        <time>2013-05-26T12:06:33Z</time>
      </trkpt>
      <trkpt lat="59.9014568" lon="17.5495832">
        <ele>5.42456</ele>
        <time>2013-05-26T12:06:34Z</time>
      </trkpt>
      <trkpt lat="59.9014878" lon="17.5496601">
        <ele>5.42456</ele>
        <time>2013-05-26T12:06:35Z</time>
      </trkpt>
      <trkpt lat="59.9015196" lon="17.549735">
        <ele>5.42456</ele>
        <time>2013-05-26T12:06:36Z</time>
      </trkpt>
      <trkpt lat="59.901552" lon="17.5498098">
        <ele>5.42456</ele>
        <time>2013-05-26T12:06:37Z</time>
      </trkpt>
      <trkpt lat="59.9015843" lon="17.5498855">
        <ele>5.42456</ele>
        <time>2013-05-26T12:06:38Z</time>
      </trkpt>
      <trkpt lat="59.9016172" lon="17.5499624">
        <ele>5.42456</ele>
        <time>2013-05-26T12:06:39Z</time>
      </trkpt>
      <trkpt lat="59.9016499" lon="17.5500403">
        <ele>5.42456</ele>
        <time>2013-05-26T12:06:40Z</time>
      </trkpt>
      <trkpt lat="59.9016821" lon="17.5501196">
        <ele>5.42456</ele>
        <time>2013-05-26T12:06:41Z</time>
      </trkpt>
      <trkpt lat="59.9017141" lon="17.5502003">
        <ele>5.42456</ele>
        <time>2013-05-26T12:06:42Z</time>
      </trkpt>
      <trkpt lat="59.901747" lon="17.5502787">
        <ele>5.42456</ele>
        <time>2013-05-26T12:06:43Z</time>
      </trkpt>
      <trkpt lat="59.9017805" lon="17.5503553">
        <ele>5.42456</ele>
        <time>2013-05-26T12:06:44Z</time>
      </trkpt>
      <trkpt lat="59.9018131" lon="17.5504336">
        <ele>5.42456</ele>
        <time>2013-05-26T12:06:45Z</time>
      </trkpt>
      <trkpt lat="59.9018463" lon="17.5505122">
        <ele>5.42456</ele>
        <time>2013-05-26T12:06:46Z</time>
      </trkpt>
      <trkpt lat="59.90188" lon="17.5505898">
        <ele>5.42456</ele>
        <time>2013-05-26T12:06:47Z</time>
      </trkpt>
      <trkpt lat="59.9019132" lon="17.550667">
        <ele>5.42456</ele>
        <time>2013-05-26T12:06:48Z</time>
      </trkpt>
      <trkpt lat="59.9019454" lon="17.5507431">
        <ele>5.42456</ele>
        <time>2013-05-26T12:06:49Z</time>
      </trkpt>
      <trkpt lat="59.9019763" lon="17.5508179">
        <ele>5.42456</ele>
        <time>2013-05-26T12:06:50Z</time>
      </trkpt>
      <trkpt lat="59.9020067" lon="17.5508904">
        <ele>5.42456</ele>
        <time>2013-05-26T12:06:51Z</time>
      </trkpt>
      <trkpt lat="59.902037" lon="17.5509604">
        <ele>5.42456</ele>
        <time>2013-05-26T12:06:52Z</time>
      </trkpt>
      <trkpt lat="59.902067" lon="17.5510285">
        <ele>5.42456</ele>
        <time>2013-05-26T12:06:53Z</time>
      </trkpt>
      <trkpt lat="59.9020955" lon="17.5510959">
        <ele>5.42456</ele>
        <time>2013-05-26T12:06:54Z</time>
      </trkpt>
      <trkpt lat="59.9021238" lon="17.5511634">
        <ele>5.90527</ele>
        <time>2013-05-26T12:06:55Z</time>
      </trkpt>
      <trkpt lat="59.9021519" lon="17.5512311">
        <ele>5.90527</ele>
        <time>2013-05-26T12:06:56Z</time>
      </trkpt>
      <trkpt lat="59.90218" lon="17.5512961">
        <ele>5.90527</ele>
        <time>2013-05-26T12:06:57Z</time>
      </trkpt>
      <trkpt lat="59.9022073" lon="17.5513595">
        <ele>5.90527</ele>
        <time>2013-05-26T12:06:58Z</time>
      </trkpt>
      <trkpt lat="59.9022332" lon="17.5514239">
        <ele>5.90527</ele>
        <time>2013-05-26T12:06:59Z</time>
      </trkpt>
      <trkpt lat="59.9022597" lon="17.5514895">
        <ele>5.90527</ele>
        <time>2013-05-26T12:07:00Z</time>
      </trkpt>
      <trkpt lat="59.9022877" lon="17.5515564">
        <ele>5.90527</ele>
        <time>2013-05-26T12:07:01Z</time>
      </trkpt>
      <trkpt lat="59.9023166" lon="17.5516239">
        <ele>5.90527</ele>
        <time>2013-05-26T12:07:02Z</time>
      </trkpt>
      <trkpt lat="59.9023458" lon="17.5516924">
        <ele>5.90527</ele>
        <time>2013-05-26T12:07:03Z</time>
      </trkpt>
      <trkpt lat="59.9023746" lon="17.5517621">
        <ele>5.90527</ele>
        <time>2013-05-26T12:07:04Z</time>
      </trkpt>
      <trkpt lat="59.9024037" lon="17.5518312">
        <ele>5.90527</ele>
        <time>2013-05-26T12:07:05Z</time>
      </trkpt>
      <trkpt lat="59.9024325" lon="17.5519005">
        <ele>5.90527</ele>
        <time>2013-05-26T12:07:06Z</time>
      </trkpt>
      <trkpt lat="59.9024628" lon="17.55197">
        <ele>5.90527</ele>
        <time>2013-05-26T12:07:07Z</time>
      </trkpt>
      <trkpt lat="59.9024928" lon="17.5520404">
        <ele>5.90527</ele>
        <time>2013-05-26T12:07:08Z</time>
      </trkpt>
      <trkpt lat="59.9025222" lon="17.5521118">
        <ele>6.38586</ele>
        <time>2013-05-26T12:07:09Z</time>
      </trkpt>
      <trkpt lat="59.9025514" lon="17.5521826">
        <ele>6.38586</ele>
        <time>2013-05-26T12:07:10Z</time>
      </trkpt>
      <trkpt lat="59.9025809" lon="17.5522543">
        <ele>6.38586</ele>
        <time>2013-05-26T12:07:11Z</time>
      </trkpt>
      <trkpt lat="59.9026114" lon="17.5523273">
        <ele>6.38586</ele>
        <time>2013-05-26T12:07:12Z</time>
      </trkpt>
      <trkpt lat="59.9026423" lon="17.5524012">
        <ele>6.38586</ele>
        <time>2013-05-26T12:07:13Z</time>
      </trkpt>
      <trkpt lat="59.9026731" lon="17.5524753">
        <ele>6.38586</ele>
        <time>2013-05-26T12:07:14Z</time>
      </trkpt>
      <trkpt lat="59.9027038" lon="17.5525491">
        <ele>6.38586</ele>
        <time>2013-05-26T12:07:15Z</time>
      </trkpt>
      <trkpt lat="59.9027347" lon="17.5526221">
        <ele>6.38586</ele>
        <time>2013-05-26T12:07:16Z</time>
      </trkpt>
      <trkpt lat="59.9027643" lon="17.5526952">
        <ele>6.38586</ele>
        <time>2013-05-26T12:07:17Z</time>
      </trkpt>
      <trkpt lat="59.9027937" lon="17.5527682">
        <ele>6.38586</ele>
        <time>2013-05-26T12:07:18Z</time>
      </trkpt>
      <trkpt lat="59.9028233" lon="17.5528391">
        <ele>6.38586</ele>
        <time>2013-05-26T12:07:19Z</time>
      </trkpt>
      <trkpt lat="59.9028524" lon="17.5529094">
        <ele>6.38586</ele>
        <time>2013-05-26T12:07:20Z</time>
      </trkpt>
      <trkpt lat="59.9028818" lon="17.5529809">
        <ele>6.38586</ele>
        <time>2013-05-26T12:07:21Z</time>
      </trkpt>
      <trkpt lat="59.9029106" lon="17.5530536">
        <ele>6.38586</ele>
        <time>2013-05-26T12:07:22Z</time>
      </trkpt>
      <trkpt lat="59.9029409" lon="17.5531264">
        <ele>6.38586</ele>
        <time>2013-05-26T12:07:23Z</time>
      </trkpt>
      <trkpt lat="59.902972" lon="17.5532008">
        <ele>6.38586</ele>
        <time>2013-05-26T12:07:24Z</time>
      </trkpt>
      <trkpt lat="59.9030041" lon="17.5532782">
        <ele>6.38586</ele>
        <time>2013-05-26T12:07:25Z</time>
      </trkpt>
      <trkpt lat="59.9030362" lon="17.5533569">
        <ele>6.38586</ele>
        <time>2013-05-26T12:07:26Z</time>
      </trkpt>
      <trkpt lat="59.9030682" lon="17.5534374">
        <ele>6.38586</ele>
        <time>2013-05-26T12:07:27Z</time>
      </trkpt>
      <trkpt lat="59.9031006" lon="17.5535175">
        <ele>6.38586</ele>
        <time>2013-05-26T12:07:28Z</time>
      </trkpt>
      <trkpt lat="59.9031329" lon="17.5535963">
        <ele>6.38586</ele>
        <time>2013-05-26T12:07:29Z</time>
      </trkpt>
      <trkpt lat="59.9031645" lon="17.5536743">
        <ele>5.90527</ele>
        <time>2013-05-26T12:07:30Z</time>
      </trkpt>
      <trkpt lat="59.9031954" lon="17.5537525">
        <ele>5.90527</ele>
        <time>2013-05-26T12:07:31Z</time>
      </trkpt>
      <trkpt lat="59.903227" lon="17.55383">
        <ele>5.90527</ele>
        <time>2013-05-26T12:07:32Z</time>
      </trkpt>
      <trkpt lat="59.9032584" lon="17.5539068">
        <ele>5.90527</ele>
        <time>2013-05-26T12:07:33Z</time>
      </trkpt>
      <trkpt lat="59.9032896" lon="17.5539837">
        <ele>5.90527</ele>
        <time>2013-05-26T12:07:34Z</time>
      </trkpt>
      <trkpt lat="59.9033211" lon="17.5540601">
        <ele>5.90527</ele>
        <time>2013-05-26T12:07:35Z</time>
      </trkpt>
      <trkpt lat="59.9033528" lon="17.5541366">
        <ele>5.90527</ele>
        <time>2013-05-26T12:07:36Z</time>
      </trkpt>
      <trkpt lat="59.9033833" lon="17.5542137">
        <ele>5.90527</ele>
        <time>2013-05-26T12:07:37Z</time>
      </trkpt>
      <trkpt lat="59.9034147" lon="17.5542917">
        <ele>5.90527</ele>
        <time>2013-05-26T12:07:38Z</time>
      </trkpt>
      <trkpt lat="59.9034466" lon="17.5543715">
        <ele>5.90527</ele>
        <time>2013-05-26T12:07:39Z</time>
      </trkpt>
      <trkpt lat="59.9034786" lon="17.5544516">
        <ele>5.42456</ele>
        <time>2013-05-26T12:07:40Z</time>
      </trkpt>
      <trkpt lat="59.9035115" lon="17.5545321">
        <ele>5.42456</ele>
        <time>2013-05-26T12:07:41Z</time>
      </trkpt>
      <trkpt lat="59.9035444" lon="17.5546149">
        <ele>5.42456</ele>
        <time>2013-05-26T12:07:42Z</time>
      </trkpt>
      <trkpt lat="59.9035778" lon="17.5546978">
        <ele>5.42456</ele>
        <time>2013-05-26T12:07:43Z</time>
      </trkpt>
      <trkpt lat="59.9036117" lon="17.5547795">
        <ele>5.42456</ele>
        <time>2013-05-26T12:07:44Z</time>
      </trkpt>
      <trkpt lat="59.9036449" lon="17.5548615">
        <ele>5.42456</ele>
        <time>2013-05-26T12:07:45Z</time>
      </trkpt>
      <trkpt lat="59.903678" lon="17.5549439">
        <ele>5.42456</ele>
        <time>2013-05-26T12:07:46Z</time>
      </trkpt>
      <trkpt lat="59.9037118" lon="17.5550242">
        <ele>5.42456</ele>
        <time>2013-05-26T12:07:47Z</time>
      </trkpt>
      <trkpt lat="59.9037459" lon="17.5551039">
        <ele>5.42456</ele>
        <time>2013-05-26T12:07:48Z</time>
      </trkpt>
      <trkpt lat="59.9037789" lon="17.5551832">
        <ele>5.42456</ele>
        <time>2013-05-26T12:07:49Z</time>
      </trkpt>
      <trkpt lat="59.9038122" lon="17.5552623">
        <ele>5.42456</ele>
        <time>2013-05-26T12:07:50Z</time>
      </trkpt>
      <trkpt lat="59.9038459" lon="17.5553407">
        <ele>5.42456</ele>
        <time>2013-05-26T12:07:51Z</time>
      </trkpt>
      <trkpt lat="59.9038793" lon="17.5554183">
        <ele>5.42456</ele>
        <time>2013-05-26T12:07:52Z</time>
      </trkpt>
      <trkpt lat="59.9039137" lon="17.5554942">
        <ele>5.42456</ele>
        <time>2013-05-26T12:07:53Z</time>
      </trkpt>
      <trkpt lat="59.9039489" lon="17.5555693">
        <ele>5.42456</ele>
        <time>2013-05-26T12:07:54Z</time>
      </trkpt>
      <trkpt lat="59.9039836" lon="17.555645">
        <ele>5.90527</ele>
        <time>2013-05-26T12:07:55Z</time>
      </trkpt>
      <trkpt lat="59.9040182" lon="17.5557209">
        <ele>5.90527</ele>
        <time>2013-05-26T12:07:56Z</time>
      </trkpt>
      <trkpt lat="59.9040531" lon="17.5557954">
        <ele>5.90527</ele>
        <time>2013-05-26T12:07:57Z</time>
      </trkpt>
      <trkpt lat="59.9040887" lon="17.5558679">
        <ele>5.90527</ele>
        <time>2013-05-26T12:07:58Z</time>
      </trkpt>
      <trkpt lat="59.9041243" lon="17.5559405">
        <ele>5.90527</ele>
        <time>2013-05-26T12:07:59Z</time>
      </trkpt>
      <trkpt lat="59.9041608" lon="17.5560124">
        <ele>5.90527</ele>
        <time>2013-05-26T12:08:00Z</time>
      </trkpt>
      <trkpt lat="59.9041993" lon="17.5560833">
        <ele>5.90527</ele>
        <time>2013-05-26T12:08:01Z</time>
      </trkpt>
      <trkpt lat="59.904238" lon="17.556156">
        <ele>6.38586</ele>
        <time>2013-05-26T12:08:02Z</time>
      </trkpt>
      <trkpt lat="59.9042785" lon="17.5562285">
        <ele>6.38586</ele>
        <time>2013-05-26T12:08:03Z</time>
      </trkpt>
      <trkpt lat="59.9043203" lon="17.5562993">
        <ele>6.86646</ele>
        <time>2013-05-26T12:08:04Z</time>
      </trkpt>
      <trkpt lat="59.9043611" lon="17.5563713">
        <ele>6.86646</ele>
        <time>2013-05-26T12:08:05Z</time>
      </trkpt>
      <trkpt lat="59.904403" lon="17.5564439">
        <ele>6.86646</ele>
        <time>2013-05-26T12:08:06Z</time>
      </trkpt>
      <trkpt lat="59.9044438" lon="17.5565181">
        <ele>7.34717</ele>
        <time>2013-05-26T12:08:07Z</time>
      </trkpt>
      <trkpt lat="59.9044855" lon="17.5565943">
        <ele>7.34717</ele>
        <time>2013-05-26T12:08:08Z</time>
      </trkpt>
      <trkpt lat="59.9045272" lon="17.5566696">
        <ele>7.34717</ele>
        <time>2013-05-26T12:08:09Z</time>
      </trkpt>
      <trkpt lat="59.9045685" lon="17.556745">
        <ele>7.34717</ele>
        <time>2013-05-26T12:08:10Z</time>
      </trkpt>
      <trkpt lat="59.9046105" lon="17.5568209">
        <ele>7.34717</ele>
        <time>2013-05-26T12:08:11Z</time>
      </trkpt>
      <trkpt lat="59.9046524" lon="17.5568965">
        <ele>7.34717</ele>
        <time>2013-05-26T12:08:12Z</time>
      </trkpt>
      <trkpt lat="59.9046944" lon="17.5569711">
        <ele>7.34717</ele>
        <time>2013-05-26T12:08:13Z</time>
      </trkpt>
      <trkpt lat="59.9047362" lon="17.5570441">
        <ele>7.34717</ele>
        <time>2013-05-26T12:08:14Z</time>
      </trkpt>
      <trkpt lat="59.9047778" lon="17.5571174">
        <ele>7.34717</ele>
        <time>2013-05-26T12:08:15Z</time>
      </trkpt>
      <trkpt lat="59.9048201" lon="17.557192">
        <ele>7.34717</ele>
        <time>2013-05-26T12:08:16Z</time>
      </trkpt>
      <trkpt lat="59.9048626" lon="17.5572675">
        <ele>7.34717</ele>
        <time>2013-05-26T12:08:17Z</time>
      </trkpt>
      <trkpt lat="59.9049046" lon="17.5573422">
        <ele>7.34717</ele>
        <time>2013-05-26T12:08:18Z</time>
      </trkpt>
      <trkpt lat="59.9049459" lon="17.5574148">
        <ele>7.34717</ele>
        <time>2013-05-26T12:08:19Z</time>
      </trkpt>
      <trkpt lat="59.9049864" lon="17.5574857">
        <ele>7.34717</ele>
        <time>2013-05-26T12:08:20Z</time>
      </trkpt>
      <trkpt lat="59.9050274" lon="17.5575575">
        <ele>7.82788</ele>
        <time>2013-05-26T12:08:21Z</time>
      </trkpt>
      <trkpt lat="59.9050714" lon="17.5576334">
        <ele>7.82788</ele>
        <time>2013-05-26T12:08:22Z</time>
      </trkpt>
      <trkpt lat="59.9051169" lon="17.5577131">
        <ele>7.82788</ele>
        <time>2013-05-26T12:08:23Z</time>
      </trkpt>
      <trkpt lat="59.9051631" lon="17.5577939">
        <ele>7.82788</ele>
        <time>2013-05-26T12:08:24Z</time>
      </trkpt>
      <trkpt lat="59.9052108" lon="17.5578753">
        <ele>8.30859</ele>
        <time>2013-05-26T12:08:25Z</time>
      </trkpt>
      <trkpt lat="59.905259" lon="17.5579602">
        <ele>7.82788</ele>
        <time>2013-05-26T12:08:26Z</time>
      </trkpt>
      <trkpt lat="59.9053097" lon="17.5580489">
        <ele>8.30859</ele>
        <time>2013-05-26T12:08:27Z</time>
      </trkpt>
      <trkpt lat="59.9053609" lon="17.5581387">
        <ele>8.30859</ele>
        <time>2013-05-26T12:08:28Z</time>
      </trkpt>
      <trkpt lat="59.9054138" lon="17.5582289">
        <ele>8.78918</ele>
        <time>2013-05-26T12:08:29Z</time>
      </trkpt>
      <trkpt lat="59.9054652" lon="17.5583223">
        <ele>8.78918</ele>
        <time>2013-05-26T12:08:30Z</time>
      </trkpt>
      <trkpt lat="59.9055181" lon="17.5584196">
        <ele>9.2699</ele>
        <time>2013-05-26T12:08:31Z</time>
      </trkpt>
      <trkpt lat="59.905577" lon="17.5585169">
        <ele>9.75061</ele>
        <time>2013-05-26T12:08:32Z</time>
      </trkpt>
      <trkpt lat="59.9056346" lon="17.5586155">
        <ele>9.75061</ele>
        <time>2013-05-26T12:08:33Z</time>
      </trkpt>
      <trkpt lat="59.9056932" lon="17.5587166">
        <ele>9.75061</ele>
        <time>2013-05-26T12:08:34Z</time>
      </trkpt>
      <trkpt lat="59.9057506" lon="17.5588188">
        <ele>9.2699</ele>
        <time>2013-05-26T12:08:35Z</time>
      </trkpt>
      <trkpt lat="59.9058077" lon="17.5589195">
        <ele>9.2699</ele>
        <time>2013-05-26T12:08:36Z</time>
      </trkpt>
      <trkpt lat="59.9058633" lon="17.5590159">
        <ele>9.2699</ele>
        <time>2013-05-26T12:08:37Z</time>
      </trkpt>
      <trkpt lat="59.9059161" lon="17.5591082">
        <ele>9.2699</ele>
        <time>2013-05-26T12:08:38Z</time>
      </trkpt>
      <trkpt lat="59.9059671" lon="17.5591978">
        <ele>8.78918</ele>
        <time>2013-05-26T12:08:39Z</time>
      </trkpt>
      <trkpt lat="59.9060172" lon="17.5592841">
        <ele>8.78918</ele>
        <time>2013-05-26T12:08:40Z</time>
      </trkpt>
      <trkpt lat="59.9060664" lon="17.5593677">
        <ele>8.78918</ele>
        <time>2013-05-26T12:08:41Z</time>
      </trkpt>
      <trkpt lat="59.9061142" lon="17.5594505">
        <ele>8.78918</ele>
        <time>2013-05-26T12:08:42Z</time>
      </trkpt>
      <trkpt lat="59.9061598" lon="17.5595337">
        <ele>8.78918</ele>
        <time>2013-05-26T12:08:43Z</time>
      </trkpt>
      <trkpt lat="59.9062039" lon="17.5596156">
        <ele>8.30859</ele>
        <time>2013-05-26T12:08:44Z</time>
      </trkpt>
      <trkpt lat="59.9062485" lon="17.559695">
        <ele>8.30859</ele>
        <time>2013-05-26T12:08:45Z</time>
      </trkpt>
      <trkpt lat="59.9062943" lon="17.5597732">
        <ele>8.30859</ele>
        <time>2013-05-26T12:08:46Z</time>
      </trkpt>
      <trkpt lat="59.9063373" lon="17.5598466">
        <ele>8.30859</ele>
        <time>2013-05-26T12:08:47Z</time>
      </trkpt>
      <trkpt lat="59.9063779" lon="17.5599182">
        <ele>7.82788</ele>
        <time>2013-05-26T12:08:48Z</time>
      </trkpt>
      <trkpt lat="59.9064162" lon="17.5599898">
        <ele>7.82788</ele>
        <time>2013-05-26T12:08:49Z</time>
      </trkpt>
      <trkpt lat="59.9064546" lon="17.5600577">
        <ele>7.82788</ele>
        <time>2013-05-26T12:08:50Z</time>
      </trkpt>
      <trkpt lat="59.9064928" lon="17.5601256">
        <ele>7.82788</ele>
        <time>2013-05-26T12:08:51Z</time>
      </trkpt>
      <trkpt lat="59.9065292" lon="17.5601919">
        <ele>7.82788</ele>
        <time>2013-05-26T12:08:52Z</time>
      </trkpt>
      <trkpt lat="59.906565" lon="17.5602596">
        <ele>7.34717</ele>
        <time>2013-05-26T12:08:53Z</time>
      </trkpt>
      <trkpt lat="59.9066017" lon="17.5603232">
        <ele>7.34717</ele>
        <time>2013-05-26T12:08:54Z</time>
      </trkpt>
      <trkpt lat="59.9066385" lon="17.5603891">
        <ele>7.34717</ele>
        <time>2013-05-26T12:08:55Z</time>
      </trkpt>
      <trkpt lat="59.9066755" lon="17.5604565">
        <ele>7.34717</ele>
        <time>2013-05-26T12:08:56Z</time>
      </trkpt>
      <trkpt lat="59.9067115" lon="17.5605229">
        <ele>6.86646</ele>
        <time>2013-05-26T12:08:57Z</time>
      </trkpt>
      <trkpt lat="59.906747" lon="17.560592">
        <ele>6.86646</ele>
        <time>2013-05-26T12:08:58Z</time>
      </trkpt>
      <trkpt lat="59.9067831" lon="17.56066">
        <ele>6.86646</ele>
        <time>2013-05-26T12:08:59Z</time>
      </trkpt>
      <trkpt lat="59.9068194" lon="17.5607278">
        <ele>6.86646</ele>
        <time>2013-05-26T12:09:00Z</time>
      </trkpt>
      <trkpt lat="59.906855" lon="17.5607974">
        <ele>6.38586</ele>
        <time>2013-05-26T12:09:01Z</time>
      </trkpt>
      <trkpt lat="59.9068905" lon="17.5608665">
        <ele>6.38586</ele>
        <time>2013-05-26T12:09:02Z</time>
      </trkpt>
      <trkpt lat="59.9069254" lon="17.5609357">
        <ele>6.38586</ele>
        <time>2013-05-26T12:09:03Z</time>
      </trkpt>
      <trkpt lat="59.9069608" lon="17.5610061">
        <ele>6.38586</ele>
        <time>2013-05-26T12:09:04Z</time>
      </trkpt>
      <trkpt lat="59.9069978" lon="17.561077">
        <ele>6.38586</ele>
        <time>2013-05-26T12:09:05Z</time>
      </trkpt>
      <trkpt lat="59.907035" lon="17.5611479">
        <ele>6.38586</ele>
        <time>2013-05-26T12:09:06Z</time>
      </trkpt>
      <trkpt lat="59.9070715" lon="17.5612209">
        <ele>5.90527</ele>
        <time>2013-05-26T12:09:07Z</time>
      </trkpt>
      <trkpt lat="59.9071088" lon="17.5612957">
        <ele>5.90527</ele>
        <time>2013-05-26T12:09:08Z</time>
      </trkpt>
      <trkpt lat="59.9071461" lon="17.5613719">
        <ele>5.90527</ele>
        <time>2013-05-26T12:09:09Z</time>
      </trkpt>
      <trkpt lat="59.9071842" lon="17.5614484">
        <ele>5.90527</ele>
        <time>2013-05-26T12:09:10Z</time>
      </trkpt>
      <trkpt lat="59.9072232" lon="17.5615252">
        <ele>5.90527</ele>
        <time>2013-05-26T12:09:11Z</time>
      </trkpt>
      <trkpt lat="59.9072617" lon="17.5616029">
        <ele>5.90527</ele>
        <time>2013-05-26T12:09:12Z</time>
      </trkpt>
      <trkpt lat="59.907299" lon="17.5616822">
        <ele>5.90527</ele>
        <time>2013-05-26T12:09:13Z</time>
      </trkpt>
      <trkpt lat="59.9073365" lon="17.5617612">
        <ele>5.42456</ele>
        <time>2013-05-26T12:09:14Z</time>
      </trkpt>
      <trkpt lat="59.9073739" lon="17.5618394">
        <ele>5.42456</ele>
        <time>2013-05-26T12:09:15Z</time>
      </trkpt>
      <trkpt lat="59.9074106" lon="17.5619193">
        <ele>5.42456</ele>
        <time>2013-05-26T12:09:16Z</time>
      </trkpt>
      <trkpt lat="59.9074476" lon="17.5620001">
        <ele>5.42456</ele>
        <time>2013-05-26T12:09:17Z</time>
      </trkpt>
      <trkpt lat="59.9074863" lon="17.56208">
        <ele>5.42456</ele>
        <time>2013-05-26T12:09:18Z</time>
      </trkpt>
      <trkpt lat="59.9075256" lon="17.5621608">
        <ele>5.42456</ele>
        <time>2013-05-26T12:09:19Z</time>
      </trkpt>
      <trkpt lat="59.907564" lon="17.562244">
        <ele>4.94385</ele>
        <time>2013-05-26T12:09:20Z</time>
      </trkpt>
      <trkpt lat="59.9076025" lon="17.5623291">
        <ele>4.94385</ele>
        <time>2013-05-26T12:09:21Z</time>
      </trkpt>
      <trkpt lat="59.9076427" lon="17.5624135">
        <ele>4.94385</ele>
        <time>2013-05-26T12:09:22Z</time>
      </trkpt>
      <trkpt lat="59.9076821" lon="17.5624977">
        <ele>4.94385</ele>
        <time>2013-05-26T12:09:23Z</time>
      </trkpt>
      <trkpt lat="59.9077215" lon="17.5625825">
        <ele>4.94385</ele>
        <time>2013-05-26T12:09:24Z</time>
      </trkpt>
      <trkpt lat="59.9077614" lon="17.5626667">
        <ele>5.42456</ele>
        <time>2013-05-26T12:09:25Z</time>
      </trkpt>
      <trkpt lat="59.9078014" lon="17.5627496">
        <ele>5.42456</ele>
        <time>2013-05-26T12:09:26Z</time>
      </trkpt>
      <trkpt lat="59.9078408" lon="17.5628314">
        <ele>5.42456</ele>
        <time>2013-05-26T12:09:27Z</time>
      </trkpt>
      <trkpt lat="59.9078792" lon="17.5629123">
        <ele>5.42456</ele>
        <time>2013-05-26T12:09:28Z</time>
      </trkpt>
      <trkpt lat="59.9079167" lon="17.5629921">
        <ele>5.42456</ele>
        <time>2013-05-26T12:09:29Z</time>
      </trkpt>
      <trkpt lat="59.9079542" lon="17.5630704">
        <ele>5.42456</ele>
        <time>2013-05-26T12:09:30Z</time>
      </trkpt>
      <trkpt lat="59.9079918" lon="17.5631483">
        <ele>5.42456</ele>
        <time>2013-05-26T12:09:31Z</time>
      </trkpt>
      <trkpt lat="59.9080286" lon="17.5632269">
        <ele>5.42456</ele>
        <time>2013-05-26T12:09:32Z</time>
      </trkpt>
      <trkpt lat="59.9080654" lon="17.5633049">
        <ele>5.42456</ele>
        <time>2013-05-26T12:09:33Z</time>
      </trkpt>
      <trkpt lat="59.9081028" lon="17.5633817">
        <ele>5.42456</ele>
        <time>2013-05-26T12:09:34Z</time>
      </trkpt>
      <trkpt lat="59.9081406" lon="17.5634595">
        <ele>5.42456</ele>
        <time>2013-05-26T12:09:35Z</time>
      </trkpt>
      <trkpt lat="59.908178" lon="17.5635387">
        <ele>5.42456</ele>
        <time>2013-05-26T12:09:36Z</time>
      </trkpt>
      <trkpt lat="59.9082156" lon="17.5636197">
        <ele>5.42456</ele>
        <time>2013-05-26T12:09:37Z</time>
      </trkpt>
      <trkpt lat="59.9082545" lon="17.5637019">
        <ele>5.42456</ele>
        <time>2013-05-26T12:09:38Z</time>
      </trkpt>
      <trkpt lat="59.9082948" lon="17.5637861">
        <ele>5.42456</ele>
        <time>2013-05-26T12:09:39Z</time>
      </trkpt>
      <trkpt lat="59.9083349" lon="17.5638717">
        <ele>5.42456</ele>
        <time>2013-05-26T12:09:40Z</time>
      </trkpt>
      <trkpt lat="59.9083748" lon="17.563957">
        <ele>5.42456</ele>
        <time>2013-05-26T12:09:41Z</time>
      </trkpt>
      <trkpt lat="59.9084142" lon="17.5640421">
        <ele>5.42456</ele>
        <time>2013-05-26T12:09:42Z</time>
      </trkpt>
      <trkpt lat="59.9084531" lon="17.5641271">
        <ele>5.42456</ele>
        <time>2013-05-26T12:09:43Z</time>
      </trkpt>
      <trkpt lat="59.9084924" lon="17.5642115">
        <ele>5.42456</ele>
        <time>2013-05-26T12:09:44Z</time>
      </trkpt>
      <trkpt lat="59.9085314" lon="17.5642943">
        <ele>5.42456</ele>
        <time>2013-05-26T12:09:45Z</time>
      </trkpt>
      <trkpt lat="59.9085696" lon="17.5643742">
        <ele>5.42456</ele>
        <time>2013-05-26T12:09:46Z</time>
      </trkpt>
      <trkpt lat="59.9086059" lon="17.5644528">
        <ele>5.42456</ele>
        <time>2013-05-26T12:09:47Z</time>
      </trkpt>
      <trkpt lat="59.9086414" lon="17.5645291">
        <ele>5.42456</ele>
        <time>2013-05-26T12:09:48Z</time>
      </trkpt>
      <trkpt lat="59.9086767" lon="17.5646026">
        <ele>5.42456</ele>
        <time>2013-05-26T12:09:49Z</time>
      </trkpt>
      <trkpt lat="59.9087114" lon="17.5646756">
        <ele>5.42456</ele>
        <time>2013-05-26T12:09:50Z</time>
      </trkpt>
      <trkpt lat="59.9087451" lon="17.5647482">
        <ele>5.42456</ele>
        <time>2013-05-26T12:09:51Z</time>
      </trkpt>
      <trkpt lat="59.9087785" lon="17.5648191">
        <ele>5.42456</ele>
        <time>2013-05-26T12:09:52Z</time>
      </trkpt>
      <trkpt lat="59.9088119" lon="17.564888">
        <ele>5.42456</ele>
        <time>2013-05-26T12:09:53Z</time>
      </trkpt>
      <trkpt lat="59.9088443" lon="17.564956">
        <ele>5.42456</ele>
        <time>2013-05-26T12:09:54Z</time>
      </trkpt>
      <trkpt lat="59.9088761" lon="17.5650227">
        <ele>5.42456</ele>
        <time>2013-05-26T12:09:55Z</time>
      </trkpt>
      <trkpt lat="59.9089068" lon="17.565088">
        <ele>5.42456</ele>
        <time>2013-05-26T12:09:56Z</time>
      </trkpt>
      <trkpt lat="59.9089372" lon="17.565152">
        <ele>5.42456</ele>
        <time>2013-05-26T12:09:57Z</time>
      </trkpt>
      <trkpt lat="59.9089664" lon="17.565214">
        <ele>5.42456</ele>
        <time>2013-05-26T12:09:58Z</time>
      </trkpt>
      <trkpt lat="59.9089945" lon="17.565273">
        <ele>5.42456</ele>
        <time>2013-05-26T12:09:59Z</time>
      </trkpt>
      <trkpt lat="59.9090213" lon="17.5653295">
        <ele>5.42456</ele>
        <time>2013-05-26T12:10:00Z</time>
      </trkpt>
      <trkpt lat="59.9090471" lon="17.5653853">
        <ele>5.42456</ele>
        <time>2013-05-26T12:10:01Z</time>
      </trkpt>
      <trkpt lat="59.9090726" lon="17.5654405">
        <ele>5.42456</ele>
        <time>2013-05-26T12:10:02Z</time>
      </trkpt>
      <trkpt lat="59.9090995" lon="17.5654923">
        <ele>5.90527</ele>
        <time>2013-05-26T12:10:03Z</time>
      </trkpt>
      <trkpt lat="59.9091276" lon="17.5655412">
        <ele>5.90527</ele>
        <time>2013-05-26T12:10:04Z</time>
      </trkpt>
      <trkpt lat="59.9091539" lon="17.5655945">
        <ele>5.90527</ele>
        <time>2013-05-26T12:10:05Z</time>
      </trkpt>
      <trkpt lat="59.9091783" lon="17.5656512">
        <ele>6.38586</ele>
        <time>2013-05-26T12:10:06Z</time>
      </trkpt>
      <trkpt lat="59.9092035" lon="17.5657068">
        <ele>6.38586</ele>
        <time>2013-05-26T12:10:07Z</time>
      </trkpt>
      <trkpt lat="59.9092302" lon="17.5657633">
        <ele>6.38586</ele>
        <time>2013-05-26T12:10:08Z</time>
      </trkpt>
      <trkpt lat="59.9092584" lon="17.5658226">
        <ele>6.38586</ele>
        <time>2013-05-26T12:10:09Z</time>
      </trkpt>
      <trkpt lat="59.9092871" lon="17.5658834">
        <ele>6.38586</ele>
        <time>2013-05-26T12:10:10Z</time>
      </trkpt>
      <trkpt lat="59.909316" lon="17.5659462">
        <ele>6.38586</ele>
        <time>2013-05-26T12:10:11Z</time>
      </trkpt>
      <trkpt lat="59.9093449" lon="17.566011">
        <ele>6.38586</ele>
        <time>2013-05-26T12:10:12Z</time>
      </trkpt>
      <trkpt lat="59.9093739" lon="17.5660769">
        <ele>5.90527</ele>
        <time>2013-05-26T12:10:13Z</time>
      </trkpt>
      <trkpt lat="59.9094035" lon="17.5661427">
        <ele>5.90527</ele>
        <time>2013-05-26T12:10:14Z</time>
      </trkpt>
      <trkpt lat="59.9094321" lon="17.566209">
        <ele>5.90527</ele>
        <time>2013-05-26T12:10:15Z</time>
      </trkpt>
      <trkpt lat="59.9094609" lon="17.5662758">
        <ele>5.90527</ele>
        <time>2013-05-26T12:10:16Z</time>
      </trkpt>
      <trkpt lat="59.9094901" lon="17.5663422">
        <ele>5.90527</ele>
        <time>2013-05-26T12:10:17Z</time>
      </trkpt>
      <trkpt lat="59.9095201" lon="17.5664094">
        <ele>5.90527</ele>
        <time>2013-05-26T12:10:18Z</time>
      </trkpt>
      <trkpt lat="59.9095513" lon="17.5664771">
        <ele>5.90527</ele>
        <time>2013-05-26T12:10:19Z</time>
      </trkpt>
      <trkpt lat="59.9095818" lon="17.5665482">
        <ele>5.90527</ele>
        <time>2013-05-26T12:10:20Z</time>
      </trkpt>
      <trkpt lat="59.9096125" lon="17.5666213">
        <ele>5.90527</ele>
        <time>2013-05-26T12:10:21Z</time>
      </trkpt>
      <trkpt lat="59.9096441" lon="17.5666933">
        <ele>5.90527</ele>
        <time>2013-05-26T12:10:22Z</time>
      </trkpt>
      <trkpt lat="59.9096759" lon="17.5667643">
        <ele>5.90527</ele>
        <time>2013-05-26T12:10:23Z</time>
      </trkpt>
      <trkpt lat="59.9097071" lon="17.5668368">
        <ele>5.90527</ele>
        <time>2013-05-26T12:10:24Z</time>
      </trkpt>
      <trkpt lat="59.9097372" lon="17.5669114">
        <ele>5.90527</ele>
        <time>2013-05-26T12:10:25Z</time>
      </trkpt>
      <trkpt lat="59.9097671" lon="17.5669881">
        <ele>5.90527</ele>
        <time>2013-05-26T12:10:26Z</time>
      </trkpt>
      <trkpt lat="59.9097978" lon="17.5670662">
        <ele>5.90527</ele>
        <time>2013-05-26T12:10:27Z</time>
      </trkpt>
      <trkpt lat="59.9098294" lon="17.5671433">
        <ele>5.90527</ele>
        <time>2013-05-26T12:10:28Z</time>
      </trkpt>
      <trkpt lat="59.9098608" lon="17.5672207">
        <ele>5.90527</ele>
        <time>2013-05-26T12:10:29Z</time>
      </trkpt>
      <trkpt lat="59.9098919" lon="17.567301">
        <ele>5.90527</ele>
        <time>2013-05-26T12:10:30Z</time>
      </trkpt>
      <trkpt lat="59.9099229" lon="17.5673823">
        <ele>5.90527</ele>
        <time>2013-05-26T12:10:31Z</time>
      </trkpt>
      <trkpt lat="59.9099543" lon="17.5674655">
        <ele>5.90527</ele>
        <time>2013-05-26T12:10:32Z</time>
      </trkpt>
      <trkpt lat="59.9099868" lon="17.5675512">
        <ele>5.90527</ele>
        <time>2013-05-26T12:10:33Z</time>
      </trkpt>
      <trkpt lat="59.9100189" lon="17.5676371">
        <ele>5.90527</ele>
        <time>2013-05-26T12:10:34Z</time>
      </trkpt>
      <trkpt lat="59.9100502" lon="17.5677225">
        <ele>5.90527</ele>
        <time>2013-05-26T12:10:35Z</time>
      </trkpt>
      <trkpt lat="59.9100805" lon="17.5678075">
        <ele>5.90527</ele>
        <time>2013-05-26T12:10:36Z</time>
      </trkpt>
      <trkpt lat="59.9101099" lon="17.5678915">
        <ele>5.90527</ele>
        <time>2013-05-26T12:10:37Z</time>
      </trkpt>
      <trkpt lat="59.9101382" lon="17.5679741">
        <ele>5.90527</ele>
        <time>2013-05-26T12:10:38Z</time>
      </trkpt>
      <trkpt lat="59.9101665" lon="17.5680557">
        <ele>5.90527</ele>
        <time>2013-05-26T12:10:39Z</time>
      </trkpt>
      <trkpt lat="59.9101954" lon="17.5681364">
        <ele>5.90527</ele>
        <time>2013-05-26T12:10:40Z</time>
      </trkpt>
      <trkpt lat="59.9102239" lon="17.5682176">
        <ele>5.90527</ele>
        <time>2013-05-26T12:10:41Z</time>
      </trkpt>
      <trkpt lat="59.9102511" lon="17.568301">
        <ele>5.90527</ele>
        <time>2013-05-26T12:10:42Z</time>
      </trkpt>
      <trkpt lat="59.9102786" lon="17.5683846">
        <ele>5.90527</ele>
        <time>2013-05-26T12:10:43Z</time>
      </trkpt>
      <trkpt lat="59.9103074" lon="17.568469">
        <ele>5.90527</ele>
        <time>2013-05-26T12:10:44Z</time>
      </trkpt>
      <trkpt lat="59.9103358" lon="17.5685546">
        <ele>5.90527</ele>
        <time>2013-05-26T12:10:45Z</time>
      </trkpt>
      <trkpt lat="59.9103638" lon="17.568642">
        <ele>5.90527</ele>
        <time>2013-05-26T12:10:46Z</time>
      </trkpt>
      <trkpt lat="59.9103917" lon="17.5687302">
        <ele>5.90527</ele>
        <time>2013-05-26T12:10:47Z</time>
      </trkpt>
      <trkpt lat="59.9104199" lon="17.5688198">
        <ele>5.42456</ele>
        <time>2013-05-26T12:10:48Z</time>
      </trkpt>
      <trkpt lat="59.9104475" lon="17.5689103">
        <ele>5.42456</ele>
        <time>2013-05-26T12:10:49Z</time>
      </trkpt>
      <trkpt lat="59.9104737" lon="17.5689989">
        <ele>5.42456</ele>
        <time>2013-05-26T12:10:50Z</time>
      </trkpt>
      <trkpt lat="59.9104997" lon="17.5690866">
        <ele>5.42456</ele>
        <time>2013-05-26T12:10:51Z</time>
      </trkpt>
      <trkpt lat="59.9105255" lon="17.569174">
        <ele>5.42456</ele>
        <time>2013-05-26T12:10:52Z</time>
      </trkpt>
      <trkpt lat="59.9105505" lon="17.569261">
        <ele>5.42456</ele>
        <time>2013-05-26T12:10:53Z</time>
      </trkpt>
      <trkpt lat="59.9105752" lon="17.5693487">
        <ele>5.42456</ele>
        <time>2013-05-26T12:10:54Z</time>
      </trkpt>
      <trkpt lat="59.9106013" lon="17.5694389">
        <ele>5.42456</ele>
        <time>2013-05-26T12:10:55Z</time>
      </trkpt>
      <trkpt lat="59.9106271" lon="17.5695299">
        <ele>5.42456</ele>
        <time>2013-05-26T12:10:56Z</time>
      </trkpt>
      <trkpt lat="59.9106526" lon="17.5696226">
        <ele>5.42456</ele>
        <time>2013-05-26T12:10:57Z</time>
      </trkpt>
      <trkpt lat="59.9106772" lon="17.5697177">
        <ele>5.42456</ele>
        <time>2013-05-26T12:10:58Z</time>
      </trkpt>
      <trkpt lat="59.9107022" lon="17.5698143">
        <ele>5.42456</ele>
        <time>2013-05-26T12:10:59Z</time>
      </trkpt>
      <trkpt lat="59.9107276" lon="17.5699106">
        <ele>5.42456</ele>
        <time>2013-05-26T12:11:00Z</time>
      </trkpt>
      <trkpt lat="59.9107544" lon="17.5700086">
        <ele>5.42456</ele>
        <time>2013-05-26T12:11:01Z</time>
      </trkpt>
      <trkpt lat="59.9107794" lon="17.5701086">
        <ele>5.42456</ele>
        <time>2013-05-26T12:11:02Z</time>
      </trkpt>
      <trkpt lat="59.910803" lon="17.57021">
        <ele>5.42456</ele>
        <time>2013-05-26T12:11:03Z</time>
      </trkpt>
      <trkpt lat="59.9108282" lon="17.5703119">
        <ele>5.42456</ele>
        <time>2013-05-26T12:11:04Z</time>
      </trkpt>
      <trkpt lat="59.9108533" lon="17.5704127">
        <ele>5.42456</ele>
        <time>2013-05-26T12:11:05Z</time>
      </trkpt>
      <trkpt lat="59.9108778" lon="17.5705125">
        <ele>5.90527</ele>
        <time>2013-05-26T12:11:06Z</time>
      </trkpt>
      <trkpt lat="59.9109011" lon="17.5706101">
        <ele>5.90527</ele>
        <time>2013-05-26T12:11:07Z</time>
      </trkpt>
      <trkpt lat="59.9109239" lon="17.5707054">
        <ele>5.90527</ele>
        <time>2013-05-26T12:11:08Z</time>
      </trkpt>
      <trkpt lat="59.9109462" lon="17.570799">
        <ele>5.90527</ele>
        <time>2013-05-26T12:11:09Z</time>
      </trkpt>
      <trkpt lat="59.910968" lon="17.5708921">
        <ele>5.90527</ele>
        <time>2013-05-26T12:11:10Z</time>
      </trkpt>
      <trkpt lat="59.9109902" lon="17.5709853">
        <ele>5.90527</ele>
        <time>2013-05-26T12:11:11Z</time>
      </trkpt>
      <trkpt lat="59.9110129" lon="17.5710787">
        <ele>5.42456</ele>
        <time>2013-05-26T12:11:12Z</time>
      </trkpt>
      <trkpt lat="59.9110363" lon="17.5711725">
        <ele>5.42456</ele>
        <time>2013-05-26T12:11:13Z</time>
      </trkpt>
      <trkpt lat="59.9110602" lon="17.5712678">
        <ele>5.90527</ele>
        <time>2013-05-26T12:11:14Z</time>
      </trkpt>
      <trkpt lat="59.9110844" lon="17.571364">
        <ele>5.90527</ele>
        <time>2013-05-26T12:11:15Z</time>
      </trkpt>
      <trkpt lat="59.9111094" lon="17.5714598">
        <ele>5.90527</ele>
        <time>2013-05-26T12:11:16Z</time>
      </trkpt>
      <trkpt lat="59.9111353" lon="17.5715538">
        <ele>5.90527</ele>
        <time>2013-05-26T12:11:17Z</time>
      </trkpt>
      <trkpt lat="59.9111628" lon="17.5716466">
        <ele>5.90527</ele>
        <time>2013-05-26T12:11:18Z</time>
      </trkpt>
      <trkpt lat="59.9111902" lon="17.5717373">
        <ele>5.90527</ele>
        <time>2013-05-26T12:11:19Z</time>
      </trkpt>
      <trkpt lat="59.9112186" lon="17.5718252">
        <ele>5.90527</ele>
        <time>2013-05-26T12:11:20Z</time>
      </trkpt>
      <trkpt lat="59.9112449" lon="17.5719122">
        <ele>4.94385</ele>
        <time>2013-05-26T12:11:21Z</time>
      </trkpt>
      <trkpt lat="59.9112721" lon="17.5719977">
        <ele>4.46326</ele>
        <time>2013-05-26T12:11:22Z</time>
      </trkpt>
      <trkpt lat="59.9113017" lon="17.5720836">
        <ele>3.98267</ele>
        <time>2013-05-26T12:11:23Z</time>
      </trkpt>
      <trkpt lat="59.9113335" lon="17.5721672">
        <ele>3.50195</ele>
        <time>2013-05-26T12:11:24Z</time>
      </trkpt>
      <trkpt lat="59.9113666" lon="17.5722499">
        <ele>3.02124</ele>
        <time>2013-05-26T12:11:25Z</time>
      </trkpt>
      <trkpt lat="59.9114019" lon="17.5723314">
        <ele>3.02124</ele>
        <time>2013-05-26T12:11:26Z</time>
      </trkpt>
      <trkpt lat="59.9114379" lon="17.5724115">
        <ele>2.54065</ele>
        <time>2013-05-26T12:11:27Z</time>
      </trkpt>
      <trkpt lat="59.9114793" lon="17.5724904">
        <ele>2.54065</ele>
        <time>2013-05-26T12:11:28Z</time>
      </trkpt>
      <trkpt lat="59.9115229" lon="17.5725678">
        <ele>2.54065</ele>
        <time>2013-05-26T12:11:29Z</time>
      </trkpt>
      <trkpt lat="59.9115668" lon="17.5726432">
        <ele>2.54065</ele>
        <time>2013-05-26T12:11:30Z</time>
      </trkpt>
      <trkpt lat="59.9116118" lon="17.5727156">
        <ele>2.54065</ele>
        <time>2013-05-26T12:11:31Z</time>
      </trkpt>
      <trkpt lat="59.9116583" lon="17.5727839">
        <ele>2.54065</ele>
        <time>2013-05-26T12:11:32Z</time>
      </trkpt>
      <trkpt lat="59.9117056" lon="17.5728467">
        <ele>2.54065</ele>
        <time>2013-05-26T12:11:33Z</time>
      </trkpt>
      <trkpt lat="59.9117547" lon="17.5729082">
        <ele>2.54065</ele>
        <time>2013-05-26T12:11:34Z</time>
      </trkpt>
      <trkpt lat="59.9118065" lon="17.5729714">
        <ele>2.54065</ele>
        <time>2013-05-26T12:11:35Z</time>
      </trkpt>
      <trkpt lat="59.9118606" lon="17.5730328">
        <ele>2.54065</ele>
        <time>2013-05-26T12:11:36Z</time>
      </trkpt>
      <trkpt lat="59.9119181" lon="17.5730915">
        <ele>3.02124</ele>
        <time>2013-05-26T12:11:37Z</time>
      </trkpt>
      <trkpt lat="59.9119779" lon="17.5731482">
        <ele>3.02124</ele>
        <time>2013-05-26T12:11:38Z</time>
      </trkpt>
      <trkpt lat="59.9120397" lon="17.5732026">
        <ele>3.50195</ele>
        <time>2013-05-26T12:11:39Z</time>
      </trkpt>
      <trkpt lat="59.912106" lon="17.573257">
        <ele>3.50195</ele>
        <time>2013-05-26T12:11:40Z</time>
      </trkpt>
      <trkpt lat="59.9121774" lon="17.5733086">
        <ele>3.98267</ele>
        <time>2013-05-26T12:11:41Z</time>
      </trkpt>
      <trkpt lat="59.9122515" lon="17.5733528">
        <ele>3.98267</ele>
        <time>2013-05-26T12:11:42Z</time>
      </trkpt>
      <trkpt lat="59.9123272" lon="17.5733911">
        <ele>4.46326</ele>
        <time>2013-05-26T12:11:43Z</time>
      </trkpt>
      <trkpt lat="59.9124035" lon="17.5734254">
        <ele>3.98267</ele>
        <time>2013-05-26T12:11:44Z</time>
      </trkpt>
      <trkpt lat="59.9124828" lon="17.5734461">
        <ele>4.46326</ele>
        <time>2013-05-26T12:11:45Z</time>
      </trkpt>
      <trkpt lat="59.9125619" lon="17.5734609">
        <ele>4.46326</ele>
        <time>2013-05-26T12:11:46Z</time>
      </trkpt>
      <trkpt lat="59.9126447" lon="17.5734707">
        <ele>4.46326</ele>
        <time>2013-05-26T12:11:47Z</time>
      </trkpt>
      <trkpt lat="59.9127275" lon="17.5734797">
        <ele>4.94385</ele>
        <time>2013-05-26T12:11:48Z</time>
      </trkpt>
      <trkpt lat="59.9128332" lon="17.5734954">
        <ele>8.30859</ele>
        <time>2013-05-26T12:11:49Z</time>
      </trkpt>
      <trkpt lat="59.9129239" lon="17.5735096">
        <ele>9.75061</ele>
        <time>2013-05-26T12:11:50Z</time>
      </trkpt>
      <trkpt lat="59.9130109" lon="17.5735248">
        <ele>11.6732</ele>
        <time>2013-05-26T12:11:51Z</time>
      </trkpt>
      <trkpt lat="59.9130942" lon="17.573537">
        <ele>13.1151</ele>
        <time>2013-05-26T12:11:52Z</time>
      </trkpt>
      <trkpt lat="59.9131706" lon="17.5735466">
        <ele>14.557</ele>
        <time>2013-05-26T12:11:53Z</time>
      </trkpt>
      <trkpt lat="59.9132441" lon="17.573556">
        <ele>15.0377</ele>
        <time>2013-05-26T12:11:54Z</time>
      </trkpt>
      <trkpt lat="59.9133145" lon="17.5735631">
        <ele>15.999</ele>
        <time>2013-05-26T12:11:55Z</time>
      </trkpt>
      <trkpt lat="59.9133784" lon="17.5735599">
        <ele>16.4797</ele>
        <time>2013-05-26T12:11:56Z</time>
      </trkpt>
      <trkpt lat="59.9134333" lon="17.5735611">
        <ele>15.999</ele>
        <time>2013-05-26T12:11:57Z</time>
      </trkpt>
      <trkpt lat="59.9134793" lon="17.5735682">
        <ele>15.999</ele>
        <time>2013-05-26T12:11:58Z</time>
      </trkpt>
      <trkpt lat="59.9135114" lon="17.5735881">
        <ele>15.5184</ele>
        <time>2013-05-26T12:11:59Z</time>
      </trkpt>
      <trkpt lat="59.9135253" lon="17.57363">
        <ele>15.999</ele>
        <time>2013-05-26T12:12:00Z</time>
      </trkpt>
      <trkpt lat="59.9135297" lon="17.5736802">
        <ele>15.999</ele>
        <time>2013-05-26T12:12:01Z</time>
      </trkpt>
      <trkpt lat="59.9135174" lon="17.5737147">
        <ele>14.557</ele>
        <time>2013-05-26T12:12:02Z</time>
      </trkpt>
      <trkpt lat="59.9135061" lon="17.573738">
        <ele>13.5958</ele>
        <time>2013-05-26T12:12:03Z</time>
      </trkpt>
      <trkpt lat="59.9134977" lon="17.5737683">
        <ele>13.1151</ele>
        <time>2013-05-26T12:12:04Z</time>
      </trkpt>
      <trkpt lat="59.9134942" lon="17.5738071">
        <ele>12.1538</ele>
        <time>2013-05-26T12:12:05Z</time>
      </trkpt>
      <trkpt lat="59.913485" lon="17.5738655">
        <ele>11.1925</ele>
        <time>2013-05-26T12:12:06Z</time>
      </trkpt>
      <trkpt lat="59.9134792" lon="17.5739136">
        <ele>9.75061</ele>
        <time>2013-05-26T12:12:07Z</time>
      </trkpt>
      <trkpt lat="59.9134668" lon="17.5739511">
        <ele>8.78918</ele>
        <time>2013-05-26T12:12:08Z</time>
      </trkpt>
      <trkpt lat="59.9134518" lon="17.5739852">
        <ele>8.78918</ele>
        <time>2013-05-26T12:12:09Z</time>
      </trkpt>
      <trkpt lat="59.9134387" lon="17.5739909">
        <ele>8.30859</ele>
        <time>2013-05-26T12:12:10Z</time>
      </trkpt>
      <trkpt lat="59.9134295" lon="17.5739926">
        <ele>8.78918</ele>
        <time>2013-05-26T12:12:11Z</time>
      </trkpt>
      <trkpt lat="59.9134243" lon="17.5739883">
        <ele>9.2699</ele>
        <time>2013-05-26T12:12:12Z</time>
      </trkpt>
      <trkpt lat="59.9134217" lon="17.573986">
        <ele>9.2699</ele>
        <time>2013-05-26T12:12:13Z</time>
      </trkpt>
      <trkpt lat="59.9134177" lon="17.5739906">
        <ele>9.2699</ele>
        <time>2013-05-26T12:12:14Z</time>
      </trkpt>
      <trkpt lat="59.9134186" lon="17.5739898">
        <ele>9.75061</ele>
        <time>2013-05-26T12:12:15Z</time>
      </trkpt>
      <trkpt lat="59.9134177" lon="17.5739865">
        <ele>9.75061</ele>
        <time>2013-05-26T12:12:16Z</time>
      </trkpt>
      <trkpt lat="59.9135509" lon="17.5735486">
        <ele>17.9218</ele>
        <time>2013-05-26T12:37:59Z</time>
      </trkpt>
      <trkpt lat="59.9135623" lon="17.5735392">
        <ele>17.4412</ele>
        <time>2013-05-26T12:38:00Z</time>
      </trkpt>
      <trkpt lat="59.9135777" lon="17.5735326">
        <ele>16.9604</ele>
        <time>2013-05-26T12:38:01Z</time>
      </trkpt>
      <trkpt lat="59.9135957" lon="17.5735352">
        <ele>17.4412</ele>
        <time>2013-05-26T12:38:02Z</time>
      </trkpt>
      <trkpt lat="59.9136138" lon="17.5735378">
        <ele>17.9218</ele>
        <time>2013-05-26T12:38:03Z</time>
      </trkpt>
      <trkpt lat="59.91363" lon="17.5735419">
        <ele>16.9604</ele>
        <time>2013-05-26T12:38:04Z</time>
      </trkpt>
      <trkpt lat="59.9136461" lon="17.5735429">
        <ele>15.999</ele>
        <time>2013-05-26T12:38:05Z</time>
      </trkpt>
      <trkpt lat="59.9136631" lon="17.5735448">
        <ele>15.5184</ele>
        <time>2013-05-26T12:38:06Z</time>
      </trkpt>
      <trkpt lat="59.9136827" lon="17.5735445">
        <ele>15.0377</ele>
        <time>2013-05-26T12:38:07Z</time>
      </trkpt>
      <trkpt lat="59.9137037" lon="17.5735436">
        <ele>14.557</ele>
        <time>2013-05-26T12:38:08Z</time>
      </trkpt>
      <trkpt lat="59.9137274" lon="17.5735475">
        <ele>14.0764</ele>
        <time>2013-05-26T12:38:09Z</time>
      </trkpt>
      <trkpt lat="59.9137506" lon="17.5735594">
        <ele>13.1151</ele>
        <time>2013-05-26T12:38:10Z</time>
      </trkpt>
      <trkpt lat="59.9137708" lon="17.5735769">
        <ele>13.1151</ele>
        <time>2013-05-26T12:38:11Z</time>
      </trkpt>
      <trkpt lat="59.9137902" lon="17.5736025">
        <ele>13.1151</ele>
        <time>2013-05-26T12:38:12Z</time>
      </trkpt>
      <trkpt lat="59.9138072" lon="17.5736337">
        <ele>13.1151</ele>
        <time>2013-05-26T12:38:13Z</time>
      </trkpt>
      <trkpt lat="59.9138205" lon="17.5736697">
        <ele>12.6344</ele>
        <time>2013-05-26T12:38:14Z</time>
      </trkpt>
      <trkpt lat="59.913828" lon="17.5737078">
        <ele>12.6344</ele>
        <time>2013-05-26T12:38:15Z</time>
      </trkpt>
      <trkpt lat="59.913833" lon="17.5737458">
        <ele>12.1538</ele>
        <time>2013-05-26T12:38:16Z</time>
      </trkpt>
      <trkpt lat="59.9138366" lon="17.5737855">
        <ele>12.1538</ele>
        <time>2013-05-26T12:38:17Z</time>
      </trkpt>
      <trkpt lat="59.913837" lon="17.5738376">
        <ele>12.1538</ele>
        <time>2013-05-26T12:38:18Z</time>
      </trkpt>
      <trkpt lat="59.9138352" lon="17.5739051">
        <ele>11.6732</ele>
        <time>2013-05-26T12:38:19Z</time>
      </trkpt>
      <trkpt lat="59.9138296" lon="17.5739766">
        <ele>12.1538</ele>
        <time>2013-05-26T12:38:20Z</time>
      </trkpt>
      <trkpt lat="59.9138199" lon="17.5740521">
        <ele>11.1925</ele>
        <time>2013-05-26T12:38:21Z</time>
      </trkpt>
      <trkpt lat="59.9138082" lon="17.574125">
        <ele>10.7118</ele>
        <time>2013-05-26T12:38:22Z</time>
      </trkpt>
      <trkpt lat="59.9137973" lon="17.574191">
        <ele>10.2312</ele>
        <time>2013-05-26T12:38:23Z</time>
      </trkpt>
      <trkpt lat="59.9137751" lon="17.5742874">
        <ele>9.2699</ele>
        <time>2013-05-26T12:38:24Z</time>
      </trkpt>
      <trkpt lat="59.9137503" lon="17.5743573">
        <ele>8.30859</ele>
        <time>2013-05-26T12:38:25Z</time>
      </trkpt>
      <trkpt lat="59.9137226" lon="17.5744312">
        <ele>8.30859</ele>
        <time>2013-05-26T12:38:26Z</time>
      </trkpt>
      <trkpt lat="59.913699" lon="17.5745019">
        <ele>6.86646</ele>
        <time>2013-05-26T12:38:27Z</time>
      </trkpt>
      <trkpt lat="59.9136773" lon="17.5745627">
        <ele>6.86646</ele>
        <time>2013-05-26T12:38:28Z</time>
      </trkpt>
      <trkpt lat="59.9136495" lon="17.5746241">
        <ele>5.90527</ele>
        <time>2013-05-26T12:38:29Z</time>
      </trkpt>
      <trkpt lat="59.9136169" lon="17.574694">
        <ele>4.94385</ele>
        <time>2013-05-26T12:38:30Z</time>
      </trkpt>
      <trkpt lat="59.913584" lon="17.5747673">
        <ele>3.98267</ele>
        <time>2013-05-26T12:38:31Z</time>
      </trkpt>
      <trkpt lat="59.9135429" lon="17.5748379">
        <ele>3.50195</ele>
        <time>2013-05-26T12:38:32Z</time>
      </trkpt>
      <trkpt lat="59.9134988" lon="17.5749068">
        <ele>2.54065</ele>
        <time>2013-05-26T12:38:33Z</time>
      </trkpt>
      <trkpt lat="59.9134553" lon="17.5749809">
        <ele>2.06006</ele>
        <time>2013-05-26T12:38:34Z</time>
      </trkpt>
      <trkpt lat="59.9134233" lon="17.5750472">
        <ele>1.57935</ele>
        <time>2013-05-26T12:38:35Z</time>
      </trkpt>
      <trkpt lat="59.9133928" lon="17.5751131">
        <ele>2.06006</ele>
        <time>2013-05-26T12:38:36Z</time>
      </trkpt>
      <trkpt lat="59.9133643" lon="17.5751783">
        <ele>2.06006</ele>
        <time>2013-05-26T12:38:37Z</time>
      </trkpt>
      <trkpt lat="59.9133377" lon="17.575247">
        <ele>2.54065</ele>
        <time>2013-05-26T12:38:38Z</time>
      </trkpt>
      <trkpt lat="59.9133159" lon="17.5753205">
        <ele>3.02124</ele>
        <time>2013-05-26T12:38:39Z</time>
      </trkpt>
      <trkpt lat="59.9132964" lon="17.5753949">
        <ele>3.50195</ele>
        <time>2013-05-26T12:38:40Z</time>
      </trkpt>
      <trkpt lat="59.9132819" lon="17.5754751">
        <ele>3.98267</ele>
        <time>2013-05-26T12:38:41Z</time>
      </trkpt>
      <trkpt lat="59.9132711" lon="17.5755623">
        <ele>3.98267</ele>
        <time>2013-05-26T12:38:42Z</time>
      </trkpt>
      <trkpt lat="59.913269" lon="17.5756486">
        <ele>3.98267</ele>
        <time>2013-05-26T12:38:43Z</time>
      </trkpt>
      <trkpt lat="59.9132735" lon="17.5757329">
        <ele>3.98267</ele>
        <time>2013-05-26T12:38:44Z</time>
      </trkpt>
      <trkpt lat="59.9132812" lon="17.5758274">
        <ele>3.98267</ele>
        <time>2013-05-26T12:38:45Z</time>
      </trkpt>
      <trkpt lat="59.913291" lon="17.575918">
        <ele>3.98267</ele>
        <time>2013-05-26T12:38:46Z</time>
      </trkpt>
      <trkpt lat="59.9133036" lon="17.5760107">
        <ele>3.98267</ele>
        <time>2013-05-26T12:38:47Z</time>
      </trkpt>
      <trkpt lat="59.9133208" lon="17.5760974">
        <ele>3.98267</ele>
        <time>2013-05-26T12:38:48Z</time>
      </trkpt>
      <trkpt lat="59.9133467" lon="17.576178">
        <ele>3.98267</ele>
        <time>2013-05-26T12:38:49Z</time>
      </trkpt>
      <trkpt lat="59.9133747" lon="17.5762453">
        <ele>3.98267</ele>
        <time>2013-05-26T12:38:50Z</time>
      </trkpt>
      <trkpt lat="59.9134055" lon="17.5763231">
        <ele>4.46326</ele>
        <time>2013-05-26T12:38:51Z</time>
      </trkpt>
      <trkpt lat="59.9134306" lon="17.5764003">
        <ele>4.46326</ele>
        <time>2013-05-26T12:38:52Z</time>
      </trkpt>
      <trkpt lat="59.9134539" lon="17.5764779">
        <ele>4.46326</ele>
        <time>2013-05-26T12:38:53Z</time>
      </trkpt>
      <trkpt lat="59.9134772" lon="17.5765561">
        <ele>4.46326</ele>
        <time>2013-05-26T12:38:54Z</time>
      </trkpt>
      <trkpt lat="59.9134996" lon="17.5766373">
        <ele>4.46326</ele>
        <time>2013-05-26T12:38:55Z</time>
      </trkpt>
      <trkpt lat="59.9135198" lon="17.5767164">
        <ele>4.46326</ele>
        <time>2013-05-26T12:38:56Z</time>
      </trkpt>
      <trkpt lat="59.9135361" lon="17.5767989">
        <ele>4.94385</ele>
        <time>2013-05-26T12:38:57Z</time>
      </trkpt>
      <trkpt lat="59.9135502" lon="17.5768906">
        <ele>4.46326</ele>
        <time>2013-05-26T12:38:58Z</time>
      </trkpt>
      <trkpt lat="59.9135656" lon="17.5769836">
        <ele>4.94385</ele>
        <time>2013-05-26T12:38:59Z</time>
      </trkpt>
      <trkpt lat="59.9135781" lon="17.5770737">
        <ele>4.94385</ele>
        <time>2013-05-26T12:39:00Z</time>
      </trkpt>
      <trkpt lat="59.9135846" lon="17.5771655">
        <ele>4.46326</ele>
        <time>2013-05-26T12:39:01Z</time>
      </trkpt>
      <trkpt lat="59.9135881" lon="17.5772558">
        <ele>4.46326</ele>
        <time>2013-05-26T12:39:02Z</time>
      </trkpt>
      <trkpt lat="59.9135899" lon="17.5773467">
        <ele>4.46326</ele>
        <time>2013-05-26T12:39:03Z</time>
      </trkpt>
      <trkpt lat="59.9135896" lon="17.5774394">
        <ele>4.46326</ele>
        <time>2013-05-26T12:39:04Z</time>
      </trkpt>
      <trkpt lat="59.9135849" lon="17.5775317">
        <ele>3.98267</ele>
        <time>2013-05-26T12:39:05Z</time>
      </trkpt>
      <trkpt lat="59.9135777" lon="17.5776228">
        <ele>3.50195</ele>
        <time>2013-05-26T12:39:06Z</time>
      </trkpt>
      <trkpt lat="59.913569" lon="17.5777077">
        <ele>3.02124</ele>
        <time>2013-05-26T12:39:07Z</time>
      </trkpt>
      <trkpt lat="59.9135606" lon="17.5777881">
        <ele>3.02124</ele>
        <time>2013-05-26T12:39:08Z</time>
      </trkpt>
      <trkpt lat="59.913548" lon="17.5778652">
        <ele>3.02124</ele>
        <time>2013-05-26T12:39:09Z</time>
      </trkpt>
      <trkpt lat="59.9135451" lon="17.5779396">
        <ele>4.46326</ele>
        <time>2013-05-26T12:39:10Z</time>
      </trkpt>
      <trkpt lat="59.9135355" lon="17.5780073">
        <ele>4.94385</ele>
        <time>2013-05-26T12:39:11Z</time>
      </trkpt>
      <trkpt lat="59.9135262" lon="17.5780687">
        <ele>5.90527</ele>
        <time>2013-05-26T12:39:12Z</time>
      </trkpt>
      <trkpt lat="59.9135145" lon="17.5781236">
        <ele>5.90527</ele>
        <time>2013-05-26T12:39:13Z</time>
      </trkpt>
      <trkpt lat="59.9135036" lon="17.5781839">
        <ele>6.38586</ele>
        <time>2013-05-26T12:39:14Z</time>
      </trkpt>
      <trkpt lat="59.9134927" lon="17.5782408">
        <ele>6.86646</ele>
        <time>2013-05-26T12:39:15Z</time>
      </trkpt>
      <trkpt lat="59.9134766" lon="17.578288">
        <ele>6.86646</ele>
        <time>2013-05-26T12:39:16Z</time>
      </trkpt>
      <trkpt lat="59.913456" lon="17.578332">
        <ele>6.86646</ele>
        <time>2013-05-26T12:39:17Z</time>
      </trkpt>
      <trkpt lat="59.9134352" lon="17.578375">
        <ele>6.38586</ele>
        <time>2013-05-26T12:39:18Z</time>
      </trkpt>
      <trkpt lat="59.9134135" lon="17.5784178">
        <ele>6.38586</ele>
        <time>2013-05-26T12:39:19Z</time>
      </trkpt>
      <trkpt lat="59.9133921" lon="17.5784604">
        <ele>6.86646</ele>
        <time>2013-05-26T12:39:20Z</time>
      </trkpt>
      <trkpt lat="59.913371" lon="17.5785029">
        <ele>6.86646</ele>
        <time>2013-05-26T12:39:21Z</time>
      </trkpt>
      <trkpt lat="59.9133467" lon="17.5785433">
        <ele>6.86646</ele>
        <time>2013-05-26T12:39:22Z</time>
      </trkpt>
      <trkpt lat="59.9133222" lon="17.578582">
        <ele>6.86646</ele>
        <time>2013-05-26T12:39:23Z</time>
      </trkpt>
      <trkpt lat="59.9132971" lon="17.5786218">
        <ele>6.86646</ele>
        <time>2013-05-26T12:39:24Z</time>
      </trkpt>
      <trkpt lat="59.9132758" lon="17.578664">
        <ele>7.82788</ele>
        <time>2013-05-26T12:39:25Z</time>
      </trkpt>
      <trkpt lat="59.9132529" lon="17.5787059">
        <ele>8.78918</ele>
        <time>2013-05-26T12:39:26Z</time>
      </trkpt>
      <trkpt lat="59.91323" lon="17.5787464">
        <ele>9.2699</ele>
        <time>2013-05-26T12:39:27Z</time>
      </trkpt>
      <trkpt lat="59.9132051" lon="17.5787827">
        <ele>9.75061</ele>
        <time>2013-05-26T12:39:28Z</time>
      </trkpt>
      <trkpt lat="59.9131793" lon="17.5788209">
        <ele>10.2312</ele>
        <time>2013-05-26T12:39:29Z</time>
      </trkpt>
      <trkpt lat="59.913154" lon="17.5788632">
        <ele>10.7118</ele>
        <time>2013-05-26T12:39:30Z</time>
      </trkpt>
      <trkpt lat="59.9131275" lon="17.5789052">
        <ele>10.7118</ele>
        <time>2013-05-26T12:39:31Z</time>
      </trkpt>
      <trkpt lat="59.9130996" lon="17.5789431">
        <ele>11.1925</ele>
        <time>2013-05-26T12:39:32Z</time>
      </trkpt>
      <trkpt lat="59.9130726" lon="17.5789794">
        <ele>11.6732</ele>
        <time>2013-05-26T12:39:33Z</time>
      </trkpt>
      <trkpt lat="59.9130465" lon="17.5790202">
        <ele>11.6732</ele>
        <time>2013-05-26T12:39:34Z</time>
      </trkpt>
      <trkpt lat="59.9130212" lon="17.5790622">
        <ele>12.1538</ele>
        <time>2013-05-26T12:39:35Z</time>
      </trkpt>
      <trkpt lat="59.9129954" lon="17.5791054">
        <ele>12.1538</ele>
        <time>2013-05-26T12:39:36Z</time>
      </trkpt>
      <trkpt lat="59.9129696" lon="17.5791497">
        <ele>12.1538</ele>
        <time>2013-05-26T12:39:37Z</time>
      </trkpt>
      <trkpt lat="59.9129435" lon="17.5791955">
        <ele>12.6344</ele>
        <time>2013-05-26T12:39:38Z</time>
      </trkpt>
      <trkpt lat="59.9129156" lon="17.5792447">
        <ele>12.6344</ele>
        <time>2013-05-26T12:39:39Z</time>
      </trkpt>
      <trkpt lat="59.9128872" lon="17.5792963">
        <ele>12.6344</ele>
        <time>2013-05-26T12:39:40Z</time>
      </trkpt>
      <trkpt lat="59.912859" lon="17.5793518">
        <ele>13.1151</ele>
        <time>2013-05-26T12:39:41Z</time>
      </trkpt>
      <trkpt lat="59.91283" lon="17.5794095">
        <ele>13.1151</ele>
        <time>2013-05-26T12:39:42Z</time>
      </trkpt>
      <trkpt lat="59.9128024" lon="17.5794701">
        <ele>13.1151</ele>
        <time>2013-05-26T12:39:43Z</time>
      </trkpt>
      <trkpt lat="59.9127739" lon="17.5795321">
        <ele>12.6344</ele>
        <time>2013-05-26T12:39:44Z</time>
      </trkpt>
      <trkpt lat="59.912743" lon="17.5795995">
        <ele>12.6344</ele>
        <time>2013-05-26T12:39:45Z</time>
      </trkpt>
      <trkpt lat="59.9127124" lon="17.5796724">
        <ele>12.1538</ele>
        <time>2013-05-26T12:39:46Z</time>
      </trkpt>
      <trkpt lat="59.91268" lon="17.579744">
        <ele>12.1538</ele>
        <time>2013-05-26T12:39:47Z</time>
      </trkpt>
      <trkpt lat="59.9126456" lon="17.5798192">
        <ele>11.6732</ele>
        <time>2013-05-26T12:39:48Z</time>
      </trkpt>
      <trkpt lat="59.9126097" lon="17.5798972">
        <ele>11.1925</ele>
        <time>2013-05-26T12:39:49Z</time>
      </trkpt>
      <trkpt lat="59.9125749" lon="17.5799751">
        <ele>10.7118</ele>
        <time>2013-05-26T12:39:50Z</time>
      </trkpt>
      <trkpt lat="59.9125447" lon="17.5800569">
        <ele>10.7118</ele>
        <time>2013-05-26T12:39:51Z</time>
      </trkpt>
      <trkpt lat="59.9125153" lon="17.5801411">
        <ele>10.7118</ele>
        <time>2013-05-26T12:39:52Z</time>
      </trkpt>
      <trkpt lat="59.9124864" lon="17.5802262">
        <ele>10.7118</ele>
        <time>2013-05-26T12:39:53Z</time>
      </trkpt>
      <trkpt lat="59.9124573" lon="17.5803112">
        <ele>10.7118</ele>
        <time>2013-05-26T12:39:54Z</time>
      </trkpt>
      <trkpt lat="59.9124303" lon="17.5803921">
        <ele>11.1925</ele>
        <time>2013-05-26T12:39:55Z</time>
      </trkpt>
      <trkpt lat="59.9124029" lon="17.5804727">
        <ele>11.1925</ele>
        <time>2013-05-26T12:39:56Z</time>
      </trkpt>
      <trkpt lat="59.9123757" lon="17.5805536">
        <ele>11.1925</ele>
        <time>2013-05-26T12:39:57Z</time>
      </trkpt>
      <trkpt lat="59.912349" lon="17.5806335">
        <ele>11.1925</ele>
        <time>2013-05-26T12:39:58Z</time>
      </trkpt>
      <trkpt lat="59.9123224" lon="17.5807138">
        <ele>11.6732</ele>
        <time>2013-05-26T12:39:59Z</time>
      </trkpt>
      <trkpt lat="59.9122952" lon="17.580794">
        <ele>11.6732</ele>
        <time>2013-05-26T12:40:00Z</time>
      </trkpt>
      <trkpt lat="59.9122676" lon="17.5808757">
        <ele>11.6732</ele>
        <time>2013-05-26T12:40:01Z</time>
      </trkpt>
      <trkpt lat="59.9122386" lon="17.580958">
        <ele>11.6732</ele>
        <time>2013-05-26T12:40:02Z</time>
      </trkpt>
      <trkpt lat="59.9122084" lon="17.581038">
        <ele>11.6732</ele>
        <time>2013-05-26T12:40:03Z</time>
      </trkpt>
      <trkpt lat="59.9121785" lon="17.5811183">
        <ele>12.1538</ele>
        <time>2013-05-26T12:40:04Z</time>
      </trkpt>
      <trkpt lat="59.9121501" lon="17.5812022">
        <ele>12.1538</ele>
        <time>2013-05-26T12:40:05Z</time>
      </trkpt>
      <trkpt lat="59.9121221" lon="17.5812854">
        <ele>12.6344</ele>
        <time>2013-05-26T12:40:06Z</time>
      </trkpt>
      <trkpt lat="59.9120937" lon="17.5813671">
        <ele>12.6344</ele>
        <time>2013-05-26T12:40:07Z</time>
      </trkpt>
      <trkpt lat="59.9120646" lon="17.5814493">
        <ele>12.6344</ele>
        <time>2013-05-26T12:40:08Z</time>
      </trkpt>
      <trkpt lat="59.9120356" lon="17.581529">
        <ele>13.1151</ele>
        <time>2013-05-26T12:40:09Z</time>
      </trkpt>
      <trkpt lat="59.9120071" lon="17.5816089">
        <ele>13.1151</ele>
        <time>2013-05-26T12:40:10Z</time>
      </trkpt>
      <trkpt lat="59.9119791" lon="17.5816897">
        <ele>13.5958</ele>
        <time>2013-05-26T12:40:11Z</time>
      </trkpt>
      <trkpt lat="59.9119518" lon="17.5817715">
        <ele>13.5958</ele>
        <time>2013-05-26T12:40:12Z</time>
      </trkpt>
      <trkpt lat="59.9119236" lon="17.5818508">
        <ele>13.5958</ele>
        <time>2013-05-26T12:40:13Z</time>
      </trkpt>
      <trkpt lat="59.9118943" lon="17.58193">
        <ele>14.0764</ele>
        <time>2013-05-26T12:40:14Z</time>
      </trkpt>
      <trkpt lat="59.9118663" lon="17.5820096">
        <ele>14.0764</ele>
        <time>2013-05-26T12:40:15Z</time>
      </trkpt>
      <trkpt lat="59.9118391" lon="17.582088">
        <ele>14.557</ele>
        <time>2013-05-26T12:40:16Z</time>
      </trkpt>
      <trkpt lat="59.9118126" lon="17.5821658">
        <ele>15.0377</ele>
        <time>2013-05-26T12:40:17Z</time>
      </trkpt>
      <trkpt lat="59.911787" lon="17.5822441">
        <ele>15.0377</ele>
        <time>2013-05-26T12:40:18Z</time>
      </trkpt>
      <trkpt lat="59.911761" lon="17.582324">
        <ele>15.5184</ele>
        <time>2013-05-26T12:40:19Z</time>
      </trkpt>
      <trkpt lat="59.911735" lon="17.5824075">
        <ele>15.5184</ele>
        <time>2013-05-26T12:40:20Z</time>
      </trkpt>
      <trkpt lat="59.9117083" lon="17.5824934">
        <ele>15.999</ele>
        <time>2013-05-26T12:40:21Z</time>
      </trkpt>
      <trkpt lat="59.9116816" lon="17.5825831">
        <ele>15.999</ele>
        <time>2013-05-26T12:40:22Z</time>
      </trkpt>
      <trkpt lat="59.9116542" lon="17.5826768">
        <ele>16.4797</ele>
        <time>2013-05-26T12:40:23Z</time>
      </trkpt>
      <trkpt lat="59.9116248" lon="17.5827712">
        <ele>16.4797</ele>
        <time>2013-05-26T12:40:24Z</time>
      </trkpt>
      <trkpt lat="59.9115943" lon="17.5828669">
        <ele>16.4797</ele>
        <time>2013-05-26T12:40:25Z</time>
      </trkpt>
      <trkpt lat="59.9115637" lon="17.5829674">
        <ele>16.9604</ele>
        <time>2013-05-26T12:40:26Z</time>
      </trkpt>
      <trkpt lat="59.9115337" lon="17.5830693">
        <ele>16.9604</ele>
        <time>2013-05-26T12:40:27Z</time>
      </trkpt>
      <trkpt lat="59.9115026" lon="17.5831722">
        <ele>17.4412</ele>
        <time>2013-05-26T12:40:28Z</time>
      </trkpt>
      <trkpt lat="59.911472" lon="17.5832761">
        <ele>17.9218</ele>
        <time>2013-05-26T12:40:29Z</time>
      </trkpt>
      <trkpt lat="59.9114414" lon="17.5833799">
        <ele>17.9218</ele>
        <time>2013-05-26T12:40:30Z</time>
      </trkpt>
      <trkpt lat="59.9114103" lon="17.5834831">
        <ele>17.9218</ele>
        <time>2013-05-26T12:40:31Z</time>
      </trkpt>
      <trkpt lat="59.9113799" lon="17.5835856">
        <ele>18.4023</ele>
        <time>2013-05-26T12:40:32Z</time>
      </trkpt>
      <trkpt lat="59.9113501" lon="17.5836871">
        <ele>18.4023</ele>
        <time>2013-05-26T12:40:33Z</time>
      </trkpt>
      <trkpt lat="59.91132" lon="17.5837866">
        <ele>18.4023</ele>
        <time>2013-05-26T12:40:34Z</time>
      </trkpt>
      <trkpt lat="59.9112897" lon="17.5838859">
        <ele>18.8831</ele>
        <time>2013-05-26T12:40:35Z</time>
      </trkpt>
      <trkpt lat="59.9112601" lon="17.5839845">
        <ele>18.8831</ele>
        <time>2013-05-26T12:40:36Z</time>
      </trkpt>
      <trkpt lat="59.9112304" lon="17.5840827">
        <ele>18.8831</ele>
        <time>2013-05-26T12:40:37Z</time>
      </trkpt>
      <trkpt lat="59.9112006" lon="17.5841799">
        <ele>18.8831</ele>
        <time>2013-05-26T12:40:38Z</time>
      </trkpt>
      <trkpt lat="59.9111714" lon="17.5842769">
        <ele>18.8831</ele>
        <time>2013-05-26T12:40:39Z</time>
      </trkpt>
      <trkpt lat="59.9111431" lon="17.5843744">
        <ele>19.3638</ele>
        <time>2013-05-26T12:40:40Z</time>
      </trkpt>
      <trkpt lat="59.9111157" lon="17.5844713">
        <ele>19.3638</ele>
        <time>2013-05-26T12:40:41Z</time>
      </trkpt>
      <trkpt lat="59.9110878" lon="17.5845681">
        <ele>19.3638</ele>
        <time>2013-05-26T12:40:42Z</time>
      </trkpt>
      <trkpt lat="59.9110611" lon="17.5846678">
        <ele>19.3638</ele>
        <time>2013-05-26T12:40:43Z</time>
      </trkpt>
      <trkpt lat="59.9110348" lon="17.5847717">
        <ele>19.8444</ele>
        <time>2013-05-26T12:40:44Z</time>
      </trkpt>
      <trkpt lat="59.9110079" lon="17.5848766">
        <ele>19.8444</ele>
        <time>2013-05-26T12:40:45Z</time>
      </trkpt>
      <trkpt lat="59.9109812" lon="17.5849823">
        <ele>20.325</ele>
        <time>2013-05-26T12:40:46Z</time>
      </trkpt>
      <trkpt lat="59.9109561" lon="17.5850894">
        <ele>20.325</ele>
        <time>2013-05-26T12:40:47Z</time>
      </trkpt>
      <trkpt lat="59.9109329" lon="17.5851981">
        <ele>20.325</ele>
        <time>2013-05-26T12:40:48Z</time>
      </trkpt>
      <trkpt lat="59.9109115" lon="17.5853075">
        <ele>20.325</ele>
        <time>2013-05-26T12:40:49Z</time>
      </trkpt>
      <trkpt lat="59.9108907" lon="17.5854172">
        <ele>20.325</ele>
        <time>2013-05-26T12:40:50Z</time>
      </trkpt>
      <trkpt lat="59.9108706" lon="17.5855266">
        <ele>20.325</ele>
        <time>2013-05-26T12:40:51Z</time>
      </trkpt>
      <trkpt lat="59.910852" lon="17.5856368">
        <ele>20.325</ele>
        <time>2013-05-26T12:40:52Z</time>
      </trkpt>
      <trkpt lat="59.9108334" lon="17.5857474">
        <ele>20.325</ele>
        <time>2013-05-26T12:40:53Z</time>
      </trkpt>
      <trkpt lat="59.9108131" lon="17.585859">
        <ele>20.325</ele>
        <time>2013-05-26T12:40:54Z</time>
      </trkpt>
      <trkpt lat="59.9107923" lon="17.5859709">
        <ele>20.325</ele>
        <time>2013-05-26T12:40:55Z</time>
      </trkpt>
      <trkpt lat="59.9107712" lon="17.586082">
        <ele>20.325</ele>
        <time>2013-05-26T12:40:56Z</time>
      </trkpt>
      <trkpt lat="59.9107504" lon="17.5861926">
        <ele>20.325</ele>
        <time>2013-05-26T12:40:57Z</time>
      </trkpt>
      <trkpt lat="59.9107301" lon="17.5863025">
        <ele>20.325</ele>
        <time>2013-05-26T12:40:58Z</time>
      </trkpt>
      <trkpt lat="59.9107094" lon="17.5864103">
        <ele>19.8444</ele>
        <time>2013-05-26T12:40:59Z</time>
      </trkpt>
      <trkpt lat="59.9106876" lon="17.5865176">
        <ele>19.8444</ele>
        <time>2013-05-26T12:41:00Z</time>
      </trkpt>
      <trkpt lat="59.910665" lon="17.5866259">
        <ele>19.8444</ele>
        <time>2013-05-26T12:41:01Z</time>
      </trkpt>
      <trkpt lat="59.9106411" lon="17.5867368">
        <ele>19.3638</ele>
        <time>2013-05-26T12:41:02Z</time>
      </trkpt>
      <trkpt lat="59.9106166" lon="17.5868491">
        <ele>19.3638</ele>
        <time>2013-05-26T12:41:03Z</time>
      </trkpt>
      <trkpt lat="59.9105912" lon="17.5869624">
        <ele>19.3638</ele>
        <time>2013-05-26T12:41:04Z</time>
      </trkpt>
      <trkpt lat="59.9105638" lon="17.5870759">
        <ele>19.3638</ele>
        <time>2013-05-26T12:41:05Z</time>
      </trkpt>
      <trkpt lat="59.9105339" lon="17.5871878">
        <ele>19.3638</ele>
        <time>2013-05-26T12:41:06Z</time>
      </trkpt>
      <trkpt lat="59.9105026" lon="17.5873019">
        <ele>19.3638</ele>
        <time>2013-05-26T12:41:07Z</time>
      </trkpt>
      <trkpt lat="59.91047" lon="17.5874152">
        <ele>19.3638</ele>
        <time>2013-05-26T12:41:08Z</time>
      </trkpt>
      <trkpt lat="59.9104366" lon="17.5875282">
        <ele>19.3638</ele>
        <time>2013-05-26T12:41:09Z</time>
      </trkpt>
      <trkpt lat="59.9104023" lon="17.5876399">
        <ele>19.3638</ele>
        <time>2013-05-26T12:41:10Z</time>
      </trkpt>
      <trkpt lat="59.9103661" lon="17.58775">
        <ele>19.3638</ele>
        <time>2013-05-26T12:41:11Z</time>
      </trkpt>
      <trkpt lat="59.9103293" lon="17.5878585">
        <ele>19.3638</ele>
        <time>2013-05-26T12:41:12Z</time>
      </trkpt>
      <trkpt lat="59.9102916" lon="17.587968">
        <ele>19.8444</ele>
        <time>2013-05-26T12:41:13Z</time>
      </trkpt>
      <trkpt lat="59.910252" lon="17.5880796">
        <ele>19.8444</ele>
        <time>2013-05-26T12:41:14Z</time>
      </trkpt>
      <trkpt lat="59.9102101" lon="17.5881929">
        <ele>19.8444</ele>
        <time>2013-05-26T12:41:15Z</time>
      </trkpt>
      <trkpt lat="59.9101696" lon="17.5883071">
        <ele>19.8444</ele>
        <time>2013-05-26T12:41:16Z</time>
      </trkpt>
      <trkpt lat="59.9101292" lon="17.5884197">
        <ele>19.8444</ele>
        <time>2013-05-26T12:41:17Z</time>
      </trkpt>
      <trkpt lat="59.910088" lon="17.5885321">
        <ele>19.8444</ele>
        <time>2013-05-26T12:41:18Z</time>
      </trkpt>
      <trkpt lat="59.9100474" lon="17.5886445">
        <ele>19.8444</ele>
        <time>2013-05-26T12:41:19Z</time>
      </trkpt>
      <trkpt lat="59.9100076" lon="17.5887574">
        <ele>19.8444</ele>
        <time>2013-05-26T12:41:20Z</time>
      </trkpt>
      <trkpt lat="59.909968" lon="17.5888692">
        <ele>19.8444</ele>
        <time>2013-05-26T12:41:21Z</time>
      </trkpt>
      <trkpt lat="59.9099283" lon="17.588979">
        <ele>19.8444</ele>
        <time>2013-05-26T12:41:22Z</time>
      </trkpt>
      <trkpt lat="59.9098895" lon="17.58909">
        <ele>19.8444</ele>
        <time>2013-05-26T12:41:23Z</time>
      </trkpt>
      <trkpt lat="59.9098512" lon="17.5891976">
        <ele>19.8444</ele>
        <time>2013-05-26T12:41:24Z</time>
      </trkpt>
      <trkpt lat="59.9098107" lon="17.5892993">
        <ele>19.8444</ele>
        <time>2013-05-26T12:41:25Z</time>
      </trkpt>
      <trkpt lat="59.9097717" lon="17.5894054">
        <ele>19.8444</ele>
        <time>2013-05-26T12:41:26Z</time>
      </trkpt>
      <trkpt lat="59.9097314" lon="17.5895045">
        <ele>19.8444</ele>
        <time>2013-05-26T12:41:27Z</time>
      </trkpt>
      <trkpt lat="59.9096901" lon="17.5896016">
        <ele>19.8444</ele>
        <time>2013-05-26T12:41:28Z</time>
      </trkpt>
      <trkpt lat="59.9096505" lon="17.5896964">
        <ele>19.8444</ele>
        <time>2013-05-26T12:41:29Z</time>
      </trkpt>
      <trkpt lat="59.9096135" lon="17.5897908">
        <ele>19.8444</ele>
        <time>2013-05-26T12:41:30Z</time>
      </trkpt>
      <trkpt lat="59.9095766" lon="17.5898847">
        <ele>19.8444</ele>
        <time>2013-05-26T12:41:31Z</time>
      </trkpt>
      <trkpt lat="59.9095396" lon="17.5899764">
        <ele>19.8444</ele>
        <time>2013-05-26T12:41:32Z</time>
      </trkpt>
      <trkpt lat="59.9095005" lon="17.5900681">
        <ele>19.8444</ele>
        <time>2013-05-26T12:41:33Z</time>
      </trkpt>
      <trkpt lat="59.9094598" lon="17.5901616">
        <ele>19.8444</ele>
        <time>2013-05-26T12:41:34Z</time>
      </trkpt>
      <trkpt lat="59.9094198" lon="17.5902554">
        <ele>19.8444</ele>
        <time>2013-05-26T12:41:35Z</time>
      </trkpt>
      <trkpt lat="59.9093809" lon="17.5903492">
        <ele>19.8444</ele>
        <time>2013-05-26T12:41:36Z</time>
      </trkpt>
      <trkpt lat="59.9093415" lon="17.5904441">
        <ele>19.8444</ele>
        <time>2013-05-26T12:41:37Z</time>
      </trkpt>
      <trkpt lat="59.9093026" lon="17.5905397">
        <ele>19.8444</ele>
        <time>2013-05-26T12:41:38Z</time>
      </trkpt>
      <trkpt lat="59.9092635" lon="17.5906338">
        <ele>20.325</ele>
        <time>2013-05-26T12:41:39Z</time>
      </trkpt>
      <trkpt lat="59.9092265" lon="17.5907279">
        <ele>20.325</ele>
        <time>2013-05-26T12:41:40Z</time>
      </trkpt>
      <trkpt lat="59.9091885" lon="17.5908232">
        <ele>20.325</ele>
        <time>2013-05-26T12:41:41Z</time>
      </trkpt>
      <trkpt lat="59.9091491" lon="17.5909181">
        <ele>20.325</ele>
        <time>2013-05-26T12:41:42Z</time>
      </trkpt>
      <trkpt lat="59.909111" lon="17.5910135">
        <ele>20.325</ele>
        <time>2013-05-26T12:41:43Z</time>
      </trkpt>
      <trkpt lat="59.9090722" lon="17.5911108">
        <ele>20.8057</ele>
        <time>2013-05-26T12:41:44Z</time>
      </trkpt>
      <trkpt lat="59.9090349" lon="17.5912054">
        <ele>20.8057</ele>
        <time>2013-05-26T12:41:45Z</time>
      </trkpt>
      <trkpt lat="59.9089975" lon="17.5912992">
        <ele>20.8057</ele>
        <time>2013-05-26T12:41:46Z</time>
      </trkpt>
      <trkpt lat="59.9089622" lon="17.5913968">
        <ele>20.8057</ele>
        <time>2013-05-26T12:41:47Z</time>
      </trkpt>
      <trkpt lat="59.9089265" lon="17.5914945">
        <ele>20.325</ele>
        <time>2013-05-26T12:41:48Z</time>
      </trkpt>
      <trkpt lat="59.9088901" lon="17.5915943">
        <ele>20.325</ele>
        <time>2013-05-26T12:41:49Z</time>
      </trkpt>
      <trkpt lat="59.908853" lon="17.5916977">
        <ele>20.325</ele>
        <time>2013-05-26T12:41:50Z</time>
      </trkpt>
      <trkpt lat="59.9088157" lon="17.5918075">
        <ele>20.325</ele>
        <time>2013-05-26T12:41:51Z</time>
      </trkpt>
      <trkpt lat="59.9087774" lon="17.5919202">
        <ele>20.325</ele>
        <time>2013-05-26T12:41:52Z</time>
      </trkpt>
      <trkpt lat="59.9087409" lon="17.5920369">
        <ele>20.325</ele>
        <time>2013-05-26T12:41:53Z</time>
      </trkpt>
      <trkpt lat="59.9087089" lon="17.5921557">
        <ele>20.325</ele>
        <time>2013-05-26T12:41:54Z</time>
      </trkpt>
      <trkpt lat="59.908678" lon="17.5922763">
        <ele>20.8057</ele>
        <time>2013-05-26T12:41:55Z</time>
      </trkpt>
      <trkpt lat="59.9086488" lon="17.5923994">
        <ele>20.325</ele>
        <time>2013-05-26T12:41:56Z</time>
      </trkpt>
      <trkpt lat="59.9086204" lon="17.5925259">
        <ele>20.325</ele>
        <time>2013-05-26T12:41:57Z</time>
      </trkpt>
      <trkpt lat="59.9085915" lon="17.5926539">
        <ele>19.8444</ele>
        <time>2013-05-26T12:41:58Z</time>
      </trkpt>
      <trkpt lat="59.9085618" lon="17.5927829">
        <ele>19.8444</ele>
        <time>2013-05-26T12:41:59Z</time>
      </trkpt>
      <trkpt lat="59.9085316" lon="17.5929138">
        <ele>19.8444</ele>
        <time>2013-05-26T12:42:00Z</time>
      </trkpt>
      <trkpt lat="59.9085023" lon="17.5930453">
        <ele>19.3638</ele>
        <time>2013-05-26T12:42:01Z</time>
      </trkpt>
      <trkpt lat="59.9084712" lon="17.5931764">
        <ele>19.3638</ele>
        <time>2013-05-26T12:42:02Z</time>
      </trkpt>
      <trkpt lat="59.9084397" lon="17.5933084">
        <ele>19.3638</ele>
        <time>2013-05-26T12:42:03Z</time>
      </trkpt>
      <trkpt lat="59.9084111" lon="17.5934433">
        <ele>19.3638</ele>
        <time>2013-05-26T12:42:04Z</time>
      </trkpt>
      <trkpt lat="59.9083822" lon="17.5935784">
        <ele>19.8444</ele>
        <time>2013-05-26T12:42:05Z</time>
      </trkpt>
      <trkpt lat="59.9083527" lon="17.5937127">
        <ele>19.8444</ele>
        <time>2013-05-26T12:42:06Z</time>
      </trkpt>
      <trkpt lat="59.9083245" lon="17.593848">
        <ele>19.8444</ele>
        <time>2013-05-26T12:42:07Z</time>
      </trkpt>
      <trkpt lat="59.9082945" lon="17.593985">
        <ele>20.325</ele>
        <time>2013-05-26T12:42:08Z</time>
      </trkpt>
      <trkpt lat="59.9082645" lon="17.5941218">
        <ele>20.325</ele>
        <time>2013-05-26T12:42:09Z</time>
      </trkpt>
      <trkpt lat="59.9082327" lon="17.5942587">
        <ele>20.8057</ele>
        <time>2013-05-26T12:42:10Z</time>
      </trkpt>
      <trkpt lat="59.9082034" lon="17.5943973">
        <ele>20.8057</ele>
        <time>2013-05-26T12:42:11Z</time>
      </trkpt>
      <trkpt lat="59.9081748" lon="17.5945373">
        <ele>20.8057</ele>
        <time>2013-05-26T12:42:12Z</time>
      </trkpt>
      <trkpt lat="59.9081463" lon="17.5946762">
        <ele>20.8057</ele>
        <time>2013-05-26T12:42:13Z</time>
      </trkpt>
      <trkpt lat="59.9081184" lon="17.5948136">
        <ele>20.8057</ele>
        <time>2013-05-26T12:42:14Z</time>
      </trkpt>
      <trkpt lat="59.9080918" lon="17.5949486">
        <ele>20.8057</ele>
        <time>2013-05-26T12:42:15Z</time>
      </trkpt>
      <trkpt lat="59.9080655" lon="17.5950804">
        <ele>20.8057</ele>
        <time>2013-05-26T12:42:16Z</time>
      </trkpt>
      <trkpt lat="59.9080412" lon="17.5952122">
        <ele>20.8057</ele>
        <time>2013-05-26T12:42:17Z</time>
      </trkpt>
      <trkpt lat="59.9080189" lon="17.5953449">
        <ele>20.8057</ele>
        <time>2013-05-26T12:42:18Z</time>
      </trkpt>
      <trkpt lat="59.9079993" lon="17.595476">
        <ele>21.2864</ele>
        <time>2013-05-26T12:42:19Z</time>
      </trkpt>
      <trkpt lat="59.9079823" lon="17.5956056">
        <ele>21.2864</ele>
        <time>2013-05-26T12:42:20Z</time>
      </trkpt>
      <trkpt lat="59.9079693" lon="17.595735">
        <ele>21.2864</ele>
        <time>2013-05-26T12:42:21Z</time>
      </trkpt>
      <trkpt lat="59.9079609" lon="17.5958661">
        <ele>21.2864</ele>
        <time>2013-05-26T12:42:22Z</time>
      </trkpt>
      <trkpt lat="59.9079517" lon="17.5959966">
        <ele>21.2864</ele>
        <time>2013-05-26T12:42:23Z</time>
      </trkpt>
      <trkpt lat="59.9079412" lon="17.5961288">
        <ele>21.767</ele>
        <time>2013-05-26T12:42:24Z</time>
      </trkpt>
      <trkpt lat="59.9079351" lon="17.5962603">
        <ele>21.767</ele>
        <time>2013-05-26T12:42:25Z</time>
      </trkpt>
      <trkpt lat="59.9079304" lon="17.5963892">
        <ele>22.2476</ele>
        <time>2013-05-26T12:42:26Z</time>
      </trkpt>
      <trkpt lat="59.9079256" lon="17.5965145">
        <ele>22.2476</ele>
        <time>2013-05-26T12:42:27Z</time>
      </trkpt>
      <trkpt lat="59.9079216" lon="17.5966363">
        <ele>22.2476</ele>
        <time>2013-05-26T12:42:28Z</time>
      </trkpt>
      <trkpt lat="59.9079206" lon="17.596757">
        <ele>22.2476</ele>
        <time>2013-05-26T12:42:29Z</time>
      </trkpt>
      <trkpt lat="59.9079216" lon="17.5968757">
        <ele>22.7283</ele>
        <time>2013-05-26T12:42:30Z</time>
      </trkpt>
      <trkpt lat="59.9079231" lon="17.596993">
        <ele>22.7283</ele>
        <time>2013-05-26T12:42:31Z</time>
      </trkpt>
      <trkpt lat="59.9079246" lon="17.5971078">
        <ele>22.7283</ele>
        <time>2013-05-26T12:42:32Z</time>
      </trkpt>
      <trkpt lat="59.9079273" lon="17.5972203">
        <ele>23.209</ele>
        <time>2013-05-26T12:42:33Z</time>
      </trkpt>
      <trkpt lat="59.9079324" lon="17.597331">
        <ele>23.209</ele>
        <time>2013-05-26T12:42:34Z</time>
      </trkpt>
      <trkpt lat="59.9079392" lon="17.5974399">
        <ele>23.209</ele>
        <time>2013-05-26T12:42:35Z</time>
      </trkpt>
      <trkpt lat="59.907947" lon="17.5975465">
        <ele>23.209</ele>
        <time>2013-05-26T12:42:36Z</time>
      </trkpt>
      <trkpt lat="59.9079546" lon="17.5976523">
        <ele>23.6896</ele>
        <time>2013-05-26T12:42:37Z</time>
      </trkpt>
      <trkpt lat="59.9079629" lon="17.5977567">
        <ele>23.6896</ele>
        <time>2013-05-26T12:42:38Z</time>
      </trkpt>
      <trkpt lat="59.9079727" lon="17.5978587">
        <ele>23.6896</ele>
        <time>2013-05-26T12:42:39Z</time>
      </trkpt>
      <trkpt lat="59.907983" lon="17.5979594">
        <ele>23.6896</ele>
        <time>2013-05-26T12:42:40Z</time>
      </trkpt>
      <trkpt lat="59.9079944" lon="17.5980602">
        <ele>24.1703</ele>
        <time>2013-05-26T12:42:41Z</time>
      </trkpt>
      <trkpt lat="59.9080061" lon="17.5981609">
        <ele>24.1703</ele>
        <time>2013-05-26T12:42:42Z</time>
      </trkpt>
      <trkpt lat="59.9080187" lon="17.5982607">
        <ele>24.1703</ele>
        <time>2013-05-26T12:42:43Z</time>
      </trkpt>
      <trkpt lat="59.9080329" lon="17.5983591">
        <ele>24.1703</ele>
        <time>2013-05-26T12:42:44Z</time>
      </trkpt>
      <trkpt lat="59.9080488" lon="17.5984564">
        <ele>24.1703</ele>
        <time>2013-05-26T12:42:45Z</time>
      </trkpt>
      <trkpt lat="59.9080657" lon="17.5985526">
        <ele>24.1703</ele>
        <time>2013-05-26T12:42:46Z</time>
      </trkpt>
      <trkpt lat="59.9080835" lon="17.5986488">
        <ele>24.1703</ele>
        <time>2013-05-26T12:42:47Z</time>
      </trkpt>
      <trkpt lat="59.9081018" lon="17.5987446">
        <ele>24.1703</ele>
        <time>2013-05-26T12:42:48Z</time>
      </trkpt>
      <trkpt lat="59.9081215" lon="17.5988384">
        <ele>24.1703</ele>
        <time>2013-05-26T12:42:49Z</time>
      </trkpt>
      <trkpt lat="59.9081431" lon="17.5989301">
        <ele>24.1703</ele>
        <time>2013-05-26T12:42:50Z</time>
      </trkpt>
      <trkpt lat="59.9081655" lon="17.5990206">
        <ele>24.1703</ele>
        <time>2013-05-26T12:42:51Z</time>
      </trkpt>
      <trkpt lat="59.9081874" lon="17.5991113">
        <ele>24.1703</ele>
        <time>2013-05-26T12:42:52Z</time>
      </trkpt>
      <trkpt lat="59.9082087" lon="17.5992029">
        <ele>24.1703</ele>
        <time>2013-05-26T12:42:53Z</time>
      </trkpt>
      <trkpt lat="59.9082311" lon="17.5992937">
        <ele>24.1703</ele>
        <time>2013-05-26T12:42:54Z</time>
      </trkpt>
      <trkpt lat="59.9082547" lon="17.599384">
        <ele>24.1703</ele>
        <time>2013-05-26T12:42:55Z</time>
      </trkpt>
      <trkpt lat="59.9082799" lon="17.5994743">
        <ele>24.1703</ele>
        <time>2013-05-26T12:42:56Z</time>
      </trkpt>
      <trkpt lat="59.9083063" lon="17.5995625">
        <ele>24.1703</ele>
        <time>2013-05-26T12:42:57Z</time>
      </trkpt>
      <trkpt lat="59.9083335" lon="17.5996494">
        <ele>24.1703</ele>
        <time>2013-05-26T12:42:58Z</time>
      </trkpt>
      <trkpt lat="59.9083619" lon="17.5997364">
        <ele>24.1703</ele>
        <time>2013-05-26T12:42:59Z</time>
      </trkpt>
      <trkpt lat="59.9083914" lon="17.599823">
        <ele>23.6896</ele>
        <time>2013-05-26T12:43:00Z</time>
      </trkpt>
      <trkpt lat="59.908422" lon="17.5999065">
        <ele>23.6896</ele>
        <time>2013-05-26T12:43:01Z</time>
      </trkpt>
      <trkpt lat="59.9084536" lon="17.5999875">
        <ele>23.209</ele>
        <time>2013-05-26T12:43:02Z</time>
      </trkpt>
      <trkpt lat="59.908485" lon="17.600069">
        <ele>23.209</ele>
        <time>2013-05-26T12:43:03Z</time>
      </trkpt>
      <trkpt lat="59.9085162" lon="17.60015">
        <ele>22.7283</ele>
        <time>2013-05-26T12:43:04Z</time>
      </trkpt>
      <trkpt lat="59.9085489" lon="17.6002303">
        <ele>22.7283</ele>
        <time>2013-05-26T12:43:05Z</time>
      </trkpt>
      <trkpt lat="59.9085836" lon="17.6003099">
        <ele>22.2476</ele>
        <time>2013-05-26T12:43:06Z</time>
      </trkpt>
      <trkpt lat="59.9086197" lon="17.6003897">
        <ele>22.2476</ele>
        <time>2013-05-26T12:43:07Z</time>
      </trkpt>
      <trkpt lat="59.9086571" lon="17.6004706">
        <ele>21.767</ele>
        <time>2013-05-26T12:43:08Z</time>
      </trkpt>
      <trkpt lat="59.9086965" lon="17.6005514">
        <ele>21.2864</ele>
        <time>2013-05-26T12:43:09Z</time>
      </trkpt>
      <trkpt lat="59.9087377" lon="17.6006307">
        <ele>21.2864</ele>
        <time>2013-05-26T12:43:10Z</time>
      </trkpt>
      <trkpt lat="59.9087802" lon="17.6007096">
        <ele>20.8057</ele>
        <time>2013-05-26T12:43:11Z</time>
      </trkpt>
      <trkpt lat="59.908825" lon="17.6007913">
        <ele>20.325</ele>
        <time>2013-05-26T12:43:12Z</time>
      </trkpt>
      <trkpt lat="59.9088726" lon="17.600873">
        <ele>19.8444</ele>
        <time>2013-05-26T12:43:13Z</time>
      </trkpt>
      <trkpt lat="59.9089228" lon="17.600954">
        <ele>19.8444</ele>
        <time>2013-05-26T12:43:14Z</time>
      </trkpt>
      <trkpt lat="59.9089737" lon="17.6010347">
        <ele>19.3638</ele>
        <time>2013-05-26T12:43:15Z</time>
      </trkpt>
      <trkpt lat="59.9090256" lon="17.6011136">
        <ele>18.8831</ele>
        <time>2013-05-26T12:43:16Z</time>
      </trkpt>
      <trkpt lat="59.9090786" lon="17.6011944">
        <ele>18.8831</ele>
        <time>2013-05-26T12:43:17Z</time>
      </trkpt>
      <trkpt lat="59.9091322" lon="17.6012772">
        <ele>18.4023</ele>
        <time>2013-05-26T12:43:18Z</time>
      </trkpt>
      <trkpt lat="59.9091863" lon="17.6013627">
        <ele>17.9218</ele>
        <time>2013-05-26T12:43:19Z</time>
      </trkpt>
      <trkpt lat="59.9092418" lon="17.6014493">
        <ele>17.4412</ele>
        <time>2013-05-26T12:43:20Z</time>
      </trkpt>
      <trkpt lat="59.909298" lon="17.6015362">
        <ele>17.4412</ele>
        <time>2013-05-26T12:43:21Z</time>
      </trkpt>
      <trkpt lat="59.9093544" lon="17.6016239">
        <ele>16.9604</ele>
        <time>2013-05-26T12:43:22Z</time>
      </trkpt>
      <trkpt lat="59.9094117" lon="17.6017145">
        <ele>16.9604</ele>
        <time>2013-05-26T12:43:23Z</time>
      </trkpt>
      <trkpt lat="59.9094699" lon="17.6018057">
        <ele>16.4797</ele>
        <time>2013-05-26T12:43:24Z</time>
      </trkpt>
      <trkpt lat="59.909529" lon="17.6018958">
        <ele>16.4797</ele>
        <time>2013-05-26T12:43:25Z</time>
      </trkpt>
      <trkpt lat="59.909589" lon="17.6019873">
        <ele>15.999</ele>
        <time>2013-05-26T12:43:26Z</time>
      </trkpt>
      <trkpt lat="59.9096505" lon="17.6020801">
        <ele>15.5184</ele>
        <time>2013-05-26T12:43:27Z</time>
      </trkpt>
      <trkpt lat="59.9097123" lon="17.6021744">
        <ele>15.5184</ele>
        <time>2013-05-26T12:43:28Z</time>
      </trkpt>
      <trkpt lat="59.9097744" lon="17.6022692">
        <ele>15.0377</ele>
        <time>2013-05-26T12:43:29Z</time>
      </trkpt>
      <trkpt lat="59.909837" lon="17.6023653">
        <ele>15.0377</ele>
        <time>2013-05-26T12:43:30Z</time>
      </trkpt>
      <trkpt lat="59.9098998" lon="17.6024618">
        <ele>14.557</ele>
        <time>2013-05-26T12:43:31Z</time>
      </trkpt>
      <trkpt lat="59.9099624" lon="17.6025598">
        <ele>14.557</ele>
        <time>2013-05-26T12:43:32Z</time>
      </trkpt>
      <trkpt lat="59.9100248" lon="17.6026573">
        <ele>14.557</ele>
        <time>2013-05-26T12:43:33Z</time>
      </trkpt>
      <trkpt lat="59.9100868" lon="17.6027523">
        <ele>14.557</ele>
        <time>2013-05-26T12:43:34Z</time>
      </trkpt>
      <trkpt lat="59.9101469" lon="17.6028437">
        <ele>14.557</ele>
        <time>2013-05-26T12:43:35Z</time>
      </trkpt>
      <trkpt lat="59.9102049" lon="17.6029333">
        <ele>14.0764</ele>
        <time>2013-05-26T12:43:36Z</time>
      </trkpt>
      <trkpt lat="59.9102609" lon="17.603024">
        <ele>14.0764</ele>
        <time>2013-05-26T12:43:37Z</time>
      </trkpt>
      <trkpt lat="59.9103161" lon="17.603112">
        <ele>14.0764</ele>
        <time>2013-05-26T12:43:38Z</time>
      </trkpt>
      <trkpt lat="59.9103697" lon="17.6031984">
        <ele>14.0764</ele>
        <time>2013-05-26T12:43:39Z</time>
      </trkpt>
      <trkpt lat="59.9104231" lon="17.6032797">
        <ele>14.0764</ele>
        <time>2013-05-26T12:43:40Z</time>
      </trkpt>
      <trkpt lat="59.9104734" lon="17.6033575">
        <ele>13.5958</ele>
        <time>2013-05-26T12:43:41Z</time>
      </trkpt>
      <trkpt lat="59.9105225" lon="17.6034337">
        <ele>14.0764</ele>
        <time>2013-05-26T12:43:42Z</time>
      </trkpt>
      <trkpt lat="59.9105723" lon="17.6035076">
        <ele>14.0764</ele>
        <time>2013-05-26T12:43:43Z</time>
      </trkpt>
      <trkpt lat="59.910621" lon="17.6035797">
        <ele>14.0764</ele>
        <time>2013-05-26T12:43:44Z</time>
      </trkpt>
      <trkpt lat="59.9106684" lon="17.6036524">
        <ele>14.557</ele>
        <time>2013-05-26T12:43:45Z</time>
      </trkpt>
      <trkpt lat="59.9107142" lon="17.6037252">
        <ele>14.557</ele>
        <time>2013-05-26T12:43:46Z</time>
      </trkpt>
      <trkpt lat="59.9107592" lon="17.6037942">
        <ele>15.0377</ele>
        <time>2013-05-26T12:43:47Z</time>
      </trkpt>
      <trkpt lat="59.9108031" lon="17.603861">
        <ele>15.0377</ele>
        <time>2013-05-26T12:43:48Z</time>
      </trkpt>
      <trkpt lat="59.9108458" lon="17.6039293">
        <ele>15.0377</ele>
        <time>2013-05-26T12:43:49Z</time>
      </trkpt>
      <trkpt lat="59.9108887" lon="17.6039978">
        <ele>15.5184</ele>
        <time>2013-05-26T12:43:50Z</time>
      </trkpt>
      <trkpt lat="59.9109297" lon="17.604067">
        <ele>15.5184</ele>
        <time>2013-05-26T12:43:51Z</time>
      </trkpt>
      <trkpt lat="59.9109685" lon="17.604138">
        <ele>15.5184</ele>
        <time>2013-05-26T12:43:52Z</time>
      </trkpt>
      <trkpt lat="59.9110077" lon="17.60421">
        <ele>15.5184</ele>
        <time>2013-05-26T12:43:53Z</time>
      </trkpt>
      <trkpt lat="59.9110466" lon="17.6042837">
        <ele>15.5184</ele>
        <time>2013-05-26T12:43:54Z</time>
      </trkpt>
      <trkpt lat="59.9110835" lon="17.6043586">
        <ele>15.5184</ele>
        <time>2013-05-26T12:43:55Z</time>
      </trkpt>
      <trkpt lat="59.9111192" lon="17.6044322">
        <ele>15.5184</ele>
        <time>2013-05-26T12:43:56Z</time>
      </trkpt>
      <trkpt lat="59.9111543" lon="17.6045081">
        <ele>15.5184</ele>
        <time>2013-05-26T12:43:57Z</time>
      </trkpt>
      <trkpt lat="59.9111888" lon="17.6045878">
        <ele>15.999</ele>
        <time>2013-05-26T12:43:58Z</time>
      </trkpt>
      <trkpt lat="59.9112219" lon="17.6046679">
        <ele>15.999</ele>
        <time>2013-05-26T12:43:59Z</time>
      </trkpt>
      <trkpt lat="59.9112529" lon="17.6047473">
        <ele>15.999</ele>
        <time>2013-05-26T12:44:00Z</time>
      </trkpt>
      <trkpt lat="59.9112808" lon="17.6048275">
        <ele>15.999</ele>
        <time>2013-05-26T12:44:01Z</time>
      </trkpt>
      <trkpt lat="59.9113072" lon="17.6049093">
        <ele>15.999</ele>
        <time>2013-05-26T12:44:02Z</time>
      </trkpt>
      <trkpt lat="59.911333" lon="17.6049924">
        <ele>15.5184</ele>
        <time>2013-05-26T12:44:03Z</time>
      </trkpt>
      <trkpt lat="59.9113578" lon="17.6050758">
        <ele>15.5184</ele>
        <time>2013-05-26T12:44:04Z</time>
      </trkpt>
      <trkpt lat="59.9113811" lon="17.6051608">
        <ele>15.5184</ele>
        <time>2013-05-26T12:44:05Z</time>
      </trkpt>
      <trkpt lat="59.9114029" lon="17.6052476">
        <ele>15.999</ele>
        <time>2013-05-26T12:44:06Z</time>
      </trkpt>
      <trkpt lat="59.9114239" lon="17.6053343">
        <ele>15.999</ele>
        <time>2013-05-26T12:44:07Z</time>
      </trkpt>
      <trkpt lat="59.9114435" lon="17.6054223">
        <ele>15.999</ele>
        <time>2013-05-26T12:44:08Z</time>
      </trkpt>
      <trkpt lat="59.9114606" lon="17.6055089">
        <ele>15.999</ele>
        <time>2013-05-26T12:44:09Z</time>
      </trkpt>
      <trkpt lat="59.9114768" lon="17.6055939">
        <ele>16.4797</ele>
        <time>2013-05-26T12:44:10Z</time>
      </trkpt>
      <trkpt lat="59.9114928" lon="17.6056803">
        <ele>16.4797</ele>
        <time>2013-05-26T12:44:11Z</time>
      </trkpt>
      <trkpt lat="59.9115081" lon="17.6057689">
        <ele>16.4797</ele>
        <time>2013-05-26T12:44:12Z</time>
      </trkpt>
      <trkpt lat="59.9115224" lon="17.6058585">
        <ele>16.4797</ele>
        <time>2013-05-26T12:44:13Z</time>
      </trkpt>
      <trkpt lat="59.9115358" lon="17.6059477">
        <ele>16.4797</ele>
        <time>2013-05-26T12:44:14Z</time>
      </trkpt>
      <trkpt lat="59.911548" lon="17.6060366">
        <ele>16.9604</ele>
        <time>2013-05-26T12:44:15Z</time>
      </trkpt>
      <trkpt lat="59.9115596" lon="17.6061233">
        <ele>16.9604</ele>
        <time>2013-05-26T12:44:16Z</time>
      </trkpt>
      <trkpt lat="59.9115715" lon="17.6062067">
        <ele>16.9604</ele>
        <time>2013-05-26T12:44:17Z</time>
      </trkpt>
      <trkpt lat="59.9115828" lon="17.6062878">
        <ele>16.9604</ele>
        <time>2013-05-26T12:44:18Z</time>
      </trkpt>
      <trkpt lat="59.9115927" lon="17.6063667">
        <ele>16.9604</ele>
        <time>2013-05-26T12:44:19Z</time>
      </trkpt>
      <trkpt lat="59.9116008" lon="17.6064445">
        <ele>16.9604</ele>
        <time>2013-05-26T12:44:20Z</time>
      </trkpt>
      <trkpt lat="59.9116082" lon="17.6065219">
        <ele>16.9604</ele>
        <time>2013-05-26T12:44:21Z</time>
      </trkpt>
      <trkpt lat="59.911615" lon="17.6065983">
        <ele>16.9604</ele>
        <time>2013-05-26T12:44:22Z</time>
      </trkpt>
      <trkpt lat="59.9116177" lon="17.6066728">
        <ele>16.9604</ele>
        <time>2013-05-26T12:44:23Z</time>
      </trkpt>
      <trkpt lat="59.9116109" lon="17.6067453">
        <ele>16.4797</ele>
        <time>2013-05-26T12:44:24Z</time>
      </trkpt>
      <trkpt lat="59.9115913" lon="17.6068116">
        <ele>16.4797</ele>
        <time>2013-05-26T12:44:25Z</time>
      </trkpt>
      <trkpt lat="59.9115611" lon="17.6068618">
        <ele>15.999</ele>
        <time>2013-05-26T12:44:26Z</time>
      </trkpt>
      <trkpt lat="59.9115233" lon="17.606895">
        <ele>15.999</ele>
        <time>2013-05-26T12:44:27Z</time>
      </trkpt>
      <trkpt lat="59.9114811" lon="17.606921">
        <ele>14.557</ele>
        <time>2013-05-26T12:44:28Z</time>
      </trkpt>
      <trkpt lat="59.9114351" lon="17.6069407">
        <ele>13.1151</ele>
        <time>2013-05-26T12:44:29Z</time>
      </trkpt>
      <trkpt lat="59.9113859" lon="17.6069632">
        <ele>12.1538</ele>
        <time>2013-05-26T12:44:30Z</time>
      </trkpt>
      <trkpt lat="59.9113368" lon="17.6069865">
        <ele>11.6732</ele>
        <time>2013-05-26T12:44:31Z</time>
      </trkpt>
      <trkpt lat="59.9112884" lon="17.6070094">
        <ele>10.2312</ele>
        <time>2013-05-26T12:44:32Z</time>
      </trkpt>
      <trkpt lat="59.9112346" lon="17.6070318">
        <ele>9.75061</ele>
        <time>2013-05-26T12:44:33Z</time>
      </trkpt>
      <trkpt lat="59.9111746" lon="17.6070552">
        <ele>10.2312</ele>
        <time>2013-05-26T12:44:34Z</time>
      </trkpt>
      <trkpt lat="59.9111192" lon="17.6070793">
        <ele>10.2312</ele>
        <time>2013-05-26T12:44:35Z</time>
      </trkpt>
      <trkpt lat="59.9110647" lon="17.6071034">
        <ele>9.2699</ele>
        <time>2013-05-26T12:44:36Z</time>
      </trkpt>
      <trkpt lat="59.9110108" lon="17.6071292">
        <ele>8.78918</ele>
        <time>2013-05-26T12:44:37Z</time>
      </trkpt>
      <trkpt lat="59.9109557" lon="17.6071539">
        <ele>8.30859</ele>
        <time>2013-05-26T12:44:38Z</time>
      </trkpt>
      <trkpt lat="59.9108986" lon="17.6071747">
        <ele>8.30859</ele>
        <time>2013-05-26T12:44:39Z</time>
      </trkpt>
      <trkpt lat="59.9108393" lon="17.6072">
        <ele>8.78918</ele>
        <time>2013-05-26T12:44:40Z</time>
      </trkpt>
      <trkpt lat="59.9107773" lon="17.6072256">
        <ele>8.78918</ele>
        <time>2013-05-26T12:44:41Z</time>
      </trkpt>
      <trkpt lat="59.9107134" lon="17.6072526">
        <ele>8.78918</ele>
        <time>2013-05-26T12:44:42Z</time>
      </trkpt>
      <trkpt lat="59.910649" lon="17.6072802">
        <ele>8.78918</ele>
        <time>2013-05-26T12:44:43Z</time>
      </trkpt>
      <trkpt lat="59.9105855" lon="17.6073069">
        <ele>8.78918</ele>
        <time>2013-05-26T12:44:44Z</time>
      </trkpt>
      <trkpt lat="59.9105204" lon="17.6073353">
        <ele>8.78918</ele>
        <time>2013-05-26T12:44:45Z</time>
      </trkpt>
      <trkpt lat="59.9104547" lon="17.6073605">
        <ele>8.30859</ele>
        <time>2013-05-26T12:44:46Z</time>
      </trkpt>
      <trkpt lat="59.9103889" lon="17.6073869">
        <ele>8.30859</ele>
        <time>2013-05-26T12:44:47Z</time>
      </trkpt>
      <trkpt lat="59.9103236" lon="17.6074165">
        <ele>7.82788</ele>
        <time>2013-05-26T12:44:48Z</time>
      </trkpt>
      <trkpt lat="59.9102571" lon="17.6074451">
        <ele>7.82788</ele>
        <time>2013-05-26T12:44:49Z</time>
      </trkpt>
      <trkpt lat="59.9101878" lon="17.6074774">
        <ele>7.82788</ele>
        <time>2013-05-26T12:44:50Z</time>
      </trkpt>
      <trkpt lat="59.9101179" lon="17.6075094">
        <ele>7.34717</ele>
        <time>2013-05-26T12:44:51Z</time>
      </trkpt>
      <trkpt lat="59.9100473" lon="17.607539">
        <ele>7.34717</ele>
        <time>2013-05-26T12:44:52Z</time>
      </trkpt>
      <trkpt lat="59.909976" lon="17.6075713">
        <ele>6.86646</ele>
        <time>2013-05-26T12:44:53Z</time>
      </trkpt>
      <trkpt lat="59.909905" lon="17.6076078">
        <ele>6.86646</ele>
        <time>2013-05-26T12:44:54Z</time>
      </trkpt>
      <trkpt lat="59.9098304" lon="17.6076459">
        <ele>6.86646</ele>
        <time>2013-05-26T12:44:55Z</time>
      </trkpt>
      <trkpt lat="59.9097549" lon="17.6076851">
        <ele>6.86646</ele>
        <time>2013-05-26T12:44:56Z</time>
      </trkpt>
      <trkpt lat="59.909678" lon="17.6077233">
        <ele>7.34717</ele>
        <time>2013-05-26T12:44:57Z</time>
      </trkpt>
      <trkpt lat="59.909603" lon="17.607757">
        <ele>6.86646</ele>
        <time>2013-05-26T12:44:58Z</time>
      </trkpt>
      <trkpt lat="59.9095295" lon="17.6077886">
        <ele>6.86646</ele>
        <time>2013-05-26T12:44:59Z</time>
      </trkpt>
      <trkpt lat="59.9094533" lon="17.60783">
        <ele>6.38586</ele>
        <time>2013-05-26T12:45:00Z</time>
      </trkpt>
      <trkpt lat="59.9093765" lon="17.6078742">
        <ele>6.38586</ele>
        <time>2013-05-26T12:45:01Z</time>
      </trkpt>
      <trkpt lat="59.909301" lon="17.6079088">
        <ele>6.86646</ele>
        <time>2013-05-26T12:45:02Z</time>
      </trkpt>
      <trkpt lat="59.9092273" lon="17.6079439">
        <ele>6.86646</ele>
        <time>2013-05-26T12:45:03Z</time>
      </trkpt>
      <trkpt lat="59.9091549" lon="17.6079806">
        <ele>6.86646</ele>
        <time>2013-05-26T12:45:04Z</time>
      </trkpt>
      <trkpt lat="59.9090815" lon="17.6080186">
        <ele>6.86646</ele>
        <time>2013-05-26T12:45:05Z</time>
      </trkpt>
      <trkpt lat="59.9090053" lon="17.6080617">
        <ele>6.86646</ele>
        <time>2013-05-26T12:45:06Z</time>
      </trkpt>
      <trkpt lat="59.9089296" lon="17.6081064">
        <ele>6.86646</ele>
        <time>2013-05-26T12:45:07Z</time>
      </trkpt>
      <trkpt lat="59.9088558" lon="17.6081502">
        <ele>6.38586</ele>
        <time>2013-05-26T12:45:08Z</time>
      </trkpt>
      <trkpt lat="59.9087809" lon="17.6081941">
        <ele>6.86646</ele>
        <time>2013-05-26T12:45:09Z</time>
      </trkpt>
      <trkpt lat="59.9087074" lon="17.608236">
        <ele>6.86646</ele>
        <time>2013-05-26T12:45:10Z</time>
      </trkpt>
      <trkpt lat="59.9086348" lon="17.6082735">
        <ele>7.34717</ele>
        <time>2013-05-26T12:45:11Z</time>
      </trkpt>
      <trkpt lat="59.9085665" lon="17.6083048">
        <ele>7.34717</ele>
        <time>2013-05-26T12:45:12Z</time>
      </trkpt>
      <trkpt lat="59.9085023" lon="17.6083287">
        <ele>7.34717</ele>
        <time>2013-05-26T12:45:13Z</time>
      </trkpt>
      <trkpt lat="59.908435" lon="17.608362">
        <ele>7.34717</ele>
        <time>2013-05-26T12:45:14Z</time>
      </trkpt>
      <trkpt lat="59.9083656" lon="17.6083953">
        <ele>8.30859</ele>
        <time>2013-05-26T12:45:15Z</time>
      </trkpt>
      <trkpt lat="59.9082977" lon="17.6084309">
        <ele>8.30859</ele>
        <time>2013-05-26T12:45:16Z</time>
      </trkpt>
      <trkpt lat="59.9082303" lon="17.6084651">
        <ele>8.30859</ele>
        <time>2013-05-26T12:45:17Z</time>
      </trkpt>
      <trkpt lat="59.9081645" lon="17.608502">
        <ele>7.82788</ele>
        <time>2013-05-26T12:45:18Z</time>
      </trkpt>
      <trkpt lat="59.9081032" lon="17.6085314">
        <ele>7.82788</ele>
        <time>2013-05-26T12:45:19Z</time>
      </trkpt>
      <trkpt lat="59.9080422" lon="17.6085594">
        <ele>7.82788</ele>
        <time>2013-05-26T12:45:20Z</time>
      </trkpt>
      <trkpt lat="59.9079822" lon="17.6085878">
        <ele>7.34717</ele>
        <time>2013-05-26T12:45:21Z</time>
      </trkpt>
      <trkpt lat="59.9079221" lon="17.608616">
        <ele>7.82788</ele>
        <time>2013-05-26T12:45:22Z</time>
      </trkpt>
      <trkpt lat="59.9078642" lon="17.6086455">
        <ele>7.34717</ele>
        <time>2013-05-26T12:45:23Z</time>
      </trkpt>
      <trkpt lat="59.9078031" lon="17.6086738">
        <ele>7.34717</ele>
        <time>2013-05-26T12:45:24Z</time>
      </trkpt>
      <trkpt lat="59.9077416" lon="17.6086985">
        <ele>7.82788</ele>
        <time>2013-05-26T12:45:25Z</time>
      </trkpt>
      <trkpt lat="59.9076824" lon="17.6087231">
        <ele>7.82788</ele>
        <time>2013-05-26T12:45:26Z</time>
      </trkpt>
      <trkpt lat="59.907624" lon="17.6087535">
        <ele>7.34717</ele>
        <time>2013-05-26T12:45:27Z</time>
      </trkpt>
      <trkpt lat="59.9075614" lon="17.6087842">
        <ele>7.82788</ele>
        <time>2013-05-26T12:45:28Z</time>
      </trkpt>
      <trkpt lat="59.9074974" lon="17.6088138">
        <ele>7.82788</ele>
        <time>2013-05-26T12:45:29Z</time>
      </trkpt>
      <trkpt lat="59.9074294" lon="17.6088443">
        <ele>8.30859</ele>
        <time>2013-05-26T12:45:30Z</time>
      </trkpt>
      <trkpt lat="59.9073643" lon="17.6088717">
        <ele>8.78918</ele>
        <time>2013-05-26T12:45:31Z</time>
      </trkpt>
      <trkpt lat="59.9072988" lon="17.6088992">
        <ele>8.78918</ele>
        <time>2013-05-26T12:45:32Z</time>
      </trkpt>
      <trkpt lat="59.9072355" lon="17.6089276">
        <ele>9.75061</ele>
        <time>2013-05-26T12:45:33Z</time>
      </trkpt>
      <trkpt lat="59.9071741" lon="17.6089553">
        <ele>10.2312</ele>
        <time>2013-05-26T12:45:34Z</time>
      </trkpt>
      <trkpt lat="59.9071096" lon="17.6089835">
        <ele>11.1925</ele>
        <time>2013-05-26T12:45:35Z</time>
      </trkpt>
      <trkpt lat="59.9070491" lon="17.609011">
        <ele>11.1925</ele>
        <time>2013-05-26T12:45:36Z</time>
      </trkpt>
      <trkpt lat="59.9069833" lon="17.6090416">
        <ele>11.1925</ele>
        <time>2013-05-26T12:45:37Z</time>
      </trkpt>
      <trkpt lat="59.9069187" lon="17.6090759">
        <ele>11.6732</ele>
        <time>2013-05-26T12:45:38Z</time>
      </trkpt>
      <trkpt lat="59.9068535" lon="17.6091074">
        <ele>11.6732</ele>
        <time>2013-05-26T12:45:39Z</time>
      </trkpt>
      <trkpt lat="59.9067836" lon="17.609145">
        <ele>12.1538</ele>
        <time>2013-05-26T12:45:40Z</time>
      </trkpt>
      <trkpt lat="59.9067178" lon="17.6091758">
        <ele>13.1151</ele>
        <time>2013-05-26T12:45:41Z</time>
      </trkpt>
      <trkpt lat="59.906651" lon="17.6092093">
        <ele>13.5958</ele>
        <time>2013-05-26T12:45:42Z</time>
      </trkpt>
      <trkpt lat="59.9065819" lon="17.609245">
        <ele>14.557</ele>
        <time>2013-05-26T12:45:43Z</time>
      </trkpt>
      <trkpt lat="59.9065126" lon="17.6092813">
        <ele>14.557</ele>
        <time>2013-05-26T12:45:44Z</time>
      </trkpt>
      <trkpt lat="59.9064467" lon="17.6093105">
        <ele>15.0377</ele>
        <time>2013-05-26T12:45:45Z</time>
      </trkpt>
      <trkpt lat="59.90638" lon="17.6093432">
        <ele>14.557</ele>
        <time>2013-05-26T12:45:46Z</time>
      </trkpt>
      <trkpt lat="59.9063116" lon="17.6093702">
        <ele>15.0377</ele>
        <time>2013-05-26T12:45:47Z</time>
      </trkpt>
      <trkpt lat="59.9062433" lon="17.6093968">
        <ele>14.557</ele>
        <time>2013-05-26T12:45:48Z</time>
      </trkpt>
      <trkpt lat="59.9061738" lon="17.6094177">
        <ele>15.5184</ele>
        <time>2013-05-26T12:45:49Z</time>
      </trkpt>
      <trkpt lat="59.9061075" lon="17.6094436">
        <ele>14.557</ele>
        <time>2013-05-26T12:45:50Z</time>
      </trkpt>
      <trkpt lat="59.9060453" lon="17.6094699">
        <ele>14.0764</ele>
        <time>2013-05-26T12:45:51Z</time>
      </trkpt>
      <trkpt lat="59.905991" lon="17.6094857">
        <ele>14.557</ele>
        <time>2013-05-26T12:45:52Z</time>
      </trkpt>
      <trkpt lat="59.9059303" lon="17.6095265">
        <ele>15.0377</ele>
        <time>2013-05-26T12:45:53Z</time>
      </trkpt>
      <trkpt lat="59.9058712" lon="17.6095711">
        <ele>15.999</ele>
        <time>2013-05-26T12:45:54Z</time>
      </trkpt>
      <trkpt lat="59.9058133" lon="17.6095983">
        <ele>15.999</ele>
        <time>2013-05-26T12:45:55Z</time>
      </trkpt>
      <trkpt lat="59.9057584" lon="17.6096169">
        <ele>15.999</ele>
        <time>2013-05-26T12:45:56Z</time>
      </trkpt>
      <trkpt lat="59.9057051" lon="17.6096325">
        <ele>16.4797</ele>
        <time>2013-05-26T12:45:57Z</time>
      </trkpt>
      <trkpt lat="59.905648" lon="17.6096546">
        <ele>16.4797</ele>
        <time>2013-05-26T12:45:58Z</time>
      </trkpt>
      <trkpt lat="59.9055981" lon="17.6096713">
        <ele>15.999</ele>
        <time>2013-05-26T12:45:59Z</time>
      </trkpt>
      <trkpt lat="59.9055523" lon="17.6096831">
        <ele>15.5184</ele>
        <time>2013-05-26T12:46:00Z</time>
      </trkpt>
      <trkpt lat="59.9054999" lon="17.609709">
        <ele>15.999</ele>
        <time>2013-05-26T12:46:01Z</time>
      </trkpt>
      <trkpt lat="59.905449" lon="17.6097304">
        <ele>15.999</ele>
        <time>2013-05-26T12:46:02Z</time>
      </trkpt>
      <trkpt lat="59.9053947" lon="17.6097522">
        <ele>16.4797</ele>
        <time>2013-05-26T12:46:03Z</time>
      </trkpt>
      <trkpt lat="59.905345" lon="17.6097694">
        <ele>16.9604</ele>
        <time>2013-05-26T12:46:04Z</time>
      </trkpt>
      <trkpt lat="59.905295" lon="17.6097916">
        <ele>17.9218</ele>
        <time>2013-05-26T12:46:05Z</time>
      </trkpt>
      <trkpt lat="59.9052495" lon="17.6098105">
        <ele>17.9218</ele>
        <time>2013-05-26T12:46:06Z</time>
      </trkpt>
      <trkpt lat="59.9052051" lon="17.6098264">
        <ele>17.9218</ele>
        <time>2013-05-26T12:46:07Z</time>
      </trkpt>
      <trkpt lat="59.9051599" lon="17.6098442">
        <ele>18.4023</ele>
        <time>2013-05-26T12:46:08Z</time>
      </trkpt>
      <trkpt lat="59.9051163" lon="17.6098622">
        <ele>18.4023</ele>
        <time>2013-05-26T12:46:09Z</time>
      </trkpt>
      <trkpt lat="59.9050733" lon="17.6098814">
        <ele>17.9218</ele>
        <time>2013-05-26T12:46:10Z</time>
      </trkpt>
      <trkpt lat="59.9050305" lon="17.6099021">
        <ele>18.4023</ele>
        <time>2013-05-26T12:46:11Z</time>
      </trkpt>
      <trkpt lat="59.9049828" lon="17.6099435">
        <ele>18.4023</ele>
        <time>2013-05-26T12:46:12Z</time>
      </trkpt>
      <trkpt lat="59.9049456" lon="17.6099773">
        <ele>18.4023</ele>
        <time>2013-05-26T12:46:13Z</time>
      </trkpt>
      <trkpt lat="59.9049079" lon="17.6100198">
        <ele>17.9218</ele>
        <time>2013-05-26T12:46:14Z</time>
      </trkpt>
      <trkpt lat="59.9048669" lon="17.6100685">
        <ele>17.9218</ele>
        <time>2013-05-26T12:46:15Z</time>
      </trkpt>
      <trkpt lat="59.9048207" lon="17.6101046">
        <ele>18.4023</ele>
        <time>2013-05-26T12:46:16Z</time>
      </trkpt>
      <trkpt lat="59.9047713" lon="17.6101326">
        <ele>17.9218</ele>
        <time>2013-05-26T12:46:17Z</time>
      </trkpt>
      <trkpt lat="59.9047201" lon="17.6101678">
        <ele>17.9218</ele>
        <time>2013-05-26T12:46:18Z</time>
      </trkpt>
      <trkpt lat="59.9046742" lon="17.6102127">
        <ele>17.4412</ele>
        <time>2013-05-26T12:46:19Z</time>
      </trkpt>
      <trkpt lat="59.9046332" lon="17.6102762">
        <ele>16.9604</ele>
        <time>2013-05-26T12:46:20Z</time>
      </trkpt>
      <trkpt lat="59.904598" lon="17.6103605">
        <ele>16.4797</ele>
        <time>2013-05-26T12:46:21Z</time>
      </trkpt>
      <trkpt lat="59.9045711" lon="17.6104618">
        <ele>15.999</ele>
        <time>2013-05-26T12:46:22Z</time>
      </trkpt>
      <trkpt lat="59.9045467" lon="17.610577">
        <ele>16.4797</ele>
        <time>2013-05-26T12:46:23Z</time>
      </trkpt>
      <trkpt lat="59.9045263" lon="17.610692">
        <ele>16.4797</ele>
        <time>2013-05-26T12:46:24Z</time>
      </trkpt>
      <trkpt lat="59.9045052" lon="17.6108058">
        <ele>16.4797</ele>
        <time>2013-05-26T12:46:25Z</time>
      </trkpt>
      <trkpt lat="59.9044799" lon="17.61092">
        <ele>16.4797</ele>
        <time>2013-05-26T12:46:26Z</time>
      </trkpt>
      <trkpt lat="59.9044468" lon="17.6110236">
        <ele>16.4797</ele>
        <time>2013-05-26T12:46:27Z</time>
      </trkpt>
      <trkpt lat="59.9044064" lon="17.6111142">
        <ele>16.9604</ele>
        <time>2013-05-26T12:46:28Z</time>
      </trkpt>
      <trkpt lat="59.9043603" lon="17.611191">
        <ele>16.9604</ele>
        <time>2013-05-26T12:46:29Z</time>
      </trkpt>
      <trkpt lat="59.9043105" lon="17.6112608">
        <ele>16.9604</ele>
        <time>2013-05-26T12:46:30Z</time>
      </trkpt>
      <trkpt lat="59.9042586" lon="17.6113222">
        <ele>16.9604</ele>
        <time>2013-05-26T12:46:31Z</time>
      </trkpt>
      <trkpt lat="59.9042074" lon="17.6113877">
        <ele>16.9604</ele>
        <time>2013-05-26T12:46:32Z</time>
      </trkpt>
      <trkpt lat="59.9041562" lon="17.6114548">
        <ele>16.9604</ele>
        <time>2013-05-26T12:46:33Z</time>
      </trkpt>
      <trkpt lat="59.9041043" lon="17.6115234">
        <ele>16.9604</ele>
        <time>2013-05-26T12:46:34Z</time>
      </trkpt>
      <trkpt lat="59.9040536" lon="17.6115958">
        <ele>16.9604</ele>
        <time>2013-05-26T12:46:35Z</time>
      </trkpt>
      <trkpt lat="59.904007" lon="17.6116809">
        <ele>16.9604</ele>
        <time>2013-05-26T12:46:36Z</time>
      </trkpt>
      <trkpt lat="59.9039638" lon="17.6117737">
        <ele>16.9604</ele>
        <time>2013-05-26T12:46:37Z</time>
      </trkpt>
      <trkpt lat="59.9039246" lon="17.6118741">
        <ele>16.9604</ele>
        <time>2013-05-26T12:46:38Z</time>
      </trkpt>
      <trkpt lat="59.9038889" lon="17.6119818">
        <ele>16.9604</ele>
        <time>2013-05-26T12:46:39Z</time>
      </trkpt>
      <trkpt lat="59.9038577" lon="17.6120947">
        <ele>16.9604</ele>
        <time>2013-05-26T12:46:40Z</time>
      </trkpt>
      <trkpt lat="59.9038308" lon="17.6122119">
        <ele>17.4412</ele>
        <time>2013-05-26T12:46:41Z</time>
      </trkpt>
      <trkpt lat="59.9038078" lon="17.6123314">
        <ele>17.4412</ele>
        <time>2013-05-26T12:46:42Z</time>
      </trkpt>
      <trkpt lat="59.9037867" lon="17.6124507">
        <ele>16.9604</ele>
        <time>2013-05-26T12:46:43Z</time>
      </trkpt>
      <trkpt lat="59.9037648" lon="17.6125702">
        <ele>16.9604</ele>
        <time>2013-05-26T12:46:44Z</time>
      </trkpt>
      <trkpt lat="59.9037438" lon="17.6126828">
        <ele>16.4797</ele>
        <time>2013-05-26T12:46:45Z</time>
      </trkpt>
      <trkpt lat="59.9037222" lon="17.6127962">
        <ele>15.999</ele>
        <time>2013-05-26T12:46:46Z</time>
      </trkpt>
      <trkpt lat="59.9037008" lon="17.6129116">
        <ele>15.5184</ele>
        <time>2013-05-26T12:46:47Z</time>
      </trkpt>
      <trkpt lat="59.9036801" lon="17.6130276">
        <ele>15.0377</ele>
        <time>2013-05-26T12:46:48Z</time>
      </trkpt>
      <trkpt lat="59.9036595" lon="17.6131449">
        <ele>15.0377</ele>
        <time>2013-05-26T12:46:49Z</time>
      </trkpt>
      <trkpt lat="59.9036392" lon="17.6132601">
        <ele>14.557</ele>
        <time>2013-05-26T12:46:50Z</time>
      </trkpt>
      <trkpt lat="59.9036186" lon="17.6133748">
        <ele>14.0764</ele>
        <time>2013-05-26T12:46:51Z</time>
      </trkpt>
      <trkpt lat="59.9036003" lon="17.6134887">
        <ele>14.0764</ele>
        <time>2013-05-26T12:46:52Z</time>
      </trkpt>
      <trkpt lat="59.9035813" lon="17.6136023">
        <ele>14.0764</ele>
        <time>2013-05-26T12:46:53Z</time>
      </trkpt>
      <trkpt lat="59.9035637" lon="17.613717">
        <ele>14.557</ele>
        <time>2013-05-26T12:46:54Z</time>
      </trkpt>
      <trkpt lat="59.9035485" lon="17.6138307">
        <ele>14.557</ele>
        <time>2013-05-26T12:46:55Z</time>
      </trkpt>
      <trkpt lat="59.9035371" lon="17.6139426">
        <ele>14.557</ele>
        <time>2013-05-26T12:46:56Z</time>
      </trkpt>
      <trkpt lat="59.9035277" lon="17.6140544">
        <ele>15.0377</ele>
        <time>2013-05-26T12:46:57Z</time>
      </trkpt>
      <trkpt lat="59.9035206" lon="17.6141683">
        <ele>14.557</ele>
        <time>2013-05-26T12:46:58Z</time>
      </trkpt>
      <trkpt lat="59.9035144" lon="17.6142849">
        <ele>15.0377</ele>
        <time>2013-05-26T12:46:59Z</time>
      </trkpt>
      <trkpt lat="59.9035089" lon="17.614398">
        <ele>15.0377</ele>
        <time>2013-05-26T12:47:00Z</time>
      </trkpt>
      <trkpt lat="59.9035034" lon="17.6145129">
        <ele>15.0377</ele>
        <time>2013-05-26T12:47:01Z</time>
      </trkpt>
      <trkpt lat="59.9034992" lon="17.6146262">
        <ele>15.0377</ele>
        <time>2013-05-26T12:47:02Z</time>
      </trkpt>
      <trkpt lat="59.903495" lon="17.6147365">
        <ele>15.0377</ele>
        <time>2013-05-26T12:47:03Z</time>
      </trkpt>
      <trkpt lat="59.9034905" lon="17.6148494">
        <ele>15.5184</ele>
        <time>2013-05-26T12:47:04Z</time>
      </trkpt>
      <trkpt lat="59.9034844" lon="17.6149583">
        <ele>15.5184</ele>
        <time>2013-05-26T12:47:05Z</time>
      </trkpt>
      <trkpt lat="59.9034764" lon="17.6150678">
        <ele>15.0377</ele>
        <time>2013-05-26T12:47:06Z</time>
      </trkpt>
      <trkpt lat="59.9034671" lon="17.6151837">
        <ele>15.0377</ele>
        <time>2013-05-26T12:47:07Z</time>
      </trkpt>
      <trkpt lat="59.9034533" lon="17.6152899">
        <ele>15.0377</ele>
        <time>2013-05-26T12:47:08Z</time>
      </trkpt>
      <trkpt lat="59.9034364" lon="17.6153951">
        <ele>15.5184</ele>
        <time>2013-05-26T12:47:09Z</time>
      </trkpt>
      <trkpt lat="59.9034164" lon="17.615495">
        <ele>15.5184</ele>
        <time>2013-05-26T12:47:10Z</time>
      </trkpt>
      <trkpt lat="59.9033942" lon="17.6155958">
        <ele>15.5184</ele>
        <time>2013-05-26T12:47:11Z</time>
      </trkpt>
      <trkpt lat="59.9033692" lon="17.6156948">
        <ele>15.5184</ele>
        <time>2013-05-26T12:47:12Z</time>
      </trkpt>
      <trkpt lat="59.9033435" lon="17.6157933">
        <ele>15.5184</ele>
        <time>2013-05-26T12:47:13Z</time>
      </trkpt>
      <trkpt lat="59.9033168" lon="17.6158919">
        <ele>15.999</ele>
        <time>2013-05-26T12:47:14Z</time>
      </trkpt>
      <trkpt lat="59.9032881" lon="17.6159888">
        <ele>15.999</ele>
        <time>2013-05-26T12:47:15Z</time>
      </trkpt>
      <trkpt lat="59.9032582" lon="17.6160793">
        <ele>15.999</ele>
        <time>2013-05-26T12:47:16Z</time>
      </trkpt>
      <trkpt lat="59.9032298" lon="17.6161755">
        <ele>15.999</ele>
        <time>2013-05-26T12:47:17Z</time>
      </trkpt>
      <trkpt lat="59.9032018" lon="17.6162673">
        <ele>15.999</ele>
        <time>2013-05-26T12:47:18Z</time>
      </trkpt>
      <trkpt lat="59.9031745" lon="17.6163672">
        <ele>15.5184</ele>
        <time>2013-05-26T12:47:19Z</time>
      </trkpt>
      <trkpt lat="59.9031439" lon="17.6164667">
        <ele>15.5184</ele>
        <time>2013-05-26T12:47:20Z</time>
      </trkpt>
      <trkpt lat="59.9031144" lon="17.6165678">
        <ele>15.5184</ele>
        <time>2013-05-26T12:47:21Z</time>
      </trkpt>
      <trkpt lat="59.903084" lon="17.6166709">
        <ele>15.5184</ele>
        <time>2013-05-26T12:47:22Z</time>
      </trkpt>
      <trkpt lat="59.9030553" lon="17.6167829">
        <ele>15.5184</ele>
        <time>2013-05-26T12:47:23Z</time>
      </trkpt>
      <trkpt lat="59.9030263" lon="17.6168947">
        <ele>15.5184</ele>
        <time>2013-05-26T12:47:24Z</time>
      </trkpt>
      <trkpt lat="59.9029963" lon="17.6170064">
        <ele>15.999</ele>
        <time>2013-05-26T12:47:25Z</time>
      </trkpt>
      <trkpt lat="59.9029663" lon="17.6171117">
        <ele>15.5184</ele>
        <time>2013-05-26T12:47:26Z</time>
      </trkpt>
      <trkpt lat="59.9029353" lon="17.6172195">
        <ele>15.5184</ele>
        <time>2013-05-26T12:47:27Z</time>
      </trkpt>
      <trkpt lat="59.9029044" lon="17.6173303">
        <ele>15.5184</ele>
        <time>2013-05-26T12:47:28Z</time>
      </trkpt>
      <trkpt lat="59.902873" lon="17.6174432">
        <ele>15.0377</ele>
        <time>2013-05-26T12:47:29Z</time>
      </trkpt>
      <trkpt lat="59.9028405" lon="17.6175535">
        <ele>14.557</ele>
        <time>2013-05-26T12:47:30Z</time>
      </trkpt>
      <trkpt lat="59.9028067" lon="17.6176644">
        <ele>14.557</ele>
        <time>2013-05-26T12:47:31Z</time>
      </trkpt>
      <trkpt lat="59.902772" lon="17.6177761">
        <ele>14.557</ele>
        <time>2013-05-26T12:47:32Z</time>
      </trkpt>
      <trkpt lat="59.9027358" lon="17.617892">
        <ele>14.557</ele>
        <time>2013-05-26T12:47:33Z</time>
      </trkpt>
      <trkpt lat="59.9026973" lon="17.6180026">
        <ele>14.557</ele>
        <time>2013-05-26T12:47:34Z</time>
      </trkpt>
      <trkpt lat="59.902659" lon="17.6181136">
        <ele>14.557</ele>
        <time>2013-05-26T12:47:35Z</time>
      </trkpt>
      <trkpt lat="59.9026209" lon="17.6182234">
        <ele>14.0764</ele>
        <time>2013-05-26T12:47:36Z</time>
      </trkpt>
      <trkpt lat="59.9025825" lon="17.6183314">
        <ele>14.0764</ele>
        <time>2013-05-26T12:47:37Z</time>
      </trkpt>
      <trkpt lat="59.9025442" lon="17.618443">
        <ele>13.5958</ele>
        <time>2013-05-26T12:47:38Z</time>
      </trkpt>
      <trkpt lat="59.9025067" lon="17.6185553">
        <ele>13.1151</ele>
        <time>2013-05-26T12:47:39Z</time>
      </trkpt>
      <trkpt lat="59.902469" lon="17.6186652">
        <ele>13.1151</ele>
        <time>2013-05-26T12:47:40Z</time>
      </trkpt>
      <trkpt lat="59.9024308" lon="17.6187733">
        <ele>13.1151</ele>
        <time>2013-05-26T12:47:41Z</time>
      </trkpt>
      <trkpt lat="59.9023914" lon="17.6188816">
        <ele>13.1151</ele>
        <time>2013-05-26T12:47:42Z</time>
      </trkpt>
      <trkpt lat="59.9023486" lon="17.6189834">
        <ele>12.6344</ele>
        <time>2013-05-26T12:47:43Z</time>
      </trkpt>
      <trkpt lat="59.9023049" lon="17.6190808">
        <ele>12.1538</ele>
        <time>2013-05-26T12:47:44Z</time>
      </trkpt>
      <trkpt lat="59.9022598" lon="17.6191769">
        <ele>11.1925</ele>
        <time>2013-05-26T12:47:45Z</time>
      </trkpt>
      <trkpt lat="59.902216" lon="17.6192756">
        <ele>10.7118</ele>
        <time>2013-05-26T12:47:46Z</time>
      </trkpt>
      <trkpt lat="59.9021722" lon="17.6193769">
        <ele>10.2312</ele>
        <time>2013-05-26T12:47:47Z</time>
      </trkpt>
      <trkpt lat="59.902128" lon="17.6194795">
        <ele>10.2312</ele>
        <time>2013-05-26T12:47:48Z</time>
      </trkpt>
      <trkpt lat="59.9020836" lon="17.6195806">
        <ele>9.75061</ele>
        <time>2013-05-26T12:47:49Z</time>
      </trkpt>
      <trkpt lat="59.9020396" lon="17.6196826">
        <ele>9.2699</ele>
        <time>2013-05-26T12:47:50Z</time>
      </trkpt>
      <trkpt lat="59.9019964" lon="17.6197884">
        <ele>8.78918</ele>
        <time>2013-05-26T12:47:51Z</time>
      </trkpt>
      <trkpt lat="59.9019526" lon="17.6198939">
        <ele>8.78918</ele>
        <time>2013-05-26T12:47:52Z</time>
      </trkpt>
      <trkpt lat="59.9019094" lon="17.619997">
        <ele>8.30859</ele>
        <time>2013-05-26T12:47:53Z</time>
      </trkpt>
      <trkpt lat="59.9018679" lon="17.6201075">
        <ele>8.78918</ele>
        <time>2013-05-26T12:47:54Z</time>
      </trkpt>
      <trkpt lat="59.9018271" lon="17.6202168">
        <ele>8.78918</ele>
        <time>2013-05-26T12:47:55Z</time>
      </trkpt>
      <trkpt lat="59.9017871" lon="17.6203255">
        <ele>8.78918</ele>
        <time>2013-05-26T12:47:56Z</time>
      </trkpt>
      <trkpt lat="59.9017463" lon="17.6204299">
        <ele>8.78918</ele>
        <time>2013-05-26T12:47:57Z</time>
      </trkpt>
      <trkpt lat="59.9017055" lon="17.6205347">
        <ele>8.78918</ele>
        <time>2013-05-26T12:47:58Z</time>
      </trkpt>
      <trkpt lat="59.9016652" lon="17.6206399">
        <ele>8.78918</ele>
        <time>2013-05-26T12:47:59Z</time>
      </trkpt>
      <trkpt lat="59.9016257" lon="17.62075">
        <ele>8.78918</ele>
        <time>2013-05-26T12:48:00Z</time>
      </trkpt>
      <trkpt lat="59.9015872" lon="17.6208617">
        <ele>8.30859</ele>
        <time>2013-05-26T12:48:01Z</time>
      </trkpt>
      <trkpt lat="59.9015488" lon="17.6209725">
        <ele>8.30859</ele>
        <time>2013-05-26T12:48:02Z</time>
      </trkpt>
      <trkpt lat="59.9015138" lon="17.621088">
        <ele>8.30859</ele>
        <time>2013-05-26T12:48:03Z</time>
      </trkpt>
      <trkpt lat="59.9014802" lon="17.6212028">
        <ele>8.30859</ele>
        <time>2013-05-26T12:48:04Z</time>
      </trkpt>
      <trkpt lat="59.9014496" lon="17.6213217">
        <ele>8.78918</ele>
        <time>2013-05-26T12:48:05Z</time>
      </trkpt>
      <trkpt lat="59.9014179" lon="17.6214371">
        <ele>8.78918</ele>
        <time>2013-05-26T12:48:06Z</time>
      </trkpt>
      <trkpt lat="59.9013899" lon="17.6215493">
        <ele>8.78918</ele>
        <time>2013-05-26T12:48:07Z</time>
      </trkpt>
      <trkpt lat="59.9013628" lon="17.6216617">
        <ele>9.2699</ele>
        <time>2013-05-26T12:48:08Z</time>
      </trkpt>
      <trkpt lat="59.9013361" lon="17.6217707">
        <ele>8.78918</ele>
        <time>2013-05-26T12:48:09Z</time>
      </trkpt>
      <trkpt lat="59.9013087" lon="17.6218863">
        <ele>8.78918</ele>
        <time>2013-05-26T12:48:10Z</time>
      </trkpt>
      <trkpt lat="59.9012807" lon="17.6219984">
        <ele>8.78918</ele>
        <time>2013-05-26T12:48:11Z</time>
      </trkpt>
      <trkpt lat="59.901253" lon="17.6221084">
        <ele>9.2699</ele>
        <time>2013-05-26T12:48:12Z</time>
      </trkpt>
      <trkpt lat="59.9012268" lon="17.6222271">
        <ele>9.2699</ele>
        <time>2013-05-26T12:48:13Z</time>
      </trkpt>
      <trkpt lat="59.9012005" lon="17.6223447">
        <ele>9.2699</ele>
        <time>2013-05-26T12:48:14Z</time>
      </trkpt>
      <trkpt lat="59.901175" lon="17.6224616">
        <ele>8.78918</ele>
        <time>2013-05-26T12:48:15Z</time>
      </trkpt>
      <trkpt lat="59.9011499" lon="17.6225753">
        <ele>8.78918</ele>
        <time>2013-05-26T12:48:16Z</time>
      </trkpt>
      <trkpt lat="59.9011259" lon="17.6226877">
        <ele>8.78918</ele>
        <time>2013-05-26T12:48:17Z</time>
      </trkpt>
      <trkpt lat="59.9011013" lon="17.6227949">
        <ele>8.78918</ele>
        <time>2013-05-26T12:48:18Z</time>
      </trkpt>
      <trkpt lat="59.9010774" lon="17.6228987">
        <ele>8.78918</ele>
        <time>2013-05-26T12:48:19Z</time>
      </trkpt>
      <trkpt lat="59.9010543" lon="17.6230013">
        <ele>9.2699</ele>
        <time>2013-05-26T12:48:20Z</time>
      </trkpt>
      <trkpt lat="59.9010326" lon="17.6231056">
        <ele>9.75061</ele>
        <time>2013-05-26T12:48:21Z</time>
      </trkpt>
      <trkpt lat="59.9010091" lon="17.6232104">
        <ele>9.75061</ele>
        <time>2013-05-26T12:48:22Z</time>
      </trkpt>
      <trkpt lat="59.9009883" lon="17.6233152">
        <ele>10.2312</ele>
        <time>2013-05-26T12:48:23Z</time>
      </trkpt>
      <trkpt lat="59.9009676" lon="17.6234216">
        <ele>10.2312</ele>
        <time>2013-05-26T12:48:24Z</time>
      </trkpt>
      <trkpt lat="59.9009498" lon="17.6235304">
        <ele>10.7118</ele>
        <time>2013-05-26T12:48:25Z</time>
      </trkpt>
      <trkpt lat="59.9009324" lon="17.6236367">
        <ele>11.1925</ele>
        <time>2013-05-26T12:48:26Z</time>
      </trkpt>
      <trkpt lat="59.9009161" lon="17.6237391">
        <ele>11.1925</ele>
        <time>2013-05-26T12:48:27Z</time>
      </trkpt>
      <trkpt lat="59.900901" lon="17.6238425">
        <ele>11.1925</ele>
        <time>2013-05-26T12:48:28Z</time>
      </trkpt>
      <trkpt lat="59.900887" lon="17.6239448">
        <ele>11.1925</ele>
        <time>2013-05-26T12:48:29Z</time>
      </trkpt>
      <trkpt lat="59.9008721" lon="17.6240479">
        <ele>11.6732</ele>
        <time>2013-05-26T12:48:30Z</time>
      </trkpt>
      <trkpt lat="59.9008581" lon="17.6241484">
        <ele>11.1925</ele>
        <time>2013-05-26T12:48:31Z</time>
      </trkpt>
      <trkpt lat="59.9008454" lon="17.6242401">
        <ele>11.6732</ele>
        <time>2013-05-26T12:48:32Z</time>
      </trkpt>
      <trkpt lat="59.9008337" lon="17.6243322">
        <ele>12.1538</ele>
        <time>2013-05-26T12:48:33Z</time>
      </trkpt>
      <trkpt lat="59.9008257" lon="17.624426">
        <ele>12.6344</ele>
        <time>2013-05-26T12:48:34Z</time>
      </trkpt>
      <trkpt lat="59.9008159" lon="17.6245151">
        <ele>13.5958</ele>
        <time>2013-05-26T12:48:35Z</time>
      </trkpt>
      <trkpt lat="59.9008077" lon="17.6246021">
        <ele>14.0764</ele>
        <time>2013-05-26T12:48:36Z</time>
      </trkpt>
      <trkpt lat="59.9008013" lon="17.624688">
        <ele>14.557</ele>
        <time>2013-05-26T12:48:37Z</time>
      </trkpt>
      <trkpt lat="59.9007948" lon="17.6247711">
        <ele>14.557</ele>
        <time>2013-05-26T12:48:38Z</time>
      </trkpt>
      <trkpt lat="59.9007865" lon="17.6248538">
        <ele>15.5184</ele>
        <time>2013-05-26T12:48:39Z</time>
      </trkpt>
      <trkpt lat="59.9007781" lon="17.6249456">
        <ele>15.999</ele>
        <time>2013-05-26T12:48:40Z</time>
      </trkpt>
      <trkpt lat="59.9007705" lon="17.6250358">
        <ele>16.4797</ele>
        <time>2013-05-26T12:48:41Z</time>
      </trkpt>
      <trkpt lat="59.9007615" lon="17.625135">
        <ele>16.9604</ele>
        <time>2013-05-26T12:48:42Z</time>
      </trkpt>
      <trkpt lat="59.9007573" lon="17.6252282">
        <ele>17.4412</ele>
        <time>2013-05-26T12:48:43Z</time>
      </trkpt>
      <trkpt lat="59.9007539" lon="17.6253362">
        <ele>17.4412</ele>
        <time>2013-05-26T12:48:44Z</time>
      </trkpt>
      <trkpt lat="59.9007526" lon="17.6254515">
        <ele>18.8831</ele>
        <time>2013-05-26T12:48:45Z</time>
      </trkpt>
      <trkpt lat="59.9007535" lon="17.6255776">
        <ele>19.8444</ele>
        <time>2013-05-26T12:48:46Z</time>
      </trkpt>
      <trkpt lat="59.9007507" lon="17.6256994">
        <ele>20.325</ele>
        <time>2013-05-26T12:48:47Z</time>
      </trkpt>
      <trkpt lat="59.9007445" lon="17.625823">
        <ele>20.325</ele>
        <time>2013-05-26T12:48:48Z</time>
      </trkpt>
      <trkpt lat="59.9007364" lon="17.6259329">
        <ele>20.325</ele>
        <time>2013-05-26T12:48:49Z</time>
      </trkpt>
      <trkpt lat="59.9007331" lon="17.6260462">
        <ele>20.325</ele>
        <time>2013-05-26T12:48:50Z</time>
      </trkpt>
      <trkpt lat="59.9007305" lon="17.6261608">
        <ele>19.8444</ele>
        <time>2013-05-26T12:48:51Z</time>
      </trkpt>
      <trkpt lat="59.900734" lon="17.6262731">
        <ele>19.8444</ele>
        <time>2013-05-26T12:48:52Z</time>
      </trkpt>
      <trkpt lat="59.9007394" lon="17.6263774">
        <ele>19.3638</ele>
        <time>2013-05-26T12:48:53Z</time>
      </trkpt>
      <trkpt lat="59.9007472" lon="17.6264805">
        <ele>18.8831</ele>
        <time>2013-05-26T12:48:54Z</time>
      </trkpt>
      <trkpt lat="59.9007584" lon="17.6265944">
        <ele>18.8831</ele>
        <time>2013-05-26T12:48:55Z</time>
      </trkpt>
      <trkpt lat="59.9007746" lon="17.6267082">
        <ele>18.8831</ele>
        <time>2013-05-26T12:48:56Z</time>
      </trkpt>
      <trkpt lat="59.9007959" lon="17.6268233">
        <ele>18.8831</ele>
        <time>2013-05-26T12:48:57Z</time>
      </trkpt>
      <trkpt lat="59.9008215" lon="17.6269403">
        <ele>18.8831</ele>
        <time>2013-05-26T12:48:58Z</time>
      </trkpt>
      <trkpt lat="59.9008507" lon="17.6270607">
        <ele>18.8831</ele>
        <time>2013-05-26T12:48:59Z</time>
      </trkpt>
      <trkpt lat="59.9008829" lon="17.6271923">
        <ele>18.4023</ele>
        <time>2013-05-26T12:49:00Z</time>
      </trkpt>
      <trkpt lat="59.9009148" lon="17.6273208">
        <ele>17.9218</ele>
        <time>2013-05-26T12:49:01Z</time>
      </trkpt>
      <trkpt lat="59.900944" lon="17.6274367">
        <ele>17.9218</ele>
        <time>2013-05-26T12:49:02Z</time>
      </trkpt>
      <trkpt lat="59.9009816" lon="17.6275621">
        <ele>17.4412</ele>
        <time>2013-05-26T12:49:03Z</time>
      </trkpt>
      <trkpt lat="59.9010154" lon="17.6276817">
        <ele>17.4412</ele>
        <time>2013-05-26T12:49:04Z</time>
      </trkpt>
      <trkpt lat="59.9010477" lon="17.6278066">
        <ele>16.9604</ele>
        <time>2013-05-26T12:49:05Z</time>
      </trkpt>
      <trkpt lat="59.9010797" lon="17.6279315">
        <ele>17.4412</ele>
        <time>2013-05-26T12:49:06Z</time>
      </trkpt>
      <trkpt lat="59.9011114" lon="17.6280573">
        <ele>17.4412</ele>
        <time>2013-05-26T12:49:07Z</time>
      </trkpt>
      <trkpt lat="59.9011408" lon="17.6281857">
        <ele>17.4412</ele>
        <time>2013-05-26T12:49:08Z</time>
      </trkpt>
      <trkpt lat="59.9011755" lon="17.628322">
        <ele>17.9218</ele>
        <time>2013-05-26T12:49:09Z</time>
      </trkpt>
      <trkpt lat="59.9012033" lon="17.6284483">
        <ele>17.9218</ele>
        <time>2013-05-26T12:49:10Z</time>
      </trkpt>
      <trkpt lat="59.9012314" lon="17.6285891">
        <ele>17.9218</ele>
        <time>2013-05-26T12:49:11Z</time>
      </trkpt>
      <trkpt lat="59.9012579" lon="17.6287282">
        <ele>18.4023</ele>
        <time>2013-05-26T12:49:12Z</time>
      </trkpt>
      <trkpt lat="59.9012772" lon="17.6288633">
        <ele>18.8831</ele>
        <time>2013-05-26T12:49:13Z</time>
      </trkpt>
      <trkpt lat="59.9012939" lon="17.6289989">
        <ele>18.8831</ele>
        <time>2013-05-26T12:49:14Z</time>
      </trkpt>
      <trkpt lat="59.9013062" lon="17.6291342">
        <ele>19.3638</ele>
        <time>2013-05-26T12:49:15Z</time>
      </trkpt>
      <trkpt lat="59.9013164" lon="17.6292718">
        <ele>19.3638</ele>
        <time>2013-05-26T12:49:16Z</time>
      </trkpt>
      <trkpt lat="59.9013257" lon="17.6294103">
        <ele>19.8444</ele>
        <time>2013-05-26T12:49:17Z</time>
      </trkpt>
      <trkpt lat="59.9013329" lon="17.6295456">
        <ele>20.325</ele>
        <time>2013-05-26T12:49:18Z</time>
      </trkpt>
      <trkpt lat="59.9013437" lon="17.6296855">
        <ele>20.8057</ele>
        <time>2013-05-26T12:49:19Z</time>
      </trkpt>
      <trkpt lat="59.9013542" lon="17.6298191">
        <ele>20.8057</ele>
        <time>2013-05-26T12:49:20Z</time>
      </trkpt>
      <trkpt lat="59.9013629" lon="17.6299496">
        <ele>21.2864</ele>
        <time>2013-05-26T12:49:21Z</time>
      </trkpt>
      <trkpt lat="59.9013711" lon="17.6300744">
        <ele>21.767</ele>
        <time>2013-05-26T12:49:22Z</time>
      </trkpt>
      <trkpt lat="59.9013781" lon="17.6301961">
        <ele>21.767</ele>
        <time>2013-05-26T12:49:23Z</time>
      </trkpt>
      <trkpt lat="59.9013868" lon="17.6303174">
        <ele>22.2476</ele>
        <time>2013-05-26T12:49:24Z</time>
      </trkpt>
      <trkpt lat="59.901391" lon="17.6304381">
        <ele>22.2476</ele>
        <time>2013-05-26T12:49:25Z</time>
      </trkpt>
      <trkpt lat="59.9013921" lon="17.630552">
        <ele>22.2476</ele>
        <time>2013-05-26T12:49:26Z</time>
      </trkpt>
      <trkpt lat="59.9013918" lon="17.6306675">
        <ele>21.767</ele>
        <time>2013-05-26T12:49:27Z</time>
      </trkpt>
      <trkpt lat="59.9013896" lon="17.6307823">
        <ele>21.767</ele>
        <time>2013-05-26T12:49:28Z</time>
      </trkpt>
      <trkpt lat="59.9013838" lon="17.6308966">
        <ele>21.767</ele>
        <time>2013-05-26T12:49:29Z</time>
      </trkpt>
      <trkpt lat="59.9013754" lon="17.6310084">
        <ele>20.8057</ele>
        <time>2013-05-26T12:49:30Z</time>
      </trkpt>
      <trkpt lat="59.9013625" lon="17.6311237">
        <ele>20.325</ele>
        <time>2013-05-26T12:49:31Z</time>
      </trkpt>
      <trkpt lat="59.901351" lon="17.6312348">
        <ele>20.8057</ele>
        <time>2013-05-26T12:49:32Z</time>
      </trkpt>
      <trkpt lat="59.9013361" lon="17.6313346">
        <ele>20.325</ele>
        <time>2013-05-26T12:49:33Z</time>
      </trkpt>
      <trkpt lat="59.9013206" lon="17.631433">
        <ele>19.3638</ele>
        <time>2013-05-26T12:49:34Z</time>
      </trkpt>
      <trkpt lat="59.9013014" lon="17.6315378">
        <ele>19.3638</ele>
        <time>2013-05-26T12:49:35Z</time>
      </trkpt>
      <trkpt lat="59.9012807" lon="17.6316414">
        <ele>19.3638</ele>
        <time>2013-05-26T12:49:36Z</time>
      </trkpt>
      <trkpt lat="59.9012573" lon="17.6317398">
        <ele>18.8831</ele>
        <time>2013-05-26T12:49:37Z</time>
      </trkpt>
      <trkpt lat="59.9012315" lon="17.6318259">
        <ele>18.4023</ele>
        <time>2013-05-26T12:49:38Z</time>
      </trkpt>
      <trkpt lat="59.9012061" lon="17.6319113">
        <ele>17.9218</ele>
        <time>2013-05-26T12:49:39Z</time>
      </trkpt>
      <trkpt lat="59.9011781" lon="17.6320035">
        <ele>17.9218</ele>
        <time>2013-05-26T12:49:40Z</time>
      </trkpt>
      <trkpt lat="59.9011455" lon="17.6320962">
        <ele>16.4797</ele>
        <time>2013-05-26T12:49:41Z</time>
      </trkpt>
      <trkpt lat="59.9011109" lon="17.6321911">
        <ele>15.999</ele>
        <time>2013-05-26T12:49:42Z</time>
      </trkpt>
      <trkpt lat="59.901071" lon="17.632278">
        <ele>15.0377</ele>
        <time>2013-05-26T12:49:43Z</time>
      </trkpt>
      <trkpt lat="59.9010301" lon="17.6323692">
        <ele>15.0377</ele>
        <time>2013-05-26T12:49:44Z</time>
      </trkpt>
      <trkpt lat="59.9009866" lon="17.6324582">
        <ele>14.0764</ele>
        <time>2013-05-26T12:49:45Z</time>
      </trkpt>
      <trkpt lat="59.9009417" lon="17.6325462">
        <ele>14.0764</ele>
        <time>2013-05-26T12:49:46Z</time>
      </trkpt>
      <trkpt lat="59.9008958" lon="17.6326332">
        <ele>13.5958</ele>
        <time>2013-05-26T12:49:47Z</time>
      </trkpt>
      <trkpt lat="59.9008502" lon="17.6327214">
        <ele>13.5958</ele>
        <time>2013-05-26T12:49:48Z</time>
      </trkpt>
      <trkpt lat="59.9008026" lon="17.6328059">
        <ele>13.1151</ele>
        <time>2013-05-26T12:49:49Z</time>
      </trkpt>
      <trkpt lat="59.9007544" lon="17.632893">
        <ele>13.1151</ele>
        <time>2013-05-26T12:49:50Z</time>
      </trkpt>
      <trkpt lat="59.9007026" lon="17.6329706">
        <ele>12.6344</ele>
        <time>2013-05-26T12:49:51Z</time>
      </trkpt>
      <trkpt lat="59.9006497" lon="17.6330587">
        <ele>12.6344</ele>
        <time>2013-05-26T12:49:52Z</time>
      </trkpt>
      <trkpt lat="59.9005948" lon="17.6331457">
        <ele>13.5958</ele>
        <time>2013-05-26T12:49:53Z</time>
      </trkpt>
      <trkpt lat="59.9005408" lon="17.6332185">
        <ele>13.1151</ele>
        <time>2013-05-26T12:49:54Z</time>
      </trkpt>
      <trkpt lat="59.9004881" lon="17.6332933">
        <ele>12.6344</ele>
        <time>2013-05-26T12:49:55Z</time>
      </trkpt>
      <trkpt lat="59.90043" lon="17.6333577">
        <ele>12.6344</ele>
        <time>2013-05-26T12:49:56Z</time>
      </trkpt>
      <trkpt lat="59.9003709" lon="17.6334233">
        <ele>12.1538</ele>
        <time>2013-05-26T12:49:57Z</time>
      </trkpt>
      <trkpt lat="59.9003167" lon="17.6334943">
        <ele>12.1538</ele>
        <time>2013-05-26T12:49:58Z</time>
      </trkpt>
      <trkpt lat="59.9002623" lon="17.6335565">
        <ele>13.1151</ele>
        <time>2013-05-26T12:49:59Z</time>
      </trkpt>
      <trkpt lat="59.9002067" lon="17.6336078">
        <ele>13.1151</ele>
        <time>2013-05-26T12:50:00Z</time>
      </trkpt>
      <trkpt lat="59.9001531" lon="17.6336694">
        <ele>13.5958</ele>
        <time>2013-05-26T12:50:01Z</time>
      </trkpt>
      <trkpt lat="59.9000986" lon="17.6337325">
        <ele>14.557</ele>
        <time>2013-05-26T12:50:02Z</time>
      </trkpt>
      <trkpt lat="59.9000433" lon="17.6337963">
        <ele>15.999</ele>
        <time>2013-05-26T12:50:03Z</time>
      </trkpt>
      <trkpt lat="59.8999872" lon="17.6338362">
        <ele>16.9604</ele>
        <time>2013-05-26T12:50:04Z</time>
      </trkpt>
      <trkpt lat="59.8999318" lon="17.633874">
        <ele>16.9604</ele>
        <time>2013-05-26T12:50:05Z</time>
      </trkpt>
      <trkpt lat="59.8998762" lon="17.6339113">
        <ele>17.4412</ele>
        <time>2013-05-26T12:50:06Z</time>
      </trkpt>
      <trkpt lat="59.8998261" lon="17.6339437">
        <ele>17.9218</ele>
        <time>2013-05-26T12:50:07Z</time>
      </trkpt>
      <trkpt lat="59.8997774" lon="17.6339652">
        <ele>18.8831</ele>
        <time>2013-05-26T12:50:08Z</time>
      </trkpt>
      <trkpt lat="59.8997316" lon="17.6339807">
        <ele>20.325</ele>
        <time>2013-05-26T12:50:09Z</time>
      </trkpt>
      <trkpt lat="59.8996904" lon="17.6339911">
        <ele>20.8057</ele>
        <time>2013-05-26T12:50:10Z</time>
      </trkpt>
      <trkpt lat="59.8996436" lon="17.6340043">
        <ele>21.2864</ele>
        <time>2013-05-26T12:50:11Z</time>
      </trkpt>
      <trkpt lat="59.8995965" lon="17.6340349">
        <ele>20.8057</ele>
        <time>2013-05-26T12:50:12Z</time>
      </trkpt>
      <trkpt lat="59.8995457" lon="17.6340464">
        <ele>21.2864</ele>
        <time>2013-05-26T12:50:13Z</time>
      </trkpt>
      <trkpt lat="59.8995003" lon="17.6340495">
        <ele>20.325</ele>
        <time>2013-05-26T12:50:14Z</time>
      </trkpt>
      <trkpt lat="59.899454" lon="17.6340652">
        <ele>19.3638</ele>
        <time>2013-05-26T12:50:15Z</time>
      </trkpt>
      <trkpt lat="59.8993935" lon="17.6340955">
        <ele>19.3638</ele>
        <time>2013-05-26T12:50:16Z</time>
      </trkpt>
      <trkpt lat="59.8993289" lon="17.634118">
        <ele>18.4023</ele>
        <time>2013-05-26T12:50:17Z</time>
      </trkpt>
      <trkpt lat="59.8992677" lon="17.6341527">
        <ele>18.8831</ele>
        <time>2013-05-26T12:50:18Z</time>
      </trkpt>
      <trkpt lat="59.8992059" lon="17.634191">
        <ele>18.8831</ele>
        <time>2013-05-26T12:50:19Z</time>
      </trkpt>
      <trkpt lat="59.899145" lon="17.6342157">
        <ele>18.8831</ele>
        <time>2013-05-26T12:50:20Z</time>
      </trkpt>
      <trkpt lat="59.8990862" lon="17.6342475">
        <ele>19.3638</ele>
        <time>2013-05-26T12:50:21Z</time>
      </trkpt>
      <trkpt lat="59.8990315" lon="17.6342649">
        <ele>18.8831</ele>
        <time>2013-05-26T12:50:22Z</time>
      </trkpt>
      <trkpt lat="59.8989724" lon="17.6343092">
        <ele>18.8831</ele>
        <time>2013-05-26T12:50:23Z</time>
      </trkpt>
      <trkpt lat="59.8989165" lon="17.6343307">
        <ele>18.4023</ele>
        <time>2013-05-26T12:50:24Z</time>
      </trkpt>
      <trkpt lat="59.8988682" lon="17.6343313">
        <ele>17.9218</ele>
        <time>2013-05-26T12:50:25Z</time>
      </trkpt>
      <trkpt lat="59.8988145" lon="17.6343491">
        <ele>17.4412</ele>
        <time>2013-05-26T12:50:26Z</time>
      </trkpt>
      <trkpt lat="59.8987622" lon="17.6343558">
        <ele>16.9604</ele>
        <time>2013-05-26T12:50:27Z</time>
      </trkpt>
      <trkpt lat="59.8987062" lon="17.6343686">
        <ele>17.4412</ele>
        <time>2013-05-26T12:50:28Z</time>
      </trkpt>
      <trkpt lat="59.8986508" lon="17.6343815">
        <ele>16.9604</ele>
        <time>2013-05-26T12:50:29Z</time>
      </trkpt>
      <trkpt lat="59.8986009" lon="17.6343786">
        <ele>16.9604</ele>
        <time>2013-05-26T12:50:30Z</time>
      </trkpt>
      <trkpt lat="59.8985518" lon="17.634377">
        <ele>16.4797</ele>
        <time>2013-05-26T12:50:31Z</time>
      </trkpt>
      <trkpt lat="59.8985066" lon="17.6343778">
        <ele>15.999</ele>
        <time>2013-05-26T12:50:32Z</time>
      </trkpt>
      <trkpt lat="59.8984637" lon="17.6343885">
        <ele>15.999</ele>
        <time>2013-05-26T12:50:33Z</time>
      </trkpt>
      <trkpt lat="59.898426" lon="17.6343985">
        <ele>15.5184</ele>
        <time>2013-05-26T12:50:34Z</time>
      </trkpt>
      <trkpt lat="59.8983902" lon="17.6344147">
        <ele>15.0377</ele>
        <time>2013-05-26T12:50:35Z</time>
      </trkpt>
      <trkpt lat="59.8983611" lon="17.6344296">
        <ele>15.0377</ele>
        <time>2013-05-26T12:50:36Z</time>
      </trkpt>
      <trkpt lat="59.8983333" lon="17.6344345">
        <ele>14.557</ele>
        <time>2013-05-26T12:50:37Z</time>
      </trkpt>
      <trkpt lat="59.8983107" lon="17.6344318">
        <ele>15.0377</ele>
        <time>2013-05-26T12:50:38Z</time>
      </trkpt>
      <trkpt lat="59.8982903" lon="17.6344287">
        <ele>14.557</ele>
        <time>2013-05-26T12:50:39Z</time>
      </trkpt>
      <trkpt lat="59.898272" lon="17.6344341">
        <ele>14.557</ele>
        <time>2013-05-26T12:50:40Z</time>
      </trkpt>
      <trkpt lat="59.8982501" lon="17.6344495">
        <ele>14.557</ele>
        <time>2013-05-26T12:50:41Z</time>
      </trkpt>
      <trkpt lat="59.8982332" lon="17.6344567">
        <ele>14.0764</ele>
        <time>2013-05-26T12:50:42Z</time>
      </trkpt>
      <trkpt lat="59.8982198" lon="17.6344678">
        <ele>14.0764</ele>
        <time>2013-05-26T12:50:43Z</time>
      </trkpt>
      <trkpt lat="59.8982032" lon="17.63448">
        <ele>14.0764</ele>
        <time>2013-05-26T12:50:44Z</time>
      </trkpt>
      <trkpt lat="59.8981901" lon="17.6344898">
        <ele>14.0764</ele>
        <time>2013-05-26T12:50:45Z</time>
      </trkpt>
      <trkpt lat="59.8981722" lon="17.6345009">
        <ele>14.557</ele>
        <time>2013-05-26T12:50:46Z</time>
      </trkpt>
      <trkpt lat="59.8981522" lon="17.6345102">
        <ele>15.0377</ele>
        <time>2013-05-26T12:50:47Z</time>
      </trkpt>
      <trkpt lat="59.8981373" lon="17.6345329">
        <ele>14.557</ele>
        <time>2013-05-26T12:50:48Z</time>
      </trkpt>
      <trkpt lat="59.8981224" lon="17.634562">
        <ele>14.0764</ele>
        <time>2013-05-26T12:50:49Z</time>
      </trkpt>
      <trkpt lat="59.8981032" lon="17.6346065">
        <ele>14.557</ele>
        <time>2013-05-26T12:50:50Z</time>
      </trkpt>
      <trkpt lat="59.8980805" lon="17.6346641">
        <ele>15.0377</ele>
        <time>2013-05-26T12:50:51Z</time>
      </trkpt>
      <trkpt lat="59.8980483" lon="17.6347342">
        <ele>15.999</ele>
        <time>2013-05-26T12:50:52Z</time>
      </trkpt>
      <trkpt lat="59.898012" lon="17.6348158">
        <ele>15.999</ele>
        <time>2013-05-26T12:50:53Z</time>
      </trkpt>
      <trkpt lat="59.897969" lon="17.634896">
        <ele>16.9604</ele>
        <time>2013-05-26T12:50:54Z</time>
      </trkpt>
      <trkpt lat="59.8979219" lon="17.6349669">
        <ele>16.9604</ele>
        <time>2013-05-26T12:50:55Z</time>
      </trkpt>
      <trkpt lat="59.8978756" lon="17.6350331">
        <ele>17.4412</ele>
        <time>2013-05-26T12:50:56Z</time>
      </trkpt>
      <trkpt lat="59.897831" lon="17.6350945">
        <ele>17.4412</ele>
        <time>2013-05-26T12:50:57Z</time>
      </trkpt>
      <trkpt lat="59.8977865" lon="17.6351461">
        <ele>18.4023</ele>
        <time>2013-05-26T12:50:58Z</time>
      </trkpt>
      <trkpt lat="59.8977447" lon="17.635212">
        <ele>18.8831</ele>
        <time>2013-05-26T12:50:59Z</time>
      </trkpt>
      <trkpt lat="59.897709" lon="17.6352926">
        <ele>18.8831</ele>
        <time>2013-05-26T12:51:00Z</time>
      </trkpt>
      <trkpt lat="59.89767" lon="17.6353787">
        <ele>19.8444</ele>
        <time>2013-05-26T12:51:01Z</time>
      </trkpt>
      <trkpt lat="59.8976345" lon="17.6354662">
        <ele>20.325</ele>
        <time>2013-05-26T12:51:02Z</time>
      </trkpt>
      <trkpt lat="59.8976032" lon="17.635555">
        <ele>20.325</ele>
        <time>2013-05-26T12:51:03Z</time>
      </trkpt>
      <trkpt lat="59.8975703" lon="17.6356524">
        <ele>20.325</ele>
        <time>2013-05-26T12:51:04Z</time>
      </trkpt>
      <trkpt lat="59.8975411" lon="17.6357575">
        <ele>20.325</ele>
        <time>2013-05-26T12:51:05Z</time>
      </trkpt>
      <trkpt lat="59.8975127" lon="17.6358506">
        <ele>20.8057</ele>
        <time>2013-05-26T12:51:06Z</time>
      </trkpt>
      <trkpt lat="59.8974845" lon="17.6359481">
        <ele>20.325</ele>
        <time>2013-05-26T12:51:07Z</time>
      </trkpt>
      <trkpt lat="59.8974517" lon="17.6360345">
        <ele>20.325</ele>
        <time>2013-05-26T12:51:08Z</time>
      </trkpt>
      <trkpt lat="59.8974148" lon="17.6361104">
        <ele>21.2864</ele>
        <time>2013-05-26T12:51:09Z</time>
      </trkpt>
      <trkpt lat="59.8973785" lon="17.6361786">
        <ele>22.2476</ele>
        <time>2013-05-26T12:51:10Z</time>
      </trkpt>
      <trkpt lat="59.8973485" lon="17.6362347">
        <ele>22.2476</ele>
        <time>2013-05-26T12:51:11Z</time>
      </trkpt>
      <trkpt lat="59.8973187" lon="17.6362839">
        <ele>22.7283</ele>
        <time>2013-05-26T12:51:12Z</time>
      </trkpt>
      <trkpt lat="59.8972925" lon="17.6363269">
        <ele>23.209</ele>
        <time>2013-05-26T12:51:13Z</time>
      </trkpt>
      <trkpt lat="59.8972697" lon="17.6363694">
        <ele>23.6896</ele>
        <time>2013-05-26T12:51:14Z</time>
      </trkpt>
      <trkpt lat="59.8972464" lon="17.6364152">
        <ele>24.1703</ele>
        <time>2013-05-26T12:51:15Z</time>
      </trkpt>
      <trkpt lat="59.8972253" lon="17.6364569">
        <ele>24.651</ele>
        <time>2013-05-26T12:51:16Z</time>
      </trkpt>
      <trkpt lat="59.8972111" lon="17.6365086">
        <ele>24.651</ele>
        <time>2013-05-26T12:51:17Z</time>
      </trkpt>
      <trkpt lat="59.8971991" lon="17.6365608">
        <ele>25.1317</ele>
        <time>2013-05-26T12:51:18Z</time>
      </trkpt>
      <trkpt lat="59.897188" lon="17.6366102">
        <ele>25.1317</ele>
        <time>2013-05-26T12:51:19Z</time>
      </trkpt>
      <trkpt lat="59.8971761" lon="17.6366498">
        <ele>25.6123</ele>
        <time>2013-05-26T12:51:20Z</time>
      </trkpt>
      <trkpt lat="59.8971641" lon="17.6366785">
        <ele>25.6123</ele>
        <time>2013-05-26T12:51:21Z</time>
      </trkpt>
      <trkpt lat="59.8971546" lon="17.636703">
        <ele>26.0929</ele>
        <time>2013-05-26T12:51:22Z</time>
      </trkpt>
      <trkpt lat="59.8971469" lon="17.6367281">
        <ele>25.6123</ele>
        <time>2013-05-26T12:51:23Z</time>
      </trkpt>
      <trkpt lat="59.8971403" lon="17.636764">
        <ele>25.6123</ele>
        <time>2013-05-26T12:51:24Z</time>
      </trkpt>
      <trkpt lat="59.8971423" lon="17.6368016">
        <ele>25.6123</ele>
        <time>2013-05-26T12:51:25Z</time>
      </trkpt>
      <trkpt lat="59.897149" lon="17.6368463">
        <ele>25.6123</ele>
        <time>2013-05-26T12:51:26Z</time>
      </trkpt>
      <trkpt lat="59.8971618" lon="17.6368824">
        <ele>26.0929</ele>
        <time>2013-05-26T12:51:27Z</time>
      </trkpt>
      <trkpt lat="59.8971897" lon="17.6369021">
        <ele>26.5736</ele>
        <time>2013-05-26T12:51:28Z</time>
      </trkpt>
      <trkpt lat="59.897223" lon="17.6369246">
        <ele>26.0929</ele>
        <time>2013-05-26T12:51:29Z</time>
      </trkpt>
      <trkpt lat="59.8972563" lon="17.6369474">
        <ele>24.651</ele>
        <time>2013-05-26T12:51:30Z</time>
      </trkpt>
      <trkpt lat="59.8972915" lon="17.6369643">
        <ele>24.1703</ele>
        <time>2013-05-26T12:51:31Z</time>
      </trkpt>
      <trkpt lat="59.8973278" lon="17.6369873">
        <ele>23.6896</ele>
        <time>2013-05-26T12:51:32Z</time>
      </trkpt>
      <trkpt lat="59.897366" lon="17.6370158">
        <ele>23.6896</ele>
        <time>2013-05-26T12:51:33Z</time>
      </trkpt>
      <trkpt lat="59.8974018" lon="17.637052">
        <ele>23.209</ele>
        <time>2013-05-26T12:51:34Z</time>
      </trkpt>
      <trkpt lat="59.897441" lon="17.6371011">
        <ele>22.7283</ele>
        <time>2013-05-26T12:51:35Z</time>
      </trkpt>
      <trkpt lat="59.8974821" lon="17.6371462">
        <ele>22.2476</ele>
        <time>2013-05-26T12:51:36Z</time>
      </trkpt>
      <trkpt lat="59.8975231" lon="17.6371877">
        <ele>21.2864</ele>
        <time>2013-05-26T12:51:37Z</time>
      </trkpt>
      <trkpt lat="59.897565" lon="17.6372288">
        <ele>20.8057</ele>
        <time>2013-05-26T12:51:38Z</time>
      </trkpt>
      <trkpt lat="59.8976075" lon="17.6372681">
        <ele>20.325</ele>
        <time>2013-05-26T12:51:39Z</time>
      </trkpt>
      <trkpt lat="59.8976494" lon="17.6373124">
        <ele>19.3638</ele>
        <time>2013-05-26T12:51:40Z</time>
      </trkpt>
      <trkpt lat="59.8976873" lon="17.6373741">
        <ele>18.8831</ele>
        <time>2013-05-26T12:51:41Z</time>
      </trkpt>
      <trkpt lat="59.8977219" lon="17.6374519">
        <ele>18.8831</ele>
        <time>2013-05-26T12:51:42Z</time>
      </trkpt>
      <trkpt lat="59.8977559" lon="17.6375312">
        <ele>18.8831</ele>
        <time>2013-05-26T12:51:43Z</time>
      </trkpt>
      <trkpt lat="59.897794" lon="17.6376051">
        <ele>18.8831</ele>
        <time>2013-05-26T12:51:44Z</time>
      </trkpt>
      <trkpt lat="59.8978348" lon="17.6376755">
        <ele>19.3638</ele>
        <time>2013-05-26T12:51:45Z</time>
      </trkpt>
      <trkpt lat="59.8978773" lon="17.6377435">
        <ele>19.3638</ele>
        <time>2013-05-26T12:51:46Z</time>
      </trkpt>
      <trkpt lat="59.8979214" lon="17.6378069">
        <ele>19.8444</ele>
        <time>2013-05-26T12:51:47Z</time>
      </trkpt>
      <trkpt lat="59.8979665" lon="17.6378642">
        <ele>19.8444</ele>
        <time>2013-05-26T12:51:48Z</time>
      </trkpt>
      <trkpt lat="59.8980123" lon="17.637914">
        <ele>19.3638</ele>
        <time>2013-05-26T12:51:49Z</time>
      </trkpt>
      <trkpt lat="59.8980587" lon="17.6379594">
        <ele>19.3638</ele>
        <time>2013-05-26T12:51:50Z</time>
      </trkpt>
      <trkpt lat="59.8981053" lon="17.6380014">
        <ele>19.3638</ele>
        <time>2013-05-26T12:51:51Z</time>
      </trkpt>
      <trkpt lat="59.8981517" lon="17.6380405">
        <ele>19.3638</ele>
        <time>2013-05-26T12:51:52Z</time>
      </trkpt>
      <trkpt lat="59.8981971" lon="17.6380816">
        <ele>18.8831</ele>
        <time>2013-05-26T12:51:53Z</time>
      </trkpt>
      <trkpt lat="59.8982427" lon="17.6381273">
        <ele>18.8831</ele>
        <time>2013-05-26T12:51:54Z</time>
      </trkpt>
      <trkpt lat="59.8982887" lon="17.6381726">
        <ele>18.8831</ele>
        <time>2013-05-26T12:51:55Z</time>
      </trkpt>
      <trkpt lat="59.898334" lon="17.6382123">
        <ele>18.8831</ele>
        <time>2013-05-26T12:51:56Z</time>
      </trkpt>
      <trkpt lat="59.8983778" lon="17.6382496">
        <ele>18.8831</ele>
        <time>2013-05-26T12:51:57Z</time>
      </trkpt>
      <trkpt lat="59.8984208" lon="17.6382875">
        <ele>18.4023</ele>
        <time>2013-05-26T12:51:58Z</time>
      </trkpt>
      <trkpt lat="59.8984628" lon="17.6383223">
        <ele>18.4023</ele>
        <time>2013-05-26T12:51:59Z</time>
      </trkpt>
      <trkpt lat="59.8985046" lon="17.6383526">
        <ele>18.4023</ele>
        <time>2013-05-26T12:52:00Z</time>
      </trkpt>
      <trkpt lat="59.8985487" lon="17.6383763">
        <ele>17.9218</ele>
        <time>2013-05-26T12:52:01Z</time>
      </trkpt>
      <trkpt lat="59.8985962" lon="17.6383863">
        <ele>17.9218</ele>
        <time>2013-05-26T12:52:02Z</time>
      </trkpt>
      <trkpt lat="59.8986488" lon="17.6383756">
        <ele>18.4023</ele>
        <time>2013-05-26T12:52:03Z</time>
      </trkpt>
      <trkpt lat="59.8987051" lon="17.6383557">
        <ele>18.8831</ele>
        <time>2013-05-26T12:52:04Z</time>
      </trkpt>
      <trkpt lat="59.8987631" lon="17.6383418">
        <ele>19.3638</ele>
        <time>2013-05-26T12:52:05Z</time>
      </trkpt>
      <trkpt lat="59.8988174" lon="17.6383515">
        <ele>19.3638</ele>
        <time>2013-05-26T12:52:06Z</time>
      </trkpt>
      <trkpt lat="59.8988678" lon="17.6383837">
        <ele>19.3638</ele>
        <time>2013-05-26T12:52:07Z</time>
      </trkpt>
      <trkpt lat="59.8989165" lon="17.6384242">
        <ele>19.8444</ele>
        <time>2013-05-26T12:52:08Z</time>
      </trkpt>
      <trkpt lat="59.898964" lon="17.6384694">
        <ele>19.8444</ele>
        <time>2013-05-26T12:52:09Z</time>
      </trkpt>
      <trkpt lat="59.8990101" lon="17.6385149">
        <ele>19.8444</ele>
        <time>2013-05-26T12:52:10Z</time>
      </trkpt>
      <trkpt lat="59.8990567" lon="17.6385584">
        <ele>20.325</ele>
        <time>2013-05-26T12:52:11Z</time>
      </trkpt>
      <trkpt lat="59.8991038" lon="17.6386074">
        <ele>19.8444</ele>
        <time>2013-05-26T12:52:12Z</time>
      </trkpt>
      <trkpt lat="59.899151" lon="17.6386588">
        <ele>19.8444</ele>
        <time>2013-05-26T12:52:13Z</time>
      </trkpt>
      <trkpt lat="59.8992008" lon="17.638709">
        <ele>19.8444</ele>
        <time>2013-05-26T12:52:14Z</time>
      </trkpt>
      <trkpt lat="59.899252" lon="17.6387583">
        <ele>19.8444</ele>
        <time>2013-05-26T12:52:15Z</time>
      </trkpt>
      <trkpt lat="59.8993039" lon="17.6388082">
        <ele>19.8444</ele>
        <time>2013-05-26T12:52:16Z</time>
      </trkpt>
      <trkpt lat="59.8993556" lon="17.6388573">
        <ele>19.8444</ele>
        <time>2013-05-26T12:52:17Z</time>
      </trkpt>
      <trkpt lat="59.899406" lon="17.6389079">
        <ele>19.8444</ele>
        <time>2013-05-26T12:52:18Z</time>
      </trkpt>
      <trkpt lat="59.8994566" lon="17.6389588">
        <ele>19.8444</ele>
        <time>2013-05-26T12:52:19Z</time>
      </trkpt>
      <trkpt lat="59.8995055" lon="17.6390055">
        <ele>19.8444</ele>
        <time>2013-05-26T12:52:20Z</time>
      </trkpt>
      <trkpt lat="59.8995535" lon="17.6390526">
        <ele>19.8444</ele>
        <time>2013-05-26T12:52:21Z</time>
      </trkpt>
      <trkpt lat="59.8996018" lon="17.6391026">
        <ele>19.3638</ele>
        <time>2013-05-26T12:52:22Z</time>
      </trkpt>
      <trkpt lat="59.8996496" lon="17.6391556">
        <ele>19.8444</ele>
        <time>2013-05-26T12:52:23Z</time>
      </trkpt>
      <trkpt lat="59.899699" lon="17.6392085">
        <ele>19.8444</ele>
        <time>2013-05-26T12:52:24Z</time>
      </trkpt>
      <trkpt lat="59.8997508" lon="17.6392593">
        <ele>19.8444</ele>
        <time>2013-05-26T12:52:25Z</time>
      </trkpt>
      <trkpt lat="59.8998007" lon="17.6393145">
        <ele>19.8444</ele>
        <time>2013-05-26T12:52:26Z</time>
      </trkpt>
      <trkpt lat="59.8998494" lon="17.6393661">
        <ele>19.8444</ele>
        <time>2013-05-26T12:52:27Z</time>
      </trkpt>
      <trkpt lat="59.8998979" lon="17.6394192">
        <ele>19.8444</ele>
        <time>2013-05-26T12:52:28Z</time>
      </trkpt>
      <trkpt lat="59.8999463" lon="17.6394699">
        <ele>19.8444</ele>
        <time>2013-05-26T12:52:29Z</time>
      </trkpt>
      <trkpt lat="59.8999935" lon="17.6395209">
        <ele>19.8444</ele>
        <time>2013-05-26T12:52:30Z</time>
      </trkpt>
      <trkpt lat="59.900041" lon="17.6395702">
        <ele>19.3638</ele>
        <time>2013-05-26T12:52:31Z</time>
      </trkpt>
      <trkpt lat="59.9000885" lon="17.6396168">
        <ele>19.3638</ele>
        <time>2013-05-26T12:52:32Z</time>
      </trkpt>
      <trkpt lat="59.9001336" lon="17.6396665">
        <ele>18.8831</ele>
        <time>2013-05-26T12:52:33Z</time>
      </trkpt>
      <trkpt lat="59.9001766" lon="17.6397201">
        <ele>19.8444</ele>
        <time>2013-05-26T12:52:34Z</time>
      </trkpt>
      <trkpt lat="59.9002222" lon="17.6397684">
        <ele>19.8444</ele>
        <time>2013-05-26T12:52:35Z</time>
      </trkpt>
      <trkpt lat="59.9002696" lon="17.6398212">
        <ele>19.3638</ele>
        <time>2013-05-26T12:52:36Z</time>
      </trkpt>
      <trkpt lat="59.9003176" lon="17.6398766">
        <ele>18.8831</ele>
        <time>2013-05-26T12:52:37Z</time>
      </trkpt>
      <trkpt lat="59.9003673" lon="17.6399295">
        <ele>18.8831</ele>
        <time>2013-05-26T12:52:38Z</time>
      </trkpt>
      <trkpt lat="59.9004192" lon="17.6399846">
        <ele>18.4023</ele>
        <time>2013-05-26T12:52:39Z</time>
      </trkpt>
      <trkpt lat="59.9004731" lon="17.6400424">
        <ele>17.9218</ele>
        <time>2013-05-26T12:52:40Z</time>
      </trkpt>
      <trkpt lat="59.9005285" lon="17.6401031">
        <ele>17.9218</ele>
        <time>2013-05-26T12:52:41Z</time>
      </trkpt>
      <trkpt lat="59.9005824" lon="17.6401621">
        <ele>17.4412</ele>
        <time>2013-05-26T12:52:42Z</time>
      </trkpt>
      <trkpt lat="59.9006407" lon="17.6402186">
        <ele>16.9604</ele>
        <time>2013-05-26T12:52:43Z</time>
      </trkpt>
      <trkpt lat="59.9006974" lon="17.6402793">
        <ele>16.4797</ele>
        <time>2013-05-26T12:52:44Z</time>
      </trkpt>
      <trkpt lat="59.9007532" lon="17.6403398">
        <ele>15.999</ele>
        <time>2013-05-26T12:52:45Z</time>
      </trkpt>
      <trkpt lat="59.9008115" lon="17.6403946">
        <ele>16.4797</ele>
        <time>2013-05-26T12:52:46Z</time>
      </trkpt>
      <trkpt lat="59.9008709" lon="17.6404503">
        <ele>16.4797</ele>
        <time>2013-05-26T12:52:47Z</time>
      </trkpt>
      <trkpt lat="59.900932" lon="17.6405066">
        <ele>16.4797</ele>
        <time>2013-05-26T12:52:48Z</time>
      </trkpt>
      <trkpt lat="59.9009942" lon="17.640562">
        <ele>16.9604</ele>
        <time>2013-05-26T12:52:49Z</time>
      </trkpt>
      <trkpt lat="59.9010555" lon="17.6406211">
        <ele>17.4412</ele>
        <time>2013-05-26T12:52:50Z</time>
      </trkpt>
      <trkpt lat="59.9011158" lon="17.6406822">
        <ele>17.4412</ele>
        <time>2013-05-26T12:52:51Z</time>
      </trkpt>
      <trkpt lat="59.901175" lon="17.6407361">
        <ele>17.9218</ele>
        <time>2013-05-26T12:52:52Z</time>
      </trkpt>
      <trkpt lat="59.9012313" lon="17.6407894">
        <ele>17.9218</ele>
        <time>2013-05-26T12:52:53Z</time>
      </trkpt>
      <trkpt lat="59.9012863" lon="17.6408379">
        <ele>17.9218</ele>
        <time>2013-05-26T12:52:54Z</time>
      </trkpt>
      <trkpt lat="59.9013412" lon="17.6408867">
        <ele>17.9218</ele>
        <time>2013-05-26T12:52:55Z</time>
      </trkpt>
      <trkpt lat="59.9013957" lon="17.6409348">
        <ele>17.9218</ele>
        <time>2013-05-26T12:52:56Z</time>
      </trkpt>
      <trkpt lat="59.9014506" lon="17.64098">
        <ele>18.4023</ele>
        <time>2013-05-26T12:52:57Z</time>
      </trkpt>
      <trkpt lat="59.9015055" lon="17.6410215">
        <ele>18.4023</ele>
        <time>2013-05-26T12:52:58Z</time>
      </trkpt>
      <trkpt lat="59.9015612" lon="17.6410638">
        <ele>18.4023</ele>
        <time>2013-05-26T12:52:59Z</time>
      </trkpt>
      <trkpt lat="59.9016162" lon="17.6411096">
        <ele>18.8831</ele>
        <time>2013-05-26T12:53:00Z</time>
      </trkpt>
      <trkpt lat="59.9016697" lon="17.6411562">
        <ele>18.8831</ele>
        <time>2013-05-26T12:53:01Z</time>
      </trkpt>
      <trkpt lat="59.9017241" lon="17.6412016">
        <ele>18.8831</ele>
        <time>2013-05-26T12:53:02Z</time>
      </trkpt>
      <trkpt lat="59.9017796" lon="17.641244">
        <ele>19.3638</ele>
        <time>2013-05-26T12:53:03Z</time>
      </trkpt>
      <trkpt lat="59.9018355" lon="17.6412852">
        <ele>19.3638</ele>
        <time>2013-05-26T12:53:04Z</time>
      </trkpt>
      <trkpt lat="59.9018914" lon="17.6413286">
        <ele>19.3638</ele>
        <time>2013-05-26T12:53:05Z</time>
      </trkpt>
      <trkpt lat="59.9019479" lon="17.6413712">
        <ele>19.3638</ele>
        <time>2013-05-26T12:53:06Z</time>
      </trkpt>
      <trkpt lat="59.9020059" lon="17.6414116">
        <ele>19.3638</ele>
        <time>2013-05-26T12:53:07Z</time>
      </trkpt>
      <trkpt lat="59.9020655" lon="17.6414536">
        <ele>19.8444</ele>
        <time>2013-05-26T12:53:08Z</time>
      </trkpt>
      <trkpt lat="59.902125" lon="17.6414984">
        <ele>19.8444</ele>
        <time>2013-05-26T12:53:09Z</time>
      </trkpt>
      <trkpt lat="59.9021842" lon="17.6415417">
        <ele>19.8444</ele>
        <time>2013-05-26T12:53:10Z</time>
      </trkpt>
      <trkpt lat="59.9022438" lon="17.6415823">
        <ele>19.8444</ele>
        <time>2013-05-26T12:53:11Z</time>
      </trkpt>
      <trkpt lat="59.9023027" lon="17.6416193">
        <ele>19.8444</ele>
        <time>2013-05-26T12:53:12Z</time>
      </trkpt>
      <trkpt lat="59.9023593" lon="17.6416535">
        <ele>19.8444</ele>
        <time>2013-05-26T12:53:13Z</time>
      </trkpt>
      <trkpt lat="59.902414" lon="17.6416883">
        <ele>19.3638</ele>
        <time>2013-05-26T12:53:14Z</time>
      </trkpt>
      <trkpt lat="59.9024659" lon="17.641723">
        <ele>18.8831</ele>
        <time>2013-05-26T12:53:15Z</time>
      </trkpt>
      <trkpt lat="59.9025183" lon="17.6417535">
        <ele>18.8831</ele>
        <time>2013-05-26T12:53:16Z</time>
      </trkpt>
      <trkpt lat="59.9025693" lon="17.6417805">
        <ele>18.8831</ele>
        <time>2013-05-26T12:53:17Z</time>
      </trkpt>
      <trkpt lat="59.9026186" lon="17.6418068">
        <ele>18.8831</ele>
        <time>2013-05-26T12:53:18Z</time>
      </trkpt>
      <trkpt lat="59.9026677" lon="17.641831">
        <ele>19.3638</ele>
        <time>2013-05-26T12:53:19Z</time>
      </trkpt>
      <trkpt lat="59.9027154" lon="17.6418544">
        <ele>18.8831</ele>
        <time>2013-05-26T12:53:20Z</time>
      </trkpt>
      <trkpt lat="59.9027612" lon="17.6418793">
        <ele>19.3638</ele>
        <time>2013-05-26T12:53:21Z</time>
      </trkpt>
      <trkpt lat="59.9028055" lon="17.6418996">
        <ele>18.8831</ele>
        <time>2013-05-26T12:53:22Z</time>
      </trkpt>
      <trkpt lat="59.9028497" lon="17.6419182">
        <ele>18.8831</ele>
        <time>2013-05-26T12:53:23Z</time>
      </trkpt>
      <trkpt lat="59.9028901" lon="17.6419394">
        <ele>18.8831</ele>
        <time>2013-05-26T12:53:24Z</time>
      </trkpt>
      <trkpt lat="59.9029301" lon="17.6419592">
        <ele>17.9218</ele>
        <time>2013-05-26T12:53:25Z</time>
      </trkpt>
      <trkpt lat="59.9029672" lon="17.6419786">
        <ele>17.4412</ele>
        <time>2013-05-26T12:53:26Z</time>
      </trkpt>
      <trkpt lat="59.9030039" lon="17.6419978">
        <ele>17.4412</ele>
        <time>2013-05-26T12:53:27Z</time>
      </trkpt>
      <trkpt lat="59.9030387" lon="17.6420162">
        <ele>17.4412</ele>
        <time>2013-05-26T12:53:28Z</time>
      </trkpt>
      <trkpt lat="59.9030721" lon="17.642028">
        <ele>17.9218</ele>
        <time>2013-05-26T12:53:29Z</time>
      </trkpt>
      <trkpt lat="59.9031054" lon="17.642041">
        <ele>17.9218</ele>
        <time>2013-05-26T12:53:30Z</time>
      </trkpt>
      <trkpt lat="59.9031376" lon="17.6420542">
        <ele>17.9218</ele>
        <time>2013-05-26T12:53:31Z</time>
      </trkpt>
      <trkpt lat="59.9031682" lon="17.6420684">
        <ele>17.9218</ele>
        <time>2013-05-26T12:53:32Z</time>
      </trkpt>
      <trkpt lat="59.9031978" lon="17.6420819">
        <ele>17.9218</ele>
        <time>2013-05-26T12:53:33Z</time>
      </trkpt>
      <trkpt lat="59.9032266" lon="17.6420923">
        <ele>17.4412</ele>
        <time>2013-05-26T12:53:34Z</time>
      </trkpt>
      <trkpt lat="59.903252" lon="17.642102">
        <ele>17.4412</ele>
        <time>2013-05-26T12:53:35Z</time>
      </trkpt>
      <trkpt lat="59.9032724" lon="17.6421084">
        <ele>17.4412</ele>
        <time>2013-05-26T12:53:36Z</time>
      </trkpt>
      <trkpt lat="59.9032852" lon="17.6421097">
        <ele>17.4412</ele>
        <time>2013-05-26T12:53:37Z</time>
      </trkpt>
      <trkpt lat="59.9032915" lon="17.6421094">
        <ele>16.9604</ele>
        <time>2013-05-26T12:53:38Z</time>
      </trkpt>
      <trkpt lat="59.9032921" lon="17.6421076">
        <ele>16.4797</ele>
        <time>2013-05-26T12:53:39Z</time>
      </trkpt>
      <trkpt lat="59.9032921" lon="17.6421062">
        <ele>15.999</ele>
        <time>2013-05-26T12:53:40Z</time>
      </trkpt>
      <trkpt lat="59.9033069" lon="17.6421">
        <ele>26.0929</ele>
        <time>2013-05-26T12:55:34Z</time>
      </trkpt>
      <trkpt lat="59.9033315" lon="17.6421169">
        <ele>26.0929</ele>
        <time>2013-05-26T12:55:35Z</time>
      </trkpt>
      <trkpt lat="59.903364" lon="17.6421366">
        <ele>25.6123</ele>
        <time>2013-05-26T12:55:36Z</time>
      </trkpt>
      <trkpt lat="59.9034023" lon="17.6421597">
        <ele>25.6123</ele>
        <time>2013-05-26T12:55:37Z</time>
      </trkpt>
      <trkpt lat="59.9034455" lon="17.6421859">
        <ele>25.1317</ele>
        <time>2013-05-26T12:55:38Z</time>
      </trkpt>
      <trkpt lat="59.903496" lon="17.6422133">
        <ele>24.651</ele>
        <time>2013-05-26T12:55:39Z</time>
      </trkpt>
      <trkpt lat="59.9035541" lon="17.6422454">
        <ele>24.1703</ele>
        <time>2013-05-26T12:55:40Z</time>
      </trkpt>
      <trkpt lat="59.9036298" lon="17.642272">
        <ele>24.1703</ele>
        <time>2013-05-26T12:55:41Z</time>
      </trkpt>
      <trkpt lat="59.9037131" lon="17.6423133">
        <ele>22.7283</ele>
        <time>2013-05-26T12:55:42Z</time>
      </trkpt>
      <trkpt lat="59.9037822" lon="17.6423521">
        <ele>21.767</ele>
        <time>2013-05-26T12:55:43Z</time>
      </trkpt>
      <trkpt lat="59.9038527" lon="17.6423677">
        <ele>22.2476</ele>
        <time>2013-05-26T12:55:44Z</time>
      </trkpt>
      <trkpt lat="59.9039148" lon="17.6423993">
        <ele>22.2476</ele>
        <time>2013-05-26T12:55:45Z</time>
      </trkpt>
      <trkpt lat="59.9039763" lon="17.6424305">
        <ele>22.2476</ele>
        <time>2013-05-26T12:55:46Z</time>
      </trkpt>
      <trkpt lat="59.904036" lon="17.6424645">
        <ele>22.2476</ele>
        <time>2013-05-26T12:55:47Z</time>
      </trkpt>
      <trkpt lat="59.9040997" lon="17.6424962">
        <ele>21.767</ele>
        <time>2013-05-26T12:55:48Z</time>
      </trkpt>
      <trkpt lat="59.9041638" lon="17.6425256">
        <ele>21.767</ele>
        <time>2013-05-26T12:55:49Z</time>
      </trkpt>
      <trkpt lat="59.9042257" lon="17.642558">
        <ele>21.767</ele>
        <time>2013-05-26T12:55:50Z</time>
      </trkpt>
      <trkpt lat="59.904288" lon="17.6425909">
        <ele>21.767</ele>
        <time>2013-05-26T12:55:51Z</time>
      </trkpt>
      <trkpt lat="59.9043502" lon="17.6426242">
        <ele>21.767</ele>
        <time>2013-05-26T12:55:52Z</time>
      </trkpt>
      <trkpt lat="59.9044129" lon="17.6426573">
        <ele>21.767</ele>
        <time>2013-05-26T12:55:53Z</time>
      </trkpt>
      <trkpt lat="59.9044745" lon="17.642689">
        <ele>21.767</ele>
        <time>2013-05-26T12:55:54Z</time>
      </trkpt>
      <trkpt lat="59.9045351" lon="17.642719">
        <ele>21.767</ele>
        <time>2013-05-26T12:55:55Z</time>
      </trkpt>
      <trkpt lat="59.9045947" lon="17.6427509">
        <ele>21.767</ele>
        <time>2013-05-26T12:55:56Z</time>
      </trkpt>
      <trkpt lat="59.904655" lon="17.6427834">
        <ele>21.767</ele>
        <time>2013-05-26T12:55:57Z</time>
      </trkpt>
      <trkpt lat="59.9047142" lon="17.6428158">
        <ele>21.2864</ele>
        <time>2013-05-26T12:55:58Z</time>
      </trkpt>
      <trkpt lat="59.9047731" lon="17.6428413">
        <ele>21.767</ele>
        <time>2013-05-26T12:55:59Z</time>
      </trkpt>
      <trkpt lat="59.9048352" lon="17.6428718">
        <ele>21.767</ele>
        <time>2013-05-26T12:56:00Z</time>
      </trkpt>
      <trkpt lat="59.904898" lon="17.6429055">
        <ele>21.2864</ele>
        <time>2013-05-26T12:56:01Z</time>
      </trkpt>
      <trkpt lat="59.9049597" lon="17.6429406">
        <ele>21.2864</ele>
        <time>2013-05-26T12:56:02Z</time>
      </trkpt>
      <trkpt lat="59.9050197" lon="17.6429682">
        <ele>21.2864</ele>
        <time>2013-05-26T12:56:03Z</time>
      </trkpt>
      <trkpt lat="59.9050764" lon="17.6429956">
        <ele>21.2864</ele>
        <time>2013-05-26T12:56:04Z</time>
      </trkpt>
      <trkpt lat="59.9051315" lon="17.6430257">
        <ele>21.2864</ele>
        <time>2013-05-26T12:56:05Z</time>
      </trkpt>
      <trkpt lat="59.9051857" lon="17.6430557">
        <ele>21.2864</ele>
        <time>2013-05-26T12:56:06Z</time>
      </trkpt>
      <trkpt lat="59.9052391" lon="17.6430823">
        <ele>21.2864</ele>
        <time>2013-05-26T12:56:07Z</time>
      </trkpt>
      <trkpt lat="59.9052935" lon="17.6431086">
        <ele>21.2864</ele>
        <time>2013-05-26T12:56:08Z</time>
      </trkpt>
      <trkpt lat="59.9053469" lon="17.6431366">
        <ele>20.8057</ele>
        <time>2013-05-26T12:56:09Z</time>
      </trkpt>
      <trkpt lat="59.9054" lon="17.643164">
        <ele>20.8057</ele>
        <time>2013-05-26T12:56:10Z</time>
      </trkpt>
      <trkpt lat="59.905453" lon="17.64319">
        <ele>21.767</ele>
        <time>2013-05-26T12:56:11Z</time>
      </trkpt>
      <trkpt lat="59.9055056" lon="17.6432122">
        <ele>22.2476</ele>
        <time>2013-05-26T12:56:12Z</time>
      </trkpt>
      <trkpt lat="59.9055584" lon="17.6432358">
        <ele>21.767</ele>
        <time>2013-05-26T12:56:13Z</time>
      </trkpt>
      <trkpt lat="59.9056106" lon="17.6432593">
        <ele>22.2476</ele>
        <time>2013-05-26T12:56:14Z</time>
      </trkpt>
      <trkpt lat="59.9056629" lon="17.6432815">
        <ele>22.2476</ele>
        <time>2013-05-26T12:56:15Z</time>
      </trkpt>
      <trkpt lat="59.9057142" lon="17.6432995">
        <ele>22.2476</ele>
        <time>2013-05-26T12:56:16Z</time>
      </trkpt>
      <trkpt lat="59.9057646" lon="17.6433288">
        <ele>22.2476</ele>
        <time>2013-05-26T12:56:17Z</time>
      </trkpt>
      <trkpt lat="59.9058094" lon="17.6433915">
        <ele>22.2476</ele>
        <time>2013-05-26T12:56:18Z</time>
      </trkpt>
      <trkpt lat="59.9058253" lon="17.6434829">
        <ele>20.325</ele>
        <time>2013-05-26T12:56:19Z</time>
      </trkpt>
      <trkpt lat="59.9058348" lon="17.6435855">
        <ele>19.8444</ele>
        <time>2013-05-26T12:56:20Z</time>
      </trkpt>
      <trkpt lat="59.9058488" lon="17.6436847">
        <ele>19.8444</ele>
        <time>2013-05-26T12:56:21Z</time>
      </trkpt>
      <trkpt lat="59.9058693" lon="17.6437805">
        <ele>19.8444</ele>
        <time>2013-05-26T12:56:22Z</time>
      </trkpt>
      <trkpt lat="59.9058926" lon="17.6438752">
        <ele>19.3638</ele>
        <time>2013-05-26T12:56:23Z</time>
      </trkpt>
      <trkpt lat="59.9059184" lon="17.6439654">
        <ele>19.8444</ele>
        <time>2013-05-26T12:56:24Z</time>
      </trkpt>
      <trkpt lat="59.9059453" lon="17.6440524">
        <ele>19.8444</ele>
        <time>2013-05-26T12:56:25Z</time>
      </trkpt>
      <trkpt lat="59.9059722" lon="17.6441384">
        <ele>19.8444</ele>
        <time>2013-05-26T12:56:26Z</time>
      </trkpt>
      <trkpt lat="59.9059981" lon="17.6442264">
        <ele>19.8444</ele>
        <time>2013-05-26T12:56:27Z</time>
      </trkpt>
      <trkpt lat="59.9060227" lon="17.6443131">
        <ele>19.8444</ele>
        <time>2013-05-26T12:56:28Z</time>
      </trkpt>
      <trkpt lat="59.9060465" lon="17.6443982">
        <ele>19.8444</ele>
        <time>2013-05-26T12:56:29Z</time>
      </trkpt>
      <trkpt lat="59.9060666" lon="17.6444823">
        <ele>20.325</ele>
        <time>2013-05-26T12:56:30Z</time>
      </trkpt>
      <trkpt lat="59.9060856" lon="17.6445678">
        <ele>20.325</ele>
        <time>2013-05-26T12:56:31Z</time>
      </trkpt>
      <trkpt lat="59.9061018" lon="17.6446538">
        <ele>20.325</ele>
        <time>2013-05-26T12:56:32Z</time>
      </trkpt>
      <trkpt lat="59.9061167" lon="17.6447429">
        <ele>20.325</ele>
        <time>2013-05-26T12:56:33Z</time>
      </trkpt>
      <trkpt lat="59.906127" lon="17.6448337">
        <ele>20.325</ele>
        <time>2013-05-26T12:56:34Z</time>
      </trkpt>
      <trkpt lat="59.9061334" lon="17.6449236">
        <ele>20.325</ele>
        <time>2013-05-26T12:56:35Z</time>
      </trkpt>
      <trkpt lat="59.906138" lon="17.6450133">
        <ele>20.8057</ele>
        <time>2013-05-26T12:56:36Z</time>
      </trkpt>
      <trkpt lat="59.9061407" lon="17.645103">
        <ele>20.8057</ele>
        <time>2013-05-26T12:56:37Z</time>
      </trkpt>
      <trkpt lat="59.9061411" lon="17.6451911">
        <ele>20.8057</ele>
        <time>2013-05-26T12:56:38Z</time>
      </trkpt>
      <trkpt lat="59.9061374" lon="17.6452778">
        <ele>21.2864</ele>
        <time>2013-05-26T12:56:39Z</time>
      </trkpt>
      <trkpt lat="59.9061306" lon="17.6453634">
        <ele>21.2864</ele>
        <time>2013-05-26T12:56:40Z</time>
      </trkpt>
      <trkpt lat="59.9061225" lon="17.6454505">
        <ele>21.767</ele>
        <time>2013-05-26T12:56:41Z</time>
      </trkpt>
      <trkpt lat="59.9061132" lon="17.6455404">
        <ele>21.767</ele>
        <time>2013-05-26T12:56:42Z</time>
      </trkpt>
      <trkpt lat="59.9061018" lon="17.6456304">
        <ele>21.767</ele>
        <time>2013-05-26T12:56:43Z</time>
      </trkpt>
      <trkpt lat="59.906089" lon="17.6457193">
        <ele>21.767</ele>
        <time>2013-05-26T12:56:44Z</time>
      </trkpt>
      <trkpt lat="59.9060768" lon="17.6458086">
        <ele>22.2476</ele>
        <time>2013-05-26T12:56:45Z</time>
      </trkpt>
      <trkpt lat="59.9060629" lon="17.6458974">
        <ele>22.2476</ele>
        <time>2013-05-26T12:56:46Z</time>
      </trkpt>
      <trkpt lat="59.9060479" lon="17.6459844">
        <ele>22.2476</ele>
        <time>2013-05-26T12:56:47Z</time>
      </trkpt>
      <trkpt lat="59.9060334" lon="17.6460714">
        <ele>22.7283</ele>
        <time>2013-05-26T12:56:48Z</time>
      </trkpt>
      <trkpt lat="59.9060198" lon="17.6461586">
        <ele>22.7283</ele>
        <time>2013-05-26T12:56:49Z</time>
      </trkpt>
      <trkpt lat="59.906006" lon="17.6462461">
        <ele>22.7283</ele>
        <time>2013-05-26T12:56:50Z</time>
      </trkpt>
      <trkpt lat="59.9059928" lon="17.6463336">
        <ele>23.209</ele>
        <time>2013-05-26T12:56:51Z</time>
      </trkpt>
      <trkpt lat="59.9059806" lon="17.6464197">
        <ele>23.209</ele>
        <time>2013-05-26T12:56:52Z</time>
      </trkpt>
      <trkpt lat="59.9059687" lon="17.6465051">
        <ele>23.209</ele>
        <time>2013-05-26T12:56:53Z</time>
      </trkpt>
      <trkpt lat="59.9059568" lon="17.6465899">
        <ele>23.209</ele>
        <time>2013-05-26T12:56:54Z</time>
      </trkpt>
      <trkpt lat="59.9059453" lon="17.6466747">
        <ele>23.209</ele>
        <time>2013-05-26T12:56:55Z</time>
      </trkpt>
      <trkpt lat="59.9059332" lon="17.6467591">
        <ele>23.6896</ele>
        <time>2013-05-26T12:56:56Z</time>
      </trkpt>
      <trkpt lat="59.9059206" lon="17.6468443">
        <ele>23.6896</ele>
        <time>2013-05-26T12:56:57Z</time>
      </trkpt>
      <trkpt lat="59.9059099" lon="17.6469316">
        <ele>23.6896</ele>
        <time>2013-05-26T12:56:58Z</time>
      </trkpt>
      <trkpt lat="59.9059018" lon="17.6470209">
        <ele>23.6896</ele>
        <time>2013-05-26T12:56:59Z</time>
      </trkpt>
      <trkpt lat="59.9058961" lon="17.6471106">
        <ele>23.6896</ele>
        <time>2013-05-26T12:57:00Z</time>
      </trkpt>
      <trkpt lat="59.9058928" lon="17.6472003">
        <ele>23.6896</ele>
        <time>2013-05-26T12:57:01Z</time>
      </trkpt>
      <trkpt lat="59.9058914" lon="17.647291">
        <ele>23.6896</ele>
        <time>2013-05-26T12:57:02Z</time>
      </trkpt>
      <trkpt lat="59.9058919" lon="17.6473845">
        <ele>23.6896</ele>
        <time>2013-05-26T12:57:03Z</time>
      </trkpt>
      <trkpt lat="59.905895" lon="17.6474795">
        <ele>23.6896</ele>
        <time>2013-05-26T12:57:04Z</time>
      </trkpt>
      <trkpt lat="59.9059007" lon="17.6475737">
        <ele>24.1703</ele>
        <time>2013-05-26T12:57:05Z</time>
      </trkpt>
      <trkpt lat="59.9059089" lon="17.6476665">
        <ele>24.1703</ele>
        <time>2013-05-26T12:57:06Z</time>
      </trkpt>
      <trkpt lat="59.90592" lon="17.6477599">
        <ele>24.1703</ele>
        <time>2013-05-26T12:57:07Z</time>
      </trkpt>
      <trkpt lat="59.9059328" lon="17.6478523">
        <ele>24.1703</ele>
        <time>2013-05-26T12:57:08Z</time>
      </trkpt>
      <trkpt lat="59.9059484" lon="17.6479417">
        <ele>24.1703</ele>
        <time>2013-05-26T12:57:09Z</time>
      </trkpt>
      <trkpt lat="59.9059669" lon="17.6480302">
        <ele>24.651</ele>
        <time>2013-05-26T12:57:10Z</time>
      </trkpt>
      <trkpt lat="59.9059869" lon="17.6481172">
        <ele>24.651</ele>
        <time>2013-05-26T12:57:11Z</time>
      </trkpt>
      <trkpt lat="59.9060096" lon="17.648203">
        <ele>24.651</ele>
        <time>2013-05-26T12:57:12Z</time>
      </trkpt>
      <trkpt lat="59.906034" lon="17.6482885">
        <ele>24.651</ele>
        <time>2013-05-26T12:57:13Z</time>
      </trkpt>
      <trkpt lat="59.9060604" lon="17.6483725">
        <ele>24.651</ele>
        <time>2013-05-26T12:57:14Z</time>
      </trkpt>
      <trkpt lat="59.9060883" lon="17.6484537">
        <ele>24.1703</ele>
        <time>2013-05-26T12:57:15Z</time>
      </trkpt>
      <trkpt lat="59.906119" lon="17.6485327">
        <ele>24.1703</ele>
        <time>2013-05-26T12:57:16Z</time>
      </trkpt>
      <trkpt lat="59.9061516" lon="17.6486112">
        <ele>24.1703</ele>
        <time>2013-05-26T12:57:17Z</time>
      </trkpt>
      <trkpt lat="59.9061847" lon="17.6486913">
        <ele>24.1703</ele>
        <time>2013-05-26T12:57:18Z</time>
      </trkpt>
      <trkpt lat="59.9062169" lon="17.6487721">
        <ele>23.6896</ele>
        <time>2013-05-26T12:57:19Z</time>
      </trkpt>
      <trkpt lat="59.9062479" lon="17.6488518">
        <ele>23.6896</ele>
        <time>2013-05-26T12:57:20Z</time>
      </trkpt>
      <trkpt lat="59.9062788" lon="17.6489313">
        <ele>23.209</ele>
        <time>2013-05-26T12:57:21Z</time>
      </trkpt>
      <trkpt lat="59.9063083" lon="17.6490126">
        <ele>23.209</ele>
        <time>2013-05-26T12:57:22Z</time>
      </trkpt>
      <trkpt lat="59.9063365" lon="17.6490948">
        <ele>23.209</ele>
        <time>2013-05-26T12:57:23Z</time>
      </trkpt>
      <trkpt lat="59.9063639" lon="17.6491782">
        <ele>23.209</ele>
        <time>2013-05-26T12:57:24Z</time>
      </trkpt>
      <trkpt lat="59.9063892" lon="17.6492636">
        <ele>23.209</ele>
        <time>2013-05-26T12:57:25Z</time>
      </trkpt>
      <trkpt lat="59.9064131" lon="17.6493491">
        <ele>23.209</ele>
        <time>2013-05-26T12:57:26Z</time>
      </trkpt>
      <trkpt lat="59.9064364" lon="17.6494344">
        <ele>22.7283</ele>
        <time>2013-05-26T12:57:27Z</time>
      </trkpt>
      <trkpt lat="59.9064587" lon="17.6495189">
        <ele>22.7283</ele>
        <time>2013-05-26T12:57:28Z</time>
      </trkpt>
      <trkpt lat="59.9064797" lon="17.6496029">
        <ele>22.7283</ele>
        <time>2013-05-26T12:57:29Z</time>
      </trkpt>
      <trkpt lat="59.9065002" lon="17.6496864">
        <ele>22.7283</ele>
        <time>2013-05-26T12:57:30Z</time>
      </trkpt>
      <trkpt lat="59.9065202" lon="17.6497692">
        <ele>22.7283</ele>
        <time>2013-05-26T12:57:31Z</time>
      </trkpt>
      <trkpt lat="59.9065393" lon="17.6498504">
        <ele>22.7283</ele>
        <time>2013-05-26T12:57:32Z</time>
      </trkpt>
      <trkpt lat="59.9065576" lon="17.6499307">
        <ele>22.7283</ele>
        <time>2013-05-26T12:57:33Z</time>
      </trkpt>
      <trkpt lat="59.9065766" lon="17.6500119">
        <ele>22.7283</ele>
        <time>2013-05-26T12:57:34Z</time>
      </trkpt>
      <trkpt lat="59.9065955" lon="17.6500954">
        <ele>22.7283</ele>
        <time>2013-05-26T12:57:35Z</time>
      </trkpt>
      <trkpt lat="59.9066141" lon="17.6501783">
        <ele>22.7283</ele>
        <time>2013-05-26T12:57:36Z</time>
      </trkpt>
      <trkpt lat="59.9066322" lon="17.6502592">
        <ele>22.7283</ele>
        <time>2013-05-26T12:57:37Z</time>
      </trkpt>
      <trkpt lat="59.9066504" lon="17.6503414">
        <ele>22.7283</ele>
        <time>2013-05-26T12:57:38Z</time>
      </trkpt>
      <trkpt lat="59.9066694" lon="17.6504251">
        <ele>22.7283</ele>
        <time>2013-05-26T12:57:39Z</time>
      </trkpt>
      <trkpt lat="59.9066885" lon="17.6505083">
        <ele>22.7283</ele>
        <time>2013-05-26T12:57:40Z</time>
      </trkpt>
      <trkpt lat="59.9067088" lon="17.6505902">
        <ele>22.7283</ele>
        <time>2013-05-26T12:57:41Z</time>
      </trkpt>
      <trkpt lat="59.9067301" lon="17.650673">
        <ele>22.7283</ele>
        <time>2013-05-26T12:57:42Z</time>
      </trkpt>
      <trkpt lat="59.9067507" lon="17.6507579">
        <ele>22.7283</ele>
        <time>2013-05-26T12:57:43Z</time>
      </trkpt>
      <trkpt lat="59.9067705" lon="17.650845">
        <ele>22.7283</ele>
        <time>2013-05-26T12:57:44Z</time>
      </trkpt>
      <trkpt lat="59.9067907" lon="17.6509326">
        <ele>22.7283</ele>
        <time>2013-05-26T12:57:45Z</time>
      </trkpt>
      <trkpt lat="59.9068108" lon="17.6510207">
        <ele>22.7283</ele>
        <time>2013-05-26T12:57:46Z</time>
      </trkpt>
      <trkpt lat="59.906831" lon="17.6511078">
        <ele>22.7283</ele>
        <time>2013-05-26T12:57:47Z</time>
      </trkpt>
      <trkpt lat="59.9068512" lon="17.6511947">
        <ele>22.7283</ele>
        <time>2013-05-26T12:57:48Z</time>
      </trkpt>
      <trkpt lat="59.9068708" lon="17.65128">
        <ele>22.7283</ele>
        <time>2013-05-26T12:57:49Z</time>
      </trkpt>
      <trkpt lat="59.9068906" lon="17.6513644">
        <ele>23.209</ele>
        <time>2013-05-26T12:57:50Z</time>
      </trkpt>
      <trkpt lat="59.9069088" lon="17.6514509">
        <ele>23.209</ele>
        <time>2013-05-26T12:57:51Z</time>
      </trkpt>
      <trkpt lat="59.9069259" lon="17.6515392">
        <ele>23.209</ele>
        <time>2013-05-26T12:57:52Z</time>
      </trkpt>
      <trkpt lat="59.9069428" lon="17.6516272">
        <ele>23.209</ele>
        <time>2013-05-26T12:57:53Z</time>
      </trkpt>
      <trkpt lat="59.9069586" lon="17.6517143">
        <ele>23.6896</ele>
        <time>2013-05-26T12:57:54Z</time>
      </trkpt>
      <trkpt lat="59.9069741" lon="17.6518029">
        <ele>23.6896</ele>
        <time>2013-05-26T12:57:55Z</time>
      </trkpt>
      <trkpt lat="59.9069875" lon="17.6518921">
        <ele>23.6896</ele>
        <time>2013-05-26T12:57:56Z</time>
      </trkpt>
      <trkpt lat="59.9069985" lon="17.6519836">
        <ele>24.1703</ele>
        <time>2013-05-26T12:57:57Z</time>
      </trkpt>
      <trkpt lat="59.9070082" lon="17.6520758">
        <ele>24.1703</ele>
        <time>2013-05-26T12:57:58Z</time>
      </trkpt>
      <trkpt lat="59.9070172" lon="17.6521686">
        <ele>24.1703</ele>
        <time>2013-05-26T12:57:59Z</time>
      </trkpt>
      <trkpt lat="59.9070248" lon="17.6522633">
        <ele>24.651</ele>
        <time>2013-05-26T12:58:00Z</time>
      </trkpt>
      <trkpt lat="59.9070317" lon="17.652359">
        <ele>24.651</ele>
        <time>2013-05-26T12:58:01Z</time>
      </trkpt>
      <trkpt lat="59.9070378" lon="17.6524554">
        <ele>24.651</ele>
        <time>2013-05-26T12:58:02Z</time>
      </trkpt>
      <trkpt lat="59.9070415" lon="17.6525515">
        <ele>24.651</ele>
        <time>2013-05-26T12:58:03Z</time>
      </trkpt>
      <trkpt lat="59.9070433" lon="17.6526481">
        <ele>24.651</ele>
        <time>2013-05-26T12:58:04Z</time>
      </trkpt>
      <trkpt lat="59.9070444" lon="17.6527473">
        <ele>25.1317</ele>
        <time>2013-05-26T12:58:05Z</time>
      </trkpt>
      <trkpt lat="59.9070444" lon="17.652849">
        <ele>25.1317</ele>
        <time>2013-05-26T12:58:06Z</time>
      </trkpt>
      <trkpt lat="59.9070428" lon="17.6529526">
        <ele>25.1317</ele>
        <time>2013-05-26T12:58:07Z</time>
      </trkpt>
      <trkpt lat="59.9070409" lon="17.6530578">
        <ele>25.6123</ele>
        <time>2013-05-26T12:58:08Z</time>
      </trkpt>
      <trkpt lat="59.90704" lon="17.6531632">
        <ele>25.6123</ele>
        <time>2013-05-26T12:58:09Z</time>
      </trkpt>
      <trkpt lat="59.9070373" lon="17.6532683">
        <ele>25.6123</ele>
        <time>2013-05-26T12:58:10Z</time>
      </trkpt>
      <trkpt lat="59.9070321" lon="17.6533746">
        <ele>25.6123</ele>
        <time>2013-05-26T12:58:11Z</time>
      </trkpt>
      <trkpt lat="59.9070273" lon="17.6534816">
        <ele>26.0929</ele>
        <time>2013-05-26T12:58:12Z</time>
      </trkpt>
      <trkpt lat="59.9070237" lon="17.6535893">
        <ele>26.0929</ele>
        <time>2013-05-26T12:58:13Z</time>
      </trkpt>
      <trkpt lat="59.9070207" lon="17.6536991">
        <ele>26.0929</ele>
        <time>2013-05-26T12:58:14Z</time>
      </trkpt>
      <trkpt lat="59.9070176" lon="17.6538096">
        <ele>26.0929</ele>
        <time>2013-05-26T12:58:15Z</time>
      </trkpt>
      <trkpt lat="59.9070144" lon="17.6539188">
        <ele>26.5736</ele>
        <time>2013-05-26T12:58:16Z</time>
      </trkpt>
      <trkpt lat="59.9070119" lon="17.6540271">
        <ele>26.5736</ele>
        <time>2013-05-26T12:58:17Z</time>
      </trkpt>
      <trkpt lat="59.9070098" lon="17.654137">
        <ele>26.5736</ele>
        <time>2013-05-26T12:58:18Z</time>
      </trkpt>
      <trkpt lat="59.9070078" lon="17.6542484">
        <ele>26.5736</ele>
        <time>2013-05-26T12:58:19Z</time>
      </trkpt>
      <trkpt lat="59.9070057" lon="17.6543606">
        <ele>26.5736</ele>
        <time>2013-05-26T12:58:20Z</time>
      </trkpt>
      <trkpt lat="59.907002" lon="17.6544732">
        <ele>27.0543</ele>
        <time>2013-05-26T12:58:21Z</time>
      </trkpt>
      <trkpt lat="59.9069977" lon="17.6545862">
        <ele>27.0543</ele>
        <time>2013-05-26T12:58:22Z</time>
      </trkpt>
      <trkpt lat="59.9069943" lon="17.6547001">
        <ele>27.0543</ele>
        <time>2013-05-26T12:58:23Z</time>
      </trkpt>
      <trkpt lat="59.9069917" lon="17.6548146">
        <ele>27.0543</ele>
        <time>2013-05-26T12:58:24Z</time>
      </trkpt>
      <trkpt lat="59.9069902" lon="17.6549312">
        <ele>27.0543</ele>
        <time>2013-05-26T12:58:25Z</time>
      </trkpt>
      <trkpt lat="59.9069887" lon="17.6550483">
        <ele>27.0543</ele>
        <time>2013-05-26T12:58:26Z</time>
      </trkpt>
      <trkpt lat="59.9069875" lon="17.6551647">
        <ele>27.0543</ele>
        <time>2013-05-26T12:58:27Z</time>
      </trkpt>
      <trkpt lat="59.9069876" lon="17.6552811">
        <ele>27.0543</ele>
        <time>2013-05-26T12:58:28Z</time>
      </trkpt>
      <trkpt lat="59.9069889" lon="17.6553959">
        <ele>27.0543</ele>
        <time>2013-05-26T12:58:29Z</time>
      </trkpt>
      <trkpt lat="59.9069895" lon="17.655508">
        <ele>27.0543</ele>
        <time>2013-05-26T12:58:30Z</time>
      </trkpt>
      <trkpt lat="59.9069901" lon="17.655617">
        <ele>27.5349</ele>
        <time>2013-05-26T12:58:31Z</time>
      </trkpt>
      <trkpt lat="59.9069917" lon="17.6557227">
        <ele>27.5349</ele>
        <time>2013-05-26T12:58:32Z</time>
      </trkpt>
      <trkpt lat="59.9069938" lon="17.655826">
        <ele>27.5349</ele>
        <time>2013-05-26T12:58:33Z</time>
      </trkpt>
      <trkpt lat="59.9069954" lon="17.6559273">
        <ele>27.5349</ele>
        <time>2013-05-26T12:58:34Z</time>
      </trkpt>
      <trkpt lat="59.9069967" lon="17.6560272">
        <ele>28.0155</ele>
        <time>2013-05-26T12:58:35Z</time>
      </trkpt>
      <trkpt lat="59.9069985" lon="17.6561251">
        <ele>28.0155</ele>
        <time>2013-05-26T12:58:36Z</time>
      </trkpt>
      <trkpt lat="59.9070016" lon="17.6562216">
        <ele>28.0155</ele>
        <time>2013-05-26T12:58:37Z</time>
      </trkpt>
      <trkpt lat="59.9070043" lon="17.6563174">
        <ele>28.4962</ele>
        <time>2013-05-26T12:58:38Z</time>
      </trkpt>
      <trkpt lat="59.9070074" lon="17.6564116">
        <ele>28.4962</ele>
        <time>2013-05-26T12:58:39Z</time>
      </trkpt>
      <trkpt lat="59.9070122" lon="17.6565052">
        <ele>28.4962</ele>
        <time>2013-05-26T12:58:40Z</time>
      </trkpt>
      <trkpt lat="59.9070182" lon="17.6566015">
        <ele>28.9769</ele>
        <time>2013-05-26T12:58:41Z</time>
      </trkpt>
      <trkpt lat="59.9070254" lon="17.6567022">
        <ele>28.9769</ele>
        <time>2013-05-26T12:58:42Z</time>
      </trkpt>
      <trkpt lat="59.9070337" lon="17.6568046">
        <ele>28.4962</ele>
        <time>2013-05-26T12:58:43Z</time>
      </trkpt>
      <trkpt lat="59.9070441" lon="17.6569094">
        <ele>28.4962</ele>
        <time>2013-05-26T12:58:44Z</time>
      </trkpt>
      <trkpt lat="59.9070565" lon="17.6570162">
        <ele>28.4962</ele>
        <time>2013-05-26T12:58:45Z</time>
      </trkpt>
      <trkpt lat="59.9070711" lon="17.6571223">
        <ele>28.4962</ele>
        <time>2013-05-26T12:58:46Z</time>
      </trkpt>
      <trkpt lat="59.9070879" lon="17.6572265">
        <ele>28.4962</ele>
        <time>2013-05-26T12:58:47Z</time>
      </trkpt>
      <trkpt lat="59.9071057" lon="17.657329">
        <ele>28.4962</ele>
        <time>2013-05-26T12:58:48Z</time>
      </trkpt>
      <trkpt lat="59.9071245" lon="17.6574303">
        <ele>28.4962</ele>
        <time>2013-05-26T12:58:49Z</time>
      </trkpt>
      <trkpt lat="59.907143" lon="17.657533">
        <ele>28.4962</ele>
        <time>2013-05-26T12:58:50Z</time>
      </trkpt>
      <trkpt lat="59.9071611" lon="17.6576372">
        <ele>28.4962</ele>
        <time>2013-05-26T12:58:51Z</time>
      </trkpt>
      <trkpt lat="59.9071788" lon="17.6577404">
        <ele>28.4962</ele>
        <time>2013-05-26T12:58:52Z</time>
      </trkpt>
      <trkpt lat="59.9071958" lon="17.6578426">
        <ele>28.4962</ele>
        <time>2013-05-26T12:58:53Z</time>
      </trkpt>
      <trkpt lat="59.9072122" lon="17.6579453">
        <ele>28.4962</ele>
        <time>2013-05-26T12:58:54Z</time>
      </trkpt>
      <trkpt lat="59.9072264" lon="17.658049">
        <ele>28.4962</ele>
        <time>2013-05-26T12:58:55Z</time>
      </trkpt>
      <trkpt lat="59.9072386" lon="17.6581556">
        <ele>28.0155</ele>
        <time>2013-05-26T12:58:56Z</time>
      </trkpt>
      <trkpt lat="59.9072519" lon="17.6582624">
        <ele>27.5349</ele>
        <time>2013-05-26T12:58:57Z</time>
      </trkpt>
      <trkpt lat="59.9072641" lon="17.6583636">
        <ele>27.5349</ele>
        <time>2013-05-26T12:58:58Z</time>
      </trkpt>
      <trkpt lat="59.9072745" lon="17.6584639">
        <ele>27.0543</ele>
        <time>2013-05-26T12:58:59Z</time>
      </trkpt>
      <trkpt lat="59.9072853" lon="17.6585593">
        <ele>27.5349</ele>
        <time>2013-05-26T12:59:00Z</time>
      </trkpt>
      <trkpt lat="59.9072979" lon="17.6586549">
        <ele>27.5349</ele>
        <time>2013-05-26T12:59:01Z</time>
      </trkpt>
      <trkpt lat="59.9073107" lon="17.6587559">
        <ele>27.5349</ele>
        <time>2013-05-26T12:59:02Z</time>
      </trkpt>
      <trkpt lat="59.9073197" lon="17.6588581">
        <ele>27.0543</ele>
        <time>2013-05-26T12:59:03Z</time>
      </trkpt>
      <trkpt lat="59.9073252" lon="17.6589551">
        <ele>26.5736</ele>
        <time>2013-05-26T12:59:04Z</time>
      </trkpt>
      <trkpt lat="59.9073332" lon="17.6590509">
        <ele>27.0543</ele>
        <time>2013-05-26T12:59:05Z</time>
      </trkpt>
      <trkpt lat="59.9073425" lon="17.6591524">
        <ele>27.0543</ele>
        <time>2013-05-26T12:59:06Z</time>
      </trkpt>
      <trkpt lat="59.9073503" lon="17.6592672">
        <ele>27.0543</ele>
        <time>2013-05-26T12:59:07Z</time>
      </trkpt>
      <trkpt lat="59.9073583" lon="17.6593824">
        <ele>27.0543</ele>
        <time>2013-05-26T12:59:08Z</time>
      </trkpt>
      <trkpt lat="59.9073668" lon="17.6594979">
        <ele>26.5736</ele>
        <time>2013-05-26T12:59:09Z</time>
      </trkpt>
      <trkpt lat="59.9073813" lon="17.6596144">
        <ele>27.5349</ele>
        <time>2013-05-26T12:59:10Z</time>
      </trkpt>
      <trkpt lat="59.9073951" lon="17.6597301">
        <ele>27.5349</ele>
        <time>2013-05-26T12:59:11Z</time>
      </trkpt>
      <trkpt lat="59.9074097" lon="17.6598465">
        <ele>27.5349</ele>
        <time>2013-05-26T12:59:12Z</time>
      </trkpt>
      <trkpt lat="59.9074284" lon="17.6599655">
        <ele>28.0155</ele>
        <time>2013-05-26T12:59:13Z</time>
      </trkpt>
      <trkpt lat="59.9074464" lon="17.6600813">
        <ele>28.4962</ele>
        <time>2013-05-26T12:59:14Z</time>
      </trkpt>
      <trkpt lat="59.9074665" lon="17.6601981">
        <ele>28.4962</ele>
        <time>2013-05-26T12:59:15Z</time>
      </trkpt>
      <trkpt lat="59.907487" lon="17.6603107">
        <ele>28.4962</ele>
        <time>2013-05-26T12:59:16Z</time>
      </trkpt>
      <trkpt lat="59.9075082" lon="17.6604182">
        <ele>28.4962</ele>
        <time>2013-05-26T12:59:17Z</time>
      </trkpt>
      <trkpt lat="59.907523" lon="17.6605216">
        <ele>28.4962</ele>
        <time>2013-05-26T12:59:18Z</time>
      </trkpt>
      <trkpt lat="59.9075354" lon="17.6606235">
        <ele>28.0155</ele>
        <time>2013-05-26T12:59:19Z</time>
      </trkpt>
      <trkpt lat="59.9075484" lon="17.6607338">
        <ele>27.5349</ele>
        <time>2013-05-26T12:59:20Z</time>
      </trkpt>
      <trkpt lat="59.9075563" lon="17.6608404">
        <ele>27.5349</ele>
        <time>2013-05-26T12:59:21Z</time>
      </trkpt>
      <trkpt lat="59.9075683" lon="17.6609438">
        <ele>27.0543</ele>
        <time>2013-05-26T12:59:22Z</time>
      </trkpt>
      <trkpt lat="59.9075807" lon="17.6610462">
        <ele>27.5349</ele>
        <time>2013-05-26T12:59:23Z</time>
      </trkpt>
      <trkpt lat="59.9075973" lon="17.6611546">
        <ele>27.0543</ele>
        <time>2013-05-26T12:59:24Z</time>
      </trkpt>
      <trkpt lat="59.9076061" lon="17.6612581">
        <ele>27.0543</ele>
        <time>2013-05-26T12:59:25Z</time>
      </trkpt>
      <trkpt lat="59.9076148" lon="17.6613643">
        <ele>27.0543</ele>
        <time>2013-05-26T12:59:26Z</time>
      </trkpt>
      <trkpt lat="59.9076247" lon="17.6614781">
        <ele>27.5349</ele>
        <time>2013-05-26T12:59:27Z</time>
      </trkpt>
      <trkpt lat="59.9076335" lon="17.6615946">
        <ele>27.0543</ele>
        <time>2013-05-26T12:59:28Z</time>
      </trkpt>
      <trkpt lat="59.9076438" lon="17.6617118">
        <ele>27.0543</ele>
        <time>2013-05-26T12:59:29Z</time>
      </trkpt>
      <trkpt lat="59.9076551" lon="17.6618294">
        <ele>27.0543</ele>
        <time>2013-05-26T12:59:30Z</time>
      </trkpt>
      <trkpt lat="59.9076657" lon="17.6619476">
        <ele>27.0543</ele>
        <time>2013-05-26T12:59:31Z</time>
      </trkpt>
      <trkpt lat="59.9076782" lon="17.662065">
        <ele>27.0543</ele>
        <time>2013-05-26T12:59:32Z</time>
      </trkpt>
      <trkpt lat="59.9076957" lon="17.6621822">
        <ele>27.0543</ele>
        <time>2013-05-26T12:59:33Z</time>
      </trkpt>
      <trkpt lat="59.9077138" lon="17.6623023">
        <ele>27.0543</ele>
        <time>2013-05-26T12:59:34Z</time>
      </trkpt>
      <trkpt lat="59.9077292" lon="17.6624261">
        <ele>27.0543</ele>
        <time>2013-05-26T12:59:35Z</time>
      </trkpt>
      <trkpt lat="59.9077406" lon="17.66255">
        <ele>27.0543</ele>
        <time>2013-05-26T12:59:36Z</time>
      </trkpt>
      <trkpt lat="59.9077548" lon="17.6626731">
        <ele>27.0543</ele>
        <time>2013-05-26T12:59:37Z</time>
      </trkpt>
      <trkpt lat="59.9077701" lon="17.6627929">
        <ele>27.0543</ele>
        <time>2013-05-26T12:59:38Z</time>
      </trkpt>
      <trkpt lat="59.9077879" lon="17.6629121">
        <ele>27.0543</ele>
        <time>2013-05-26T12:59:39Z</time>
      </trkpt>
      <trkpt lat="59.9078004" lon="17.6630243">
        <ele>27.0543</ele>
        <time>2013-05-26T12:59:40Z</time>
      </trkpt>
      <trkpt lat="59.9078164" lon="17.6631409">
        <ele>27.0543</ele>
        <time>2013-05-26T12:59:41Z</time>
      </trkpt>
      <trkpt lat="59.9078295" lon="17.6632571">
        <ele>27.0543</ele>
        <time>2013-05-26T12:59:42Z</time>
      </trkpt>
      <trkpt lat="59.9078403" lon="17.663373">
        <ele>27.0543</ele>
        <time>2013-05-26T12:59:43Z</time>
      </trkpt>
      <trkpt lat="59.907852" lon="17.6634884">
        <ele>27.0543</ele>
        <time>2013-05-26T12:59:44Z</time>
      </trkpt>
      <trkpt lat="59.9078651" lon="17.6636038">
        <ele>27.0543</ele>
        <time>2013-05-26T12:59:45Z</time>
      </trkpt>
      <trkpt lat="59.9078769" lon="17.6637189">
        <ele>27.0543</ele>
        <time>2013-05-26T12:59:46Z</time>
      </trkpt>
      <trkpt lat="59.9078865" lon="17.6638358">
        <ele>27.0543</ele>
        <time>2013-05-26T12:59:47Z</time>
      </trkpt>
      <trkpt lat="59.9078952" lon="17.6639552">
        <ele>26.5736</ele>
        <time>2013-05-26T12:59:48Z</time>
      </trkpt>
      <trkpt lat="59.9079038" lon="17.6640772">
        <ele>27.0543</ele>
        <time>2013-05-26T12:59:49Z</time>
      </trkpt>
      <trkpt lat="59.9079102" lon="17.6642013">
        <ele>26.5736</ele>
        <time>2013-05-26T12:59:50Z</time>
      </trkpt>
      <trkpt lat="59.9079121" lon="17.6643245">
        <ele>26.5736</ele>
        <time>2013-05-26T12:59:51Z</time>
      </trkpt>
      <trkpt lat="59.9079091" lon="17.664446">
        <ele>26.0929</ele>
        <time>2013-05-26T12:59:52Z</time>
      </trkpt>
      <trkpt lat="59.9079065" lon="17.6645657">
        <ele>26.0929</ele>
        <time>2013-05-26T12:59:53Z</time>
      </trkpt>
      <trkpt lat="59.9078949" lon="17.6646765">
        <ele>26.0929</ele>
        <time>2013-05-26T12:59:54Z</time>
      </trkpt>
      <trkpt lat="59.9078729" lon="17.6647899">
        <ele>25.6123</ele>
        <time>2013-05-26T12:59:55Z</time>
      </trkpt>
      <trkpt lat="59.9078542" lon="17.664907">
        <ele>25.1317</ele>
        <time>2013-05-26T12:59:56Z</time>
      </trkpt>
      <trkpt lat="59.9078371" lon="17.6650246">
        <ele>25.6123</ele>
        <time>2013-05-26T12:59:57Z</time>
      </trkpt>
      <trkpt lat="59.9078251" lon="17.6651446">
        <ele>25.6123</ele>
        <time>2013-05-26T12:59:58Z</time>
      </trkpt>
      <trkpt lat="59.9078121" lon="17.6652596">
        <ele>25.6123</ele>
        <time>2013-05-26T12:59:59Z</time>
      </trkpt>
      <trkpt lat="59.9077997" lon="17.6653727">
        <ele>26.0929</ele>
        <time>2013-05-26T13:00:00Z</time>
      </trkpt>
      <trkpt lat="59.9077896" lon="17.6655037">
        <ele>26.0929</ele>
        <time>2013-05-26T13:00:01Z</time>
      </trkpt>
      <trkpt lat="59.9077817" lon="17.6656218">
        <ele>27.0543</ele>
        <time>2013-05-26T13:00:02Z</time>
      </trkpt>
      <trkpt lat="59.9077719" lon="17.6657413">
        <ele>27.0543</ele>
        <time>2013-05-26T13:00:03Z</time>
      </trkpt>
      <trkpt lat="59.9077676" lon="17.6658648">
        <ele>28.0155</ele>
        <time>2013-05-26T13:00:04Z</time>
      </trkpt>
      <trkpt lat="59.9077594" lon="17.6659896">
        <ele>28.9769</ele>
        <time>2013-05-26T13:00:05Z</time>
      </trkpt>
      <trkpt lat="59.9077448" lon="17.6661103">
        <ele>30.4188</ele>
        <time>2013-05-26T13:00:06Z</time>
      </trkpt>
      <trkpt lat="59.9077366" lon="17.6662186">
        <ele>30.8995</ele>
        <time>2013-05-26T13:00:07Z</time>
      </trkpt>
      <trkpt lat="59.907735" lon="17.6663413">
        <ele>32.3416</ele>
        <time>2013-05-26T13:00:08Z</time>
      </trkpt>
      <trkpt lat="59.9077242" lon="17.6664588">
        <ele>32.3416</ele>
        <time>2013-05-26T13:00:09Z</time>
      </trkpt>
      <trkpt lat="59.9077159" lon="17.6665792">
        <ele>32.8223</ele>
        <time>2013-05-26T13:00:10Z</time>
      </trkpt>
      <trkpt lat="59.9077106" lon="17.6667134">
        <ele>33.3029</ele>
        <time>2013-05-26T13:00:11Z</time>
      </trkpt>
      <trkpt lat="59.9077049" lon="17.6668443">
        <ele>33.7834</ele>
        <time>2013-05-26T13:00:12Z</time>
      </trkpt>
      <trkpt lat="59.9077038" lon="17.666978">
        <ele>34.2642</ele>
        <time>2013-05-26T13:00:13Z</time>
      </trkpt>
      <trkpt lat="59.9077018" lon="17.6671162">
        <ele>34.7449</ele>
        <time>2013-05-26T13:00:14Z</time>
      </trkpt>
      <trkpt lat="59.9076992" lon="17.6672705">
        <ele>35.2255</ele>
        <time>2013-05-26T13:00:15Z</time>
      </trkpt>
      <trkpt lat="59.9076936" lon="17.6674167">
        <ele>35.2255</ele>
        <time>2013-05-26T13:00:16Z</time>
      </trkpt>
      <trkpt lat="59.907687" lon="17.6675596">
        <ele>35.7061</ele>
        <time>2013-05-26T13:00:17Z</time>
      </trkpt>
      <trkpt lat="59.9076688" lon="17.6677006">
        <ele>35.2255</ele>
        <time>2013-05-26T13:00:18Z</time>
      </trkpt>
      <trkpt lat="59.9076444" lon="17.66784">
        <ele>34.7449</ele>
        <time>2013-05-26T13:00:19Z</time>
      </trkpt>
      <trkpt lat="59.9076103" lon="17.667971">
        <ele>34.7449</ele>
        <time>2013-05-26T13:00:20Z</time>
      </trkpt>
      <trkpt lat="59.9075543" lon="17.6680728">
        <ele>31.8607</ele>
        <time>2013-05-26T13:00:21Z</time>
      </trkpt>
      <trkpt lat="59.9074895" lon="17.6681586">
        <ele>30.4188</ele>
        <time>2013-05-26T13:00:22Z</time>
      </trkpt>
      <trkpt lat="59.907422" lon="17.66822">
        <ele>29.4575</ele>
        <time>2013-05-26T13:00:23Z</time>
      </trkpt>
      <trkpt lat="59.9073459" lon="17.6682596">
        <ele>28.9769</ele>
        <time>2013-05-26T13:00:24Z</time>
      </trkpt>
      <trkpt lat="59.9072692" lon="17.6682901">
        <ele>27.5349</ele>
        <time>2013-05-26T13:00:25Z</time>
      </trkpt>
      <trkpt lat="59.9071943" lon="17.6683129">
        <ele>27.0543</ele>
        <time>2013-05-26T13:00:26Z</time>
      </trkpt>
      <trkpt lat="59.9071214" lon="17.6683321">
        <ele>26.0929</ele>
        <time>2013-05-26T13:00:27Z</time>
      </trkpt>
      <trkpt lat="59.9070525" lon="17.668352">
        <ele>26.0929</ele>
        <time>2013-05-26T13:00:28Z</time>
      </trkpt>
      <trkpt lat="59.9069835" lon="17.66837">
        <ele>26.5736</ele>
        <time>2013-05-26T13:00:29Z</time>
      </trkpt>
      <trkpt lat="59.9069161" lon="17.6683854">
        <ele>26.0929</ele>
        <time>2013-05-26T13:00:30Z</time>
      </trkpt>
      <trkpt lat="59.9068538" lon="17.6683873">
        <ele>26.0929</ele>
        <time>2013-05-26T13:00:31Z</time>
      </trkpt>
      <trkpt lat="59.9067931" lon="17.6684071">
        <ele>26.5736</ele>
        <time>2013-05-26T13:00:32Z</time>
      </trkpt>
      <trkpt lat="59.9067306" lon="17.6684352">
        <ele>26.5736</ele>
        <time>2013-05-26T13:00:33Z</time>
      </trkpt>
      <trkpt lat="59.9066711" lon="17.6684667">
        <ele>26.5736</ele>
        <time>2013-05-26T13:00:34Z</time>
      </trkpt>
      <trkpt lat="59.9066078" lon="17.6684878">
        <ele>26.5736</ele>
        <time>2013-05-26T13:00:35Z</time>
      </trkpt>
      <trkpt lat="59.906542" lon="17.6685">
        <ele>26.5736</ele>
        <time>2013-05-26T13:00:36Z</time>
      </trkpt>
      <trkpt lat="59.9064768" lon="17.6685121">
        <ele>26.0929</ele>
        <time>2013-05-26T13:00:37Z</time>
      </trkpt>
      <trkpt lat="59.9064108" lon="17.6685196">
        <ele>25.6123</ele>
        <time>2013-05-26T13:00:38Z</time>
      </trkpt>
      <trkpt lat="59.9063437" lon="17.6685202">
        <ele>25.1317</ele>
        <time>2013-05-26T13:00:39Z</time>
      </trkpt>
      <trkpt lat="59.9062774" lon="17.6685149">
        <ele>25.1317</ele>
        <time>2013-05-26T13:00:40Z</time>
      </trkpt>
      <trkpt lat="59.9062127" lon="17.6684989">
        <ele>24.651</ele>
        <time>2013-05-26T13:00:41Z</time>
      </trkpt>
      <trkpt lat="59.9061458" lon="17.6684728">
        <ele>24.1703</ele>
        <time>2013-05-26T13:00:42Z</time>
      </trkpt>
      <trkpt lat="59.9060754" lon="17.6684465">
        <ele>24.1703</ele>
        <time>2013-05-26T13:00:43Z</time>
      </trkpt>
      <trkpt lat="59.9060065" lon="17.6684181">
        <ele>23.6896</ele>
        <time>2013-05-26T13:00:44Z</time>
      </trkpt>
      <trkpt lat="59.9059355" lon="17.6683901">
        <ele>24.1703</ele>
        <time>2013-05-26T13:00:45Z</time>
      </trkpt>
      <trkpt lat="59.905864" lon="17.6683594">
        <ele>24.651</ele>
        <time>2013-05-26T13:00:46Z</time>
      </trkpt>
      <trkpt lat="59.9057936" lon="17.6683216">
        <ele>25.1317</ele>
        <time>2013-05-26T13:00:47Z</time>
      </trkpt>
      <trkpt lat="59.9057236" lon="17.6682832">
        <ele>25.6123</ele>
        <time>2013-05-26T13:00:48Z</time>
      </trkpt>
      <trkpt lat="59.9056536" lon="17.668245">
        <ele>25.6123</ele>
        <time>2013-05-26T13:00:49Z</time>
      </trkpt>
      <trkpt lat="59.9055895" lon="17.6682083">
        <ele>25.6123</ele>
        <time>2013-05-26T13:00:50Z</time>
      </trkpt>
      <trkpt lat="59.905519" lon="17.6681817">
        <ele>26.0929</ele>
        <time>2013-05-26T13:00:51Z</time>
      </trkpt>
      <trkpt lat="59.9054502" lon="17.6681491">
        <ele>26.0929</ele>
        <time>2013-05-26T13:00:52Z</time>
      </trkpt>
      <trkpt lat="59.9053849" lon="17.6681167">
        <ele>25.6123</ele>
        <time>2013-05-26T13:00:53Z</time>
      </trkpt>
      <trkpt lat="59.9053329" lon="17.6680728">
        <ele>25.6123</ele>
        <time>2013-05-26T13:00:54Z</time>
      </trkpt>
      <trkpt lat="59.9052635" lon="17.6680356">
        <ele>25.6123</ele>
        <time>2013-05-26T13:00:55Z</time>
      </trkpt>
      <trkpt lat="59.9051874" lon="17.6679908">
        <ele>25.6123</ele>
        <time>2013-05-26T13:00:56Z</time>
      </trkpt>
      <trkpt lat="59.9051259" lon="17.6679539">
        <ele>24.651</ele>
        <time>2013-05-26T13:00:57Z</time>
      </trkpt>
      <trkpt lat="59.9050674" lon="17.6679155">
        <ele>24.1703</ele>
        <time>2013-05-26T13:00:58Z</time>
      </trkpt>
      <trkpt lat="59.905002" lon="17.6678779">
        <ele>24.1703</ele>
        <time>2013-05-26T13:00:59Z</time>
      </trkpt>
      <trkpt lat="59.9049276" lon="17.6678359">
        <ele>23.209</ele>
        <time>2013-05-26T13:01:00Z</time>
      </trkpt>
      <trkpt lat="59.9048607" lon="17.6677903">
        <ele>22.7283</ele>
        <time>2013-05-26T13:01:01Z</time>
      </trkpt>
      <trkpt lat="59.9047928" lon="17.6677644">
        <ele>21.767</ele>
        <time>2013-05-26T13:01:02Z</time>
      </trkpt>
      <trkpt lat="59.9047209" lon="17.6677601">
        <ele>22.2476</ele>
        <time>2013-05-26T13:01:03Z</time>
      </trkpt>
      <trkpt lat="59.9046536" lon="17.6677654">
        <ele>22.2476</ele>
        <time>2013-05-26T13:01:04Z</time>
      </trkpt>
      <trkpt lat="59.9045949" lon="17.667774">
        <ele>23.209</ele>
        <time>2013-05-26T13:01:05Z</time>
      </trkpt>
      <trkpt lat="59.9045448" lon="17.6678019">
        <ele>24.1703</ele>
        <time>2013-05-26T13:01:06Z</time>
      </trkpt>
      <trkpt lat="59.9044929" lon="17.6678155">
        <ele>24.651</ele>
        <time>2013-05-26T13:01:07Z</time>
      </trkpt>
      <trkpt lat="59.9044466" lon="17.6678053">
        <ele>25.6123</ele>
        <time>2013-05-26T13:01:08Z</time>
      </trkpt>
      <trkpt lat="59.9043973" lon="17.6678016">
        <ele>25.1317</ele>
        <time>2013-05-26T13:01:09Z</time>
      </trkpt>
      <trkpt lat="59.9043414" lon="17.6677998">
        <ele>24.651</ele>
        <time>2013-05-26T13:01:10Z</time>
      </trkpt>
      <trkpt lat="59.9042958" lon="17.6677736">
        <ele>23.6896</ele>
        <time>2013-05-26T13:01:11Z</time>
      </trkpt>
      <trkpt lat="59.9042427" lon="17.6677974">
        <ele>22.2476</ele>
        <time>2013-05-26T13:01:12Z</time>
      </trkpt>
      <trkpt lat="59.9041798" lon="17.6678312">
        <ele>22.2476</ele>
        <time>2013-05-26T13:01:13Z</time>
      </trkpt>
      <trkpt lat="59.9041204" lon="17.6678581">
        <ele>21.2864</ele>
        <time>2013-05-26T13:01:14Z</time>
      </trkpt>
      <trkpt lat="59.9040534" lon="17.6679196">
        <ele>20.325</ele>
        <time>2013-05-26T13:01:15Z</time>
      </trkpt>
      <trkpt lat="59.9039866" lon="17.6679933">
        <ele>21.2864</ele>
        <time>2013-05-26T13:01:16Z</time>
      </trkpt>
      <trkpt lat="59.9039147" lon="17.6680787">
        <ele>21.2864</ele>
        <time>2013-05-26T13:01:17Z</time>
      </trkpt>
      <trkpt lat="59.903853" lon="17.6681692">
        <ele>22.7283</ele>
        <time>2013-05-26T13:01:18Z</time>
      </trkpt>
      <trkpt lat="59.9037977" lon="17.6682782">
        <ele>24.651</ele>
        <time>2013-05-26T13:01:19Z</time>
      </trkpt>
      <trkpt lat="59.9037364" lon="17.6684081">
        <ele>26.0929</ele>
        <time>2013-05-26T13:01:20Z</time>
      </trkpt>
      <trkpt lat="59.9036847" lon="17.6685267">
        <ele>27.0543</ele>
        <time>2013-05-26T13:01:21Z</time>
      </trkpt>
      <trkpt lat="59.9036335" lon="17.668666">
        <ele>28.0155</ele>
        <time>2013-05-26T13:01:22Z</time>
      </trkpt>
      <trkpt lat="59.9035811" lon="17.668795">
        <ele>27.5349</ele>
        <time>2013-05-26T13:01:23Z</time>
      </trkpt>
      <trkpt lat="59.9035466" lon="17.6689218">
        <ele>28.0155</ele>
        <time>2013-05-26T13:01:24Z</time>
      </trkpt>
      <trkpt lat="59.903518" lon="17.6690605">
        <ele>27.5349</ele>
        <time>2013-05-26T13:01:25Z</time>
      </trkpt>
      <trkpt lat="59.9034942" lon="17.6691987">
        <ele>28.0155</ele>
        <time>2013-05-26T13:01:26Z</time>
      </trkpt>
      <trkpt lat="59.903461" lon="17.6693101">
        <ele>28.0155</ele>
        <time>2013-05-26T13:01:27Z</time>
      </trkpt>
      <trkpt lat="59.9034263" lon="17.6694223">
        <ele>26.5736</ele>
        <time>2013-05-26T13:01:28Z</time>
      </trkpt>
      <trkpt lat="59.9033833" lon="17.6695338">
        <ele>26.0929</ele>
        <time>2013-05-26T13:01:29Z</time>
      </trkpt>
      <trkpt lat="59.9033318" lon="17.6696209">
        <ele>26.0929</ele>
        <time>2013-05-26T13:01:30Z</time>
      </trkpt>
      <trkpt lat="59.9032812" lon="17.669697">
        <ele>26.0929</ele>
        <time>2013-05-26T13:01:31Z</time>
      </trkpt>
      <trkpt lat="59.9032246" lon="17.6697523">
        <ele>26.5736</ele>
        <time>2013-05-26T13:01:32Z</time>
      </trkpt>
      <trkpt lat="59.9031652" lon="17.6697802">
        <ele>27.5349</ele>
        <time>2013-05-26T13:01:33Z</time>
      </trkpt>
      <trkpt lat="59.9031063" lon="17.6698036">
        <ele>28.0155</ele>
        <time>2013-05-26T13:01:34Z</time>
      </trkpt>
      <trkpt lat="59.9030401" lon="17.6697882">
        <ele>28.9769</ele>
        <time>2013-05-26T13:01:35Z</time>
      </trkpt>
      <trkpt lat="59.9029711" lon="17.6697628">
        <ele>28.9769</ele>
        <time>2013-05-26T13:01:36Z</time>
      </trkpt>
      <trkpt lat="59.9029021" lon="17.6697229">
        <ele>28.0155</ele>
        <time>2013-05-26T13:01:37Z</time>
      </trkpt>
      <trkpt lat="59.9028357" lon="17.6696855">
        <ele>26.5736</ele>
        <time>2013-05-26T13:01:38Z</time>
      </trkpt>
      <trkpt lat="59.9027757" lon="17.6697173">
        <ele>28.0155</ele>
        <time>2013-05-26T13:01:39Z</time>
      </trkpt>
      <trkpt lat="59.9027126" lon="17.6697431">
        <ele>28.4962</ele>
        <time>2013-05-26T13:01:40Z</time>
      </trkpt>
      <trkpt lat="59.9026362" lon="17.669776">
        <ele>27.0543</ele>
        <time>2013-05-26T13:01:41Z</time>
      </trkpt>
      <trkpt lat="59.9025449" lon="17.6698239">
        <ele>26.5736</ele>
        <time>2013-05-26T13:01:42Z</time>
      </trkpt>
      <trkpt lat="59.9024541" lon="17.6698685">
        <ele>25.1317</ele>
        <time>2013-05-26T13:01:43Z</time>
      </trkpt>
      <trkpt lat="59.9023637" lon="17.6698905">
        <ele>24.1703</ele>
        <time>2013-05-26T13:01:44Z</time>
      </trkpt>
      <trkpt lat="59.9022681" lon="17.6698845">
        <ele>24.1703</ele>
        <time>2013-05-26T13:01:45Z</time>
      </trkpt>
      <trkpt lat="59.9021842" lon="17.6698576">
        <ele>23.6896</ele>
        <time>2013-05-26T13:01:46Z</time>
      </trkpt>
      <trkpt lat="59.9021034" lon="17.669812">
        <ele>24.1703</ele>
        <time>2013-05-26T13:01:47Z</time>
      </trkpt>
      <trkpt lat="59.9020528" lon="17.6697425">
        <ele>22.7283</ele>
        <time>2013-05-26T13:01:48Z</time>
      </trkpt>
      <trkpt lat="59.9019888" lon="17.6696918">
        <ele>23.209</ele>
        <time>2013-05-26T13:01:49Z</time>
      </trkpt>
      <trkpt lat="59.9019055" lon="17.6696487">
        <ele>23.6896</ele>
        <time>2013-05-26T13:01:50Z</time>
      </trkpt>
      <trkpt lat="59.9018265" lon="17.6695953">
        <ele>22.7283</ele>
        <time>2013-05-26T13:01:51Z</time>
      </trkpt>
      <trkpt lat="59.9017439" lon="17.669539">
        <ele>23.209</ele>
        <time>2013-05-26T13:01:52Z</time>
      </trkpt>
      <trkpt lat="59.9016619" lon="17.6694863">
        <ele>22.2476</ele>
        <time>2013-05-26T13:01:53Z</time>
      </trkpt>
      <trkpt lat="59.9015733" lon="17.6694438">
        <ele>21.2864</ele>
        <time>2013-05-26T13:01:54Z</time>
      </trkpt>
      <trkpt lat="59.9014796" lon="17.6694399">
        <ele>21.2864</ele>
        <time>2013-05-26T13:01:55Z</time>
      </trkpt>
      <trkpt lat="59.9013929" lon="17.6694332">
        <ele>19.8444</ele>
        <time>2013-05-26T13:01:56Z</time>
      </trkpt>
      <trkpt lat="59.9013086" lon="17.6694254">
        <ele>18.8831</ele>
        <time>2013-05-26T13:01:57Z</time>
      </trkpt>
      <trkpt lat="59.90123" lon="17.6694125">
        <ele>19.3638</ele>
        <time>2013-05-26T13:01:58Z</time>
      </trkpt>
      <trkpt lat="59.9011484" lon="17.6694057">
        <ele>18.8831</ele>
        <time>2013-05-26T13:01:59Z</time>
      </trkpt>
      <trkpt lat="59.90107" lon="17.6693929">
        <ele>19.3638</ele>
        <time>2013-05-26T13:02:00Z</time>
      </trkpt>
      <trkpt lat="59.9009941" lon="17.66938">
        <ele>18.4023</ele>
        <time>2013-05-26T13:02:01Z</time>
      </trkpt>
      <trkpt lat="59.9009111" lon="17.6693738">
        <ele>16.9604</ele>
        <time>2013-05-26T13:02:02Z</time>
      </trkpt>
      <trkpt lat="59.9008367" lon="17.6693883">
        <ele>15.999</ele>
        <time>2013-05-26T13:02:03Z</time>
      </trkpt>
      <trkpt lat="59.900756" lon="17.6694125">
        <ele>15.999</ele>
        <time>2013-05-26T13:02:04Z</time>
      </trkpt>
      <trkpt lat="59.900673" lon="17.6694264">
        <ele>15.0377</ele>
        <time>2013-05-26T13:02:05Z</time>
      </trkpt>
      <trkpt lat="59.9005886" lon="17.6694536">
        <ele>15.5184</ele>
        <time>2013-05-26T13:02:06Z</time>
      </trkpt>
      <trkpt lat="59.9004985" lon="17.6694712">
        <ele>14.557</ele>
        <time>2013-05-26T13:02:07Z</time>
      </trkpt>
      <trkpt lat="59.9004068" lon="17.6694825">
        <ele>13.5958</ele>
        <time>2013-05-26T13:02:08Z</time>
      </trkpt>
      <trkpt lat="59.9003168" lon="17.6694985">
        <ele>12.6344</ele>
        <time>2013-05-26T13:02:09Z</time>
      </trkpt>
      <trkpt lat="59.9002306" lon="17.6695095">
        <ele>11.6732</ele>
        <time>2013-05-26T13:02:10Z</time>
      </trkpt>
      <trkpt lat="59.9001429" lon="17.6695134">
        <ele>11.6732</ele>
        <time>2013-05-26T13:02:11Z</time>
      </trkpt>
      <trkpt lat="59.9000598" lon="17.6695229">
        <ele>11.1925</ele>
        <time>2013-05-26T13:02:12Z</time>
      </trkpt>
      <trkpt lat="59.8999805" lon="17.6695414">
        <ele>11.6732</ele>
        <time>2013-05-26T13:02:13Z</time>
      </trkpt>
      <trkpt lat="59.8999007" lon="17.6695818">
        <ele>11.1925</ele>
        <time>2013-05-26T13:02:14Z</time>
      </trkpt>
      <trkpt lat="59.8998271" lon="17.6696329">
        <ele>12.1538</ele>
        <time>2013-05-26T13:02:15Z</time>
      </trkpt>
      <trkpt lat="59.8997546" lon="17.6696824">
        <ele>11.6732</ele>
        <time>2013-05-26T13:02:16Z</time>
      </trkpt>
      <trkpt lat="59.8996842" lon="17.6697207">
        <ele>11.1925</ele>
        <time>2013-05-26T13:02:17Z</time>
      </trkpt>
      <trkpt lat="59.8996151" lon="17.6697752">
        <ele>11.1925</ele>
        <time>2013-05-26T13:02:18Z</time>
      </trkpt>
      <trkpt lat="59.8995508" lon="17.669824">
        <ele>10.7118</ele>
        <time>2013-05-26T13:02:19Z</time>
      </trkpt>
      <trkpt lat="59.8994892" lon="17.6698892">
        <ele>10.7118</ele>
        <time>2013-05-26T13:02:20Z</time>
      </trkpt>
      <trkpt lat="59.8994421" lon="17.6699682">
        <ele>10.7118</ele>
        <time>2013-05-26T13:02:21Z</time>
      </trkpt>
      <trkpt lat="59.8994046" lon="17.670104">
        <ele>10.7118</ele>
        <time>2013-05-26T13:02:22Z</time>
      </trkpt>
      <trkpt lat="59.8993923" lon="17.6702614">
        <ele>10.7118</ele>
        <time>2013-05-26T13:02:23Z</time>
      </trkpt>
      <trkpt lat="59.8993828" lon="17.6704324">
        <ele>10.7118</ele>
        <time>2013-05-26T13:02:24Z</time>
      </trkpt>
      <trkpt lat="59.8993822" lon="17.6706185">
        <ele>10.2312</ele>
        <time>2013-05-26T13:02:25Z</time>
      </trkpt>
      <trkpt lat="59.8993846" lon="17.6708048">
        <ele>10.7118</ele>
        <time>2013-05-26T13:02:26Z</time>
      </trkpt>
      <trkpt lat="59.8993874" lon="17.6709932">
        <ele>10.7118</ele>
        <time>2013-05-26T13:02:27Z</time>
      </trkpt>
      <trkpt lat="59.8993863" lon="17.6711743">
        <ele>11.1925</ele>
        <time>2013-05-26T13:02:28Z</time>
      </trkpt>
      <trkpt lat="59.8993818" lon="17.6713452">
        <ele>12.1538</ele>
        <time>2013-05-26T13:02:29Z</time>
      </trkpt>
      <trkpt lat="59.899378" lon="17.6715145">
        <ele>13.5958</ele>
        <time>2013-05-26T13:02:30Z</time>
      </trkpt>
      <trkpt lat="59.8993752" lon="17.6716722">
        <ele>14.557</ele>
        <time>2013-05-26T13:02:31Z</time>
      </trkpt>
      <trkpt lat="59.8993676" lon="17.6718372">
        <ele>15.5184</ele>
        <time>2013-05-26T13:02:32Z</time>
      </trkpt>
      <trkpt lat="59.8993541" lon="17.671985">
        <ele>15.999</ele>
        <time>2013-05-26T13:02:33Z</time>
      </trkpt>
      <trkpt lat="59.8993237" lon="17.672097">
        <ele>16.9604</ele>
        <time>2013-05-26T13:02:34Z</time>
      </trkpt>
      <trkpt lat="59.8992874" lon="17.6722264">
        <ele>17.4412</ele>
        <time>2013-05-26T13:02:35Z</time>
      </trkpt>
      <trkpt lat="59.899252" lon="17.672372">
        <ele>18.8831</ele>
        <time>2013-05-26T13:02:36Z</time>
      </trkpt>
      <trkpt lat="59.8992195" lon="17.6725104">
        <ele>19.8444</ele>
        <time>2013-05-26T13:02:37Z</time>
      </trkpt>
      <trkpt lat="59.8991898" lon="17.6726641">
        <ele>21.2864</ele>
        <time>2013-05-26T13:02:38Z</time>
      </trkpt>
      <trkpt lat="59.8991723" lon="17.6728199">
        <ele>22.2476</ele>
        <time>2013-05-26T13:02:39Z</time>
      </trkpt>
      <trkpt lat="59.8991699" lon="17.6729784">
        <ele>22.2476</ele>
        <time>2013-05-26T13:02:40Z</time>
      </trkpt>
      <trkpt lat="59.899165" lon="17.6731939">
        <ele>23.6896</ele>
        <time>2013-05-26T13:02:41Z</time>
      </trkpt>
      <trkpt lat="59.8991546" lon="17.6733879">
        <ele>25.1317</ele>
        <time>2013-05-26T13:02:42Z</time>
      </trkpt>
      <trkpt lat="59.8991399" lon="17.6736136">
        <ele>25.6123</ele>
        <time>2013-05-26T13:02:43Z</time>
      </trkpt>
      <trkpt lat="59.8991138" lon="17.6738368">
        <ele>28.0155</ele>
        <time>2013-05-26T13:02:44Z</time>
      </trkpt>
      <trkpt lat="59.8990891" lon="17.6740452">
        <ele>28.4962</ele>
        <time>2013-05-26T13:02:45Z</time>
      </trkpt>
      <trkpt lat="59.8990513" lon="17.6742291">
        <ele>28.9769</ele>
        <time>2013-05-26T13:02:46Z</time>
      </trkpt>
      <trkpt lat="59.8990024" lon="17.6743855">
        <ele>29.9381</ele>
        <time>2013-05-26T13:02:47Z</time>
      </trkpt>
      <trkpt lat="59.8989439" lon="17.6744983">
        <ele>28.0155</ele>
        <time>2013-05-26T13:02:48Z</time>
      </trkpt>
      <trkpt lat="59.8988797" lon="17.6745388">
        <ele>25.6123</ele>
        <time>2013-05-26T13:02:49Z</time>
      </trkpt>
      <trkpt lat="59.8988042" lon="17.6745643">
        <ele>24.1703</ele>
        <time>2013-05-26T13:02:50Z</time>
      </trkpt>
      <trkpt lat="59.898731" lon="17.6746197">
        <ele>23.209</ele>
        <time>2013-05-26T13:02:51Z</time>
      </trkpt>
      <trkpt lat="59.8986599" lon="17.674663">
        <ele>21.2864</ele>
        <time>2013-05-26T13:02:52Z</time>
      </trkpt>
      <trkpt lat="59.8985907" lon="17.6747489">
        <ele>19.8444</ele>
        <time>2013-05-26T13:02:53Z</time>
      </trkpt>
      <trkpt lat="59.8985331" lon="17.6748625">
        <ele>18.8831</ele>
        <time>2013-05-26T13:02:54Z</time>
      </trkpt>
      <trkpt lat="59.898482" lon="17.6749984">
        <ele>18.4023</ele>
        <time>2013-05-26T13:02:55Z</time>
      </trkpt>
      <trkpt lat="59.8984404" lon="17.6751602">
        <ele>17.9218</ele>
        <time>2013-05-26T13:02:56Z</time>
      </trkpt>
      <trkpt lat="59.898412" lon="17.6753324">
        <ele>17.4412</ele>
        <time>2013-05-26T13:02:57Z</time>
      </trkpt>
      <trkpt lat="59.8983928" lon="17.6755053">
        <ele>17.4412</ele>
        <time>2013-05-26T13:02:58Z</time>
      </trkpt>
      <trkpt lat="59.8983794" lon="17.6756777">
        <ele>17.4412</ele>
        <time>2013-05-26T13:02:59Z</time>
      </trkpt>
      <trkpt lat="59.8983661" lon="17.6758531">
        <ele>17.4412</ele>
        <time>2013-05-26T13:03:00Z</time>
      </trkpt>
      <trkpt lat="59.8983528" lon="17.6760255">
        <ele>17.4412</ele>
        <time>2013-05-26T13:03:01Z</time>
      </trkpt>
      <trkpt lat="59.8983399" lon="17.676197">
        <ele>16.9604</ele>
        <time>2013-05-26T13:03:02Z</time>
      </trkpt>
      <trkpt lat="59.8983266" lon="17.6763686">
        <ele>17.4412</ele>
        <time>2013-05-26T13:03:03Z</time>
      </trkpt>
      <trkpt lat="59.8983109" lon="17.6765369">
        <ele>17.4412</ele>
        <time>2013-05-26T13:03:04Z</time>
      </trkpt>
      <trkpt lat="59.898295" lon="17.6767047">
        <ele>17.4412</ele>
        <time>2013-05-26T13:03:05Z</time>
      </trkpt>
      <trkpt lat="59.8982783" lon="17.6768689">
        <ele>17.4412</ele>
        <time>2013-05-26T13:03:06Z</time>
      </trkpt>
      <trkpt lat="59.8982586" lon="17.6770294">
        <ele>17.4412</ele>
        <time>2013-05-26T13:03:07Z</time>
      </trkpt>
      <trkpt lat="59.8982348" lon="17.677186">
        <ele>17.4412</ele>
        <time>2013-05-26T13:03:08Z</time>
      </trkpt>
      <trkpt lat="59.8982087" lon="17.6773411">
        <ele>17.4412</ele>
        <time>2013-05-26T13:03:09Z</time>
      </trkpt>
      <trkpt lat="59.8981828" lon="17.6774935">
        <ele>17.9218</ele>
        <time>2013-05-26T13:03:10Z</time>
      </trkpt>
      <trkpt lat="59.8981569" lon="17.6776427">
        <ele>17.9218</ele>
        <time>2013-05-26T13:03:11Z</time>
      </trkpt>
      <trkpt lat="59.8981282" lon="17.6777892">
        <ele>17.9218</ele>
        <time>2013-05-26T13:03:12Z</time>
      </trkpt>
      <trkpt lat="59.8980961" lon="17.6779311">
        <ele>18.4023</ele>
        <time>2013-05-26T13:03:13Z</time>
      </trkpt>
      <trkpt lat="59.8980612" lon="17.6780701">
        <ele>18.8831</ele>
        <time>2013-05-26T13:03:14Z</time>
      </trkpt>
      <trkpt lat="59.8980248" lon="17.6782093">
        <ele>19.3638</ele>
        <time>2013-05-26T13:03:15Z</time>
      </trkpt>
      <trkpt lat="59.8979807" lon="17.678331">
        <ele>18.8831</ele>
        <time>2013-05-26T13:03:16Z</time>
      </trkpt>
      <trkpt lat="59.8979359" lon="17.6784498">
        <ele>18.8831</ele>
        <time>2013-05-26T13:03:17Z</time>
      </trkpt>
      <trkpt lat="59.8978901" lon="17.6785659">
        <ele>18.8831</ele>
        <time>2013-05-26T13:03:18Z</time>
      </trkpt>
      <trkpt lat="59.8978445" lon="17.6786834">
        <ele>18.8831</ele>
        <time>2013-05-26T13:03:19Z</time>
      </trkpt>
      <trkpt lat="59.8977982" lon="17.6787991">
        <ele>19.3638</ele>
        <time>2013-05-26T13:03:20Z</time>
      </trkpt>
      <trkpt lat="59.8977534" lon="17.67892">
        <ele>19.8444</ele>
        <time>2013-05-26T13:03:21Z</time>
      </trkpt>
      <trkpt lat="59.8977065" lon="17.6790346">
        <ele>19.8444</ele>
        <time>2013-05-26T13:03:22Z</time>
      </trkpt>
      <trkpt lat="59.8976606" lon="17.6791521">
        <ele>20.325</ele>
        <time>2013-05-26T13:03:23Z</time>
      </trkpt>
      <trkpt lat="59.8976146" lon="17.6792703">
        <ele>20.325</ele>
        <time>2013-05-26T13:03:24Z</time>
      </trkpt>
      <trkpt lat="59.8975681" lon="17.6793885">
        <ele>20.8057</ele>
        <time>2013-05-26T13:03:25Z</time>
      </trkpt>
      <trkpt lat="59.8975219" lon="17.6795081">
        <ele>21.2864</ele>
        <time>2013-05-26T13:03:26Z</time>
      </trkpt>
      <trkpt lat="59.8974769" lon="17.6796291">
        <ele>21.2864</ele>
        <time>2013-05-26T13:03:27Z</time>
      </trkpt>
      <trkpt lat="59.8974334" lon="17.6797512">
        <ele>21.767</ele>
        <time>2013-05-26T13:03:28Z</time>
      </trkpt>
      <trkpt lat="59.8973884" lon="17.6798696">
        <ele>21.767</ele>
        <time>2013-05-26T13:03:29Z</time>
      </trkpt>
      <trkpt lat="59.8973426" lon="17.6799888">
        <ele>22.2476</ele>
        <time>2013-05-26T13:03:30Z</time>
      </trkpt>
      <trkpt lat="59.8972955" lon="17.6801106">
        <ele>22.2476</ele>
        <time>2013-05-26T13:03:31Z</time>
      </trkpt>
      <trkpt lat="59.8972488" lon="17.6802354">
        <ele>22.2476</ele>
        <time>2013-05-26T13:03:32Z</time>
      </trkpt>
      <trkpt lat="59.8972025" lon="17.6803606">
        <ele>22.7283</ele>
        <time>2013-05-26T13:03:33Z</time>
      </trkpt>
      <trkpt lat="59.8971564" lon="17.6804864">
        <ele>22.7283</ele>
        <time>2013-05-26T13:03:34Z</time>
      </trkpt>
      <trkpt lat="59.8971092" lon="17.6806125">
        <ele>23.209</ele>
        <time>2013-05-26T13:03:35Z</time>
      </trkpt>
      <trkpt lat="59.8970602" lon="17.6807367">
        <ele>23.209</ele>
        <time>2013-05-26T13:03:36Z</time>
      </trkpt>
      <trkpt lat="59.8970088" lon="17.6808555">
        <ele>22.7283</ele>
        <time>2013-05-26T13:03:37Z</time>
      </trkpt>
      <trkpt lat="59.8969544" lon="17.6809685">
        <ele>21.2864</ele>
        <time>2013-05-26T13:03:38Z</time>
      </trkpt>
      <trkpt lat="59.8969" lon="17.6810791">
        <ele>20.8057</ele>
        <time>2013-05-26T13:03:39Z</time>
      </trkpt>
      <trkpt lat="59.8968477" lon="17.6811874">
        <ele>20.8057</ele>
        <time>2013-05-26T13:03:40Z</time>
      </trkpt>
      <trkpt lat="59.8967941" lon="17.6812896">
        <ele>20.8057</ele>
        <time>2013-05-26T13:03:41Z</time>
      </trkpt>
      <trkpt lat="59.8967382" lon="17.6813888">
        <ele>21.2864</ele>
        <time>2013-05-26T13:03:42Z</time>
      </trkpt>
      <trkpt lat="59.8966793" lon="17.6814821">
        <ele>21.2864</ele>
        <time>2013-05-26T13:03:43Z</time>
      </trkpt>
      <trkpt lat="59.8966203" lon="17.6815729">
        <ele>21.2864</ele>
        <time>2013-05-26T13:03:44Z</time>
      </trkpt>
      <trkpt lat="59.8965585" lon="17.681655">
        <ele>20.8057</ele>
        <time>2013-05-26T13:03:45Z</time>
      </trkpt>
      <trkpt lat="59.8964985" lon="17.6817427">
        <ele>20.8057</ele>
        <time>2013-05-26T13:03:46Z</time>
      </trkpt>
      <trkpt lat="59.8964383" lon="17.6818225">
        <ele>20.8057</ele>
        <time>2013-05-26T13:03:47Z</time>
      </trkpt>
      <trkpt lat="59.8963817" lon="17.6819007">
        <ele>21.2864</ele>
        <time>2013-05-26T13:03:48Z</time>
      </trkpt>
      <trkpt lat="59.8963249" lon="17.6819624">
        <ele>21.767</ele>
        <time>2013-05-26T13:03:49Z</time>
      </trkpt>
      <trkpt lat="59.8962689" lon="17.6820382">
        <ele>21.2864</ele>
        <time>2013-05-26T13:03:50Z</time>
      </trkpt>
      <trkpt lat="59.89621" lon="17.6821031">
        <ele>21.2864</ele>
        <time>2013-05-26T13:03:51Z</time>
      </trkpt>
      <trkpt lat="59.896157" lon="17.6821619">
        <ele>20.8057</ele>
        <time>2013-05-26T13:03:52Z</time>
      </trkpt>
      <trkpt lat="59.8961027" lon="17.682209">
        <ele>21.2864</ele>
        <time>2013-05-26T13:03:53Z</time>
      </trkpt>
      <trkpt lat="59.8960498" lon="17.6822743">
        <ele>21.767</ele>
        <time>2013-05-26T13:03:54Z</time>
      </trkpt>
      <trkpt lat="59.8959886" lon="17.6823264">
        <ele>21.2864</ele>
        <time>2013-05-26T13:03:55Z</time>
      </trkpt>
      <trkpt lat="59.8959349" lon="17.6823778">
        <ele>20.8057</ele>
        <time>2013-05-26T13:03:56Z</time>
      </trkpt>
      <trkpt lat="59.8958795" lon="17.6824389">
        <ele>20.325</ele>
        <time>2013-05-26T13:03:57Z</time>
      </trkpt>
      <trkpt lat="59.8958157" lon="17.6824788">
        <ele>20.8057</ele>
        <time>2013-05-26T13:03:58Z</time>
      </trkpt>
      <trkpt lat="59.895754" lon="17.6825172">
        <ele>19.8444</ele>
        <time>2013-05-26T13:03:59Z</time>
      </trkpt>
      <trkpt lat="59.8956979" lon="17.6825559">
        <ele>19.3638</ele>
        <time>2013-05-26T13:04:00Z</time>
      </trkpt>
      <trkpt lat="59.8956509" lon="17.682598">
        <ele>18.4023</ele>
        <time>2013-05-26T13:04:01Z</time>
      </trkpt>
      <trkpt lat="59.8956042" lon="17.6826566">
        <ele>20.325</ele>
        <time>2013-05-26T13:04:02Z</time>
      </trkpt>
      <trkpt lat="59.895566" lon="17.6826975">
        <ele>21.2864</ele>
        <time>2013-05-26T13:04:03Z</time>
      </trkpt>
      <trkpt lat="59.8955254" lon="17.6827576">
        <ele>21.767</ele>
        <time>2013-05-26T13:04:04Z</time>
      </trkpt>
      <trkpt lat="59.8954796" lon="17.682799">
        <ele>21.2864</ele>
        <time>2013-05-26T13:04:05Z</time>
      </trkpt>
      <trkpt lat="59.8954421" lon="17.6828421">
        <ele>20.325</ele>
        <time>2013-05-26T13:04:06Z</time>
      </trkpt>
      <trkpt lat="59.8954026" lon="17.6828923">
        <ele>18.4023</ele>
        <time>2013-05-26T13:04:07Z</time>
      </trkpt>
      <trkpt lat="59.8953505" lon="17.6829444">
        <ele>18.8831</ele>
        <time>2013-05-26T13:04:08Z</time>
      </trkpt>
      <trkpt lat="59.895307" lon="17.6829986">
        <ele>18.4023</ele>
        <time>2013-05-26T13:04:09Z</time>
      </trkpt>
      <trkpt lat="59.8952639" lon="17.6830388">
        <ele>16.4797</ele>
        <time>2013-05-26T13:04:10Z</time>
      </trkpt>
      <trkpt lat="59.8952253" lon="17.6830799">
        <ele>16.4797</ele>
        <time>2013-05-26T13:04:11Z</time>
      </trkpt>
      <trkpt lat="59.8951968" lon="17.6831227">
        <ele>15.999</ele>
        <time>2013-05-26T13:04:12Z</time>
      </trkpt>
      <trkpt lat="59.8951678" lon="17.6832788">
        <ele>15.0377</ele>
        <time>2013-05-26T13:04:13Z</time>
      </trkpt>
      <trkpt lat="59.8951068" lon="17.6833746">
        <ele>15.0377</ele>
        <time>2013-05-26T13:04:14Z</time>
      </trkpt>
      <trkpt lat="59.8950599" lon="17.6834398">
        <ele>15.999</ele>
        <time>2013-05-26T13:04:15Z</time>
      </trkpt>
      <trkpt lat="59.8950101" lon="17.6835101">
        <ele>16.4797</ele>
        <time>2013-05-26T13:04:16Z</time>
      </trkpt>
      <trkpt lat="59.8949673" lon="17.6835968">
        <ele>16.9604</ele>
        <time>2013-05-26T13:04:17Z</time>
      </trkpt>
      <trkpt lat="59.8949366" lon="17.6837017">
        <ele>15.999</ele>
        <time>2013-05-26T13:04:18Z</time>
      </trkpt>
      <trkpt lat="59.894901" lon="17.6837963">
        <ele>16.4797</ele>
        <time>2013-05-26T13:04:19Z</time>
      </trkpt>
      <trkpt lat="59.894875" lon="17.6838905">
        <ele>17.4412</ele>
        <time>2013-05-26T13:04:20Z</time>
      </trkpt>
      <trkpt lat="59.8948559" lon="17.6839884">
        <ele>17.4412</ele>
        <time>2013-05-26T13:04:21Z</time>
      </trkpt>
      <trkpt lat="59.8948386" lon="17.684095">
        <ele>18.4023</ele>
        <time>2013-05-26T13:04:22Z</time>
      </trkpt>
      <trkpt lat="59.8948248" lon="17.6842016">
        <ele>18.8831</ele>
        <time>2013-05-26T13:04:23Z</time>
      </trkpt>
      <trkpt lat="59.8948119" lon="17.684308">
        <ele>18.8831</ele>
        <time>2013-05-26T13:04:24Z</time>
      </trkpt>
      <trkpt lat="59.8947997" lon="17.6844305">
        <ele>19.3638</ele>
        <time>2013-05-26T13:04:25Z</time>
      </trkpt>
      <trkpt lat="59.8947869" lon="17.6845494">
        <ele>19.3638</ele>
        <time>2013-05-26T13:04:26Z</time>
      </trkpt>
      <trkpt lat="59.8947753" lon="17.6846716">
        <ele>18.4023</ele>
        <time>2013-05-26T13:04:27Z</time>
      </trkpt>
      <trkpt lat="59.8947651" lon="17.684799">
        <ele>18.4023</ele>
        <time>2013-05-26T13:04:28Z</time>
      </trkpt>
      <trkpt lat="59.8947539" lon="17.6849278">
        <ele>17.9218</ele>
        <time>2013-05-26T13:04:29Z</time>
      </trkpt>
      <trkpt lat="59.8947449" lon="17.6850558">
        <ele>17.4412</ele>
        <time>2013-05-26T13:04:30Z</time>
      </trkpt>
      <trkpt lat="59.8947347" lon="17.6851803">
        <ele>17.4412</ele>
        <time>2013-05-26T13:04:31Z</time>
      </trkpt>
      <trkpt lat="59.8947279" lon="17.6852989">
        <ele>16.9604</ele>
        <time>2013-05-26T13:04:32Z</time>
      </trkpt>
      <trkpt lat="59.8947199" lon="17.6854145">
        <ele>17.4412</ele>
        <time>2013-05-26T13:04:33Z</time>
      </trkpt>
      <trkpt lat="59.8947103" lon="17.6855347">
        <ele>17.9218</ele>
        <time>2013-05-26T13:04:34Z</time>
      </trkpt>
      <trkpt lat="59.8946993" lon="17.6856646">
        <ele>18.4023</ele>
        <time>2013-05-26T13:04:35Z</time>
      </trkpt>
      <trkpt lat="59.8946886" lon="17.6857967">
        <ele>18.8831</ele>
        <time>2013-05-26T13:04:36Z</time>
      </trkpt>
      <trkpt lat="59.8946812" lon="17.6859382">
        <ele>19.3638</ele>
        <time>2013-05-26T13:04:37Z</time>
      </trkpt>
      <trkpt lat="59.8946678" lon="17.6860713">
        <ele>19.8444</ele>
        <time>2013-05-26T13:04:38Z</time>
      </trkpt>
      <trkpt lat="59.8946559" lon="17.6861905">
        <ele>20.325</ele>
        <time>2013-05-26T13:04:39Z</time>
      </trkpt>
      <trkpt lat="59.8946435" lon="17.6863061">
        <ele>20.325</ele>
        <time>2013-05-26T13:04:40Z</time>
      </trkpt>
      <trkpt lat="59.8946301" lon="17.6864241">
        <ele>20.8057</ele>
        <time>2013-05-26T13:04:41Z</time>
      </trkpt>
      <trkpt lat="59.8946155" lon="17.6865425">
        <ele>20.8057</ele>
        <time>2013-05-26T13:04:42Z</time>
      </trkpt>
      <trkpt lat="59.8945998" lon="17.6866603">
        <ele>21.2864</ele>
        <time>2013-05-26T13:04:43Z</time>
      </trkpt>
      <trkpt lat="59.8945828" lon="17.6867779">
        <ele>21.2864</ele>
        <time>2013-05-26T13:04:44Z</time>
      </trkpt>
      <trkpt lat="59.8945648" lon="17.6868943">
        <ele>21.2864</ele>
        <time>2013-05-26T13:04:45Z</time>
      </trkpt>
      <trkpt lat="59.8945459" lon="17.6870074">
        <ele>21.2864</ele>
        <time>2013-05-26T13:04:46Z</time>
      </trkpt>
      <trkpt lat="59.8945261" lon="17.6871188">
        <ele>21.767</ele>
        <time>2013-05-26T13:04:47Z</time>
      </trkpt>
      <trkpt lat="59.8945071" lon="17.6872387">
        <ele>21.767</ele>
        <time>2013-05-26T13:04:48Z</time>
      </trkpt>
      <trkpt lat="59.894487" lon="17.6873555">
        <ele>22.2476</ele>
        <time>2013-05-26T13:04:49Z</time>
      </trkpt>
      <trkpt lat="59.8944662" lon="17.6874708">
        <ele>22.2476</ele>
        <time>2013-05-26T13:04:50Z</time>
      </trkpt>
      <trkpt lat="59.8944433" lon="17.6875811">
        <ele>22.7283</ele>
        <time>2013-05-26T13:04:51Z</time>
      </trkpt>
      <trkpt lat="59.8944203" lon="17.6876994">
        <ele>21.767</ele>
        <time>2013-05-26T13:04:52Z</time>
      </trkpt>
      <trkpt lat="59.8943943" lon="17.6878117">
        <ele>21.767</ele>
        <time>2013-05-26T13:04:53Z</time>
      </trkpt>
      <trkpt lat="59.8943684" lon="17.6879261">
        <ele>22.2476</ele>
        <time>2013-05-26T13:04:54Z</time>
      </trkpt>
      <trkpt lat="59.8943413" lon="17.6880391">
        <ele>22.2476</ele>
        <time>2013-05-26T13:04:55Z</time>
      </trkpt>
      <trkpt lat="59.8943166" lon="17.6881552">
        <ele>22.2476</ele>
        <time>2013-05-26T13:04:56Z</time>
      </trkpt>
      <trkpt lat="59.8942943" lon="17.6882695">
        <ele>21.767</ele>
        <time>2013-05-26T13:04:57Z</time>
      </trkpt>
      <trkpt lat="59.8942759" lon="17.6883794">
        <ele>21.2864</ele>
        <time>2013-05-26T13:04:58Z</time>
      </trkpt>
      <trkpt lat="59.894257" lon="17.6884894">
        <ele>20.8057</ele>
        <time>2013-05-26T13:04:59Z</time>
      </trkpt>
      <trkpt lat="59.8942389" lon="17.6885933">
        <ele>20.325</ele>
        <time>2013-05-26T13:05:00Z</time>
      </trkpt>
      <trkpt lat="59.8942219" lon="17.6886914">
        <ele>20.325</ele>
        <time>2013-05-26T13:05:01Z</time>
      </trkpt>
      <trkpt lat="59.8942081" lon="17.6887896">
        <ele>20.325</ele>
        <time>2013-05-26T13:05:02Z</time>
      </trkpt>
      <trkpt lat="59.8941953" lon="17.6888929">
        <ele>20.325</ele>
        <time>2013-05-26T13:05:03Z</time>
      </trkpt>
      <trkpt lat="59.8941813" lon="17.6889985">
        <ele>20.8057</ele>
        <time>2013-05-26T13:05:04Z</time>
      </trkpt>
      <trkpt lat="59.8941682" lon="17.6891061">
        <ele>20.8057</ele>
        <time>2013-05-26T13:05:05Z</time>
      </trkpt>
      <trkpt lat="59.8941556" lon="17.6892126">
        <ele>21.2864</ele>
        <time>2013-05-26T13:05:06Z</time>
      </trkpt>
      <trkpt lat="59.894144" lon="17.6893174">
        <ele>21.2864</ele>
        <time>2013-05-26T13:05:07Z</time>
      </trkpt>
      <trkpt lat="59.8941352" lon="17.6894238">
        <ele>21.767</ele>
        <time>2013-05-26T13:05:08Z</time>
      </trkpt>
      <trkpt lat="59.8941252" lon="17.6895275">
        <ele>21.767</ele>
        <time>2013-05-26T13:05:09Z</time>
      </trkpt>
      <trkpt lat="59.8941113" lon="17.6896293">
        <ele>21.767</ele>
        <time>2013-05-26T13:05:10Z</time>
      </trkpt>
      <trkpt lat="59.8940916" lon="17.6897259">
        <ele>21.767</ele>
        <time>2013-05-26T13:05:11Z</time>
      </trkpt>
      <trkpt lat="59.8940739" lon="17.6898275">
        <ele>21.767</ele>
        <time>2013-05-26T13:05:12Z</time>
      </trkpt>
      <trkpt lat="59.8940576" lon="17.6899297">
        <ele>21.767</ele>
        <time>2013-05-26T13:05:13Z</time>
      </trkpt>
      <trkpt lat="59.8940456" lon="17.6900354">
        <ele>22.2476</ele>
        <time>2013-05-26T13:05:14Z</time>
      </trkpt>
      <trkpt lat="59.8940346" lon="17.6901391">
        <ele>22.7283</ele>
        <time>2013-05-26T13:05:15Z</time>
      </trkpt>
      <trkpt lat="59.8940207" lon="17.690238">
        <ele>22.7283</ele>
        <time>2013-05-26T13:05:16Z</time>
      </trkpt>
      <trkpt lat="59.8939996" lon="17.6903581">
        <ele>23.209</ele>
        <time>2013-05-26T13:05:17Z</time>
      </trkpt>
      <trkpt lat="59.8939755" lon="17.6904697">
        <ele>23.6896</ele>
        <time>2013-05-26T13:05:18Z</time>
      </trkpt>
      <trkpt lat="59.893954" lon="17.6905785">
        <ele>23.6896</ele>
        <time>2013-05-26T13:05:19Z</time>
      </trkpt>
      <trkpt lat="59.8939404" lon="17.6906857">
        <ele>23.209</ele>
        <time>2013-05-26T13:05:20Z</time>
      </trkpt>
      <trkpt lat="59.8939223" lon="17.6908036">
        <ele>23.209</ele>
        <time>2013-05-26T13:05:21Z</time>
      </trkpt>
      <trkpt lat="59.893904" lon="17.6909311">
        <ele>23.209</ele>
        <time>2013-05-26T13:05:22Z</time>
      </trkpt>
      <trkpt lat="59.8938876" lon="17.691064">
        <ele>23.6896</ele>
        <time>2013-05-26T13:05:23Z</time>
      </trkpt>
      <trkpt lat="59.8938747" lon="17.691195">
        <ele>23.209</ele>
        <time>2013-05-26T13:05:24Z</time>
      </trkpt>
      <trkpt lat="59.8938663" lon="17.6913249">
        <ele>22.7283</ele>
        <time>2013-05-26T13:05:25Z</time>
      </trkpt>
      <trkpt lat="59.893856" lon="17.6914542">
        <ele>22.2476</ele>
        <time>2013-05-26T13:05:26Z</time>
      </trkpt>
      <trkpt lat="59.8938487" lon="17.691587">
        <ele>22.2476</ele>
        <time>2013-05-26T13:05:27Z</time>
      </trkpt>
      <trkpt lat="59.8938472" lon="17.6917248">
        <ele>22.2476</ele>
        <time>2013-05-26T13:05:28Z</time>
      </trkpt>
      <trkpt lat="59.8938462" lon="17.6918645">
        <ele>22.2476</ele>
        <time>2013-05-26T13:05:29Z</time>
      </trkpt>
      <trkpt lat="59.8938502" lon="17.6920062">
        <ele>22.2476</ele>
        <time>2013-05-26T13:05:30Z</time>
      </trkpt>
      <trkpt lat="59.893852" lon="17.6921479">
        <ele>22.2476</ele>
        <time>2013-05-26T13:05:31Z</time>
      </trkpt>
      <trkpt lat="59.8938523" lon="17.6922917">
        <ele>21.767</ele>
        <time>2013-05-26T13:05:32Z</time>
      </trkpt>
      <trkpt lat="59.8938484" lon="17.6924345">
        <ele>21.767</ele>
        <time>2013-05-26T13:05:33Z</time>
      </trkpt>
      <trkpt lat="59.8938446" lon="17.6925786">
        <ele>21.2864</ele>
        <time>2013-05-26T13:05:34Z</time>
      </trkpt>
      <trkpt lat="59.8938429" lon="17.6927229">
        <ele>21.767</ele>
        <time>2013-05-26T13:05:35Z</time>
      </trkpt>
      <trkpt lat="59.8938415" lon="17.6928671">
        <ele>21.767</ele>
        <time>2013-05-26T13:05:36Z</time>
      </trkpt>
      <trkpt lat="59.8938383" lon="17.6930107">
        <ele>22.2476</ele>
        <time>2013-05-26T13:05:37Z</time>
      </trkpt>
      <trkpt lat="59.8938351" lon="17.6931515">
        <ele>22.2476</ele>
        <time>2013-05-26T13:05:38Z</time>
      </trkpt>
      <trkpt lat="59.8938308" lon="17.6932882">
        <ele>22.7283</ele>
        <time>2013-05-26T13:05:39Z</time>
      </trkpt>
      <trkpt lat="59.8938263" lon="17.6934224">
        <ele>22.7283</ele>
        <time>2013-05-26T13:05:40Z</time>
      </trkpt>
      <trkpt lat="59.8938214" lon="17.6935524">
        <ele>22.7283</ele>
        <time>2013-05-26T13:05:41Z</time>
      </trkpt>
      <trkpt lat="59.8938161" lon="17.6936777">
        <ele>23.209</ele>
        <time>2013-05-26T13:05:42Z</time>
      </trkpt>
      <trkpt lat="59.8938106" lon="17.6938011">
        <ele>23.209</ele>
        <time>2013-05-26T13:05:43Z</time>
      </trkpt>
      <trkpt lat="59.8938045" lon="17.6939253">
        <ele>23.209</ele>
        <time>2013-05-26T13:05:44Z</time>
      </trkpt>
      <trkpt lat="59.8937999" lon="17.6940511">
        <ele>23.209</ele>
        <time>2013-05-26T13:05:45Z</time>
      </trkpt>
      <trkpt lat="59.8937959" lon="17.6941771">
        <ele>23.209</ele>
        <time>2013-05-26T13:05:46Z</time>
      </trkpt>
      <trkpt lat="59.8937918" lon="17.6943041">
        <ele>23.209</ele>
        <time>2013-05-26T13:05:47Z</time>
      </trkpt>
      <trkpt lat="59.8937892" lon="17.6944333">
        <ele>23.209</ele>
        <time>2013-05-26T13:05:48Z</time>
      </trkpt>
      <trkpt lat="59.8937878" lon="17.6945644">
        <ele>23.209</ele>
        <time>2013-05-26T13:05:49Z</time>
      </trkpt>
      <trkpt lat="59.8937856" lon="17.694696">
        <ele>23.209</ele>
        <time>2013-05-26T13:05:50Z</time>
      </trkpt>
      <trkpt lat="59.8937819" lon="17.6948262">
        <ele>23.209</ele>
        <time>2013-05-26T13:05:51Z</time>
      </trkpt>
      <trkpt lat="59.8937773" lon="17.6949544">
        <ele>23.209</ele>
        <time>2013-05-26T13:05:52Z</time>
      </trkpt>
      <trkpt lat="59.8937732" lon="17.6950837">
        <ele>23.209</ele>
        <time>2013-05-26T13:05:53Z</time>
      </trkpt>
      <trkpt lat="59.8937702" lon="17.6952165">
        <ele>23.209</ele>
        <time>2013-05-26T13:05:54Z</time>
      </trkpt>
      <trkpt lat="59.8937674" lon="17.6953497">
        <ele>23.6896</ele>
        <time>2013-05-26T13:05:55Z</time>
      </trkpt>
      <trkpt lat="59.8937637" lon="17.6954794">
        <ele>23.6896</ele>
        <time>2013-05-26T13:05:56Z</time>
      </trkpt>
      <trkpt lat="59.8937586" lon="17.6956054">
        <ele>23.6896</ele>
        <time>2013-05-26T13:05:57Z</time>
      </trkpt>
      <trkpt lat="59.8937531" lon="17.6957255">
        <ele>23.6896</ele>
        <time>2013-05-26T13:05:58Z</time>
      </trkpt>
      <trkpt lat="59.8937467" lon="17.6958415">
        <ele>24.1703</ele>
        <time>2013-05-26T13:05:59Z</time>
      </trkpt>
      <trkpt lat="59.8937405" lon="17.695954">
        <ele>23.6896</ele>
        <time>2013-05-26T13:06:00Z</time>
      </trkpt>
      <trkpt lat="59.8937353" lon="17.6960638">
        <ele>24.1703</ele>
        <time>2013-05-26T13:06:01Z</time>
      </trkpt>
      <trkpt lat="59.8937286" lon="17.6961804">
        <ele>24.651</ele>
        <time>2013-05-26T13:06:02Z</time>
      </trkpt>
      <trkpt lat="59.8937251" lon="17.6962854">
        <ele>24.651</ele>
        <time>2013-05-26T13:06:03Z</time>
      </trkpt>
      <trkpt lat="59.893724" lon="17.6963926">
        <ele>24.651</ele>
        <time>2013-05-26T13:06:04Z</time>
      </trkpt>
      <trkpt lat="59.893724" lon="17.6964942">
        <ele>24.1703</ele>
        <time>2013-05-26T13:06:05Z</time>
      </trkpt>
      <trkpt lat="59.8937184" lon="17.6965945">
        <ele>24.1703</ele>
        <time>2013-05-26T13:06:06Z</time>
      </trkpt>
      <trkpt lat="59.8937104" lon="17.6966979">
        <ele>23.6896</ele>
        <time>2013-05-26T13:06:07Z</time>
      </trkpt>
      <trkpt lat="59.8937044" lon="17.6968091">
        <ele>23.209</ele>
        <time>2013-05-26T13:06:08Z</time>
      </trkpt>
      <trkpt lat="59.8936992" lon="17.6969275">
        <ele>23.209</ele>
        <time>2013-05-26T13:06:09Z</time>
      </trkpt>
      <trkpt lat="59.8936965" lon="17.6970479">
        <ele>22.7283</ele>
        <time>2013-05-26T13:06:10Z</time>
      </trkpt>
      <trkpt lat="59.8936918" lon="17.6971676">
        <ele>22.2476</ele>
        <time>2013-05-26T13:06:11Z</time>
      </trkpt>
      <trkpt lat="59.893683" lon="17.6972855">
        <ele>22.2476</ele>
        <time>2013-05-26T13:06:12Z</time>
      </trkpt>
      <trkpt lat="59.8936691" lon="17.6974006">
        <ele>21.767</ele>
        <time>2013-05-26T13:06:13Z</time>
      </trkpt>
      <trkpt lat="59.8936499" lon="17.6975186">
        <ele>22.2476</ele>
        <time>2013-05-26T13:06:14Z</time>
      </trkpt>
      <trkpt lat="59.893628" lon="17.6976348">
        <ele>22.2476</ele>
        <time>2013-05-26T13:06:15Z</time>
      </trkpt>
      <trkpt lat="59.8936028" lon="17.6977491">
        <ele>22.2476</ele>
        <time>2013-05-26T13:06:16Z</time>
      </trkpt>
      <trkpt lat="59.8935747" lon="17.6978591">
        <ele>22.2476</ele>
        <time>2013-05-26T13:06:17Z</time>
      </trkpt>
      <trkpt lat="59.8935452" lon="17.697967">
        <ele>22.7283</ele>
        <time>2013-05-26T13:06:18Z</time>
      </trkpt>
      <trkpt lat="59.8935134" lon="17.6980715">
        <ele>22.7283</ele>
        <time>2013-05-26T13:06:19Z</time>
      </trkpt>
      <trkpt lat="59.8934785" lon="17.6981704">
        <ele>22.7283</ele>
        <time>2013-05-26T13:06:20Z</time>
      </trkpt>
      <trkpt lat="59.8934404" lon="17.6982667">
        <ele>22.7283</ele>
        <time>2013-05-26T13:06:21Z</time>
      </trkpt>
      <trkpt lat="59.8934001" lon="17.6983593">
        <ele>22.7283</ele>
        <time>2013-05-26T13:06:22Z</time>
      </trkpt>
      <trkpt lat="59.8933571" lon="17.6984469">
        <ele>22.7283</ele>
        <time>2013-05-26T13:06:23Z</time>
      </trkpt>
      <trkpt lat="59.8933101" lon="17.698535">
        <ele>23.209</ele>
        <time>2013-05-26T13:06:24Z</time>
      </trkpt>
      <trkpt lat="59.893257" lon="17.6986095">
        <ele>22.2476</ele>
        <time>2013-05-26T13:06:25Z</time>
      </trkpt>
      <trkpt lat="59.8932034" lon="17.6986844">
        <ele>22.7283</ele>
        <time>2013-05-26T13:06:26Z</time>
      </trkpt>
      <trkpt lat="59.8931458" lon="17.6987492">
        <ele>22.2476</ele>
        <time>2013-05-26T13:06:27Z</time>
      </trkpt>
      <trkpt lat="59.8930832" lon="17.6988044">
        <ele>21.767</ele>
        <time>2013-05-26T13:06:28Z</time>
      </trkpt>
      <trkpt lat="59.8930205" lon="17.6988573">
        <ele>21.767</ele>
        <time>2013-05-26T13:06:29Z</time>
      </trkpt>
      <trkpt lat="59.8929563" lon="17.6989032">
        <ele>21.767</ele>
        <time>2013-05-26T13:06:30Z</time>
      </trkpt>
      <trkpt lat="59.8928916" lon="17.6989412">
        <ele>21.767</ele>
        <time>2013-05-26T13:06:31Z</time>
      </trkpt>
      <trkpt lat="59.8928241" lon="17.6989686">
        <ele>21.2864</ele>
        <time>2013-05-26T13:06:32Z</time>
      </trkpt>
      <trkpt lat="59.8927551" lon="17.6989859">
        <ele>20.8057</ele>
        <time>2013-05-26T13:06:33Z</time>
      </trkpt>
      <trkpt lat="59.8926857" lon="17.6989946">
        <ele>20.8057</ele>
        <time>2013-05-26T13:06:34Z</time>
      </trkpt>
      <trkpt lat="59.8926159" lon="17.6989946">
        <ele>20.325</ele>
        <time>2013-05-26T13:06:35Z</time>
      </trkpt>
      <trkpt lat="59.892546" lon="17.6989871">
        <ele>19.8444</ele>
        <time>2013-05-26T13:06:36Z</time>
      </trkpt>
      <trkpt lat="59.8924771" lon="17.698967">
        <ele>19.3638</ele>
        <time>2013-05-26T13:06:37Z</time>
      </trkpt>
      <trkpt lat="59.8924091" lon="17.6989393">
        <ele>18.8831</ele>
        <time>2013-05-26T13:06:38Z</time>
      </trkpt>
      <trkpt lat="59.8923414" lon="17.698906">
        <ele>18.8831</ele>
        <time>2013-05-26T13:06:39Z</time>
      </trkpt>
      <trkpt lat="59.8922762" lon="17.6988602">
        <ele>17.4412</ele>
        <time>2013-05-26T13:06:40Z</time>
      </trkpt>
      <trkpt lat="59.8922153" lon="17.6988076">
        <ele>16.4797</ele>
        <time>2013-05-26T13:06:41Z</time>
      </trkpt>
      <trkpt lat="59.8921532" lon="17.698747">
        <ele>15.999</ele>
        <time>2013-05-26T13:06:42Z</time>
      </trkpt>
      <trkpt lat="59.8920921" lon="17.6986803">
        <ele>15.0377</ele>
        <time>2013-05-26T13:06:43Z</time>
      </trkpt>
      <trkpt lat="59.8920326" lon="17.6986113">
        <ele>14.557</ele>
        <time>2013-05-26T13:06:44Z</time>
      </trkpt>
      <trkpt lat="59.8919742" lon="17.6985408">
        <ele>14.0764</ele>
        <time>2013-05-26T13:06:45Z</time>
      </trkpt>
      <trkpt lat="59.8919164" lon="17.6984683">
        <ele>14.0764</ele>
        <time>2013-05-26T13:06:46Z</time>
      </trkpt>
      <trkpt lat="59.8918582" lon="17.6983968">
        <ele>14.0764</ele>
        <time>2013-05-26T13:06:47Z</time>
      </trkpt>
      <trkpt lat="59.8918006" lon="17.6983287">
        <ele>13.5958</ele>
        <time>2013-05-26T13:06:48Z</time>
      </trkpt>
      <trkpt lat="59.8917426" lon="17.6982564">
        <ele>13.5958</ele>
        <time>2013-05-26T13:06:49Z</time>
      </trkpt>
      <trkpt lat="59.891684" lon="17.6981829">
        <ele>13.1151</ele>
        <time>2013-05-26T13:06:50Z</time>
      </trkpt>
      <trkpt lat="59.8916301" lon="17.6981114">
        <ele>13.1151</ele>
        <time>2013-05-26T13:06:51Z</time>
      </trkpt>
      <trkpt lat="59.8915728" lon="17.6980413">
        <ele>12.6344</ele>
        <time>2013-05-26T13:06:52Z</time>
      </trkpt>
      <trkpt lat="59.8915131" lon="17.6979689">
        <ele>12.6344</ele>
        <time>2013-05-26T13:06:53Z</time>
      </trkpt>
      <trkpt lat="59.8914543" lon="17.6978949">
        <ele>12.6344</ele>
        <time>2013-05-26T13:06:54Z</time>
      </trkpt>
      <trkpt lat="59.8913953" lon="17.697823">
        <ele>12.6344</ele>
        <time>2013-05-26T13:06:55Z</time>
      </trkpt>
      <trkpt lat="59.891334" lon="17.6977569">
        <ele>12.1538</ele>
        <time>2013-05-26T13:06:56Z</time>
      </trkpt>
      <trkpt lat="59.8912722" lon="17.6976949">
        <ele>12.1538</ele>
        <time>2013-05-26T13:06:57Z</time>
      </trkpt>
      <trkpt lat="59.8912099" lon="17.6976368">
        <ele>12.1538</ele>
        <time>2013-05-26T13:06:58Z</time>
      </trkpt>
      <trkpt lat="59.8911459" lon="17.6975875">
        <ele>12.1538</ele>
        <time>2013-05-26T13:06:59Z</time>
      </trkpt>
      <trkpt lat="59.8910791" lon="17.6975552">
        <ele>12.1538</ele>
        <time>2013-05-26T13:07:00Z</time>
      </trkpt>
      <trkpt lat="59.8910101" lon="17.6975431">
        <ele>12.1538</ele>
        <time>2013-05-26T13:07:01Z</time>
      </trkpt>
      <trkpt lat="59.8909422" lon="17.6975456">
        <ele>12.1538</ele>
        <time>2013-05-26T13:07:02Z</time>
      </trkpt>
      <trkpt lat="59.8908766" lon="17.6975605">
        <ele>12.1538</ele>
        <time>2013-05-26T13:07:03Z</time>
      </trkpt>
      <trkpt lat="59.8908132" lon="17.6975865">
        <ele>12.1538</ele>
        <time>2013-05-26T13:07:04Z</time>
      </trkpt>
      <trkpt lat="59.8907538" lon="17.6976265">
        <ele>12.1538</ele>
        <time>2013-05-26T13:07:05Z</time>
      </trkpt>
      <trkpt lat="59.8906993" lon="17.6976814">
        <ele>12.1538</ele>
        <time>2013-05-26T13:07:06Z</time>
      </trkpt>
      <trkpt lat="59.8906511" lon="17.6977515">
        <ele>12.1538</ele>
        <time>2013-05-26T13:07:07Z</time>
      </trkpt>
      <trkpt lat="59.8906086" lon="17.6978301">
        <ele>12.1538</ele>
        <time>2013-05-26T13:07:08Z</time>
      </trkpt>
      <trkpt lat="59.8905708" lon="17.6979081">
        <ele>11.6732</ele>
        <time>2013-05-26T13:07:09Z</time>
      </trkpt>
      <trkpt lat="59.8905373" lon="17.6979814">
        <ele>11.6732</ele>
        <time>2013-05-26T13:07:10Z</time>
      </trkpt>
      <trkpt lat="59.8905092" lon="17.6980482">
        <ele>11.6732</ele>
        <time>2013-05-26T13:07:11Z</time>
      </trkpt>
      <trkpt lat="59.8904831" lon="17.6981092">
        <ele>11.6732</ele>
        <time>2013-05-26T13:07:12Z</time>
      </trkpt>
      <trkpt lat="59.8904594" lon="17.6981607">
        <ele>11.6732</ele>
        <time>2013-05-26T13:07:13Z</time>
      </trkpt>
      <trkpt lat="59.8904372" lon="17.6982008">
        <ele>11.6732</ele>
        <time>2013-05-26T13:07:14Z</time>
      </trkpt>
      <trkpt lat="59.8904143" lon="17.6982345">
        <ele>11.6732</ele>
        <time>2013-05-26T13:07:15Z</time>
      </trkpt>
      <trkpt lat="59.8903869" lon="17.6982633">
        <ele>11.6732</ele>
        <time>2013-05-26T13:07:16Z</time>
      </trkpt>
      <trkpt lat="59.8903568" lon="17.6983005">
        <ele>12.1538</ele>
        <time>2013-05-26T13:07:17Z</time>
      </trkpt>
      <trkpt lat="59.8903222" lon="17.6983262">
        <ele>11.6732</ele>
        <time>2013-05-26T13:07:18Z</time>
      </trkpt>
      <trkpt lat="59.8902859" lon="17.6983477">
        <ele>11.6732</ele>
        <time>2013-05-26T13:07:19Z</time>
      </trkpt>
      <trkpt lat="59.8902521" lon="17.698373">
        <ele>11.6732</ele>
        <time>2013-05-26T13:07:20Z</time>
      </trkpt>
      <trkpt lat="59.8902284" lon="17.6984154">
        <ele>12.1538</ele>
        <time>2013-05-26T13:07:21Z</time>
      </trkpt>
      <trkpt lat="59.8902239" lon="17.6984797">
        <ele>12.1538</ele>
        <time>2013-05-26T13:07:22Z</time>
      </trkpt>
      <trkpt lat="59.8902283" lon="17.6985399">
        <ele>12.1538</ele>
        <time>2013-05-26T13:07:23Z</time>
      </trkpt>
      <trkpt lat="59.8902518" lon="17.6985869">
        <ele>12.6344</ele>
        <time>2013-05-26T13:07:24Z</time>
      </trkpt>
      <trkpt lat="59.890286" lon="17.6986293">
        <ele>13.1151</ele>
        <time>2013-05-26T13:07:25Z</time>
      </trkpt>
      <trkpt lat="59.8903202" lon="17.6986677">
        <ele>13.1151</ele>
        <time>2013-05-26T13:07:26Z</time>
      </trkpt>
      <trkpt lat="59.8903496" lon="17.6987113">
        <ele>13.1151</ele>
        <time>2013-05-26T13:07:27Z</time>
      </trkpt>
      <trkpt lat="59.8903798" lon="17.698758">
        <ele>13.1151</ele>
        <time>2013-05-26T13:07:28Z</time>
      </trkpt>
      <trkpt lat="59.8904108" lon="17.698807">
        <ele>13.1151</ele>
        <time>2013-05-26T13:07:29Z</time>
      </trkpt>
      <trkpt lat="59.8904435" lon="17.6988597">
        <ele>13.5958</ele>
        <time>2013-05-26T13:07:30Z</time>
      </trkpt>
      <trkpt lat="59.890476" lon="17.6989142">
        <ele>13.5958</ele>
        <time>2013-05-26T13:07:31Z</time>
      </trkpt>
      <trkpt lat="59.8905086" lon="17.6989702">
        <ele>13.5958</ele>
        <time>2013-05-26T13:07:32Z</time>
      </trkpt>
      <trkpt lat="59.8905409" lon="17.6990267">
        <ele>13.5958</ele>
        <time>2013-05-26T13:07:33Z</time>
      </trkpt>
      <trkpt lat="59.8905734" lon="17.699089">
        <ele>13.5958</ele>
        <time>2013-05-26T13:07:34Z</time>
      </trkpt>
      <trkpt lat="59.8906051" lon="17.6991525">
        <ele>14.0764</ele>
        <time>2013-05-26T13:07:35Z</time>
      </trkpt>
      <trkpt lat="59.8906365" lon="17.6992153">
        <ele>14.0764</ele>
        <time>2013-05-26T13:07:36Z</time>
      </trkpt>
      <trkpt lat="59.8906675" lon="17.6992774">
        <ele>14.0764</ele>
        <time>2013-05-26T13:07:37Z</time>
      </trkpt>
      <trkpt lat="59.890702" lon="17.6993352">
        <ele>14.0764</ele>
        <time>2013-05-26T13:07:38Z</time>
      </trkpt>
      <trkpt lat="59.8907372" lon="17.6993913">
        <ele>14.0764</ele>
        <time>2013-05-26T13:07:39Z</time>
      </trkpt>
      <trkpt lat="59.8907734" lon="17.6994405">
        <ele>14.0764</ele>
        <time>2013-05-26T13:07:40Z</time>
      </trkpt>
      <trkpt lat="59.8908127" lon="17.69948">
        <ele>14.0764</ele>
        <time>2013-05-26T13:07:41Z</time>
      </trkpt>
      <trkpt lat="59.8908542" lon="17.699513">
        <ele>14.0764</ele>
        <time>2013-05-26T13:07:42Z</time>
      </trkpt>
      <trkpt lat="59.890898" lon="17.6995416">
        <ele>14.557</ele>
        <time>2013-05-26T13:07:43Z</time>
      </trkpt>
      <trkpt lat="59.8909418" lon="17.6995746">
        <ele>15.0377</ele>
        <time>2013-05-26T13:07:44Z</time>
      </trkpt>
      <trkpt lat="59.8909857" lon="17.6996172">
        <ele>15.5184</ele>
        <time>2013-05-26T13:07:45Z</time>
      </trkpt>
      <trkpt lat="59.8910283" lon="17.6996674">
        <ele>15.999</ele>
        <time>2013-05-26T13:07:46Z</time>
      </trkpt>
      <trkpt lat="59.8910712" lon="17.6997209">
        <ele>16.4797</ele>
        <time>2013-05-26T13:07:47Z</time>
      </trkpt>
      <trkpt lat="59.8911135" lon="17.6997724">
        <ele>16.9604</ele>
        <time>2013-05-26T13:07:48Z</time>
      </trkpt>
      <trkpt lat="59.891156" lon="17.6998255">
        <ele>17.4412</ele>
        <time>2013-05-26T13:07:49Z</time>
      </trkpt>
      <trkpt lat="59.8911974" lon="17.6998814">
        <ele>17.4412</ele>
        <time>2013-05-26T13:07:50Z</time>
      </trkpt>
      <trkpt lat="59.891239" lon="17.6999362">
        <ele>17.9218</ele>
        <time>2013-05-26T13:07:51Z</time>
      </trkpt>
      <trkpt lat="59.891282" lon="17.6999916">
        <ele>18.4023</ele>
        <time>2013-05-26T13:07:52Z</time>
      </trkpt>
      <trkpt lat="59.8913213" lon="17.7000492">
        <ele>18.8831</ele>
        <time>2013-05-26T13:07:53Z</time>
      </trkpt>
      <trkpt lat="59.8913591" lon="17.7001071">
        <ele>18.8831</ele>
        <time>2013-05-26T13:07:54Z</time>
      </trkpt>
      <trkpt lat="59.8913997" lon="17.7001638">
        <ele>19.3638</ele>
        <time>2013-05-26T13:07:55Z</time>
      </trkpt>
      <trkpt lat="59.891443" lon="17.700219">
        <ele>19.8444</ele>
        <time>2013-05-26T13:07:56Z</time>
      </trkpt>
      <trkpt lat="59.8914877" lon="17.7002734">
        <ele>20.8057</ele>
        <time>2013-05-26T13:07:57Z</time>
      </trkpt>
      <trkpt lat="59.8915305" lon="17.7003267">
        <ele>21.2864</ele>
        <time>2013-05-26T13:07:58Z</time>
      </trkpt>
      <trkpt lat="59.8915747" lon="17.7003803">
        <ele>21.767</ele>
        <time>2013-05-26T13:07:59Z</time>
      </trkpt>
      <trkpt lat="59.8916187" lon="17.7004373">
        <ele>22.2476</ele>
        <time>2013-05-26T13:08:00Z</time>
      </trkpt>
      <trkpt lat="59.8916619" lon="17.7004942">
        <ele>22.7283</ele>
        <time>2013-05-26T13:08:01Z</time>
      </trkpt>
      <trkpt lat="59.8917053" lon="17.7005491">
        <ele>23.209</ele>
        <time>2013-05-26T13:08:02Z</time>
      </trkpt>
      <trkpt lat="59.8917488" lon="17.7006038">
        <ele>23.209</ele>
        <time>2013-05-26T13:08:03Z</time>
      </trkpt>
      <trkpt lat="59.8917921" lon="17.7006609">
        <ele>23.6896</ele>
        <time>2013-05-26T13:08:04Z</time>
      </trkpt>
      <trkpt lat="59.8918354" lon="17.7007191">
        <ele>24.1703</ele>
        <time>2013-05-26T13:08:05Z</time>
      </trkpt>
      <trkpt lat="59.8918801" lon="17.7007753">
        <ele>24.1703</ele>
        <time>2013-05-26T13:08:06Z</time>
      </trkpt>
      <trkpt lat="59.8919242" lon="17.700833">
        <ele>24.651</ele>
        <time>2013-05-26T13:08:07Z</time>
      </trkpt>
      <trkpt lat="59.8919689" lon="17.7008931">
        <ele>24.651</ele>
        <time>2013-05-26T13:08:08Z</time>
      </trkpt>
      <trkpt lat="59.8920122" lon="17.7009532">
        <ele>25.1317</ele>
        <time>2013-05-26T13:08:09Z</time>
      </trkpt>
      <trkpt lat="59.892057" lon="17.7010128">
        <ele>25.1317</ele>
        <time>2013-05-26T13:08:10Z</time>
      </trkpt>
      <trkpt lat="59.8921029" lon="17.7010737">
        <ele>25.6123</ele>
        <time>2013-05-26T13:08:11Z</time>
      </trkpt>
      <trkpt lat="59.8921491" lon="17.7011362">
        <ele>25.6123</ele>
        <time>2013-05-26T13:08:12Z</time>
      </trkpt>
      <trkpt lat="59.8921944" lon="17.7011993">
        <ele>25.6123</ele>
        <time>2013-05-26T13:08:13Z</time>
      </trkpt>
      <trkpt lat="59.8922393" lon="17.7012613">
        <ele>25.6123</ele>
        <time>2013-05-26T13:08:14Z</time>
      </trkpt>
      <trkpt lat="59.8922839" lon="17.7013205">
        <ele>25.6123</ele>
        <time>2013-05-26T13:08:15Z</time>
      </trkpt>
      <trkpt lat="59.8923272" lon="17.7013759">
        <ele>25.6123</ele>
        <time>2013-05-26T13:08:16Z</time>
      </trkpt>
      <trkpt lat="59.8923729" lon="17.7014325">
        <ele>25.6123</ele>
        <time>2013-05-26T13:08:17Z</time>
      </trkpt>
      <trkpt lat="59.8924175" lon="17.7014965">
        <ele>26.0929</ele>
        <time>2013-05-26T13:08:18Z</time>
      </trkpt>
      <trkpt lat="59.8924613" lon="17.7015644">
        <ele>26.0929</ele>
        <time>2013-05-26T13:08:19Z</time>
      </trkpt>
      <trkpt lat="59.892504" lon="17.7016362">
        <ele>26.0929</ele>
        <time>2013-05-26T13:08:20Z</time>
      </trkpt>
      <trkpt lat="59.8925464" lon="17.7017111">
        <ele>26.0929</ele>
        <time>2013-05-26T13:08:21Z</time>
      </trkpt>
      <trkpt lat="59.8925905" lon="17.701785">
        <ele>26.0929</ele>
        <time>2013-05-26T13:08:22Z</time>
      </trkpt>
      <trkpt lat="59.8926365" lon="17.701851">
        <ele>26.0929</ele>
        <time>2013-05-26T13:08:23Z</time>
      </trkpt>
      <trkpt lat="59.892686" lon="17.7019079">
        <ele>26.0929</ele>
        <time>2013-05-26T13:08:24Z</time>
      </trkpt>
      <trkpt lat="59.8927374" lon="17.7019624">
        <ele>26.5736</ele>
        <time>2013-05-26T13:08:25Z</time>
      </trkpt>
      <trkpt lat="59.8927883" lon="17.7020165">
        <ele>26.5736</ele>
        <time>2013-05-26T13:08:26Z</time>
      </trkpt>
      <trkpt lat="59.8928427" lon="17.7020678">
        <ele>26.5736</ele>
        <time>2013-05-26T13:08:27Z</time>
      </trkpt>
      <trkpt lat="59.8928939" lon="17.7021259">
        <ele>26.5736</ele>
        <time>2013-05-26T13:08:28Z</time>
      </trkpt>
      <trkpt lat="59.8929424" lon="17.7021896">
        <ele>26.5736</ele>
        <time>2013-05-26T13:08:29Z</time>
      </trkpt>
      <trkpt lat="59.8929915" lon="17.7022524">
        <ele>26.5736</ele>
        <time>2013-05-26T13:08:30Z</time>
      </trkpt>
      <trkpt lat="59.8930412" lon="17.7023145">
        <ele>26.5736</ele>
        <time>2013-05-26T13:08:31Z</time>
      </trkpt>
      <trkpt lat="59.8930909" lon="17.7023777">
        <ele>26.5736</ele>
        <time>2013-05-26T13:08:32Z</time>
      </trkpt>
      <trkpt lat="59.8931407" lon="17.7024426">
        <ele>26.5736</ele>
        <time>2013-05-26T13:08:33Z</time>
      </trkpt>
      <trkpt lat="59.8931912" lon="17.7025086">
        <ele>26.5736</ele>
        <time>2013-05-26T13:08:34Z</time>
      </trkpt>
      <trkpt lat="59.8932425" lon="17.7025754">
        <ele>26.5736</ele>
        <time>2013-05-26T13:08:35Z</time>
      </trkpt>
      <trkpt lat="59.8932939" lon="17.7026438">
        <ele>26.5736</ele>
        <time>2013-05-26T13:08:36Z</time>
      </trkpt>
      <trkpt lat="59.8933458" lon="17.7027124">
        <ele>26.5736</ele>
        <time>2013-05-26T13:08:37Z</time>
      </trkpt>
      <trkpt lat="59.8933979" lon="17.7027801">
        <ele>26.5736</ele>
        <time>2013-05-26T13:08:38Z</time>
      </trkpt>
      <trkpt lat="59.8934498" lon="17.702845">
        <ele>26.5736</ele>
        <time>2013-05-26T13:08:39Z</time>
      </trkpt>
      <trkpt lat="59.8935023" lon="17.7029077">
        <ele>26.5736</ele>
        <time>2013-05-26T13:08:40Z</time>
      </trkpt>
      <trkpt lat="59.8935546" lon="17.7029729">
        <ele>26.5736</ele>
        <time>2013-05-26T13:08:41Z</time>
      </trkpt>
      <trkpt lat="59.8936072" lon="17.7030397">
        <ele>26.0929</ele>
        <time>2013-05-26T13:08:42Z</time>
      </trkpt>
      <trkpt lat="59.8936596" lon="17.7031074">
        <ele>26.0929</ele>
        <time>2013-05-26T13:08:43Z</time>
      </trkpt>
      <trkpt lat="59.8937105" lon="17.7031756">
        <ele>26.0929</ele>
        <time>2013-05-26T13:08:44Z</time>
      </trkpt>
      <trkpt lat="59.8937579" lon="17.7032458">
        <ele>25.6123</ele>
        <time>2013-05-26T13:08:45Z</time>
      </trkpt>
      <trkpt lat="59.8938057" lon="17.7033148">
        <ele>25.6123</ele>
        <time>2013-05-26T13:08:46Z</time>
      </trkpt>
      <trkpt lat="59.8938548" lon="17.7033827">
        <ele>25.6123</ele>
        <time>2013-05-26T13:08:47Z</time>
      </trkpt>
      <trkpt lat="59.8939041" lon="17.7034495">
        <ele>25.6123</ele>
        <time>2013-05-26T13:08:48Z</time>
      </trkpt>
      <trkpt lat="59.8939546" lon="17.7035159">
        <ele>25.1317</ele>
        <time>2013-05-26T13:08:49Z</time>
      </trkpt>
      <trkpt lat="59.8940053" lon="17.703586">
        <ele>25.1317</ele>
        <time>2013-05-26T13:08:50Z</time>
      </trkpt>
      <trkpt lat="59.8940555" lon="17.7036588">
        <ele>25.1317</ele>
        <time>2013-05-26T13:08:51Z</time>
      </trkpt>
      <trkpt lat="59.8941052" lon="17.7037333">
        <ele>24.651</ele>
        <time>2013-05-26T13:08:52Z</time>
      </trkpt>
      <trkpt lat="59.8941573" lon="17.7038062">
        <ele>24.651</ele>
        <time>2013-05-26T13:08:53Z</time>
      </trkpt>
      <trkpt lat="59.8942086" lon="17.7038779">
        <ele>24.1703</ele>
        <time>2013-05-26T13:08:54Z</time>
      </trkpt>
      <trkpt lat="59.8942592" lon="17.7039507">
        <ele>24.1703</ele>
        <time>2013-05-26T13:08:55Z</time>
      </trkpt>
      <trkpt lat="59.8943096" lon="17.704023">
        <ele>23.6896</ele>
        <time>2013-05-26T13:08:56Z</time>
      </trkpt>
      <trkpt lat="59.8943585" lon="17.7040934">
        <ele>23.6896</ele>
        <time>2013-05-26T13:08:57Z</time>
      </trkpt>
      <trkpt lat="59.8944093" lon="17.7041615">
        <ele>23.6896</ele>
        <time>2013-05-26T13:08:58Z</time>
      </trkpt>
      <trkpt lat="59.8944609" lon="17.7042285">
        <ele>23.6896</ele>
        <time>2013-05-26T13:08:59Z</time>
      </trkpt>
      <trkpt lat="59.8945119" lon="17.7042954">
        <ele>23.6896</ele>
        <time>2013-05-26T13:09:00Z</time>
      </trkpt>
      <trkpt lat="59.8945622" lon="17.7043618">
        <ele>23.6896</ele>
        <time>2013-05-26T13:09:01Z</time>
      </trkpt>
      <trkpt lat="59.8946112" lon="17.7044259">
        <ele>23.209</ele>
        <time>2013-05-26T13:09:02Z</time>
      </trkpt>
      <trkpt lat="59.8946606" lon="17.7044879">
        <ele>23.209</ele>
        <time>2013-05-26T13:09:03Z</time>
      </trkpt>
      <trkpt lat="59.8947096" lon="17.7045492">
        <ele>23.209</ele>
        <time>2013-05-26T13:09:04Z</time>
      </trkpt>
      <trkpt lat="59.8947568" lon="17.7046139">
        <ele>23.209</ele>
        <time>2013-05-26T13:09:05Z</time>
      </trkpt>
      <trkpt lat="59.894802" lon="17.7046819">
        <ele>23.209</ele>
        <time>2013-05-26T13:09:06Z</time>
      </trkpt>
      <trkpt lat="59.8948465" lon="17.7047492">
        <ele>23.209</ele>
        <time>2013-05-26T13:09:07Z</time>
      </trkpt>
      <trkpt lat="59.894892" lon="17.7048129">
        <ele>23.209</ele>
        <time>2013-05-26T13:09:08Z</time>
      </trkpt>
      <trkpt lat="59.8949387" lon="17.7048751">
        <ele>23.209</ele>
        <time>2013-05-26T13:09:09Z</time>
      </trkpt>
      <trkpt lat="59.8949842" lon="17.704936">
        <ele>23.209</ele>
        <time>2013-05-26T13:09:10Z</time>
      </trkpt>
      <trkpt lat="59.8950277" lon="17.7049943">
        <ele>23.209</ele>
        <time>2013-05-26T13:09:11Z</time>
      </trkpt>
      <trkpt lat="59.8950698" lon="17.7050542">
        <ele>23.209</ele>
        <time>2013-05-26T13:09:12Z</time>
      </trkpt>
      <trkpt lat="59.8951102" lon="17.7051179">
        <ele>23.209</ele>
        <time>2013-05-26T13:09:13Z</time>
      </trkpt>
      <trkpt lat="59.89515" lon="17.7051841">
        <ele>23.209</ele>
        <time>2013-05-26T13:09:14Z</time>
      </trkpt>
      <trkpt lat="59.8951918" lon="17.7052478">
        <ele>23.209</ele>
        <time>2013-05-26T13:09:15Z</time>
      </trkpt>
      <trkpt lat="59.8952363" lon="17.7053061">
        <ele>22.7283</ele>
        <time>2013-05-26T13:09:16Z</time>
      </trkpt>
      <trkpt lat="59.895284" lon="17.7053625">
        <ele>23.209</ele>
        <time>2013-05-26T13:09:17Z</time>
      </trkpt>
      <trkpt lat="59.8953314" lon="17.7054157">
        <ele>23.209</ele>
        <time>2013-05-26T13:09:18Z</time>
      </trkpt>
      <trkpt lat="59.8953796" lon="17.7054655">
        <ele>23.209</ele>
        <time>2013-05-26T13:09:19Z</time>
      </trkpt>
      <trkpt lat="59.8954276" lon="17.7055123">
        <ele>23.209</ele>
        <time>2013-05-26T13:09:20Z</time>
      </trkpt>
      <trkpt lat="59.8954739" lon="17.7055645">
        <ele>23.209</ele>
        <time>2013-05-26T13:09:21Z</time>
      </trkpt>
      <trkpt lat="59.8955169" lon="17.7056224">
        <ele>23.209</ele>
        <time>2013-05-26T13:09:22Z</time>
      </trkpt>
      <trkpt lat="59.8955598" lon="17.7056806">
        <ele>23.209</ele>
        <time>2013-05-26T13:09:23Z</time>
      </trkpt>
      <trkpt lat="59.8956027" lon="17.7057382">
        <ele>23.209</ele>
        <time>2013-05-26T13:09:24Z</time>
      </trkpt>
      <trkpt lat="59.8956453" lon="17.7057939">
        <ele>23.209</ele>
        <time>2013-05-26T13:09:25Z</time>
      </trkpt>
      <trkpt lat="59.8956884" lon="17.705849">
        <ele>23.209</ele>
        <time>2013-05-26T13:09:26Z</time>
      </trkpt>
      <trkpt lat="59.8957315" lon="17.7059069">
        <ele>23.209</ele>
        <time>2013-05-26T13:09:27Z</time>
      </trkpt>
      <trkpt lat="59.8957753" lon="17.7059655">
        <ele>23.209</ele>
        <time>2013-05-26T13:09:28Z</time>
      </trkpt>
      <trkpt lat="59.8958196" lon="17.7060243">
        <ele>23.209</ele>
        <time>2013-05-26T13:09:29Z</time>
      </trkpt>
      <trkpt lat="59.8958638" lon="17.7060837">
        <ele>23.209</ele>
        <time>2013-05-26T13:09:30Z</time>
      </trkpt>
      <trkpt lat="59.895907" lon="17.706143">
        <ele>23.209</ele>
        <time>2013-05-26T13:09:31Z</time>
      </trkpt>
      <trkpt lat="59.8959509" lon="17.7062018">
        <ele>23.209</ele>
        <time>2013-05-26T13:09:32Z</time>
      </trkpt>
      <trkpt lat="59.8959958" lon="17.7062622">
        <ele>23.6896</ele>
        <time>2013-05-26T13:09:33Z</time>
      </trkpt>
      <trkpt lat="59.8960405" lon="17.7063222">
        <ele>23.209</ele>
        <time>2013-05-26T13:09:34Z</time>
      </trkpt>
      <trkpt lat="59.8960854" lon="17.7063833">
        <ele>23.209</ele>
        <time>2013-05-26T13:09:35Z</time>
      </trkpt>
      <trkpt lat="59.8961275" lon="17.7064456">
        <ele>22.7283</ele>
        <time>2013-05-26T13:09:36Z</time>
      </trkpt>
      <trkpt lat="59.8961703" lon="17.7065069">
        <ele>22.7283</ele>
        <time>2013-05-26T13:09:37Z</time>
      </trkpt>
      <trkpt lat="59.896213" lon="17.7065662">
        <ele>22.2476</ele>
        <time>2013-05-26T13:09:38Z</time>
      </trkpt>
      <trkpt lat="59.8962549" lon="17.706624">
        <ele>22.2476</ele>
        <time>2013-05-26T13:09:39Z</time>
      </trkpt>
      <trkpt lat="59.8962985" lon="17.7066808">
        <ele>22.2476</ele>
        <time>2013-05-26T13:09:40Z</time>
      </trkpt>
      <trkpt lat="59.8963415" lon="17.7067389">
        <ele>22.2476</ele>
        <time>2013-05-26T13:09:41Z</time>
      </trkpt>
      <trkpt lat="59.8963837" lon="17.7067985">
        <ele>21.767</ele>
        <time>2013-05-26T13:09:42Z</time>
      </trkpt>
      <trkpt lat="59.8964268" lon="17.7068565">
        <ele>21.767</ele>
        <time>2013-05-26T13:09:43Z</time>
      </trkpt>
      <trkpt lat="59.8964699" lon="17.7069137">
        <ele>21.767</ele>
        <time>2013-05-26T13:09:44Z</time>
      </trkpt>
      <trkpt lat="59.8965125" lon="17.7069714">
        <ele>21.767</ele>
        <time>2013-05-26T13:09:45Z</time>
      </trkpt>
      <trkpt lat="59.8965558" lon="17.7070285">
        <ele>21.767</ele>
        <time>2013-05-26T13:09:46Z</time>
      </trkpt>
      <trkpt lat="59.8965985" lon="17.7070854">
        <ele>21.2864</ele>
        <time>2013-05-26T13:09:47Z</time>
      </trkpt>
      <trkpt lat="59.8966408" lon="17.7071424">
        <ele>21.2864</ele>
        <time>2013-05-26T13:09:48Z</time>
      </trkpt>
      <trkpt lat="59.8966826" lon="17.7071989">
        <ele>21.2864</ele>
        <time>2013-05-26T13:09:49Z</time>
      </trkpt>
      <trkpt lat="59.8967247" lon="17.7072546">
        <ele>21.2864</ele>
        <time>2013-05-26T13:09:50Z</time>
      </trkpt>
      <trkpt lat="59.8967673" lon="17.7073103">
        <ele>21.2864</ele>
        <time>2013-05-26T13:09:51Z</time>
      </trkpt>
      <trkpt lat="59.8968095" lon="17.7073685">
        <ele>21.2864</ele>
        <time>2013-05-26T13:09:52Z</time>
      </trkpt>
      <trkpt lat="59.8968499" lon="17.7074264">
        <ele>21.2864</ele>
        <time>2013-05-26T13:09:53Z</time>
      </trkpt>
      <trkpt lat="59.8968911" lon="17.7074839">
        <ele>21.2864</ele>
        <time>2013-05-26T13:09:54Z</time>
      </trkpt>
      <trkpt lat="59.8969329" lon="17.7075405">
        <ele>20.8057</ele>
        <time>2013-05-26T13:09:55Z</time>
      </trkpt>
      <trkpt lat="59.8969758" lon="17.707597">
        <ele>20.8057</ele>
        <time>2013-05-26T13:09:56Z</time>
      </trkpt>
      <trkpt lat="59.8970219" lon="17.7076537">
        <ele>21.2864</ele>
        <time>2013-05-26T13:09:57Z</time>
      </trkpt>
      <trkpt lat="59.8970692" lon="17.7077097">
        <ele>21.2864</ele>
        <time>2013-05-26T13:09:58Z</time>
      </trkpt>
      <trkpt lat="59.8971167" lon="17.7077675">
        <ele>21.767</ele>
        <time>2013-05-26T13:09:59Z</time>
      </trkpt>
      <trkpt lat="59.8971638" lon="17.7078293">
        <ele>21.767</ele>
        <time>2013-05-26T13:10:00Z</time>
      </trkpt>
      <trkpt lat="59.8972076" lon="17.707893">
        <ele>21.767</ele>
        <time>2013-05-26T13:10:01Z</time>
      </trkpt>
      <trkpt lat="59.8972545" lon="17.7079529">
        <ele>21.767</ele>
        <time>2013-05-26T13:10:02Z</time>
      </trkpt>
      <trkpt lat="59.8973035" lon="17.7080153">
        <ele>21.767</ele>
        <time>2013-05-26T13:10:03Z</time>
      </trkpt>
      <trkpt lat="59.8973512" lon="17.708082">
        <ele>22.2476</ele>
        <time>2013-05-26T13:10:04Z</time>
      </trkpt>
      <trkpt lat="59.8973978" lon="17.708152">
        <ele>22.2476</ele>
        <time>2013-05-26T13:10:05Z</time>
      </trkpt>
      <trkpt lat="59.8974436" lon="17.7082245">
        <ele>22.2476</ele>
        <time>2013-05-26T13:10:06Z</time>
      </trkpt>
      <trkpt lat="59.8974884" lon="17.7082975">
        <ele>21.767</ele>
        <time>2013-05-26T13:10:07Z</time>
      </trkpt>
      <trkpt lat="59.8975343" lon="17.7083678">
        <ele>21.767</ele>
        <time>2013-05-26T13:10:08Z</time>
      </trkpt>
      <trkpt lat="59.8975814" lon="17.7084333">
        <ele>21.767</ele>
        <time>2013-05-26T13:10:09Z</time>
      </trkpt>
      <trkpt lat="59.8976302" lon="17.7084942">
        <ele>21.767</ele>
        <time>2013-05-26T13:10:10Z</time>
      </trkpt>
      <trkpt lat="59.8976809" lon="17.7085487">
        <ele>21.767</ele>
        <time>2013-05-26T13:10:11Z</time>
      </trkpt>
      <trkpt lat="59.8977318" lon="17.7085988">
        <ele>21.767</ele>
        <time>2013-05-26T13:10:12Z</time>
      </trkpt>
      <trkpt lat="59.8977815" lon="17.7086499">
        <ele>21.2864</ele>
        <time>2013-05-26T13:10:13Z</time>
      </trkpt>
      <trkpt lat="59.8978291" lon="17.7087052">
        <ele>21.2864</ele>
        <time>2013-05-26T13:10:14Z</time>
      </trkpt>
      <trkpt lat="59.8978759" lon="17.7087643">
        <ele>21.2864</ele>
        <time>2013-05-26T13:10:15Z</time>
      </trkpt>
      <trkpt lat="59.8979213" lon="17.7088259">
        <ele>21.2864</ele>
        <time>2013-05-26T13:10:16Z</time>
      </trkpt>
      <trkpt lat="59.8979659" lon="17.7088868">
        <ele>21.2864</ele>
        <time>2013-05-26T13:10:17Z</time>
      </trkpt>
      <trkpt lat="59.8980099" lon="17.7089454">
        <ele>21.2864</ele>
        <time>2013-05-26T13:10:18Z</time>
      </trkpt>
      <trkpt lat="59.8980533" lon="17.7090026">
        <ele>21.767</ele>
        <time>2013-05-26T13:10:19Z</time>
      </trkpt>
      <trkpt lat="59.898096" lon="17.7090614">
        <ele>21.2864</ele>
        <time>2013-05-26T13:10:20Z</time>
      </trkpt>
      <trkpt lat="59.8981393" lon="17.7091191">
        <ele>21.2864</ele>
        <time>2013-05-26T13:10:21Z</time>
      </trkpt>
      <trkpt lat="59.8981824" lon="17.7091761">
        <ele>21.767</ele>
        <time>2013-05-26T13:10:22Z</time>
      </trkpt>
      <trkpt lat="59.898225" lon="17.709235">
        <ele>21.767</ele>
        <time>2013-05-26T13:10:23Z</time>
      </trkpt>
      <trkpt lat="59.8982682" lon="17.7092941">
        <ele>21.767</ele>
        <time>2013-05-26T13:10:24Z</time>
      </trkpt>
      <trkpt lat="59.8983103" lon="17.7093547">
        <ele>21.767</ele>
        <time>2013-05-26T13:10:25Z</time>
      </trkpt>
      <trkpt lat="59.8983524" lon="17.7094166">
        <ele>21.767</ele>
        <time>2013-05-26T13:10:26Z</time>
      </trkpt>
      <trkpt lat="59.8983958" lon="17.7094784">
        <ele>21.767</ele>
        <time>2013-05-26T13:10:27Z</time>
      </trkpt>
      <trkpt lat="59.8984399" lon="17.7095396">
        <ele>21.767</ele>
        <time>2013-05-26T13:10:28Z</time>
      </trkpt>
      <trkpt lat="59.8984854" lon="17.7095997">
        <ele>21.767</ele>
        <time>2013-05-26T13:10:29Z</time>
      </trkpt>
      <trkpt lat="59.8985304" lon="17.7096608">
        <ele>21.767</ele>
        <time>2013-05-26T13:10:30Z</time>
      </trkpt>
      <trkpt lat="59.8985757" lon="17.7097216">
        <ele>22.2476</ele>
        <time>2013-05-26T13:10:31Z</time>
      </trkpt>
      <trkpt lat="59.8986212" lon="17.7097816">
        <ele>22.2476</ele>
        <time>2013-05-26T13:10:32Z</time>
      </trkpt>
      <trkpt lat="59.8986672" lon="17.7098402">
        <ele>22.2476</ele>
        <time>2013-05-26T13:10:33Z</time>
      </trkpt>
      <trkpt lat="59.8987159" lon="17.7098971">
        <ele>23.209</ele>
        <time>2013-05-26T13:10:34Z</time>
      </trkpt>
      <trkpt lat="59.8987635" lon="17.709952">
        <ele>23.6896</ele>
        <time>2013-05-26T13:10:35Z</time>
      </trkpt>
      <trkpt lat="59.8988101" lon="17.7100066">
        <ele>23.6896</ele>
        <time>2013-05-26T13:10:36Z</time>
      </trkpt>
      <trkpt lat="59.8988564" lon="17.7100649">
        <ele>23.6896</ele>
        <time>2013-05-26T13:10:37Z</time>
      </trkpt>
      <trkpt lat="59.8989028" lon="17.7101249">
        <ele>23.6896</ele>
        <time>2013-05-26T13:10:38Z</time>
      </trkpt>
      <trkpt lat="59.8989512" lon="17.7101841">
        <ele>24.1703</ele>
        <time>2013-05-26T13:10:39Z</time>
      </trkpt>
      <trkpt lat="59.8989983" lon="17.7102437">
        <ele>24.1703</ele>
        <time>2013-05-26T13:10:40Z</time>
      </trkpt>
      <trkpt lat="59.8990447" lon="17.7103043">
        <ele>24.1703</ele>
        <time>2013-05-26T13:10:41Z</time>
      </trkpt>
      <trkpt lat="59.89909" lon="17.710364">
        <ele>24.1703</ele>
        <time>2013-05-26T13:10:42Z</time>
      </trkpt>
      <trkpt lat="59.8991356" lon="17.7104243">
        <ele>24.651</ele>
        <time>2013-05-26T13:10:43Z</time>
      </trkpt>
      <trkpt lat="59.8991807" lon="17.7104872">
        <ele>24.1703</ele>
        <time>2013-05-26T13:10:44Z</time>
      </trkpt>
      <trkpt lat="59.8992258" lon="17.7105499">
        <ele>24.1703</ele>
        <time>2013-05-26T13:10:45Z</time>
      </trkpt>
      <trkpt lat="59.8992716" lon="17.7106089">
        <ele>24.1703</ele>
        <time>2013-05-26T13:10:46Z</time>
      </trkpt>
      <trkpt lat="59.8993165" lon="17.7106674">
        <ele>24.1703</ele>
        <time>2013-05-26T13:10:47Z</time>
      </trkpt>
      <trkpt lat="59.8993625" lon="17.7107249">
        <ele>24.1703</ele>
        <time>2013-05-26T13:10:48Z</time>
      </trkpt>
      <trkpt lat="59.8994096" lon="17.7107833">
        <ele>24.1703</ele>
        <time>2013-05-26T13:10:49Z</time>
      </trkpt>
      <trkpt lat="59.8994562" lon="17.7108397">
        <ele>23.6896</ele>
        <time>2013-05-26T13:10:50Z</time>
      </trkpt>
      <trkpt lat="59.8995054" lon="17.7108952">
        <ele>24.1703</ele>
        <time>2013-05-26T13:10:51Z</time>
      </trkpt>
      <trkpt lat="59.8995522" lon="17.7109503">
        <ele>24.651</ele>
        <time>2013-05-26T13:10:52Z</time>
      </trkpt>
      <trkpt lat="59.8995971" lon="17.7110041">
        <ele>24.651</ele>
        <time>2013-05-26T13:10:53Z</time>
      </trkpt>
      <trkpt lat="59.8996428" lon="17.7110558">
        <ele>24.651</ele>
        <time>2013-05-26T13:10:54Z</time>
      </trkpt>
      <trkpt lat="59.8996894" lon="17.7111083">
        <ele>25.1317</ele>
        <time>2013-05-26T13:10:55Z</time>
      </trkpt>
      <trkpt lat="59.8997356" lon="17.7111631">
        <ele>25.1317</ele>
        <time>2013-05-26T13:10:56Z</time>
      </trkpt>
      <trkpt lat="59.8997816" lon="17.7112168">
        <ele>25.1317</ele>
        <time>2013-05-26T13:10:57Z</time>
      </trkpt>
      <trkpt lat="59.8998261" lon="17.7112704">
        <ele>25.1317</ele>
        <time>2013-05-26T13:10:58Z</time>
      </trkpt>
      <trkpt lat="59.8998702" lon="17.7113238">
        <ele>25.1317</ele>
        <time>2013-05-26T13:10:59Z</time>
      </trkpt>
      <trkpt lat="59.8999151" lon="17.7113764">
        <ele>25.1317</ele>
        <time>2013-05-26T13:11:00Z</time>
      </trkpt>
      <trkpt lat="59.8999592" lon="17.7114288">
        <ele>25.1317</ele>
        <time>2013-05-26T13:11:01Z</time>
      </trkpt>
      <trkpt lat="59.900002" lon="17.7114811">
        <ele>25.1317</ele>
        <time>2013-05-26T13:11:02Z</time>
      </trkpt>
      <trkpt lat="59.9000442" lon="17.711531">
        <ele>25.1317</ele>
        <time>2013-05-26T13:11:03Z</time>
      </trkpt>
      <trkpt lat="59.9000861" lon="17.7115785">
        <ele>24.651</ele>
        <time>2013-05-26T13:11:04Z</time>
      </trkpt>
      <trkpt lat="59.9001289" lon="17.7116248">
        <ele>24.651</ele>
        <time>2013-05-26T13:11:05Z</time>
      </trkpt>
      <trkpt lat="59.9001721" lon="17.7116733">
        <ele>24.651</ele>
        <time>2013-05-26T13:11:06Z</time>
      </trkpt>
      <trkpt lat="59.900214" lon="17.7117262">
        <ele>24.651</ele>
        <time>2013-05-26T13:11:07Z</time>
      </trkpt>
      <trkpt lat="59.9002571" lon="17.7117781">
        <ele>24.651</ele>
        <time>2013-05-26T13:11:08Z</time>
      </trkpt>
      <trkpt lat="59.9003016" lon="17.7118293">
        <ele>24.651</ele>
        <time>2013-05-26T13:11:09Z</time>
      </trkpt>
      <trkpt lat="59.900345" lon="17.7118833">
        <ele>24.651</ele>
        <time>2013-05-26T13:11:10Z</time>
      </trkpt>
      <trkpt lat="59.9003887" lon="17.7119358">
        <ele>24.651</ele>
        <time>2013-05-26T13:11:11Z</time>
      </trkpt>
      <trkpt lat="59.9004332" lon="17.7119858">
        <ele>24.1703</ele>
        <time>2013-05-26T13:11:12Z</time>
      </trkpt>
      <trkpt lat="59.9004778" lon="17.7120348">
        <ele>24.1703</ele>
        <time>2013-05-26T13:11:13Z</time>
      </trkpt>
      <trkpt lat="59.9005259" lon="17.7120821">
        <ele>24.1703</ele>
        <time>2013-05-26T13:11:14Z</time>
      </trkpt>
      <trkpt lat="59.9005729" lon="17.7121308">
        <ele>24.1703</ele>
        <time>2013-05-26T13:11:15Z</time>
      </trkpt>
      <trkpt lat="59.9006203" lon="17.7121825">
        <ele>24.1703</ele>
        <time>2013-05-26T13:11:16Z</time>
      </trkpt>
      <trkpt lat="59.9006705" lon="17.7122355">
        <ele>24.1703</ele>
        <time>2013-05-26T13:11:17Z</time>
      </trkpt>
      <trkpt lat="59.9007197" lon="17.7122866">
        <ele>24.1703</ele>
        <time>2013-05-26T13:11:18Z</time>
      </trkpt>
      <trkpt lat="59.9007677" lon="17.712337">
        <ele>24.1703</ele>
        <time>2013-05-26T13:11:19Z</time>
      </trkpt>
      <trkpt lat="59.900815" lon="17.7123878">
        <ele>24.651</ele>
        <time>2013-05-26T13:11:20Z</time>
      </trkpt>
      <trkpt lat="59.9008617" lon="17.7124359">
        <ele>24.651</ele>
        <time>2013-05-26T13:11:21Z</time>
      </trkpt>
      <trkpt lat="59.9009071" lon="17.7124821">
        <ele>24.651</ele>
        <time>2013-05-26T13:11:22Z</time>
      </trkpt>
      <trkpt lat="59.9009497" lon="17.7125276">
        <ele>24.1703</ele>
        <time>2013-05-26T13:11:23Z</time>
      </trkpt>
      <trkpt lat="59.900993" lon="17.7125723">
        <ele>24.1703</ele>
        <time>2013-05-26T13:11:24Z</time>
      </trkpt>
      <trkpt lat="59.9010336" lon="17.7126189">
        <ele>24.1703</ele>
        <time>2013-05-26T13:11:25Z</time>
      </trkpt>
      <trkpt lat="59.9010665" lon="17.7126836">
        <ele>24.651</ele>
        <time>2013-05-26T13:11:26Z</time>
      </trkpt>
      <trkpt lat="59.9010735" lon="17.7127705">
        <ele>24.651</ele>
        <time>2013-05-26T13:11:27Z</time>
      </trkpt>
      <trkpt lat="59.9010569" lon="17.7128637">
        <ele>24.651</ele>
        <time>2013-05-26T13:11:28Z</time>
      </trkpt>
      <trkpt lat="59.9010304" lon="17.7129506">
        <ele>24.651</ele>
        <time>2013-05-26T13:11:29Z</time>
      </trkpt>
      <trkpt lat="59.9010011" lon="17.7130345">
        <ele>24.651</ele>
        <time>2013-05-26T13:11:30Z</time>
      </trkpt>
      <trkpt lat="59.9009723" lon="17.7131186">
        <ele>25.1317</ele>
        <time>2013-05-26T13:11:31Z</time>
      </trkpt>
      <trkpt lat="59.9009397" lon="17.7132027">
        <ele>24.1703</ele>
        <time>2013-05-26T13:11:32Z</time>
      </trkpt>
      <trkpt lat="59.9009062" lon="17.7132859">
        <ele>23.209</ele>
        <time>2013-05-26T13:11:33Z</time>
      </trkpt>
      <trkpt lat="59.9008726" lon="17.7133663">
        <ele>22.7283</ele>
        <time>2013-05-26T13:11:34Z</time>
      </trkpt>
      <trkpt lat="59.9008399" lon="17.7134505">
        <ele>21.767</ele>
        <time>2013-05-26T13:11:35Z</time>
      </trkpt>
      <trkpt lat="59.900806" lon="17.7135367">
        <ele>21.2864</ele>
        <time>2013-05-26T13:11:36Z</time>
      </trkpt>
      <trkpt lat="59.9007708" lon="17.7136227">
        <ele>20.325</ele>
        <time>2013-05-26T13:11:37Z</time>
      </trkpt>
      <trkpt lat="59.9007357" lon="17.7137103">
        <ele>19.8444</ele>
        <time>2013-05-26T13:11:38Z</time>
      </trkpt>
      <trkpt lat="59.900703" lon="17.713801">
        <ele>19.8444</ele>
        <time>2013-05-26T13:11:39Z</time>
      </trkpt>
      <trkpt lat="59.9006705" lon="17.7138929">
        <ele>19.8444</ele>
        <time>2013-05-26T13:11:40Z</time>
      </trkpt>
      <trkpt lat="59.9006385" lon="17.7139868">
        <ele>20.325</ele>
        <time>2013-05-26T13:11:41Z</time>
      </trkpt>
      <trkpt lat="59.9006071" lon="17.7140832">
        <ele>20.8057</ele>
        <time>2013-05-26T13:11:42Z</time>
      </trkpt>
      <trkpt lat="59.9005752" lon="17.7141785">
        <ele>20.8057</ele>
        <time>2013-05-26T13:11:43Z</time>
      </trkpt>
      <trkpt lat="59.9005437" lon="17.7142733">
        <ele>21.2864</ele>
        <time>2013-05-26T13:11:44Z</time>
      </trkpt>
      <trkpt lat="59.9005139" lon="17.7143697">
        <ele>21.2864</ele>
        <time>2013-05-26T13:11:45Z</time>
      </trkpt>
      <trkpt lat="59.9004796" lon="17.7144613">
        <ele>20.325</ele>
        <time>2013-05-26T13:11:46Z</time>
      </trkpt>
      <trkpt lat="59.9004465" lon="17.7145525">
        <ele>19.3638</ele>
        <time>2013-05-26T13:11:47Z</time>
      </trkpt>
      <trkpt lat="59.9004155" lon="17.7146447">
        <ele>18.8831</ele>
        <time>2013-05-26T13:11:48Z</time>
      </trkpt>
      <trkpt lat="59.9003895" lon="17.7147405">
        <ele>18.8831</ele>
        <time>2013-05-26T13:11:49Z</time>
      </trkpt>
      <trkpt lat="59.9003601" lon="17.7148329">
        <ele>17.9218</ele>
        <time>2013-05-26T13:11:50Z</time>
      </trkpt>
      <trkpt lat="59.900332" lon="17.7149276">
        <ele>17.4412</ele>
        <time>2013-05-26T13:11:51Z</time>
      </trkpt>
      <trkpt lat="59.9003051" lon="17.7150233">
        <ele>16.9604</ele>
        <time>2013-05-26T13:11:52Z</time>
      </trkpt>
      <trkpt lat="59.9002814" lon="17.7151175">
        <ele>16.9604</ele>
        <time>2013-05-26T13:11:53Z</time>
      </trkpt>
      <trkpt lat="59.9002572" lon="17.7152166">
        <ele>17.4412</ele>
        <time>2013-05-26T13:11:54Z</time>
      </trkpt>
      <trkpt lat="59.9002332" lon="17.7153201">
        <ele>17.4412</ele>
        <time>2013-05-26T13:11:55Z</time>
      </trkpt>
      <trkpt lat="59.9002114" lon="17.7154264">
        <ele>17.9218</ele>
        <time>2013-05-26T13:11:56Z</time>
      </trkpt>
      <trkpt lat="59.9001907" lon="17.7155331">
        <ele>18.4023</ele>
        <time>2013-05-26T13:11:57Z</time>
      </trkpt>
      <trkpt lat="59.9001705" lon="17.7156398">
        <ele>18.8831</ele>
        <time>2013-05-26T13:11:58Z</time>
      </trkpt>
      <trkpt lat="59.9001502" lon="17.7157449">
        <ele>18.8831</ele>
        <time>2013-05-26T13:11:59Z</time>
      </trkpt>
      <trkpt lat="59.9001346" lon="17.715853">
        <ele>19.3638</ele>
        <time>2013-05-26T13:12:00Z</time>
      </trkpt>
      <trkpt lat="59.9001213" lon="17.7159603">
        <ele>19.8444</ele>
        <time>2013-05-26T13:12:01Z</time>
      </trkpt>
      <trkpt lat="59.9001093" lon="17.7160666">
        <ele>19.8444</ele>
        <time>2013-05-26T13:12:02Z</time>
      </trkpt>
      <trkpt lat="59.9000996" lon="17.7161744">
        <ele>20.325</ele>
        <time>2013-05-26T13:12:03Z</time>
      </trkpt>
      <trkpt lat="59.9000913" lon="17.7162837">
        <ele>20.325</ele>
        <time>2013-05-26T13:12:04Z</time>
      </trkpt>
      <trkpt lat="59.900083" lon="17.7163925">
        <ele>20.8057</ele>
        <time>2013-05-26T13:12:05Z</time>
      </trkpt>
      <trkpt lat="59.9000748" lon="17.7165012">
        <ele>20.325</ele>
        <time>2013-05-26T13:12:06Z</time>
      </trkpt>
      <trkpt lat="59.9000675" lon="17.7166095">
        <ele>20.325</ele>
        <time>2013-05-26T13:12:07Z</time>
      </trkpt>
      <trkpt lat="59.9000602" lon="17.7167183">
        <ele>20.325</ele>
        <time>2013-05-26T13:12:08Z</time>
      </trkpt>
      <trkpt lat="59.9000523" lon="17.7168284">
        <ele>19.8444</ele>
        <time>2013-05-26T13:12:09Z</time>
      </trkpt>
      <trkpt lat="59.9000447" lon="17.7169404">
        <ele>19.8444</ele>
        <time>2013-05-26T13:12:10Z</time>
      </trkpt>
      <trkpt lat="59.9000375" lon="17.7170522">
        <ele>19.8444</ele>
        <time>2013-05-26T13:12:11Z</time>
      </trkpt>
      <trkpt lat="59.90003" lon="17.7171639">
        <ele>19.8444</ele>
        <time>2013-05-26T13:12:12Z</time>
      </trkpt>
      <trkpt lat="59.9000223" lon="17.7172757">
        <ele>19.8444</ele>
        <time>2013-05-26T13:12:13Z</time>
      </trkpt>
      <trkpt lat="59.9000147" lon="17.717391">
        <ele>19.8444</ele>
        <time>2013-05-26T13:12:14Z</time>
      </trkpt>
      <trkpt lat="59.9000053" lon="17.7175063">
        <ele>20.325</ele>
        <time>2013-05-26T13:12:15Z</time>
      </trkpt>
      <trkpt lat="59.8999912" lon="17.717619">
        <ele>20.325</ele>
        <time>2013-05-26T13:12:16Z</time>
      </trkpt>
      <trkpt lat="59.899973" lon="17.717729">
        <ele>20.325</ele>
        <time>2013-05-26T13:12:17Z</time>
      </trkpt>
      <trkpt lat="59.8999523" lon="17.7178341">
        <ele>20.325</ele>
        <time>2013-05-26T13:12:18Z</time>
      </trkpt>
      <trkpt lat="59.899929" lon="17.7179387">
        <ele>20.8057</ele>
        <time>2013-05-26T13:12:19Z</time>
      </trkpt>
      <trkpt lat="59.8999031" lon="17.7180474">
        <ele>20.8057</ele>
        <time>2013-05-26T13:12:20Z</time>
      </trkpt>
      <trkpt lat="59.8998756" lon="17.7181558">
        <ele>20.8057</ele>
        <time>2013-05-26T13:12:21Z</time>
      </trkpt>
      <trkpt lat="59.8998471" lon="17.7182604">
        <ele>21.2864</ele>
        <time>2013-05-26T13:12:22Z</time>
      </trkpt>
      <trkpt lat="59.8998168" lon="17.7183577">
        <ele>20.8057</ele>
        <time>2013-05-26T13:12:23Z</time>
      </trkpt>
      <trkpt lat="59.8997856" lon="17.7184526">
        <ele>20.8057</ele>
        <time>2013-05-26T13:12:24Z</time>
      </trkpt>
      <trkpt lat="59.8997525" lon="17.7185448">
        <ele>20.8057</ele>
        <time>2013-05-26T13:12:25Z</time>
      </trkpt>
      <trkpt lat="59.8997228" lon="17.7186504">
        <ele>20.325</ele>
        <time>2013-05-26T13:12:26Z</time>
      </trkpt>
      <trkpt lat="59.8996931" lon="17.7187448">
        <ele>20.325</ele>
        <time>2013-05-26T13:12:27Z</time>
      </trkpt>
      <trkpt lat="59.8996634" lon="17.71884">
        <ele>20.325</ele>
        <time>2013-05-26T13:12:28Z</time>
      </trkpt>
      <trkpt lat="59.8996323" lon="17.7189314">
        <ele>19.8444</ele>
        <time>2013-05-26T13:12:29Z</time>
      </trkpt>
      <trkpt lat="59.8996028" lon="17.719025">
        <ele>19.8444</ele>
        <time>2013-05-26T13:12:30Z</time>
      </trkpt>
      <trkpt lat="59.8995749" lon="17.7191137">
        <ele>19.8444</ele>
        <time>2013-05-26T13:12:31Z</time>
      </trkpt>
      <trkpt lat="59.8995499" lon="17.7191997">
        <ele>19.3638</ele>
        <time>2013-05-26T13:12:32Z</time>
      </trkpt>
      <trkpt lat="59.8995299" lon="17.7192872">
        <ele>19.3638</ele>
        <time>2013-05-26T13:12:33Z</time>
      </trkpt>
      <trkpt lat="59.8995073" lon="17.719377">
        <ele>19.3638</ele>
        <time>2013-05-26T13:12:34Z</time>
      </trkpt>
      <trkpt lat="59.8994874" lon="17.7194711">
        <ele>18.8831</ele>
        <time>2013-05-26T13:12:35Z</time>
      </trkpt>
      <trkpt lat="59.8994666" lon="17.7195638">
        <ele>18.8831</ele>
        <time>2013-05-26T13:12:36Z</time>
      </trkpt>
      <trkpt lat="59.8994443" lon="17.7196565">
        <ele>18.4023</ele>
        <time>2013-05-26T13:12:37Z</time>
      </trkpt>
      <trkpt lat="59.8994241" lon="17.7197518">
        <ele>17.9218</ele>
        <time>2013-05-26T13:12:38Z</time>
      </trkpt>
      <trkpt lat="59.8994053" lon="17.7198528">
        <ele>17.9218</ele>
        <time>2013-05-26T13:12:39Z</time>
      </trkpt>
      <trkpt lat="59.8993854" lon="17.7199528">
        <ele>17.4412</ele>
        <time>2013-05-26T13:12:40Z</time>
      </trkpt>
      <trkpt lat="59.8993655" lon="17.7200549">
        <ele>17.4412</ele>
        <time>2013-05-26T13:12:41Z</time>
      </trkpt>
      <trkpt lat="59.8993449" lon="17.7201572">
        <ele>17.4412</ele>
        <time>2013-05-26T13:12:42Z</time>
      </trkpt>
      <trkpt lat="59.8993231" lon="17.7202538">
        <ele>17.4412</ele>
        <time>2013-05-26T13:12:43Z</time>
      </trkpt>
      <trkpt lat="59.8993033" lon="17.720346">
        <ele>16.9604</ele>
        <time>2013-05-26T13:12:44Z</time>
      </trkpt>
      <trkpt lat="59.8992916" lon="17.7204441">
        <ele>17.4412</ele>
        <time>2013-05-26T13:12:45Z</time>
      </trkpt>
      <trkpt lat="59.8992957" lon="17.720536">
        <ele>17.4412</ele>
        <time>2013-05-26T13:12:46Z</time>
      </trkpt>
      <trkpt lat="59.8993138" lon="17.7206265">
        <ele>17.9218</ele>
        <time>2013-05-26T13:12:47Z</time>
      </trkpt>
      <trkpt lat="59.899336" lon="17.720705">
        <ele>18.4023</ele>
        <time>2013-05-26T13:12:48Z</time>
      </trkpt>
      <trkpt lat="59.8993612" lon="17.7207655">
        <ele>18.8831</ele>
        <time>2013-05-26T13:12:49Z</time>
      </trkpt>
      <trkpt lat="59.8993844" lon="17.7208054">
        <ele>19.3638</ele>
        <time>2013-05-26T13:12:50Z</time>
      </trkpt>
      <trkpt lat="59.8994046" lon="17.7208368">
        <ele>19.8444</ele>
        <time>2013-05-26T13:12:51Z</time>
      </trkpt>
      <trkpt lat="59.8994184" lon="17.7208547">
        <ele>20.325</ele>
        <time>2013-05-26T13:12:52Z</time>
      </trkpt>
      <trkpt lat="59.8994318" lon="17.7208598">
        <ele>20.325</ele>
        <time>2013-05-26T13:12:53Z</time>
      </trkpt>
      <trkpt lat="59.8994395" lon="17.7208629">
        <ele>20.325</ele>
        <time>2013-05-26T13:12:54Z</time>
      </trkpt>
      <trkpt lat="59.8994472" lon="17.7208648">
        <ele>20.8057</ele>
        <time>2013-05-26T13:12:55Z</time>
      </trkpt>
      <trkpt lat="59.899447" lon="17.7208566">
        <ele>21.2864</ele>
        <time>2013-05-26T13:12:56Z</time>
      </trkpt>
      <trkpt lat="59.8994447" lon="17.7208449">
        <ele>21.767</ele>
        <time>2013-05-26T13:12:57Z</time>
      </trkpt>
      <trkpt lat="59.8994423" lon="17.7208426">
        <ele>21.767</ele>
        <time>2013-05-26T13:12:58Z</time>
      </trkpt>
      <trkpt lat="59.8994379" lon="17.7208412">
        <ele>21.2864</ele>
        <time>2013-05-26T13:12:59Z</time>
      </trkpt>
      <trkpt lat="59.8994339" lon="17.7208381">
        <ele>20.8057</ele>
        <time>2013-05-26T13:13:00Z</time>
      </trkpt>
      <trkpt lat="59.8994313" lon="17.7208299">
        <ele>20.325</ele>
        <time>2013-05-26T13:13:01Z</time>
      </trkpt>
      <trkpt lat="59.8994354" lon="17.7208361">
        <ele>19.3638</ele>
        <time>2013-05-26T13:13:02Z</time>
      </trkpt>
      <trkpt lat="59.8994322" lon="17.7208427">
        <ele>18.4023</ele>
        <time>2013-05-26T13:13:03Z</time>
      </trkpt>
      <trkpt lat="59.8994288" lon="17.7208473">
        <ele>18.4023</ele>
        <time>2013-05-26T13:13:04Z</time>
      </trkpt>
      <trkpt lat="59.8994283" lon="17.7208492">
        <ele>17.9218</ele>
        <time>2013-05-26T13:13:05Z</time>
      </trkpt>
      <trkpt lat="59.8994332" lon="17.7208456">
        <ele>17.9218</ele>
        <time>2013-05-26T13:13:06Z</time>
      </trkpt>
      <trkpt lat="59.8994281" lon="17.7208392">
        <ele>17.9218</ele>
        <time>2013-05-26T13:13:07Z</time>
      </trkpt>
      <trkpt lat="59.8994381" lon="17.7208448">
        <ele>18.4023</ele>
        <time>2013-05-26T13:13:08Z</time>
      </trkpt>
      <trkpt lat="59.899439" lon="17.7208321">
        <ele>19.3638</ele>
        <time>2013-05-26T13:13:09Z</time>
      </trkpt>
      <trkpt lat="59.8994397" lon="17.7208214">
        <ele>20.325</ele>
        <time>2013-05-26T13:13:10Z</time>
      </trkpt>
      <trkpt lat="59.8994418" lon="17.7208192">
        <ele>20.325</ele>
        <time>2013-05-26T13:13:11Z</time>
      </trkpt>
      <trkpt lat="59.8994422" lon="17.7208188">
        <ele>20.325</ele>
        <time>2013-05-26T13:13:12Z</time>
      </trkpt>
      <trkpt lat="59.8994439" lon="17.7208187">
        <ele>17.4412</ele>
        <time>2013-05-26T13:13:25Z</time>
      </trkpt>
      <trkpt lat="59.8994592" lon="17.7208111">
        <ele>17.9218</ele>
        <time>2013-05-26T13:13:26Z</time>
      </trkpt>
      <trkpt lat="59.8994665" lon="17.7208057">
        <ele>17.4412</ele>
        <time>2013-05-26T13:13:27Z</time>
      </trkpt>
      <trkpt lat="59.8994856" lon="17.7208089">
        <ele>18.4023</ele>
        <time>2013-05-26T13:13:28Z</time>
      </trkpt>
      <trkpt lat="59.8994916" lon="17.7208168">
        <ele>18.8831</ele>
        <time>2013-05-26T13:13:29Z</time>
      </trkpt>
      <trkpt lat="59.8994946" lon="17.7208229">
        <ele>17.9218</ele>
        <time>2013-05-26T13:13:30Z</time>
      </trkpt>
      <trkpt lat="59.8995037" lon="17.7208286">
        <ele>17.4412</ele>
        <time>2013-05-26T13:13:31Z</time>
      </trkpt>
      <trkpt lat="59.8995111" lon="17.7208316">
        <ele>17.9218</ele>
        <time>2013-05-26T13:13:32Z</time>
      </trkpt>
      <trkpt lat="59.8995159" lon="17.7208342">
        <ele>17.9218</ele>
        <time>2013-05-26T13:13:33Z</time>
      </trkpt>
      <trkpt lat="59.8995126" lon="17.7208288">
        <ele>17.9218</ele>
        <time>2013-05-26T13:13:34Z</time>
      </trkpt>
      <trkpt lat="59.8995092" lon="17.7208259">
        <ele>17.9218</ele>
        <time>2013-05-26T13:13:35Z</time>
      </trkpt>
      <trkpt lat="59.8995074" lon="17.720825">
        <ele>17.9218</ele>
        <time>2013-05-26T13:13:36Z</time>
      </trkpt>
      <trkpt lat="59.8995257" lon="17.7207091">
        <ele>6.86646</ele>
        <time>2013-05-26T13:14:49Z</time>
      </trkpt>
      <trkpt lat="59.8995345" lon="17.7207189">
        <ele>7.34717</ele>
        <time>2013-05-26T13:14:50Z</time>
      </trkpt>
      <trkpt lat="59.8995413" lon="17.7207256">
        <ele>8.30859</ele>
        <time>2013-05-26T13:14:51Z</time>
      </trkpt>
      <trkpt lat="59.8995443" lon="17.7207262">
        <ele>9.75061</ele>
        <time>2013-05-26T13:14:52Z</time>
      </trkpt>
      <trkpt lat="59.8995489" lon="17.7207299">
        <ele>10.7118</ele>
        <time>2013-05-26T13:14:53Z</time>
      </trkpt>
      <trkpt lat="59.8995548" lon="17.7207373">
        <ele>10.7118</ele>
        <time>2013-05-26T13:14:54Z</time>
      </trkpt>
      <trkpt lat="59.8995543" lon="17.7207391">
        <ele>12.1538</ele>
        <time>2013-05-26T13:14:55Z</time>
      </trkpt>
      <trkpt lat="59.8995556" lon="17.720743">
        <ele>12.6344</ele>
        <time>2013-05-26T13:14:56Z</time>
      </trkpt>
      <trkpt lat="59.8996065" lon="17.7207094">
        <ele>0</ele>
        <time>2013-05-26T13:17:30Z</time>
      </trkpt>
      <trkpt lat="59.8995982" lon="17.7207034">
        <ele>0</ele>
        <time>2013-05-26T13:17:31Z</time>
      </trkpt>
      <trkpt lat="59.8995935" lon="17.7206987">
        <ele>0</ele>
        <time>2013-05-26T13:17:32Z</time>
      </trkpt>
      <trkpt lat="59.8995899" lon="17.7206959">
        <ele>0</ele>
        <time>2013-05-26T13:17:33Z</time>
      </trkpt>
      <trkpt lat="59.899593" lon="17.7206961">
        <ele>0</ele>
        <time>2013-05-26T13:17:34Z</time>
      </trkpt>
      <trkpt lat="59.8995681" lon="17.7207733">
        <ele>17.9218</ele>
        <time>2013-05-26T13:18:06Z</time>
      </trkpt>
      <trkpt lat="59.899567" lon="17.7207801">
        <ele>17.4412</ele>
        <time>2013-05-26T13:18:07Z</time>
      </trkpt>
      <trkpt lat="59.8995698" lon="17.7207876">
        <ele>15.0377</ele>
        <time>2013-05-26T13:18:08Z</time>
      </trkpt>
      <trkpt lat="59.8995707" lon="17.7207876">
        <ele>14.0764</ele>
        <time>2013-05-26T13:18:09Z</time>
      </trkpt>
      <trkpt lat="59.8995726" lon="17.7207852">
        <ele>13.1151</ele>
        <time>2013-05-26T13:18:10Z</time>
      </trkpt>
      <trkpt lat="59.8995919" lon="17.720726">
        <ele>3.02124</ele>
        <time>2013-05-26T13:21:50Z</time>
      </trkpt>
      <trkpt lat="59.8996095" lon="17.7207282">
        <ele>5.90527</ele>
        <time>2013-05-26T13:21:51Z</time>
      </trkpt>
      <trkpt lat="59.8996197" lon="17.7207289">
        <ele>7.34717</ele>
        <time>2013-05-26T13:21:52Z</time>
      </trkpt>
      <trkpt lat="59.899633" lon="17.7207178">
        <ele>7.82788</ele>
        <time>2013-05-26T13:21:53Z</time>
      </trkpt>
      <trkpt lat="59.8996468" lon="17.7207148">
        <ele>10.2312</ele>
        <time>2013-05-26T13:21:54Z</time>
      </trkpt>
      <trkpt lat="59.8996578" lon="17.7207115">
        <ele>11.6732</ele>
        <time>2013-05-26T13:21:55Z</time>
      </trkpt>
      <trkpt lat="59.8996608" lon="17.7207128">
        <ele>11.1925</ele>
        <time>2013-05-26T13:21:56Z</time>
      </trkpt>
      <trkpt lat="59.8996639" lon="17.7207184">
        <ele>11.6732</ele>
        <time>2013-05-26T13:21:57Z</time>
      </trkpt>
      <trkpt lat="59.8996669" lon="17.7207221">
        <ele>11.6732</ele>
        <time>2013-05-26T13:21:58Z</time>
      </trkpt>
      <trkpt lat="59.8996696" lon="17.7207265">
        <ele>12.1538</ele>
        <time>2013-05-26T13:21:59Z</time>
      </trkpt>
      <trkpt lat="59.8996706" lon="17.7207671">
        <ele>15.0377</ele>
        <time>2013-05-26T13:22:09Z</time>
      </trkpt>
      <trkpt lat="59.8996567" lon="17.7207744">
        <ele>14.557</ele>
        <time>2013-05-26T13:22:10Z</time>
      </trkpt>
      <trkpt lat="59.8996453" lon="17.7207803">
        <ele>14.557</ele>
        <time>2013-05-26T13:22:11Z</time>
      </trkpt>
      <trkpt lat="59.899636" lon="17.7207841">
        <ele>15.0377</ele>
        <time>2013-05-26T13:22:12Z</time>
      </trkpt>
      <trkpt lat="59.8996276" lon="17.7207863">
        <ele>14.557</ele>
        <time>2013-05-26T13:22:13Z</time>
      </trkpt>
      <trkpt lat="59.8996197" lon="17.7207897">
        <ele>14.557</ele>
        <time>2013-05-26T13:22:14Z</time>
      </trkpt>
      <trkpt lat="59.8996125" lon="17.7207925">
        <ele>14.557</ele>
        <time>2013-05-26T13:22:15Z</time>
      </trkpt>
      <trkpt lat="59.8996053" lon="17.7207952">
        <ele>14.557</ele>
        <time>2013-05-26T13:22:16Z</time>
      </trkpt>
      <trkpt lat="59.8995987" lon="17.7207976">
        <ele>15.0377</ele>
        <time>2013-05-26T13:22:17Z</time>
      </trkpt>
      <trkpt lat="59.8995929" lon="17.7207993">
        <ele>15.0377</ele>
        <time>2013-05-26T13:22:18Z</time>
      </trkpt>
      <trkpt lat="59.8995881" lon="17.7208001">
        <ele>15.5184</ele>
        <time>2013-05-26T13:22:19Z</time>
      </trkpt>
      <trkpt lat="59.8995832" lon="17.7208005">
        <ele>15.5184</ele>
        <time>2013-05-26T13:22:20Z</time>
      </trkpt>
      <trkpt lat="59.8995788" lon="17.7208017">
        <ele>15.5184</ele>
        <time>2013-05-26T13:22:21Z</time>
      </trkpt>
      <trkpt lat="59.8995745" lon="17.7208023">
        <ele>15.5184</ele>
        <time>2013-05-26T13:22:22Z</time>
      </trkpt>
      <trkpt lat="59.8995714" lon="17.7208023">
        <ele>15.999</ele>
        <time>2013-05-26T13:22:23Z</time>
      </trkpt>
      <trkpt lat="59.8995701" lon="17.7208012">
        <ele>15.999</ele>
        <time>2013-05-26T13:22:24Z</time>
      </trkpt>
      <trkpt lat="59.8993833" lon="17.7207552">
        <ele>36.6675</ele>
        <time>2013-05-26T13:43:43Z</time>
      </trkpt>
      <trkpt lat="59.8993882" lon="17.7207651">
        <ele>37.1481</ele>
        <time>2013-05-26T13:43:44Z</time>
      </trkpt>
      <trkpt lat="59.8993868" lon="17.7207655">
        <ele>36.6675</ele>
        <time>2013-05-26T13:43:45Z</time>
      </trkpt>
      <trkpt lat="59.8993847" lon="17.7207648">
        <ele>35.7061</ele>
        <time>2013-05-26T13:43:46Z</time>
      </trkpt>
      <trkpt lat="59.8994382" lon="17.7210163">
        <ele>26.5736</ele>
        <time>2013-05-26T13:46:12Z</time>
      </trkpt>
      <trkpt lat="59.8994349" lon="17.7209939">
        <ele>26.0929</ele>
        <time>2013-05-26T13:46:13Z</time>
      </trkpt>
      <trkpt lat="59.8994314" lon="17.7209826">
        <ele>25.6123</ele>
        <time>2013-05-26T13:46:14Z</time>
      </trkpt>
      <trkpt lat="59.8994246" lon="17.720981">
        <ele>25.1317</ele>
        <time>2013-05-26T13:46:15Z</time>
      </trkpt>
      <trkpt lat="59.8994215" lon="17.7209774">
        <ele>25.1317</ele>
        <time>2013-05-26T13:46:16Z</time>
      </trkpt>
      <trkpt lat="59.8993216" lon="17.7205602">
        <ele>26.0929</ele>
        <time>2013-05-26T13:58:01Z</time>
      </trkpt>
      <trkpt lat="59.8993199" lon="17.7205277">
        <ele>26.0929</ele>
        <time>2013-05-26T13:58:02Z</time>
      </trkpt>
      <trkpt lat="59.8993245" lon="17.7204882">
        <ele>26.0929</ele>
        <time>2013-05-26T13:58:03Z</time>
      </trkpt>
      <trkpt lat="59.8993315" lon="17.720439">
        <ele>25.6123</ele>
        <time>2013-05-26T13:58:04Z</time>
      </trkpt>
      <trkpt lat="59.8993428" lon="17.7203872">
        <ele>26.0929</ele>
        <time>2013-05-26T13:58:05Z</time>
      </trkpt>
      <trkpt lat="59.8993538" lon="17.7203317">
        <ele>25.6123</ele>
        <time>2013-05-26T13:58:06Z</time>
      </trkpt>
      <trkpt lat="59.8993675" lon="17.7202742">
        <ele>26.0929</ele>
        <time>2013-05-26T13:58:07Z</time>
      </trkpt>
      <trkpt lat="59.8993826" lon="17.720207">
        <ele>26.0929</ele>
        <time>2013-05-26T13:58:08Z</time>
      </trkpt>
      <trkpt lat="59.8994004" lon="17.7201261">
        <ele>25.6123</ele>
        <time>2013-05-26T13:58:09Z</time>
      </trkpt>
      <trkpt lat="59.8994205" lon="17.7200293">
        <ele>26.0929</ele>
        <time>2013-05-26T13:58:10Z</time>
      </trkpt>
      <trkpt lat="59.8994411" lon="17.7198911">
        <ele>26.0929</ele>
        <time>2013-05-26T13:58:11Z</time>
      </trkpt>
      <trkpt lat="59.8994628" lon="17.7197668">
        <ele>26.0929</ele>
        <time>2013-05-26T13:58:12Z</time>
      </trkpt>
      <trkpt lat="59.8994821" lon="17.7196299">
        <ele>25.6123</ele>
        <time>2013-05-26T13:58:13Z</time>
      </trkpt>
      <trkpt lat="59.899511" lon="17.7195024">
        <ele>26.0929</ele>
        <time>2013-05-26T13:58:14Z</time>
      </trkpt>
      <trkpt lat="59.8995473" lon="17.7193926">
        <ele>26.0929</ele>
        <time>2013-05-26T13:58:15Z</time>
      </trkpt>
      <trkpt lat="59.8995943" lon="17.7192944">
        <ele>26.5736</ele>
        <time>2013-05-26T13:58:16Z</time>
      </trkpt>
      <trkpt lat="59.8996213" lon="17.7191642">
        <ele>26.5736</ele>
        <time>2013-05-26T13:58:17Z</time>
      </trkpt>
      <trkpt lat="59.8996425" lon="17.7190385">
        <ele>26.0929</ele>
        <time>2013-05-26T13:58:18Z</time>
      </trkpt>
      <trkpt lat="59.8996764" lon="17.7189199">
        <ele>26.5736</ele>
        <time>2013-05-26T13:58:19Z</time>
      </trkpt>
      <trkpt lat="59.8997163" lon="17.718822">
        <ele>26.5736</ele>
        <time>2013-05-26T13:58:20Z</time>
      </trkpt>
      <trkpt lat="59.8997584" lon="17.7187242">
        <ele>26.5736</ele>
        <time>2013-05-26T13:58:21Z</time>
      </trkpt>
      <trkpt lat="59.8997976" lon="17.7186251">
        <ele>26.5736</ele>
        <time>2013-05-26T13:58:22Z</time>
      </trkpt>
      <trkpt lat="59.8998322" lon="17.7185143">
        <ele>26.5736</ele>
        <time>2013-05-26T13:58:23Z</time>
      </trkpt>
      <trkpt lat="59.8998655" lon="17.7184077">
        <ele>26.0929</ele>
        <time>2013-05-26T13:58:24Z</time>
      </trkpt>
      <trkpt lat="59.899897" lon="17.7183014">
        <ele>26.0929</ele>
        <time>2013-05-26T13:58:25Z</time>
      </trkpt>
      <trkpt lat="59.8999296" lon="17.7182059">
        <ele>26.0929</ele>
        <time>2013-05-26T13:58:26Z</time>
      </trkpt>
      <trkpt lat="59.8999592" lon="17.7181071">
        <ele>26.0929</ele>
        <time>2013-05-26T13:58:27Z</time>
      </trkpt>
      <trkpt lat="59.8999872" lon="17.7180098">
        <ele>26.0929</ele>
        <time>2013-05-26T13:58:28Z</time>
      </trkpt>
      <trkpt lat="59.900012" lon="17.7179092">
        <ele>26.0929</ele>
        <time>2013-05-26T13:58:29Z</time>
      </trkpt>
      <trkpt lat="59.9000319" lon="17.7178041">
        <ele>25.6123</ele>
        <time>2013-05-26T13:58:30Z</time>
      </trkpt>
      <trkpt lat="59.9000486" lon="17.7176974">
        <ele>25.6123</ele>
        <time>2013-05-26T13:58:31Z</time>
      </trkpt>
      <trkpt lat="59.9000609" lon="17.717586">
        <ele>25.1317</ele>
        <time>2013-05-26T13:58:32Z</time>
      </trkpt>
      <trkpt lat="59.9000706" lon="17.717474">
        <ele>25.1317</ele>
        <time>2013-05-26T13:58:33Z</time>
      </trkpt>
      <trkpt lat="59.9000794" lon="17.7173627">
        <ele>24.651</ele>
        <time>2013-05-26T13:58:34Z</time>
      </trkpt>
      <trkpt lat="59.9000875" lon="17.7172534">
        <ele>24.651</ele>
        <time>2013-05-26T13:58:35Z</time>
      </trkpt>
      <trkpt lat="59.9000939" lon="17.7171457">
        <ele>24.651</ele>
        <time>2013-05-26T13:58:36Z</time>
      </trkpt>
      <trkpt lat="59.9000991" lon="17.7170363">
        <ele>24.651</ele>
        <time>2013-05-26T13:58:37Z</time>
      </trkpt>
      <trkpt lat="59.9001032" lon="17.7169271">
        <ele>24.651</ele>
        <time>2013-05-26T13:58:38Z</time>
      </trkpt>
      <trkpt lat="59.9001063" lon="17.7168198">
        <ele>25.1317</ele>
        <time>2013-05-26T13:58:39Z</time>
      </trkpt>
      <trkpt lat="59.9001092" lon="17.7167151">
        <ele>25.6123</ele>
        <time>2013-05-26T13:58:40Z</time>
      </trkpt>
      <trkpt lat="59.9001126" lon="17.7166138">
        <ele>25.6123</ele>
        <time>2013-05-26T13:58:41Z</time>
      </trkpt>
      <trkpt lat="59.9001167" lon="17.7165122">
        <ele>25.6123</ele>
        <time>2013-05-26T13:58:42Z</time>
      </trkpt>
      <trkpt lat="59.900123" lon="17.7164092">
        <ele>25.6123</ele>
        <time>2013-05-26T13:58:43Z</time>
      </trkpt>
      <trkpt lat="59.9001322" lon="17.7163008">
        <ele>25.1317</ele>
        <time>2013-05-26T13:58:44Z</time>
      </trkpt>
      <trkpt lat="59.9001441" lon="17.7161926">
        <ele>25.6123</ele>
        <time>2013-05-26T13:58:45Z</time>
      </trkpt>
      <trkpt lat="59.9001545" lon="17.7160862">
        <ele>25.6123</ele>
        <time>2013-05-26T13:58:46Z</time>
      </trkpt>
      <trkpt lat="59.9001645" lon="17.7159832">
        <ele>25.1317</ele>
        <time>2013-05-26T13:58:47Z</time>
      </trkpt>
      <trkpt lat="59.9001769" lon="17.7158823">
        <ele>25.1317</ele>
        <time>2013-05-26T13:58:48Z</time>
      </trkpt>
      <trkpt lat="59.9001914" lon="17.7157802">
        <ele>25.1317</ele>
        <time>2013-05-26T13:58:49Z</time>
      </trkpt>
      <trkpt lat="59.9002074" lon="17.7156786">
        <ele>25.1317</ele>
        <time>2013-05-26T13:58:50Z</time>
      </trkpt>
      <trkpt lat="59.9002237" lon="17.7155792">
        <ele>25.1317</ele>
        <time>2013-05-26T13:58:51Z</time>
      </trkpt>
      <trkpt lat="59.9002404" lon="17.7154829">
        <ele>25.1317</ele>
        <time>2013-05-26T13:58:52Z</time>
      </trkpt>
      <trkpt lat="59.9002601" lon="17.7153917">
        <ele>25.1317</ele>
        <time>2013-05-26T13:58:53Z</time>
      </trkpt>
      <trkpt lat="59.900281" lon="17.7153039">
        <ele>25.1317</ele>
        <time>2013-05-26T13:58:54Z</time>
      </trkpt>
      <trkpt lat="59.9003026" lon="17.7152165">
        <ele>25.1317</ele>
        <time>2013-05-26T13:58:55Z</time>
      </trkpt>
      <trkpt lat="59.9003244" lon="17.7151278">
        <ele>24.651</ele>
        <time>2013-05-26T13:58:56Z</time>
      </trkpt>
      <trkpt lat="59.9003462" lon="17.7150357">
        <ele>24.651</ele>
        <time>2013-05-26T13:58:57Z</time>
      </trkpt>
      <trkpt lat="59.9003674" lon="17.7149413">
        <ele>24.651</ele>
        <time>2013-05-26T13:58:58Z</time>
      </trkpt>
      <trkpt lat="59.9003888" lon="17.7148469">
        <ele>24.651</ele>
        <time>2013-05-26T13:58:59Z</time>
      </trkpt>
      <trkpt lat="59.9004115" lon="17.7147534">
        <ele>24.651</ele>
        <time>2013-05-26T13:59:00Z</time>
      </trkpt>
      <trkpt lat="59.9004361" lon="17.7146611">
        <ele>24.651</ele>
        <time>2013-05-26T13:59:01Z</time>
      </trkpt>
      <trkpt lat="59.9004617" lon="17.71457">
        <ele>24.651</ele>
        <time>2013-05-26T13:59:02Z</time>
      </trkpt>
      <trkpt lat="59.9004871" lon="17.7144783">
        <ele>24.1703</ele>
        <time>2013-05-26T13:59:03Z</time>
      </trkpt>
      <trkpt lat="59.9005125" lon="17.714386">
        <ele>24.1703</ele>
        <time>2013-05-26T13:59:04Z</time>
      </trkpt>
      <trkpt lat="59.9005393" lon="17.7142952">
        <ele>24.1703</ele>
        <time>2013-05-26T13:59:05Z</time>
      </trkpt>
      <trkpt lat="59.9005683" lon="17.7142069">
        <ele>24.1703</ele>
        <time>2013-05-26T13:59:06Z</time>
      </trkpt>
      <trkpt lat="59.9005991" lon="17.71412">
        <ele>24.1703</ele>
        <time>2013-05-26T13:59:07Z</time>
      </trkpt>
      <trkpt lat="59.9006279" lon="17.7140297">
        <ele>23.6896</ele>
        <time>2013-05-26T13:59:08Z</time>
      </trkpt>
      <trkpt lat="59.9006558" lon="17.7139392">
        <ele>23.209</ele>
        <time>2013-05-26T13:59:09Z</time>
      </trkpt>
      <trkpt lat="59.9006849" lon="17.7138525">
        <ele>23.209</ele>
        <time>2013-05-26T13:59:10Z</time>
      </trkpt>
      <trkpt lat="59.9007136" lon="17.7137683">
        <ele>22.7283</ele>
        <time>2013-05-26T13:59:11Z</time>
      </trkpt>
      <trkpt lat="59.9007415" lon="17.7136864">
        <ele>22.7283</ele>
        <time>2013-05-26T13:59:12Z</time>
      </trkpt>
      <trkpt lat="59.9007647" lon="17.7136009">
        <ele>22.2476</ele>
        <time>2013-05-26T13:59:13Z</time>
      </trkpt>
      <trkpt lat="59.9007875" lon="17.7135206">
        <ele>22.2476</ele>
        <time>2013-05-26T13:59:14Z</time>
      </trkpt>
      <trkpt lat="59.9008096" lon="17.7134438">
        <ele>22.2476</ele>
        <time>2013-05-26T13:59:15Z</time>
      </trkpt>
      <trkpt lat="59.9008317" lon="17.7133702">
        <ele>22.2476</ele>
        <time>2013-05-26T13:59:16Z</time>
      </trkpt>
      <trkpt lat="59.9008542" lon="17.7132979">
        <ele>22.2476</ele>
        <time>2013-05-26T13:59:17Z</time>
      </trkpt>
      <trkpt lat="59.9008786" lon="17.7132289">
        <ele>22.2476</ele>
        <time>2013-05-26T13:59:18Z</time>
      </trkpt>
      <trkpt lat="59.9009035" lon="17.7131606">
        <ele>22.2476</ele>
        <time>2013-05-26T13:59:19Z</time>
      </trkpt>
      <trkpt lat="59.9009279" lon="17.7130928">
        <ele>22.2476</ele>
        <time>2013-05-26T13:59:20Z</time>
      </trkpt>
      <trkpt lat="59.9009516" lon="17.7130245">
        <ele>22.2476</ele>
        <time>2013-05-26T13:59:21Z</time>
      </trkpt>
      <trkpt lat="59.9009733" lon="17.7129571">
        <ele>22.2476</ele>
        <time>2013-05-26T13:59:22Z</time>
      </trkpt>
      <trkpt lat="59.9009925" lon="17.7128928">
        <ele>21.767</ele>
        <time>2013-05-26T13:59:23Z</time>
      </trkpt>
      <trkpt lat="59.9010087" lon="17.7128287">
        <ele>21.767</ele>
        <time>2013-05-26T13:59:24Z</time>
      </trkpt>
      <trkpt lat="59.9010154" lon="17.7127586">
        <ele>21.767</ele>
        <time>2013-05-26T13:59:25Z</time>
      </trkpt>
      <trkpt lat="59.9010194" lon="17.7126883">
        <ele>21.767</ele>
        <time>2013-05-26T13:59:26Z</time>
      </trkpt>
      <trkpt lat="59.9010119" lon="17.7126188">
        <ele>21.767</ele>
        <time>2013-05-26T13:59:27Z</time>
      </trkpt>
      <trkpt lat="59.9009889" lon="17.7125613">
        <ele>21.767</ele>
        <time>2013-05-26T13:59:28Z</time>
      </trkpt>
      <trkpt lat="59.9009569" lon="17.7125121">
        <ele>21.767</ele>
        <time>2013-05-26T13:59:29Z</time>
      </trkpt>
      <trkpt lat="59.9009212" lon="17.7124711">
        <ele>21.767</ele>
        <time>2013-05-26T13:59:30Z</time>
      </trkpt>
      <trkpt lat="59.9008839" lon="17.7124313">
        <ele>21.767</ele>
        <time>2013-05-26T13:59:31Z</time>
      </trkpt>
      <trkpt lat="59.9008455" lon="17.7123881">
        <ele>21.767</ele>
        <time>2013-05-26T13:59:32Z</time>
      </trkpt>
      <trkpt lat="59.9008058" lon="17.7123418">
        <ele>21.767</ele>
        <time>2013-05-26T13:59:33Z</time>
      </trkpt>
      <trkpt lat="59.9007652" lon="17.7122923">
        <ele>21.767</ele>
        <time>2013-05-26T13:59:34Z</time>
      </trkpt>
      <trkpt lat="59.9007227" lon="17.7122418">
        <ele>21.767</ele>
        <time>2013-05-26T13:59:35Z</time>
      </trkpt>
      <trkpt lat="59.900678" lon="17.7121914">
        <ele>21.767</ele>
        <time>2013-05-26T13:59:36Z</time>
      </trkpt>
      <trkpt lat="59.9006316" lon="17.7121404">
        <ele>21.767</ele>
        <time>2013-05-26T13:59:37Z</time>
      </trkpt>
      <trkpt lat="59.9005853" lon="17.7120887">
        <ele>21.767</ele>
        <time>2013-05-26T13:59:38Z</time>
      </trkpt>
      <trkpt lat="59.9005394" lon="17.7120343">
        <ele>21.767</ele>
        <time>2013-05-26T13:59:39Z</time>
      </trkpt>
      <trkpt lat="59.9004928" lon="17.7119795">
        <ele>21.767</ele>
        <time>2013-05-26T13:59:40Z</time>
      </trkpt>
      <trkpt lat="59.900445" lon="17.7119226">
        <ele>21.767</ele>
        <time>2013-05-26T13:59:41Z</time>
      </trkpt>
      <trkpt lat="59.9003968" lon="17.711864">
        <ele>21.767</ele>
        <time>2013-05-26T13:59:42Z</time>
      </trkpt>
      <trkpt lat="59.9003476" lon="17.7118065">
        <ele>21.767</ele>
        <time>2013-05-26T13:59:43Z</time>
      </trkpt>
      <trkpt lat="59.9002976" lon="17.711752">
        <ele>21.767</ele>
        <time>2013-05-26T13:59:44Z</time>
      </trkpt>
      <trkpt lat="59.9002479" lon="17.7116971">
        <ele>21.767</ele>
        <time>2013-05-26T13:59:45Z</time>
      </trkpt>
      <trkpt lat="59.9002046" lon="17.7116433">
        <ele>22.2476</ele>
        <time>2013-05-26T13:59:46Z</time>
      </trkpt>
      <trkpt lat="59.9001581" lon="17.711588">
        <ele>22.7283</ele>
        <time>2013-05-26T13:59:47Z</time>
      </trkpt>
      <trkpt lat="59.9001085" lon="17.7115323">
        <ele>23.209</ele>
        <time>2013-05-26T13:59:48Z</time>
      </trkpt>
      <trkpt lat="59.9000578" lon="17.7114731">
        <ele>23.6896</ele>
        <time>2013-05-26T13:59:49Z</time>
      </trkpt>
      <trkpt lat="59.9000058" lon="17.7114098">
        <ele>23.6896</ele>
        <time>2013-05-26T13:59:50Z</time>
      </trkpt>
      <trkpt lat="59.8999505" lon="17.7113451">
        <ele>23.6896</ele>
        <time>2013-05-26T13:59:51Z</time>
      </trkpt>
      <trkpt lat="59.8998951" lon="17.7112809">
        <ele>23.6896</ele>
        <time>2013-05-26T13:59:52Z</time>
      </trkpt>
      <trkpt lat="59.8998401" lon="17.7112171">
        <ele>23.6896</ele>
        <time>2013-05-26T13:59:53Z</time>
      </trkpt>
      <trkpt lat="59.8997852" lon="17.7111544">
        <ele>23.6896</ele>
        <time>2013-05-26T13:59:54Z</time>
      </trkpt>
      <trkpt lat="59.8997295" lon="17.7110931">
        <ele>23.6896</ele>
        <time>2013-05-26T13:59:55Z</time>
      </trkpt>
      <trkpt lat="59.8996757" lon="17.7110319">
        <ele>23.6896</ele>
        <time>2013-05-26T13:59:56Z</time>
      </trkpt>
      <trkpt lat="59.8996205" lon="17.7109668">
        <ele>23.6896</ele>
        <time>2013-05-26T13:59:57Z</time>
      </trkpt>
      <trkpt lat="59.8995634" lon="17.7108974">
        <ele>23.6896</ele>
        <time>2013-05-26T13:59:58Z</time>
      </trkpt>
      <trkpt lat="59.8995043" lon="17.7108244">
        <ele>23.6896</ele>
        <time>2013-05-26T13:59:59Z</time>
      </trkpt>
      <trkpt lat="59.8994434" lon="17.7107507">
        <ele>24.1703</ele>
        <time>2013-05-26T14:00:00Z</time>
      </trkpt>
      <trkpt lat="59.8993796" lon="17.7106741">
        <ele>24.1703</ele>
        <time>2013-05-26T14:00:01Z</time>
      </trkpt>
      <trkpt lat="59.8993134" lon="17.710593">
        <ele>24.651</ele>
        <time>2013-05-26T14:00:02Z</time>
      </trkpt>
      <trkpt lat="59.8992484" lon="17.7105093">
        <ele>24.651</ele>
        <time>2013-05-26T14:00:03Z</time>
      </trkpt>
      <trkpt lat="59.8991831" lon="17.710426">
        <ele>25.1317</ele>
        <time>2013-05-26T14:00:04Z</time>
      </trkpt>
      <trkpt lat="59.8991191" lon="17.7103412">
        <ele>25.6123</ele>
        <time>2013-05-26T14:00:05Z</time>
      </trkpt>
      <trkpt lat="59.8990565" lon="17.7102542">
        <ele>25.6123</ele>
        <time>2013-05-26T14:00:06Z</time>
      </trkpt>
      <trkpt lat="59.8989935" lon="17.7101707">
        <ele>25.6123</ele>
        <time>2013-05-26T14:00:07Z</time>
      </trkpt>
      <trkpt lat="59.8989284" lon="17.7100909">
        <ele>25.6123</ele>
        <time>2013-05-26T14:00:08Z</time>
      </trkpt>
      <trkpt lat="59.8988647" lon="17.7100102">
        <ele>25.6123</ele>
        <time>2013-05-26T14:00:09Z</time>
      </trkpt>
      <trkpt lat="59.898802" lon="17.7099258">
        <ele>26.0929</ele>
        <time>2013-05-26T14:00:10Z</time>
      </trkpt>
      <trkpt lat="59.8987398" lon="17.7098408">
        <ele>25.6123</ele>
        <time>2013-05-26T14:00:11Z</time>
      </trkpt>
      <trkpt lat="59.8986771" lon="17.7097597">
        <ele>25.6123</ele>
        <time>2013-05-26T14:00:12Z</time>
      </trkpt>
      <trkpt lat="59.898614" lon="17.709683">
        <ele>25.6123</ele>
        <time>2013-05-26T14:00:13Z</time>
      </trkpt>
      <trkpt lat="59.8985519" lon="17.7096069">
        <ele>25.1317</ele>
        <time>2013-05-26T14:00:14Z</time>
      </trkpt>
      <trkpt lat="59.8984915" lon="17.7095295">
        <ele>25.1317</ele>
        <time>2013-05-26T14:00:15Z</time>
      </trkpt>
      <trkpt lat="59.8984321" lon="17.7094506">
        <ele>24.651</ele>
        <time>2013-05-26T14:00:16Z</time>
      </trkpt>
      <trkpt lat="59.8983714" lon="17.7093703">
        <ele>24.651</ele>
        <time>2013-05-26T14:00:17Z</time>
      </trkpt>
      <trkpt lat="59.898309" lon="17.7092879">
        <ele>24.1703</ele>
        <time>2013-05-26T14:00:18Z</time>
      </trkpt>
      <trkpt lat="59.8982468" lon="17.7092029">
        <ele>24.1703</ele>
        <time>2013-05-26T14:00:19Z</time>
      </trkpt>
      <trkpt lat="59.898183" lon="17.7091181">
        <ele>24.1703</ele>
        <time>2013-05-26T14:00:20Z</time>
      </trkpt>
      <trkpt lat="59.8981182" lon="17.7090343">
        <ele>23.6896</ele>
        <time>2013-05-26T14:00:21Z</time>
      </trkpt>
      <trkpt lat="59.8980531" lon="17.708947">
        <ele>23.6896</ele>
        <time>2013-05-26T14:00:22Z</time>
      </trkpt>
      <trkpt lat="59.8979868" lon="17.7088576">
        <ele>23.6896</ele>
        <time>2013-05-26T14:00:23Z</time>
      </trkpt>
      <trkpt lat="59.8979199" lon="17.7087709">
        <ele>23.6896</ele>
        <time>2013-05-26T14:00:24Z</time>
      </trkpt>
      <trkpt lat="59.8978531" lon="17.708689">
        <ele>23.6896</ele>
        <time>2013-05-26T14:00:25Z</time>
      </trkpt>
      <trkpt lat="59.8977856" lon="17.7086099">
        <ele>23.6896</ele>
        <time>2013-05-26T14:00:26Z</time>
      </trkpt>
      <trkpt lat="59.8977163" lon="17.7085373">
        <ele>23.6896</ele>
        <time>2013-05-26T14:00:27Z</time>
      </trkpt>
      <trkpt lat="59.8976463" lon="17.7084664">
        <ele>23.6896</ele>
        <time>2013-05-26T14:00:28Z</time>
      </trkpt>
      <trkpt lat="59.8975812" lon="17.7083862">
        <ele>23.6896</ele>
        <time>2013-05-26T14:00:29Z</time>
      </trkpt>
      <trkpt lat="59.8975215" lon="17.7082955">
        <ele>23.6896</ele>
        <time>2013-05-26T14:00:30Z</time>
      </trkpt>
      <trkpt lat="59.8974648" lon="17.7082032">
        <ele>23.6896</ele>
        <time>2013-05-26T14:00:31Z</time>
      </trkpt>
      <trkpt lat="59.8974079" lon="17.7081165">
        <ele>23.6896</ele>
        <time>2013-05-26T14:00:32Z</time>
      </trkpt>
      <trkpt lat="59.8973499" lon="17.7080363">
        <ele>23.209</ele>
        <time>2013-05-26T14:00:33Z</time>
      </trkpt>
      <trkpt lat="59.8972918" lon="17.7079584">
        <ele>23.209</ele>
        <time>2013-05-26T14:00:34Z</time>
      </trkpt>
      <trkpt lat="59.8972346" lon="17.7078829">
        <ele>23.209</ele>
        <time>2013-05-26T14:00:35Z</time>
      </trkpt>
      <trkpt lat="59.8971785" lon="17.7078101">
        <ele>23.209</ele>
        <time>2013-05-26T14:00:36Z</time>
      </trkpt>
      <trkpt lat="59.897123" lon="17.7077387">
        <ele>23.209</ele>
        <time>2013-05-26T14:00:37Z</time>
      </trkpt>
      <trkpt lat="59.8970724" lon="17.7076615">
        <ele>23.209</ele>
        <time>2013-05-26T14:00:38Z</time>
      </trkpt>
      <trkpt lat="59.8970276" lon="17.7075878">
        <ele>23.209</ele>
        <time>2013-05-26T14:00:39Z</time>
      </trkpt>
      <trkpt lat="59.8969899" lon="17.7075318">
        <ele>23.209</ele>
        <time>2013-05-26T14:00:40Z</time>
      </trkpt>
      <trkpt lat="59.89696" lon="17.7074924">
        <ele>23.209</ele>
        <time>2013-05-26T14:00:41Z</time>
      </trkpt>
      <trkpt lat="59.8969404" lon="17.7074672">
        <ele>22.7283</ele>
        <time>2013-05-26T14:00:42Z</time>
      </trkpt>
      <trkpt lat="59.896932" lon="17.7074613">
        <ele>22.7283</ele>
        <time>2013-05-26T14:00:43Z</time>
      </trkpt>
      <trkpt lat="59.8969298" lon="17.7074603">
        <ele>22.7283</ele>
        <time>2013-05-26T14:00:44Z</time>
      </trkpt>
      <trkpt lat="59.896929" lon="17.7074582">
        <ele>22.7283</ele>
        <time>2013-05-26T14:00:45Z</time>
      </trkpt>
      <trkpt lat="59.8969121" lon="17.7074102">
        <ele>30.8995</ele>
        <time>2013-05-26T14:09:24Z</time>
      </trkpt>
      <trkpt lat="59.8968946" lon="17.7073915">
        <ele>30.8995</ele>
        <time>2013-05-26T14:09:25Z</time>
      </trkpt>
      <trkpt lat="59.8968741" lon="17.7073636">
        <ele>30.8995</ele>
        <time>2013-05-26T14:09:26Z</time>
      </trkpt>
      <trkpt lat="59.8968522" lon="17.7073269">
        <ele>30.8995</ele>
        <time>2013-05-26T14:09:27Z</time>
      </trkpt>
      <trkpt lat="59.8968269" lon="17.7072881">
        <ele>30.8995</ele>
        <time>2013-05-26T14:09:28Z</time>
      </trkpt>
      <trkpt lat="59.8967982" lon="17.7072448">
        <ele>30.8995</ele>
        <time>2013-05-26T14:09:29Z</time>
      </trkpt>
      <trkpt lat="59.8967646" lon="17.7072008">
        <ele>30.8995</ele>
        <time>2013-05-26T14:09:30Z</time>
      </trkpt>
      <trkpt lat="59.8967273" lon="17.7071533">
        <ele>30.8995</ele>
        <time>2013-05-26T14:09:31Z</time>
      </trkpt>
      <trkpt lat="59.896687" lon="17.7070999">
        <ele>30.8995</ele>
        <time>2013-05-26T14:09:32Z</time>
      </trkpt>
      <trkpt lat="59.8966429" lon="17.7070453">
        <ele>30.8995</ele>
        <time>2013-05-26T14:09:33Z</time>
      </trkpt>
      <trkpt lat="59.8965972" lon="17.7069828">
        <ele>30.8995</ele>
        <time>2013-05-26T14:09:34Z</time>
      </trkpt>
      <trkpt lat="59.8965523" lon="17.7069145">
        <ele>30.8995</ele>
        <time>2013-05-26T14:09:35Z</time>
      </trkpt>
      <trkpt lat="59.8965081" lon="17.7068482">
        <ele>30.8995</ele>
        <time>2013-05-26T14:09:36Z</time>
      </trkpt>
      <trkpt lat="59.8964604" lon="17.7067854">
        <ele>30.8995</ele>
        <time>2013-05-26T14:09:37Z</time>
      </trkpt>
      <trkpt lat="59.8964125" lon="17.7067222">
        <ele>30.8995</ele>
        <time>2013-05-26T14:09:38Z</time>
      </trkpt>
      <trkpt lat="59.8963657" lon="17.7066591">
        <ele>30.8995</ele>
        <time>2013-05-26T14:09:39Z</time>
      </trkpt>
      <trkpt lat="59.8963187" lon="17.7065972">
        <ele>30.8995</ele>
        <time>2013-05-26T14:09:40Z</time>
      </trkpt>
      <trkpt lat="59.8962731" lon="17.7065349">
        <ele>30.4188</ele>
        <time>2013-05-26T14:09:41Z</time>
      </trkpt>
      <trkpt lat="59.8962268" lon="17.7064698">
        <ele>30.4188</ele>
        <time>2013-05-26T14:09:42Z</time>
      </trkpt>
      <trkpt lat="59.8961798" lon="17.706403">
        <ele>30.4188</ele>
        <time>2013-05-26T14:09:43Z</time>
      </trkpt>
      <trkpt lat="59.8961311" lon="17.7063342">
        <ele>30.4188</ele>
        <time>2013-05-26T14:09:44Z</time>
      </trkpt>
      <trkpt lat="59.8960787" lon="17.7062639">
        <ele>29.9381</ele>
        <time>2013-05-26T14:09:45Z</time>
      </trkpt>
      <trkpt lat="59.8960242" lon="17.7061958">
        <ele>29.9381</ele>
        <time>2013-05-26T14:09:46Z</time>
      </trkpt>
      <trkpt lat="59.8959699" lon="17.7061281">
        <ele>29.9381</ele>
        <time>2013-05-26T14:09:47Z</time>
      </trkpt>
      <trkpt lat="59.8959167" lon="17.7060596">
        <ele>29.9381</ele>
        <time>2013-05-26T14:09:48Z</time>
      </trkpt>
      <trkpt lat="59.8958634" lon="17.7059928">
        <ele>29.9381</ele>
        <time>2013-05-26T14:09:49Z</time>
      </trkpt>
      <trkpt lat="59.8958109" lon="17.7059259">
        <ele>29.4575</ele>
        <time>2013-05-26T14:09:50Z</time>
      </trkpt>
      <trkpt lat="59.8957591" lon="17.7058586">
        <ele>29.4575</ele>
        <time>2013-05-26T14:09:51Z</time>
      </trkpt>
      <trkpt lat="59.8957088" lon="17.7057878">
        <ele>29.4575</ele>
        <time>2013-05-26T14:09:52Z</time>
      </trkpt>
      <trkpt lat="59.8956602" lon="17.7057141">
        <ele>29.4575</ele>
        <time>2013-05-26T14:09:53Z</time>
      </trkpt>
      <trkpt lat="59.8956114" lon="17.7056438">
        <ele>29.4575</ele>
        <time>2013-05-26T14:09:54Z</time>
      </trkpt>
      <trkpt lat="59.895562" lon="17.7055793">
        <ele>29.4575</ele>
        <time>2013-05-26T14:09:55Z</time>
      </trkpt>
      <trkpt lat="59.8955115" lon="17.7055195">
        <ele>29.9381</ele>
        <time>2013-05-26T14:09:56Z</time>
      </trkpt>
      <trkpt lat="59.8954599" lon="17.7054631">
        <ele>29.9381</ele>
        <time>2013-05-26T14:09:57Z</time>
      </trkpt>
      <trkpt lat="59.8954091" lon="17.7054087">
        <ele>29.4575</ele>
        <time>2013-05-26T14:09:58Z</time>
      </trkpt>
      <trkpt lat="59.8953573" lon="17.7053527">
        <ele>29.4575</ele>
        <time>2013-05-26T14:09:59Z</time>
      </trkpt>
      <trkpt lat="59.8953043" lon="17.70529">
        <ele>29.4575</ele>
        <time>2013-05-26T14:10:00Z</time>
      </trkpt>
      <trkpt lat="59.89525" lon="17.705219">
        <ele>29.4575</ele>
        <time>2013-05-26T14:10:01Z</time>
      </trkpt>
      <trkpt lat="59.895196" lon="17.7051407">
        <ele>29.4575</ele>
        <time>2013-05-26T14:10:02Z</time>
      </trkpt>
      <trkpt lat="59.8951437" lon="17.7050583">
        <ele>29.4575</ele>
        <time>2013-05-26T14:10:03Z</time>
      </trkpt>
      <trkpt lat="59.8950932" lon="17.7049753">
        <ele>29.4575</ele>
        <time>2013-05-26T14:10:04Z</time>
      </trkpt>
      <trkpt lat="59.8950427" lon="17.7048979">
        <ele>29.4575</ele>
        <time>2013-05-26T14:10:05Z</time>
      </trkpt>
      <trkpt lat="59.8949914" lon="17.7048272">
        <ele>29.4575</ele>
        <time>2013-05-26T14:10:06Z</time>
      </trkpt>
      <trkpt lat="59.8949401" lon="17.7047606">
        <ele>29.4575</ele>
        <time>2013-05-26T14:10:07Z</time>
      </trkpt>
      <trkpt lat="59.89489" lon="17.7046953">
        <ele>29.4575</ele>
        <time>2013-05-26T14:10:08Z</time>
      </trkpt>
      <trkpt lat="59.8948423" lon="17.7046274">
        <ele>29.9381</ele>
        <time>2013-05-26T14:10:09Z</time>
      </trkpt>
      <trkpt lat="59.8947967" lon="17.704558">
        <ele>29.9381</ele>
        <time>2013-05-26T14:10:10Z</time>
      </trkpt>
      <trkpt lat="59.8947527" lon="17.7044907">
        <ele>29.9381</ele>
        <time>2013-05-26T14:10:11Z</time>
      </trkpt>
      <trkpt lat="59.8947076" lon="17.7044276">
        <ele>29.9381</ele>
        <time>2013-05-26T14:10:12Z</time>
      </trkpt>
      <trkpt lat="59.894662" lon="17.7043653">
        <ele>29.9381</ele>
        <time>2013-05-26T14:10:13Z</time>
      </trkpt>
      <trkpt lat="59.8946149" lon="17.7043001">
        <ele>30.4188</ele>
        <time>2013-05-26T14:10:14Z</time>
      </trkpt>
      <trkpt lat="59.8945663" lon="17.704231">
        <ele>30.4188</ele>
        <time>2013-05-26T14:10:15Z</time>
      </trkpt>
      <trkpt lat="59.8945159" lon="17.7041602">
        <ele>30.4188</ele>
        <time>2013-05-26T14:10:16Z</time>
      </trkpt>
      <trkpt lat="59.8944617" lon="17.7040906">
        <ele>30.4188</ele>
        <time>2013-05-26T14:10:17Z</time>
      </trkpt>
      <trkpt lat="59.8944056" lon="17.7040196">
        <ele>30.4188</ele>
        <time>2013-05-26T14:10:18Z</time>
      </trkpt>
      <trkpt lat="59.8943512" lon="17.7039452">
        <ele>30.4188</ele>
        <time>2013-05-26T14:10:19Z</time>
      </trkpt>
      <trkpt lat="59.8942995" lon="17.7038709">
        <ele>30.4188</ele>
        <time>2013-05-26T14:10:20Z</time>
      </trkpt>
      <trkpt lat="59.8942497" lon="17.7037975">
        <ele>30.4188</ele>
        <time>2013-05-26T14:10:21Z</time>
      </trkpt>
      <trkpt lat="59.894201" lon="17.7037256">
        <ele>30.4188</ele>
        <time>2013-05-26T14:10:22Z</time>
      </trkpt>
      <trkpt lat="59.894153" lon="17.703657">
        <ele>30.8995</ele>
        <time>2013-05-26T14:10:23Z</time>
      </trkpt>
      <trkpt lat="59.8941062" lon="17.7035926">
        <ele>30.4188</ele>
        <time>2013-05-26T14:10:24Z</time>
      </trkpt>
      <trkpt lat="59.8940579" lon="17.7035316">
        <ele>30.4188</ele>
        <time>2013-05-26T14:10:25Z</time>
      </trkpt>
      <trkpt lat="59.8940083" lon="17.7034752">
        <ele>30.4188</ele>
        <time>2013-05-26T14:10:26Z</time>
      </trkpt>
      <trkpt lat="59.89396" lon="17.7034232">
        <ele>29.9381</ele>
        <time>2013-05-26T14:10:27Z</time>
      </trkpt>
      <trkpt lat="59.8939156" lon="17.7033631">
        <ele>29.9381</ele>
        <time>2013-05-26T14:10:28Z</time>
      </trkpt>
      <trkpt lat="59.8938799" lon="17.7032895">
        <ele>29.9381</ele>
        <time>2013-05-26T14:10:29Z</time>
      </trkpt>
      <trkpt lat="59.8938502" lon="17.7032079">
        <ele>29.9381</ele>
        <time>2013-05-26T14:10:30Z</time>
      </trkpt>
      <trkpt lat="59.8938218" lon="17.7031261">
        <ele>29.9381</ele>
        <time>2013-05-26T14:10:31Z</time>
      </trkpt>
      <trkpt lat="59.8937888" lon="17.7030473">
        <ele>30.4188</ele>
        <time>2013-05-26T14:10:32Z</time>
      </trkpt>
      <trkpt lat="59.8937553" lon="17.7029657">
        <ele>29.9381</ele>
        <time>2013-05-26T14:10:33Z</time>
      </trkpt>
      <trkpt lat="59.8937254" lon="17.7028781">
        <ele>29.9381</ele>
        <time>2013-05-26T14:10:34Z</time>
      </trkpt>
      <trkpt lat="59.8936964" lon="17.7027883">
        <ele>29.4575</ele>
        <time>2013-05-26T14:10:35Z</time>
      </trkpt>
      <trkpt lat="59.8936613" lon="17.7027006">
        <ele>29.4575</ele>
        <time>2013-05-26T14:10:36Z</time>
      </trkpt>
      <trkpt lat="59.8936168" lon="17.7026203">
        <ele>29.4575</ele>
        <time>2013-05-26T14:10:37Z</time>
      </trkpt>
      <trkpt lat="59.8935675" lon="17.7025492">
        <ele>29.4575</ele>
        <time>2013-05-26T14:10:38Z</time>
      </trkpt>
      <trkpt lat="59.8935188" lon="17.702485">
        <ele>29.4575</ele>
        <time>2013-05-26T14:10:39Z</time>
      </trkpt>
      <trkpt lat="59.893469" lon="17.7024237">
        <ele>29.4575</ele>
        <time>2013-05-26T14:10:40Z</time>
      </trkpt>
      <trkpt lat="59.8934179" lon="17.7023594">
        <ele>29.4575</ele>
        <time>2013-05-26T14:10:41Z</time>
      </trkpt>
      <trkpt lat="59.8933686" lon="17.7022939">
        <ele>28.9769</ele>
        <time>2013-05-26T14:10:42Z</time>
      </trkpt>
      <trkpt lat="59.8933195" lon="17.7022307">
        <ele>28.4962</ele>
        <time>2013-05-26T14:10:43Z</time>
      </trkpt>
      <trkpt lat="59.893271" lon="17.702169">
        <ele>28.0155</ele>
        <time>2013-05-26T14:10:44Z</time>
      </trkpt>
      <trkpt lat="59.8932225" lon="17.7021078">
        <ele>27.5349</ele>
        <time>2013-05-26T14:10:45Z</time>
      </trkpt>
      <trkpt lat="59.8931754" lon="17.7020452">
        <ele>27.0543</ele>
        <time>2013-05-26T14:10:46Z</time>
      </trkpt>
      <trkpt lat="59.8931298" lon="17.7019813">
        <ele>26.0929</ele>
        <time>2013-05-26T14:10:47Z</time>
      </trkpt>
      <trkpt lat="59.8930838" lon="17.7019199">
        <ele>25.6123</ele>
        <time>2013-05-26T14:10:48Z</time>
      </trkpt>
      <trkpt lat="59.8930377" lon="17.7018617">
        <ele>25.1317</ele>
        <time>2013-05-26T14:10:49Z</time>
      </trkpt>
      <trkpt lat="59.8929925" lon="17.7018034">
        <ele>24.651</ele>
        <time>2013-05-26T14:10:50Z</time>
      </trkpt>
      <trkpt lat="59.892948" lon="17.701744">
        <ele>24.651</ele>
        <time>2013-05-26T14:10:51Z</time>
      </trkpt>
      <trkpt lat="59.8929039" lon="17.7016842">
        <ele>24.651</ele>
        <time>2013-05-26T14:10:52Z</time>
      </trkpt>
      <trkpt lat="59.8928603" lon="17.7016255">
        <ele>24.1703</ele>
        <time>2013-05-26T14:10:53Z</time>
      </trkpt>
      <trkpt lat="59.892816" lon="17.7015692">
        <ele>24.1703</ele>
        <time>2013-05-26T14:10:54Z</time>
      </trkpt>
      <trkpt lat="59.8927723" lon="17.7015138">
        <ele>23.6896</ele>
        <time>2013-05-26T14:10:55Z</time>
      </trkpt>
      <trkpt lat="59.8927297" lon="17.7014573">
        <ele>23.209</ele>
        <time>2013-05-26T14:10:56Z</time>
      </trkpt>
      <trkpt lat="59.8926874" lon="17.7014013">
        <ele>22.7283</ele>
        <time>2013-05-26T14:10:57Z</time>
      </trkpt>
      <trkpt lat="59.8926455" lon="17.7013449">
        <ele>22.2476</ele>
        <time>2013-05-26T14:10:58Z</time>
      </trkpt>
      <trkpt lat="59.892604" lon="17.7012889">
        <ele>21.767</ele>
        <time>2013-05-26T14:10:59Z</time>
      </trkpt>
      <trkpt lat="59.8925621" lon="17.701238">
        <ele>21.2864</ele>
        <time>2013-05-26T14:11:00Z</time>
      </trkpt>
      <trkpt lat="59.892522" lon="17.7011908">
        <ele>21.2864</ele>
        <time>2013-05-26T14:11:01Z</time>
      </trkpt>
      <trkpt lat="59.8924894" lon="17.7011439">
        <ele>20.8057</ele>
        <time>2013-05-26T14:11:02Z</time>
      </trkpt>
      <trkpt lat="59.8924667" lon="17.7011023">
        <ele>20.8057</ele>
        <time>2013-05-26T14:11:03Z</time>
      </trkpt>
      <trkpt lat="59.892458" lon="17.7010598">
        <ele>20.325</ele>
        <time>2013-05-26T14:11:04Z</time>
      </trkpt>
      <trkpt lat="59.8924626" lon="17.7010137">
        <ele>19.8444</ele>
        <time>2013-05-26T14:11:05Z</time>
      </trkpt>
      <trkpt lat="59.8924736" lon="17.7009771">
        <ele>19.8444</ele>
        <time>2013-05-26T14:11:06Z</time>
      </trkpt>
      <trkpt lat="59.8924848" lon="17.7009504">
        <ele>19.3638</ele>
        <time>2013-05-26T14:11:07Z</time>
      </trkpt>
      <trkpt lat="59.8924978" lon="17.7009351">
        <ele>19.8444</ele>
        <time>2013-05-26T14:11:08Z</time>
      </trkpt>
      <trkpt lat="59.8925128" lon="17.7009354">
        <ele>19.8444</ele>
        <time>2013-05-26T14:11:09Z</time>
      </trkpt>
      <trkpt lat="59.8925283" lon="17.7009268">
        <ele>19.8444</ele>
        <time>2013-05-26T14:11:10Z</time>
      </trkpt>
      <trkpt lat="59.892542" lon="17.7009003">
        <ele>19.8444</ele>
        <time>2013-05-26T14:11:11Z</time>
      </trkpt>
      <trkpt lat="59.8925538" lon="17.7008616">
        <ele>19.3638</ele>
        <time>2013-05-26T14:11:12Z</time>
      </trkpt>
      <trkpt lat="59.8925684" lon="17.7008179">
        <ele>19.3638</ele>
        <time>2013-05-26T14:11:13Z</time>
      </trkpt>
      <trkpt lat="59.8925839" lon="17.7007611">
        <ele>19.8444</ele>
        <time>2013-05-26T14:11:14Z</time>
      </trkpt>
      <trkpt lat="59.8926036" lon="17.7007025">
        <ele>19.8444</ele>
        <time>2013-05-26T14:11:15Z</time>
      </trkpt>
      <trkpt lat="59.892625" lon="17.7006354">
        <ele>19.8444</ele>
        <time>2013-05-26T14:11:16Z</time>
      </trkpt>
      <trkpt lat="59.8926512" lon="17.7005704">
        <ele>19.8444</ele>
        <time>2013-05-26T14:11:17Z</time>
      </trkpt>
      <trkpt lat="59.8926815" lon="17.700507">
        <ele>20.325</ele>
        <time>2013-05-26T14:11:18Z</time>
      </trkpt>
      <trkpt lat="59.8927153" lon="17.7004435">
        <ele>20.325</ele>
        <time>2013-05-26T14:11:19Z</time>
      </trkpt>
      <trkpt lat="59.892751" lon="17.7003787">
        <ele>20.8057</ele>
        <time>2013-05-26T14:11:20Z</time>
      </trkpt>
      <trkpt lat="59.8927833" lon="17.7003124">
        <ele>20.8057</ele>
        <time>2013-05-26T14:11:21Z</time>
      </trkpt>
      <trkpt lat="59.8928111" lon="17.7002367">
        <ele>20.8057</ele>
        <time>2013-05-26T14:11:22Z</time>
      </trkpt>
      <trkpt lat="59.8928407" lon="17.7001591">
        <ele>20.8057</ele>
        <time>2013-05-26T14:11:23Z</time>
      </trkpt>
      <trkpt lat="59.8928752" lon="17.7000855">
        <ele>21.2864</ele>
        <time>2013-05-26T14:11:24Z</time>
      </trkpt>
      <trkpt lat="59.892908" lon="17.7000093">
        <ele>21.2864</ele>
        <time>2013-05-26T14:11:25Z</time>
      </trkpt>
      <trkpt lat="59.8929398" lon="17.6999335">
        <ele>21.767</ele>
        <time>2013-05-26T14:11:26Z</time>
      </trkpt>
      <trkpt lat="59.8929707" lon="17.6998597">
        <ele>21.767</ele>
        <time>2013-05-26T14:11:27Z</time>
      </trkpt>
      <trkpt lat="59.8930002" lon="17.6997844">
        <ele>21.767</ele>
        <time>2013-05-26T14:11:28Z</time>
      </trkpt>
      <trkpt lat="59.8930306" lon="17.6997084">
        <ele>21.767</ele>
        <time>2013-05-26T14:11:29Z</time>
      </trkpt>
      <trkpt lat="59.8930609" lon="17.6996318">
        <ele>21.767</ele>
        <time>2013-05-26T14:11:30Z</time>
      </trkpt>
      <trkpt lat="59.8930913" lon="17.6995575">
        <ele>21.767</ele>
        <time>2013-05-26T14:11:31Z</time>
      </trkpt>
      <trkpt lat="59.893122" lon="17.6994872">
        <ele>21.767</ele>
        <time>2013-05-26T14:11:32Z</time>
      </trkpt>
      <trkpt lat="59.8931514" lon="17.6994182">
        <ele>21.767</ele>
        <time>2013-05-26T14:11:33Z</time>
      </trkpt>
      <trkpt lat="59.893179" lon="17.6993498">
        <ele>22.2476</ele>
        <time>2013-05-26T14:11:34Z</time>
      </trkpt>
      <trkpt lat="59.8932012" lon="17.699278">
        <ele>22.2476</ele>
        <time>2013-05-26T14:11:35Z</time>
      </trkpt>
      <trkpt lat="59.8932169" lon="17.6991966">
        <ele>22.2476</ele>
        <time>2013-05-26T14:11:36Z</time>
      </trkpt>
      <trkpt lat="59.8932262" lon="17.6991153">
        <ele>22.7283</ele>
        <time>2013-05-26T14:11:37Z</time>
      </trkpt>
      <trkpt lat="59.8932302" lon="17.699033">
        <ele>23.209</ele>
        <time>2013-05-26T14:11:38Z</time>
      </trkpt>
      <trkpt lat="59.8932339" lon="17.6989526">
        <ele>23.209</ele>
        <time>2013-05-26T14:11:39Z</time>
      </trkpt>
      <trkpt lat="59.8932417" lon="17.6988744">
        <ele>23.6896</ele>
        <time>2013-05-26T14:11:40Z</time>
      </trkpt>
      <trkpt lat="59.8932558" lon="17.6988014">
        <ele>23.6896</ele>
        <time>2013-05-26T14:11:41Z</time>
      </trkpt>
      <trkpt lat="59.8932791" lon="17.6987342">
        <ele>23.6896</ele>
        <time>2013-05-26T14:11:42Z</time>
      </trkpt>
      <trkpt lat="59.8933084" lon="17.6986764">
        <ele>23.6896</ele>
        <time>2013-05-26T14:11:43Z</time>
      </trkpt>
      <trkpt lat="59.893342" lon="17.6986233">
        <ele>23.6896</ele>
        <time>2013-05-26T14:11:44Z</time>
      </trkpt>
      <trkpt lat="59.8933772" lon="17.6985709">
        <ele>24.1703</ele>
        <time>2013-05-26T14:11:45Z</time>
      </trkpt>
      <trkpt lat="59.8934135" lon="17.6985175">
        <ele>24.1703</ele>
        <time>2013-05-26T14:11:46Z</time>
      </trkpt>
      <trkpt lat="59.8934489" lon="17.6984574">
        <ele>24.1703</ele>
        <time>2013-05-26T14:11:47Z</time>
      </trkpt>
      <trkpt lat="59.8934813" lon="17.6983885">
        <ele>24.1703</ele>
        <time>2013-05-26T14:11:48Z</time>
      </trkpt>
      <trkpt lat="59.8935109" lon="17.6983148">
        <ele>23.6896</ele>
        <time>2013-05-26T14:11:49Z</time>
      </trkpt>
      <trkpt lat="59.8935394" lon="17.6982378">
        <ele>23.209</ele>
        <time>2013-05-26T14:11:50Z</time>
      </trkpt>
      <trkpt lat="59.8935687" lon="17.6981592">
        <ele>23.209</ele>
        <time>2013-05-26T14:11:51Z</time>
      </trkpt>
      <trkpt lat="59.8935958" lon="17.6980765">
        <ele>22.7283</ele>
        <time>2013-05-26T14:11:52Z</time>
      </trkpt>
      <trkpt lat="59.8936197" lon="17.6979881">
        <ele>22.7283</ele>
        <time>2013-05-26T14:11:53Z</time>
      </trkpt>
      <trkpt lat="59.8936414" lon="17.6978919">
        <ele>22.2476</ele>
        <time>2013-05-26T14:11:54Z</time>
      </trkpt>
      <trkpt lat="59.8936618" lon="17.6977906">
        <ele>22.2476</ele>
        <time>2013-05-26T14:11:55Z</time>
      </trkpt>
      <trkpt lat="59.8936829" lon="17.6976859">
        <ele>22.2476</ele>
        <time>2013-05-26T14:11:56Z</time>
      </trkpt>
      <trkpt lat="59.8937026" lon="17.6975768">
        <ele>22.7283</ele>
        <time>2013-05-26T14:11:57Z</time>
      </trkpt>
      <trkpt lat="59.8937208" lon="17.6974649">
        <ele>22.7283</ele>
        <time>2013-05-26T14:11:58Z</time>
      </trkpt>
      <trkpt lat="59.8937369" lon="17.697349">
        <ele>23.209</ele>
        <time>2013-05-26T14:11:59Z</time>
      </trkpt>
      <trkpt lat="59.8937504" lon="17.6972291">
        <ele>23.6896</ele>
        <time>2013-05-26T14:12:00Z</time>
      </trkpt>
      <trkpt lat="59.8937618" lon="17.6971055">
        <ele>23.6896</ele>
        <time>2013-05-26T14:12:01Z</time>
      </trkpt>
      <trkpt lat="59.8937717" lon="17.6969812">
        <ele>24.1703</ele>
        <time>2013-05-26T14:12:02Z</time>
      </trkpt>
      <trkpt lat="59.8937803" lon="17.6968567">
        <ele>24.651</ele>
        <time>2013-05-26T14:12:03Z</time>
      </trkpt>
      <trkpt lat="59.8937849" lon="17.6967313">
        <ele>24.651</ele>
        <time>2013-05-26T14:12:04Z</time>
      </trkpt>
      <trkpt lat="59.8937855" lon="17.696604">
        <ele>25.1317</ele>
        <time>2013-05-26T14:12:05Z</time>
      </trkpt>
      <trkpt lat="59.8937851" lon="17.6964764">
        <ele>25.1317</ele>
        <time>2013-05-26T14:12:06Z</time>
      </trkpt>
      <trkpt lat="59.8937881" lon="17.6963542">
        <ele>25.1317</ele>
        <time>2013-05-26T14:12:07Z</time>
      </trkpt>
      <trkpt lat="59.8937942" lon="17.6962319">
        <ele>25.1317</ele>
        <time>2013-05-26T14:12:08Z</time>
      </trkpt>
      <trkpt lat="59.8938042" lon="17.6961072">
        <ele>25.1317</ele>
        <time>2013-05-26T14:12:09Z</time>
      </trkpt>
      <trkpt lat="59.8938083" lon="17.6959756">
        <ele>25.1317</ele>
        <time>2013-05-26T14:12:10Z</time>
      </trkpt>
      <trkpt lat="59.8938097" lon="17.6958389">
        <ele>24.651</ele>
        <time>2013-05-26T14:12:11Z</time>
      </trkpt>
      <trkpt lat="59.8938115" lon="17.695699">
        <ele>24.1703</ele>
        <time>2013-05-26T14:12:12Z</time>
      </trkpt>
      <trkpt lat="59.8938147" lon="17.6955556">
        <ele>23.6896</ele>
        <time>2013-05-26T14:12:13Z</time>
      </trkpt>
      <trkpt lat="59.8938177" lon="17.6954088">
        <ele>23.209</ele>
        <time>2013-05-26T14:12:14Z</time>
      </trkpt>
      <trkpt lat="59.8938213" lon="17.6952599">
        <ele>22.7283</ele>
        <time>2013-05-26T14:12:15Z</time>
      </trkpt>
      <trkpt lat="59.893824" lon="17.6951117">
        <ele>22.7283</ele>
        <time>2013-05-26T14:12:16Z</time>
      </trkpt>
      <trkpt lat="59.8938259" lon="17.694965">
        <ele>22.2476</ele>
        <time>2013-05-26T14:12:17Z</time>
      </trkpt>
      <trkpt lat="59.8938276" lon="17.6948194">
        <ele>22.2476</ele>
        <time>2013-05-26T14:12:18Z</time>
      </trkpt>
      <trkpt lat="59.8938294" lon="17.694677">
        <ele>22.2476</ele>
        <time>2013-05-26T14:12:19Z</time>
      </trkpt>
      <trkpt lat="59.8938317" lon="17.6945375">
        <ele>21.767</ele>
        <time>2013-05-26T14:12:20Z</time>
      </trkpt>
      <trkpt lat="59.8938352" lon="17.6944004">
        <ele>21.767</ele>
        <time>2013-05-26T14:12:21Z</time>
      </trkpt>
      <trkpt lat="59.8938382" lon="17.6942657">
        <ele>21.767</ele>
        <time>2013-05-26T14:12:22Z</time>
      </trkpt>
      <trkpt lat="59.8938408" lon="17.6941352">
        <ele>21.767</ele>
        <time>2013-05-26T14:12:23Z</time>
      </trkpt>
      <trkpt lat="59.8938434" lon="17.6940085">
        <ele>21.767</ele>
        <time>2013-05-26T14:12:24Z</time>
      </trkpt>
      <trkpt lat="59.8938457" lon="17.6938843">
        <ele>21.767</ele>
        <time>2013-05-26T14:12:25Z</time>
      </trkpt>
      <trkpt lat="59.8938488" lon="17.6937601">
        <ele>21.767</ele>
        <time>2013-05-26T14:12:26Z</time>
      </trkpt>
      <trkpt lat="59.8938522" lon="17.6936353">
        <ele>22.2476</ele>
        <time>2013-05-26T14:12:27Z</time>
      </trkpt>
      <trkpt lat="59.8938545" lon="17.6935071">
        <ele>22.2476</ele>
        <time>2013-05-26T14:12:28Z</time>
      </trkpt>
      <trkpt lat="59.8938581" lon="17.6933756">
        <ele>22.2476</ele>
        <time>2013-05-26T14:12:29Z</time>
      </trkpt>
      <trkpt lat="59.8938623" lon="17.6932437">
        <ele>22.2476</ele>
        <time>2013-05-26T14:12:30Z</time>
      </trkpt>
      <trkpt lat="59.8938657" lon="17.6931152">
        <ele>22.2476</ele>
        <time>2013-05-26T14:12:31Z</time>
      </trkpt>
      <trkpt lat="59.893868" lon="17.6929892">
        <ele>22.2476</ele>
        <time>2013-05-26T14:12:32Z</time>
      </trkpt>
      <trkpt lat="59.8938711" lon="17.6928658">
        <ele>22.2476</ele>
        <time>2013-05-26T14:12:33Z</time>
      </trkpt>
      <trkpt lat="59.8938731" lon="17.6927453">
        <ele>22.2476</ele>
        <time>2013-05-26T14:12:34Z</time>
      </trkpt>
      <trkpt lat="59.8938755" lon="17.6926281">
        <ele>22.2476</ele>
        <time>2013-05-26T14:12:35Z</time>
      </trkpt>
      <trkpt lat="59.8938791" lon="17.6925121">
        <ele>22.2476</ele>
        <time>2013-05-26T14:12:36Z</time>
      </trkpt>
      <trkpt lat="59.8938823" lon="17.6923936">
        <ele>22.2476</ele>
        <time>2013-05-26T14:12:37Z</time>
      </trkpt>
      <trkpt lat="59.8938818" lon="17.6922739">
        <ele>22.2476</ele>
        <time>2013-05-26T14:12:38Z</time>
      </trkpt>
      <trkpt lat="59.8938794" lon="17.6921574">
        <ele>22.2476</ele>
        <time>2013-05-26T14:12:39Z</time>
      </trkpt>
      <trkpt lat="59.8938809" lon="17.6920422">
        <ele>22.7283</ele>
        <time>2013-05-26T14:12:40Z</time>
      </trkpt>
      <trkpt lat="59.8938835" lon="17.6919228">
        <ele>23.209</ele>
        <time>2013-05-26T14:12:41Z</time>
      </trkpt>
      <trkpt lat="59.893885" lon="17.6918031">
        <ele>23.209</ele>
        <time>2013-05-26T14:12:42Z</time>
      </trkpt>
      <trkpt lat="59.8938879" lon="17.6916744">
        <ele>24.1703</ele>
        <time>2013-05-26T14:12:43Z</time>
      </trkpt>
      <trkpt lat="59.893896" lon="17.6915496">
        <ele>24.651</ele>
        <time>2013-05-26T14:12:44Z</time>
      </trkpt>
      <trkpt lat="59.893913" lon="17.691428">
        <ele>25.6123</ele>
        <time>2013-05-26T14:12:45Z</time>
      </trkpt>
      <trkpt lat="59.8939161" lon="17.6913068">
        <ele>25.6123</ele>
        <time>2013-05-26T14:12:46Z</time>
      </trkpt>
      <trkpt lat="59.8939242" lon="17.6911914">
        <ele>25.6123</ele>
        <time>2013-05-26T14:12:47Z</time>
      </trkpt>
      <trkpt lat="59.8939322" lon="17.6910798">
        <ele>26.0929</ele>
        <time>2013-05-26T14:12:48Z</time>
      </trkpt>
      <trkpt lat="59.8939467" lon="17.6909752">
        <ele>26.5736</ele>
        <time>2013-05-26T14:12:49Z</time>
      </trkpt>
      <trkpt lat="59.8939559" lon="17.6908628">
        <ele>26.0929</ele>
        <time>2013-05-26T14:12:50Z</time>
      </trkpt>
      <trkpt lat="59.8939715" lon="17.6907565">
        <ele>26.0929</ele>
        <time>2013-05-26T14:12:51Z</time>
      </trkpt>
      <trkpt lat="59.8939913" lon="17.6906513">
        <ele>26.0929</ele>
        <time>2013-05-26T14:12:52Z</time>
      </trkpt>
      <trkpt lat="59.8940115" lon="17.6905412">
        <ele>26.0929</ele>
        <time>2013-05-26T14:12:53Z</time>
      </trkpt>
      <trkpt lat="59.8940332" lon="17.6904348">
        <ele>26.5736</ele>
        <time>2013-05-26T14:12:54Z</time>
      </trkpt>
      <trkpt lat="59.8940514" lon="17.6903293">
        <ele>27.0543</ele>
        <time>2013-05-26T14:12:55Z</time>
      </trkpt>
      <trkpt lat="59.8940674" lon="17.6902201">
        <ele>27.0543</ele>
        <time>2013-05-26T14:12:56Z</time>
      </trkpt>
      <trkpt lat="59.8940824" lon="17.6901173">
        <ele>27.0543</ele>
        <time>2013-05-26T14:12:57Z</time>
      </trkpt>
      <trkpt lat="59.8940995" lon="17.6900191">
        <ele>27.5349</ele>
        <time>2013-05-26T14:12:58Z</time>
      </trkpt>
      <trkpt lat="59.894114" lon="17.6899214">
        <ele>27.5349</ele>
        <time>2013-05-26T14:12:59Z</time>
      </trkpt>
      <trkpt lat="59.8941273" lon="17.6898202">
        <ele>28.0155</ele>
        <time>2013-05-26T14:13:00Z</time>
      </trkpt>
      <trkpt lat="59.8941398" lon="17.6897132">
        <ele>28.0155</ele>
        <time>2013-05-26T14:13:01Z</time>
      </trkpt>
      <trkpt lat="59.8941518" lon="17.6896052">
        <ele>28.4962</ele>
        <time>2013-05-26T14:13:02Z</time>
      </trkpt>
      <trkpt lat="59.8941656" lon="17.6894969">
        <ele>28.4962</ele>
        <time>2013-05-26T14:13:03Z</time>
      </trkpt>
      <trkpt lat="59.8941791" lon="17.689386">
        <ele>28.4962</ele>
        <time>2013-05-26T14:13:04Z</time>
      </trkpt>
      <trkpt lat="59.8941901" lon="17.6892726">
        <ele>28.4962</ele>
        <time>2013-05-26T14:13:05Z</time>
      </trkpt>
      <trkpt lat="59.8942" lon="17.6891576">
        <ele>28.4962</ele>
        <time>2013-05-26T14:13:06Z</time>
      </trkpt>
      <trkpt lat="59.8942114" lon="17.6890419">
        <ele>28.4962</ele>
        <time>2013-05-26T14:13:07Z</time>
      </trkpt>
      <trkpt lat="59.8942249" lon="17.6889262">
        <ele>28.4962</ele>
        <time>2013-05-26T14:13:08Z</time>
      </trkpt>
      <trkpt lat="59.89424" lon="17.6888105">
        <ele>28.4962</ele>
        <time>2013-05-26T14:13:09Z</time>
      </trkpt>
      <trkpt lat="59.8942558" lon="17.6886945">
        <ele>28.4962</ele>
        <time>2013-05-26T14:13:10Z</time>
      </trkpt>
      <trkpt lat="59.8942716" lon="17.6885768">
        <ele>28.0155</ele>
        <time>2013-05-26T14:13:11Z</time>
      </trkpt>
      <trkpt lat="59.8942908" lon="17.6884572">
        <ele>28.0155</ele>
        <time>2013-05-26T14:13:12Z</time>
      </trkpt>
      <trkpt lat="59.894314" lon="17.6883365">
        <ele>27.5349</ele>
        <time>2013-05-26T14:13:13Z</time>
      </trkpt>
      <trkpt lat="59.8943397" lon="17.6882151">
        <ele>26.5736</ele>
        <time>2013-05-26T14:13:14Z</time>
      </trkpt>
      <trkpt lat="59.8943672" lon="17.6880945">
        <ele>25.6123</ele>
        <time>2013-05-26T14:13:15Z</time>
      </trkpt>
      <trkpt lat="59.8943959" lon="17.6879755">
        <ele>25.6123</ele>
        <time>2013-05-26T14:13:16Z</time>
      </trkpt>
      <trkpt lat="59.8944237" lon="17.6878553">
        <ele>24.651</ele>
        <time>2013-05-26T14:13:17Z</time>
      </trkpt>
      <trkpt lat="59.8944516" lon="17.687737">
        <ele>23.6896</ele>
        <time>2013-05-26T14:13:18Z</time>
      </trkpt>
      <trkpt lat="59.8944796" lon="17.6876185">
        <ele>23.209</ele>
        <time>2013-05-26T14:13:19Z</time>
      </trkpt>
      <trkpt lat="59.8945072" lon="17.6874964">
        <ele>22.7283</ele>
        <time>2013-05-26T14:13:20Z</time>
      </trkpt>
      <trkpt lat="59.8945326" lon="17.6873718">
        <ele>21.767</ele>
        <time>2013-05-26T14:13:21Z</time>
      </trkpt>
      <trkpt lat="59.8945558" lon="17.6872467">
        <ele>21.2864</ele>
        <time>2013-05-26T14:13:22Z</time>
      </trkpt>
      <trkpt lat="59.894579" lon="17.6871233">
        <ele>21.2864</ele>
        <time>2013-05-26T14:13:23Z</time>
      </trkpt>
      <trkpt lat="59.8946015" lon="17.6870022">
        <ele>21.2864</ele>
        <time>2013-05-26T14:13:24Z</time>
      </trkpt>
      <trkpt lat="59.8946226" lon="17.6868821">
        <ele>21.2864</ele>
        <time>2013-05-26T14:13:25Z</time>
      </trkpt>
      <trkpt lat="59.894642" lon="17.6867632">
        <ele>21.2864</ele>
        <time>2013-05-26T14:13:26Z</time>
      </trkpt>
      <trkpt lat="59.894661" lon="17.6866451">
        <ele>21.2864</ele>
        <time>2013-05-26T14:13:27Z</time>
      </trkpt>
      <trkpt lat="59.8946784" lon="17.6865235">
        <ele>21.2864</ele>
        <time>2013-05-26T14:13:28Z</time>
      </trkpt>
      <trkpt lat="59.8946947" lon="17.6863971">
        <ele>21.2864</ele>
        <time>2013-05-26T14:13:29Z</time>
      </trkpt>
      <trkpt lat="59.8947097" lon="17.6862674">
        <ele>21.2864</ele>
        <time>2013-05-26T14:13:30Z</time>
      </trkpt>
      <trkpt lat="59.8947226" lon="17.6861335">
        <ele>21.2864</ele>
        <time>2013-05-26T14:13:31Z</time>
      </trkpt>
      <trkpt lat="59.8947351" lon="17.6859961">
        <ele>21.767</ele>
        <time>2013-05-26T14:13:32Z</time>
      </trkpt>
      <trkpt lat="59.894746" lon="17.6858584">
        <ele>21.767</ele>
        <time>2013-05-26T14:13:33Z</time>
      </trkpt>
      <trkpt lat="59.8947544" lon="17.6857214">
        <ele>22.2476</ele>
        <time>2013-05-26T14:13:34Z</time>
      </trkpt>
      <trkpt lat="59.8947629" lon="17.6855863">
        <ele>21.767</ele>
        <time>2013-05-26T14:13:35Z</time>
      </trkpt>
      <trkpt lat="59.8947682" lon="17.6854523">
        <ele>22.2476</ele>
        <time>2013-05-26T14:13:36Z</time>
      </trkpt>
      <trkpt lat="59.894772" lon="17.6853207">
        <ele>22.7283</ele>
        <time>2013-05-26T14:13:37Z</time>
      </trkpt>
      <trkpt lat="59.8947769" lon="17.6851908">
        <ele>22.7283</ele>
        <time>2013-05-26T14:13:38Z</time>
      </trkpt>
      <trkpt lat="59.8947848" lon="17.6850625">
        <ele>22.7283</ele>
        <time>2013-05-26T14:13:39Z</time>
      </trkpt>
      <trkpt lat="59.8947942" lon="17.6849352">
        <ele>23.209</ele>
        <time>2013-05-26T14:13:40Z</time>
      </trkpt>
      <trkpt lat="59.8948045" lon="17.6848106">
        <ele>23.209</ele>
        <time>2013-05-26T14:13:41Z</time>
      </trkpt>
      <trkpt lat="59.8948164" lon="17.6846842">
        <ele>23.6896</ele>
        <time>2013-05-26T14:13:42Z</time>
      </trkpt>
      <trkpt lat="59.8948305" lon="17.6845628">
        <ele>23.6896</ele>
        <time>2013-05-26T14:13:43Z</time>
      </trkpt>
      <trkpt lat="59.894844" lon="17.6844399">
        <ele>24.1703</ele>
        <time>2013-05-26T14:13:44Z</time>
      </trkpt>
      <trkpt lat="59.8948579" lon="17.6843195">
        <ele>25.1317</ele>
        <time>2013-05-26T14:13:45Z</time>
      </trkpt>
      <trkpt lat="59.8948734" lon="17.6841992">
        <ele>25.6123</ele>
        <time>2013-05-26T14:13:46Z</time>
      </trkpt>
      <trkpt lat="59.8948891" lon="17.6840698">
        <ele>26.0929</ele>
        <time>2013-05-26T14:13:47Z</time>
      </trkpt>
      <trkpt lat="59.8949071" lon="17.6838873">
        <ele>26.0929</ele>
        <time>2013-05-26T14:13:48Z</time>
      </trkpt>
      <trkpt lat="59.8949351" lon="17.6837549">
        <ele>26.0929</ele>
        <time>2013-05-26T14:13:49Z</time>
      </trkpt>
      <trkpt lat="59.8949646" lon="17.6836406">
        <ele>26.0929</ele>
        <time>2013-05-26T14:13:50Z</time>
      </trkpt>
      <trkpt lat="59.8950108" lon="17.683464">
        <ele>26.5736</ele>
        <time>2013-05-26T14:13:51Z</time>
      </trkpt>
      <trkpt lat="59.8950868" lon="17.6833729">
        <ele>26.0929</ele>
        <time>2013-05-26T14:13:52Z</time>
      </trkpt>
      <trkpt lat="59.8951449" lon="17.683288">
        <ele>26.0929</ele>
        <time>2013-05-26T14:13:53Z</time>
      </trkpt>
      <trkpt lat="59.8951998" lon="17.6832179">
        <ele>26.0929</ele>
        <time>2013-05-26T14:13:54Z</time>
      </trkpt>
      <trkpt lat="59.8952598" lon="17.6831768">
        <ele>26.0929</ele>
        <time>2013-05-26T14:13:55Z</time>
      </trkpt>
      <trkpt lat="59.8953116" lon="17.6831326">
        <ele>27.5349</ele>
        <time>2013-05-26T14:13:56Z</time>
      </trkpt>
      <trkpt lat="59.8953594" lon="17.6830895">
        <ele>28.0155</ele>
        <time>2013-05-26T14:13:57Z</time>
      </trkpt>
      <trkpt lat="59.8954142" lon="17.6830192">
        <ele>29.4575</ele>
        <time>2013-05-26T14:13:58Z</time>
      </trkpt>
      <trkpt lat="59.895471" lon="17.6829487">
        <ele>29.9381</ele>
        <time>2013-05-26T14:13:59Z</time>
      </trkpt>
      <trkpt lat="59.8955182" lon="17.6828822">
        <ele>29.9381</ele>
        <time>2013-05-26T14:14:00Z</time>
      </trkpt>
      <trkpt lat="59.895571" lon="17.6828129">
        <ele>28.9769</ele>
        <time>2013-05-26T14:14:01Z</time>
      </trkpt>
      <trkpt lat="59.8956187" lon="17.6827574">
        <ele>28.4962</ele>
        <time>2013-05-26T14:14:02Z</time>
      </trkpt>
      <trkpt lat="59.8956694" lon="17.6827068">
        <ele>28.0155</ele>
        <time>2013-05-26T14:14:03Z</time>
      </trkpt>
      <trkpt lat="59.8957275" lon="17.6826695">
        <ele>28.4962</ele>
        <time>2013-05-26T14:14:04Z</time>
      </trkpt>
      <trkpt lat="59.895787" lon="17.6826444">
        <ele>28.9769</ele>
        <time>2013-05-26T14:14:05Z</time>
      </trkpt>
      <trkpt lat="59.8958483" lon="17.6826172">
        <ele>29.4575</ele>
        <time>2013-05-26T14:14:06Z</time>
      </trkpt>
      <trkpt lat="59.895907" lon="17.6825742">
        <ele>29.4575</ele>
        <time>2013-05-26T14:14:07Z</time>
      </trkpt>
      <trkpt lat="59.8959654" lon="17.6825359">
        <ele>28.9769</ele>
        <time>2013-05-26T14:14:08Z</time>
      </trkpt>
      <trkpt lat="59.8960281" lon="17.6824897">
        <ele>28.9769</ele>
        <time>2013-05-26T14:14:09Z</time>
      </trkpt>
      <trkpt lat="59.8960907" lon="17.6824318">
        <ele>28.9769</ele>
        <time>2013-05-26T14:14:10Z</time>
      </trkpt>
      <trkpt lat="59.8961528" lon="17.6823666">
        <ele>29.4575</ele>
        <time>2013-05-26T14:14:11Z</time>
      </trkpt>
      <trkpt lat="59.8962172" lon="17.6822992">
        <ele>29.9381</ele>
        <time>2013-05-26T14:14:12Z</time>
      </trkpt>
      <trkpt lat="59.8962784" lon="17.6822239">
        <ele>29.9381</ele>
        <time>2013-05-26T14:14:13Z</time>
      </trkpt>
      <trkpt lat="59.8963416" lon="17.6821385">
        <ele>30.8995</ele>
        <time>2013-05-26T14:14:14Z</time>
      </trkpt>
      <trkpt lat="59.8964067" lon="17.6820634">
        <ele>30.4188</ele>
        <time>2013-05-26T14:14:15Z</time>
      </trkpt>
      <trkpt lat="59.8964694" lon="17.6819831">
        <ele>29.4575</ele>
        <time>2013-05-26T14:14:16Z</time>
      </trkpt>
      <trkpt lat="59.8965305" lon="17.6819019">
        <ele>28.9769</ele>
        <time>2013-05-26T14:14:17Z</time>
      </trkpt>
      <trkpt lat="59.8965937" lon="17.6818308">
        <ele>28.9769</ele>
        <time>2013-05-26T14:14:18Z</time>
      </trkpt>
      <trkpt lat="59.8966533" lon="17.681759">
        <ele>28.9769</ele>
        <time>2013-05-26T14:14:19Z</time>
      </trkpt>
      <trkpt lat="59.8967095" lon="17.6816835">
        <ele>28.4962</ele>
        <time>2013-05-26T14:14:20Z</time>
      </trkpt>
      <trkpt lat="59.8967625" lon="17.6816025">
        <ele>28.0155</ele>
        <time>2013-05-26T14:14:21Z</time>
      </trkpt>
      <trkpt lat="59.8968134" lon="17.6815195">
        <ele>28.0155</ele>
        <time>2013-05-26T14:14:22Z</time>
      </trkpt>
      <trkpt lat="59.8968625" lon="17.6814324">
        <ele>27.5349</ele>
        <time>2013-05-26T14:14:23Z</time>
      </trkpt>
      <trkpt lat="59.8969111" lon="17.6813445">
        <ele>27.5349</ele>
        <time>2013-05-26T14:14:24Z</time>
      </trkpt>
      <trkpt lat="59.8969588" lon="17.6812543">
        <ele>27.0543</ele>
        <time>2013-05-26T14:14:25Z</time>
      </trkpt>
      <trkpt lat="59.8970055" lon="17.6811611">
        <ele>27.0543</ele>
        <time>2013-05-26T14:14:26Z</time>
      </trkpt>
      <trkpt lat="59.8970502" lon="17.6810642">
        <ele>27.0543</ele>
        <time>2013-05-26T14:14:27Z</time>
      </trkpt>
      <trkpt lat="59.897093" lon="17.6809631">
        <ele>26.5736</ele>
        <time>2013-05-26T14:14:28Z</time>
      </trkpt>
      <trkpt lat="59.8971343" lon="17.6808592">
        <ele>26.5736</ele>
        <time>2013-05-26T14:14:29Z</time>
      </trkpt>
      <trkpt lat="59.8971755" lon="17.6807566">
        <ele>26.0929</ele>
        <time>2013-05-26T14:14:30Z</time>
      </trkpt>
      <trkpt lat="59.8972158" lon="17.6806566">
        <ele>26.5736</ele>
        <time>2013-05-26T14:14:31Z</time>
      </trkpt>
      <trkpt lat="59.8972522" lon="17.6805555">
        <ele>26.0929</ele>
        <time>2013-05-26T14:14:32Z</time>
      </trkpt>
      <trkpt lat="59.8972873" lon="17.6804522">
        <ele>26.0929</ele>
        <time>2013-05-26T14:14:33Z</time>
      </trkpt>
      <trkpt lat="59.897324" lon="17.6803495">
        <ele>26.0929</ele>
        <time>2013-05-26T14:14:34Z</time>
      </trkpt>
      <trkpt lat="59.897361" lon="17.6802482">
        <ele>25.6123</ele>
        <time>2013-05-26T14:14:35Z</time>
      </trkpt>
      <trkpt lat="59.8973977" lon="17.6801502">
        <ele>25.6123</ele>
        <time>2013-05-26T14:14:36Z</time>
      </trkpt>
      <trkpt lat="59.8974345" lon="17.6800572">
        <ele>25.6123</ele>
        <time>2013-05-26T14:14:37Z</time>
      </trkpt>
      <trkpt lat="59.8974707" lon="17.6799686">
        <ele>25.1317</ele>
        <time>2013-05-26T14:14:38Z</time>
      </trkpt>
      <trkpt lat="59.8975048" lon="17.6798806">
        <ele>25.1317</ele>
        <time>2013-05-26T14:14:39Z</time>
      </trkpt>
      <trkpt lat="59.8975379" lon="17.6797921">
        <ele>25.1317</ele>
        <time>2013-05-26T14:14:40Z</time>
      </trkpt>
      <trkpt lat="59.8975716" lon="17.679703">
        <ele>25.1317</ele>
        <time>2013-05-26T14:14:41Z</time>
      </trkpt>
      <trkpt lat="59.8976052" lon="17.6796121">
        <ele>25.1317</ele>
        <time>2013-05-26T14:14:42Z</time>
      </trkpt>
      <trkpt lat="59.8976383" lon="17.6795199">
        <ele>25.1317</ele>
        <time>2013-05-26T14:14:43Z</time>
      </trkpt>
      <trkpt lat="59.8976715" lon="17.6794298">
        <ele>24.651</ele>
        <time>2013-05-26T14:14:44Z</time>
      </trkpt>
      <trkpt lat="59.8977048" lon="17.6793424">
        <ele>24.1703</ele>
        <time>2013-05-26T14:14:45Z</time>
      </trkpt>
      <trkpt lat="59.8977381" lon="17.6792561">
        <ele>24.1703</ele>
        <time>2013-05-26T14:14:46Z</time>
      </trkpt>
      <trkpt lat="59.8977722" lon="17.6791686">
        <ele>23.6896</ele>
        <time>2013-05-26T14:14:47Z</time>
      </trkpt>
      <trkpt lat="59.8978068" lon="17.6790779">
        <ele>23.209</ele>
        <time>2013-05-26T14:14:48Z</time>
      </trkpt>
      <trkpt lat="59.8978416" lon="17.6789859">
        <ele>22.7283</ele>
        <time>2013-05-26T14:14:49Z</time>
      </trkpt>
      <trkpt lat="59.8978766" lon="17.6788984">
        <ele>22.2476</ele>
        <time>2013-05-26T14:14:50Z</time>
      </trkpt>
      <trkpt lat="59.897911" lon="17.6788109">
        <ele>21.767</ele>
        <time>2013-05-26T14:14:51Z</time>
      </trkpt>
      <trkpt lat="59.8979443" lon="17.6787211">
        <ele>21.767</ele>
        <time>2013-05-26T14:14:52Z</time>
      </trkpt>
      <trkpt lat="59.8979773" lon="17.6786291">
        <ele>21.2864</ele>
        <time>2013-05-26T14:14:53Z</time>
      </trkpt>
      <trkpt lat="59.8980094" lon="17.6785342">
        <ele>20.8057</ele>
        <time>2013-05-26T14:14:54Z</time>
      </trkpt>
      <trkpt lat="59.8980416" lon="17.6784351">
        <ele>20.8057</ele>
        <time>2013-05-26T14:14:55Z</time>
      </trkpt>
      <trkpt lat="59.8980738" lon="17.6783317">
        <ele>20.325</ele>
        <time>2013-05-26T14:14:56Z</time>
      </trkpt>
      <trkpt lat="59.8981057" lon="17.6782243">
        <ele>19.8444</ele>
        <time>2013-05-26T14:14:57Z</time>
      </trkpt>
      <trkpt lat="59.8981369" lon="17.6781127">
        <ele>19.8444</ele>
        <time>2013-05-26T14:14:58Z</time>
      </trkpt>
      <trkpt lat="59.8981663" lon="17.6779964">
        <ele>19.3638</ele>
        <time>2013-05-26T14:14:59Z</time>
      </trkpt>
      <trkpt lat="59.8981937" lon="17.6778742">
        <ele>18.8831</ele>
        <time>2013-05-26T14:15:00Z</time>
      </trkpt>
      <trkpt lat="59.8982198" lon="17.6777467">
        <ele>18.8831</ele>
        <time>2013-05-26T14:15:01Z</time>
      </trkpt>
      <trkpt lat="59.898244" lon="17.677617">
        <ele>18.8831</ele>
        <time>2013-05-26T14:15:02Z</time>
      </trkpt>
      <trkpt lat="59.8982653" lon="17.6774878">
        <ele>18.8831</ele>
        <time>2013-05-26T14:15:03Z</time>
      </trkpt>
      <trkpt lat="59.8982855" lon="17.6773615">
        <ele>18.8831</ele>
        <time>2013-05-26T14:15:04Z</time>
      </trkpt>
      <trkpt lat="59.8983045" lon="17.6772372">
        <ele>19.3638</ele>
        <time>2013-05-26T14:15:05Z</time>
      </trkpt>
      <trkpt lat="59.8983208" lon="17.6771169">
        <ele>20.325</ele>
        <time>2013-05-26T14:15:06Z</time>
      </trkpt>
      <trkpt lat="59.8983328" lon="17.6770004">
        <ele>20.8057</ele>
        <time>2013-05-26T14:15:07Z</time>
      </trkpt>
      <trkpt lat="59.8983419" lon="17.6768906">
        <ele>21.2864</ele>
        <time>2013-05-26T14:15:08Z</time>
      </trkpt>
      <trkpt lat="59.8983518" lon="17.6767845">
        <ele>22.2476</ele>
        <time>2013-05-26T14:15:09Z</time>
      </trkpt>
      <trkpt lat="59.8983641" lon="17.6766776">
        <ele>22.7283</ele>
        <time>2013-05-26T14:15:10Z</time>
      </trkpt>
      <trkpt lat="59.8983762" lon="17.6765689">
        <ele>23.209</ele>
        <time>2013-05-26T14:15:11Z</time>
      </trkpt>
      <trkpt lat="59.8983866" lon="17.6764569">
        <ele>24.1703</ele>
        <time>2013-05-26T14:15:12Z</time>
      </trkpt>
      <trkpt lat="59.8983952" lon="17.6763409">
        <ele>24.651</ele>
        <time>2013-05-26T14:15:13Z</time>
      </trkpt>
      <trkpt lat="59.8984027" lon="17.6762229">
        <ele>25.1317</ele>
        <time>2013-05-26T14:15:14Z</time>
      </trkpt>
      <trkpt lat="59.8984069" lon="17.6760991">
        <ele>26.0929</ele>
        <time>2013-05-26T14:15:15Z</time>
      </trkpt>
      <trkpt lat="59.8984093" lon="17.6759759">
        <ele>27.0543</ele>
        <time>2013-05-26T14:15:16Z</time>
      </trkpt>
      <trkpt lat="59.898413" lon="17.675853">
        <ele>27.5349</ele>
        <time>2013-05-26T14:15:17Z</time>
      </trkpt>
      <trkpt lat="59.8984188" lon="17.6757318">
        <ele>28.4962</ele>
        <time>2013-05-26T14:15:18Z</time>
      </trkpt>
      <trkpt lat="59.8984254" lon="17.6756097">
        <ele>28.9769</ele>
        <time>2013-05-26T14:15:19Z</time>
      </trkpt>
      <trkpt lat="59.8984361" lon="17.6754916">
        <ele>29.4575</ele>
        <time>2013-05-26T14:15:20Z</time>
      </trkpt>
      <trkpt lat="59.8984533" lon="17.6753801">
        <ele>28.9769</ele>
        <time>2013-05-26T14:15:21Z</time>
      </trkpt>
      <trkpt lat="59.8984725" lon="17.6752706">
        <ele>28.9769</ele>
        <time>2013-05-26T14:15:22Z</time>
      </trkpt>
      <trkpt lat="59.8984953" lon="17.675166">
        <ele>28.4962</ele>
        <time>2013-05-26T14:15:23Z</time>
      </trkpt>
      <trkpt lat="59.8985222" lon="17.6750682">
        <ele>28.4962</ele>
        <time>2013-05-26T14:15:24Z</time>
      </trkpt>
      <trkpt lat="59.8985535" lon="17.6749795">
        <ele>28.9769</ele>
        <time>2013-05-26T14:15:25Z</time>
      </trkpt>
      <trkpt lat="59.8985875" lon="17.6749005">
        <ele>28.9769</ele>
        <time>2013-05-26T14:15:26Z</time>
      </trkpt>
      <trkpt lat="59.8986223" lon="17.6748272">
        <ele>28.9769</ele>
        <time>2013-05-26T14:15:27Z</time>
      </trkpt>
      <trkpt lat="59.8986604" lon="17.6747702">
        <ele>28.9769</ele>
        <time>2013-05-26T14:15:28Z</time>
      </trkpt>
      <trkpt lat="59.8986982" lon="17.6747207">
        <ele>28.4962</ele>
        <time>2013-05-26T14:15:29Z</time>
      </trkpt>
      <trkpt lat="59.8987339" lon="17.674674">
        <ele>28.9769</ele>
        <time>2013-05-26T14:15:30Z</time>
      </trkpt>
      <trkpt lat="59.8987697" lon="17.6746296">
        <ele>28.9769</ele>
        <time>2013-05-26T14:15:31Z</time>
      </trkpt>
      <trkpt lat="59.898805" lon="17.6745894">
        <ele>28.9769</ele>
        <time>2013-05-26T14:15:32Z</time>
      </trkpt>
      <trkpt lat="59.8988388" lon="17.6745637">
        <ele>28.4962</ele>
        <time>2013-05-26T14:15:33Z</time>
      </trkpt>
      <trkpt lat="59.8988662" lon="17.674531">
        <ele>28.9769</ele>
        <time>2013-05-26T14:15:34Z</time>
      </trkpt>
      <trkpt lat="59.8988981" lon="17.6744996">
        <ele>28.9769</ele>
        <time>2013-05-26T14:15:35Z</time>
      </trkpt>
      <trkpt lat="59.898934" lon="17.6744476">
        <ele>29.4575</ele>
        <time>2013-05-26T14:15:36Z</time>
      </trkpt>
      <trkpt lat="59.8989696" lon="17.6743931">
        <ele>29.9381</ele>
        <time>2013-05-26T14:15:37Z</time>
      </trkpt>
      <trkpt lat="59.8990015" lon="17.6743288">
        <ele>29.4575</ele>
        <time>2013-05-26T14:15:38Z</time>
      </trkpt>
      <trkpt lat="59.8990329" lon="17.6742451">
        <ele>28.9769</ele>
        <time>2013-05-26T14:15:39Z</time>
      </trkpt>
      <trkpt lat="59.8990578" lon="17.6741427">
        <ele>28.9769</ele>
        <time>2013-05-26T14:15:40Z</time>
      </trkpt>
      <trkpt lat="59.8990843" lon="17.6740327">
        <ele>29.4575</ele>
        <time>2013-05-26T14:15:41Z</time>
      </trkpt>
      <trkpt lat="59.8991106" lon="17.673929">
        <ele>30.4188</ele>
        <time>2013-05-26T14:15:42Z</time>
      </trkpt>
      <trkpt lat="59.8991298" lon="17.6738267">
        <ele>30.8995</ele>
        <time>2013-05-26T14:15:43Z</time>
      </trkpt>
      <trkpt lat="59.8991418" lon="17.6737191">
        <ele>31.8607</ele>
        <time>2013-05-26T14:15:44Z</time>
      </trkpt>
      <trkpt lat="59.8991517" lon="17.6736168">
        <ele>32.3416</ele>
        <time>2013-05-26T14:15:45Z</time>
      </trkpt>
      <trkpt lat="59.8991616" lon="17.673522">
        <ele>32.8223</ele>
        <time>2013-05-26T14:15:46Z</time>
      </trkpt>
      <trkpt lat="59.8991676" lon="17.6734245">
        <ele>32.8223</ele>
        <time>2013-05-26T14:15:47Z</time>
      </trkpt>
      <trkpt lat="59.8991703" lon="17.673321">
        <ele>33.3029</ele>
        <time>2013-05-26T14:15:48Z</time>
      </trkpt>
      <trkpt lat="59.8991766" lon="17.6732162">
        <ele>33.7834</ele>
        <time>2013-05-26T14:15:49Z</time>
      </trkpt>
      <trkpt lat="59.8991826" lon="17.6731092">
        <ele>33.7834</ele>
        <time>2013-05-26T14:15:50Z</time>
      </trkpt>
      <trkpt lat="59.8991921" lon="17.6729967">
        <ele>33.7834</ele>
        <time>2013-05-26T14:15:51Z</time>
      </trkpt>
      <trkpt lat="59.8992051" lon="17.6728919">
        <ele>33.3029</ele>
        <time>2013-05-26T14:15:52Z</time>
      </trkpt>
      <trkpt lat="59.8992219" lon="17.6727859">
        <ele>32.3416</ele>
        <time>2013-05-26T14:15:53Z</time>
      </trkpt>
      <trkpt lat="59.8992414" lon="17.6726779">
        <ele>31.3801</ele>
        <time>2013-05-26T14:15:54Z</time>
      </trkpt>
      <trkpt lat="59.8992599" lon="17.6725695">
        <ele>30.8995</ele>
        <time>2013-05-26T14:15:55Z</time>
      </trkpt>
      <trkpt lat="59.8992827" lon="17.6724693">
        <ele>30.4188</ele>
        <time>2013-05-26T14:15:56Z</time>
      </trkpt>
      <trkpt lat="59.8993048" lon="17.6723736">
        <ele>29.9381</ele>
        <time>2013-05-26T14:15:57Z</time>
      </trkpt>
      <trkpt lat="59.8993279" lon="17.6722763">
        <ele>30.8995</ele>
        <time>2013-05-26T14:15:58Z</time>
      </trkpt>
      <trkpt lat="59.8993464" lon="17.6721673">
        <ele>31.3801</ele>
        <time>2013-05-26T14:15:59Z</time>
      </trkpt>
      <trkpt lat="59.8993581" lon="17.6720431">
        <ele>31.8607</ele>
        <time>2013-05-26T14:16:00Z</time>
      </trkpt>
      <trkpt lat="59.8993623" lon="17.6719102">
        <ele>33.3029</ele>
        <time>2013-05-26T14:16:01Z</time>
      </trkpt>
      <trkpt lat="59.8993638" lon="17.6717799">
        <ele>32.8223</ele>
        <time>2013-05-26T14:16:02Z</time>
      </trkpt>
      <trkpt lat="59.8993682" lon="17.6716489">
        <ele>33.3029</ele>
        <time>2013-05-26T14:16:03Z</time>
      </trkpt>
      <trkpt lat="59.8993691" lon="17.6715138">
        <ele>33.3029</ele>
        <time>2013-05-26T14:16:04Z</time>
      </trkpt>
      <trkpt lat="59.8993666" lon="17.671381">
        <ele>33.3029</ele>
        <time>2013-05-26T14:16:05Z</time>
      </trkpt>
      <trkpt lat="59.899363" lon="17.6712527">
        <ele>33.7834</ele>
        <time>2013-05-26T14:16:06Z</time>
      </trkpt>
      <trkpt lat="59.8993599" lon="17.6711257">
        <ele>33.7834</ele>
        <time>2013-05-26T14:16:07Z</time>
      </trkpt>
      <trkpt lat="59.8993602" lon="17.670994">
        <ele>33.3029</ele>
        <time>2013-05-26T14:16:08Z</time>
      </trkpt>
      <trkpt lat="59.8993626" lon="17.6708692">
        <ele>33.3029</ele>
        <time>2013-05-26T14:16:09Z</time>
      </trkpt>
      <trkpt lat="59.899361" lon="17.670748">
        <ele>33.3029</ele>
        <time>2013-05-26T14:16:10Z</time>
      </trkpt>
      <trkpt lat="59.8993717" lon="17.6706424">
        <ele>33.3029</ele>
        <time>2013-05-26T14:16:11Z</time>
      </trkpt>
      <trkpt lat="59.8993867" lon="17.6705362">
        <ele>34.2642</ele>
        <time>2013-05-26T14:16:12Z</time>
      </trkpt>
      <trkpt lat="59.8994106" lon="17.6704322">
        <ele>34.2642</ele>
        <time>2013-05-26T14:16:13Z</time>
      </trkpt>
      <trkpt lat="59.8994443" lon="17.6703398">
        <ele>33.7834</ele>
        <time>2013-05-26T14:16:14Z</time>
      </trkpt>
      <trkpt lat="59.8994822" lon="17.6702611">
        <ele>34.7449</ele>
        <time>2013-05-26T14:16:15Z</time>
      </trkpt>
      <trkpt lat="59.8995302" lon="17.6702172">
        <ele>35.7061</ele>
        <time>2013-05-26T14:16:16Z</time>
      </trkpt>
      <trkpt lat="59.8995848" lon="17.670188">
        <ele>36.1868</ele>
        <time>2013-05-26T14:16:17Z</time>
      </trkpt>
      <trkpt lat="59.8996464" lon="17.6701637">
        <ele>37.1481</ele>
        <time>2013-05-26T14:16:18Z</time>
      </trkpt>
      <trkpt lat="59.8997036" lon="17.6701366">
        <ele>37.1481</ele>
        <time>2013-05-26T14:16:19Z</time>
      </trkpt>
      <trkpt lat="59.8997665" lon="17.6701107">
        <ele>38.1094</ele>
        <time>2013-05-26T14:16:20Z</time>
      </trkpt>
      <trkpt lat="59.8998252" lon="17.6700825">
        <ele>38.1094</ele>
        <time>2013-05-26T14:16:21Z</time>
      </trkpt>
      <trkpt lat="59.8998839" lon="17.6700504">
        <ele>38.5901</ele>
        <time>2013-05-26T14:16:22Z</time>
      </trkpt>
      <trkpt lat="59.8999369" lon="17.6700131">
        <ele>38.5901</ele>
        <time>2013-05-26T14:16:23Z</time>
      </trkpt>
      <trkpt lat="59.8999938" lon="17.6699767">
        <ele>37.6287</ele>
        <time>2013-05-26T14:16:24Z</time>
      </trkpt>
      <trkpt lat="59.9000555" lon="17.6699467">
        <ele>36.6675</ele>
        <time>2013-05-26T14:16:25Z</time>
      </trkpt>
      <trkpt lat="59.9001255" lon="17.6699192">
        <ele>37.1481</ele>
        <time>2013-05-26T14:16:26Z</time>
      </trkpt>
      <trkpt lat="59.9002002" lon="17.6698947">
        <ele>36.6675</ele>
        <time>2013-05-26T14:16:27Z</time>
      </trkpt>
      <trkpt lat="59.9002768" lon="17.6698719">
        <ele>36.1868</ele>
        <time>2013-05-26T14:16:28Z</time>
      </trkpt>
      <trkpt lat="59.9003523" lon="17.6698472">
        <ele>36.1868</ele>
        <time>2013-05-26T14:16:29Z</time>
      </trkpt>
      <trkpt lat="59.900426" lon="17.6698225">
        <ele>35.7061</ele>
        <time>2013-05-26T14:16:30Z</time>
      </trkpt>
      <trkpt lat="59.9004983" lon="17.6697999">
        <ele>36.1868</ele>
        <time>2013-05-26T14:16:31Z</time>
      </trkpt>
      <trkpt lat="59.9005667" lon="17.6697789">
        <ele>36.1868</ele>
        <time>2013-05-26T14:16:32Z</time>
      </trkpt>
      <trkpt lat="59.9006326" lon="17.6697576">
        <ele>36.1868</ele>
        <time>2013-05-26T14:16:33Z</time>
      </trkpt>
      <trkpt lat="59.9006879" lon="17.6697431">
        <ele>35.7061</ele>
        <time>2013-05-26T14:16:34Z</time>
      </trkpt>
      <trkpt lat="59.900743" lon="17.6697306">
        <ele>35.7061</ele>
        <time>2013-05-26T14:16:35Z</time>
      </trkpt>
      <trkpt lat="59.9007958" lon="17.6697183">
        <ele>36.1868</ele>
        <time>2013-05-26T14:16:36Z</time>
      </trkpt>
      <trkpt lat="59.9008419" lon="17.6697056">
        <ele>34.7449</ele>
        <time>2013-05-26T14:16:37Z</time>
      </trkpt>
      <trkpt lat="59.9008873" lon="17.669697">
        <ele>35.2255</ele>
        <time>2013-05-26T14:16:38Z</time>
      </trkpt>
      <trkpt lat="59.9009321" lon="17.6696887">
        <ele>35.2255</ele>
        <time>2013-05-26T14:16:39Z</time>
      </trkpt>
      <trkpt lat="59.9009832" lon="17.6696778">
        <ele>35.7061</ele>
        <time>2013-05-26T14:16:40Z</time>
      </trkpt>
      <trkpt lat="59.9010334" lon="17.6696654">
        <ele>35.2255</ele>
        <time>2013-05-26T14:16:41Z</time>
      </trkpt>
      <trkpt lat="59.9010881" lon="17.6696504">
        <ele>35.2255</ele>
        <time>2013-05-26T14:16:42Z</time>
      </trkpt>
      <trkpt lat="59.9011469" lon="17.6696368">
        <ele>34.7449</ele>
        <time>2013-05-26T14:16:43Z</time>
      </trkpt>
      <trkpt lat="59.90121" lon="17.6696253">
        <ele>33.7834</ele>
        <time>2013-05-26T14:16:44Z</time>
      </trkpt>
      <trkpt lat="59.9012766" lon="17.6696113">
        <ele>33.7834</ele>
        <time>2013-05-26T14:16:45Z</time>
      </trkpt>
      <trkpt lat="59.9013458" lon="17.6695981">
        <ele>34.2642</ele>
        <time>2013-05-26T14:16:46Z</time>
      </trkpt>
      <trkpt lat="59.9014143" lon="17.6695882">
        <ele>34.7449</ele>
        <time>2013-05-26T14:16:47Z</time>
      </trkpt>
      <trkpt lat="59.9014811" lon="17.6695769">
        <ele>33.7834</ele>
        <time>2013-05-26T14:16:48Z</time>
      </trkpt>
      <trkpt lat="59.9015465" lon="17.6695816">
        <ele>34.2642</ele>
        <time>2013-05-26T14:16:49Z</time>
      </trkpt>
      <trkpt lat="59.9016143" lon="17.6695898">
        <ele>35.2255</ele>
        <time>2013-05-26T14:16:50Z</time>
      </trkpt>
      <trkpt lat="59.9016866" lon="17.669613">
        <ele>35.7061</ele>
        <time>2013-05-26T14:16:51Z</time>
      </trkpt>
      <trkpt lat="59.9017536" lon="17.6696453">
        <ele>36.1868</ele>
        <time>2013-05-26T14:16:52Z</time>
      </trkpt>
      <trkpt lat="59.9018085" lon="17.669682">
        <ele>36.1868</ele>
        <time>2013-05-26T14:16:53Z</time>
      </trkpt>
      <trkpt lat="59.9018717" lon="17.6697263">
        <ele>35.7061</ele>
        <time>2013-05-26T14:16:54Z</time>
      </trkpt>
      <trkpt lat="59.9019329" lon="17.6697789">
        <ele>35.2255</ele>
        <time>2013-05-26T14:16:55Z</time>
      </trkpt>
      <trkpt lat="59.9019904" lon="17.6698315">
        <ele>34.2642</ele>
        <time>2013-05-26T14:16:56Z</time>
      </trkpt>
      <trkpt lat="59.9020582" lon="17.6698798">
        <ele>33.7834</ele>
        <time>2013-05-26T14:16:57Z</time>
      </trkpt>
      <trkpt lat="59.902126" lon="17.6699198">
        <ele>33.3029</ele>
        <time>2013-05-26T14:16:58Z</time>
      </trkpt>
      <trkpt lat="59.9022008" lon="17.6699537">
        <ele>33.7834</ele>
        <time>2013-05-26T14:16:59Z</time>
      </trkpt>
      <trkpt lat="59.9022747" lon="17.6699653">
        <ele>33.3029</ele>
        <time>2013-05-26T14:17:00Z</time>
      </trkpt>
      <trkpt lat="59.9023528" lon="17.6699695">
        <ele>34.2642</ele>
        <time>2013-05-26T14:17:01Z</time>
      </trkpt>
      <trkpt lat="59.9024224" lon="17.6699621">
        <ele>34.2642</ele>
        <time>2013-05-26T14:17:02Z</time>
      </trkpt>
      <trkpt lat="59.9024913" lon="17.6699447">
        <ele>34.2642</ele>
        <time>2013-05-26T14:17:03Z</time>
      </trkpt>
      <trkpt lat="59.9025611" lon="17.6699191">
        <ele>34.2642</ele>
        <time>2013-05-26T14:17:04Z</time>
      </trkpt>
      <trkpt lat="59.9026146" lon="17.6698822">
        <ele>32.8223</ele>
        <time>2013-05-26T14:17:05Z</time>
      </trkpt>
      <trkpt lat="59.902671" lon="17.6698494">
        <ele>32.8223</ele>
        <time>2013-05-26T14:17:06Z</time>
      </trkpt>
      <trkpt lat="59.9027306" lon="17.6698332">
        <ele>31.8607</ele>
        <time>2013-05-26T14:17:07Z</time>
      </trkpt>
      <trkpt lat="59.9027974" lon="17.6697725">
        <ele>31.8607</ele>
        <time>2013-05-26T14:17:08Z</time>
      </trkpt>
      <trkpt lat="59.9028595" lon="17.6697857">
        <ele>31.8607</ele>
        <time>2013-05-26T14:17:09Z</time>
      </trkpt>
      <trkpt lat="59.9029134" lon="17.6698128">
        <ele>30.8995</ele>
        <time>2013-05-26T14:17:10Z</time>
      </trkpt>
      <trkpt lat="59.9029818" lon="17.6698406">
        <ele>31.3801</ele>
        <time>2013-05-26T14:17:11Z</time>
      </trkpt>
      <trkpt lat="59.9030435" lon="17.6698876">
        <ele>30.4188</ele>
        <time>2013-05-26T14:17:12Z</time>
      </trkpt>
      <trkpt lat="59.903107" lon="17.6699131">
        <ele>30.4188</ele>
        <time>2013-05-26T14:17:13Z</time>
      </trkpt>
      <trkpt lat="59.9031698" lon="17.6699229">
        <ele>30.4188</ele>
        <time>2013-05-26T14:17:14Z</time>
      </trkpt>
      <trkpt lat="59.9032279" lon="17.6699057">
        <ele>30.8995</ele>
        <time>2013-05-26T14:17:15Z</time>
      </trkpt>
      <trkpt lat="59.9032938" lon="17.6698854">
        <ele>30.4188</ele>
        <time>2013-05-26T14:17:16Z</time>
      </trkpt>
      <trkpt lat="59.903357" lon="17.669854">
        <ele>30.8995</ele>
        <time>2013-05-26T14:17:17Z</time>
      </trkpt>
      <trkpt lat="59.9034131" lon="17.6698023">
        <ele>30.8995</ele>
        <time>2013-05-26T14:17:18Z</time>
      </trkpt>
      <trkpt lat="59.9034623" lon="17.6697363">
        <ele>30.4188</ele>
        <time>2013-05-26T14:17:19Z</time>
      </trkpt>
      <trkpt lat="59.903501" lon="17.6696535">
        <ele>29.9381</ele>
        <time>2013-05-26T14:17:20Z</time>
      </trkpt>
      <trkpt lat="59.9035418" lon="17.6695575">
        <ele>29.4575</ele>
        <time>2013-05-26T14:17:21Z</time>
      </trkpt>
      <trkpt lat="59.9035817" lon="17.6694639">
        <ele>29.9381</ele>
        <time>2013-05-26T14:17:22Z</time>
      </trkpt>
      <trkpt lat="59.9036144" lon="17.6693612">
        <ele>29.9381</ele>
        <time>2013-05-26T14:17:23Z</time>
      </trkpt>
      <trkpt lat="59.9036458" lon="17.6692489">
        <ele>30.8995</ele>
        <time>2013-05-26T14:17:24Z</time>
      </trkpt>
      <trkpt lat="59.9036801" lon="17.6691391">
        <ele>31.8607</ele>
        <time>2013-05-26T14:17:25Z</time>
      </trkpt>
      <trkpt lat="59.9037149" lon="17.6690484">
        <ele>30.8995</ele>
        <time>2013-05-26T14:17:26Z</time>
      </trkpt>
      <trkpt lat="59.9037516" lon="17.6689625">
        <ele>30.4188</ele>
        <time>2013-05-26T14:17:27Z</time>
      </trkpt>
      <trkpt lat="59.9037911" lon="17.6688708">
        <ele>30.8995</ele>
        <time>2013-05-26T14:17:28Z</time>
      </trkpt>
      <trkpt lat="59.9038375" lon="17.6687863">
        <ele>31.3801</ele>
        <time>2013-05-26T14:17:29Z</time>
      </trkpt>
      <trkpt lat="59.903885" lon="17.6686941">
        <ele>31.8607</ele>
        <time>2013-05-26T14:17:30Z</time>
      </trkpt>
      <trkpt lat="59.9039283" lon="17.6685988">
        <ele>31.3801</ele>
        <time>2013-05-26T14:17:31Z</time>
      </trkpt>
      <trkpt lat="59.9039741" lon="17.6684921">
        <ele>30.4188</ele>
        <time>2013-05-26T14:17:32Z</time>
      </trkpt>
      <trkpt lat="59.9040215" lon="17.6684026">
        <ele>29.4575</ele>
        <time>2013-05-26T14:17:33Z</time>
      </trkpt>
      <trkpt lat="59.9040707" lon="17.6683321">
        <ele>29.9381</ele>
        <time>2013-05-26T14:17:34Z</time>
      </trkpt>
      <trkpt lat="59.9041157" lon="17.6682731">
        <ele>29.4575</ele>
        <time>2013-05-26T14:17:35Z</time>
      </trkpt>
      <trkpt lat="59.9041588" lon="17.6682216">
        <ele>29.9381</ele>
        <time>2013-05-26T14:17:36Z</time>
      </trkpt>
      <trkpt lat="59.9042054" lon="17.6681854">
        <ele>30.4188</ele>
        <time>2013-05-26T14:17:37Z</time>
      </trkpt>
      <trkpt lat="59.9042509" lon="17.6681388">
        <ele>30.8995</ele>
        <time>2013-05-26T14:17:38Z</time>
      </trkpt>
      <trkpt lat="59.9042992" lon="17.6680972">
        <ele>31.8607</ele>
        <time>2013-05-26T14:17:39Z</time>
      </trkpt>
      <trkpt lat="59.904354" lon="17.668059">
        <ele>32.3416</ele>
        <time>2013-05-26T14:17:40Z</time>
      </trkpt>
      <trkpt lat="59.9044059" lon="17.6680358">
        <ele>32.8223</ele>
        <time>2013-05-26T14:17:41Z</time>
      </trkpt>
      <trkpt lat="59.9044592" lon="17.6680238">
        <ele>32.8223</ele>
        <time>2013-05-26T14:17:42Z</time>
      </trkpt>
      <trkpt lat="59.9045098" lon="17.668016">
        <ele>32.8223</ele>
        <time>2013-05-26T14:17:43Z</time>
      </trkpt>
      <trkpt lat="59.9045638" lon="17.6679978">
        <ele>33.3029</ele>
        <time>2013-05-26T14:17:44Z</time>
      </trkpt>
      <trkpt lat="59.9046188" lon="17.6679813">
        <ele>33.7834</ele>
        <time>2013-05-26T14:17:45Z</time>
      </trkpt>
      <trkpt lat="59.9046803" lon="17.6679695">
        <ele>34.7449</ele>
        <time>2013-05-26T14:17:46Z</time>
      </trkpt>
      <trkpt lat="59.9047413" lon="17.6679596">
        <ele>35.2255</ele>
        <time>2013-05-26T14:17:47Z</time>
      </trkpt>
      <trkpt lat="59.9048016" lon="17.6679565">
        <ele>35.2255</ele>
        <time>2013-05-26T14:17:48Z</time>
      </trkpt>
      <trkpt lat="59.9048662" lon="17.6679631">
        <ele>35.2255</ele>
        <time>2013-05-26T14:17:49Z</time>
      </trkpt>
      <trkpt lat="59.9049359" lon="17.6679811">
        <ele>35.7061</ele>
        <time>2013-05-26T14:17:50Z</time>
      </trkpt>
      <trkpt lat="59.905006" lon="17.6680097">
        <ele>35.7061</ele>
        <time>2013-05-26T14:17:51Z</time>
      </trkpt>
      <trkpt lat="59.905071" lon="17.6680508">
        <ele>36.1868</ele>
        <time>2013-05-26T14:17:52Z</time>
      </trkpt>
      <trkpt lat="59.9051408" lon="17.6680896">
        <ele>36.6675</ele>
        <time>2013-05-26T14:17:53Z</time>
      </trkpt>
      <trkpt lat="59.9052097" lon="17.6681207">
        <ele>36.6675</ele>
        <time>2013-05-26T14:17:54Z</time>
      </trkpt>
      <trkpt lat="59.9052787" lon="17.6681517">
        <ele>36.6675</ele>
        <time>2013-05-26T14:17:55Z</time>
      </trkpt>
      <trkpt lat="59.9053508" lon="17.6681811">
        <ele>36.6675</ele>
        <time>2013-05-26T14:17:56Z</time>
      </trkpt>
      <trkpt lat="59.9054196" lon="17.6681988">
        <ele>35.7061</ele>
        <time>2013-05-26T14:17:57Z</time>
      </trkpt>
      <trkpt lat="59.905496" lon="17.6682139">
        <ele>34.7449</ele>
        <time>2013-05-26T14:17:58Z</time>
      </trkpt>
      <trkpt lat="59.9055719" lon="17.668233">
        <ele>35.2255</ele>
        <time>2013-05-26T14:17:59Z</time>
      </trkpt>
      <trkpt lat="59.9056635" lon="17.6682966">
        <ele>35.7061</ele>
        <time>2013-05-26T14:18:00Z</time>
      </trkpt>
      <trkpt lat="59.9057322" lon="17.6683367">
        <ele>35.7061</ele>
        <time>2013-05-26T14:18:01Z</time>
      </trkpt>
      <trkpt lat="59.9057857" lon="17.6683517">
        <ele>35.2255</ele>
        <time>2013-05-26T14:18:02Z</time>
      </trkpt>
      <trkpt lat="59.9058407" lon="17.6683627">
        <ele>33.7834</ele>
        <time>2013-05-26T14:18:03Z</time>
      </trkpt>
      <trkpt lat="59.9059055" lon="17.6684026">
        <ele>34.2642</ele>
        <time>2013-05-26T14:18:04Z</time>
      </trkpt>
      <trkpt lat="59.9059626" lon="17.668447">
        <ele>34.7449</ele>
        <time>2013-05-26T14:18:05Z</time>
      </trkpt>
      <trkpt lat="59.90602" lon="17.6684718">
        <ele>34.7449</ele>
        <time>2013-05-26T14:18:06Z</time>
      </trkpt>
      <trkpt lat="59.9060776" lon="17.6684916">
        <ele>34.7449</ele>
        <time>2013-05-26T14:18:07Z</time>
      </trkpt>
      <trkpt lat="59.9061391" lon="17.6684981">
        <ele>34.7449</ele>
        <time>2013-05-26T14:18:08Z</time>
      </trkpt>
      <trkpt lat="59.9061954" lon="17.668521">
        <ele>34.2642</ele>
        <time>2013-05-26T14:18:09Z</time>
      </trkpt>
      <trkpt lat="59.906249" lon="17.6685398">
        <ele>34.2642</ele>
        <time>2013-05-26T14:18:10Z</time>
      </trkpt>
      <trkpt lat="59.9063" lon="17.6685582">
        <ele>33.7834</ele>
        <time>2013-05-26T14:18:11Z</time>
      </trkpt>
      <trkpt lat="59.9063544" lon="17.6685738">
        <ele>34.2642</ele>
        <time>2013-05-26T14:18:12Z</time>
      </trkpt>
      <trkpt lat="59.9064072" lon="17.6685854">
        <ele>34.7449</ele>
        <time>2013-05-26T14:18:13Z</time>
      </trkpt>
      <trkpt lat="59.9064608" lon="17.6685883">
        <ele>34.7449</ele>
        <time>2013-05-26T14:18:14Z</time>
      </trkpt>
      <trkpt lat="59.9065131" lon="17.6685874">
        <ele>35.2255</ele>
        <time>2013-05-26T14:18:15Z</time>
      </trkpt>
      <trkpt lat="59.9065671" lon="17.6685909">
        <ele>35.2255</ele>
        <time>2013-05-26T14:18:16Z</time>
      </trkpt>
      <trkpt lat="59.9066245" lon="17.6685908">
        <ele>34.7449</ele>
        <time>2013-05-26T14:18:17Z</time>
      </trkpt>
      <trkpt lat="59.9066804" lon="17.6685774">
        <ele>34.7449</ele>
        <time>2013-05-26T14:18:18Z</time>
      </trkpt>
      <trkpt lat="59.9067382" lon="17.6685579">
        <ele>35.2255</ele>
        <time>2013-05-26T14:18:19Z</time>
      </trkpt>
      <trkpt lat="59.9067959" lon="17.6685334">
        <ele>35.7061</ele>
        <time>2013-05-26T14:18:20Z</time>
      </trkpt>
      <trkpt lat="59.9068514" lon="17.6685077">
        <ele>35.2255</ele>
        <time>2013-05-26T14:18:21Z</time>
      </trkpt>
      <trkpt lat="59.9069078" lon="17.6684877">
        <ele>35.7061</ele>
        <time>2013-05-26T14:18:22Z</time>
      </trkpt>
      <trkpt lat="59.9069633" lon="17.6684719">
        <ele>35.7061</ele>
        <time>2013-05-26T14:18:23Z</time>
      </trkpt>
      <trkpt lat="59.9070193" lon="17.6684595">
        <ele>35.2255</ele>
        <time>2013-05-26T14:18:24Z</time>
      </trkpt>
      <trkpt lat="59.907078" lon="17.6684445">
        <ele>34.7449</ele>
        <time>2013-05-26T14:18:25Z</time>
      </trkpt>
      <trkpt lat="59.9071405" lon="17.6684264">
        <ele>34.7449</ele>
        <time>2013-05-26T14:18:26Z</time>
      </trkpt>
      <trkpt lat="59.9072057" lon="17.6684055">
        <ele>35.2255</ele>
        <time>2013-05-26T14:18:27Z</time>
      </trkpt>
      <trkpt lat="59.9072661" lon="17.6683854">
        <ele>34.7449</ele>
        <time>2013-05-26T14:18:28Z</time>
      </trkpt>
      <trkpt lat="59.9073268" lon="17.6683669">
        <ele>33.7834</ele>
        <time>2013-05-26T14:18:29Z</time>
      </trkpt>
      <trkpt lat="59.9073912" lon="17.668345">
        <ele>34.2642</ele>
        <time>2013-05-26T14:18:30Z</time>
      </trkpt>
      <trkpt lat="59.9074563" lon="17.6683159">
        <ele>34.7449</ele>
        <time>2013-05-26T14:18:31Z</time>
      </trkpt>
      <trkpt lat="59.9075175" lon="17.6682808">
        <ele>35.2255</ele>
        <time>2013-05-26T14:18:32Z</time>
      </trkpt>
      <trkpt lat="59.9075722" lon="17.6682378">
        <ele>35.2255</ele>
        <time>2013-05-26T14:18:33Z</time>
      </trkpt>
      <trkpt lat="59.9076216" lon="17.6681829">
        <ele>33.7834</ele>
        <time>2013-05-26T14:18:34Z</time>
      </trkpt>
      <trkpt lat="59.907664" lon="17.6681024">
        <ele>31.8607</ele>
        <time>2013-05-26T14:18:35Z</time>
      </trkpt>
      <trkpt lat="59.9076936" lon="17.6680021">
        <ele>30.4188</ele>
        <time>2013-05-26T14:18:36Z</time>
      </trkpt>
      <trkpt lat="59.9077169" lon="17.6678898">
        <ele>28.4962</ele>
        <time>2013-05-26T14:18:37Z</time>
      </trkpt>
      <trkpt lat="59.9077382" lon="17.6677688">
        <ele>28.4962</ele>
        <time>2013-05-26T14:18:38Z</time>
      </trkpt>
      <trkpt lat="59.9077561" lon="17.6676436">
        <ele>28.4962</ele>
        <time>2013-05-26T14:18:39Z</time>
      </trkpt>
      <trkpt lat="59.9077723" lon="17.6675131">
        <ele>29.4575</ele>
        <time>2013-05-26T14:18:40Z</time>
      </trkpt>
      <trkpt lat="59.9077858" lon="17.6673802">
        <ele>29.9381</ele>
        <time>2013-05-26T14:18:41Z</time>
      </trkpt>
      <trkpt lat="59.9077962" lon="17.6672453">
        <ele>30.4188</ele>
        <time>2013-05-26T14:18:42Z</time>
      </trkpt>
      <trkpt lat="59.9078082" lon="17.6671147">
        <ele>30.8995</ele>
        <time>2013-05-26T14:18:43Z</time>
      </trkpt>
      <trkpt lat="59.9078097" lon="17.6669781">
        <ele>31.3801</ele>
        <time>2013-05-26T14:18:44Z</time>
      </trkpt>
      <trkpt lat="59.9078102" lon="17.6668432">
        <ele>31.3801</ele>
        <time>2013-05-26T14:18:45Z</time>
      </trkpt>
      <trkpt lat="59.9078141" lon="17.6667101">
        <ele>31.8607</ele>
        <time>2013-05-26T14:18:46Z</time>
      </trkpt>
      <trkpt lat="59.9078188" lon="17.6665765">
        <ele>31.8607</ele>
        <time>2013-05-26T14:18:47Z</time>
      </trkpt>
      <trkpt lat="59.9078226" lon="17.6664399">
        <ele>31.8607</ele>
        <time>2013-05-26T14:18:48Z</time>
      </trkpt>
      <trkpt lat="59.9078328" lon="17.6663052">
        <ele>31.8607</ele>
        <time>2013-05-26T14:18:49Z</time>
      </trkpt>
      <trkpt lat="59.9078489" lon="17.6661777">
        <ele>32.8223</ele>
        <time>2013-05-26T14:18:50Z</time>
      </trkpt>
      <trkpt lat="59.9078677" lon="17.666049">
        <ele>33.3029</ele>
        <time>2013-05-26T14:18:51Z</time>
      </trkpt>
      <trkpt lat="59.9078844" lon="17.6659201">
        <ele>33.7834</ele>
        <time>2013-05-26T14:18:52Z</time>
      </trkpt>
      <trkpt lat="59.9079008" lon="17.6657953">
        <ele>34.2642</ele>
        <time>2013-05-26T14:18:53Z</time>
      </trkpt>
      <trkpt lat="59.9079159" lon="17.6656727">
        <ele>35.2255</ele>
        <time>2013-05-26T14:18:54Z</time>
      </trkpt>
      <trkpt lat="59.9079289" lon="17.665555">
        <ele>35.2255</ele>
        <time>2013-05-26T14:18:55Z</time>
      </trkpt>
      <trkpt lat="59.9079434" lon="17.6654399">
        <ele>35.7061</ele>
        <time>2013-05-26T14:18:56Z</time>
      </trkpt>
      <trkpt lat="59.9079572" lon="17.6653253">
        <ele>36.1868</ele>
        <time>2013-05-26T14:18:57Z</time>
      </trkpt>
      <trkpt lat="59.9079708" lon="17.6652058">
        <ele>36.6675</ele>
        <time>2013-05-26T14:18:58Z</time>
      </trkpt>
      <trkpt lat="59.9079869" lon="17.6650877">
        <ele>36.6675</ele>
        <time>2013-05-26T14:18:59Z</time>
      </trkpt>
      <trkpt lat="59.9080033" lon="17.6649681">
        <ele>37.1481</ele>
        <time>2013-05-26T14:19:00Z</time>
      </trkpt>
      <trkpt lat="59.9080169" lon="17.6648505">
        <ele>37.1481</ele>
        <time>2013-05-26T14:19:01Z</time>
      </trkpt>
      <trkpt lat="59.9080302" lon="17.6647364">
        <ele>38.1094</ele>
        <time>2013-05-26T14:19:02Z</time>
      </trkpt>
      <trkpt lat="59.9080403" lon="17.6646148">
        <ele>39.0707</ele>
        <time>2013-05-26T14:19:03Z</time>
      </trkpt>
      <trkpt lat="59.9080467" lon="17.6644856">
        <ele>39.5513</ele>
        <time>2013-05-26T14:19:04Z</time>
      </trkpt>
      <trkpt lat="59.9080474" lon="17.6643486">
        <ele>40.0321</ele>
        <time>2013-05-26T14:19:05Z</time>
      </trkpt>
      <trkpt lat="59.9080444" lon="17.6642085">
        <ele>40.0321</ele>
        <time>2013-05-26T14:19:06Z</time>
      </trkpt>
      <trkpt lat="59.9080339" lon="17.6640653">
        <ele>39.0707</ele>
        <time>2013-05-26T14:19:07Z</time>
      </trkpt>
      <trkpt lat="59.9080281" lon="17.6639263">
        <ele>39.5513</ele>
        <time>2013-05-26T14:19:08Z</time>
      </trkpt>
      <trkpt lat="59.9080164" lon="17.6637899">
        <ele>40.0321</ele>
        <time>2013-05-26T14:19:09Z</time>
      </trkpt>
      <trkpt lat="59.9079992" lon="17.6636543">
        <ele>39.5513</ele>
        <time>2013-05-26T14:19:10Z</time>
      </trkpt>
      <trkpt lat="59.9079863" lon="17.6635229">
        <ele>39.5513</ele>
        <time>2013-05-26T14:19:11Z</time>
      </trkpt>
      <trkpt lat="59.9079739" lon="17.6633937">
        <ele>39.5513</ele>
        <time>2013-05-26T14:19:12Z</time>
      </trkpt>
      <trkpt lat="59.9079579" lon="17.6632652">
        <ele>39.5513</ele>
        <time>2013-05-26T14:19:13Z</time>
      </trkpt>
      <trkpt lat="59.9079392" lon="17.6631365">
        <ele>39.5513</ele>
        <time>2013-05-26T14:19:14Z</time>
      </trkpt>
      <trkpt lat="59.907918" lon="17.6630039">
        <ele>39.0707</ele>
        <time>2013-05-26T14:19:15Z</time>
      </trkpt>
      <trkpt lat="59.9079025" lon="17.6628712">
        <ele>38.5901</ele>
        <time>2013-05-26T14:19:16Z</time>
      </trkpt>
      <trkpt lat="59.9078851" lon="17.6627342">
        <ele>38.5901</ele>
        <time>2013-05-26T14:19:17Z</time>
      </trkpt>
      <trkpt lat="59.9078645" lon="17.6625914">
        <ele>38.5901</ele>
        <time>2013-05-26T14:19:18Z</time>
      </trkpt>
      <trkpt lat="59.9078397" lon="17.6624469">
        <ele>38.5901</ele>
        <time>2013-05-26T14:19:19Z</time>
      </trkpt>
      <trkpt lat="59.9078157" lon="17.6623022">
        <ele>38.1094</ele>
        <time>2013-05-26T14:19:20Z</time>
      </trkpt>
      <trkpt lat="59.907796" lon="17.6621542">
        <ele>37.6287</ele>
        <time>2013-05-26T14:19:21Z</time>
      </trkpt>
      <trkpt lat="59.9077806" lon="17.662005">
        <ele>37.6287</ele>
        <time>2013-05-26T14:19:22Z</time>
      </trkpt>
      <trkpt lat="59.9077691" lon="17.6618559">
        <ele>37.6287</ele>
        <time>2013-05-26T14:19:23Z</time>
      </trkpt>
      <trkpt lat="59.9077587" lon="17.6617065">
        <ele>37.6287</ele>
        <time>2013-05-26T14:19:24Z</time>
      </trkpt>
      <trkpt lat="59.9077429" lon="17.6615529">
        <ele>37.6287</ele>
        <time>2013-05-26T14:19:25Z</time>
      </trkpt>
      <trkpt lat="59.9077309" lon="17.6614066">
        <ele>37.6287</ele>
        <time>2013-05-26T14:19:26Z</time>
      </trkpt>
      <trkpt lat="59.9077212" lon="17.6612659">
        <ele>37.6287</ele>
        <time>2013-05-26T14:19:27Z</time>
      </trkpt>
      <trkpt lat="59.9077105" lon="17.6611276">
        <ele>37.6287</ele>
        <time>2013-05-26T14:19:28Z</time>
      </trkpt>
      <trkpt lat="59.9076969" lon="17.660989">
        <ele>37.6287</ele>
        <time>2013-05-26T14:19:29Z</time>
      </trkpt>
      <trkpt lat="59.9076808" lon="17.6608503">
        <ele>37.1481</ele>
        <time>2013-05-26T14:19:30Z</time>
      </trkpt>
      <trkpt lat="59.9076677" lon="17.6607122">
        <ele>36.6675</ele>
        <time>2013-05-26T14:19:31Z</time>
      </trkpt>
      <trkpt lat="59.9076532" lon="17.6605686">
        <ele>36.6675</ele>
        <time>2013-05-26T14:19:32Z</time>
      </trkpt>
      <trkpt lat="59.9076284" lon="17.6604203">
        <ele>34.2642</ele>
        <time>2013-05-26T14:19:33Z</time>
      </trkpt>
      <trkpt lat="59.907601" lon="17.6602702">
        <ele>33.3029</ele>
        <time>2013-05-26T14:19:34Z</time>
      </trkpt>
      <trkpt lat="59.9075708" lon="17.6601173">
        <ele>32.3416</ele>
        <time>2013-05-26T14:19:35Z</time>
      </trkpt>
      <trkpt lat="59.9075429" lon="17.6599625">
        <ele>31.3801</ele>
        <time>2013-05-26T14:19:36Z</time>
      </trkpt>
      <trkpt lat="59.9075192" lon="17.6598056">
        <ele>30.8995</ele>
        <time>2013-05-26T14:19:37Z</time>
      </trkpt>
      <trkpt lat="59.9074995" lon="17.6596501">
        <ele>30.4188</ele>
        <time>2013-05-26T14:19:38Z</time>
      </trkpt>
      <trkpt lat="59.9074834" lon="17.6594979">
        <ele>30.8995</ele>
        <time>2013-05-26T14:19:39Z</time>
      </trkpt>
      <trkpt lat="59.9074683" lon="17.6593501">
        <ele>30.8995</ele>
        <time>2013-05-26T14:19:40Z</time>
      </trkpt>
      <trkpt lat="59.9074548" lon="17.6592046">
        <ele>30.8995</ele>
        <time>2013-05-26T14:19:41Z</time>
      </trkpt>
      <trkpt lat="59.9074388" lon="17.6590607">
        <ele>30.4188</ele>
        <time>2013-05-26T14:19:42Z</time>
      </trkpt>
      <trkpt lat="59.9074267" lon="17.6589211">
        <ele>30.8995</ele>
        <time>2013-05-26T14:19:43Z</time>
      </trkpt>
      <trkpt lat="59.9074128" lon="17.6587816">
        <ele>31.3801</ele>
        <time>2013-05-26T14:19:44Z</time>
      </trkpt>
      <trkpt lat="59.9073973" lon="17.6586406">
        <ele>31.3801</ele>
        <time>2013-05-26T14:19:45Z</time>
      </trkpt>
      <trkpt lat="59.9073819" lon="17.6584971">
        <ele>31.8607</ele>
        <time>2013-05-26T14:19:46Z</time>
      </trkpt>
      <trkpt lat="59.9073642" lon="17.6583498">
        <ele>31.8607</ele>
        <time>2013-05-26T14:19:47Z</time>
      </trkpt>
      <trkpt lat="59.9073425" lon="17.6582018">
        <ele>31.3801</ele>
        <time>2013-05-26T14:19:48Z</time>
      </trkpt>
      <trkpt lat="59.9073207" lon="17.6580517">
        <ele>30.8995</ele>
        <time>2013-05-26T14:19:49Z</time>
      </trkpt>
      <trkpt lat="59.9072987" lon="17.6579028">
        <ele>30.8995</ele>
        <time>2013-05-26T14:19:50Z</time>
      </trkpt>
      <trkpt lat="59.9072736" lon="17.6577549">
        <ele>30.4188</ele>
        <time>2013-05-26T14:19:51Z</time>
      </trkpt>
      <trkpt lat="59.9072472" lon="17.6576097">
        <ele>29.9381</ele>
        <time>2013-05-26T14:19:52Z</time>
      </trkpt>
      <trkpt lat="59.9072229" lon="17.6574655">
        <ele>29.4575</ele>
        <time>2013-05-26T14:19:53Z</time>
      </trkpt>
      <trkpt lat="59.9071984" lon="17.65732">
        <ele>28.9769</ele>
        <time>2013-05-26T14:19:54Z</time>
      </trkpt>
      <trkpt lat="59.9071736" lon="17.657173">
        <ele>28.4962</ele>
        <time>2013-05-26T14:19:55Z</time>
      </trkpt>
      <trkpt lat="59.9071519" lon="17.6570233">
        <ele>28.4962</ele>
        <time>2013-05-26T14:19:56Z</time>
      </trkpt>
      <trkpt lat="59.9071333" lon="17.6568731">
        <ele>28.4962</ele>
        <time>2013-05-26T14:19:57Z</time>
      </trkpt>
      <trkpt lat="59.9071176" lon="17.6567253">
        <ele>28.0155</ele>
        <time>2013-05-26T14:19:58Z</time>
      </trkpt>
      <trkpt lat="59.907105" lon="17.6565782">
        <ele>28.0155</ele>
        <time>2013-05-26T14:19:59Z</time>
      </trkpt>
      <trkpt lat="59.9070952" lon="17.6564305">
        <ele>28.0155</ele>
        <time>2013-05-26T14:20:00Z</time>
      </trkpt>
      <trkpt lat="59.9070871" lon="17.6562824">
        <ele>27.5349</ele>
        <time>2013-05-26T14:20:01Z</time>
      </trkpt>
      <trkpt lat="59.9070791" lon="17.656133">
        <ele>27.0543</ele>
        <time>2013-05-26T14:20:02Z</time>
      </trkpt>
      <trkpt lat="59.9070718" lon="17.655981">
        <ele>26.5736</ele>
        <time>2013-05-26T14:20:03Z</time>
      </trkpt>
      <trkpt lat="59.9070658" lon="17.6558262">
        <ele>26.0929</ele>
        <time>2013-05-26T14:20:04Z</time>
      </trkpt>
      <trkpt lat="59.907062" lon="17.6556688">
        <ele>25.6123</ele>
        <time>2013-05-26T14:20:05Z</time>
      </trkpt>
      <trkpt lat="59.9070612" lon="17.6555104">
        <ele>25.6123</ele>
        <time>2013-05-26T14:20:06Z</time>
      </trkpt>
      <trkpt lat="59.9070609" lon="17.6553507">
        <ele>25.6123</ele>
        <time>2013-05-26T14:20:07Z</time>
      </trkpt>
      <trkpt lat="59.9070612" lon="17.6551911">
        <ele>25.1317</ele>
        <time>2013-05-26T14:20:08Z</time>
      </trkpt>
      <trkpt lat="59.9070606" lon="17.6550315">
        <ele>25.1317</ele>
        <time>2013-05-26T14:20:09Z</time>
      </trkpt>
      <trkpt lat="59.9070594" lon="17.6548731">
        <ele>24.651</ele>
        <time>2013-05-26T14:20:10Z</time>
      </trkpt>
      <trkpt lat="59.9070592" lon="17.6547161">
        <ele>24.651</ele>
        <time>2013-05-26T14:20:11Z</time>
      </trkpt>
      <trkpt lat="59.9070618" lon="17.6545607">
        <ele>24.651</ele>
        <time>2013-05-26T14:20:12Z</time>
      </trkpt>
      <trkpt lat="59.9070662" lon="17.6544048">
        <ele>24.651</ele>
        <time>2013-05-26T14:20:13Z</time>
      </trkpt>
      <trkpt lat="59.907071" lon="17.6542472">
        <ele>24.651</ele>
        <time>2013-05-26T14:20:14Z</time>
      </trkpt>
      <trkpt lat="59.9070757" lon="17.6540887">
        <ele>24.651</ele>
        <time>2013-05-26T14:20:15Z</time>
      </trkpt>
      <trkpt lat="59.9070801" lon="17.6539294">
        <ele>24.651</ele>
        <time>2013-05-26T14:20:16Z</time>
      </trkpt>
      <trkpt lat="59.907082" lon="17.6537706">
        <ele>24.651</ele>
        <time>2013-05-26T14:20:17Z</time>
      </trkpt>
      <trkpt lat="59.9070859" lon="17.6536132">
        <ele>24.651</ele>
        <time>2013-05-26T14:20:18Z</time>
      </trkpt>
      <trkpt lat="59.9070921" lon="17.6534553">
        <ele>25.1317</ele>
        <time>2013-05-26T14:20:19Z</time>
      </trkpt>
      <trkpt lat="59.9070977" lon="17.6532971">
        <ele>25.1317</ele>
        <time>2013-05-26T14:20:20Z</time>
      </trkpt>
      <trkpt lat="59.9071024" lon="17.6531373">
        <ele>26.0929</ele>
        <time>2013-05-26T14:20:21Z</time>
      </trkpt>
      <trkpt lat="59.9071068" lon="17.6529793">
        <ele>26.0929</ele>
        <time>2013-05-26T14:20:22Z</time>
      </trkpt>
      <trkpt lat="59.9071108" lon="17.6528242">
        <ele>26.5736</ele>
        <time>2013-05-26T14:20:23Z</time>
      </trkpt>
      <trkpt lat="59.9071122" lon="17.6526711">
        <ele>26.5736</ele>
        <time>2013-05-26T14:20:24Z</time>
      </trkpt>
      <trkpt lat="59.9071107" lon="17.6525208">
        <ele>26.5736</ele>
        <time>2013-05-26T14:20:25Z</time>
      </trkpt>
      <trkpt lat="59.907106" lon="17.6523721">
        <ele>26.5736</ele>
        <time>2013-05-26T14:20:26Z</time>
      </trkpt>
      <trkpt lat="59.9070983" lon="17.652223">
        <ele>27.0543</ele>
        <time>2013-05-26T14:20:27Z</time>
      </trkpt>
      <trkpt lat="59.9070868" lon="17.6520717">
        <ele>26.5736</ele>
        <time>2013-05-26T14:20:28Z</time>
      </trkpt>
      <trkpt lat="59.907071" lon="17.651921">
        <ele>26.5736</ele>
        <time>2013-05-26T14:20:29Z</time>
      </trkpt>
      <trkpt lat="59.9070517" lon="17.6517724">
        <ele>26.0929</ele>
        <time>2013-05-26T14:20:30Z</time>
      </trkpt>
      <trkpt lat="59.9070295" lon="17.6516248">
        <ele>26.5736</ele>
        <time>2013-05-26T14:20:31Z</time>
      </trkpt>
      <trkpt lat="59.9070024" lon="17.651477">
        <ele>26.5736</ele>
        <time>2013-05-26T14:20:32Z</time>
      </trkpt>
      <trkpt lat="59.9069726" lon="17.6513287">
        <ele>26.5736</ele>
        <time>2013-05-26T14:20:33Z</time>
      </trkpt>
      <trkpt lat="59.906942" lon="17.6511803">
        <ele>26.5736</ele>
        <time>2013-05-26T14:20:34Z</time>
      </trkpt>
      <trkpt lat="59.9069089" lon="17.6510324">
        <ele>26.5736</ele>
        <time>2013-05-26T14:20:35Z</time>
      </trkpt>
      <trkpt lat="59.9068739" lon="17.6508843">
        <ele>26.0929</ele>
        <time>2013-05-26T14:20:36Z</time>
      </trkpt>
      <trkpt lat="59.906838" lon="17.6507364">
        <ele>25.6123</ele>
        <time>2013-05-26T14:20:37Z</time>
      </trkpt>
      <trkpt lat="59.9068025" lon="17.650589">
        <ele>25.1317</ele>
        <time>2013-05-26T14:20:38Z</time>
      </trkpt>
      <trkpt lat="59.906768" lon="17.6504408">
        <ele>24.651</ele>
        <time>2013-05-26T14:20:39Z</time>
      </trkpt>
      <trkpt lat="59.9067346" lon="17.6502916">
        <ele>24.651</ele>
        <time>2013-05-26T14:20:40Z</time>
      </trkpt>
      <trkpt lat="59.9067011" lon="17.6501438">
        <ele>24.1703</ele>
        <time>2013-05-26T14:20:41Z</time>
      </trkpt>
      <trkpt lat="59.906666" lon="17.6499976">
        <ele>23.6896</ele>
        <time>2013-05-26T14:20:42Z</time>
      </trkpt>
      <trkpt lat="59.9066292" lon="17.649853">
        <ele>23.209</ele>
        <time>2013-05-26T14:20:43Z</time>
      </trkpt>
      <trkpt lat="59.9065906" lon="17.6497061">
        <ele>22.7283</ele>
        <time>2013-05-26T14:20:44Z</time>
      </trkpt>
      <trkpt lat="59.9065509" lon="17.6495536">
        <ele>22.2476</ele>
        <time>2013-05-26T14:20:45Z</time>
      </trkpt>
      <trkpt lat="59.9065105" lon="17.6493966">
        <ele>21.767</ele>
        <time>2013-05-26T14:20:46Z</time>
      </trkpt>
      <trkpt lat="59.9064689" lon="17.6492387">
        <ele>21.2864</ele>
        <time>2013-05-26T14:20:47Z</time>
      </trkpt>
      <trkpt lat="59.9064243" lon="17.6490823">
        <ele>20.8057</ele>
        <time>2013-05-26T14:20:48Z</time>
      </trkpt>
      <trkpt lat="59.9063748" lon="17.64893">
        <ele>20.8057</ele>
        <time>2013-05-26T14:20:49Z</time>
      </trkpt>
      <trkpt lat="59.9063205" lon="17.6487829">
        <ele>19.8444</ele>
        <time>2013-05-26T14:20:50Z</time>
      </trkpt>
      <trkpt lat="59.9062629" lon="17.64864">
        <ele>19.8444</ele>
        <time>2013-05-26T14:20:51Z</time>
      </trkpt>
      <trkpt lat="59.9062044" lon="17.6484988">
        <ele>19.3638</ele>
        <time>2013-05-26T14:20:52Z</time>
      </trkpt>
      <trkpt lat="59.9061485" lon="17.648354">
        <ele>19.3638</ele>
        <time>2013-05-26T14:20:53Z</time>
      </trkpt>
      <trkpt lat="59.9060982" lon="17.6482035">
        <ele>19.3638</ele>
        <time>2013-05-26T14:20:54Z</time>
      </trkpt>
      <trkpt lat="59.9060557" lon="17.6480452">
        <ele>19.3638</ele>
        <time>2013-05-26T14:20:55Z</time>
      </trkpt>
      <trkpt lat="59.906022" lon="17.6478764">
        <ele>20.325</ele>
        <time>2013-05-26T14:20:56Z</time>
      </trkpt>
      <trkpt lat="59.9059951" lon="17.6477063">
        <ele>20.8057</ele>
        <time>2013-05-26T14:20:57Z</time>
      </trkpt>
      <trkpt lat="59.9059742" lon="17.6475348">
        <ele>21.2864</ele>
        <time>2013-05-26T14:20:58Z</time>
      </trkpt>
      <trkpt lat="59.9059595" lon="17.6473624">
        <ele>21.767</ele>
        <time>2013-05-26T14:20:59Z</time>
      </trkpt>
      <trkpt lat="59.9059525" lon="17.6471915">
        <ele>22.2476</ele>
        <time>2013-05-26T14:21:00Z</time>
      </trkpt>
      <trkpt lat="59.9059526" lon="17.6470237">
        <ele>22.2476</ele>
        <time>2013-05-26T14:21:01Z</time>
      </trkpt>
      <trkpt lat="59.9059613" lon="17.6468604">
        <ele>22.2476</ele>
        <time>2013-05-26T14:21:02Z</time>
      </trkpt>
      <trkpt lat="59.9059757" lon="17.6467025">
        <ele>21.767</ele>
        <time>2013-05-26T14:21:03Z</time>
      </trkpt>
      <trkpt lat="59.9059921" lon="17.6465485">
        <ele>21.767</ele>
        <time>2013-05-26T14:21:04Z</time>
      </trkpt>
      <trkpt lat="59.9060099" lon="17.6463969">
        <ele>21.767</ele>
        <time>2013-05-26T14:21:05Z</time>
      </trkpt>
      <trkpt lat="59.9060277" lon="17.6462467">
        <ele>21.767</ele>
        <time>2013-05-26T14:21:06Z</time>
      </trkpt>
      <trkpt lat="59.906046" lon="17.6460971">
        <ele>21.767</ele>
        <time>2013-05-26T14:21:07Z</time>
      </trkpt>
      <trkpt lat="59.9060669" lon="17.645952">
        <ele>21.767</ele>
        <time>2013-05-26T14:21:08Z</time>
      </trkpt>
      <trkpt lat="59.906089" lon="17.6458101">
        <ele>21.767</ele>
        <time>2013-05-26T14:21:09Z</time>
      </trkpt>
      <trkpt lat="59.9061104" lon="17.6456691">
        <ele>21.767</ele>
        <time>2013-05-26T14:21:10Z</time>
      </trkpt>
      <trkpt lat="59.9061287" lon="17.6455278">
        <ele>21.767</ele>
        <time>2013-05-26T14:21:11Z</time>
      </trkpt>
      <trkpt lat="59.9061452" lon="17.6453857">
        <ele>21.767</ele>
        <time>2013-05-26T14:21:12Z</time>
      </trkpt>
      <trkpt lat="59.9061583" lon="17.6452397">
        <ele>21.767</ele>
        <time>2013-05-26T14:21:13Z</time>
      </trkpt>
      <trkpt lat="59.9061651" lon="17.645088">
        <ele>21.767</ele>
        <time>2013-05-26T14:21:14Z</time>
      </trkpt>
      <trkpt lat="59.906164" lon="17.6449314">
        <ele>21.767</ele>
        <time>2013-05-26T14:21:15Z</time>
      </trkpt>
      <trkpt lat="59.9061539" lon="17.6447715">
        <ele>21.2864</ele>
        <time>2013-05-26T14:21:16Z</time>
      </trkpt>
      <trkpt lat="59.9061358" lon="17.6446117">
        <ele>21.767</ele>
        <time>2013-05-26T14:21:17Z</time>
      </trkpt>
      <trkpt lat="59.906107" lon="17.6444562">
        <ele>21.767</ele>
        <time>2013-05-26T14:21:18Z</time>
      </trkpt>
      <trkpt lat="59.9060707" lon="17.6443061">
        <ele>21.2864</ele>
        <time>2013-05-26T14:21:19Z</time>
      </trkpt>
      <trkpt lat="59.9060299" lon="17.6441612">
        <ele>20.8057</ele>
        <time>2013-05-26T14:21:20Z</time>
      </trkpt>
      <trkpt lat="59.9059866" lon="17.6440225">
        <ele>20.325</ele>
        <time>2013-05-26T14:21:21Z</time>
      </trkpt>
      <trkpt lat="59.905942" lon="17.6438928">
        <ele>19.8444</ele>
        <time>2013-05-26T14:21:22Z</time>
      </trkpt>
      <trkpt lat="59.9059033" lon="17.6437657">
        <ele>19.8444</ele>
        <time>2013-05-26T14:21:23Z</time>
      </trkpt>
      <trkpt lat="59.9058749" lon="17.6436448">
        <ele>19.8444</ele>
        <time>2013-05-26T14:21:24Z</time>
      </trkpt>
      <trkpt lat="59.9058481" lon="17.6435293">
        <ele>19.8444</ele>
        <time>2013-05-26T14:21:25Z</time>
      </trkpt>
      <trkpt lat="59.905834" lon="17.6434399">
        <ele>20.325</ele>
        <time>2013-05-26T14:21:26Z</time>
      </trkpt>
      <trkpt lat="59.9058371" lon="17.6433768">
        <ele>20.8057</ele>
        <time>2013-05-26T14:21:27Z</time>
      </trkpt>
      <trkpt lat="59.9058553" lon="17.6433379">
        <ele>21.2864</ele>
        <time>2013-05-26T14:21:28Z</time>
      </trkpt>
      <trkpt lat="59.9058785" lon="17.6433032">
        <ele>21.2864</ele>
        <time>2013-05-26T14:21:29Z</time>
      </trkpt>
      <trkpt lat="59.9059101" lon="17.6432882">
        <ele>21.2864</ele>
        <time>2013-05-26T14:21:30Z</time>
      </trkpt>
      <trkpt lat="59.9059483" lon="17.6432987">
        <ele>21.2864</ele>
        <time>2013-05-26T14:21:31Z</time>
      </trkpt>
      <trkpt lat="59.9059877" lon="17.6433204">
        <ele>21.767</ele>
        <time>2013-05-26T14:21:32Z</time>
      </trkpt>
      <trkpt lat="59.9060309" lon="17.6433448">
        <ele>21.767</ele>
        <time>2013-05-26T14:21:33Z</time>
      </trkpt>
      <trkpt lat="59.9060773" lon="17.643368">
        <ele>22.2476</ele>
        <time>2013-05-26T14:21:34Z</time>
      </trkpt>
      <trkpt lat="59.9061255" lon="17.6433865">
        <ele>22.2476</ele>
        <time>2013-05-26T14:21:35Z</time>
      </trkpt>
      <trkpt lat="59.9061821" lon="17.6434231">
        <ele>22.2476</ele>
        <time>2013-05-26T14:21:36Z</time>
      </trkpt>
      <trkpt lat="59.9062324" lon="17.6434482">
        <ele>22.7283</ele>
        <time>2013-05-26T14:21:37Z</time>
      </trkpt>
      <trkpt lat="59.9062841" lon="17.6434696">
        <ele>22.7283</ele>
        <time>2013-05-26T14:21:38Z</time>
      </trkpt>
      <trkpt lat="59.9063364" lon="17.6434924">
        <ele>22.7283</ele>
        <time>2013-05-26T14:21:39Z</time>
      </trkpt>
      <trkpt lat="59.9063887" lon="17.6435157">
        <ele>22.7283</ele>
        <time>2013-05-26T14:21:40Z</time>
      </trkpt>
      <trkpt lat="59.9064411" lon="17.6435375">
        <ele>22.7283</ele>
        <time>2013-05-26T14:21:41Z</time>
      </trkpt>
      <trkpt lat="59.9064919" lon="17.6435609">
        <ele>22.7283</ele>
        <time>2013-05-26T14:21:42Z</time>
      </trkpt>
      <trkpt lat="59.9065421" lon="17.6435836">
        <ele>22.7283</ele>
        <time>2013-05-26T14:21:43Z</time>
      </trkpt>
      <trkpt lat="59.9065898" lon="17.6436016">
        <ele>23.209</ele>
        <time>2013-05-26T14:21:44Z</time>
      </trkpt>
      <trkpt lat="59.9066383" lon="17.6436153">
        <ele>23.209</ele>
        <time>2013-05-26T14:21:45Z</time>
      </trkpt>
      <trkpt lat="59.9066882" lon="17.6436261">
        <ele>22.7283</ele>
        <time>2013-05-26T14:21:46Z</time>
      </trkpt>
      <trkpt lat="59.9067363" lon="17.643639">
        <ele>22.7283</ele>
        <time>2013-05-26T14:21:47Z</time>
      </trkpt>
      <trkpt lat="59.9067843" lon="17.6436536">
        <ele>22.7283</ele>
        <time>2013-05-26T14:21:48Z</time>
      </trkpt>
      <trkpt lat="59.9068328" lon="17.643667">
        <ele>22.7283</ele>
        <time>2013-05-26T14:21:49Z</time>
      </trkpt>
      <trkpt lat="59.9068813" lon="17.6436778">
        <ele>22.7283</ele>
        <time>2013-05-26T14:21:50Z</time>
      </trkpt>
      <trkpt lat="59.9069307" lon="17.6436845">
        <ele>22.7283</ele>
        <time>2013-05-26T14:21:51Z</time>
      </trkpt>
      <trkpt lat="59.9069798" lon="17.6436929">
        <ele>22.7283</ele>
        <time>2013-05-26T14:21:52Z</time>
      </trkpt>
      <trkpt lat="59.9070275" lon="17.6437084">
        <ele>23.209</ele>
        <time>2013-05-26T14:21:53Z</time>
      </trkpt>
      <trkpt lat="59.9070746" lon="17.6437248">
        <ele>23.209</ele>
        <time>2013-05-26T14:21:54Z</time>
      </trkpt>
      <trkpt lat="59.9071211" lon="17.6437409">
        <ele>23.6896</ele>
        <time>2013-05-26T14:21:55Z</time>
      </trkpt>
      <trkpt lat="59.9071669" lon="17.6437526">
        <ele>23.6896</ele>
        <time>2013-05-26T14:21:56Z</time>
      </trkpt>
      <trkpt lat="59.9072118" lon="17.6437632">
        <ele>23.6896</ele>
        <time>2013-05-26T14:21:57Z</time>
      </trkpt>
      <trkpt lat="59.9072555" lon="17.6437737">
        <ele>24.1703</ele>
        <time>2013-05-26T14:21:58Z</time>
      </trkpt>
      <trkpt lat="59.9072988" lon="17.6437842">
        <ele>24.1703</ele>
        <time>2013-05-26T14:21:59Z</time>
      </trkpt>
      <trkpt lat="59.9073414" lon="17.6437933">
        <ele>24.1703</ele>
        <time>2013-05-26T14:22:00Z</time>
      </trkpt>
      <trkpt lat="59.9073839" lon="17.6438018">
        <ele>24.1703</ele>
        <time>2013-05-26T14:22:01Z</time>
      </trkpt>
      <trkpt lat="59.9074261" lon="17.6438111">
        <ele>24.1703</ele>
        <time>2013-05-26T14:22:02Z</time>
      </trkpt>
      <trkpt lat="59.9074688" lon="17.6438237">
        <ele>24.651</ele>
        <time>2013-05-26T14:22:03Z</time>
      </trkpt>
      <trkpt lat="59.9075114" lon="17.6438357">
        <ele>25.1317</ele>
        <time>2013-05-26T14:22:04Z</time>
      </trkpt>
      <trkpt lat="59.9075536" lon="17.6438466">
        <ele>25.1317</ele>
        <time>2013-05-26T14:22:05Z</time>
      </trkpt>
      <trkpt lat="59.9075952" lon="17.6438565">
        <ele>25.6123</ele>
        <time>2013-05-26T14:22:06Z</time>
      </trkpt>
      <trkpt lat="59.9076367" lon="17.6438654">
        <ele>25.6123</ele>
        <time>2013-05-26T14:22:07Z</time>
      </trkpt>
      <trkpt lat="59.907678" lon="17.6438742">
        <ele>26.0929</ele>
        <time>2013-05-26T14:22:08Z</time>
      </trkpt>
      <trkpt lat="59.9077194" lon="17.6438843">
        <ele>26.0929</ele>
        <time>2013-05-26T14:22:09Z</time>
      </trkpt>
      <trkpt lat="59.9077605" lon="17.6438947">
        <ele>26.0929</ele>
        <time>2013-05-26T14:22:10Z</time>
      </trkpt>
      <trkpt lat="59.9078018" lon="17.6439041">
        <ele>26.5736</ele>
        <time>2013-05-26T14:22:11Z</time>
      </trkpt>
      <trkpt lat="59.9078413" lon="17.6439155">
        <ele>26.5736</ele>
        <time>2013-05-26T14:22:12Z</time>
      </trkpt>
      <trkpt lat="59.9078831" lon="17.6439224">
        <ele>27.0543</ele>
        <time>2013-05-26T14:22:13Z</time>
      </trkpt>
      <trkpt lat="59.9079255" lon="17.6439281">
        <ele>27.0543</ele>
        <time>2013-05-26T14:22:14Z</time>
      </trkpt>
      <trkpt lat="59.9079682" lon="17.6439338">
        <ele>27.0543</ele>
        <time>2013-05-26T14:22:15Z</time>
      </trkpt>
      <trkpt lat="59.9080115" lon="17.6439348">
        <ele>27.5349</ele>
        <time>2013-05-26T14:22:16Z</time>
      </trkpt>
      <trkpt lat="59.9080521" lon="17.6439421">
        <ele>27.5349</ele>
        <time>2013-05-26T14:22:17Z</time>
      </trkpt>
      <trkpt lat="59.9080924" lon="17.6439479">
        <ele>28.0155</ele>
        <time>2013-05-26T14:22:18Z</time>
      </trkpt>
      <trkpt lat="59.9081322" lon="17.6439482">
        <ele>28.4962</ele>
        <time>2013-05-26T14:22:19Z</time>
      </trkpt>
      <trkpt lat="59.9081687" lon="17.6439493">
        <ele>28.4962</ele>
        <time>2013-05-26T14:22:20Z</time>
      </trkpt>
      <trkpt lat="59.9082032" lon="17.6439529">
        <ele>28.9769</ele>
        <time>2013-05-26T14:22:21Z</time>
      </trkpt>
      <trkpt lat="59.9082334" lon="17.6439551">
        <ele>28.9769</ele>
        <time>2013-05-26T14:22:22Z</time>
      </trkpt>
      <trkpt lat="59.9082586" lon="17.6439518">
        <ele>28.9769</ele>
        <time>2013-05-26T14:22:23Z</time>
      </trkpt>
      <trkpt lat="59.9082795" lon="17.6439555">
        <ele>28.4962</ele>
        <time>2013-05-26T14:22:24Z</time>
      </trkpt>
      <trkpt lat="59.9083008" lon="17.643955">
        <ele>28.9769</ele>
        <time>2013-05-26T14:22:25Z</time>
      </trkpt>
      <trkpt lat="59.9083261" lon="17.6439527">
        <ele>28.9769</ele>
        <time>2013-05-26T14:22:26Z</time>
      </trkpt>
      <trkpt lat="59.9083558" lon="17.6439555">
        <ele>28.9769</ele>
        <time>2013-05-26T14:22:27Z</time>
      </trkpt>
      <trkpt lat="59.9083907" lon="17.643958">
        <ele>28.4962</ele>
        <time>2013-05-26T14:22:28Z</time>
      </trkpt>
      <trkpt lat="59.9084301" lon="17.6439591">
        <ele>28.0155</ele>
        <time>2013-05-26T14:22:29Z</time>
      </trkpt>
      <trkpt lat="59.9084722" lon="17.6439598">
        <ele>28.9769</ele>
        <time>2013-05-26T14:22:30Z</time>
      </trkpt>
      <trkpt lat="59.9085153" lon="17.6439607">
        <ele>28.9769</ele>
        <time>2013-05-26T14:22:31Z</time>
      </trkpt>
      <trkpt lat="59.9085587" lon="17.6439617">
        <ele>28.9769</ele>
        <time>2013-05-26T14:22:32Z</time>
      </trkpt>
      <trkpt lat="59.9086018" lon="17.6439618">
        <ele>29.4575</ele>
        <time>2013-05-26T14:22:33Z</time>
      </trkpt>
      <trkpt lat="59.9086452" lon="17.6439603">
        <ele>29.9381</ele>
        <time>2013-05-26T14:22:34Z</time>
      </trkpt>
      <trkpt lat="59.9086898" lon="17.6439612">
        <ele>29.9381</ele>
        <time>2013-05-26T14:22:35Z</time>
      </trkpt>
      <trkpt lat="59.9087358" lon="17.6439628">
        <ele>29.9381</ele>
        <time>2013-05-26T14:22:36Z</time>
      </trkpt>
      <trkpt lat="59.9087805" lon="17.6439673">
        <ele>29.4575</ele>
        <time>2013-05-26T14:22:37Z</time>
      </trkpt>
      <trkpt lat="59.9088297" lon="17.6439659">
        <ele>29.4575</ele>
        <time>2013-05-26T14:22:38Z</time>
      </trkpt>
      <trkpt lat="59.9088795" lon="17.6439659">
        <ele>29.9381</ele>
        <time>2013-05-26T14:22:39Z</time>
      </trkpt>
      <trkpt lat="59.9089305" lon="17.6439638">
        <ele>29.9381</ele>
        <time>2013-05-26T14:22:40Z</time>
      </trkpt>
      <trkpt lat="59.908982" lon="17.6439624">
        <ele>29.9381</ele>
        <time>2013-05-26T14:22:41Z</time>
      </trkpt>
      <trkpt lat="59.9090322" lon="17.6439643">
        <ele>28.9769</ele>
        <time>2013-05-26T14:22:42Z</time>
      </trkpt>
      <trkpt lat="59.9090844" lon="17.6439581">
        <ele>28.9769</ele>
        <time>2013-05-26T14:22:43Z</time>
      </trkpt>
      <trkpt lat="59.9091374" lon="17.6439533">
        <ele>28.9769</ele>
        <time>2013-05-26T14:22:44Z</time>
      </trkpt>
      <trkpt lat="59.909191" lon="17.6439468">
        <ele>28.9769</ele>
        <time>2013-05-26T14:22:45Z</time>
      </trkpt>
      <trkpt lat="59.9092444" lon="17.6439413">
        <ele>28.9769</ele>
        <time>2013-05-26T14:22:46Z</time>
      </trkpt>
      <trkpt lat="59.909297" lon="17.6439348">
        <ele>28.9769</ele>
        <time>2013-05-26T14:22:47Z</time>
      </trkpt>
      <trkpt lat="59.9093512" lon="17.643928">
        <ele>28.9769</ele>
        <time>2013-05-26T14:22:48Z</time>
      </trkpt>
      <trkpt lat="59.9094051" lon="17.6439208">
        <ele>28.9769</ele>
        <time>2013-05-26T14:22:49Z</time>
      </trkpt>
      <trkpt lat="59.9094595" lon="17.6439141">
        <ele>28.9769</ele>
        <time>2013-05-26T14:22:50Z</time>
      </trkpt>
      <trkpt lat="59.9095139" lon="17.6439058">
        <ele>28.9769</ele>
        <time>2013-05-26T14:22:51Z</time>
      </trkpt>
      <trkpt lat="59.9095686" lon="17.6438971">
        <ele>28.9769</ele>
        <time>2013-05-26T14:22:52Z</time>
      </trkpt>
      <trkpt lat="59.9096236" lon="17.6438897">
        <ele>28.9769</ele>
        <time>2013-05-26T14:22:53Z</time>
      </trkpt>
      <trkpt lat="59.9096787" lon="17.6438818">
        <ele>28.9769</ele>
        <time>2013-05-26T14:22:54Z</time>
      </trkpt>
      <trkpt lat="59.9097339" lon="17.6438715">
        <ele>28.9769</ele>
        <time>2013-05-26T14:22:55Z</time>
      </trkpt>
      <trkpt lat="59.9097877" lon="17.6438581">
        <ele>28.9769</ele>
        <time>2013-05-26T14:22:56Z</time>
      </trkpt>
      <trkpt lat="59.9098437" lon="17.6438442">
        <ele>28.9769</ele>
        <time>2013-05-26T14:22:57Z</time>
      </trkpt>
      <trkpt lat="59.9098992" lon="17.6438315">
        <ele>28.9769</ele>
        <time>2013-05-26T14:22:58Z</time>
      </trkpt>
      <trkpt lat="59.9099531" lon="17.6438244">
        <ele>28.9769</ele>
        <time>2013-05-26T14:22:59Z</time>
      </trkpt>
      <trkpt lat="59.9100029" lon="17.6438144">
        <ele>28.4962</ele>
        <time>2013-05-26T14:23:00Z</time>
      </trkpt>
      <trkpt lat="59.9100511" lon="17.6437942">
        <ele>27.5349</ele>
        <time>2013-05-26T14:23:01Z</time>
      </trkpt>
      <trkpt lat="59.9100972" lon="17.6437706">
        <ele>27.0543</ele>
        <time>2013-05-26T14:23:02Z</time>
      </trkpt>
      <trkpt lat="59.9101429" lon="17.6437457">
        <ele>26.5736</ele>
        <time>2013-05-26T14:23:03Z</time>
      </trkpt>
      <trkpt lat="59.9101889" lon="17.6437201">
        <ele>26.0929</ele>
        <time>2013-05-26T14:23:04Z</time>
      </trkpt>
      <trkpt lat="59.9102354" lon="17.6436971">
        <ele>25.6123</ele>
        <time>2013-05-26T14:23:05Z</time>
      </trkpt>
      <trkpt lat="59.9102827" lon="17.6436825">
        <ele>25.1317</ele>
        <time>2013-05-26T14:23:06Z</time>
      </trkpt>
      <trkpt lat="59.9103311" lon="17.6436721">
        <ele>24.651</ele>
        <time>2013-05-26T14:23:07Z</time>
      </trkpt>
      <trkpt lat="59.9103793" lon="17.6436593">
        <ele>24.651</ele>
        <time>2013-05-26T14:23:08Z</time>
      </trkpt>
      <trkpt lat="59.9104287" lon="17.6436391">
        <ele>24.651</ele>
        <time>2013-05-26T14:23:09Z</time>
      </trkpt>
      <trkpt lat="59.9104758" lon="17.6436067">
        <ele>24.651</ele>
        <time>2013-05-26T14:23:10Z</time>
      </trkpt>
      <trkpt lat="59.9105194" lon="17.6435573">
        <ele>24.651</ele>
        <time>2013-05-26T14:23:11Z</time>
      </trkpt>
      <trkpt lat="59.9105692" lon="17.643508">
        <ele>24.1703</ele>
        <time>2013-05-26T14:23:12Z</time>
      </trkpt>
      <trkpt lat="59.91063" lon="17.6434736">
        <ele>25.1317</ele>
        <time>2013-05-26T14:23:13Z</time>
      </trkpt>
      <trkpt lat="59.910692" lon="17.6434501">
        <ele>25.6123</ele>
        <time>2013-05-26T14:23:14Z</time>
      </trkpt>
      <trkpt lat="59.9107513" lon="17.6434324">
        <ele>26.0929</ele>
        <time>2013-05-26T14:23:15Z</time>
      </trkpt>
      <trkpt lat="59.9108084" lon="17.6434218">
        <ele>26.0929</ele>
        <time>2013-05-26T14:23:16Z</time>
      </trkpt>
      <trkpt lat="59.9108635" lon="17.6434136">
        <ele>26.5736</ele>
        <time>2013-05-26T14:23:17Z</time>
      </trkpt>
      <trkpt lat="59.9109188" lon="17.6434043">
        <ele>26.5736</ele>
        <time>2013-05-26T14:23:18Z</time>
      </trkpt>
      <trkpt lat="59.9109733" lon="17.6433938">
        <ele>27.0543</ele>
        <time>2013-05-26T14:23:19Z</time>
      </trkpt>
      <trkpt lat="59.9110292" lon="17.6433852">
        <ele>27.0543</ele>
        <time>2013-05-26T14:23:20Z</time>
      </trkpt>
      <trkpt lat="59.9110856" lon="17.6433799">
        <ele>27.0543</ele>
        <time>2013-05-26T14:23:21Z</time>
      </trkpt>
      <trkpt lat="59.9111408" lon="17.6433723">
        <ele>27.0543</ele>
        <time>2013-05-26T14:23:22Z</time>
      </trkpt>
      <trkpt lat="59.9111973" lon="17.6433614">
        <ele>27.0543</ele>
        <time>2013-05-26T14:23:23Z</time>
      </trkpt>
      <trkpt lat="59.9112525" lon="17.6433464">
        <ele>27.5349</ele>
        <time>2013-05-26T14:23:24Z</time>
      </trkpt>
      <trkpt lat="59.9113083" lon="17.643329">
        <ele>27.5349</ele>
        <time>2013-05-26T14:23:25Z</time>
      </trkpt>
      <trkpt lat="59.9113649" lon="17.6433115">
        <ele>27.5349</ele>
        <time>2013-05-26T14:23:26Z</time>
      </trkpt>
      <trkpt lat="59.9114229" lon="17.6432974">
        <ele>27.5349</ele>
        <time>2013-05-26T14:23:27Z</time>
      </trkpt>
      <trkpt lat="59.9114824" lon="17.6432848">
        <ele>27.5349</ele>
        <time>2013-05-26T14:23:28Z</time>
      </trkpt>
      <trkpt lat="59.9115434" lon="17.6432736">
        <ele>27.5349</ele>
        <time>2013-05-26T14:23:29Z</time>
      </trkpt>
      <trkpt lat="59.9116056" lon="17.6432636">
        <ele>27.5349</ele>
        <time>2013-05-26T14:23:30Z</time>
      </trkpt>
      <trkpt lat="59.9116692" lon="17.643254">
        <ele>27.0543</ele>
        <time>2013-05-26T14:23:31Z</time>
      </trkpt>
      <trkpt lat="59.9117339" lon="17.6432438">
        <ele>27.0543</ele>
        <time>2013-05-26T14:23:32Z</time>
      </trkpt>
      <trkpt lat="59.9117976" lon="17.6432309">
        <ele>27.0543</ele>
        <time>2013-05-26T14:23:33Z</time>
      </trkpt>
      <trkpt lat="59.9118614" lon="17.6432154">
        <ele>27.5349</ele>
        <time>2013-05-26T14:23:34Z</time>
      </trkpt>
      <trkpt lat="59.9119216" lon="17.6431973">
        <ele>27.5349</ele>
        <time>2013-05-26T14:23:35Z</time>
      </trkpt>
      <trkpt lat="59.9119796" lon="17.6431807">
        <ele>28.0155</ele>
        <time>2013-05-26T14:23:36Z</time>
      </trkpt>
      <trkpt lat="59.9120382" lon="17.6431626">
        <ele>28.0155</ele>
        <time>2013-05-26T14:23:37Z</time>
      </trkpt>
      <trkpt lat="59.9120994" lon="17.6431429">
        <ele>28.0155</ele>
        <time>2013-05-26T14:23:38Z</time>
      </trkpt>
      <trkpt lat="59.9121623" lon="17.6431226">
        <ele>28.0155</ele>
        <time>2013-05-26T14:23:39Z</time>
      </trkpt>
      <trkpt lat="59.9122247" lon="17.6431035">
        <ele>28.0155</ele>
        <time>2013-05-26T14:23:40Z</time>
      </trkpt>
      <trkpt lat="59.9122904" lon="17.6430833">
        <ele>27.5349</ele>
        <time>2013-05-26T14:23:41Z</time>
      </trkpt>
      <trkpt lat="59.9123573" lon="17.6430656">
        <ele>27.0543</ele>
        <time>2013-05-26T14:23:42Z</time>
      </trkpt>
      <trkpt lat="59.9124253" lon="17.6430529">
        <ele>26.5736</ele>
        <time>2013-05-26T14:23:43Z</time>
      </trkpt>
      <trkpt lat="59.9124954" lon="17.6430459">
        <ele>26.0929</ele>
        <time>2013-05-26T14:23:44Z</time>
      </trkpt>
      <trkpt lat="59.912566" lon="17.6430481">
        <ele>26.0929</ele>
        <time>2013-05-26T14:23:45Z</time>
      </trkpt>
      <trkpt lat="59.9126348" lon="17.6430691">
        <ele>26.0929</ele>
        <time>2013-05-26T14:23:46Z</time>
      </trkpt>
      <trkpt lat="59.9127012" lon="17.6431013">
        <ele>26.5736</ele>
        <time>2013-05-26T14:23:47Z</time>
      </trkpt>
      <trkpt lat="59.9127632" lon="17.6431255">
        <ele>26.5736</ele>
        <time>2013-05-26T14:23:48Z</time>
      </trkpt>
      <trkpt lat="59.9128204" lon="17.6431323">
        <ele>26.5736</ele>
        <time>2013-05-26T14:23:49Z</time>
      </trkpt>
      <trkpt lat="59.9128784" lon="17.6431292">
        <ele>27.0543</ele>
        <time>2013-05-26T14:23:50Z</time>
      </trkpt>
      <trkpt lat="59.9129376" lon="17.6431198">
        <ele>26.5736</ele>
        <time>2013-05-26T14:23:51Z</time>
      </trkpt>
      <trkpt lat="59.912996" lon="17.6431106">
        <ele>26.5736</ele>
        <time>2013-05-26T14:23:52Z</time>
      </trkpt>
      <trkpt lat="59.913055" lon="17.643098">
        <ele>27.0543</ele>
        <time>2013-05-26T14:23:53Z</time>
      </trkpt>
      <trkpt lat="59.9131136" lon="17.6430854">
        <ele>27.0543</ele>
        <time>2013-05-26T14:23:54Z</time>
      </trkpt>
      <trkpt lat="59.913173" lon="17.6430754">
        <ele>26.5736</ele>
        <time>2013-05-26T14:23:55Z</time>
      </trkpt>
      <trkpt lat="59.9132336" lon="17.6430671">
        <ele>27.0543</ele>
        <time>2013-05-26T14:23:56Z</time>
      </trkpt>
      <trkpt lat="59.9132934" lon="17.6430568">
        <ele>26.5736</ele>
        <time>2013-05-26T14:23:57Z</time>
      </trkpt>
      <trkpt lat="59.9133553" lon="17.6430362">
        <ele>26.5736</ele>
        <time>2013-05-26T14:23:58Z</time>
      </trkpt>
      <trkpt lat="59.9134174" lon="17.643017">
        <ele>26.5736</ele>
        <time>2013-05-26T14:23:59Z</time>
      </trkpt>
      <trkpt lat="59.9134803" lon="17.6430033">
        <ele>26.5736</ele>
        <time>2013-05-26T14:24:00Z</time>
      </trkpt>
      <trkpt lat="59.9135425" lon="17.6429903">
        <ele>26.5736</ele>
        <time>2013-05-26T14:24:01Z</time>
      </trkpt>
      <trkpt lat="59.9136052" lon="17.6429723">
        <ele>26.0929</ele>
        <time>2013-05-26T14:24:02Z</time>
      </trkpt>
      <trkpt lat="59.9136695" lon="17.6429548">
        <ele>25.6123</ele>
        <time>2013-05-26T14:24:03Z</time>
      </trkpt>
      <trkpt lat="59.9137352" lon="17.6429392">
        <ele>25.1317</ele>
        <time>2013-05-26T14:24:04Z</time>
      </trkpt>
      <trkpt lat="59.913801" lon="17.6429242">
        <ele>25.1317</ele>
        <time>2013-05-26T14:24:05Z</time>
      </trkpt>
      <trkpt lat="59.9138671" lon="17.6429107">
        <ele>25.1317</ele>
        <time>2013-05-26T14:24:06Z</time>
      </trkpt>
      <trkpt lat="59.9139341" lon="17.6428988">
        <ele>25.1317</ele>
        <time>2013-05-26T14:24:07Z</time>
      </trkpt>
      <trkpt lat="59.9140019" lon="17.6428882">
        <ele>25.1317</ele>
        <time>2013-05-26T14:24:08Z</time>
      </trkpt>
      <trkpt lat="59.9140698" lon="17.6428782">
        <ele>24.651</ele>
        <time>2013-05-26T14:24:09Z</time>
      </trkpt>
      <trkpt lat="59.9141361" lon="17.6428628">
        <ele>24.1703</ele>
        <time>2013-05-26T14:24:10Z</time>
      </trkpt>
      <trkpt lat="59.9142057" lon="17.6428473">
        <ele>24.1703</ele>
        <time>2013-05-26T14:24:11Z</time>
      </trkpt>
      <trkpt lat="59.914277" lon="17.6428346">
        <ele>24.1703</ele>
        <time>2013-05-26T14:24:12Z</time>
      </trkpt>
      <trkpt lat="59.9143486" lon="17.6428227">
        <ele>23.6896</ele>
        <time>2013-05-26T14:24:13Z</time>
      </trkpt>
      <trkpt lat="59.91442" lon="17.6428082">
        <ele>23.6896</ele>
        <time>2013-05-26T14:24:14Z</time>
      </trkpt>
      <trkpt lat="59.9144894" lon="17.6427911">
        <ele>22.7283</ele>
        <time>2013-05-26T14:24:15Z</time>
      </trkpt>
      <trkpt lat="59.9145589" lon="17.6427746">
        <ele>21.767</ele>
        <time>2013-05-26T14:24:16Z</time>
      </trkpt>
      <trkpt lat="59.9146296" lon="17.642762">
        <ele>21.2864</ele>
        <time>2013-05-26T14:24:17Z</time>
      </trkpt>
      <trkpt lat="59.9147014" lon="17.6427517">
        <ele>20.8057</ele>
        <time>2013-05-26T14:24:18Z</time>
      </trkpt>
      <trkpt lat="59.9147742" lon="17.6427413">
        <ele>20.325</ele>
        <time>2013-05-26T14:24:19Z</time>
      </trkpt>
      <trkpt lat="59.9148466" lon="17.6427268">
        <ele>20.325</ele>
        <time>2013-05-26T14:24:20Z</time>
      </trkpt>
      <trkpt lat="59.9149178" lon="17.6427079">
        <ele>20.325</ele>
        <time>2013-05-26T14:24:21Z</time>
      </trkpt>
      <trkpt lat="59.9149876" lon="17.6426919">
        <ele>19.8444</ele>
        <time>2013-05-26T14:24:22Z</time>
      </trkpt>
      <trkpt lat="59.9150566" lon="17.6426802">
        <ele>19.8444</ele>
        <time>2013-05-26T14:24:23Z</time>
      </trkpt>
      <trkpt lat="59.9151241" lon="17.6426662">
        <ele>19.8444</ele>
        <time>2013-05-26T14:24:24Z</time>
      </trkpt>
      <trkpt lat="59.9151908" lon="17.6426423">
        <ele>19.3638</ele>
        <time>2013-05-26T14:24:25Z</time>
      </trkpt>
      <trkpt lat="59.9152585" lon="17.6426034">
        <ele>19.3638</ele>
        <time>2013-05-26T14:24:26Z</time>
      </trkpt>
      <trkpt lat="59.9153263" lon="17.6425464">
        <ele>18.8831</ele>
        <time>2013-05-26T14:24:27Z</time>
      </trkpt>
      <trkpt lat="59.9154" lon="17.6424978">
        <ele>17.9218</ele>
        <time>2013-05-26T14:24:28Z</time>
      </trkpt>
      <trkpt lat="59.9154823" lon="17.6424692">
        <ele>17.9218</ele>
        <time>2013-05-26T14:24:29Z</time>
      </trkpt>
      <trkpt lat="59.9155665" lon="17.6424529">
        <ele>17.9218</ele>
        <time>2013-05-26T14:24:30Z</time>
      </trkpt>
      <trkpt lat="59.9156506" lon="17.6424402">
        <ele>17.9218</ele>
        <time>2013-05-26T14:24:31Z</time>
      </trkpt>
      <trkpt lat="59.9157335" lon="17.6424305">
        <ele>17.9218</ele>
        <time>2013-05-26T14:24:32Z</time>
      </trkpt>
      <trkpt lat="59.915816" lon="17.6424217">
        <ele>18.4023</ele>
        <time>2013-05-26T14:24:33Z</time>
      </trkpt>
      <trkpt lat="59.9158963" lon="17.642416">
        <ele>18.4023</ele>
        <time>2013-05-26T14:24:34Z</time>
      </trkpt>
      <trkpt lat="59.9159741" lon="17.6424125">
        <ele>18.4023</ele>
        <time>2013-05-26T14:24:35Z</time>
      </trkpt>
      <trkpt lat="59.91605" lon="17.6424085">
        <ele>18.8831</ele>
        <time>2013-05-26T14:24:36Z</time>
      </trkpt>
      <trkpt lat="59.9161244" lon="17.6424051">
        <ele>18.8831</ele>
        <time>2013-05-26T14:24:37Z</time>
      </trkpt>
      <trkpt lat="59.9161973" lon="17.6424036">
        <ele>18.8831</ele>
        <time>2013-05-26T14:24:38Z</time>
      </trkpt>
      <trkpt lat="59.9162687" lon="17.6424004">
        <ele>19.3638</ele>
        <time>2013-05-26T14:24:39Z</time>
      </trkpt>
      <trkpt lat="59.9163396" lon="17.6423926">
        <ele>19.3638</ele>
        <time>2013-05-26T14:24:40Z</time>
      </trkpt>
      <trkpt lat="59.9164102" lon="17.6423813">
        <ele>19.3638</ele>
        <time>2013-05-26T14:24:41Z</time>
      </trkpt>
      <trkpt lat="59.916481" lon="17.6423707">
        <ele>19.3638</ele>
        <time>2013-05-26T14:24:42Z</time>
      </trkpt>
      <trkpt lat="59.9165516" lon="17.6423677">
        <ele>19.3638</ele>
        <time>2013-05-26T14:24:43Z</time>
      </trkpt>
      <trkpt lat="59.9166221" lon="17.6423664">
        <ele>19.3638</ele>
        <time>2013-05-26T14:24:44Z</time>
      </trkpt>
      <trkpt lat="59.9166929" lon="17.6423606">
        <ele>18.8831</ele>
        <time>2013-05-26T14:24:45Z</time>
      </trkpt>
      <trkpt lat="59.9167635" lon="17.6423524">
        <ele>18.8831</ele>
        <time>2013-05-26T14:24:46Z</time>
      </trkpt>
      <trkpt lat="59.916834" lon="17.6423422">
        <ele>18.8831</ele>
        <time>2013-05-26T14:24:47Z</time>
      </trkpt>
      <trkpt lat="59.916904" lon="17.6423298">
        <ele>18.8831</ele>
        <time>2013-05-26T14:24:48Z</time>
      </trkpt>
      <trkpt lat="59.9169734" lon="17.6423165">
        <ele>18.4023</ele>
        <time>2013-05-26T14:24:49Z</time>
      </trkpt>
      <trkpt lat="59.9170421" lon="17.6422989">
        <ele>18.4023</ele>
        <time>2013-05-26T14:24:50Z</time>
      </trkpt>
      <trkpt lat="59.9171094" lon="17.6422756">
        <ele>18.4023</ele>
        <time>2013-05-26T14:24:51Z</time>
      </trkpt>
      <trkpt lat="59.9171766" lon="17.6422535">
        <ele>17.9218</ele>
        <time>2013-05-26T14:24:52Z</time>
      </trkpt>
      <trkpt lat="59.9172443" lon="17.6422413">
        <ele>17.9218</ele>
        <time>2013-05-26T14:24:53Z</time>
      </trkpt>
      <trkpt lat="59.9173108" lon="17.6422405">
        <ele>17.9218</ele>
        <time>2013-05-26T14:24:54Z</time>
      </trkpt>
      <trkpt lat="59.9173748" lon="17.642244">
        <ele>17.9218</ele>
        <time>2013-05-26T14:24:55Z</time>
      </trkpt>
      <trkpt lat="59.9174374" lon="17.6422461">
        <ele>17.9218</ele>
        <time>2013-05-26T14:24:56Z</time>
      </trkpt>
      <trkpt lat="59.9175001" lon="17.6422424">
        <ele>17.9218</ele>
        <time>2013-05-26T14:24:57Z</time>
      </trkpt>
      <trkpt lat="59.9175623" lon="17.6422399">
        <ele>17.9218</ele>
        <time>2013-05-26T14:24:58Z</time>
      </trkpt>
      <trkpt lat="59.9176239" lon="17.6422418">
        <ele>17.9218</ele>
        <time>2013-05-26T14:24:59Z</time>
      </trkpt>
      <trkpt lat="59.9176849" lon="17.6422435">
        <ele>17.9218</ele>
        <time>2013-05-26T14:25:00Z</time>
      </trkpt>
      <trkpt lat="59.9177454" lon="17.6422426">
        <ele>17.9218</ele>
        <time>2013-05-26T14:25:01Z</time>
      </trkpt>
      <trkpt lat="59.9178053" lon="17.6422398">
        <ele>17.9218</ele>
        <time>2013-05-26T14:25:02Z</time>
      </trkpt>
      <trkpt lat="59.9178648" lon="17.6422364">
        <ele>17.9218</ele>
        <time>2013-05-26T14:25:03Z</time>
      </trkpt>
      <trkpt lat="59.9179239" lon="17.642232">
        <ele>18.4023</ele>
        <time>2013-05-26T14:25:04Z</time>
      </trkpt>
      <trkpt lat="59.9179839" lon="17.642227">
        <ele>18.4023</ele>
        <time>2013-05-26T14:25:05Z</time>
      </trkpt>
      <trkpt lat="59.9180435" lon="17.6422259">
        <ele>18.4023</ele>
        <time>2013-05-26T14:25:06Z</time>
      </trkpt>
      <trkpt lat="59.9181009" lon="17.6422247">
        <ele>18.4023</ele>
        <time>2013-05-26T14:25:07Z</time>
      </trkpt>
      <trkpt lat="59.918156" lon="17.6422205">
        <ele>18.8831</ele>
        <time>2013-05-26T14:25:08Z</time>
      </trkpt>
      <trkpt lat="59.9182091" lon="17.6422153">
        <ele>19.3638</ele>
        <time>2013-05-26T14:25:09Z</time>
      </trkpt>
      <trkpt lat="59.9182609" lon="17.6422098">
        <ele>19.3638</ele>
        <time>2013-05-26T14:25:10Z</time>
      </trkpt>
      <trkpt lat="59.9183122" lon="17.6422037">
        <ele>19.8444</ele>
        <time>2013-05-26T14:25:11Z</time>
      </trkpt>
      <trkpt lat="59.9183626" lon="17.6421978">
        <ele>20.325</ele>
        <time>2013-05-26T14:25:12Z</time>
      </trkpt>
      <trkpt lat="59.9184133" lon="17.6421916">
        <ele>20.8057</ele>
        <time>2013-05-26T14:25:13Z</time>
      </trkpt>
      <trkpt lat="59.918465" lon="17.6421853">
        <ele>20.8057</ele>
        <time>2013-05-26T14:25:14Z</time>
      </trkpt>
      <trkpt lat="59.9185179" lon="17.6421782">
        <ele>21.2864</ele>
        <time>2013-05-26T14:25:15Z</time>
      </trkpt>
      <trkpt lat="59.9185723" lon="17.6421684">
        <ele>21.2864</ele>
        <time>2013-05-26T14:25:16Z</time>
      </trkpt>
      <trkpt lat="59.9186287" lon="17.6421601">
        <ele>21.767</ele>
        <time>2013-05-26T14:25:17Z</time>
      </trkpt>
      <trkpt lat="59.9186863" lon="17.6421548">
        <ele>21.767</ele>
        <time>2013-05-26T14:25:18Z</time>
      </trkpt>
      <trkpt lat="59.9187437" lon="17.642148">
        <ele>22.2476</ele>
        <time>2013-05-26T14:25:19Z</time>
      </trkpt>
      <trkpt lat="59.9188018" lon="17.6421402">
        <ele>22.2476</ele>
        <time>2013-05-26T14:25:20Z</time>
      </trkpt>
      <trkpt lat="59.9188604" lon="17.6421342">
        <ele>22.7283</ele>
        <time>2013-05-26T14:25:21Z</time>
      </trkpt>
      <trkpt lat="59.918919" lon="17.6421275">
        <ele>22.7283</ele>
        <time>2013-05-26T14:25:22Z</time>
      </trkpt>
      <trkpt lat="59.9189769" lon="17.6421188">
        <ele>23.209</ele>
        <time>2013-05-26T14:25:23Z</time>
      </trkpt>
      <trkpt lat="59.919034" lon="17.6421093">
        <ele>23.209</ele>
        <time>2013-05-26T14:25:24Z</time>
      </trkpt>
      <trkpt lat="59.9190904" lon="17.6421004">
        <ele>23.209</ele>
        <time>2013-05-26T14:25:25Z</time>
      </trkpt>
      <trkpt lat="59.9191469" lon="17.6420937">
        <ele>23.6896</ele>
        <time>2013-05-26T14:25:26Z</time>
      </trkpt>
      <trkpt lat="59.9192038" lon="17.6420882">
        <ele>23.6896</ele>
        <time>2013-05-26T14:25:27Z</time>
      </trkpt>
      <trkpt lat="59.9192612" lon="17.6420792">
        <ele>23.6896</ele>
        <time>2013-05-26T14:25:28Z</time>
      </trkpt>
      <trkpt lat="59.9193198" lon="17.6420684">
        <ele>24.1703</ele>
        <time>2013-05-26T14:25:29Z</time>
      </trkpt>
      <trkpt lat="59.91938" lon="17.6420622">
        <ele>24.1703</ele>
        <time>2013-05-26T14:25:30Z</time>
      </trkpt>
      <trkpt lat="59.9194422" lon="17.642058">
        <ele>24.1703</ele>
        <time>2013-05-26T14:25:31Z</time>
      </trkpt>
      <trkpt lat="59.9195058" lon="17.642054">
        <ele>24.1703</ele>
        <time>2013-05-26T14:25:32Z</time>
      </trkpt>
      <trkpt lat="59.9195685" lon="17.6420492">
        <ele>24.651</ele>
        <time>2013-05-26T14:25:33Z</time>
      </trkpt>
      <trkpt lat="59.9196294" lon="17.642043">
        <ele>24.651</ele>
        <time>2013-05-26T14:25:34Z</time>
      </trkpt>
      <trkpt lat="59.9196878" lon="17.6420345">
        <ele>24.651</ele>
        <time>2013-05-26T14:25:35Z</time>
      </trkpt>
      <trkpt lat="59.9197427" lon="17.6420227">
        <ele>24.651</ele>
        <time>2013-05-26T14:25:36Z</time>
      </trkpt>
      <trkpt lat="59.9197965" lon="17.6420071">
        <ele>24.1703</ele>
        <time>2013-05-26T14:25:37Z</time>
      </trkpt>
      <trkpt lat="59.9198498" lon="17.6419923">
        <ele>23.6896</ele>
        <time>2013-05-26T14:25:38Z</time>
      </trkpt>
      <trkpt lat="59.9199041" lon="17.6419807">
        <ele>23.6896</ele>
        <time>2013-05-26T14:25:39Z</time>
      </trkpt>
      <trkpt lat="59.9199591" lon="17.6419699">
        <ele>23.209</ele>
        <time>2013-05-26T14:25:40Z</time>
      </trkpt>
      <trkpt lat="59.9200164" lon="17.6419602">
        <ele>23.209</ele>
        <time>2013-05-26T14:25:41Z</time>
      </trkpt>
      <trkpt lat="59.9200747" lon="17.6419544">
        <ele>23.209</ele>
        <time>2013-05-26T14:25:42Z</time>
      </trkpt>
      <trkpt lat="59.9201336" lon="17.6419494">
        <ele>23.209</ele>
        <time>2013-05-26T14:25:43Z</time>
      </trkpt>
      <trkpt lat="59.9201913" lon="17.641947">
        <ele>22.7283</ele>
        <time>2013-05-26T14:25:44Z</time>
      </trkpt>
      <trkpt lat="59.9202477" lon="17.6419456">
        <ele>22.7283</ele>
        <time>2013-05-26T14:25:45Z</time>
      </trkpt>
      <trkpt lat="59.9203052" lon="17.6419437">
        <ele>22.7283</ele>
        <time>2013-05-26T14:25:46Z</time>
      </trkpt>
      <trkpt lat="59.9203657" lon="17.6419409">
        <ele>22.2476</ele>
        <time>2013-05-26T14:25:47Z</time>
      </trkpt>
      <trkpt lat="59.9204272" lon="17.6419384">
        <ele>22.2476</ele>
        <time>2013-05-26T14:25:48Z</time>
      </trkpt>
      <trkpt lat="59.920489" lon="17.6419378">
        <ele>21.767</ele>
        <time>2013-05-26T14:25:49Z</time>
      </trkpt>
      <trkpt lat="59.9205508" lon="17.6419374">
        <ele>21.767</ele>
        <time>2013-05-26T14:25:50Z</time>
      </trkpt>
      <trkpt lat="59.9206113" lon="17.6419332">
        <ele>21.2864</ele>
        <time>2013-05-26T14:25:51Z</time>
      </trkpt>
      <trkpt lat="59.9206711" lon="17.641928">
        <ele>20.8057</ele>
        <time>2013-05-26T14:25:52Z</time>
      </trkpt>
      <trkpt lat="59.9207315" lon="17.6419278">
        <ele>20.8057</ele>
        <time>2013-05-26T14:25:53Z</time>
      </trkpt>
      <trkpt lat="59.9207921" lon="17.6419301">
        <ele>20.8057</ele>
        <time>2013-05-26T14:25:54Z</time>
      </trkpt>
      <trkpt lat="59.9208532" lon="17.6419318">
        <ele>20.8057</ele>
        <time>2013-05-26T14:25:55Z</time>
      </trkpt>
      <trkpt lat="59.9209122" lon="17.6419317">
        <ele>20.8057</ele>
        <time>2013-05-26T14:25:56Z</time>
      </trkpt>
      <trkpt lat="59.92097" lon="17.6419294">
        <ele>21.2864</ele>
        <time>2013-05-26T14:25:57Z</time>
      </trkpt>
      <trkpt lat="59.9210267" lon="17.6419276">
        <ele>21.2864</ele>
        <time>2013-05-26T14:25:58Z</time>
      </trkpt>
      <trkpt lat="59.9210824" lon="17.6419245">
        <ele>21.2864</ele>
        <time>2013-05-26T14:25:59Z</time>
      </trkpt>
      <trkpt lat="59.9211366" lon="17.6419203">
        <ele>21.2864</ele>
        <time>2013-05-26T14:26:00Z</time>
      </trkpt>
      <trkpt lat="59.9211915" lon="17.6419165">
        <ele>21.2864</ele>
        <time>2013-05-26T14:26:01Z</time>
      </trkpt>
      <trkpt lat="59.9212447" lon="17.6419128">
        <ele>21.2864</ele>
        <time>2013-05-26T14:26:02Z</time>
      </trkpt>
      <trkpt lat="59.9212982" lon="17.6419083">
        <ele>21.767</ele>
        <time>2013-05-26T14:26:03Z</time>
      </trkpt>
      <trkpt lat="59.9213519" lon="17.6419005">
        <ele>22.2476</ele>
        <time>2013-05-26T14:26:04Z</time>
      </trkpt>
      <trkpt lat="59.9214022" lon="17.6418897">
        <ele>22.7283</ele>
        <time>2013-05-26T14:26:05Z</time>
      </trkpt>
      <trkpt lat="59.9214497" lon="17.6418814">
        <ele>22.7283</ele>
        <time>2013-05-26T14:26:06Z</time>
      </trkpt>
      <trkpt lat="59.9214965" lon="17.6418773">
        <ele>22.7283</ele>
        <time>2013-05-26T14:26:07Z</time>
      </trkpt>
      <trkpt lat="59.9215416" lon="17.6418722">
        <ele>23.209</ele>
        <time>2013-05-26T14:26:08Z</time>
      </trkpt>
      <trkpt lat="59.9215828" lon="17.6418705">
        <ele>22.7283</ele>
        <time>2013-05-26T14:26:09Z</time>
      </trkpt>
      <trkpt lat="59.9216281" lon="17.6418659">
        <ele>22.7283</ele>
        <time>2013-05-26T14:26:10Z</time>
      </trkpt>
      <trkpt lat="59.9216794" lon="17.6418559">
        <ele>22.2476</ele>
        <time>2013-05-26T14:26:11Z</time>
      </trkpt>
      <trkpt lat="59.9217311" lon="17.6418476">
        <ele>22.7283</ele>
        <time>2013-05-26T14:26:12Z</time>
      </trkpt>
      <trkpt lat="59.921785" lon="17.6418396">
        <ele>22.7283</ele>
        <time>2013-05-26T14:26:13Z</time>
      </trkpt>
      <trkpt lat="59.9218415" lon="17.641831">
        <ele>22.2476</ele>
        <time>2013-05-26T14:26:14Z</time>
      </trkpt>
      <trkpt lat="59.9219022" lon="17.6418221">
        <ele>22.2476</ele>
        <time>2013-05-26T14:26:15Z</time>
      </trkpt>
      <trkpt lat="59.9219649" lon="17.6418152">
        <ele>22.2476</ele>
        <time>2013-05-26T14:26:16Z</time>
      </trkpt>
      <trkpt lat="59.9220291" lon="17.6418079">
        <ele>22.2476</ele>
        <time>2013-05-26T14:26:17Z</time>
      </trkpt>
      <trkpt lat="59.9220947" lon="17.6417969">
        <ele>22.7283</ele>
        <time>2013-05-26T14:26:18Z</time>
      </trkpt>
      <trkpt lat="59.922161" lon="17.6417864">
        <ele>22.2476</ele>
        <time>2013-05-26T14:26:19Z</time>
      </trkpt>
      <trkpt lat="59.9222285" lon="17.6417771">
        <ele>22.7283</ele>
        <time>2013-05-26T14:26:20Z</time>
      </trkpt>
      <trkpt lat="59.9222958" lon="17.64177">
        <ele>22.2476</ele>
        <time>2013-05-26T14:26:21Z</time>
      </trkpt>
      <trkpt lat="59.9223631" lon="17.6417643">
        <ele>22.2476</ele>
        <time>2013-05-26T14:26:22Z</time>
      </trkpt>
      <trkpt lat="59.9224301" lon="17.6417564">
        <ele>22.2476</ele>
        <time>2013-05-26T14:26:23Z</time>
      </trkpt>
      <trkpt lat="59.9224976" lon="17.6417458">
        <ele>22.2476</ele>
        <time>2013-05-26T14:26:24Z</time>
      </trkpt>
      <trkpt lat="59.9225653" lon="17.641737">
        <ele>22.2476</ele>
        <time>2013-05-26T14:26:25Z</time>
      </trkpt>
      <trkpt lat="59.922634" lon="17.6417275">
        <ele>22.2476</ele>
        <time>2013-05-26T14:26:26Z</time>
      </trkpt>
      <trkpt lat="59.922703" lon="17.6417182">
        <ele>21.767</ele>
        <time>2013-05-26T14:26:27Z</time>
      </trkpt>
      <trkpt lat="59.9227737" lon="17.6417094">
        <ele>21.767</ele>
        <time>2013-05-26T14:26:28Z</time>
      </trkpt>
      <trkpt lat="59.922846" lon="17.6417023">
        <ele>21.767</ele>
        <time>2013-05-26T14:26:29Z</time>
      </trkpt>
      <trkpt lat="59.9229204" lon="17.6416979">
        <ele>21.767</ele>
        <time>2013-05-26T14:26:30Z</time>
      </trkpt>
      <trkpt lat="59.9229962" lon="17.6416923">
        <ele>21.2864</ele>
        <time>2013-05-26T14:26:31Z</time>
      </trkpt>
      <trkpt lat="59.9230727" lon="17.6416842">
        <ele>21.2864</ele>
        <time>2013-05-26T14:26:32Z</time>
      </trkpt>
      <trkpt lat="59.9231485" lon="17.6416742">
        <ele>21.2864</ele>
        <time>2013-05-26T14:26:33Z</time>
      </trkpt>
      <trkpt lat="59.9232235" lon="17.6416626">
        <ele>20.8057</ele>
        <time>2013-05-26T14:26:34Z</time>
      </trkpt>
      <trkpt lat="59.9232976" lon="17.641651">
        <ele>20.8057</ele>
        <time>2013-05-26T14:26:35Z</time>
      </trkpt>
      <trkpt lat="59.9233711" lon="17.6416401">
        <ele>20.325</ele>
        <time>2013-05-26T14:26:36Z</time>
      </trkpt>
      <trkpt lat="59.9234444" lon="17.641629">
        <ele>20.325</ele>
        <time>2013-05-26T14:26:37Z</time>
      </trkpt>
      <trkpt lat="59.9235181" lon="17.6416181">
        <ele>19.8444</ele>
        <time>2013-05-26T14:26:38Z</time>
      </trkpt>
      <trkpt lat="59.9235924" lon="17.6416069">
        <ele>19.8444</ele>
        <time>2013-05-26T14:26:39Z</time>
      </trkpt>
      <trkpt lat="59.9236686" lon="17.6415961">
        <ele>19.3638</ele>
        <time>2013-05-26T14:26:40Z</time>
      </trkpt>
      <trkpt lat="59.9237468" lon="17.6415872">
        <ele>19.3638</ele>
        <time>2013-05-26T14:26:41Z</time>
      </trkpt>
      <trkpt lat="59.9238266" lon="17.641578">
        <ele>19.3638</ele>
        <time>2013-05-26T14:26:42Z</time>
      </trkpt>
      <trkpt lat="59.9239075" lon="17.641568">
        <ele>19.3638</ele>
        <time>2013-05-26T14:26:43Z</time>
      </trkpt>
      <trkpt lat="59.9239883" lon="17.6415582">
        <ele>18.8831</ele>
        <time>2013-05-26T14:26:44Z</time>
      </trkpt>
      <trkpt lat="59.9240682" lon="17.64155">
        <ele>18.8831</ele>
        <time>2013-05-26T14:26:45Z</time>
      </trkpt>
      <trkpt lat="59.9241456" lon="17.6415436">
        <ele>18.8831</ele>
        <time>2013-05-26T14:26:46Z</time>
      </trkpt>
      <trkpt lat="59.9242207" lon="17.6415383">
        <ele>18.8831</ele>
        <time>2013-05-26T14:26:47Z</time>
      </trkpt>
      <trkpt lat="59.9242939" lon="17.6415344">
        <ele>18.8831</ele>
        <time>2013-05-26T14:26:48Z</time>
      </trkpt>
      <trkpt lat="59.9243659" lon="17.6415302">
        <ele>18.8831</ele>
        <time>2013-05-26T14:26:49Z</time>
      </trkpt>
      <trkpt lat="59.9244364" lon="17.6415238">
        <ele>18.8831</ele>
        <time>2013-05-26T14:26:50Z</time>
      </trkpt>
      <trkpt lat="59.924506" lon="17.6415145">
        <ele>18.8831</ele>
        <time>2013-05-26T14:26:51Z</time>
      </trkpt>
      <trkpt lat="59.9245747" lon="17.6415017">
        <ele>18.8831</ele>
        <time>2013-05-26T14:26:52Z</time>
      </trkpt>
      <trkpt lat="59.9246432" lon="17.6414858">
        <ele>18.8831</ele>
        <time>2013-05-26T14:26:53Z</time>
      </trkpt>
      <trkpt lat="59.9247111" lon="17.6414691">
        <ele>18.8831</ele>
        <time>2013-05-26T14:26:54Z</time>
      </trkpt>
      <trkpt lat="59.9247785" lon="17.6414523">
        <ele>18.8831</ele>
        <time>2013-05-26T14:26:55Z</time>
      </trkpt>
      <trkpt lat="59.9248459" lon="17.641439">
        <ele>18.8831</ele>
        <time>2013-05-26T14:26:56Z</time>
      </trkpt>
      <trkpt lat="59.9249138" lon="17.6414314">
        <ele>18.8831</ele>
        <time>2013-05-26T14:26:57Z</time>
      </trkpt>
      <trkpt lat="59.9249825" lon="17.641426">
        <ele>18.8831</ele>
        <time>2013-05-26T14:26:58Z</time>
      </trkpt>
      <trkpt lat="59.9250519" lon="17.6414218">
        <ele>18.4023</ele>
        <time>2013-05-26T14:26:59Z</time>
      </trkpt>
      <trkpt lat="59.9251222" lon="17.6414208">
        <ele>18.4023</ele>
        <time>2013-05-26T14:27:00Z</time>
      </trkpt>
      <trkpt lat="59.9251934" lon="17.6414223">
        <ele>18.4023</ele>
        <time>2013-05-26T14:27:01Z</time>
      </trkpt>
      <trkpt lat="59.9252631" lon="17.641424">
        <ele>18.8831</ele>
        <time>2013-05-26T14:27:02Z</time>
      </trkpt>
      <trkpt lat="59.9253324" lon="17.6414231">
        <ele>18.8831</ele>
        <time>2013-05-26T14:27:03Z</time>
      </trkpt>
      <trkpt lat="59.9254022" lon="17.6414193">
        <ele>18.8831</ele>
        <time>2013-05-26T14:27:04Z</time>
      </trkpt>
      <trkpt lat="59.9254729" lon="17.6414115">
        <ele>18.8831</ele>
        <time>2013-05-26T14:27:05Z</time>
      </trkpt>
      <trkpt lat="59.9255447" lon="17.6413991">
        <ele>18.8831</ele>
        <time>2013-05-26T14:27:06Z</time>
      </trkpt>
      <trkpt lat="59.9256179" lon="17.6413856">
        <ele>18.8831</ele>
        <time>2013-05-26T14:27:07Z</time>
      </trkpt>
      <trkpt lat="59.9256923" lon="17.6413749">
        <ele>18.8831</ele>
        <time>2013-05-26T14:27:08Z</time>
      </trkpt>
      <trkpt lat="59.9257661" lon="17.6413684">
        <ele>18.8831</ele>
        <time>2013-05-26T14:27:09Z</time>
      </trkpt>
      <trkpt lat="59.9258388" lon="17.6413618">
        <ele>18.4023</ele>
        <time>2013-05-26T14:27:10Z</time>
      </trkpt>
      <trkpt lat="59.9259095" lon="17.641352">
        <ele>18.4023</ele>
        <time>2013-05-26T14:27:11Z</time>
      </trkpt>
      <trkpt lat="59.9259789" lon="17.6413404">
        <ele>18.4023</ele>
        <time>2013-05-26T14:27:12Z</time>
      </trkpt>
      <trkpt lat="59.9260481" lon="17.6413302">
        <ele>18.4023</ele>
        <time>2013-05-26T14:27:13Z</time>
      </trkpt>
      <trkpt lat="59.9261176" lon="17.6413221">
        <ele>18.4023</ele>
        <time>2013-05-26T14:27:14Z</time>
      </trkpt>
      <trkpt lat="59.9261876" lon="17.6413141">
        <ele>18.4023</ele>
        <time>2013-05-26T14:27:15Z</time>
      </trkpt>
      <trkpt lat="59.9262589" lon="17.6413042">
        <ele>18.4023</ele>
        <time>2013-05-26T14:27:16Z</time>
      </trkpt>
      <trkpt lat="59.9263316" lon="17.6412941">
        <ele>18.4023</ele>
        <time>2013-05-26T14:27:17Z</time>
      </trkpt>
      <trkpt lat="59.9264062" lon="17.6412857">
        <ele>18.4023</ele>
        <time>2013-05-26T14:27:18Z</time>
      </trkpt>
      <trkpt lat="59.9264819" lon="17.6412769">
        <ele>18.4023</ele>
        <time>2013-05-26T14:27:19Z</time>
      </trkpt>
      <trkpt lat="59.926557" lon="17.641268">
        <ele>18.4023</ele>
        <time>2013-05-26T14:27:20Z</time>
      </trkpt>
      <trkpt lat="59.926632" lon="17.641258">
        <ele>18.4023</ele>
        <time>2013-05-26T14:27:21Z</time>
      </trkpt>
      <trkpt lat="59.9267067" lon="17.6412479">
        <ele>18.4023</ele>
        <time>2013-05-26T14:27:22Z</time>
      </trkpt>
      <trkpt lat="59.9267817" lon="17.641239">
        <ele>18.4023</ele>
        <time>2013-05-26T14:27:23Z</time>
      </trkpt>
      <trkpt lat="59.9268572" lon="17.6412306">
        <ele>18.4023</ele>
        <time>2013-05-26T14:27:24Z</time>
      </trkpt>
      <trkpt lat="59.9269329" lon="17.6412214">
        <ele>18.4023</ele>
        <time>2013-05-26T14:27:25Z</time>
      </trkpt>
      <trkpt lat="59.9270085" lon="17.6412112">
        <ele>18.4023</ele>
        <time>2013-05-26T14:27:26Z</time>
      </trkpt>
      <trkpt lat="59.9270839" lon="17.6412033">
        <ele>18.4023</ele>
        <time>2013-05-26T14:27:27Z</time>
      </trkpt>
      <trkpt lat="59.9271592" lon="17.6411985">
        <ele>18.4023</ele>
        <time>2013-05-26T14:27:28Z</time>
      </trkpt>
      <trkpt lat="59.927234" lon="17.6411946">
        <ele>18.4023</ele>
        <time>2013-05-26T14:27:29Z</time>
      </trkpt>
      <trkpt lat="59.9273077" lon="17.6411908">
        <ele>18.4023</ele>
        <time>2013-05-26T14:27:30Z</time>
      </trkpt>
      <trkpt lat="59.927381" lon="17.6411861">
        <ele>18.4023</ele>
        <time>2013-05-26T14:27:31Z</time>
      </trkpt>
      <trkpt lat="59.9274535" lon="17.6411795">
        <ele>18.4023</ele>
        <time>2013-05-26T14:27:32Z</time>
      </trkpt>
      <trkpt lat="59.9275252" lon="17.6411711">
        <ele>18.4023</ele>
        <time>2013-05-26T14:27:33Z</time>
      </trkpt>
      <trkpt lat="59.9275965" lon="17.641164">
        <ele>18.4023</ele>
        <time>2013-05-26T14:27:34Z</time>
      </trkpt>
      <trkpt lat="59.9276671" lon="17.6411584">
        <ele>18.4023</ele>
        <time>2013-05-26T14:27:35Z</time>
      </trkpt>
      <trkpt lat="59.9277375" lon="17.641151">
        <ele>18.4023</ele>
        <time>2013-05-26T14:27:36Z</time>
      </trkpt>
      <trkpt lat="59.927807" lon="17.6411432">
        <ele>18.4023</ele>
        <time>2013-05-26T14:27:37Z</time>
      </trkpt>
      <trkpt lat="59.9278763" lon="17.641137">
        <ele>18.4023</ele>
        <time>2013-05-26T14:27:38Z</time>
      </trkpt>
      <trkpt lat="59.9279453" lon="17.641132">
        <ele>18.4023</ele>
        <time>2013-05-26T14:27:39Z</time>
      </trkpt>
      <trkpt lat="59.9280147" lon="17.6411261">
        <ele>18.4023</ele>
        <time>2013-05-26T14:27:40Z</time>
      </trkpt>
      <trkpt lat="59.9280841" lon="17.6411175">
        <ele>18.4023</ele>
        <time>2013-05-26T14:27:41Z</time>
      </trkpt>
      <trkpt lat="59.9281535" lon="17.6411088">
        <ele>18.4023</ele>
        <time>2013-05-26T14:27:42Z</time>
      </trkpt>
      <trkpt lat="59.9282228" lon="17.6411002">
        <ele>18.4023</ele>
        <time>2013-05-26T14:27:43Z</time>
      </trkpt>
      <trkpt lat="59.9282921" lon="17.6410912">
        <ele>18.4023</ele>
        <time>2013-05-26T14:27:44Z</time>
      </trkpt>
      <trkpt lat="59.9283618" lon="17.6410819">
        <ele>18.4023</ele>
        <time>2013-05-26T14:27:45Z</time>
      </trkpt>
      <trkpt lat="59.9284316" lon="17.6410723">
        <ele>18.4023</ele>
        <time>2013-05-26T14:27:46Z</time>
      </trkpt>
      <trkpt lat="59.9285009" lon="17.6410624">
        <ele>18.8831</ele>
        <time>2013-05-26T14:27:47Z</time>
      </trkpt>
      <trkpt lat="59.9285689" lon="17.6410536">
        <ele>18.8831</ele>
        <time>2013-05-26T14:27:48Z</time>
      </trkpt>
      <trkpt lat="59.9286369" lon="17.6410436">
        <ele>18.8831</ele>
        <time>2013-05-26T14:27:49Z</time>
      </trkpt>
      <trkpt lat="59.9287052" lon="17.6410314">
        <ele>18.8831</ele>
        <time>2013-05-26T14:27:50Z</time>
      </trkpt>
      <trkpt lat="59.9287746" lon="17.6410163">
        <ele>18.8831</ele>
        <time>2013-05-26T14:27:51Z</time>
      </trkpt>
      <trkpt lat="59.9288448" lon="17.6409973">
        <ele>18.4023</ele>
        <time>2013-05-26T14:27:52Z</time>
      </trkpt>
      <trkpt lat="59.928915" lon="17.6409797">
        <ele>18.4023</ele>
        <time>2013-05-26T14:27:53Z</time>
      </trkpt>
      <trkpt lat="59.9289853" lon="17.640968">
        <ele>18.4023</ele>
        <time>2013-05-26T14:27:54Z</time>
      </trkpt>
      <trkpt lat="59.9290548" lon="17.6409603">
        <ele>18.4023</ele>
        <time>2013-05-26T14:27:55Z</time>
      </trkpt>
      <trkpt lat="59.9291236" lon="17.6409548">
        <ele>18.4023</ele>
        <time>2013-05-26T14:27:56Z</time>
      </trkpt>
      <trkpt lat="59.9291915" lon="17.6409526">
        <ele>18.4023</ele>
        <time>2013-05-26T14:27:57Z</time>
      </trkpt>
      <trkpt lat="59.929257" lon="17.6409519">
        <ele>18.4023</ele>
        <time>2013-05-26T14:27:58Z</time>
      </trkpt>
      <trkpt lat="59.9293211" lon="17.6409495">
        <ele>18.4023</ele>
        <time>2013-05-26T14:27:59Z</time>
      </trkpt>
      <trkpt lat="59.9293846" lon="17.6409438">
        <ele>18.4023</ele>
        <time>2013-05-26T14:28:00Z</time>
      </trkpt>
      <trkpt lat="59.9294481" lon="17.640936">
        <ele>18.4023</ele>
        <time>2013-05-26T14:28:01Z</time>
      </trkpt>
      <trkpt lat="59.9295121" lon="17.6409265">
        <ele>18.4023</ele>
        <time>2013-05-26T14:28:02Z</time>
      </trkpt>
      <trkpt lat="59.9295764" lon="17.6409148">
        <ele>18.4023</ele>
        <time>2013-05-26T14:28:03Z</time>
      </trkpt>
      <trkpt lat="59.9296407" lon="17.6408999">
        <ele>18.4023</ele>
        <time>2013-05-26T14:28:04Z</time>
      </trkpt>
      <trkpt lat="59.9297048" lon="17.6408826">
        <ele>18.8831</ele>
        <time>2013-05-26T14:28:05Z</time>
      </trkpt>
      <trkpt lat="59.9297677" lon="17.6408695">
        <ele>18.8831</ele>
        <time>2013-05-26T14:28:06Z</time>
      </trkpt>
      <trkpt lat="59.9298288" lon="17.6408626">
        <ele>18.8831</ele>
        <time>2013-05-26T14:28:07Z</time>
      </trkpt>
      <trkpt lat="59.9298894" lon="17.6408605">
        <ele>18.8831</ele>
        <time>2013-05-26T14:28:08Z</time>
      </trkpt>
      <trkpt lat="59.929952" lon="17.640862">
        <ele>18.4023</ele>
        <time>2013-05-26T14:28:09Z</time>
      </trkpt>
      <trkpt lat="59.9300169" lon="17.6408634">
        <ele>18.4023</ele>
        <time>2013-05-26T14:28:10Z</time>
      </trkpt>
      <trkpt lat="59.9300823" lon="17.6408646">
        <ele>18.4023</ele>
        <time>2013-05-26T14:28:11Z</time>
      </trkpt>
      <trkpt lat="59.9301478" lon="17.6408657">
        <ele>18.4023</ele>
        <time>2013-05-26T14:28:12Z</time>
      </trkpt>
      <trkpt lat="59.9302135" lon="17.6408666">
        <ele>18.8831</ele>
        <time>2013-05-26T14:28:13Z</time>
      </trkpt>
      <trkpt lat="59.9302785" lon="17.6408683">
        <ele>18.8831</ele>
        <time>2013-05-26T14:28:14Z</time>
      </trkpt>
      <trkpt lat="59.9303431" lon="17.6408708">
        <ele>18.8831</ele>
        <time>2013-05-26T14:28:15Z</time>
      </trkpt>
      <trkpt lat="59.9304071" lon="17.6408735">
        <ele>18.8831</ele>
        <time>2013-05-26T14:28:16Z</time>
      </trkpt>
      <trkpt lat="59.9304701" lon="17.6408742">
        <ele>18.8831</ele>
        <time>2013-05-26T14:28:17Z</time>
      </trkpt>
      <trkpt lat="59.9305318" lon="17.6408711">
        <ele>19.3638</ele>
        <time>2013-05-26T14:28:18Z</time>
      </trkpt>
      <trkpt lat="59.9305918" lon="17.6408643">
        <ele>19.3638</ele>
        <time>2013-05-26T14:28:19Z</time>
      </trkpt>
      <trkpt lat="59.9306498" lon="17.6408542">
        <ele>19.8444</ele>
        <time>2013-05-26T14:28:20Z</time>
      </trkpt>
      <trkpt lat="59.9307055" lon="17.6408444">
        <ele>19.8444</ele>
        <time>2013-05-26T14:28:21Z</time>
      </trkpt>
      <trkpt lat="59.9307596" lon="17.6408396">
        <ele>19.8444</ele>
        <time>2013-05-26T14:28:22Z</time>
      </trkpt>
      <trkpt lat="59.930813" lon="17.6408423">
        <ele>19.8444</ele>
        <time>2013-05-26T14:28:23Z</time>
      </trkpt>
      <trkpt lat="59.9308706" lon="17.6408521">
        <ele>20.325</ele>
        <time>2013-05-26T14:28:24Z</time>
      </trkpt>
      <trkpt lat="59.9309285" lon="17.6408675">
        <ele>20.325</ele>
        <time>2013-05-26T14:28:25Z</time>
      </trkpt>
      <trkpt lat="59.9309843" lon="17.6408879">
        <ele>20.325</ele>
        <time>2013-05-26T14:28:26Z</time>
      </trkpt>
      <trkpt lat="59.9310378" lon="17.640917">
        <ele>20.325</ele>
        <time>2013-05-26T14:28:27Z</time>
      </trkpt>
      <trkpt lat="59.9310891" lon="17.640953">
        <ele>20.325</ele>
        <time>2013-05-26T14:28:28Z</time>
      </trkpt>
      <trkpt lat="59.9311383" lon="17.6409905">
        <ele>20.325</ele>
        <time>2013-05-26T14:28:29Z</time>
      </trkpt>
      <trkpt lat="59.9311838" lon="17.6410298">
        <ele>20.8057</ele>
        <time>2013-05-26T14:28:30Z</time>
      </trkpt>
      <trkpt lat="59.9312268" lon="17.6410641">
        <ele>21.2864</ele>
        <time>2013-05-26T14:28:31Z</time>
      </trkpt>
      <trkpt lat="59.9312678" lon="17.6410924">
        <ele>21.2864</ele>
        <time>2013-05-26T14:28:32Z</time>
      </trkpt>
      <trkpt lat="59.9313064" lon="17.641121">
        <ele>21.2864</ele>
        <time>2013-05-26T14:28:33Z</time>
      </trkpt>
      <trkpt lat="59.9313424" lon="17.6411484">
        <ele>21.767</ele>
        <time>2013-05-26T14:28:34Z</time>
      </trkpt>
      <trkpt lat="59.931376" lon="17.6411729">
        <ele>22.2476</ele>
        <time>2013-05-26T14:28:35Z</time>
      </trkpt>
      <trkpt lat="59.9314085" lon="17.6411971">
        <ele>21.767</ele>
        <time>2013-05-26T14:28:36Z</time>
      </trkpt>
      <trkpt lat="59.9314422" lon="17.6412238">
        <ele>21.767</ele>
        <time>2013-05-26T14:28:37Z</time>
      </trkpt>
      <trkpt lat="59.931478" lon="17.6412524">
        <ele>21.767</ele>
        <time>2013-05-26T14:28:38Z</time>
      </trkpt>
      <trkpt lat="59.9315163" lon="17.6412805">
        <ele>21.767</ele>
        <time>2013-05-26T14:28:39Z</time>
      </trkpt>
      <trkpt lat="59.9315563" lon="17.6413085">
        <ele>21.2864</ele>
        <time>2013-05-26T14:28:40Z</time>
      </trkpt>
      <trkpt lat="59.9315978" lon="17.6413375">
        <ele>21.2864</ele>
        <time>2013-05-26T14:28:41Z</time>
      </trkpt>
      <trkpt lat="59.9316411" lon="17.6413677">
        <ele>21.2864</ele>
        <time>2013-05-26T14:28:42Z</time>
      </trkpt>
      <trkpt lat="59.9316858" lon="17.6413996">
        <ele>21.2864</ele>
        <time>2013-05-26T14:28:43Z</time>
      </trkpt>
      <trkpt lat="59.9317325" lon="17.6414287">
        <ele>21.2864</ele>
        <time>2013-05-26T14:28:44Z</time>
      </trkpt>
      <trkpt lat="59.931781" lon="17.6414542">
        <ele>21.2864</ele>
        <time>2013-05-26T14:28:45Z</time>
      </trkpt>
      <trkpt lat="59.9318294" lon="17.6414825">
        <ele>21.2864</ele>
        <time>2013-05-26T14:28:46Z</time>
      </trkpt>
      <trkpt lat="59.9318763" lon="17.641514">
        <ele>21.2864</ele>
        <time>2013-05-26T14:28:47Z</time>
      </trkpt>
      <trkpt lat="59.9319219" lon="17.641546">
        <ele>21.2864</ele>
        <time>2013-05-26T14:28:48Z</time>
      </trkpt>
      <trkpt lat="59.9319655" lon="17.6415797">
        <ele>21.767</ele>
        <time>2013-05-26T14:28:49Z</time>
      </trkpt>
      <trkpt lat="59.9320074" lon="17.6416147">
        <ele>21.767</ele>
        <time>2013-05-26T14:28:50Z</time>
      </trkpt>
      <trkpt lat="59.9320458" lon="17.6416513">
        <ele>21.767</ele>
        <time>2013-05-26T14:28:51Z</time>
      </trkpt>
      <trkpt lat="59.9320832" lon="17.6416872">
        <ele>21.767</ele>
        <time>2013-05-26T14:28:52Z</time>
      </trkpt>
      <trkpt lat="59.9321231" lon="17.6417255">
        <ele>21.2864</ele>
        <time>2013-05-26T14:28:53Z</time>
      </trkpt>
      <trkpt lat="59.9321666" lon="17.6417669">
        <ele>21.2864</ele>
        <time>2013-05-26T14:28:54Z</time>
      </trkpt>
      <trkpt lat="59.932213" lon="17.6418099">
        <ele>21.2864</ele>
        <time>2013-05-26T14:28:55Z</time>
      </trkpt>
      <trkpt lat="59.9322602" lon="17.6418545">
        <ele>20.8057</ele>
        <time>2013-05-26T14:28:56Z</time>
      </trkpt>
      <trkpt lat="59.9323064" lon="17.6419005">
        <ele>20.8057</ele>
        <time>2013-05-26T14:28:57Z</time>
      </trkpt>
      <trkpt lat="59.9323538" lon="17.6419454">
        <ele>20.8057</ele>
        <time>2013-05-26T14:28:58Z</time>
      </trkpt>
      <trkpt lat="59.9324006" lon="17.6419954">
        <ele>21.2864</ele>
        <time>2013-05-26T14:28:59Z</time>
      </trkpt>
      <trkpt lat="59.9324458" lon="17.6420435">
        <ele>21.2864</ele>
        <time>2013-05-26T14:29:00Z</time>
      </trkpt>
      <trkpt lat="59.9324895" lon="17.6420896">
        <ele>21.2864</ele>
        <time>2013-05-26T14:29:01Z</time>
      </trkpt>
      <trkpt lat="59.9325323" lon="17.6421355">
        <ele>21.2864</ele>
        <time>2013-05-26T14:29:02Z</time>
      </trkpt>
      <trkpt lat="59.9325756" lon="17.6421818">
        <ele>21.2864</ele>
        <time>2013-05-26T14:29:03Z</time>
      </trkpt>
      <trkpt lat="59.9326192" lon="17.6422296">
        <ele>21.2864</ele>
        <time>2013-05-26T14:29:04Z</time>
      </trkpt>
      <trkpt lat="59.9326624" lon="17.6422814">
        <ele>21.2864</ele>
        <time>2013-05-26T14:29:05Z</time>
      </trkpt>
      <trkpt lat="59.9327031" lon="17.6423389">
        <ele>21.767</ele>
        <time>2013-05-26T14:29:06Z</time>
      </trkpt>
      <trkpt lat="59.9327405" lon="17.6423994">
        <ele>21.767</ele>
        <time>2013-05-26T14:29:07Z</time>
      </trkpt>
      <trkpt lat="59.9327737" lon="17.6424593">
        <ele>21.767</ele>
        <time>2013-05-26T14:29:08Z</time>
      </trkpt>
      <trkpt lat="59.9328058" lon="17.64252">
        <ele>21.767</ele>
        <time>2013-05-26T14:29:09Z</time>
      </trkpt>
      <trkpt lat="59.9328399" lon="17.6425787">
        <ele>21.767</ele>
        <time>2013-05-26T14:29:10Z</time>
      </trkpt>
      <trkpt lat="59.9328746" lon="17.6426377">
        <ele>21.767</ele>
        <time>2013-05-26T14:29:11Z</time>
      </trkpt>
      <trkpt lat="59.9329119" lon="17.6426943">
        <ele>21.767</ele>
        <time>2013-05-26T14:29:12Z</time>
      </trkpt>
      <trkpt lat="59.9329526" lon="17.6427463">
        <ele>21.767</ele>
        <time>2013-05-26T14:29:13Z</time>
      </trkpt>
      <trkpt lat="59.9329943" lon="17.6427983">
        <ele>21.767</ele>
        <time>2013-05-26T14:29:14Z</time>
      </trkpt>
      <trkpt lat="59.9330362" lon="17.6428527">
        <ele>21.767</ele>
        <time>2013-05-26T14:29:15Z</time>
      </trkpt>
      <trkpt lat="59.9330788" lon="17.6429053">
        <ele>21.767</ele>
        <time>2013-05-26T14:29:16Z</time>
      </trkpt>
      <trkpt lat="59.9331197" lon="17.6429593">
        <ele>22.2476</ele>
        <time>2013-05-26T14:29:17Z</time>
      </trkpt>
      <trkpt lat="59.9331574" lon="17.643019">
        <ele>22.2476</ele>
        <time>2013-05-26T14:29:18Z</time>
      </trkpt>
      <trkpt lat="59.9331922" lon="17.643082">
        <ele>22.2476</ele>
        <time>2013-05-26T14:29:19Z</time>
      </trkpt>
      <trkpt lat="59.9332243" lon="17.6431428">
        <ele>22.7283</ele>
        <time>2013-05-26T14:29:20Z</time>
      </trkpt>
      <trkpt lat="59.9332544" lon="17.6431973">
        <ele>22.7283</ele>
        <time>2013-05-26T14:29:21Z</time>
      </trkpt>
      <trkpt lat="59.9332831" lon="17.6432463">
        <ele>22.7283</ele>
        <time>2013-05-26T14:29:22Z</time>
      </trkpt>
      <trkpt lat="59.9333092" lon="17.643293">
        <ele>23.209</ele>
        <time>2013-05-26T14:29:23Z</time>
      </trkpt>
      <trkpt lat="59.9333339" lon="17.6433347">
        <ele>23.6896</ele>
        <time>2013-05-26T14:29:24Z</time>
      </trkpt>
      <trkpt lat="59.9333569" lon="17.6433718">
        <ele>24.1703</ele>
        <time>2013-05-26T14:29:25Z</time>
      </trkpt>
      <trkpt lat="59.9333793" lon="17.6434115">
        <ele>24.1703</ele>
        <time>2013-05-26T14:29:26Z</time>
      </trkpt>
      <trkpt lat="59.9334035" lon="17.6434475">
        <ele>24.651</ele>
        <time>2013-05-26T14:29:27Z</time>
      </trkpt>
      <trkpt lat="59.933431" lon="17.6434827">
        <ele>24.651</ele>
        <time>2013-05-26T14:29:28Z</time>
      </trkpt>
      <trkpt lat="59.9334608" lon="17.6435184">
        <ele>25.1317</ele>
        <time>2013-05-26T14:29:29Z</time>
      </trkpt>
      <trkpt lat="59.93349" lon="17.6435541">
        <ele>25.1317</ele>
        <time>2013-05-26T14:29:30Z</time>
      </trkpt>
      <trkpt lat="59.9335175" lon="17.6435974">
        <ele>25.6123</ele>
        <time>2013-05-26T14:29:31Z</time>
      </trkpt>
      <trkpt lat="59.9335464" lon="17.6436354">
        <ele>25.6123</ele>
        <time>2013-05-26T14:29:32Z</time>
      </trkpt>
      <trkpt lat="59.9335755" lon="17.6436712">
        <ele>25.6123</ele>
        <time>2013-05-26T14:29:33Z</time>
      </trkpt>
      <trkpt lat="59.9336069" lon="17.6437023">
        <ele>25.6123</ele>
        <time>2013-05-26T14:29:34Z</time>
      </trkpt>
      <trkpt lat="59.93364" lon="17.6437316">
        <ele>25.6123</ele>
        <time>2013-05-26T14:29:35Z</time>
      </trkpt>
      <trkpt lat="59.9336735" lon="17.6437647">
        <ele>26.0929</ele>
        <time>2013-05-26T14:29:36Z</time>
      </trkpt>
      <trkpt lat="59.933706" lon="17.6437996">
        <ele>26.0929</ele>
        <time>2013-05-26T14:29:37Z</time>
      </trkpt>
      <trkpt lat="59.933739" lon="17.6438333">
        <ele>26.0929</ele>
        <time>2013-05-26T14:29:38Z</time>
      </trkpt>
      <trkpt lat="59.9337742" lon="17.6438643">
        <ele>26.0929</ele>
        <time>2013-05-26T14:29:39Z</time>
      </trkpt>
      <trkpt lat="59.9338108" lon="17.6438913">
        <ele>26.0929</ele>
        <time>2013-05-26T14:29:40Z</time>
      </trkpt>
      <trkpt lat="59.9338462" lon="17.6439256">
        <ele>26.0929</ele>
        <time>2013-05-26T14:29:41Z</time>
      </trkpt>
      <trkpt lat="59.9338823" lon="17.6439629">
        <ele>25.6123</ele>
        <time>2013-05-26T14:29:42Z</time>
      </trkpt>
      <trkpt lat="59.9339193" lon="17.6440017">
        <ele>26.0929</ele>
        <time>2013-05-26T14:29:43Z</time>
      </trkpt>
      <trkpt lat="59.9339552" lon="17.6440441">
        <ele>26.0929</ele>
        <time>2013-05-26T14:29:44Z</time>
      </trkpt>
      <trkpt lat="59.9339907" lon="17.6440884">
        <ele>26.0929</ele>
        <time>2013-05-26T14:29:45Z</time>
      </trkpt>
      <trkpt lat="59.9340261" lon="17.644132">
        <ele>26.0929</ele>
        <time>2013-05-26T14:29:46Z</time>
      </trkpt>
      <trkpt lat="59.9340604" lon="17.6441787">
        <ele>26.0929</ele>
        <time>2013-05-26T14:29:47Z</time>
      </trkpt>
      <trkpt lat="59.9340948" lon="17.6442286">
        <ele>26.0929</ele>
        <time>2013-05-26T14:29:48Z</time>
      </trkpt>
      <trkpt lat="59.9341302" lon="17.644278">
        <ele>26.5736</ele>
        <time>2013-05-26T14:29:49Z</time>
      </trkpt>
      <trkpt lat="59.9341669" lon="17.6443255">
        <ele>26.5736</ele>
        <time>2013-05-26T14:29:50Z</time>
      </trkpt>
      <trkpt lat="59.9342039" lon="17.6443735">
        <ele>27.0543</ele>
        <time>2013-05-26T14:29:51Z</time>
      </trkpt>
      <trkpt lat="59.9342406" lon="17.6444243">
        <ele>27.0543</ele>
        <time>2013-05-26T14:29:52Z</time>
      </trkpt>
      <trkpt lat="59.9342773" lon="17.6444757">
        <ele>27.0543</ele>
        <time>2013-05-26T14:29:53Z</time>
      </trkpt>
      <trkpt lat="59.9343147" lon="17.6445211">
        <ele>27.5349</ele>
        <time>2013-05-26T14:29:54Z</time>
      </trkpt>
      <trkpt lat="59.9343485" lon="17.6445699">
        <ele>28.0155</ele>
        <time>2013-05-26T14:29:55Z</time>
      </trkpt>
      <trkpt lat="59.9343789" lon="17.6446207">
        <ele>28.0155</ele>
        <time>2013-05-26T14:29:56Z</time>
      </trkpt>
      <trkpt lat="59.9344053" lon="17.6446688">
        <ele>28.4962</ele>
        <time>2013-05-26T14:29:57Z</time>
      </trkpt>
      <trkpt lat="59.9344297" lon="17.6447132">
        <ele>28.9769</ele>
        <time>2013-05-26T14:29:58Z</time>
      </trkpt>
      <trkpt lat="59.9344534" lon="17.6447531">
        <ele>28.9769</ele>
        <time>2013-05-26T14:29:59Z</time>
      </trkpt>
      <trkpt lat="59.9344763" lon="17.6447926">
        <ele>28.9769</ele>
        <time>2013-05-26T14:30:00Z</time>
      </trkpt>
      <trkpt lat="59.9345022" lon="17.6448316">
        <ele>29.4575</ele>
        <time>2013-05-26T14:30:01Z</time>
      </trkpt>
      <trkpt lat="59.9345295" lon="17.6448728">
        <ele>29.4575</ele>
        <time>2013-05-26T14:30:02Z</time>
      </trkpt>
      <trkpt lat="59.9345577" lon="17.6449175">
        <ele>29.4575</ele>
        <time>2013-05-26T14:30:03Z</time>
      </trkpt>
      <trkpt lat="59.9345896" lon="17.6449556">
        <ele>29.4575</ele>
        <time>2013-05-26T14:30:04Z</time>
      </trkpt>
      <trkpt lat="59.9346225" lon="17.6449878">
        <ele>29.4575</ele>
        <time>2013-05-26T14:30:05Z</time>
      </trkpt>
      <trkpt lat="59.9346566" lon="17.6450242">
        <ele>29.9381</ele>
        <time>2013-05-26T14:30:06Z</time>
      </trkpt>
      <trkpt lat="59.9346903" lon="17.6450677">
        <ele>29.9381</ele>
        <time>2013-05-26T14:30:07Z</time>
      </trkpt>
      <trkpt lat="59.9347238" lon="17.6451168">
        <ele>29.9381</ele>
        <time>2013-05-26T14:30:08Z</time>
      </trkpt>
      <trkpt lat="59.934758" lon="17.6451602">
        <ele>29.9381</ele>
        <time>2013-05-26T14:30:09Z</time>
      </trkpt>
      <trkpt lat="59.9347926" lon="17.6452064">
        <ele>29.9381</ele>
        <time>2013-05-26T14:30:10Z</time>
      </trkpt>
      <trkpt lat="59.9348276" lon="17.6452511">
        <ele>29.9381</ele>
        <time>2013-05-26T14:30:11Z</time>
      </trkpt>
      <trkpt lat="59.9348623" lon="17.6452954">
        <ele>29.9381</ele>
        <time>2013-05-26T14:30:12Z</time>
      </trkpt>
      <trkpt lat="59.9348995" lon="17.6453351">
        <ele>29.9381</ele>
        <time>2013-05-26T14:30:13Z</time>
      </trkpt>
      <trkpt lat="59.9349382" lon="17.6453708">
        <ele>29.9381</ele>
        <time>2013-05-26T14:30:14Z</time>
      </trkpt>
      <trkpt lat="59.9349781" lon="17.6454086">
        <ele>29.9381</ele>
        <time>2013-05-26T14:30:15Z</time>
      </trkpt>
      <trkpt lat="59.9350182" lon="17.645449">
        <ele>29.9381</ele>
        <time>2013-05-26T14:30:16Z</time>
      </trkpt>
      <trkpt lat="59.9350625" lon="17.6454866">
        <ele>29.9381</ele>
        <time>2013-05-26T14:30:17Z</time>
      </trkpt>
      <trkpt lat="59.9351067" lon="17.6455264">
        <ele>29.9381</ele>
        <time>2013-05-26T14:30:18Z</time>
      </trkpt>
      <trkpt lat="59.9351454" lon="17.6455786">
        <ele>29.9381</ele>
        <time>2013-05-26T14:30:19Z</time>
      </trkpt>
      <trkpt lat="59.9351873" lon="17.6456275">
        <ele>29.4575</ele>
        <time>2013-05-26T14:30:20Z</time>
      </trkpt>
      <trkpt lat="59.9352303" lon="17.6456811">
        <ele>29.4575</ele>
        <time>2013-05-26T14:30:21Z</time>
      </trkpt>
      <trkpt lat="59.9352761" lon="17.6457302">
        <ele>29.4575</ele>
        <time>2013-05-26T14:30:22Z</time>
      </trkpt>
      <trkpt lat="59.935317" lon="17.6457819">
        <ele>29.4575</ele>
        <time>2013-05-26T14:30:23Z</time>
      </trkpt>
      <trkpt lat="59.9353609" lon="17.6458318">
        <ele>29.4575</ele>
        <time>2013-05-26T14:30:24Z</time>
      </trkpt>
      <trkpt lat="59.935408" lon="17.6458792">
        <ele>29.9381</ele>
        <time>2013-05-26T14:30:25Z</time>
      </trkpt>
      <trkpt lat="59.935456" lon="17.645925">
        <ele>29.9381</ele>
        <time>2013-05-26T14:30:26Z</time>
      </trkpt>
      <trkpt lat="59.935504" lon="17.6459752">
        <ele>29.4575</ele>
        <time>2013-05-26T14:30:27Z</time>
      </trkpt>
      <trkpt lat="59.9355503" lon="17.6460251">
        <ele>29.4575</ele>
        <time>2013-05-26T14:30:28Z</time>
      </trkpt>
      <trkpt lat="59.9355968" lon="17.6460756">
        <ele>29.4575</ele>
        <time>2013-05-26T14:30:29Z</time>
      </trkpt>
      <trkpt lat="59.9356417" lon="17.6461306">
        <ele>29.4575</ele>
        <time>2013-05-26T14:30:30Z</time>
      </trkpt>
      <trkpt lat="59.9356853" lon="17.6461864">
        <ele>29.9381</ele>
        <time>2013-05-26T14:30:31Z</time>
      </trkpt>
      <trkpt lat="59.9357288" lon="17.646242">
        <ele>29.9381</ele>
        <time>2013-05-26T14:30:32Z</time>
      </trkpt>
      <trkpt lat="59.9357707" lon="17.6463027">
        <ele>30.4188</ele>
        <time>2013-05-26T14:30:33Z</time>
      </trkpt>
      <trkpt lat="59.9358138" lon="17.6463556">
        <ele>30.8995</ele>
        <time>2013-05-26T14:30:34Z</time>
      </trkpt>
      <trkpt lat="59.9358613" lon="17.6464031">
        <ele>31.3801</ele>
        <time>2013-05-26T14:30:35Z</time>
      </trkpt>
      <trkpt lat="59.9359076" lon="17.6464539">
        <ele>31.3801</ele>
        <time>2013-05-26T14:30:36Z</time>
      </trkpt>
      <trkpt lat="59.9359545" lon="17.6465078">
        <ele>31.3801</ele>
        <time>2013-05-26T14:30:37Z</time>
      </trkpt>
      <trkpt lat="59.9360013" lon="17.6465672">
        <ele>31.8607</ele>
        <time>2013-05-26T14:30:38Z</time>
      </trkpt>
      <trkpt lat="59.9360469" lon="17.6466259">
        <ele>31.3801</ele>
        <time>2013-05-26T14:30:39Z</time>
      </trkpt>
      <trkpt lat="59.9360946" lon="17.6466829">
        <ele>31.3801</ele>
        <time>2013-05-26T14:30:40Z</time>
      </trkpt>
      <trkpt lat="59.9361459" lon="17.6467387">
        <ele>30.8995</ele>
        <time>2013-05-26T14:30:41Z</time>
      </trkpt>
      <trkpt lat="59.9361966" lon="17.6468005">
        <ele>30.8995</ele>
        <time>2013-05-26T14:30:42Z</time>
      </trkpt>
      <trkpt lat="59.9362465" lon="17.6468656">
        <ele>30.4188</ele>
        <time>2013-05-26T14:30:43Z</time>
      </trkpt>
      <trkpt lat="59.9362979" lon="17.6469339">
        <ele>30.4188</ele>
        <time>2013-05-26T14:30:44Z</time>
      </trkpt>
      <trkpt lat="59.936351" lon="17.6470035">
        <ele>29.9381</ele>
        <time>2013-05-26T14:30:45Z</time>
      </trkpt>
      <trkpt lat="59.9364043" lon="17.6470751">
        <ele>29.9381</ele>
        <time>2013-05-26T14:30:46Z</time>
      </trkpt>
      <trkpt lat="59.9364567" lon="17.6471511">
        <ele>29.9381</ele>
        <time>2013-05-26T14:30:47Z</time>
      </trkpt>
      <trkpt lat="59.9365095" lon="17.6472293">
        <ele>29.4575</ele>
        <time>2013-05-26T14:30:48Z</time>
      </trkpt>
      <trkpt lat="59.9365633" lon="17.6473042">
        <ele>29.9381</ele>
        <time>2013-05-26T14:30:49Z</time>
      </trkpt>
      <trkpt lat="59.9366167" lon="17.6473785">
        <ele>29.9381</ele>
        <time>2013-05-26T14:30:50Z</time>
      </trkpt>
      <trkpt lat="59.9366705" lon="17.6474512">
        <ele>29.9381</ele>
        <time>2013-05-26T14:30:51Z</time>
      </trkpt>
      <trkpt lat="59.9367246" lon="17.6475208">
        <ele>29.9381</ele>
        <time>2013-05-26T14:30:52Z</time>
      </trkpt>
      <trkpt lat="59.9367798" lon="17.6475892">
        <ele>29.9381</ele>
        <time>2013-05-26T14:30:53Z</time>
      </trkpt>
      <trkpt lat="59.9368362" lon="17.6476535">
        <ele>29.9381</ele>
        <time>2013-05-26T14:30:54Z</time>
      </trkpt>
      <trkpt lat="59.9368916" lon="17.6477241">
        <ele>30.4188</ele>
        <time>2013-05-26T14:30:55Z</time>
      </trkpt>
      <trkpt lat="59.9369478" lon="17.6477955">
        <ele>30.4188</ele>
        <time>2013-05-26T14:30:56Z</time>
      </trkpt>
      <trkpt lat="59.9370037" lon="17.6478665">
        <ele>30.4188</ele>
        <time>2013-05-26T14:30:57Z</time>
      </trkpt>
      <trkpt lat="59.9370565" lon="17.6479395">
        <ele>29.4575</ele>
        <time>2013-05-26T14:30:58Z</time>
      </trkpt>
      <trkpt lat="59.9371092" lon="17.6480096">
        <ele>29.4575</ele>
        <time>2013-05-26T14:30:59Z</time>
      </trkpt>
      <trkpt lat="59.9371637" lon="17.648075">
        <ele>28.9769</ele>
        <time>2013-05-26T14:31:00Z</time>
      </trkpt>
      <trkpt lat="59.9372151" lon="17.6481446">
        <ele>28.9769</ele>
        <time>2013-05-26T14:31:01Z</time>
      </trkpt>
      <trkpt lat="59.9372687" lon="17.6482113">
        <ele>28.9769</ele>
        <time>2013-05-26T14:31:02Z</time>
      </trkpt>
      <trkpt lat="59.9373236" lon="17.6482819">
        <ele>28.4962</ele>
        <time>2013-05-26T14:31:03Z</time>
      </trkpt>
      <trkpt lat="59.9373777" lon="17.6483527">
        <ele>27.5349</ele>
        <time>2013-05-26T14:31:04Z</time>
      </trkpt>
      <trkpt lat="59.9374238" lon="17.648434">
        <ele>27.5349</ele>
        <time>2013-05-26T14:31:05Z</time>
      </trkpt>
      <trkpt lat="59.9374591" lon="17.6485171">
        <ele>27.5349</ele>
        <time>2013-05-26T14:31:06Z</time>
      </trkpt>
      <trkpt lat="59.9374865" lon="17.6486041">
        <ele>28.0155</ele>
        <time>2013-05-26T14:31:07Z</time>
      </trkpt>
      <trkpt lat="59.9375065" lon="17.6486985">
        <ele>28.0155</ele>
        <time>2013-05-26T14:31:08Z</time>
      </trkpt>
      <trkpt lat="59.9375253" lon="17.6487987">
        <ele>28.0155</ele>
        <time>2013-05-26T14:31:09Z</time>
      </trkpt>
      <trkpt lat="59.9375552" lon="17.6488927">
        <ele>28.0155</ele>
        <time>2013-05-26T14:31:10Z</time>
      </trkpt>
      <trkpt lat="59.9375919" lon="17.6489787">
        <ele>28.0155</ele>
        <time>2013-05-26T14:31:11Z</time>
      </trkpt>
      <trkpt lat="59.9376315" lon="17.6490604">
        <ele>27.5349</ele>
        <time>2013-05-26T14:31:12Z</time>
      </trkpt>
      <trkpt lat="59.9376719" lon="17.6491416">
        <ele>27.5349</ele>
        <time>2013-05-26T14:31:13Z</time>
      </trkpt>
      <trkpt lat="59.9377124" lon="17.6492253">
        <ele>27.5349</ele>
        <time>2013-05-26T14:31:14Z</time>
      </trkpt>
      <trkpt lat="59.9377523" lon="17.6493102">
        <ele>27.0543</ele>
        <time>2013-05-26T14:31:15Z</time>
      </trkpt>
      <trkpt lat="59.9377889" lon="17.6494008">
        <ele>27.0543</ele>
        <time>2013-05-26T14:31:16Z</time>
      </trkpt>
      <trkpt lat="59.9378171" lon="17.6495035">
        <ele>27.5349</ele>
        <time>2013-05-26T14:31:17Z</time>
      </trkpt>
      <trkpt lat="59.9378445" lon="17.6496071">
        <ele>27.5349</ele>
        <time>2013-05-26T14:31:18Z</time>
      </trkpt>
      <trkpt lat="59.9378768" lon="17.6497047">
        <ele>27.5349</ele>
        <time>2013-05-26T14:31:19Z</time>
      </trkpt>
      <trkpt lat="59.9379147" lon="17.6498005">
        <ele>27.5349</ele>
        <time>2013-05-26T14:31:20Z</time>
      </trkpt>
      <trkpt lat="59.9379547" lon="17.6498955">
        <ele>27.5349</ele>
        <time>2013-05-26T14:31:21Z</time>
      </trkpt>
      <trkpt lat="59.937995" lon="17.6499901">
        <ele>28.0155</ele>
        <time>2013-05-26T14:31:22Z</time>
      </trkpt>
      <trkpt lat="59.938034" lon="17.6500875">
        <ele>27.5349</ele>
        <time>2013-05-26T14:31:23Z</time>
      </trkpt>
      <trkpt lat="59.9380693" lon="17.6501901">
        <ele>27.5349</ele>
        <time>2013-05-26T14:31:24Z</time>
      </trkpt>
      <trkpt lat="59.9381027" lon="17.6502912">
        <ele>27.5349</ele>
        <time>2013-05-26T14:31:25Z</time>
      </trkpt>
      <trkpt lat="59.9381355" lon="17.6503869">
        <ele>27.5349</ele>
        <time>2013-05-26T14:31:26Z</time>
      </trkpt>
      <trkpt lat="59.9381677" lon="17.6504798">
        <ele>27.5349</ele>
        <time>2013-05-26T14:31:27Z</time>
      </trkpt>
      <trkpt lat="59.9381994" lon="17.6505716">
        <ele>27.5349</ele>
        <time>2013-05-26T14:31:28Z</time>
      </trkpt>
      <trkpt lat="59.938232" lon="17.6506628">
        <ele>27.5349</ele>
        <time>2013-05-26T14:31:29Z</time>
      </trkpt>
      <trkpt lat="59.9382661" lon="17.6507539">
        <ele>28.0155</ele>
        <time>2013-05-26T14:31:30Z</time>
      </trkpt>
      <trkpt lat="59.9383035" lon="17.6508429">
        <ele>28.0155</ele>
        <time>2013-05-26T14:31:31Z</time>
      </trkpt>
      <trkpt lat="59.9383434" lon="17.6509254">
        <ele>28.0155</ele>
        <time>2013-05-26T14:31:32Z</time>
      </trkpt>
      <trkpt lat="59.9383847" lon="17.6510076">
        <ele>27.5349</ele>
        <time>2013-05-26T14:31:33Z</time>
      </trkpt>
      <trkpt lat="59.9384252" lon="17.6510967">
        <ele>28.0155</ele>
        <time>2013-05-26T14:31:34Z</time>
      </trkpt>
      <trkpt lat="59.9384625" lon="17.6511926">
        <ele>28.0155</ele>
        <time>2013-05-26T14:31:35Z</time>
      </trkpt>
      <trkpt lat="59.938497" lon="17.6512911">
        <ele>28.0155</ele>
        <time>2013-05-26T14:31:36Z</time>
      </trkpt>
      <trkpt lat="59.938529" lon="17.6513909">
        <ele>28.0155</ele>
        <time>2013-05-26T14:31:37Z</time>
      </trkpt>
      <trkpt lat="59.9385597" lon="17.6514909">
        <ele>28.4962</ele>
        <time>2013-05-26T14:31:38Z</time>
      </trkpt>
      <trkpt lat="59.9385902" lon="17.6515889">
        <ele>28.4962</ele>
        <time>2013-05-26T14:31:39Z</time>
      </trkpt>
      <trkpt lat="59.9386209" lon="17.6516846">
        <ele>28.4962</ele>
        <time>2013-05-26T14:31:40Z</time>
      </trkpt>
      <trkpt lat="59.9386518" lon="17.6517811">
        <ele>28.9769</ele>
        <time>2013-05-26T14:31:41Z</time>
      </trkpt>
      <trkpt lat="59.9386819" lon="17.6518788">
        <ele>28.9769</ele>
        <time>2013-05-26T14:31:42Z</time>
      </trkpt>
      <trkpt lat="59.9387122" lon="17.6519779">
        <ele>29.4575</ele>
        <time>2013-05-26T14:31:43Z</time>
      </trkpt>
      <trkpt lat="59.9387428" lon="17.6520777">
        <ele>29.4575</ele>
        <time>2013-05-26T14:31:44Z</time>
      </trkpt>
      <trkpt lat="59.9387726" lon="17.6521777">
        <ele>29.9381</ele>
        <time>2013-05-26T14:31:45Z</time>
      </trkpt>
      <trkpt lat="59.9388011" lon="17.6522794">
        <ele>30.4188</ele>
        <time>2013-05-26T14:31:46Z</time>
      </trkpt>
      <trkpt lat="59.9388272" lon="17.6523821">
        <ele>30.4188</ele>
        <time>2013-05-26T14:31:47Z</time>
      </trkpt>
      <trkpt lat="59.9388543" lon="17.6524833">
        <ele>30.4188</ele>
        <time>2013-05-26T14:31:48Z</time>
      </trkpt>
      <trkpt lat="59.9388821" lon="17.6525828">
        <ele>30.8995</ele>
        <time>2013-05-26T14:31:49Z</time>
      </trkpt>
      <trkpt lat="59.9389105" lon="17.6526812">
        <ele>30.8995</ele>
        <time>2013-05-26T14:31:50Z</time>
      </trkpt>
      <trkpt lat="59.9389382" lon="17.6527796">
        <ele>30.8995</ele>
        <time>2013-05-26T14:31:51Z</time>
      </trkpt>
      <trkpt lat="59.9389638" lon="17.6528772">
        <ele>30.8995</ele>
        <time>2013-05-26T14:31:52Z</time>
      </trkpt>
      <trkpt lat="59.9389885" lon="17.652973">
        <ele>30.8995</ele>
        <time>2013-05-26T14:31:53Z</time>
      </trkpt>
      <trkpt lat="59.9390134" lon="17.6530668">
        <ele>31.3801</ele>
        <time>2013-05-26T14:31:54Z</time>
      </trkpt>
      <trkpt lat="59.9390373" lon="17.6531605">
        <ele>31.3801</ele>
        <time>2013-05-26T14:31:55Z</time>
      </trkpt>
      <trkpt lat="59.9390586" lon="17.6532555">
        <ele>30.8995</ele>
        <time>2013-05-26T14:31:56Z</time>
      </trkpt>
      <trkpt lat="59.9390791" lon="17.6533503">
        <ele>30.8995</ele>
        <time>2013-05-26T14:31:57Z</time>
      </trkpt>
      <trkpt lat="59.9390988" lon="17.653443">
        <ele>31.3801</ele>
        <time>2013-05-26T14:31:58Z</time>
      </trkpt>
      <trkpt lat="59.9391187" lon="17.6535346">
        <ele>31.3801</ele>
        <time>2013-05-26T14:31:59Z</time>
      </trkpt>
      <trkpt lat="59.9391393" lon="17.6536243">
        <ele>31.3801</ele>
        <time>2013-05-26T14:32:00Z</time>
      </trkpt>
      <trkpt lat="59.939161" lon="17.6537125">
        <ele>31.3801</ele>
        <time>2013-05-26T14:32:01Z</time>
      </trkpt>
      <trkpt lat="59.9391879" lon="17.653781">
        <ele>31.3801</ele>
        <time>2013-05-26T14:32:02Z</time>
      </trkpt>
      <trkpt lat="59.9392105" lon="17.6538729">
        <ele>31.3801</ele>
        <time>2013-05-26T14:32:03Z</time>
      </trkpt>
      <trkpt lat="59.9392302" lon="17.653967">
        <ele>31.8607</ele>
        <time>2013-05-26T14:32:04Z</time>
      </trkpt>
      <trkpt lat="59.9392488" lon="17.6540609">
        <ele>31.8607</ele>
        <time>2013-05-26T14:32:05Z</time>
      </trkpt>
      <trkpt lat="59.9392643" lon="17.6541554">
        <ele>32.3416</ele>
        <time>2013-05-26T14:32:06Z</time>
      </trkpt>
      <trkpt lat="59.9392832" lon="17.6542468">
        <ele>32.8223</ele>
        <time>2013-05-26T14:32:07Z</time>
      </trkpt>
      <trkpt lat="59.9393012" lon="17.6543427">
        <ele>32.8223</ele>
        <time>2013-05-26T14:32:08Z</time>
      </trkpt>
      <trkpt lat="59.9393207" lon="17.6544391">
        <ele>32.8223</ele>
        <time>2013-05-26T14:32:09Z</time>
      </trkpt>
      <trkpt lat="59.9393405" lon="17.654536">
        <ele>33.3029</ele>
        <time>2013-05-26T14:32:10Z</time>
      </trkpt>
      <trkpt lat="59.9393611" lon="17.6546327">
        <ele>33.3029</ele>
        <time>2013-05-26T14:32:11Z</time>
      </trkpt>
      <trkpt lat="59.9393806" lon="17.6547295">
        <ele>33.3029</ele>
        <time>2013-05-26T14:32:12Z</time>
      </trkpt>
      <trkpt lat="59.9393974" lon="17.6548276">
        <ele>33.3029</ele>
        <time>2013-05-26T14:32:13Z</time>
      </trkpt>
      <trkpt lat="59.9394151" lon="17.6549249">
        <ele>33.3029</ele>
        <time>2013-05-26T14:32:14Z</time>
      </trkpt>
      <trkpt lat="59.9394357" lon="17.6550214">
        <ele>33.3029</ele>
        <time>2013-05-26T14:32:15Z</time>
      </trkpt>
      <trkpt lat="59.9394565" lon="17.6551198">
        <ele>33.7834</ele>
        <time>2013-05-26T14:32:16Z</time>
      </trkpt>
      <trkpt lat="59.939478" lon="17.6552192">
        <ele>33.7834</ele>
        <time>2013-05-26T14:32:17Z</time>
      </trkpt>
      <trkpt lat="59.9394988" lon="17.6553201">
        <ele>33.7834</ele>
        <time>2013-05-26T14:32:18Z</time>
      </trkpt>
      <trkpt lat="59.9395186" lon="17.6554217">
        <ele>33.7834</ele>
        <time>2013-05-26T14:32:19Z</time>
      </trkpt>
      <trkpt lat="59.9395378" lon="17.6555232">
        <ele>33.7834</ele>
        <time>2013-05-26T14:32:20Z</time>
      </trkpt>
      <trkpt lat="59.9395565" lon="17.655625">
        <ele>33.7834</ele>
        <time>2013-05-26T14:32:21Z</time>
      </trkpt>
      <trkpt lat="59.9395751" lon="17.6557262">
        <ele>33.7834</ele>
        <time>2013-05-26T14:32:22Z</time>
      </trkpt>
      <trkpt lat="59.9395952" lon="17.6558268">
        <ele>33.7834</ele>
        <time>2013-05-26T14:32:23Z</time>
      </trkpt>
      <trkpt lat="59.939616" lon="17.6559288">
        <ele>33.7834</ele>
        <time>2013-05-26T14:32:24Z</time>
      </trkpt>
      <trkpt lat="59.9396368" lon="17.6560338">
        <ele>33.3029</ele>
        <time>2013-05-26T14:32:25Z</time>
      </trkpt>
      <trkpt lat="59.9396569" lon="17.656141">
        <ele>33.3029</ele>
        <time>2013-05-26T14:32:26Z</time>
      </trkpt>
      <trkpt lat="59.9396777" lon="17.6562487">
        <ele>33.3029</ele>
        <time>2013-05-26T14:32:27Z</time>
      </trkpt>
      <trkpt lat="59.9396995" lon="17.6563572">
        <ele>32.8223</ele>
        <time>2013-05-26T14:32:28Z</time>
      </trkpt>
      <trkpt lat="59.9397227" lon="17.6564666">
        <ele>32.8223</ele>
        <time>2013-05-26T14:32:29Z</time>
      </trkpt>
      <trkpt lat="59.9397292" lon="17.6565759">
        <ele>32.8223</ele>
        <time>2013-05-26T14:32:30Z</time>
      </trkpt>
      <trkpt lat="59.9397383" lon="17.6566867">
        <ele>33.3029</ele>
        <time>2013-05-26T14:32:31Z</time>
      </trkpt>
      <trkpt lat="59.9397647" lon="17.6568058">
        <ele>32.8223</ele>
        <time>2013-05-26T14:32:32Z</time>
      </trkpt>
      <trkpt lat="59.9397955" lon="17.6569285">
        <ele>32.8223</ele>
        <time>2013-05-26T14:32:33Z</time>
      </trkpt>
      <trkpt lat="59.9398235" lon="17.6570488">
        <ele>32.8223</ele>
        <time>2013-05-26T14:32:34Z</time>
      </trkpt>
      <trkpt lat="59.9398477" lon="17.6571678">
        <ele>32.3416</ele>
        <time>2013-05-26T14:32:35Z</time>
      </trkpt>
      <trkpt lat="59.9398741" lon="17.657288">
        <ele>32.3416</ele>
        <time>2013-05-26T14:32:36Z</time>
      </trkpt>
      <trkpt lat="59.9398997" lon="17.6574099">
        <ele>32.3416</ele>
        <time>2013-05-26T14:32:37Z</time>
      </trkpt>
      <trkpt lat="59.9399257" lon="17.6575336">
        <ele>31.8607</ele>
        <time>2013-05-26T14:32:38Z</time>
      </trkpt>
      <trkpt lat="59.9399512" lon="17.6576584">
        <ele>31.8607</ele>
        <time>2013-05-26T14:32:39Z</time>
      </trkpt>
      <trkpt lat="59.9399771" lon="17.6577839">
        <ele>31.3801</ele>
        <time>2013-05-26T14:32:40Z</time>
      </trkpt>
      <trkpt lat="59.9400041" lon="17.6579108">
        <ele>31.3801</ele>
        <time>2013-05-26T14:32:41Z</time>
      </trkpt>
      <trkpt lat="59.940032" lon="17.6580366">
        <ele>30.8995</ele>
        <time>2013-05-26T14:32:42Z</time>
      </trkpt>
      <trkpt lat="59.9400597" lon="17.6581617">
        <ele>30.8995</ele>
        <time>2013-05-26T14:32:43Z</time>
      </trkpt>
      <trkpt lat="59.9400853" lon="17.6582879">
        <ele>30.4188</ele>
        <time>2013-05-26T14:32:44Z</time>
      </trkpt>
      <trkpt lat="59.9401129" lon="17.6584132">
        <ele>30.4188</ele>
        <time>2013-05-26T14:32:45Z</time>
      </trkpt>
      <trkpt lat="59.9401429" lon="17.6585376">
        <ele>29.9381</ele>
        <time>2013-05-26T14:32:46Z</time>
      </trkpt>
      <trkpt lat="59.9401729" lon="17.6586616">
        <ele>29.9381</ele>
        <time>2013-05-26T14:32:47Z</time>
      </trkpt>
      <trkpt lat="59.9402015" lon="17.6587867">
        <ele>29.9381</ele>
        <time>2013-05-26T14:32:48Z</time>
      </trkpt>
      <trkpt lat="59.9402286" lon="17.6589141">
        <ele>29.4575</ele>
        <time>2013-05-26T14:32:49Z</time>
      </trkpt>
      <trkpt lat="59.9402551" lon="17.6590419">
        <ele>29.9381</ele>
        <time>2013-05-26T14:32:50Z</time>
      </trkpt>
      <trkpt lat="59.9402796" lon="17.6591675">
        <ele>29.9381</ele>
        <time>2013-05-26T14:32:51Z</time>
      </trkpt>
      <trkpt lat="59.9403007" lon="17.659292">
        <ele>29.9381</ele>
        <time>2013-05-26T14:32:52Z</time>
      </trkpt>
      <trkpt lat="59.9403201" lon="17.6594141">
        <ele>29.9381</ele>
        <time>2013-05-26T14:32:53Z</time>
      </trkpt>
      <trkpt lat="59.9403396" lon="17.659533">
        <ele>29.9381</ele>
        <time>2013-05-26T14:32:54Z</time>
      </trkpt>
      <trkpt lat="59.9403604" lon="17.6596469">
        <ele>30.4188</ele>
        <time>2013-05-26T14:32:55Z</time>
      </trkpt>
      <trkpt lat="59.9403826" lon="17.6597526">
        <ele>30.4188</ele>
        <time>2013-05-26T14:32:56Z</time>
      </trkpt>
      <trkpt lat="59.9404075" lon="17.6598554">
        <ele>30.4188</ele>
        <time>2013-05-26T14:32:57Z</time>
      </trkpt>
      <trkpt lat="59.9404371" lon="17.6599558">
        <ele>31.3801</ele>
        <time>2013-05-26T14:32:58Z</time>
      </trkpt>
      <trkpt lat="59.9404418" lon="17.66002">
        <ele>31.3801</ele>
        <time>2013-05-26T14:32:59Z</time>
      </trkpt>
      <trkpt lat="59.9404433" lon="17.6599368">
        <ele>31.8607</ele>
        <time>2013-05-26T14:33:00Z</time>
      </trkpt>
      <trkpt lat="59.940464" lon="17.6601312">
        <ele>31.3801</ele>
        <time>2013-05-26T14:33:01Z</time>
      </trkpt>
      <trkpt lat="59.9404858" lon="17.6602861">
        <ele>30.8995</ele>
        <time>2013-05-26T14:33:02Z</time>
      </trkpt>
      <trkpt lat="59.9404785" lon="17.6604514">
        <ele>30.4188</ele>
        <time>2013-05-26T14:33:03Z</time>
      </trkpt>
      <trkpt lat="59.940471" lon="17.6606083">
        <ele>30.4188</ele>
        <time>2013-05-26T14:33:04Z</time>
      </trkpt>
      <trkpt lat="59.940456" lon="17.6607691">
        <ele>29.9381</ele>
        <time>2013-05-26T14:33:05Z</time>
      </trkpt>
      <trkpt lat="59.9404303" lon="17.6609073">
        <ele>29.9381</ele>
        <time>2013-05-26T14:33:06Z</time>
      </trkpt>
      <trkpt lat="59.9404094" lon="17.6610528">
        <ele>29.9381</ele>
        <time>2013-05-26T14:33:07Z</time>
      </trkpt>
      <trkpt lat="59.9403887" lon="17.661182">
        <ele>29.4575</ele>
        <time>2013-05-26T14:33:08Z</time>
      </trkpt>
      <trkpt lat="59.9403908" lon="17.6613275">
        <ele>29.9381</ele>
        <time>2013-05-26T14:33:09Z</time>
      </trkpt>
      <trkpt lat="59.9404079" lon="17.6614663">
        <ele>28.9769</ele>
        <time>2013-05-26T14:33:10Z</time>
      </trkpt>
      <trkpt lat="59.9404184" lon="17.6615901">
        <ele>29.9381</ele>
        <time>2013-05-26T14:33:11Z</time>
      </trkpt>
      <trkpt lat="59.940435" lon="17.6617094">
        <ele>30.8995</ele>
        <time>2013-05-26T14:33:12Z</time>
      </trkpt>
      <trkpt lat="59.9404566" lon="17.6618186">
        <ele>30.8995</ele>
        <time>2013-05-26T14:33:13Z</time>
      </trkpt>
      <trkpt lat="59.9404897" lon="17.6619199">
        <ele>31.3801</ele>
        <time>2013-05-26T14:33:14Z</time>
      </trkpt>
      <trkpt lat="59.9405311" lon="17.6620061">
        <ele>31.3801</ele>
        <time>2013-05-26T14:33:15Z</time>
      </trkpt>
      <trkpt lat="59.9405785" lon="17.6620753">
        <ele>31.3801</ele>
        <time>2013-05-26T14:33:16Z</time>
      </trkpt>
      <trkpt lat="59.9406302" lon="17.6621252">
        <ele>31.3801</ele>
        <time>2013-05-26T14:33:17Z</time>
      </trkpt>
      <trkpt lat="59.9406852" lon="17.6621552">
        <ele>31.3801</ele>
        <time>2013-05-26T14:33:18Z</time>
      </trkpt>
      <trkpt lat="59.9407436" lon="17.6621707">
        <ele>31.8607</ele>
        <time>2013-05-26T14:33:19Z</time>
      </trkpt>
      <trkpt lat="59.9408018" lon="17.6621791">
        <ele>31.8607</ele>
        <time>2013-05-26T14:33:20Z</time>
      </trkpt>
      <trkpt lat="59.9408597" lon="17.6621874">
        <ele>31.8607</ele>
        <time>2013-05-26T14:33:21Z</time>
      </trkpt>
      <trkpt lat="59.9409176" lon="17.6621999">
        <ele>32.3416</ele>
        <time>2013-05-26T14:33:22Z</time>
      </trkpt>
      <trkpt lat="59.9409754" lon="17.6622206">
        <ele>31.8607</ele>
        <time>2013-05-26T14:33:23Z</time>
      </trkpt>
      <trkpt lat="59.9410334" lon="17.6622473">
        <ele>32.3416</ele>
        <time>2013-05-26T14:33:24Z</time>
      </trkpt>
      <trkpt lat="59.9410914" lon="17.6622766">
        <ele>31.8607</ele>
        <time>2013-05-26T14:33:25Z</time>
      </trkpt>
      <trkpt lat="59.9411492" lon="17.6623102">
        <ele>32.3416</ele>
        <time>2013-05-26T14:33:26Z</time>
      </trkpt>
      <trkpt lat="59.9412048" lon="17.6623505">
        <ele>32.3416</ele>
        <time>2013-05-26T14:33:27Z</time>
      </trkpt>
      <trkpt lat="59.9412587" lon="17.6623972">
        <ele>32.3416</ele>
        <time>2013-05-26T14:33:28Z</time>
      </trkpt>
      <trkpt lat="59.941312" lon="17.6624454">
        <ele>32.3416</ele>
        <time>2013-05-26T14:33:29Z</time>
      </trkpt>
      <trkpt lat="59.9413648" lon="17.6624946">
        <ele>32.3416</ele>
        <time>2013-05-26T14:33:30Z</time>
      </trkpt>
      <trkpt lat="59.9414162" lon="17.6625489">
        <ele>32.3416</ele>
        <time>2013-05-26T14:33:31Z</time>
      </trkpt>
      <trkpt lat="59.9414653" lon="17.662609">
        <ele>32.3416</ele>
        <time>2013-05-26T14:33:32Z</time>
      </trkpt>
      <trkpt lat="59.9415113" lon="17.6626744">
        <ele>32.3416</ele>
        <time>2013-05-26T14:33:33Z</time>
      </trkpt>
      <trkpt lat="59.9415553" lon="17.6627436">
        <ele>32.3416</ele>
        <time>2013-05-26T14:33:34Z</time>
      </trkpt>
      <trkpt lat="59.9416" lon="17.6628132">
        <ele>32.3416</ele>
        <time>2013-05-26T14:33:35Z</time>
      </trkpt>
      <trkpt lat="59.9416435" lon="17.6628863">
        <ele>32.3416</ele>
        <time>2013-05-26T14:33:36Z</time>
      </trkpt>
      <trkpt lat="59.9416845" lon="17.6629643">
        <ele>32.3416</ele>
        <time>2013-05-26T14:33:37Z</time>
      </trkpt>
      <trkpt lat="59.9417239" lon="17.6630421">
        <ele>32.3416</ele>
        <time>2013-05-26T14:33:38Z</time>
      </trkpt>
      <trkpt lat="59.9417632" lon="17.6631172">
        <ele>32.8223</ele>
        <time>2013-05-26T14:33:39Z</time>
      </trkpt>
      <trkpt lat="59.9418035" lon="17.6631913">
        <ele>32.8223</ele>
        <time>2013-05-26T14:33:40Z</time>
      </trkpt>
      <trkpt lat="59.9418443" lon="17.6632665">
        <ele>32.8223</ele>
        <time>2013-05-26T14:33:41Z</time>
      </trkpt>
      <trkpt lat="59.9418855" lon="17.6633413">
        <ele>32.8223</ele>
        <time>2013-05-26T14:33:42Z</time>
      </trkpt>
      <trkpt lat="59.9419272" lon="17.6634146">
        <ele>32.8223</ele>
        <time>2013-05-26T14:33:43Z</time>
      </trkpt>
      <trkpt lat="59.9419697" lon="17.6634861">
        <ele>32.8223</ele>
        <time>2013-05-26T14:33:44Z</time>
      </trkpt>
      <trkpt lat="59.9420128" lon="17.663556">
        <ele>32.8223</ele>
        <time>2013-05-26T14:33:45Z</time>
      </trkpt>
      <trkpt lat="59.9420565" lon="17.6636279">
        <ele>33.3029</ele>
        <time>2013-05-26T14:33:46Z</time>
      </trkpt>
      <trkpt lat="59.9421017" lon="17.6636989">
        <ele>33.3029</ele>
        <time>2013-05-26T14:33:47Z</time>
      </trkpt>
      <trkpt lat="59.9421476" lon="17.6637676">
        <ele>33.3029</ele>
        <time>2013-05-26T14:33:48Z</time>
      </trkpt>
      <trkpt lat="59.9421941" lon="17.6638351">
        <ele>33.3029</ele>
        <time>2013-05-26T14:33:49Z</time>
      </trkpt>
      <trkpt lat="59.9422413" lon="17.6639015">
        <ele>33.3029</ele>
        <time>2013-05-26T14:33:50Z</time>
      </trkpt>
      <trkpt lat="59.9422889" lon="17.6639671">
        <ele>33.3029</ele>
        <time>2013-05-26T14:33:51Z</time>
      </trkpt>
      <trkpt lat="59.9423361" lon="17.6640335">
        <ele>33.3029</ele>
        <time>2013-05-26T14:33:52Z</time>
      </trkpt>
      <trkpt lat="59.9423835" lon="17.6640999">
        <ele>33.3029</ele>
        <time>2013-05-26T14:33:53Z</time>
      </trkpt>
      <trkpt lat="59.9424317" lon="17.6641652">
        <ele>33.3029</ele>
        <time>2013-05-26T14:33:54Z</time>
      </trkpt>
      <trkpt lat="59.9424811" lon="17.6642289">
        <ele>33.3029</ele>
        <time>2013-05-26T14:33:55Z</time>
      </trkpt>
      <trkpt lat="59.9425322" lon="17.6642919">
        <ele>32.8223</ele>
        <time>2013-05-26T14:33:56Z</time>
      </trkpt>
      <trkpt lat="59.9425851" lon="17.6643547">
        <ele>32.8223</ele>
        <time>2013-05-26T14:33:57Z</time>
      </trkpt>
      <trkpt lat="59.9426391" lon="17.6644179">
        <ele>32.8223</ele>
        <time>2013-05-26T14:33:58Z</time>
      </trkpt>
      <trkpt lat="59.9426936" lon="17.6644813">
        <ele>32.8223</ele>
        <time>2013-05-26T14:33:59Z</time>
      </trkpt>
      <trkpt lat="59.9427498" lon="17.6645428">
        <ele>32.3416</ele>
        <time>2013-05-26T14:34:00Z</time>
      </trkpt>
      <trkpt lat="59.9428073" lon="17.664604">
        <ele>32.3416</ele>
        <time>2013-05-26T14:34:01Z</time>
      </trkpt>
      <trkpt lat="59.9428655" lon="17.6646645">
        <ele>32.3416</ele>
        <time>2013-05-26T14:34:02Z</time>
      </trkpt>
      <trkpt lat="59.9429255" lon="17.6647227">
        <ele>31.8607</ele>
        <time>2013-05-26T14:34:03Z</time>
      </trkpt>
      <trkpt lat="59.9429862" lon="17.6647816">
        <ele>31.8607</ele>
        <time>2013-05-26T14:34:04Z</time>
      </trkpt>
      <trkpt lat="59.9430463" lon="17.6648406">
        <ele>31.8607</ele>
        <time>2013-05-26T14:34:05Z</time>
      </trkpt>
      <trkpt lat="59.9431065" lon="17.6648956">
        <ele>31.3801</ele>
        <time>2013-05-26T14:34:06Z</time>
      </trkpt>
      <trkpt lat="59.943167" lon="17.6649458">
        <ele>31.3801</ele>
        <time>2013-05-26T14:34:07Z</time>
      </trkpt>
      <trkpt lat="59.9432275" lon="17.6649961">
        <ele>31.3801</ele>
        <time>2013-05-26T14:34:08Z</time>
      </trkpt>
      <trkpt lat="59.9432881" lon="17.6650484">
        <ele>30.8995</ele>
        <time>2013-05-26T14:34:09Z</time>
      </trkpt>
      <trkpt lat="59.9433496" lon="17.6650995">
        <ele>30.8995</ele>
        <time>2013-05-26T14:34:10Z</time>
      </trkpt>
      <trkpt lat="59.9434125" lon="17.6651481">
        <ele>30.8995</ele>
        <time>2013-05-26T14:34:11Z</time>
      </trkpt>
      <trkpt lat="59.9434771" lon="17.6651955">
        <ele>30.4188</ele>
        <time>2013-05-26T14:34:12Z</time>
      </trkpt>
      <trkpt lat="59.9435431" lon="17.6652437">
        <ele>30.4188</ele>
        <time>2013-05-26T14:34:13Z</time>
      </trkpt>
      <trkpt lat="59.9436109" lon="17.6652914">
        <ele>30.4188</ele>
        <time>2013-05-26T14:34:14Z</time>
      </trkpt>
      <trkpt lat="59.9436808" lon="17.6653377">
        <ele>29.9381</ele>
        <time>2013-05-26T14:34:15Z</time>
      </trkpt>
      <trkpt lat="59.9437528" lon="17.6653825">
        <ele>29.9381</ele>
        <time>2013-05-26T14:34:16Z</time>
      </trkpt>
      <trkpt lat="59.9438258" lon="17.6654274">
        <ele>29.9381</ele>
        <time>2013-05-26T14:34:17Z</time>
      </trkpt>
      <trkpt lat="59.9438994" lon="17.6654709">
        <ele>29.4575</ele>
        <time>2013-05-26T14:34:18Z</time>
      </trkpt>
      <trkpt lat="59.9439735" lon="17.6655089">
        <ele>29.4575</ele>
        <time>2013-05-26T14:34:19Z</time>
      </trkpt>
      <trkpt lat="59.9440469" lon="17.6655425">
        <ele>29.4575</ele>
        <time>2013-05-26T14:34:20Z</time>
      </trkpt>
      <trkpt lat="59.9441192" lon="17.6655762">
        <ele>28.9769</ele>
        <time>2013-05-26T14:34:21Z</time>
      </trkpt>
      <trkpt lat="59.9441915" lon="17.6656099">
        <ele>28.9769</ele>
        <time>2013-05-26T14:34:22Z</time>
      </trkpt>
      <trkpt lat="59.9442639" lon="17.6656414">
        <ele>28.9769</ele>
        <time>2013-05-26T14:34:23Z</time>
      </trkpt>
      <trkpt lat="59.9443369" lon="17.6656699">
        <ele>28.9769</ele>
        <time>2013-05-26T14:34:24Z</time>
      </trkpt>
      <trkpt lat="59.9444101" lon="17.6656988">
        <ele>28.9769</ele>
        <time>2013-05-26T14:34:25Z</time>
      </trkpt>
      <trkpt lat="59.9444833" lon="17.6657273">
        <ele>28.4962</ele>
        <time>2013-05-26T14:34:26Z</time>
      </trkpt>
      <trkpt lat="59.9445566" lon="17.6657543">
        <ele>28.4962</ele>
        <time>2013-05-26T14:34:27Z</time>
      </trkpt>
      <trkpt lat="59.9446296" lon="17.6657798">
        <ele>28.4962</ele>
        <time>2013-05-26T14:34:28Z</time>
      </trkpt>
      <trkpt lat="59.9447024" lon="17.6658055">
        <ele>28.4962</ele>
        <time>2013-05-26T14:34:29Z</time>
      </trkpt>
      <trkpt lat="59.944775" lon="17.6658342">
        <ele>28.4962</ele>
        <time>2013-05-26T14:34:30Z</time>
      </trkpt>
      <trkpt lat="59.9448474" lon="17.6658611">
        <ele>28.4962</ele>
        <time>2013-05-26T14:34:31Z</time>
      </trkpt>
      <trkpt lat="59.9449199" lon="17.6658863">
        <ele>28.4962</ele>
        <time>2013-05-26T14:34:32Z</time>
      </trkpt>
      <trkpt lat="59.944992" lon="17.665912">
        <ele>28.4962</ele>
        <time>2013-05-26T14:34:33Z</time>
      </trkpt>
      <trkpt lat="59.9450639" lon="17.6659383">
        <ele>28.4962</ele>
        <time>2013-05-26T14:34:34Z</time>
      </trkpt>
      <trkpt lat="59.9451355" lon="17.6659648">
        <ele>28.0155</ele>
        <time>2013-05-26T14:34:35Z</time>
      </trkpt>
      <trkpt lat="59.9452067" lon="17.6659927">
        <ele>28.0155</ele>
        <time>2013-05-26T14:34:36Z</time>
      </trkpt>
      <trkpt lat="59.9452779" lon="17.6660189">
        <ele>28.0155</ele>
        <time>2013-05-26T14:34:37Z</time>
      </trkpt>
      <trkpt lat="59.9453493" lon="17.666041">
        <ele>28.0155</ele>
        <time>2013-05-26T14:34:38Z</time>
      </trkpt>
      <trkpt lat="59.9454207" lon="17.6660637">
        <ele>28.0155</ele>
        <time>2013-05-26T14:34:39Z</time>
      </trkpt>
      <trkpt lat="59.9454913" lon="17.6660891">
        <ele>28.0155</ele>
        <time>2013-05-26T14:34:40Z</time>
      </trkpt>
      <trkpt lat="59.9455612" lon="17.6661142">
        <ele>28.0155</ele>
        <time>2013-05-26T14:34:41Z</time>
      </trkpt>
      <trkpt lat="59.9456306" lon="17.6661386">
        <ele>27.5349</ele>
        <time>2013-05-26T14:34:42Z</time>
      </trkpt>
      <trkpt lat="59.9456991" lon="17.6661638">
        <ele>27.5349</ele>
        <time>2013-05-26T14:34:43Z</time>
      </trkpt>
      <trkpt lat="59.9457674" lon="17.6661881">
        <ele>27.5349</ele>
        <time>2013-05-26T14:34:44Z</time>
      </trkpt>
      <trkpt lat="59.9458351" lon="17.6662126">
        <ele>27.5349</ele>
        <time>2013-05-26T14:34:45Z</time>
      </trkpt>
      <trkpt lat="59.9459016" lon="17.6662387">
        <ele>27.5349</ele>
        <time>2013-05-26T14:34:46Z</time>
      </trkpt>
      <trkpt lat="59.9459674" lon="17.6662652">
        <ele>27.5349</ele>
        <time>2013-05-26T14:34:47Z</time>
      </trkpt>
      <trkpt lat="59.9460332" lon="17.6662929">
        <ele>27.5349</ele>
        <time>2013-05-26T14:34:48Z</time>
      </trkpt>
      <trkpt lat="59.9460998" lon="17.6663212">
        <ele>27.5349</ele>
        <time>2013-05-26T14:34:49Z</time>
      </trkpt>
      <trkpt lat="59.9461667" lon="17.6663496">
        <ele>27.5349</ele>
        <time>2013-05-26T14:34:50Z</time>
      </trkpt>
      <trkpt lat="59.9462336" lon="17.6663818">
        <ele>27.5349</ele>
        <time>2013-05-26T14:34:51Z</time>
      </trkpt>
      <trkpt lat="59.9463003" lon="17.6664228">
        <ele>27.5349</ele>
        <time>2013-05-26T14:34:52Z</time>
      </trkpt>
      <trkpt lat="59.946367" lon="17.6664673">
        <ele>27.0543</ele>
        <time>2013-05-26T14:34:53Z</time>
      </trkpt>
      <trkpt lat="59.9464355" lon="17.6665048">
        <ele>27.0543</ele>
        <time>2013-05-26T14:34:54Z</time>
      </trkpt>
      <trkpt lat="59.9465053" lon="17.6665318">
        <ele>27.0543</ele>
        <time>2013-05-26T14:34:55Z</time>
      </trkpt>
      <trkpt lat="59.9465751" lon="17.6665535">
        <ele>27.0543</ele>
        <time>2013-05-26T14:34:56Z</time>
      </trkpt>
      <trkpt lat="59.9466449" lon="17.6665713">
        <ele>27.0543</ele>
        <time>2013-05-26T14:34:57Z</time>
      </trkpt>
      <trkpt lat="59.9467147" lon="17.66658">
        <ele>27.0543</ele>
        <time>2013-05-26T14:34:58Z</time>
      </trkpt>
      <trkpt lat="59.9467853" lon="17.6665858">
        <ele>27.0543</ele>
        <time>2013-05-26T14:34:59Z</time>
      </trkpt>
      <trkpt lat="59.9468557" lon="17.6666017">
        <ele>27.0543</ele>
        <time>2013-05-26T14:35:00Z</time>
      </trkpt>
      <trkpt lat="59.9469255" lon="17.6666274">
        <ele>27.5349</ele>
        <time>2013-05-26T14:35:01Z</time>
      </trkpt>
      <trkpt lat="59.9469946" lon="17.6666599">
        <ele>27.5349</ele>
        <time>2013-05-26T14:35:02Z</time>
      </trkpt>
      <trkpt lat="59.9470634" lon="17.6666956">
        <ele>27.5349</ele>
        <time>2013-05-26T14:35:03Z</time>
      </trkpt>
      <trkpt lat="59.9471317" lon="17.6667315">
        <ele>27.5349</ele>
        <time>2013-05-26T14:35:04Z</time>
      </trkpt>
      <trkpt lat="59.9471997" lon="17.6667669">
        <ele>28.0155</ele>
        <time>2013-05-26T14:35:05Z</time>
      </trkpt>
      <trkpt lat="59.9472666" lon="17.6667996">
        <ele>28.0155</ele>
        <time>2013-05-26T14:35:06Z</time>
      </trkpt>
      <trkpt lat="59.9473318" lon="17.6668312">
        <ele>28.0155</ele>
        <time>2013-05-26T14:35:07Z</time>
      </trkpt>
      <trkpt lat="59.9473956" lon="17.6668622">
        <ele>28.0155</ele>
        <time>2013-05-26T14:35:08Z</time>
      </trkpt>
      <trkpt lat="59.9474592" lon="17.666891">
        <ele>28.0155</ele>
        <time>2013-05-26T14:35:09Z</time>
      </trkpt>
      <trkpt lat="59.9475227" lon="17.6669199">
        <ele>28.0155</ele>
        <time>2013-05-26T14:35:10Z</time>
      </trkpt>
      <trkpt lat="59.9475859" lon="17.6669506">
        <ele>28.4962</ele>
        <time>2013-05-26T14:35:11Z</time>
      </trkpt>
      <trkpt lat="59.9476493" lon="17.6669812">
        <ele>28.4962</ele>
        <time>2013-05-26T14:35:12Z</time>
      </trkpt>
      <trkpt lat="59.947713" lon="17.667009">
        <ele>28.4962</ele>
        <time>2013-05-26T14:35:13Z</time>
      </trkpt>
      <trkpt lat="59.9477772" lon="17.667037">
        <ele>28.4962</ele>
        <time>2013-05-26T14:35:14Z</time>
      </trkpt>
      <trkpt lat="59.9478418" lon="17.6670681">
        <ele>28.4962</ele>
        <time>2013-05-26T14:35:15Z</time>
      </trkpt>
      <trkpt lat="59.9479063" lon="17.6671021">
        <ele>28.4962</ele>
        <time>2013-05-26T14:35:16Z</time>
      </trkpt>
      <trkpt lat="59.947971" lon="17.6671368">
        <ele>28.4962</ele>
        <time>2013-05-26T14:35:17Z</time>
      </trkpt>
      <trkpt lat="59.9480358" lon="17.6671707">
        <ele>28.4962</ele>
        <time>2013-05-26T14:35:18Z</time>
      </trkpt>
      <trkpt lat="59.9481011" lon="17.6672047">
        <ele>28.4962</ele>
        <time>2013-05-26T14:35:19Z</time>
      </trkpt>
      <trkpt lat="59.9481663" lon="17.6672412">
        <ele>28.4962</ele>
        <time>2013-05-26T14:35:20Z</time>
      </trkpt>
      <trkpt lat="59.948231" lon="17.66728">
        <ele>28.9769</ele>
        <time>2013-05-26T14:35:21Z</time>
      </trkpt>
      <trkpt lat="59.9482961" lon="17.6673178">
        <ele>28.9769</ele>
        <time>2013-05-26T14:35:22Z</time>
      </trkpt>
      <trkpt lat="59.9483616" lon="17.6673538">
        <ele>28.9769</ele>
        <time>2013-05-26T14:35:23Z</time>
      </trkpt>
      <trkpt lat="59.9484271" lon="17.6673897">
        <ele>28.9769</ele>
        <time>2013-05-26T14:35:24Z</time>
      </trkpt>
      <trkpt lat="59.9484924" lon="17.6674277">
        <ele>28.9769</ele>
        <time>2013-05-26T14:35:25Z</time>
      </trkpt>
      <trkpt lat="59.9485578" lon="17.6674664">
        <ele>28.9769</ele>
        <time>2013-05-26T14:35:26Z</time>
      </trkpt>
      <trkpt lat="59.9486245" lon="17.6675027">
        <ele>28.9769</ele>
        <time>2013-05-26T14:35:27Z</time>
      </trkpt>
      <trkpt lat="59.948692" lon="17.6675383">
        <ele>28.9769</ele>
        <time>2013-05-26T14:35:28Z</time>
      </trkpt>
      <trkpt lat="59.9487599" lon="17.6675753">
        <ele>28.9769</ele>
        <time>2013-05-26T14:35:29Z</time>
      </trkpt>
      <trkpt lat="59.9488273" lon="17.6676136">
        <ele>28.9769</ele>
        <time>2013-05-26T14:35:30Z</time>
      </trkpt>
      <trkpt lat="59.9488941" lon="17.667652">
        <ele>28.9769</ele>
        <time>2013-05-26T14:35:31Z</time>
      </trkpt>
      <trkpt lat="59.9489609" lon="17.6676903">
        <ele>28.9769</ele>
        <time>2013-05-26T14:35:32Z</time>
      </trkpt>
      <trkpt lat="59.9490288" lon="17.6677274">
        <ele>28.9769</ele>
        <time>2013-05-26T14:35:33Z</time>
      </trkpt>
      <trkpt lat="59.9490973" lon="17.6677649">
        <ele>28.9769</ele>
        <time>2013-05-26T14:35:34Z</time>
      </trkpt>
      <trkpt lat="59.949166" lon="17.6678061">
        <ele>28.9769</ele>
        <time>2013-05-26T14:35:35Z</time>
      </trkpt>
      <trkpt lat="59.9492349" lon="17.6678492">
        <ele>28.9769</ele>
        <time>2013-05-26T14:35:36Z</time>
      </trkpt>
      <trkpt lat="59.9492975" lon="17.6678875">
        <ele>28.9769</ele>
        <time>2013-05-26T14:35:37Z</time>
      </trkpt>
      <trkpt lat="59.9493639" lon="17.667925">
        <ele>28.9769</ele>
        <time>2013-05-26T14:35:38Z</time>
      </trkpt>
      <trkpt lat="59.9494314" lon="17.6679632">
        <ele>28.9769</ele>
        <time>2013-05-26T14:35:39Z</time>
      </trkpt>
      <trkpt lat="59.9494995" lon="17.6680005">
        <ele>28.4962</ele>
        <time>2013-05-26T14:35:40Z</time>
      </trkpt>
      <trkpt lat="59.9495675" lon="17.6680368">
        <ele>28.4962</ele>
        <time>2013-05-26T14:35:41Z</time>
      </trkpt>
      <trkpt lat="59.9496355" lon="17.6680728">
        <ele>28.4962</ele>
        <time>2013-05-26T14:35:42Z</time>
      </trkpt>
      <trkpt lat="59.9497036" lon="17.6681062">
        <ele>28.4962</ele>
        <time>2013-05-26T14:35:43Z</time>
      </trkpt>
      <trkpt lat="59.9497712" lon="17.6681387">
        <ele>28.4962</ele>
        <time>2013-05-26T14:35:44Z</time>
      </trkpt>
      <trkpt lat="59.9498379" lon="17.6681712">
        <ele>28.4962</ele>
        <time>2013-05-26T14:35:45Z</time>
      </trkpt>
      <trkpt lat="59.9499042" lon="17.6682013">
        <ele>28.9769</ele>
        <time>2013-05-26T14:35:46Z</time>
      </trkpt>
      <trkpt lat="59.9499704" lon="17.6682274">
        <ele>28.9769</ele>
        <time>2013-05-26T14:35:47Z</time>
      </trkpt>
      <trkpt lat="59.9500363" lon="17.6682502">
        <ele>28.9769</ele>
        <time>2013-05-26T14:35:48Z</time>
      </trkpt>
      <trkpt lat="59.9501016" lon="17.6682704">
        <ele>28.9769</ele>
        <time>2013-05-26T14:35:49Z</time>
      </trkpt>
      <trkpt lat="59.9501668" lon="17.6682885">
        <ele>28.9769</ele>
        <time>2013-05-26T14:35:50Z</time>
      </trkpt>
      <trkpt lat="59.9502326" lon="17.668302">
        <ele>29.4575</ele>
        <time>2013-05-26T14:35:51Z</time>
      </trkpt>
      <trkpt lat="59.950299" lon="17.6683116">
        <ele>29.4575</ele>
        <time>2013-05-26T14:35:52Z</time>
      </trkpt>
      <trkpt lat="59.9503658" lon="17.6683187">
        <ele>28.9769</ele>
        <time>2013-05-26T14:35:53Z</time>
      </trkpt>
      <trkpt lat="59.9504332" lon="17.6683253">
        <ele>28.9769</ele>
        <time>2013-05-26T14:35:54Z</time>
      </trkpt>
      <trkpt lat="59.950501" lon="17.6683294">
        <ele>28.9769</ele>
        <time>2013-05-26T14:35:55Z</time>
      </trkpt>
      <trkpt lat="59.9505683" lon="17.668328">
        <ele>28.9769</ele>
        <time>2013-05-26T14:35:56Z</time>
      </trkpt>
      <trkpt lat="59.9506345" lon="17.6683222">
        <ele>28.9769</ele>
        <time>2013-05-26T14:35:57Z</time>
      </trkpt>
      <trkpt lat="59.9507009" lon="17.6683139">
        <ele>28.9769</ele>
        <time>2013-05-26T14:35:58Z</time>
      </trkpt>
      <trkpt lat="59.950767" lon="17.668304">
        <ele>28.4962</ele>
        <time>2013-05-26T14:35:59Z</time>
      </trkpt>
      <trkpt lat="59.9508314" lon="17.6682901">
        <ele>28.4962</ele>
        <time>2013-05-26T14:36:00Z</time>
      </trkpt>
      <trkpt lat="59.9508926" lon="17.6682709">
        <ele>28.0155</ele>
        <time>2013-05-26T14:36:01Z</time>
      </trkpt>
      <trkpt lat="59.9509516" lon="17.6682523">
        <ele>28.0155</ele>
        <time>2013-05-26T14:36:02Z</time>
      </trkpt>
      <trkpt lat="59.9510097" lon="17.6682365">
        <ele>28.0155</ele>
        <time>2013-05-26T14:36:03Z</time>
      </trkpt>
      <trkpt lat="59.9510685" lon="17.6682201">
        <ele>27.5349</ele>
        <time>2013-05-26T14:36:04Z</time>
      </trkpt>
      <trkpt lat="59.9511286" lon="17.6682011">
        <ele>27.5349</ele>
        <time>2013-05-26T14:36:05Z</time>
      </trkpt>
      <trkpt lat="59.9511899" lon="17.6681821">
        <ele>27.5349</ele>
        <time>2013-05-26T14:36:06Z</time>
      </trkpt>
      <trkpt lat="59.9512515" lon="17.6681632">
        <ele>27.0543</ele>
        <time>2013-05-26T14:36:07Z</time>
      </trkpt>
      <trkpt lat="59.9513123" lon="17.6681441">
        <ele>27.0543</ele>
        <time>2013-05-26T14:36:08Z</time>
      </trkpt>
      <trkpt lat="59.9513722" lon="17.6681247">
        <ele>27.0543</ele>
        <time>2013-05-26T14:36:09Z</time>
      </trkpt>
      <trkpt lat="59.9514313" lon="17.6681075">
        <ele>26.5736</ele>
        <time>2013-05-26T14:36:10Z</time>
      </trkpt>
      <trkpt lat="59.9514888" lon="17.6680968">
        <ele>26.5736</ele>
        <time>2013-05-26T14:36:11Z</time>
      </trkpt>
      <trkpt lat="59.9515468" lon="17.6680944">
        <ele>26.5736</ele>
        <time>2013-05-26T14:36:12Z</time>
      </trkpt>
      <trkpt lat="59.9516048" lon="17.668113">
        <ele>26.5736</ele>
        <time>2013-05-26T14:36:13Z</time>
      </trkpt>
      <trkpt lat="59.9516582" lon="17.6681651">
        <ele>26.0929</ele>
        <time>2013-05-26T14:36:14Z</time>
      </trkpt>
      <trkpt lat="59.9517023" lon="17.6682466">
        <ele>26.0929</ele>
        <time>2013-05-26T14:36:15Z</time>
      </trkpt>
      <trkpt lat="59.9517359" lon="17.6683464">
        <ele>25.6123</ele>
        <time>2013-05-26T14:36:16Z</time>
      </trkpt>
      <trkpt lat="59.9517628" lon="17.668453">
        <ele>25.6123</ele>
        <time>2013-05-26T14:36:17Z</time>
      </trkpt>
      <trkpt lat="59.9517866" lon="17.6685574">
        <ele>25.6123</ele>
        <time>2013-05-26T14:36:18Z</time>
      </trkpt>
      <trkpt lat="59.9518089" lon="17.6686577">
        <ele>25.6123</ele>
        <time>2013-05-26T14:36:19Z</time>
      </trkpt>
      <trkpt lat="59.951826" lon="17.6687552">
        <ele>25.6123</ele>
        <time>2013-05-26T14:36:20Z</time>
      </trkpt>
      <trkpt lat="59.9518352" lon="17.6688509">
        <ele>25.6123</ele>
        <time>2013-05-26T14:36:21Z</time>
      </trkpt>
      <trkpt lat="59.9518388" lon="17.6689448">
        <ele>25.6123</ele>
        <time>2013-05-26T14:36:22Z</time>
      </trkpt>
      <trkpt lat="59.9518385" lon="17.669036">
        <ele>25.6123</ele>
        <time>2013-05-26T14:36:23Z</time>
      </trkpt>
      <trkpt lat="59.9518358" lon="17.6691231">
        <ele>25.6123</ele>
        <time>2013-05-26T14:36:24Z</time>
      </trkpt>
      <trkpt lat="59.9518326" lon="17.6692075">
        <ele>25.6123</ele>
        <time>2013-05-26T14:36:25Z</time>
      </trkpt>
      <trkpt lat="59.9518291" lon="17.6692931">
        <ele>25.6123</ele>
        <time>2013-05-26T14:36:26Z</time>
      </trkpt>
      <trkpt lat="59.951825" lon="17.66938">
        <ele>25.6123</ele>
        <time>2013-05-26T14:36:27Z</time>
      </trkpt>
      <trkpt lat="59.9518214" lon="17.669468">
        <ele>25.6123</ele>
        <time>2013-05-26T14:36:28Z</time>
      </trkpt>
      <trkpt lat="59.9518183" lon="17.6695556">
        <ele>26.0929</ele>
        <time>2013-05-26T14:36:29Z</time>
      </trkpt>
      <trkpt lat="59.9518149" lon="17.669642">
        <ele>25.6123</ele>
        <time>2013-05-26T14:36:30Z</time>
      </trkpt>
      <trkpt lat="59.9518109" lon="17.6697269">
        <ele>25.6123</ele>
        <time>2013-05-26T14:36:31Z</time>
      </trkpt>
      <trkpt lat="59.951807" lon="17.6698102">
        <ele>25.6123</ele>
        <time>2013-05-26T14:36:32Z</time>
      </trkpt>
      <trkpt lat="59.9518025" lon="17.6698932">
        <ele>25.6123</ele>
        <time>2013-05-26T14:36:33Z</time>
      </trkpt>
      <trkpt lat="59.9517973" lon="17.6699771">
        <ele>25.1317</ele>
        <time>2013-05-26T14:36:34Z</time>
      </trkpt>
      <trkpt lat="59.9517921" lon="17.6700621">
        <ele>25.1317</ele>
        <time>2013-05-26T14:36:35Z</time>
      </trkpt>
      <trkpt lat="59.9517872" lon="17.6701477">
        <ele>25.1317</ele>
        <time>2013-05-26T14:36:36Z</time>
      </trkpt>
      <trkpt lat="59.9517825" lon="17.6702337">
        <ele>25.6123</ele>
        <time>2013-05-26T14:36:37Z</time>
      </trkpt>
      <trkpt lat="59.9517766" lon="17.6703196">
        <ele>25.1317</ele>
        <time>2013-05-26T14:36:38Z</time>
      </trkpt>
      <trkpt lat="59.9517702" lon="17.6704052">
        <ele>25.1317</ele>
        <time>2013-05-26T14:36:39Z</time>
      </trkpt>
      <trkpt lat="59.9517639" lon="17.6704919">
        <ele>25.1317</ele>
        <time>2013-05-26T14:36:40Z</time>
      </trkpt>
      <trkpt lat="59.9517556" lon="17.670577">
        <ele>25.1317</ele>
        <time>2013-05-26T14:36:41Z</time>
      </trkpt>
      <trkpt lat="59.9517468" lon="17.6706621">
        <ele>24.651</ele>
        <time>2013-05-26T14:36:42Z</time>
      </trkpt>
      <trkpt lat="59.9517384" lon="17.670745">
        <ele>24.651</ele>
        <time>2013-05-26T14:36:43Z</time>
      </trkpt>
      <trkpt lat="59.9517326" lon="17.6708252">
        <ele>24.1703</ele>
        <time>2013-05-26T14:36:44Z</time>
      </trkpt>
      <trkpt lat="59.9517297" lon="17.670904">
        <ele>24.1703</ele>
        <time>2013-05-26T14:36:45Z</time>
      </trkpt>
      <trkpt lat="59.9517312" lon="17.6709816">
        <ele>24.1703</ele>
        <time>2013-05-26T14:36:46Z</time>
      </trkpt>
      <trkpt lat="59.9517358" lon="17.6710532">
        <ele>23.6896</ele>
        <time>2013-05-26T14:36:47Z</time>
      </trkpt>
      <trkpt lat="59.951746" lon="17.671122">
        <ele>23.209</ele>
        <time>2013-05-26T14:36:48Z</time>
      </trkpt>
      <trkpt lat="59.9517611" lon="17.6711889">
        <ele>23.6896</ele>
        <time>2013-05-26T14:36:49Z</time>
      </trkpt>
      <trkpt lat="59.9517751" lon="17.6712532">
        <ele>23.6896</ele>
        <time>2013-05-26T14:36:50Z</time>
      </trkpt>
      <trkpt lat="59.9517851" lon="17.6713159">
        <ele>23.6896</ele>
        <time>2013-05-26T14:36:51Z</time>
      </trkpt>
      <trkpt lat="59.9517929" lon="17.6713774">
        <ele>23.6896</ele>
        <time>2013-05-26T14:36:52Z</time>
      </trkpt>
      <trkpt lat="59.9517975" lon="17.6714401">
        <ele>23.6896</ele>
        <time>2013-05-26T14:36:53Z</time>
      </trkpt>
      <trkpt lat="59.9517985" lon="17.671506">
        <ele>23.209</ele>
        <time>2013-05-26T14:36:54Z</time>
      </trkpt>
      <trkpt lat="59.9517986" lon="17.6715737">
        <ele>23.209</ele>
        <time>2013-05-26T14:36:55Z</time>
      </trkpt>
      <trkpt lat="59.951799" lon="17.6716421">
        <ele>23.209</ele>
        <time>2013-05-26T14:36:56Z</time>
      </trkpt>
      <trkpt lat="59.9517994" lon="17.6717105">
        <ele>23.209</ele>
        <time>2013-05-26T14:36:57Z</time>
      </trkpt>
      <trkpt lat="59.9517986" lon="17.6717795">
        <ele>23.209</ele>
        <time>2013-05-26T14:36:58Z</time>
      </trkpt>
      <trkpt lat="59.9518004" lon="17.6718498">
        <ele>23.209</ele>
        <time>2013-05-26T14:36:59Z</time>
      </trkpt>
      <trkpt lat="59.9518037" lon="17.6719193">
        <ele>23.209</ele>
        <time>2013-05-26T14:37:00Z</time>
      </trkpt>
      <trkpt lat="59.9518113" lon="17.6719928">
        <ele>22.7283</ele>
        <time>2013-05-26T14:37:01Z</time>
      </trkpt>
      <trkpt lat="59.9518186" lon="17.6720709">
        <ele>22.7283</ele>
        <time>2013-05-26T14:37:02Z</time>
      </trkpt>
      <trkpt lat="59.9518263" lon="17.6721518">
        <ele>22.7283</ele>
        <time>2013-05-26T14:37:03Z</time>
      </trkpt>
      <trkpt lat="59.9518343" lon="17.6722316">
        <ele>23.209</ele>
        <time>2013-05-26T14:37:04Z</time>
      </trkpt>
      <trkpt lat="59.9518436" lon="17.6723109">
        <ele>23.209</ele>
        <time>2013-05-26T14:37:05Z</time>
      </trkpt>
      <trkpt lat="59.9518519" lon="17.672389">
        <ele>23.209</ele>
        <time>2013-05-26T14:37:06Z</time>
      </trkpt>
      <trkpt lat="59.951859" lon="17.6724653">
        <ele>23.6896</ele>
        <time>2013-05-26T14:37:07Z</time>
      </trkpt>
      <trkpt lat="59.9518671" lon="17.6725414">
        <ele>24.1703</ele>
        <time>2013-05-26T14:37:08Z</time>
      </trkpt>
      <trkpt lat="59.9518771" lon="17.6726158">
        <ele>24.651</ele>
        <time>2013-05-26T14:37:09Z</time>
      </trkpt>
      <trkpt lat="59.9518855" lon="17.672691">
        <ele>24.1703</ele>
        <time>2013-05-26T14:37:10Z</time>
      </trkpt>
      <trkpt lat="59.9518938" lon="17.6727667">
        <ele>23.6896</ele>
        <time>2013-05-26T14:37:11Z</time>
      </trkpt>
      <trkpt lat="59.9519027" lon="17.6728422">
        <ele>24.1703</ele>
        <time>2013-05-26T14:37:12Z</time>
      </trkpt>
      <trkpt lat="59.9519124" lon="17.672918">
        <ele>24.1703</ele>
        <time>2013-05-26T14:37:13Z</time>
      </trkpt>
      <trkpt lat="59.9519229" lon="17.6729939">
        <ele>24.1703</ele>
        <time>2013-05-26T14:37:14Z</time>
      </trkpt>
      <trkpt lat="59.9519344" lon="17.6730699">
        <ele>24.651</ele>
        <time>2013-05-26T14:37:15Z</time>
      </trkpt>
      <trkpt lat="59.9519457" lon="17.6731475">
        <ele>24.651</ele>
        <time>2013-05-26T14:37:16Z</time>
      </trkpt>
      <trkpt lat="59.9519565" lon="17.6732257">
        <ele>24.651</ele>
        <time>2013-05-26T14:37:17Z</time>
      </trkpt>
      <trkpt lat="59.9519684" lon="17.6733029">
        <ele>25.1317</ele>
        <time>2013-05-26T14:37:18Z</time>
      </trkpt>
      <trkpt lat="59.9519814" lon="17.6733788">
        <ele>25.1317</ele>
        <time>2013-05-26T14:37:19Z</time>
      </trkpt>
      <trkpt lat="59.9519938" lon="17.6734531">
        <ele>25.6123</ele>
        <time>2013-05-26T14:37:20Z</time>
      </trkpt>
      <trkpt lat="59.9520056" lon="17.673526">
        <ele>25.6123</ele>
        <time>2013-05-26T14:37:21Z</time>
      </trkpt>
      <trkpt lat="59.9520182" lon="17.6735966">
        <ele>26.0929</ele>
        <time>2013-05-26T14:37:22Z</time>
      </trkpt>
      <trkpt lat="59.9520315" lon="17.6736678">
        <ele>26.0929</ele>
        <time>2013-05-26T14:37:23Z</time>
      </trkpt>
      <trkpt lat="59.9520446" lon="17.6737417">
        <ele>26.5736</ele>
        <time>2013-05-26T14:37:24Z</time>
      </trkpt>
      <trkpt lat="59.9520586" lon="17.6738172">
        <ele>27.0543</ele>
        <time>2013-05-26T14:37:25Z</time>
      </trkpt>
      <trkpt lat="59.9520731" lon="17.673893">
        <ele>27.0543</ele>
        <time>2013-05-26T14:37:26Z</time>
      </trkpt>
      <trkpt lat="59.952088" lon="17.673968">
        <ele>27.5349</ele>
        <time>2013-05-26T14:37:27Z</time>
      </trkpt>
      <trkpt lat="59.9521037" lon="17.6740411">
        <ele>28.0155</ele>
        <time>2013-05-26T14:37:28Z</time>
      </trkpt>
      <trkpt lat="59.9521177" lon="17.6741172">
        <ele>28.0155</ele>
        <time>2013-05-26T14:37:29Z</time>
      </trkpt>
      <trkpt lat="59.9521318" lon="17.6741938">
        <ele>28.9769</ele>
        <time>2013-05-26T14:37:30Z</time>
      </trkpt>
      <trkpt lat="59.952146" lon="17.6742719">
        <ele>28.9769</ele>
        <time>2013-05-26T14:37:31Z</time>
      </trkpt>
      <trkpt lat="59.9521617" lon="17.6743509">
        <ele>29.4575</ele>
        <time>2013-05-26T14:37:32Z</time>
      </trkpt>
      <trkpt lat="59.9521784" lon="17.6744311">
        <ele>30.4188</ele>
        <time>2013-05-26T14:37:33Z</time>
      </trkpt>
      <trkpt lat="59.9521948" lon="17.6745139">
        <ele>29.4575</ele>
        <time>2013-05-26T14:37:34Z</time>
      </trkpt>
      <trkpt lat="59.9522099" lon="17.6745953">
        <ele>29.9381</ele>
        <time>2013-05-26T14:37:35Z</time>
      </trkpt>
      <trkpt lat="59.9522232" lon="17.6746756">
        <ele>29.9381</ele>
        <time>2013-05-26T14:37:36Z</time>
      </trkpt>
      <trkpt lat="59.9522351" lon="17.6747515">
        <ele>30.4188</ele>
        <time>2013-05-26T14:37:37Z</time>
      </trkpt>
      <trkpt lat="59.9522438" lon="17.674822">
        <ele>31.3801</ele>
        <time>2013-05-26T14:37:38Z</time>
      </trkpt>
      <trkpt lat="59.9522525" lon="17.6748865">
        <ele>31.8607</ele>
        <time>2013-05-26T14:37:39Z</time>
      </trkpt>
      <trkpt lat="59.9522637" lon="17.6749464">
        <ele>31.3801</ele>
        <time>2013-05-26T14:37:40Z</time>
      </trkpt>
      <trkpt lat="59.9522749" lon="17.6750035">
        <ele>31.8607</ele>
        <time>2013-05-26T14:37:41Z</time>
      </trkpt>
      <trkpt lat="59.952285" lon="17.6750615">
        <ele>32.3416</ele>
        <time>2013-05-26T14:37:42Z</time>
      </trkpt>
      <trkpt lat="59.952298" lon="17.6751216">
        <ele>32.3416</ele>
        <time>2013-05-26T14:37:43Z</time>
      </trkpt>
      <trkpt lat="59.9523164" lon="17.6751833">
        <ele>32.3416</ele>
        <time>2013-05-26T14:37:44Z</time>
      </trkpt>
      <trkpt lat="59.9523364" lon="17.6752447">
        <ele>32.8223</ele>
        <time>2013-05-26T14:37:45Z</time>
      </trkpt>
      <trkpt lat="59.9523588" lon="17.6753076">
        <ele>32.8223</ele>
        <time>2013-05-26T14:37:46Z</time>
      </trkpt>
      <trkpt lat="59.9523829" lon="17.6753731">
        <ele>33.3029</ele>
        <time>2013-05-26T14:37:47Z</time>
      </trkpt>
      <trkpt lat="59.952407" lon="17.6754418">
        <ele>33.3029</ele>
        <time>2013-05-26T14:37:48Z</time>
      </trkpt>
      <trkpt lat="59.9524336" lon="17.6755128">
        <ele>33.3029</ele>
        <time>2013-05-26T14:37:49Z</time>
      </trkpt>
      <trkpt lat="59.9524632" lon="17.6755877">
        <ele>32.8223</ele>
        <time>2013-05-26T14:37:50Z</time>
      </trkpt>
      <trkpt lat="59.9524948" lon="17.6756656">
        <ele>32.8223</ele>
        <time>2013-05-26T14:37:51Z</time>
      </trkpt>
      <trkpt lat="59.9525284" lon="17.6757458">
        <ele>32.3416</ele>
        <time>2013-05-26T14:37:52Z</time>
      </trkpt>
      <trkpt lat="59.9525624" lon="17.6758287">
        <ele>31.8607</ele>
        <time>2013-05-26T14:37:53Z</time>
      </trkpt>
      <trkpt lat="59.9525957" lon="17.6759157">
        <ele>31.8607</ele>
        <time>2013-05-26T14:37:54Z</time>
      </trkpt>
      <trkpt lat="59.9526284" lon="17.6760056">
        <ele>31.3801</ele>
        <time>2013-05-26T14:37:55Z</time>
      </trkpt>
      <trkpt lat="59.9526604" lon="17.6760955">
        <ele>30.8995</ele>
        <time>2013-05-26T14:37:56Z</time>
      </trkpt>
      <trkpt lat="59.9526914" lon="17.676184">
        <ele>30.8995</ele>
        <time>2013-05-26T14:37:57Z</time>
      </trkpt>
      <trkpt lat="59.9527209" lon="17.6762731">
        <ele>30.8995</ele>
        <time>2013-05-26T14:37:58Z</time>
      </trkpt>
      <trkpt lat="59.9527503" lon="17.6763607">
        <ele>30.8995</ele>
        <time>2013-05-26T14:37:59Z</time>
      </trkpt>
      <trkpt lat="59.9527818" lon="17.6764461">
        <ele>30.4188</ele>
        <time>2013-05-26T14:38:00Z</time>
      </trkpt>
      <trkpt lat="59.9528155" lon="17.6765309">
        <ele>30.4188</ele>
        <time>2013-05-26T14:38:01Z</time>
      </trkpt>
      <trkpt lat="59.9528516" lon="17.6766166">
        <ele>29.9381</ele>
        <time>2013-05-26T14:38:02Z</time>
      </trkpt>
      <trkpt lat="59.9528878" lon="17.6767057">
        <ele>29.9381</ele>
        <time>2013-05-26T14:38:03Z</time>
      </trkpt>
      <trkpt lat="59.9529236" lon="17.6767972">
        <ele>29.9381</ele>
        <time>2013-05-26T14:38:04Z</time>
      </trkpt>
      <trkpt lat="59.9529599" lon="17.6768899">
        <ele>29.9381</ele>
        <time>2013-05-26T14:38:05Z</time>
      </trkpt>
      <trkpt lat="59.9529968" lon="17.6769847">
        <ele>29.4575</ele>
        <time>2013-05-26T14:38:06Z</time>
      </trkpt>
      <trkpt lat="59.9530339" lon="17.6770802">
        <ele>29.4575</ele>
        <time>2013-05-26T14:38:07Z</time>
      </trkpt>
      <trkpt lat="59.9530697" lon="17.6771751">
        <ele>29.4575</ele>
        <time>2013-05-26T14:38:08Z</time>
      </trkpt>
      <trkpt lat="59.9531037" lon="17.6772698">
        <ele>29.4575</ele>
        <time>2013-05-26T14:38:09Z</time>
      </trkpt>
      <trkpt lat="59.9531366" lon="17.677365">
        <ele>29.4575</ele>
        <time>2013-05-26T14:38:10Z</time>
      </trkpt>
      <trkpt lat="59.9531702" lon="17.6774598">
        <ele>29.4575</ele>
        <time>2013-05-26T14:38:11Z</time>
      </trkpt>
      <trkpt lat="59.9532043" lon="17.6775548">
        <ele>28.9769</ele>
        <time>2013-05-26T14:38:12Z</time>
      </trkpt>
      <trkpt lat="59.9532384" lon="17.6776527">
        <ele>28.9769</ele>
        <time>2013-05-26T14:38:13Z</time>
      </trkpt>
      <trkpt lat="59.9532719" lon="17.6777536">
        <ele>28.9769</ele>
        <time>2013-05-26T14:38:14Z</time>
      </trkpt>
      <trkpt lat="59.9533064" lon="17.6778551">
        <ele>28.9769</ele>
        <time>2013-05-26T14:38:15Z</time>
      </trkpt>
      <trkpt lat="59.9533426" lon="17.6779581">
        <ele>28.9769</ele>
        <time>2013-05-26T14:38:16Z</time>
      </trkpt>
      <trkpt lat="59.953379" lon="17.6780634">
        <ele>28.4962</ele>
        <time>2013-05-26T14:38:17Z</time>
      </trkpt>
      <trkpt lat="59.9534149" lon="17.67817">
        <ele>28.9769</ele>
        <time>2013-05-26T14:38:18Z</time>
      </trkpt>
      <trkpt lat="59.9534499" lon="17.6782778">
        <ele>29.4575</ele>
        <time>2013-05-26T14:38:19Z</time>
      </trkpt>
      <trkpt lat="59.9534862" lon="17.6783876">
        <ele>28.9769</ele>
        <time>2013-05-26T14:38:20Z</time>
      </trkpt>
      <trkpt lat="59.9535229" lon="17.6784985">
        <ele>29.4575</ele>
        <time>2013-05-26T14:38:21Z</time>
      </trkpt>
      <trkpt lat="59.9535593" lon="17.6786088">
        <ele>29.4575</ele>
        <time>2013-05-26T14:38:22Z</time>
      </trkpt>
      <trkpt lat="59.9535955" lon="17.6787181">
        <ele>28.9769</ele>
        <time>2013-05-26T14:38:23Z</time>
      </trkpt>
      <trkpt lat="59.9536313" lon="17.678825">
        <ele>29.4575</ele>
        <time>2013-05-26T14:38:24Z</time>
      </trkpt>
      <trkpt lat="59.9536669" lon="17.6789293">
        <ele>28.9769</ele>
        <time>2013-05-26T14:38:25Z</time>
      </trkpt>
      <trkpt lat="59.9537006" lon="17.6790326">
        <ele>28.9769</ele>
        <time>2013-05-26T14:38:26Z</time>
      </trkpt>
      <trkpt lat="59.9537333" lon="17.6791354">
        <ele>28.9769</ele>
        <time>2013-05-26T14:38:27Z</time>
      </trkpt>
      <trkpt lat="59.953767" lon="17.6792372">
        <ele>29.4575</ele>
        <time>2013-05-26T14:38:28Z</time>
      </trkpt>
      <trkpt lat="59.9538012" lon="17.6793378">
        <ele>29.4575</ele>
        <time>2013-05-26T14:38:29Z</time>
      </trkpt>
      <trkpt lat="59.9538342" lon="17.6794388">
        <ele>29.4575</ele>
        <time>2013-05-26T14:38:30Z</time>
      </trkpt>
      <trkpt lat="59.9538664" lon="17.6795391">
        <ele>28.9769</ele>
        <time>2013-05-26T14:38:31Z</time>
      </trkpt>
      <trkpt lat="59.9538982" lon="17.6796387">
        <ele>28.9769</ele>
        <time>2013-05-26T14:38:32Z</time>
      </trkpt>
      <trkpt lat="59.9539302" lon="17.6797395">
        <ele>28.9769</ele>
        <time>2013-05-26T14:38:33Z</time>
      </trkpt>
      <trkpt lat="59.9539632" lon="17.6798407">
        <ele>28.9769</ele>
        <time>2013-05-26T14:38:34Z</time>
      </trkpt>
      <trkpt lat="59.9539973" lon="17.6799413">
        <ele>28.9769</ele>
        <time>2013-05-26T14:38:35Z</time>
      </trkpt>
      <trkpt lat="59.9540325" lon="17.6800418">
        <ele>28.9769</ele>
        <time>2013-05-26T14:38:36Z</time>
      </trkpt>
      <trkpt lat="59.9540679" lon="17.6801433">
        <ele>28.9769</ele>
        <time>2013-05-26T14:38:37Z</time>
      </trkpt>
      <trkpt lat="59.9541041" lon="17.6802441">
        <ele>28.9769</ele>
        <time>2013-05-26T14:38:38Z</time>
      </trkpt>
      <trkpt lat="59.9541404" lon="17.6803457">
        <ele>28.9769</ele>
        <time>2013-05-26T14:38:39Z</time>
      </trkpt>
      <trkpt lat="59.9541769" lon="17.6804473">
        <ele>28.9769</ele>
        <time>2013-05-26T14:38:40Z</time>
      </trkpt>
      <trkpt lat="59.9542129" lon="17.6805504">
        <ele>28.9769</ele>
        <time>2013-05-26T14:38:41Z</time>
      </trkpt>
      <trkpt lat="59.9542482" lon="17.6806543">
        <ele>28.9769</ele>
        <time>2013-05-26T14:38:42Z</time>
      </trkpt>
      <trkpt lat="59.9542828" lon="17.680758">
        <ele>28.9769</ele>
        <time>2013-05-26T14:38:43Z</time>
      </trkpt>
      <trkpt lat="59.9543161" lon="17.6808621">
        <ele>28.9769</ele>
        <time>2013-05-26T14:38:44Z</time>
      </trkpt>
      <trkpt lat="59.9543487" lon="17.6809671">
        <ele>28.9769</ele>
        <time>2013-05-26T14:38:45Z</time>
      </trkpt>
      <trkpt lat="59.954381" lon="17.6810741">
        <ele>28.9769</ele>
        <time>2013-05-26T14:38:46Z</time>
      </trkpt>
      <trkpt lat="59.9544124" lon="17.6811828">
        <ele>28.9769</ele>
        <time>2013-05-26T14:38:47Z</time>
      </trkpt>
      <trkpt lat="59.954444" lon="17.681288">
        <ele>29.4575</ele>
        <time>2013-05-26T14:38:48Z</time>
      </trkpt>
      <trkpt lat="59.9544767" lon="17.6813888">
        <ele>29.4575</ele>
        <time>2013-05-26T14:38:49Z</time>
      </trkpt>
      <trkpt lat="59.9545094" lon="17.6814878">
        <ele>29.4575</ele>
        <time>2013-05-26T14:38:50Z</time>
      </trkpt>
      <trkpt lat="59.9545425" lon="17.6815853">
        <ele>29.4575</ele>
        <time>2013-05-26T14:38:51Z</time>
      </trkpt>
      <trkpt lat="59.9545768" lon="17.6816807">
        <ele>29.4575</ele>
        <time>2013-05-26T14:38:52Z</time>
      </trkpt>
      <trkpt lat="59.9546127" lon="17.6817732">
        <ele>29.4575</ele>
        <time>2013-05-26T14:38:53Z</time>
      </trkpt>
      <trkpt lat="59.9546522" lon="17.6818599">
        <ele>29.4575</ele>
        <time>2013-05-26T14:38:54Z</time>
      </trkpt>
      <trkpt lat="59.9547002" lon="17.6819303">
        <ele>29.4575</ele>
        <time>2013-05-26T14:38:55Z</time>
      </trkpt>
      <trkpt lat="59.9547538" lon="17.6819894">
        <ele>29.4575</ele>
        <time>2013-05-26T14:38:56Z</time>
      </trkpt>
      <trkpt lat="59.954801" lon="17.682062">
        <ele>29.4575</ele>
        <time>2013-05-26T14:38:57Z</time>
      </trkpt>
      <trkpt lat="59.9548367" lon="17.6821511">
        <ele>29.4575</ele>
        <time>2013-05-26T14:38:58Z</time>
      </trkpt>
      <trkpt lat="59.9548657" lon="17.6822467">
        <ele>29.4575</ele>
        <time>2013-05-26T14:38:59Z</time>
      </trkpt>
      <trkpt lat="59.954893" lon="17.6823396">
        <ele>28.9769</ele>
        <time>2013-05-26T14:39:00Z</time>
      </trkpt>
      <trkpt lat="59.9549204" lon="17.68243">
        <ele>28.9769</ele>
        <time>2013-05-26T14:39:01Z</time>
      </trkpt>
      <trkpt lat="59.9549471" lon="17.6825178">
        <ele>28.9769</ele>
        <time>2013-05-26T14:39:02Z</time>
      </trkpt>
      <trkpt lat="59.9549734" lon="17.6826053">
        <ele>28.4962</ele>
        <time>2013-05-26T14:39:03Z</time>
      </trkpt>
      <trkpt lat="59.9549983" lon="17.682695">
        <ele>28.4962</ele>
        <time>2013-05-26T14:39:04Z</time>
      </trkpt>
      <trkpt lat="59.9550242" lon="17.6827867">
        <ele>28.4962</ele>
        <time>2013-05-26T14:39:05Z</time>
      </trkpt>
      <trkpt lat="59.9550502" lon="17.6828783">
        <ele>28.4962</ele>
        <time>2013-05-26T14:39:06Z</time>
      </trkpt>
      <trkpt lat="59.9550774" lon="17.6829705">
        <ele>28.4962</ele>
        <time>2013-05-26T14:39:07Z</time>
      </trkpt>
      <trkpt lat="59.9551048" lon="17.6830653">
        <ele>28.4962</ele>
        <time>2013-05-26T14:39:08Z</time>
      </trkpt>
      <trkpt lat="59.9551295" lon="17.6831641">
        <ele>28.4962</ele>
        <time>2013-05-26T14:39:09Z</time>
      </trkpt>
      <trkpt lat="59.9551546" lon="17.6832642">
        <ele>28.4962</ele>
        <time>2013-05-26T14:39:10Z</time>
      </trkpt>
      <trkpt lat="59.9551817" lon="17.6833647">
        <ele>28.4962</ele>
        <time>2013-05-26T14:39:11Z</time>
      </trkpt>
      <trkpt lat="59.9552086" lon="17.6834679">
        <ele>28.4962</ele>
        <time>2013-05-26T14:39:12Z</time>
      </trkpt>
      <trkpt lat="59.9552344" lon="17.6835738">
        <ele>28.4962</ele>
        <time>2013-05-26T14:39:13Z</time>
      </trkpt>
      <trkpt lat="59.9552584" lon="17.6836805">
        <ele>28.4962</ele>
        <time>2013-05-26T14:39:14Z</time>
      </trkpt>
      <trkpt lat="59.9552817" lon="17.6837858">
        <ele>28.4962</ele>
        <time>2013-05-26T14:39:15Z</time>
      </trkpt>
      <trkpt lat="59.9553051" lon="17.6838894">
        <ele>28.4962</ele>
        <time>2013-05-26T14:39:16Z</time>
      </trkpt>
      <trkpt lat="59.955327" lon="17.683992">
        <ele>28.4962</ele>
        <time>2013-05-26T14:39:17Z</time>
      </trkpt>
      <trkpt lat="59.9553468" lon="17.6840938">
        <ele>28.9769</ele>
        <time>2013-05-26T14:39:18Z</time>
      </trkpt>
      <trkpt lat="59.9553661" lon="17.6841944">
        <ele>28.9769</ele>
        <time>2013-05-26T14:39:19Z</time>
      </trkpt>
      <trkpt lat="59.9553853" lon="17.684294">
        <ele>28.9769</ele>
        <time>2013-05-26T14:39:20Z</time>
      </trkpt>
      <trkpt lat="59.9554043" lon="17.6843929">
        <ele>28.9769</ele>
        <time>2013-05-26T14:39:21Z</time>
      </trkpt>
      <trkpt lat="59.9554215" lon="17.6844918">
        <ele>28.9769</ele>
        <time>2013-05-26T14:39:22Z</time>
      </trkpt>
      <trkpt lat="59.9554376" lon="17.6845906">
        <ele>29.4575</ele>
        <time>2013-05-26T14:39:23Z</time>
      </trkpt>
      <trkpt lat="59.9554529" lon="17.6846903">
        <ele>29.4575</ele>
        <time>2013-05-26T14:39:24Z</time>
      </trkpt>
      <trkpt lat="59.9554676" lon="17.6847893">
        <ele>29.4575</ele>
        <time>2013-05-26T14:39:25Z</time>
      </trkpt>
      <trkpt lat="59.9554837" lon="17.684887">
        <ele>29.4575</ele>
        <time>2013-05-26T14:39:26Z</time>
      </trkpt>
      <trkpt lat="59.9555013" lon="17.6849844">
        <ele>29.4575</ele>
        <time>2013-05-26T14:39:27Z</time>
      </trkpt>
      <trkpt lat="59.9555175" lon="17.6850822">
        <ele>29.4575</ele>
        <time>2013-05-26T14:39:28Z</time>
      </trkpt>
      <trkpt lat="59.955532" lon="17.6851807">
        <ele>29.4575</ele>
        <time>2013-05-26T14:39:29Z</time>
      </trkpt>
      <trkpt lat="59.9555443" lon="17.6852803">
        <ele>29.4575</ele>
        <time>2013-05-26T14:39:30Z</time>
      </trkpt>
      <trkpt lat="59.9555572" lon="17.685379">
        <ele>29.4575</ele>
        <time>2013-05-26T14:39:31Z</time>
      </trkpt>
      <trkpt lat="59.9555718" lon="17.6854751">
        <ele>29.4575</ele>
        <time>2013-05-26T14:39:32Z</time>
      </trkpt>
      <trkpt lat="59.9555866" lon="17.6855693">
        <ele>29.9381</ele>
        <time>2013-05-26T14:39:33Z</time>
      </trkpt>
      <trkpt lat="59.9556002" lon="17.6856636">
        <ele>29.9381</ele>
        <time>2013-05-26T14:39:34Z</time>
      </trkpt>
      <trkpt lat="59.9556126" lon="17.6857579">
        <ele>29.9381</ele>
        <time>2013-05-26T14:39:35Z</time>
      </trkpt>
      <trkpt lat="59.9556256" lon="17.6858506">
        <ele>29.9381</ele>
        <time>2013-05-26T14:39:36Z</time>
      </trkpt>
      <trkpt lat="59.9556391" lon="17.6859427">
        <ele>29.9381</ele>
        <time>2013-05-26T14:39:37Z</time>
      </trkpt>
      <trkpt lat="59.9556525" lon="17.686035">
        <ele>30.4188</ele>
        <time>2013-05-26T14:39:38Z</time>
      </trkpt>
      <trkpt lat="59.9556665" lon="17.6861292">
        <ele>30.4188</ele>
        <time>2013-05-26T14:39:39Z</time>
      </trkpt>
      <trkpt lat="59.955681" lon="17.6862251">
        <ele>30.4188</ele>
        <time>2013-05-26T14:39:40Z</time>
      </trkpt>
      <trkpt lat="59.955694" lon="17.6863216">
        <ele>30.4188</ele>
        <time>2013-05-26T14:39:41Z</time>
      </trkpt>
      <trkpt lat="59.955707" lon="17.6864168">
        <ele>30.4188</ele>
        <time>2013-05-26T14:39:42Z</time>
      </trkpt>
      <trkpt lat="59.9557209" lon="17.6865105">
        <ele>30.4188</ele>
        <time>2013-05-26T14:39:43Z</time>
      </trkpt>
      <trkpt lat="59.9557352" lon="17.686602">
        <ele>30.4188</ele>
        <time>2013-05-26T14:39:44Z</time>
      </trkpt>
      <trkpt lat="59.9557475" lon="17.6866922">
        <ele>30.4188</ele>
        <time>2013-05-26T14:39:45Z</time>
      </trkpt>
      <trkpt lat="59.9557586" lon="17.686781">
        <ele>30.4188</ele>
        <time>2013-05-26T14:39:46Z</time>
      </trkpt>
      <trkpt lat="59.9557686" lon="17.6868704">
        <ele>30.4188</ele>
        <time>2013-05-26T14:39:47Z</time>
      </trkpt>
      <trkpt lat="59.9557796" lon="17.6869585">
        <ele>30.8995</ele>
        <time>2013-05-26T14:39:48Z</time>
      </trkpt>
      <trkpt lat="59.9557934" lon="17.6870446">
        <ele>30.4188</ele>
        <time>2013-05-26T14:39:49Z</time>
      </trkpt>
      <trkpt lat="59.9558085" lon="17.6871311">
        <ele>30.4188</ele>
        <time>2013-05-26T14:39:50Z</time>
      </trkpt>
      <trkpt lat="59.9558236" lon="17.68722">
        <ele>30.4188</ele>
        <time>2013-05-26T14:39:51Z</time>
      </trkpt>
      <trkpt lat="59.9558383" lon="17.6873124">
        <ele>30.4188</ele>
        <time>2013-05-26T14:39:52Z</time>
      </trkpt>
      <trkpt lat="59.9558525" lon="17.6874067">
        <ele>30.8995</ele>
        <time>2013-05-26T14:39:53Z</time>
      </trkpt>
      <trkpt lat="59.9558668" lon="17.6875016">
        <ele>30.8995</ele>
        <time>2013-05-26T14:39:54Z</time>
      </trkpt>
      <trkpt lat="59.9558806" lon="17.6875963">
        <ele>30.8995</ele>
        <time>2013-05-26T14:39:55Z</time>
      </trkpt>
      <trkpt lat="59.9558939" lon="17.687691">
        <ele>30.8995</ele>
        <time>2013-05-26T14:39:56Z</time>
      </trkpt>
      <trkpt lat="59.9559079" lon="17.6877842">
        <ele>30.8995</ele>
        <time>2013-05-26T14:39:57Z</time>
      </trkpt>
      <trkpt lat="59.9559235" lon="17.6878744">
        <ele>30.8995</ele>
        <time>2013-05-26T14:39:58Z</time>
      </trkpt>
      <trkpt lat="59.9559393" lon="17.6879619">
        <ele>30.8995</ele>
        <time>2013-05-26T14:39:59Z</time>
      </trkpt>
      <trkpt lat="59.9559524" lon="17.6880452">
        <ele>30.4188</ele>
        <time>2013-05-26T14:40:00Z</time>
      </trkpt>
      <trkpt lat="59.9559634" lon="17.6881219">
        <ele>30.4188</ele>
        <time>2013-05-26T14:40:01Z</time>
      </trkpt>
      <trkpt lat="59.9559741" lon="17.6881921">
        <ele>30.8995</ele>
        <time>2013-05-26T14:40:02Z</time>
      </trkpt>
      <trkpt lat="59.955985" lon="17.6882583">
        <ele>30.8995</ele>
        <time>2013-05-26T14:40:03Z</time>
      </trkpt>
      <trkpt lat="59.9559966" lon="17.6883225">
        <ele>30.8995</ele>
        <time>2013-05-26T14:40:04Z</time>
      </trkpt>
      <trkpt lat="59.9560079" lon="17.6883864">
        <ele>30.8995</ele>
        <time>2013-05-26T14:40:05Z</time>
      </trkpt>
      <trkpt lat="59.9560187" lon="17.6884491">
        <ele>30.8995</ele>
        <time>2013-05-26T14:40:06Z</time>
      </trkpt>
      <trkpt lat="59.9560297" lon="17.6885094">
        <ele>30.8995</ele>
        <time>2013-05-26T14:40:07Z</time>
      </trkpt>
      <trkpt lat="59.9560401" lon="17.688569">
        <ele>31.3801</ele>
        <time>2013-05-26T14:40:08Z</time>
      </trkpt>
      <trkpt lat="59.9560484" lon="17.6886256">
        <ele>31.3801</ele>
        <time>2013-05-26T14:40:09Z</time>
      </trkpt>
      <trkpt lat="59.9560575" lon="17.6886888">
        <ele>31.3801</ele>
        <time>2013-05-26T14:40:10Z</time>
      </trkpt>
      <trkpt lat="59.95607" lon="17.6887643">
        <ele>31.8607</ele>
        <time>2013-05-26T14:40:11Z</time>
      </trkpt>
      <trkpt lat="59.9560856" lon="17.6888493">
        <ele>31.8607</ele>
        <time>2013-05-26T14:40:12Z</time>
      </trkpt>
      <trkpt lat="59.9561" lon="17.6889438">
        <ele>32.3416</ele>
        <time>2013-05-26T14:40:13Z</time>
      </trkpt>
      <trkpt lat="59.9561166" lon="17.6890478">
        <ele>32.3416</ele>
        <time>2013-05-26T14:40:14Z</time>
      </trkpt>
      <trkpt lat="59.9561398" lon="17.68916">
        <ele>32.3416</ele>
        <time>2013-05-26T14:40:15Z</time>
      </trkpt>
      <trkpt lat="59.9561668" lon="17.6892762">
        <ele>32.3416</ele>
        <time>2013-05-26T14:40:16Z</time>
      </trkpt>
      <trkpt lat="59.9561987" lon="17.6893898">
        <ele>31.8607</ele>
        <time>2013-05-26T14:40:17Z</time>
      </trkpt>
      <trkpt lat="59.9562347" lon="17.6894963">
        <ele>31.8607</ele>
        <time>2013-05-26T14:40:18Z</time>
      </trkpt>
      <trkpt lat="59.9562695" lon="17.689602">
        <ele>31.3801</ele>
        <time>2013-05-26T14:40:19Z</time>
      </trkpt>
      <trkpt lat="59.9563033" lon="17.6897119">
        <ele>31.3801</ele>
        <time>2013-05-26T14:40:20Z</time>
      </trkpt>
      <trkpt lat="59.9563359" lon="17.689818">
        <ele>31.3801</ele>
        <time>2013-05-26T14:40:21Z</time>
      </trkpt>
      <trkpt lat="59.9563674" lon="17.689921">
        <ele>31.3801</ele>
        <time>2013-05-26T14:40:22Z</time>
      </trkpt>
      <trkpt lat="59.9563995" lon="17.6900232">
        <ele>31.3801</ele>
        <time>2013-05-26T14:40:23Z</time>
      </trkpt>
      <trkpt lat="59.9564294" lon="17.6901242">
        <ele>31.3801</ele>
        <time>2013-05-26T14:40:24Z</time>
      </trkpt>
      <trkpt lat="59.956455" lon="17.6902247">
        <ele>30.8995</ele>
        <time>2013-05-26T14:40:25Z</time>
      </trkpt>
      <trkpt lat="59.9564866" lon="17.6903243">
        <ele>30.4188</ele>
        <time>2013-05-26T14:40:26Z</time>
      </trkpt>
      <trkpt lat="59.9565232" lon="17.6904258">
        <ele>30.4188</ele>
        <time>2013-05-26T14:40:27Z</time>
      </trkpt>
      <trkpt lat="59.956559" lon="17.6905313">
        <ele>29.9381</ele>
        <time>2013-05-26T14:40:28Z</time>
      </trkpt>
      <trkpt lat="59.9565943" lon="17.6906412">
        <ele>30.4188</ele>
        <time>2013-05-26T14:40:29Z</time>
      </trkpt>
      <trkpt lat="59.9566302" lon="17.690752">
        <ele>29.9381</ele>
        <time>2013-05-26T14:40:30Z</time>
      </trkpt>
      <trkpt lat="59.9566679" lon="17.6908647">
        <ele>29.9381</ele>
        <time>2013-05-26T14:40:31Z</time>
      </trkpt>
      <trkpt lat="59.9567057" lon="17.690981">
        <ele>29.4575</ele>
        <time>2013-05-26T14:40:32Z</time>
      </trkpt>
      <trkpt lat="59.9567443" lon="17.6911016">
        <ele>29.4575</ele>
        <time>2013-05-26T14:40:33Z</time>
      </trkpt>
      <trkpt lat="59.9567853" lon="17.6912225">
        <ele>28.9769</ele>
        <time>2013-05-26T14:40:34Z</time>
      </trkpt>
      <trkpt lat="59.956827" lon="17.6913491">
        <ele>28.4962</ele>
        <time>2013-05-26T14:40:35Z</time>
      </trkpt>
      <trkpt lat="59.956873" lon="17.6914765">
        <ele>28.0155</ele>
        <time>2013-05-26T14:40:36Z</time>
      </trkpt>
      <trkpt lat="59.956917" lon="17.6916057">
        <ele>27.5349</ele>
        <time>2013-05-26T14:40:37Z</time>
      </trkpt>
      <trkpt lat="59.95696" lon="17.6917341">
        <ele>27.5349</ele>
        <time>2013-05-26T14:40:38Z</time>
      </trkpt>
      <trkpt lat="59.957002" lon="17.69186">
        <ele>27.5349</ele>
        <time>2013-05-26T14:40:39Z</time>
      </trkpt>
      <trkpt lat="59.9570446" lon="17.6919842">
        <ele>27.5349</ele>
        <time>2013-05-26T14:40:40Z</time>
      </trkpt>
      <trkpt lat="59.9570857" lon="17.6921081">
        <ele>27.5349</ele>
        <time>2013-05-26T14:40:41Z</time>
      </trkpt>
      <trkpt lat="59.9571237" lon="17.6922328">
        <ele>27.5349</ele>
        <time>2013-05-26T14:40:42Z</time>
      </trkpt>
      <trkpt lat="59.9571629" lon="17.6923547">
        <ele>27.0543</ele>
        <time>2013-05-26T14:40:43Z</time>
      </trkpt>
      <trkpt lat="59.9572015" lon="17.6924755">
        <ele>27.0543</ele>
        <time>2013-05-26T14:40:44Z</time>
      </trkpt>
      <trkpt lat="59.9572432" lon="17.6925949">
        <ele>27.0543</ele>
        <time>2013-05-26T14:40:45Z</time>
      </trkpt>
      <trkpt lat="59.9572879" lon="17.6927131">
        <ele>27.5349</ele>
        <time>2013-05-26T14:40:46Z</time>
      </trkpt>
      <trkpt lat="59.9573309" lon="17.6928272">
        <ele>27.0543</ele>
        <time>2013-05-26T14:40:47Z</time>
      </trkpt>
      <trkpt lat="59.9573691" lon="17.6929405">
        <ele>27.0543</ele>
        <time>2013-05-26T14:40:48Z</time>
      </trkpt>
      <trkpt lat="59.9574066" lon="17.6930504">
        <ele>26.5736</ele>
        <time>2013-05-26T14:40:49Z</time>
      </trkpt>
      <trkpt lat="59.9574449" lon="17.6931596">
        <ele>26.5736</ele>
        <time>2013-05-26T14:40:50Z</time>
      </trkpt>
      <trkpt lat="59.9574846" lon="17.6932675">
        <ele>26.5736</ele>
        <time>2013-05-26T14:40:51Z</time>
      </trkpt>
      <trkpt lat="59.9575231" lon="17.6933748">
        <ele>26.5736</ele>
        <time>2013-05-26T14:40:52Z</time>
      </trkpt>
      <trkpt lat="59.9575598" lon="17.6934838">
        <ele>26.5736</ele>
        <time>2013-05-26T14:40:53Z</time>
      </trkpt>
      <trkpt lat="59.9575961" lon="17.6935917">
        <ele>26.5736</ele>
        <time>2013-05-26T14:40:54Z</time>
      </trkpt>
      <trkpt lat="59.9576338" lon="17.6936974">
        <ele>26.5736</ele>
        <time>2013-05-26T14:40:55Z</time>
      </trkpt>
      <trkpt lat="59.9576705" lon="17.6938021">
        <ele>26.5736</ele>
        <time>2013-05-26T14:40:56Z</time>
      </trkpt>
      <trkpt lat="59.9577074" lon="17.6939046">
        <ele>26.0929</ele>
        <time>2013-05-26T14:40:57Z</time>
      </trkpt>
      <trkpt lat="59.9577437" lon="17.6940057">
        <ele>26.0929</ele>
        <time>2013-05-26T14:40:58Z</time>
      </trkpt>
      <trkpt lat="59.9577803" lon="17.6941054">
        <ele>26.0929</ele>
        <time>2013-05-26T14:40:59Z</time>
      </trkpt>
      <trkpt lat="59.9578153" lon="17.6942065">
        <ele>26.0929</ele>
        <time>2013-05-26T14:41:00Z</time>
      </trkpt>
      <trkpt lat="59.957848" lon="17.694309">
        <ele>26.0929</ele>
        <time>2013-05-26T14:41:01Z</time>
      </trkpt>
      <trkpt lat="59.957882" lon="17.6944112">
        <ele>26.5736</ele>
        <time>2013-05-26T14:41:02Z</time>
      </trkpt>
      <trkpt lat="59.9579162" lon="17.6945139">
        <ele>26.5736</ele>
        <time>2013-05-26T14:41:03Z</time>
      </trkpt>
      <trkpt lat="59.957952" lon="17.6946186">
        <ele>26.0929</ele>
        <time>2013-05-26T14:41:04Z</time>
      </trkpt>
      <trkpt lat="59.9579893" lon="17.6947278">
        <ele>26.0929</ele>
        <time>2013-05-26T14:41:05Z</time>
      </trkpt>
      <trkpt lat="59.9580267" lon="17.6948392">
        <ele>26.0929</ele>
        <time>2013-05-26T14:41:06Z</time>
      </trkpt>
      <trkpt lat="59.9580644" lon="17.69495">
        <ele>26.0929</ele>
        <time>2013-05-26T14:41:07Z</time>
      </trkpt>
      <trkpt lat="59.9581057" lon="17.6950581">
        <ele>26.0929</ele>
        <time>2013-05-26T14:41:08Z</time>
      </trkpt>
      <trkpt lat="59.9581478" lon="17.6951638">
        <ele>26.0929</ele>
        <time>2013-05-26T14:41:09Z</time>
      </trkpt>
      <trkpt lat="59.9581892" lon="17.6952697">
        <ele>26.0929</ele>
        <time>2013-05-26T14:41:10Z</time>
      </trkpt>
      <trkpt lat="59.9582298" lon="17.6953763">
        <ele>26.0929</ele>
        <time>2013-05-26T14:41:11Z</time>
      </trkpt>
      <trkpt lat="59.958271" lon="17.6954814">
        <ele>26.0929</ele>
        <time>2013-05-26T14:41:12Z</time>
      </trkpt>
      <trkpt lat="59.9583141" lon="17.695584">
        <ele>26.0929</ele>
        <time>2013-05-26T14:41:13Z</time>
      </trkpt>
      <trkpt lat="59.9583571" lon="17.6956872">
        <ele>25.6123</ele>
        <time>2013-05-26T14:41:14Z</time>
      </trkpt>
      <trkpt lat="59.9583997" lon="17.6957898">
        <ele>25.6123</ele>
        <time>2013-05-26T14:41:15Z</time>
      </trkpt>
      <trkpt lat="59.9584429" lon="17.6958911">
        <ele>25.6123</ele>
        <time>2013-05-26T14:41:16Z</time>
      </trkpt>
      <trkpt lat="59.9584843" lon="17.6959925">
        <ele>25.1317</ele>
        <time>2013-05-26T14:41:17Z</time>
      </trkpt>
      <trkpt lat="59.9585249" lon="17.6960937">
        <ele>25.1317</ele>
        <time>2013-05-26T14:41:18Z</time>
      </trkpt>
      <trkpt lat="59.9585664" lon="17.6961946">
        <ele>25.1317</ele>
        <time>2013-05-26T14:41:19Z</time>
      </trkpt>
      <trkpt lat="59.958606" lon="17.6962977">
        <ele>24.651</ele>
        <time>2013-05-26T14:41:20Z</time>
      </trkpt>
      <trkpt lat="59.9586442" lon="17.6964025">
        <ele>24.651</ele>
        <time>2013-05-26T14:41:21Z</time>
      </trkpt>
      <trkpt lat="59.9586819" lon="17.696509">
        <ele>24.651</ele>
        <time>2013-05-26T14:41:22Z</time>
      </trkpt>
      <trkpt lat="59.9587161" lon="17.6966174">
        <ele>24.651</ele>
        <time>2013-05-26T14:41:23Z</time>
      </trkpt>
      <trkpt lat="59.9587477" lon="17.6967276">
        <ele>24.651</ele>
        <time>2013-05-26T14:41:24Z</time>
      </trkpt>
      <trkpt lat="59.9587765" lon="17.6968398">
        <ele>24.651</ele>
        <time>2013-05-26T14:41:25Z</time>
      </trkpt>
      <trkpt lat="59.9588063" lon="17.6969593">
        <ele>25.1317</ele>
        <time>2013-05-26T14:41:26Z</time>
      </trkpt>
      <trkpt lat="59.9588351" lon="17.6970759">
        <ele>25.1317</ele>
        <time>2013-05-26T14:41:27Z</time>
      </trkpt>
      <trkpt lat="59.9588597" lon="17.6971817">
        <ele>25.1317</ele>
        <time>2013-05-26T14:41:28Z</time>
      </trkpt>
      <trkpt lat="59.9588817" lon="17.6972891">
        <ele>25.1317</ele>
        <time>2013-05-26T14:41:29Z</time>
      </trkpt>
      <trkpt lat="59.958901" lon="17.6973933">
        <ele>25.1317</ele>
        <time>2013-05-26T14:41:30Z</time>
      </trkpt>
      <trkpt lat="59.9589182" lon="17.6974958">
        <ele>25.1317</ele>
        <time>2013-05-26T14:41:31Z</time>
      </trkpt>
      <trkpt lat="59.9589348" lon="17.6975961">
        <ele>25.6123</ele>
        <time>2013-05-26T14:41:32Z</time>
      </trkpt>
      <trkpt lat="59.9589496" lon="17.6976944">
        <ele>25.6123</ele>
        <time>2013-05-26T14:41:33Z</time>
      </trkpt>
      <trkpt lat="59.9589637" lon="17.6977943">
        <ele>26.0929</ele>
        <time>2013-05-26T14:41:34Z</time>
      </trkpt>
      <trkpt lat="59.9589755" lon="17.6978892">
        <ele>26.0929</ele>
        <time>2013-05-26T14:41:35Z</time>
      </trkpt>
      <trkpt lat="59.9589849" lon="17.6979828">
        <ele>26.0929</ele>
        <time>2013-05-26T14:41:36Z</time>
      </trkpt>
      <trkpt lat="59.9589928" lon="17.6980747">
        <ele>26.5736</ele>
        <time>2013-05-26T14:41:37Z</time>
      </trkpt>
      <trkpt lat="59.9589989" lon="17.6981674">
        <ele>27.0543</ele>
        <time>2013-05-26T14:41:38Z</time>
      </trkpt>
      <trkpt lat="59.9589977" lon="17.6982567">
        <ele>27.0543</ele>
        <time>2013-05-26T14:41:39Z</time>
      </trkpt>
      <trkpt lat="59.9589989" lon="17.6983455">
        <ele>27.5349</ele>
        <time>2013-05-26T14:41:40Z</time>
      </trkpt>
      <trkpt lat="59.9589982" lon="17.6984375">
        <ele>27.5349</ele>
        <time>2013-05-26T14:41:41Z</time>
      </trkpt>
      <trkpt lat="59.9589979" lon="17.6985288">
        <ele>28.0155</ele>
        <time>2013-05-26T14:41:42Z</time>
      </trkpt>
      <trkpt lat="59.9589964" lon="17.698619">
        <ele>28.4962</ele>
        <time>2013-05-26T14:41:43Z</time>
      </trkpt>
      <trkpt lat="59.9589926" lon="17.6987194">
        <ele>27.0543</ele>
        <time>2013-05-26T14:41:44Z</time>
      </trkpt>
      <trkpt lat="59.9589885" lon="17.6988211">
        <ele>25.1317</ele>
        <time>2013-05-26T14:41:45Z</time>
      </trkpt>
      <trkpt lat="59.9589895" lon="17.6989205">
        <ele>25.6123</ele>
        <time>2013-05-26T14:41:46Z</time>
      </trkpt>
      <trkpt lat="59.9589906" lon="17.6990179">
        <ele>26.0929</ele>
        <time>2013-05-26T14:41:47Z</time>
      </trkpt>
      <trkpt lat="59.958994" lon="17.6991163">
        <ele>26.5736</ele>
        <time>2013-05-26T14:41:48Z</time>
      </trkpt>
      <trkpt lat="59.9589999" lon="17.6992174">
        <ele>27.0543</ele>
        <time>2013-05-26T14:41:49Z</time>
      </trkpt>
      <trkpt lat="59.959006" lon="17.6993195">
        <ele>27.5349</ele>
        <time>2013-05-26T14:41:50Z</time>
      </trkpt>
      <trkpt lat="59.9590123" lon="17.6994288">
        <ele>27.5349</ele>
        <time>2013-05-26T14:41:51Z</time>
      </trkpt>
      <trkpt lat="59.9590179" lon="17.699544">
        <ele>27.5349</ele>
        <time>2013-05-26T14:41:52Z</time>
      </trkpt>
      <trkpt lat="59.9590248" lon="17.6996634">
        <ele>27.0543</ele>
        <time>2013-05-26T14:41:53Z</time>
      </trkpt>
      <trkpt lat="59.9590352" lon="17.6997804">
        <ele>28.0155</ele>
        <time>2013-05-26T14:41:54Z</time>
      </trkpt>
      <trkpt lat="59.9590466" lon="17.6998971">
        <ele>28.4962</ele>
        <time>2013-05-26T14:41:55Z</time>
      </trkpt>
      <trkpt lat="59.9590585" lon="17.7000142">
        <ele>28.9769</ele>
        <time>2013-05-26T14:41:56Z</time>
      </trkpt>
      <trkpt lat="59.9590717" lon="17.7001316">
        <ele>28.9769</ele>
        <time>2013-05-26T14:41:57Z</time>
      </trkpt>
      <trkpt lat="59.9590864" lon="17.7002503">
        <ele>29.4575</ele>
        <time>2013-05-26T14:41:58Z</time>
      </trkpt>
      <trkpt lat="59.9590982" lon="17.7003684">
        <ele>29.9381</ele>
        <time>2013-05-26T14:41:59Z</time>
      </trkpt>
      <trkpt lat="59.959109" lon="17.700487">
        <ele>29.9381</ele>
        <time>2013-05-26T14:42:00Z</time>
      </trkpt>
      <trkpt lat="59.9591209" lon="17.7006041">
        <ele>30.4188</ele>
        <time>2013-05-26T14:42:01Z</time>
      </trkpt>
      <trkpt lat="59.9591331" lon="17.7007185">
        <ele>30.8995</ele>
        <time>2013-05-26T14:42:02Z</time>
      </trkpt>
      <trkpt lat="59.9591438" lon="17.7008311">
        <ele>30.8995</ele>
        <time>2013-05-26T14:42:03Z</time>
      </trkpt>
      <trkpt lat="59.9591564" lon="17.7009434">
        <ele>31.3801</ele>
        <time>2013-05-26T14:42:04Z</time>
      </trkpt>
      <trkpt lat="59.9591745" lon="17.7010585">
        <ele>31.3801</ele>
        <time>2013-05-26T14:42:05Z</time>
      </trkpt>
      <trkpt lat="59.959188" lon="17.7011683">
        <ele>31.8607</ele>
        <time>2013-05-26T14:42:06Z</time>
      </trkpt>
      <trkpt lat="59.9592" lon="17.7012748">
        <ele>31.8607</ele>
        <time>2013-05-26T14:42:07Z</time>
      </trkpt>
      <trkpt lat="59.9592147" lon="17.7013821">
        <ele>32.3416</ele>
        <time>2013-05-26T14:42:08Z</time>
      </trkpt>
      <trkpt lat="59.9592324" lon="17.7014882">
        <ele>32.8223</ele>
        <time>2013-05-26T14:42:09Z</time>
      </trkpt>
      <trkpt lat="59.9592504" lon="17.7015908">
        <ele>33.3029</ele>
        <time>2013-05-26T14:42:10Z</time>
      </trkpt>
      <trkpt lat="59.9592733" lon="17.7016941">
        <ele>33.3029</ele>
        <time>2013-05-26T14:42:11Z</time>
      </trkpt>
      <trkpt lat="59.9593" lon="17.7017969">
        <ele>33.3029</ele>
        <time>2013-05-26T14:42:12Z</time>
      </trkpt>
      <trkpt lat="59.9593258" lon="17.7018997">
        <ele>33.3029</ele>
        <time>2013-05-26T14:42:13Z</time>
      </trkpt>
      <trkpt lat="59.9593528" lon="17.7020048">
        <ele>33.3029</ele>
        <time>2013-05-26T14:42:14Z</time>
      </trkpt>
      <trkpt lat="59.9593865" lon="17.7021108">
        <ele>33.7834</ele>
        <time>2013-05-26T14:42:15Z</time>
      </trkpt>
      <trkpt lat="59.9594201" lon="17.7022178">
        <ele>33.7834</ele>
        <time>2013-05-26T14:42:16Z</time>
      </trkpt>
      <trkpt lat="59.9594526" lon="17.7023201">
        <ele>33.7834</ele>
        <time>2013-05-26T14:42:17Z</time>
      </trkpt>
      <trkpt lat="59.9594843" lon="17.7024228">
        <ele>33.7834</ele>
        <time>2013-05-26T14:42:18Z</time>
      </trkpt>
      <trkpt lat="59.9595154" lon="17.7025289">
        <ele>33.7834</ele>
        <time>2013-05-26T14:42:19Z</time>
      </trkpt>
      <trkpt lat="59.9595473" lon="17.7026326">
        <ele>33.7834</ele>
        <time>2013-05-26T14:42:20Z</time>
      </trkpt>
      <trkpt lat="59.9595779" lon="17.7027393">
        <ele>33.7834</ele>
        <time>2013-05-26T14:42:21Z</time>
      </trkpt>
      <trkpt lat="59.9596072" lon="17.7028475">
        <ele>34.2642</ele>
        <time>2013-05-26T14:42:22Z</time>
      </trkpt>
      <trkpt lat="59.9596415" lon="17.7029547">
        <ele>34.2642</ele>
        <time>2013-05-26T14:42:23Z</time>
      </trkpt>
      <trkpt lat="59.9596783" lon="17.703061">
        <ele>34.2642</ele>
        <time>2013-05-26T14:42:24Z</time>
      </trkpt>
      <trkpt lat="59.9597148" lon="17.7031678">
        <ele>34.7449</ele>
        <time>2013-05-26T14:42:25Z</time>
      </trkpt>
      <trkpt lat="59.9597488" lon="17.7032778">
        <ele>35.2255</ele>
        <time>2013-05-26T14:42:26Z</time>
      </trkpt>
      <trkpt lat="59.9597837" lon="17.7033796">
        <ele>35.7061</ele>
        <time>2013-05-26T14:42:27Z</time>
      </trkpt>
      <trkpt lat="59.9598201" lon="17.703483">
        <ele>35.7061</ele>
        <time>2013-05-26T14:42:28Z</time>
      </trkpt>
      <trkpt lat="59.9598579" lon="17.703594">
        <ele>36.1868</ele>
        <time>2013-05-26T14:42:29Z</time>
      </trkpt>
      <trkpt lat="59.9598971" lon="17.70371">
        <ele>36.1868</ele>
        <time>2013-05-26T14:42:30Z</time>
      </trkpt>
      <trkpt lat="59.9599373" lon="17.7038246">
        <ele>36.1868</ele>
        <time>2013-05-26T14:42:31Z</time>
      </trkpt>
      <trkpt lat="59.9599769" lon="17.7039385">
        <ele>36.1868</ele>
        <time>2013-05-26T14:42:32Z</time>
      </trkpt>
      <trkpt lat="59.9600155" lon="17.7040494">
        <ele>35.7061</ele>
        <time>2013-05-26T14:42:33Z</time>
      </trkpt>
      <trkpt lat="59.9600541" lon="17.7041524">
        <ele>36.1868</ele>
        <time>2013-05-26T14:42:34Z</time>
      </trkpt>
      <trkpt lat="59.9600966" lon="17.7042436">
        <ele>35.7061</ele>
        <time>2013-05-26T14:42:35Z</time>
      </trkpt>
      <trkpt lat="59.9601468" lon="17.7043271">
        <ele>35.7061</ele>
        <time>2013-05-26T14:42:36Z</time>
      </trkpt>
      <trkpt lat="59.9601996" lon="17.7044081">
        <ele>35.7061</ele>
        <time>2013-05-26T14:42:37Z</time>
      </trkpt>
      <trkpt lat="59.9602538" lon="17.7044874">
        <ele>35.2255</ele>
        <time>2013-05-26T14:42:38Z</time>
      </trkpt>
      <trkpt lat="59.960309" lon="17.7045643">
        <ele>35.7061</ele>
        <time>2013-05-26T14:42:39Z</time>
      </trkpt>
      <trkpt lat="59.9603639" lon="17.7046404">
        <ele>35.2255</ele>
        <time>2013-05-26T14:42:40Z</time>
      </trkpt>
      <trkpt lat="59.9604197" lon="17.7047132">
        <ele>35.2255</ele>
        <time>2013-05-26T14:42:41Z</time>
      </trkpt>
      <trkpt lat="59.9604763" lon="17.7047816">
        <ele>35.2255</ele>
        <time>2013-05-26T14:42:42Z</time>
      </trkpt>
      <trkpt lat="59.9605322" lon="17.7048489">
        <ele>35.2255</ele>
        <time>2013-05-26T14:42:43Z</time>
      </trkpt>
      <trkpt lat="59.9605869" lon="17.704918">
        <ele>34.7449</ele>
        <time>2013-05-26T14:42:44Z</time>
      </trkpt>
      <trkpt lat="59.9606424" lon="17.7049872">
        <ele>34.7449</ele>
        <time>2013-05-26T14:42:45Z</time>
      </trkpt>
      <trkpt lat="59.9606976" lon="17.7050579">
        <ele>34.7449</ele>
        <time>2013-05-26T14:42:46Z</time>
      </trkpt>
      <trkpt lat="59.9607532" lon="17.7051313">
        <ele>34.7449</ele>
        <time>2013-05-26T14:42:47Z</time>
      </trkpt>
      <trkpt lat="59.9608099" lon="17.705205">
        <ele>34.7449</ele>
        <time>2013-05-26T14:42:48Z</time>
      </trkpt>
      <trkpt lat="59.9608668" lon="17.7052786">
        <ele>34.7449</ele>
        <time>2013-05-26T14:42:49Z</time>
      </trkpt>
      <trkpt lat="59.9609226" lon="17.7053545">
        <ele>34.7449</ele>
        <time>2013-05-26T14:42:50Z</time>
      </trkpt>
      <trkpt lat="59.9609777" lon="17.7054335">
        <ele>34.2642</ele>
        <time>2013-05-26T14:42:51Z</time>
      </trkpt>
      <trkpt lat="59.9610315" lon="17.7055169">
        <ele>34.2642</ele>
        <time>2013-05-26T14:42:52Z</time>
      </trkpt>
      <trkpt lat="59.9610833" lon="17.7056084">
        <ele>33.7834</ele>
        <time>2013-05-26T14:42:53Z</time>
      </trkpt>
      <trkpt lat="59.9611336" lon="17.7057014">
        <ele>33.7834</ele>
        <time>2013-05-26T14:42:54Z</time>
      </trkpt>
      <trkpt lat="59.9611839" lon="17.7057938">
        <ele>33.7834</ele>
        <time>2013-05-26T14:42:55Z</time>
      </trkpt>
      <trkpt lat="59.9612356" lon="17.7058856">
        <ele>33.7834</ele>
        <time>2013-05-26T14:42:56Z</time>
      </trkpt>
      <trkpt lat="59.9612839" lon="17.7059785">
        <ele>33.3029</ele>
        <time>2013-05-26T14:42:57Z</time>
      </trkpt>
      <trkpt lat="59.9613318" lon="17.706072">
        <ele>33.3029</ele>
        <time>2013-05-26T14:42:58Z</time>
      </trkpt>
      <trkpt lat="59.9613798" lon="17.7061655">
        <ele>33.3029</ele>
        <time>2013-05-26T14:42:59Z</time>
      </trkpt>
      <trkpt lat="59.9614293" lon="17.7062553">
        <ele>32.8223</ele>
        <time>2013-05-26T14:43:00Z</time>
      </trkpt>
      <trkpt lat="59.9614805" lon="17.7063394">
        <ele>32.8223</ele>
        <time>2013-05-26T14:43:01Z</time>
      </trkpt>
      <trkpt lat="59.9615325" lon="17.7064199">
        <ele>32.8223</ele>
        <time>2013-05-26T14:43:02Z</time>
      </trkpt>
      <trkpt lat="59.9615867" lon="17.7064959">
        <ele>32.8223</ele>
        <time>2013-05-26T14:43:03Z</time>
      </trkpt>
      <trkpt lat="59.9616423" lon="17.706567">
        <ele>32.3416</ele>
        <time>2013-05-26T14:43:04Z</time>
      </trkpt>
      <trkpt lat="59.9616991" lon="17.7066321">
        <ele>32.3416</ele>
        <time>2013-05-26T14:43:05Z</time>
      </trkpt>
      <trkpt lat="59.9617577" lon="17.7066913">
        <ele>31.8607</ele>
        <time>2013-05-26T14:43:06Z</time>
      </trkpt>
      <trkpt lat="59.9618185" lon="17.7067435">
        <ele>31.8607</ele>
        <time>2013-05-26T14:43:07Z</time>
      </trkpt>
      <trkpt lat="59.9618809" lon="17.7067912">
        <ele>31.3801</ele>
        <time>2013-05-26T14:43:08Z</time>
      </trkpt>
      <trkpt lat="59.9619459" lon="17.7068361">
        <ele>31.3801</ele>
        <time>2013-05-26T14:43:09Z</time>
      </trkpt>
      <trkpt lat="59.962013" lon="17.7068792">
        <ele>31.8607</ele>
        <time>2013-05-26T14:43:10Z</time>
      </trkpt>
      <trkpt lat="59.9620811" lon="17.7069196">
        <ele>32.8223</ele>
        <time>2013-05-26T14:43:11Z</time>
      </trkpt>
      <trkpt lat="59.9621495" lon="17.706959">
        <ele>33.3029</ele>
        <time>2013-05-26T14:43:12Z</time>
      </trkpt>
      <trkpt lat="59.9622182" lon="17.7069988">
        <ele>33.3029</ele>
        <time>2013-05-26T14:43:13Z</time>
      </trkpt>
      <trkpt lat="59.9622959" lon="17.7070077">
        <ele>32.8223</ele>
        <time>2013-05-26T14:43:14Z</time>
      </trkpt>
      <trkpt lat="59.9623705" lon="17.7070225">
        <ele>33.3029</ele>
        <time>2013-05-26T14:43:15Z</time>
      </trkpt>
      <trkpt lat="59.9624467" lon="17.7070315">
        <ele>33.3029</ele>
        <time>2013-05-26T14:43:16Z</time>
      </trkpt>
      <trkpt lat="59.9625189" lon="17.7070605">
        <ele>33.7834</ele>
        <time>2013-05-26T14:43:17Z</time>
      </trkpt>
      <trkpt lat="59.9625943" lon="17.7070802">
        <ele>34.2642</ele>
        <time>2013-05-26T14:43:18Z</time>
      </trkpt>
      <trkpt lat="59.9626694" lon="17.7071025">
        <ele>34.7449</ele>
        <time>2013-05-26T14:43:19Z</time>
      </trkpt>
      <trkpt lat="59.9627415" lon="17.7071293">
        <ele>34.2642</ele>
        <time>2013-05-26T14:43:20Z</time>
      </trkpt>
      <trkpt lat="59.962818" lon="17.7071454">
        <ele>33.7834</ele>
        <time>2013-05-26T14:43:21Z</time>
      </trkpt>
      <trkpt lat="59.9629" lon="17.7071486">
        <ele>34.2642</ele>
        <time>2013-05-26T14:43:22Z</time>
      </trkpt>
      <trkpt lat="59.9629858" lon="17.707152">
        <ele>34.7449</ele>
        <time>2013-05-26T14:43:23Z</time>
      </trkpt>
      <trkpt lat="59.9630668" lon="17.7071553">
        <ele>34.2642</ele>
        <time>2013-05-26T14:43:24Z</time>
      </trkpt>
      <trkpt lat="59.963147" lon="17.7071558">
        <ele>33.7834</ele>
        <time>2013-05-26T14:43:25Z</time>
      </trkpt>
      <trkpt lat="59.9632264" lon="17.7071559">
        <ele>33.7834</ele>
        <time>2013-05-26T14:43:26Z</time>
      </trkpt>
      <trkpt lat="59.9633059" lon="17.7071552">
        <ele>33.7834</ele>
        <time>2013-05-26T14:43:27Z</time>
      </trkpt>
      <trkpt lat="59.9633835" lon="17.7071563">
        <ele>33.7834</ele>
        <time>2013-05-26T14:43:28Z</time>
      </trkpt>
      <trkpt lat="59.9634615" lon="17.7071567">
        <ele>33.7834</ele>
        <time>2013-05-26T14:43:29Z</time>
      </trkpt>
      <trkpt lat="59.9635397" lon="17.7071562">
        <ele>33.7834</ele>
        <time>2013-05-26T14:43:30Z</time>
      </trkpt>
      <trkpt lat="59.9636184" lon="17.7071629">
        <ele>33.7834</ele>
        <time>2013-05-26T14:43:31Z</time>
      </trkpt>
      <trkpt lat="59.9636962" lon="17.7071703">
        <ele>34.2642</ele>
        <time>2013-05-26T14:43:32Z</time>
      </trkpt>
      <trkpt lat="59.9637737" lon="17.7071774">
        <ele>34.2642</ele>
        <time>2013-05-26T14:43:33Z</time>
      </trkpt>
      <trkpt lat="59.963851" lon="17.7071833">
        <ele>34.2642</ele>
        <time>2013-05-26T14:43:34Z</time>
      </trkpt>
      <trkpt lat="59.9639262" lon="17.7071896">
        <ele>34.2642</ele>
        <time>2013-05-26T14:43:35Z</time>
      </trkpt>
      <trkpt lat="59.9640014" lon="17.7071988">
        <ele>34.2642</ele>
        <time>2013-05-26T14:43:36Z</time>
      </trkpt>
      <trkpt lat="59.9640734" lon="17.7072169">
        <ele>34.2642</ele>
        <time>2013-05-26T14:43:37Z</time>
      </trkpt>
      <trkpt lat="59.9641425" lon="17.7072345">
        <ele>33.7834</ele>
        <time>2013-05-26T14:43:38Z</time>
      </trkpt>
      <trkpt lat="59.9642107" lon="17.7072523">
        <ele>33.7834</ele>
        <time>2013-05-26T14:43:39Z</time>
      </trkpt>
      <trkpt lat="59.9642789" lon="17.7072709">
        <ele>33.7834</ele>
        <time>2013-05-26T14:43:40Z</time>
      </trkpt>
      <trkpt lat="59.9643479" lon="17.707292">
        <ele>33.7834</ele>
        <time>2013-05-26T14:43:41Z</time>
      </trkpt>
      <trkpt lat="59.9644181" lon="17.7073165">
        <ele>33.3029</ele>
        <time>2013-05-26T14:43:42Z</time>
      </trkpt>
      <trkpt lat="59.9644889" lon="17.7073444">
        <ele>33.3029</ele>
        <time>2013-05-26T14:43:43Z</time>
      </trkpt>
      <trkpt lat="59.9645599" lon="17.707376">
        <ele>33.3029</ele>
        <time>2013-05-26T14:43:44Z</time>
      </trkpt>
      <trkpt lat="59.9646312" lon="17.7074126">
        <ele>33.3029</ele>
        <time>2013-05-26T14:43:45Z</time>
      </trkpt>
      <trkpt lat="59.9647017" lon="17.7074557">
        <ele>32.8223</ele>
        <time>2013-05-26T14:43:46Z</time>
      </trkpt>
      <trkpt lat="59.9647717" lon="17.7075029">
        <ele>32.8223</ele>
        <time>2013-05-26T14:43:47Z</time>
      </trkpt>
      <trkpt lat="59.9648415" lon="17.7075512">
        <ele>32.3416</ele>
        <time>2013-05-26T14:43:48Z</time>
      </trkpt>
      <trkpt lat="59.9649108" lon="17.7076033">
        <ele>32.3416</ele>
        <time>2013-05-26T14:43:49Z</time>
      </trkpt>
      <trkpt lat="59.96498" lon="17.7076582">
        <ele>31.8607</ele>
        <time>2013-05-26T14:43:50Z</time>
      </trkpt>
      <trkpt lat="59.9650498" lon="17.7077128">
        <ele>31.8607</ele>
        <time>2013-05-26T14:43:51Z</time>
      </trkpt>
      <trkpt lat="59.9651202" lon="17.7077686">
        <ele>31.3801</ele>
        <time>2013-05-26T14:43:52Z</time>
      </trkpt>
      <trkpt lat="59.9651906" lon="17.7078255">
        <ele>31.3801</ele>
        <time>2013-05-26T14:43:53Z</time>
      </trkpt>
      <trkpt lat="59.96526" lon="17.7078843">
        <ele>30.8995</ele>
        <time>2013-05-26T14:43:54Z</time>
      </trkpt>
      <trkpt lat="59.9653284" lon="17.7079462">
        <ele>30.8995</ele>
        <time>2013-05-26T14:43:55Z</time>
      </trkpt>
      <trkpt lat="59.9653963" lon="17.70801">
        <ele>30.8995</ele>
        <time>2013-05-26T14:43:56Z</time>
      </trkpt>
      <trkpt lat="59.9654642" lon="17.7080752">
        <ele>30.8995</ele>
        <time>2013-05-26T14:43:57Z</time>
      </trkpt>
      <trkpt lat="59.9655318" lon="17.7081427">
        <ele>30.4188</ele>
        <time>2013-05-26T14:43:58Z</time>
      </trkpt>
      <trkpt lat="59.9655972" lon="17.7082158">
        <ele>30.4188</ele>
        <time>2013-05-26T14:43:59Z</time>
      </trkpt>
      <trkpt lat="59.9656583" lon="17.7082961">
        <ele>29.9381</ele>
        <time>2013-05-26T14:44:00Z</time>
      </trkpt>
      <trkpt lat="59.9657152" lon="17.7083856">
        <ele>29.9381</ele>
        <time>2013-05-26T14:44:01Z</time>
      </trkpt>
      <trkpt lat="59.9657679" lon="17.7084828">
        <ele>29.9381</ele>
        <time>2013-05-26T14:44:02Z</time>
      </trkpt>
      <trkpt lat="59.9658173" lon="17.7085871">
        <ele>29.4575</ele>
        <time>2013-05-26T14:44:03Z</time>
      </trkpt>
      <trkpt lat="59.9658626" lon="17.7086968">
        <ele>29.4575</ele>
        <time>2013-05-26T14:44:04Z</time>
      </trkpt>
      <trkpt lat="59.9659045" lon="17.708811">
        <ele>28.9769</ele>
        <time>2013-05-26T14:44:05Z</time>
      </trkpt>
      <trkpt lat="59.9659437" lon="17.7089276">
        <ele>28.9769</ele>
        <time>2013-05-26T14:44:06Z</time>
      </trkpt>
      <trkpt lat="59.965982" lon="17.7090455">
        <ele>28.9769</ele>
        <time>2013-05-26T14:44:07Z</time>
      </trkpt>
      <trkpt lat="59.9660191" lon="17.7091652">
        <ele>28.4962</ele>
        <time>2013-05-26T14:44:08Z</time>
      </trkpt>
      <trkpt lat="59.9660542" lon="17.7092859">
        <ele>28.4962</ele>
        <time>2013-05-26T14:44:09Z</time>
      </trkpt>
      <trkpt lat="59.9660883" lon="17.7094062">
        <ele>28.4962</ele>
        <time>2013-05-26T14:44:10Z</time>
      </trkpt>
      <trkpt lat="59.9661215" lon="17.7095264">
        <ele>28.4962</ele>
        <time>2013-05-26T14:44:11Z</time>
      </trkpt>
      <trkpt lat="59.9661537" lon="17.7096478">
        <ele>28.4962</ele>
        <time>2013-05-26T14:44:12Z</time>
      </trkpt>
      <trkpt lat="59.9661857" lon="17.7097683">
        <ele>28.4962</ele>
        <time>2013-05-26T14:44:13Z</time>
      </trkpt>
      <trkpt lat="59.9662184" lon="17.7098854">
        <ele>28.4962</ele>
        <time>2013-05-26T14:44:14Z</time>
      </trkpt>
      <trkpt lat="59.9662488" lon="17.7100002">
        <ele>28.4962</ele>
        <time>2013-05-26T14:44:15Z</time>
      </trkpt>
      <trkpt lat="59.9662775" lon="17.7101122">
        <ele>28.4962</ele>
        <time>2013-05-26T14:44:16Z</time>
      </trkpt>
      <trkpt lat="59.9663044" lon="17.7102225">
        <ele>28.4962</ele>
        <time>2013-05-26T14:44:17Z</time>
      </trkpt>
      <trkpt lat="59.9663225" lon="17.7103536">
        <ele>28.4962</ele>
        <time>2013-05-26T14:44:18Z</time>
      </trkpt>
      <trkpt lat="59.9663454" lon="17.7104603">
        <ele>28.4962</ele>
        <time>2013-05-26T14:44:19Z</time>
      </trkpt>
      <trkpt lat="59.9663746" lon="17.7105587">
        <ele>28.4962</ele>
        <time>2013-05-26T14:44:20Z</time>
      </trkpt>
      <trkpt lat="59.9664065" lon="17.7106589">
        <ele>28.4962</ele>
        <time>2013-05-26T14:44:21Z</time>
      </trkpt>
      <trkpt lat="59.9664426" lon="17.7107589">
        <ele>28.4962</ele>
        <time>2013-05-26T14:44:22Z</time>
      </trkpt>
      <trkpt lat="59.9664753" lon="17.7108591">
        <ele>28.9769</ele>
        <time>2013-05-26T14:44:23Z</time>
      </trkpt>
      <trkpt lat="59.9665013" lon="17.7109635">
        <ele>28.9769</ele>
        <time>2013-05-26T14:44:24Z</time>
      </trkpt>
      <trkpt lat="59.9665286" lon="17.7110662">
        <ele>28.9769</ele>
        <time>2013-05-26T14:44:25Z</time>
      </trkpt>
      <trkpt lat="59.9665555" lon="17.7111702">
        <ele>29.4575</ele>
        <time>2013-05-26T14:44:26Z</time>
      </trkpt>
      <trkpt lat="59.9665848" lon="17.7112739">
        <ele>29.4575</ele>
        <time>2013-05-26T14:44:27Z</time>
      </trkpt>
      <trkpt lat="59.9666146" lon="17.7113766">
        <ele>29.4575</ele>
        <time>2013-05-26T14:44:28Z</time>
      </trkpt>
      <trkpt lat="59.9666467" lon="17.7114766">
        <ele>28.9769</ele>
        <time>2013-05-26T14:44:29Z</time>
      </trkpt>
      <trkpt lat="59.9666761" lon="17.7115792">
        <ele>28.9769</ele>
        <time>2013-05-26T14:44:30Z</time>
      </trkpt>
      <trkpt lat="59.966701" lon="17.7116874">
        <ele>28.9769</ele>
        <time>2013-05-26T14:44:31Z</time>
      </trkpt>
      <trkpt lat="59.9667245" lon="17.711797">
        <ele>28.9769</ele>
        <time>2013-05-26T14:44:32Z</time>
      </trkpt>
      <trkpt lat="59.9667556" lon="17.7118973">
        <ele>29.4575</ele>
        <time>2013-05-26T14:44:33Z</time>
      </trkpt>
      <trkpt lat="59.9667911" lon="17.7119904">
        <ele>29.4575</ele>
        <time>2013-05-26T14:44:34Z</time>
      </trkpt>
      <trkpt lat="59.9668286" lon="17.7120826">
        <ele>29.4575</ele>
        <time>2013-05-26T14:44:35Z</time>
      </trkpt>
      <trkpt lat="59.9668663" lon="17.7121775">
        <ele>28.9769</ele>
        <time>2013-05-26T14:44:36Z</time>
      </trkpt>
      <trkpt lat="59.9669011" lon="17.7122764">
        <ele>29.4575</ele>
        <time>2013-05-26T14:44:37Z</time>
      </trkpt>
      <trkpt lat="59.9669318" lon="17.71238">
        <ele>29.4575</ele>
        <time>2013-05-26T14:44:38Z</time>
      </trkpt>
      <trkpt lat="59.9669581" lon="17.7124872">
        <ele>28.9769</ele>
        <time>2013-05-26T14:44:39Z</time>
      </trkpt>
      <trkpt lat="59.9669812" lon="17.7125959">
        <ele>28.9769</ele>
        <time>2013-05-26T14:44:40Z</time>
      </trkpt>
      <trkpt lat="59.9670035" lon="17.7127044">
        <ele>28.9769</ele>
        <time>2013-05-26T14:44:41Z</time>
      </trkpt>
      <trkpt lat="59.967028" lon="17.7128134">
        <ele>28.9769</ele>
        <time>2013-05-26T14:44:42Z</time>
      </trkpt>
      <trkpt lat="59.9670529" lon="17.7129247">
        <ele>28.4962</ele>
        <time>2013-05-26T14:44:43Z</time>
      </trkpt>
      <trkpt lat="59.9670774" lon="17.7130392">
        <ele>28.4962</ele>
        <time>2013-05-26T14:44:44Z</time>
      </trkpt>
      <trkpt lat="59.9671014" lon="17.7131554">
        <ele>28.4962</ele>
        <time>2013-05-26T14:44:45Z</time>
      </trkpt>
      <trkpt lat="59.9671237" lon="17.7132724">
        <ele>28.0155</ele>
        <time>2013-05-26T14:44:46Z</time>
      </trkpt>
      <trkpt lat="59.9671462" lon="17.7133892">
        <ele>28.0155</ele>
        <time>2013-05-26T14:44:47Z</time>
      </trkpt>
      <trkpt lat="59.9671685" lon="17.7135064">
        <ele>28.0155</ele>
        <time>2013-05-26T14:44:48Z</time>
      </trkpt>
      <trkpt lat="59.9671893" lon="17.7136252">
        <ele>27.5349</ele>
        <time>2013-05-26T14:44:49Z</time>
      </trkpt>
      <trkpt lat="59.9672079" lon="17.7137466">
        <ele>27.5349</ele>
        <time>2013-05-26T14:44:50Z</time>
      </trkpt>
      <trkpt lat="59.9672263" lon="17.7138699">
        <ele>27.0543</ele>
        <time>2013-05-26T14:44:51Z</time>
      </trkpt>
      <trkpt lat="59.967243" lon="17.7139972">
        <ele>27.0543</ele>
        <time>2013-05-26T14:44:52Z</time>
      </trkpt>
      <trkpt lat="59.967259" lon="17.7141275">
        <ele>26.5736</ele>
        <time>2013-05-26T14:44:53Z</time>
      </trkpt>
      <trkpt lat="59.9672777" lon="17.7142588">
        <ele>26.5736</ele>
        <time>2013-05-26T14:44:54Z</time>
      </trkpt>
      <trkpt lat="59.9672986" lon="17.714392">
        <ele>26.0929</ele>
        <time>2013-05-26T14:44:55Z</time>
      </trkpt>
      <trkpt lat="59.9673196" lon="17.7145275">
        <ele>26.0929</ele>
        <time>2013-05-26T14:44:56Z</time>
      </trkpt>
      <trkpt lat="59.9673412" lon="17.7146643">
        <ele>25.6123</ele>
        <time>2013-05-26T14:44:57Z</time>
      </trkpt>
      <trkpt lat="59.9673627" lon="17.7148037">
        <ele>25.6123</ele>
        <time>2013-05-26T14:44:58Z</time>
      </trkpt>
      <trkpt lat="59.9673858" lon="17.7149447">
        <ele>25.1317</ele>
        <time>2013-05-26T14:44:59Z</time>
      </trkpt>
      <trkpt lat="59.9674101" lon="17.7150866">
        <ele>24.651</ele>
        <time>2013-05-26T14:45:00Z</time>
      </trkpt>
      <trkpt lat="59.9674285" lon="17.7152202">
        <ele>24.651</ele>
        <time>2013-05-26T14:45:01Z</time>
      </trkpt>
      <trkpt lat="59.9674394" lon="17.7153357">
        <ele>25.1317</ele>
        <time>2013-05-26T14:45:02Z</time>
      </trkpt>
      <trkpt lat="59.9674588" lon="17.7154588">
        <ele>25.1317</ele>
        <time>2013-05-26T14:45:03Z</time>
      </trkpt>
      <trkpt lat="59.9674824" lon="17.7155662">
        <ele>24.651</ele>
        <time>2013-05-26T14:45:04Z</time>
      </trkpt>
      <trkpt lat="59.9675042" lon="17.7156757">
        <ele>24.1703</ele>
        <time>2013-05-26T14:45:05Z</time>
      </trkpt>
      <trkpt lat="59.9675331" lon="17.7157787">
        <ele>24.651</ele>
        <time>2013-05-26T14:45:06Z</time>
      </trkpt>
      <trkpt lat="59.9675569" lon="17.7158727">
        <ele>24.1703</ele>
        <time>2013-05-26T14:45:07Z</time>
      </trkpt>
      <trkpt lat="59.9675802" lon="17.7159636">
        <ele>24.1703</ele>
        <time>2013-05-26T14:45:08Z</time>
      </trkpt>
      <trkpt lat="59.9676066" lon="17.7160433">
        <ele>24.1703</ele>
        <time>2013-05-26T14:45:09Z</time>
      </trkpt>
      <trkpt lat="59.9676315" lon="17.7161224">
        <ele>24.1703</ele>
        <time>2013-05-26T14:45:10Z</time>
      </trkpt>
      <trkpt lat="59.9676562" lon="17.7162035">
        <ele>24.651</ele>
        <time>2013-05-26T14:45:11Z</time>
      </trkpt>
      <trkpt lat="59.9676829" lon="17.7162811">
        <ele>25.1317</ele>
        <time>2013-05-26T14:45:12Z</time>
      </trkpt>
      <trkpt lat="59.9677114" lon="17.7163588">
        <ele>25.1317</ele>
        <time>2013-05-26T14:45:13Z</time>
      </trkpt>
      <trkpt lat="59.9677434" lon="17.7164358">
        <ele>25.1317</ele>
        <time>2013-05-26T14:45:14Z</time>
      </trkpt>
      <trkpt lat="59.967775" lon="17.7165131">
        <ele>25.1317</ele>
        <time>2013-05-26T14:45:15Z</time>
      </trkpt>
      <trkpt lat="59.9678097" lon="17.7165856">
        <ele>25.6123</ele>
        <time>2013-05-26T14:45:16Z</time>
      </trkpt>
      <trkpt lat="59.9678495" lon="17.7166532">
        <ele>26.0929</ele>
        <time>2013-05-26T14:45:17Z</time>
      </trkpt>
      <trkpt lat="59.9678921" lon="17.7167178">
        <ele>25.6123</ele>
        <time>2013-05-26T14:45:18Z</time>
      </trkpt>
      <trkpt lat="59.9679373" lon="17.7167784">
        <ele>25.6123</ele>
        <time>2013-05-26T14:45:19Z</time>
      </trkpt>
      <trkpt lat="59.9679827" lon="17.7168399">
        <ele>26.0929</ele>
        <time>2013-05-26T14:45:20Z</time>
      </trkpt>
      <trkpt lat="59.9680277" lon="17.7168991">
        <ele>25.6123</ele>
        <time>2013-05-26T14:45:21Z</time>
      </trkpt>
      <trkpt lat="59.9680753" lon="17.7169554">
        <ele>25.6123</ele>
        <time>2013-05-26T14:45:22Z</time>
      </trkpt>
      <trkpt lat="59.9681234" lon="17.7170108">
        <ele>26.0929</ele>
        <time>2013-05-26T14:45:23Z</time>
      </trkpt>
      <trkpt lat="59.9681734" lon="17.7170619">
        <ele>27.5349</ele>
        <time>2013-05-26T14:45:24Z</time>
      </trkpt>
      <trkpt lat="59.9682236" lon="17.7171063">
        <ele>28.4962</ele>
        <time>2013-05-26T14:45:25Z</time>
      </trkpt>
      <trkpt lat="59.9682732" lon="17.7171441">
        <ele>29.9381</ele>
        <time>2013-05-26T14:45:26Z</time>
      </trkpt>
      <trkpt lat="59.9683216" lon="17.7171788">
        <ele>30.8995</ele>
        <time>2013-05-26T14:45:27Z</time>
      </trkpt>
      <trkpt lat="59.9683705" lon="17.7172103">
        <ele>31.3801</ele>
        <time>2013-05-26T14:45:28Z</time>
      </trkpt>
      <trkpt lat="59.9684201" lon="17.7172389">
        <ele>31.8607</ele>
        <time>2013-05-26T14:45:29Z</time>
      </trkpt>
      <trkpt lat="59.96847" lon="17.7172677">
        <ele>32.8223</ele>
        <time>2013-05-26T14:45:30Z</time>
      </trkpt>
      <trkpt lat="59.9685198" lon="17.7172933">
        <ele>32.8223</ele>
        <time>2013-05-26T14:45:31Z</time>
      </trkpt>
      <trkpt lat="59.9685702" lon="17.7173167">
        <ele>33.3029</ele>
        <time>2013-05-26T14:45:32Z</time>
      </trkpt>
      <trkpt lat="59.9686204" lon="17.717341">
        <ele>33.7834</ele>
        <time>2013-05-26T14:45:33Z</time>
      </trkpt>
      <trkpt lat="59.9686716" lon="17.7173622">
        <ele>34.2642</ele>
        <time>2013-05-26T14:45:34Z</time>
      </trkpt>
      <trkpt lat="59.968723" lon="17.7173801">
        <ele>34.7449</ele>
        <time>2013-05-26T14:45:35Z</time>
      </trkpt>
      <trkpt lat="59.9687737" lon="17.7173979">
        <ele>34.2642</ele>
        <time>2013-05-26T14:45:36Z</time>
      </trkpt>
      <trkpt lat="59.9688255" lon="17.7174119">
        <ele>34.7449</ele>
        <time>2013-05-26T14:45:37Z</time>
      </trkpt>
      <trkpt lat="59.9688754" lon="17.7174135">
        <ele>34.7449</ele>
        <time>2013-05-26T14:45:38Z</time>
      </trkpt>
      <trkpt lat="59.9689255" lon="17.7173897">
        <ele>34.7449</ele>
        <time>2013-05-26T14:45:39Z</time>
      </trkpt>
      <trkpt lat="59.9689758" lon="17.7173672">
        <ele>34.7449</ele>
        <time>2013-05-26T14:45:40Z</time>
      </trkpt>
      <trkpt lat="59.9690285" lon="17.7173618">
        <ele>35.2255</ele>
        <time>2013-05-26T14:45:41Z</time>
      </trkpt>
      <trkpt lat="59.9690818" lon="17.7173731">
        <ele>34.7449</ele>
        <time>2013-05-26T14:45:42Z</time>
      </trkpt>
      <trkpt lat="59.9691348" lon="17.7173931">
        <ele>34.7449</ele>
        <time>2013-05-26T14:45:43Z</time>
      </trkpt>
      <trkpt lat="59.9691882" lon="17.717415">
        <ele>34.7449</ele>
        <time>2013-05-26T14:45:44Z</time>
      </trkpt>
      <trkpt lat="59.9692419" lon="17.7174368">
        <ele>34.2642</ele>
        <time>2013-05-26T14:45:45Z</time>
      </trkpt>
      <trkpt lat="59.9692969" lon="17.7174601">
        <ele>34.2642</ele>
        <time>2013-05-26T14:45:46Z</time>
      </trkpt>
      <trkpt lat="59.9693519" lon="17.7174877">
        <ele>34.2642</ele>
        <time>2013-05-26T14:45:47Z</time>
      </trkpt>
      <trkpt lat="59.9694061" lon="17.71752">
        <ele>33.7834</ele>
        <time>2013-05-26T14:45:48Z</time>
      </trkpt>
      <trkpt lat="59.9694607" lon="17.7175513">
        <ele>33.7834</ele>
        <time>2013-05-26T14:45:49Z</time>
      </trkpt>
      <trkpt lat="59.969516" lon="17.7175811">
        <ele>33.3029</ele>
        <time>2013-05-26T14:45:50Z</time>
      </trkpt>
      <trkpt lat="59.9695714" lon="17.7176144">
        <ele>33.3029</ele>
        <time>2013-05-26T14:45:51Z</time>
      </trkpt>
      <trkpt lat="59.9696268" lon="17.7176518">
        <ele>32.8223</ele>
        <time>2013-05-26T14:45:52Z</time>
      </trkpt>
      <trkpt lat="59.9696824" lon="17.7176906">
        <ele>32.8223</ele>
        <time>2013-05-26T14:45:53Z</time>
      </trkpt>
      <trkpt lat="59.9697379" lon="17.7177289">
        <ele>32.8223</ele>
        <time>2013-05-26T14:45:54Z</time>
      </trkpt>
      <trkpt lat="59.9697922" lon="17.7177679">
        <ele>32.8223</ele>
        <time>2013-05-26T14:45:55Z</time>
      </trkpt>
      <trkpt lat="59.9698453" lon="17.7178091">
        <ele>32.3416</ele>
        <time>2013-05-26T14:45:56Z</time>
      </trkpt>
      <trkpt lat="59.9698971" lon="17.7178512">
        <ele>32.3416</ele>
        <time>2013-05-26T14:45:57Z</time>
      </trkpt>
      <trkpt lat="59.9699481" lon="17.7178947">
        <ele>32.3416</ele>
        <time>2013-05-26T14:45:58Z</time>
      </trkpt>
      <trkpt lat="59.9699979" lon="17.7179392">
        <ele>31.8607</ele>
        <time>2013-05-26T14:45:59Z</time>
      </trkpt>
      <trkpt lat="59.9700475" lon="17.7179836">
        <ele>31.8607</ele>
        <time>2013-05-26T14:46:00Z</time>
      </trkpt>
      <trkpt lat="59.9700973" lon="17.7180283">
        <ele>31.8607</ele>
        <time>2013-05-26T14:46:01Z</time>
      </trkpt>
      <trkpt lat="59.9701464" lon="17.7180734">
        <ele>31.8607</ele>
        <time>2013-05-26T14:46:02Z</time>
      </trkpt>
      <trkpt lat="59.9701953" lon="17.7181179">
        <ele>31.8607</ele>
        <time>2013-05-26T14:46:03Z</time>
      </trkpt>
      <trkpt lat="59.9702447" lon="17.7181614">
        <ele>31.8607</ele>
        <time>2013-05-26T14:46:04Z</time>
      </trkpt>
      <trkpt lat="59.9702945" lon="17.7182036">
        <ele>31.8607</ele>
        <time>2013-05-26T14:46:05Z</time>
      </trkpt>
      <trkpt lat="59.9703444" lon="17.718247">
        <ele>31.3801</ele>
        <time>2013-05-26T14:46:06Z</time>
      </trkpt>
      <trkpt lat="59.9703941" lon="17.7182915">
        <ele>31.3801</ele>
        <time>2013-05-26T14:46:07Z</time>
      </trkpt>
      <trkpt lat="59.9704448" lon="17.7183345">
        <ele>31.8607</ele>
        <time>2013-05-26T14:46:08Z</time>
      </trkpt>
      <trkpt lat="59.970494" lon="17.7183781">
        <ele>31.3801</ele>
        <time>2013-05-26T14:46:09Z</time>
      </trkpt>
      <trkpt lat="59.9705405" lon="17.7184231">
        <ele>31.3801</ele>
        <time>2013-05-26T14:46:10Z</time>
      </trkpt>
      <trkpt lat="59.9705867" lon="17.7184667">
        <ele>31.3801</ele>
        <time>2013-05-26T14:46:11Z</time>
      </trkpt>
      <trkpt lat="59.9706334" lon="17.7185091">
        <ele>31.3801</ele>
        <time>2013-05-26T14:46:12Z</time>
      </trkpt>
      <trkpt lat="59.9706805" lon="17.718551">
        <ele>31.3801</ele>
        <time>2013-05-26T14:46:13Z</time>
      </trkpt>
      <trkpt lat="59.9707273" lon="17.7185914">
        <ele>31.3801</ele>
        <time>2013-05-26T14:46:14Z</time>
      </trkpt>
      <trkpt lat="59.9707743" lon="17.7186334">
        <ele>31.3801</ele>
        <time>2013-05-26T14:46:15Z</time>
      </trkpt>
      <trkpt lat="59.9708218" lon="17.7186763">
        <ele>30.8995</ele>
        <time>2013-05-26T14:46:16Z</time>
      </trkpt>
      <trkpt lat="59.9708701" lon="17.7187193">
        <ele>30.8995</ele>
        <time>2013-05-26T14:46:17Z</time>
      </trkpt>
      <trkpt lat="59.9709184" lon="17.7187645">
        <ele>30.8995</ele>
        <time>2013-05-26T14:46:18Z</time>
      </trkpt>
      <trkpt lat="59.9709674" lon="17.7188112">
        <ele>30.8995</ele>
        <time>2013-05-26T14:46:19Z</time>
      </trkpt>
      <trkpt lat="59.9710181" lon="17.7188585">
        <ele>30.8995</ele>
        <time>2013-05-26T14:46:20Z</time>
      </trkpt>
      <trkpt lat="59.9710701" lon="17.7189059">
        <ele>30.8995</ele>
        <time>2013-05-26T14:46:21Z</time>
      </trkpt>
      <trkpt lat="59.9711225" lon="17.7189515">
        <ele>30.8995</ele>
        <time>2013-05-26T14:46:22Z</time>
      </trkpt>
      <trkpt lat="59.9711745" lon="17.7189973">
        <ele>30.8995</ele>
        <time>2013-05-26T14:46:23Z</time>
      </trkpt>
      <trkpt lat="59.9712259" lon="17.7190446">
        <ele>30.8995</ele>
        <time>2013-05-26T14:46:24Z</time>
      </trkpt>
      <trkpt lat="59.9712772" lon="17.7190914">
        <ele>30.8995</ele>
        <time>2013-05-26T14:46:25Z</time>
      </trkpt>
      <trkpt lat="59.9713286" lon="17.7191379">
        <ele>30.8995</ele>
        <time>2013-05-26T14:46:26Z</time>
      </trkpt>
      <trkpt lat="59.9713797" lon="17.7191859">
        <ele>30.8995</ele>
        <time>2013-05-26T14:46:27Z</time>
      </trkpt>
      <trkpt lat="59.9714316" lon="17.7192327">
        <ele>30.8995</ele>
        <time>2013-05-26T14:46:28Z</time>
      </trkpt>
      <trkpt lat="59.9714835" lon="17.7192778">
        <ele>30.8995</ele>
        <time>2013-05-26T14:46:29Z</time>
      </trkpt>
      <trkpt lat="59.9715342" lon="17.7193244">
        <ele>30.8995</ele>
        <time>2013-05-26T14:46:30Z</time>
      </trkpt>
      <trkpt lat="59.971584" lon="17.7193717">
        <ele>30.8995</ele>
        <time>2013-05-26T14:46:31Z</time>
      </trkpt>
      <trkpt lat="59.9716333" lon="17.7194198">
        <ele>30.4188</ele>
        <time>2013-05-26T14:46:32Z</time>
      </trkpt>
      <trkpt lat="59.9716824" lon="17.7194685">
        <ele>30.4188</ele>
        <time>2013-05-26T14:46:33Z</time>
      </trkpt>
      <trkpt lat="59.9717319" lon="17.7195161">
        <ele>30.4188</ele>
        <time>2013-05-26T14:46:34Z</time>
      </trkpt>
      <trkpt lat="59.9717813" lon="17.7195625">
        <ele>29.9381</ele>
        <time>2013-05-26T14:46:35Z</time>
      </trkpt>
      <trkpt lat="59.9718299" lon="17.7196072">
        <ele>29.9381</ele>
        <time>2013-05-26T14:46:36Z</time>
      </trkpt>
      <trkpt lat="59.9718778" lon="17.7196539">
        <ele>29.9381</ele>
        <time>2013-05-26T14:46:37Z</time>
      </trkpt>
      <trkpt lat="59.9719253" lon="17.7197005">
        <ele>29.4575</ele>
        <time>2013-05-26T14:46:38Z</time>
      </trkpt>
      <trkpt lat="59.9719733" lon="17.7197452">
        <ele>28.9769</ele>
        <time>2013-05-26T14:46:39Z</time>
      </trkpt>
      <trkpt lat="59.9720216" lon="17.7197887">
        <ele>28.9769</ele>
        <time>2013-05-26T14:46:40Z</time>
      </trkpt>
      <trkpt lat="59.9720712" lon="17.7198317">
        <ele>28.9769</ele>
        <time>2013-05-26T14:46:41Z</time>
      </trkpt>
      <trkpt lat="59.9721204" lon="17.7198774">
        <ele>28.4962</ele>
        <time>2013-05-26T14:46:42Z</time>
      </trkpt>
      <trkpt lat="59.9721689" lon="17.7199262">
        <ele>28.4962</ele>
        <time>2013-05-26T14:46:43Z</time>
      </trkpt>
      <trkpt lat="59.9722183" lon="17.719975">
        <ele>28.0155</ele>
        <time>2013-05-26T14:46:44Z</time>
      </trkpt>
      <trkpt lat="59.9722682" lon="17.7200238">
        <ele>28.0155</ele>
        <time>2013-05-26T14:46:45Z</time>
      </trkpt>
      <trkpt lat="59.972319" lon="17.720072">
        <ele>27.5349</ele>
        <time>2013-05-26T14:46:46Z</time>
      </trkpt>
      <trkpt lat="59.9723713" lon="17.7201206">
        <ele>27.5349</ele>
        <time>2013-05-26T14:46:47Z</time>
      </trkpt>
      <trkpt lat="59.9724242" lon="17.7201708">
        <ele>27.0543</ele>
        <time>2013-05-26T14:46:48Z</time>
      </trkpt>
      <trkpt lat="59.9724775" lon="17.7202207">
        <ele>27.0543</ele>
        <time>2013-05-26T14:46:49Z</time>
      </trkpt>
      <trkpt lat="59.9725302" lon="17.7202702">
        <ele>27.0543</ele>
        <time>2013-05-26T14:46:50Z</time>
      </trkpt>
      <trkpt lat="59.9725826" lon="17.7203179">
        <ele>27.0543</ele>
        <time>2013-05-26T14:46:51Z</time>
      </trkpt>
      <trkpt lat="59.972634" lon="17.7203649">
        <ele>27.0543</ele>
        <time>2013-05-26T14:46:52Z</time>
      </trkpt>
      <trkpt lat="59.9726842" lon="17.7204131">
        <ele>27.0543</ele>
        <time>2013-05-26T14:46:53Z</time>
      </trkpt>
      <trkpt lat="59.9727328" lon="17.7204647">
        <ele>27.0543</ele>
        <time>2013-05-26T14:46:54Z</time>
      </trkpt>
      <trkpt lat="59.9727811" lon="17.7205172">
        <ele>27.0543</ele>
        <time>2013-05-26T14:46:55Z</time>
      </trkpt>
      <trkpt lat="59.9728296" lon="17.7205691">
        <ele>27.0543</ele>
        <time>2013-05-26T14:46:56Z</time>
      </trkpt>
      <trkpt lat="59.9728777" lon="17.7206236">
        <ele>27.0543</ele>
        <time>2013-05-26T14:46:57Z</time>
      </trkpt>
      <trkpt lat="59.9729252" lon="17.7206806">
        <ele>27.0543</ele>
        <time>2013-05-26T14:46:58Z</time>
      </trkpt>
      <trkpt lat="59.9729728" lon="17.720739">
        <ele>26.5736</ele>
        <time>2013-05-26T14:46:59Z</time>
      </trkpt>
      <trkpt lat="59.9730203" lon="17.7207982">
        <ele>26.5736</ele>
        <time>2013-05-26T14:47:00Z</time>
      </trkpt>
      <trkpt lat="59.9730668" lon="17.7208609">
        <ele>26.5736</ele>
        <time>2013-05-26T14:47:01Z</time>
      </trkpt>
      <trkpt lat="59.9731126" lon="17.720928">
        <ele>26.5736</ele>
        <time>2013-05-26T14:47:02Z</time>
      </trkpt>
      <trkpt lat="59.9731567" lon="17.7209981">
        <ele>26.5736</ele>
        <time>2013-05-26T14:47:03Z</time>
      </trkpt>
      <trkpt lat="59.9731994" lon="17.7210702">
        <ele>26.5736</ele>
        <time>2013-05-26T14:47:04Z</time>
      </trkpt>
      <trkpt lat="59.9732415" lon="17.7211421">
        <ele>26.5736</ele>
        <time>2013-05-26T14:47:05Z</time>
      </trkpt>
      <trkpt lat="59.9732826" lon="17.7212144">
        <ele>26.0929</ele>
        <time>2013-05-26T14:47:06Z</time>
      </trkpt>
      <trkpt lat="59.9733224" lon="17.7212866">
        <ele>26.0929</ele>
        <time>2013-05-26T14:47:07Z</time>
      </trkpt>
      <trkpt lat="59.9733607" lon="17.7213586">
        <ele>26.0929</ele>
        <time>2013-05-26T14:47:08Z</time>
      </trkpt>
      <trkpt lat="59.973398" lon="17.7214316">
        <ele>26.0929</ele>
        <time>2013-05-26T14:47:09Z</time>
      </trkpt>
      <trkpt lat="59.9734343" lon="17.7215057">
        <ele>26.0929</ele>
        <time>2013-05-26T14:47:10Z</time>
      </trkpt>
      <trkpt lat="59.9734701" lon="17.7215802">
        <ele>25.6123</ele>
        <time>2013-05-26T14:47:11Z</time>
      </trkpt>
      <trkpt lat="59.9735026" lon="17.7216571">
        <ele>25.6123</ele>
        <time>2013-05-26T14:47:12Z</time>
      </trkpt>
      <trkpt lat="59.9735332" lon="17.7217368">
        <ele>25.6123</ele>
        <time>2013-05-26T14:47:13Z</time>
      </trkpt>
      <trkpt lat="59.9735652" lon="17.7218166">
        <ele>25.6123</ele>
        <time>2013-05-26T14:47:14Z</time>
      </trkpt>
      <trkpt lat="59.9735964" lon="17.7218978">
        <ele>25.6123</ele>
        <time>2013-05-26T14:47:15Z</time>
      </trkpt>
      <trkpt lat="59.9736281" lon="17.7219804">
        <ele>25.6123</ele>
        <time>2013-05-26T14:47:16Z</time>
      </trkpt>
      <trkpt lat="59.9736607" lon="17.7220655">
        <ele>25.1317</ele>
        <time>2013-05-26T14:47:17Z</time>
      </trkpt>
      <trkpt lat="59.9736923" lon="17.7221529">
        <ele>25.1317</ele>
        <time>2013-05-26T14:47:18Z</time>
      </trkpt>
      <trkpt lat="59.9737216" lon="17.7222411">
        <ele>25.1317</ele>
        <time>2013-05-26T14:47:19Z</time>
      </trkpt>
      <trkpt lat="59.9737492" lon="17.722331">
        <ele>25.1317</ele>
        <time>2013-05-26T14:47:20Z</time>
      </trkpt>
      <trkpt lat="59.9737758" lon="17.722422">
        <ele>25.6123</ele>
        <time>2013-05-26T14:47:21Z</time>
      </trkpt>
      <trkpt lat="59.973802" lon="17.7225128">
        <ele>25.6123</ele>
        <time>2013-05-26T14:47:22Z</time>
      </trkpt>
      <trkpt lat="59.9738274" lon="17.7226022">
        <ele>26.0929</ele>
        <time>2013-05-26T14:47:23Z</time>
      </trkpt>
      <trkpt lat="59.9738523" lon="17.7226905">
        <ele>26.0929</ele>
        <time>2013-05-26T14:47:24Z</time>
      </trkpt>
      <trkpt lat="59.9738759" lon="17.7227801">
        <ele>26.5736</ele>
        <time>2013-05-26T14:47:25Z</time>
      </trkpt>
      <trkpt lat="59.9738984" lon="17.7228723">
        <ele>27.0543</ele>
        <time>2013-05-26T14:47:26Z</time>
      </trkpt>
      <trkpt lat="59.9739201" lon="17.7229656">
        <ele>27.0543</ele>
        <time>2013-05-26T14:47:27Z</time>
      </trkpt>
      <trkpt lat="59.9739392" lon="17.7230619">
        <ele>27.0543</ele>
        <time>2013-05-26T14:47:28Z</time>
      </trkpt>
      <trkpt lat="59.9739586" lon="17.7231592">
        <ele>27.5349</ele>
        <time>2013-05-26T14:47:29Z</time>
      </trkpt>
      <trkpt lat="59.9739766" lon="17.7232581">
        <ele>27.5349</ele>
        <time>2013-05-26T14:47:30Z</time>
      </trkpt>
      <trkpt lat="59.9739927" lon="17.7233588">
        <ele>27.5349</ele>
        <time>2013-05-26T14:47:31Z</time>
      </trkpt>
      <trkpt lat="59.974008" lon="17.723459">
        <ele>27.5349</ele>
        <time>2013-05-26T14:47:32Z</time>
      </trkpt>
      <trkpt lat="59.9740242" lon="17.7235571">
        <ele>27.5349</ele>
        <time>2013-05-26T14:47:33Z</time>
      </trkpt>
      <trkpt lat="59.9740393" lon="17.7236546">
        <ele>27.5349</ele>
        <time>2013-05-26T14:47:34Z</time>
      </trkpt>
      <trkpt lat="59.9740527" lon="17.7237538">
        <ele>27.5349</ele>
        <time>2013-05-26T14:47:35Z</time>
      </trkpt>
      <trkpt lat="59.9740656" lon="17.7238534">
        <ele>27.5349</ele>
        <time>2013-05-26T14:47:36Z</time>
      </trkpt>
      <trkpt lat="59.9740791" lon="17.7239526">
        <ele>27.5349</ele>
        <time>2013-05-26T14:47:37Z</time>
      </trkpt>
      <trkpt lat="59.9740921" lon="17.7240513">
        <ele>27.5349</ele>
        <time>2013-05-26T14:47:38Z</time>
      </trkpt>
      <trkpt lat="59.974105" lon="17.724151">
        <ele>27.5349</ele>
        <time>2013-05-26T14:47:39Z</time>
      </trkpt>
      <trkpt lat="59.9741181" lon="17.7242516">
        <ele>27.0543</ele>
        <time>2013-05-26T14:47:40Z</time>
      </trkpt>
      <trkpt lat="59.974132" lon="17.7243526">
        <ele>27.0543</ele>
        <time>2013-05-26T14:47:41Z</time>
      </trkpt>
      <trkpt lat="59.9741464" lon="17.7244535">
        <ele>27.0543</ele>
        <time>2013-05-26T14:47:42Z</time>
      </trkpt>
      <trkpt lat="59.9741608" lon="17.7245543">
        <ele>27.5349</ele>
        <time>2013-05-26T14:47:43Z</time>
      </trkpt>
      <trkpt lat="59.9741744" lon="17.7246553">
        <ele>27.5349</ele>
        <time>2013-05-26T14:47:44Z</time>
      </trkpt>
      <trkpt lat="59.9741875" lon="17.7247552">
        <ele>27.0543</ele>
        <time>2013-05-26T14:47:45Z</time>
      </trkpt>
      <trkpt lat="59.9741999" lon="17.7248529">
        <ele>27.0543</ele>
        <time>2013-05-26T14:47:46Z</time>
      </trkpt>
      <trkpt lat="59.9742112" lon="17.7249521">
        <ele>25.6123</ele>
        <time>2013-05-26T14:47:47Z</time>
      </trkpt>
      <trkpt lat="59.9742237" lon="17.7250514">
        <ele>25.6123</ele>
        <time>2013-05-26T14:47:48Z</time>
      </trkpt>
      <trkpt lat="59.974237" lon="17.725151">
        <ele>26.0929</ele>
        <time>2013-05-26T14:47:49Z</time>
      </trkpt>
      <trkpt lat="59.9742507" lon="17.7252526">
        <ele>26.0929</ele>
        <time>2013-05-26T14:47:50Z</time>
      </trkpt>
      <trkpt lat="59.9742636" lon="17.7253582">
        <ele>26.0929</ele>
        <time>2013-05-26T14:47:51Z</time>
      </trkpt>
      <trkpt lat="59.9742755" lon="17.7254674">
        <ele>26.0929</ele>
        <time>2013-05-26T14:47:52Z</time>
      </trkpt>
      <trkpt lat="59.9742858" lon="17.7255789">
        <ele>26.0929</ele>
        <time>2013-05-26T14:47:53Z</time>
      </trkpt>
      <trkpt lat="59.974295" lon="17.7256921">
        <ele>26.5736</ele>
        <time>2013-05-26T14:47:54Z</time>
      </trkpt>
      <trkpt lat="59.9743039" lon="17.7258052">
        <ele>26.5736</ele>
        <time>2013-05-26T14:47:55Z</time>
      </trkpt>
      <trkpt lat="59.9743118" lon="17.7259185">
        <ele>26.5736</ele>
        <time>2013-05-26T14:47:56Z</time>
      </trkpt>
      <trkpt lat="59.9743179" lon="17.7260315">
        <ele>26.5736</ele>
        <time>2013-05-26T14:47:57Z</time>
      </trkpt>
      <trkpt lat="59.9743231" lon="17.726142">
        <ele>26.5736</ele>
        <time>2013-05-26T14:47:58Z</time>
      </trkpt>
      <trkpt lat="59.9743272" lon="17.7262503">
        <ele>27.0543</ele>
        <time>2013-05-26T14:47:59Z</time>
      </trkpt>
      <trkpt lat="59.9743302" lon="17.7263559">
        <ele>27.0543</ele>
        <time>2013-05-26T14:48:00Z</time>
      </trkpt>
      <trkpt lat="59.9743336" lon="17.7264612">
        <ele>27.5349</ele>
        <time>2013-05-26T14:48:01Z</time>
      </trkpt>
      <trkpt lat="59.9743362" lon="17.7265652">
        <ele>28.0155</ele>
        <time>2013-05-26T14:48:02Z</time>
      </trkpt>
      <trkpt lat="59.9743394" lon="17.7266693">
        <ele>28.0155</ele>
        <time>2013-05-26T14:48:03Z</time>
      </trkpt>
      <trkpt lat="59.9743433" lon="17.7267739">
        <ele>28.4962</ele>
        <time>2013-05-26T14:48:04Z</time>
      </trkpt>
      <trkpt lat="59.9743463" lon="17.7268797">
        <ele>28.4962</ele>
        <time>2013-05-26T14:48:05Z</time>
      </trkpt>
      <trkpt lat="59.9743491" lon="17.7269875">
        <ele>28.4962</ele>
        <time>2013-05-26T14:48:06Z</time>
      </trkpt>
      <trkpt lat="59.9743512" lon="17.7270977">
        <ele>28.9769</ele>
        <time>2013-05-26T14:48:07Z</time>
      </trkpt>
      <trkpt lat="59.9743527" lon="17.7272116">
        <ele>28.9769</ele>
        <time>2013-05-26T14:48:08Z</time>
      </trkpt>
      <trkpt lat="59.9743554" lon="17.7273291">
        <ele>29.4575</ele>
        <time>2013-05-26T14:48:09Z</time>
      </trkpt>
      <trkpt lat="59.9743587" lon="17.7274492">
        <ele>29.9381</ele>
        <time>2013-05-26T14:48:10Z</time>
      </trkpt>
      <trkpt lat="59.9743616" lon="17.7275701">
        <ele>29.9381</ele>
        <time>2013-05-26T14:48:11Z</time>
      </trkpt>
      <trkpt lat="59.974364" lon="17.7276929">
        <ele>29.9381</ele>
        <time>2013-05-26T14:48:12Z</time>
      </trkpt>
      <trkpt lat="59.9743662" lon="17.7278193">
        <ele>29.9381</ele>
        <time>2013-05-26T14:48:13Z</time>
      </trkpt>
      <trkpt lat="59.9743707" lon="17.7279496">
        <ele>29.4575</ele>
        <time>2013-05-26T14:48:14Z</time>
      </trkpt>
      <trkpt lat="59.9743754" lon="17.7280814">
        <ele>29.4575</ele>
        <time>2013-05-26T14:48:15Z</time>
      </trkpt>
      <trkpt lat="59.974378" lon="17.7282098">
        <ele>28.9769</ele>
        <time>2013-05-26T14:48:16Z</time>
      </trkpt>
      <trkpt lat="59.9743802" lon="17.728336">
        <ele>28.9769</ele>
        <time>2013-05-26T14:48:17Z</time>
      </trkpt>
      <trkpt lat="59.9743828" lon="17.7284584">
        <ele>28.9769</ele>
        <time>2013-05-26T14:48:18Z</time>
      </trkpt>
      <trkpt lat="59.9743874" lon="17.7285782">
        <ele>28.9769</ele>
        <time>2013-05-26T14:48:19Z</time>
      </trkpt>
      <trkpt lat="59.9743916" lon="17.7286955">
        <ele>28.9769</ele>
        <time>2013-05-26T14:48:20Z</time>
      </trkpt>
      <trkpt lat="59.9743937" lon="17.7288102">
        <ele>28.4962</ele>
        <time>2013-05-26T14:48:21Z</time>
      </trkpt>
      <trkpt lat="59.9743966" lon="17.7289232">
        <ele>28.4962</ele>
        <time>2013-05-26T14:48:22Z</time>
      </trkpt>
      <trkpt lat="59.9744014" lon="17.7290344">
        <ele>28.4962</ele>
        <time>2013-05-26T14:48:23Z</time>
      </trkpt>
      <trkpt lat="59.9744061" lon="17.7291438">
        <ele>28.4962</ele>
        <time>2013-05-26T14:48:24Z</time>
      </trkpt>
      <trkpt lat="59.9744092" lon="17.7292516">
        <ele>28.4962</ele>
        <time>2013-05-26T14:48:25Z</time>
      </trkpt>
      <trkpt lat="59.9744105" lon="17.7293579">
        <ele>28.4962</ele>
        <time>2013-05-26T14:48:26Z</time>
      </trkpt>
      <trkpt lat="59.9744105" lon="17.7294628">
        <ele>28.4962</ele>
        <time>2013-05-26T14:48:27Z</time>
      </trkpt>
      <trkpt lat="59.974408" lon="17.7295656">
        <ele>28.4962</ele>
        <time>2013-05-26T14:48:28Z</time>
      </trkpt>
      <trkpt lat="59.9744039" lon="17.7296664">
        <ele>28.4962</ele>
        <time>2013-05-26T14:48:29Z</time>
      </trkpt>
      <trkpt lat="59.9743987" lon="17.7297652">
        <ele>28.4962</ele>
        <time>2013-05-26T14:48:30Z</time>
      </trkpt>
      <trkpt lat="59.9743917" lon="17.7298628">
        <ele>28.4962</ele>
        <time>2013-05-26T14:48:31Z</time>
      </trkpt>
      <trkpt lat="59.9743833" lon="17.7299587">
        <ele>28.4962</ele>
        <time>2013-05-26T14:48:32Z</time>
      </trkpt>
      <trkpt lat="59.9743736" lon="17.7300536">
        <ele>28.4962</ele>
        <time>2013-05-26T14:48:33Z</time>
      </trkpt>
      <trkpt lat="59.974365" lon="17.7301498">
        <ele>28.0155</ele>
        <time>2013-05-26T14:48:34Z</time>
      </trkpt>
      <trkpt lat="59.9743572" lon="17.7302472">
        <ele>28.4962</ele>
        <time>2013-05-26T14:48:35Z</time>
      </trkpt>
      <trkpt lat="59.9743492" lon="17.7303456">
        <ele>28.0155</ele>
        <time>2013-05-26T14:48:36Z</time>
      </trkpt>
      <trkpt lat="59.9743425" lon="17.7304454">
        <ele>28.0155</ele>
        <time>2013-05-26T14:48:37Z</time>
      </trkpt>
      <trkpt lat="59.9743356" lon="17.7305464">
        <ele>28.0155</ele>
        <time>2013-05-26T14:48:38Z</time>
      </trkpt>
      <trkpt lat="59.9743268" lon="17.7306471">
        <ele>28.0155</ele>
        <time>2013-05-26T14:48:39Z</time>
      </trkpt>
      <trkpt lat="59.9743185" lon="17.730748">
        <ele>28.0155</ele>
        <time>2013-05-26T14:48:40Z</time>
      </trkpt>
      <trkpt lat="59.9743119" lon="17.7308496">
        <ele>28.0155</ele>
        <time>2013-05-26T14:48:41Z</time>
      </trkpt>
      <trkpt lat="59.9743056" lon="17.7309507">
        <ele>28.0155</ele>
        <time>2013-05-26T14:48:42Z</time>
      </trkpt>
      <trkpt lat="59.9742995" lon="17.7310507">
        <ele>28.0155</ele>
        <time>2013-05-26T14:48:43Z</time>
      </trkpt>
      <trkpt lat="59.9742942" lon="17.7311512">
        <ele>28.0155</ele>
        <time>2013-05-26T14:48:44Z</time>
      </trkpt>
      <trkpt lat="59.9742889" lon="17.7312526">
        <ele>27.5349</ele>
        <time>2013-05-26T14:48:45Z</time>
      </trkpt>
      <trkpt lat="59.9742844" lon="17.7313543">
        <ele>27.5349</ele>
        <time>2013-05-26T14:48:46Z</time>
      </trkpt>
      <trkpt lat="59.9742807" lon="17.7314576">
        <ele>27.5349</ele>
        <time>2013-05-26T14:48:47Z</time>
      </trkpt>
      <trkpt lat="59.9742781" lon="17.7315619">
        <ele>27.5349</ele>
        <time>2013-05-26T14:48:48Z</time>
      </trkpt>
      <trkpt lat="59.9742765" lon="17.7316668">
        <ele>27.5349</ele>
        <time>2013-05-26T14:48:49Z</time>
      </trkpt>
      <trkpt lat="59.9742767" lon="17.7317722">
        <ele>27.5349</ele>
        <time>2013-05-26T14:48:50Z</time>
      </trkpt>
      <trkpt lat="59.9742784" lon="17.7318787">
        <ele>27.5349</ele>
        <time>2013-05-26T14:48:51Z</time>
      </trkpt>
      <trkpt lat="59.9742797" lon="17.7319846">
        <ele>27.5349</ele>
        <time>2013-05-26T14:48:52Z</time>
      </trkpt>
      <trkpt lat="59.9742818" lon="17.7320893">
        <ele>27.5349</ele>
        <time>2013-05-26T14:48:53Z</time>
      </trkpt>
      <trkpt lat="59.9742849" lon="17.7321938">
        <ele>27.5349</ele>
        <time>2013-05-26T14:48:54Z</time>
      </trkpt>
      <trkpt lat="59.9742883" lon="17.7322985">
        <ele>27.5349</ele>
        <time>2013-05-26T14:48:55Z</time>
      </trkpt>
      <trkpt lat="59.9742919" lon="17.7324042">
        <ele>27.5349</ele>
        <time>2013-05-26T14:48:56Z</time>
      </trkpt>
      <trkpt lat="59.9742958" lon="17.73251">
        <ele>27.5349</ele>
        <time>2013-05-26T14:48:57Z</time>
      </trkpt>
      <trkpt lat="59.9742994" lon="17.7326156">
        <ele>27.5349</ele>
        <time>2013-05-26T14:48:58Z</time>
      </trkpt>
      <trkpt lat="59.974301" lon="17.7327191">
        <ele>27.5349</ele>
        <time>2013-05-26T14:48:59Z</time>
      </trkpt>
      <trkpt lat="59.9743004" lon="17.73282">
        <ele>27.5349</ele>
        <time>2013-05-26T14:49:00Z</time>
      </trkpt>
      <trkpt lat="59.9742998" lon="17.7329192">
        <ele>27.5349</ele>
        <time>2013-05-26T14:49:01Z</time>
      </trkpt>
      <trkpt lat="59.9743003" lon="17.7330175">
        <ele>27.5349</ele>
        <time>2013-05-26T14:49:02Z</time>
      </trkpt>
      <trkpt lat="59.9743004" lon="17.7331149">
        <ele>27.0543</ele>
        <time>2013-05-26T14:49:03Z</time>
      </trkpt>
      <trkpt lat="59.9742982" lon="17.7332103">
        <ele>27.0543</ele>
        <time>2013-05-26T14:49:04Z</time>
      </trkpt>
      <trkpt lat="59.9742936" lon="17.7333032">
        <ele>27.0543</ele>
        <time>2013-05-26T14:49:05Z</time>
      </trkpt>
      <trkpt lat="59.9742878" lon="17.7333945">
        <ele>27.0543</ele>
        <time>2013-05-26T14:49:06Z</time>
      </trkpt>
      <trkpt lat="59.9742826" lon="17.7334856">
        <ele>27.0543</ele>
        <time>2013-05-26T14:49:07Z</time>
      </trkpt>
      <trkpt lat="59.9742781" lon="17.7335769">
        <ele>27.5349</ele>
        <time>2013-05-26T14:49:08Z</time>
      </trkpt>
      <trkpt lat="59.974274" lon="17.7336701">
        <ele>27.5349</ele>
        <time>2013-05-26T14:49:09Z</time>
      </trkpt>
      <trkpt lat="59.9742701" lon="17.7337639">
        <ele>27.0543</ele>
        <time>2013-05-26T14:49:10Z</time>
      </trkpt>
      <trkpt lat="59.9742663" lon="17.7338572">
        <ele>27.0543</ele>
        <time>2013-05-26T14:49:11Z</time>
      </trkpt>
      <trkpt lat="59.9742624" lon="17.7339504">
        <ele>27.5349</ele>
        <time>2013-05-26T14:49:12Z</time>
      </trkpt>
      <trkpt lat="59.9742573" lon="17.7340442">
        <ele>27.5349</ele>
        <time>2013-05-26T14:49:13Z</time>
      </trkpt>
      <trkpt lat="59.9742522" lon="17.7341394">
        <ele>27.0543</ele>
        <time>2013-05-26T14:49:14Z</time>
      </trkpt>
      <trkpt lat="59.9742491" lon="17.7342365">
        <ele>27.0543</ele>
        <time>2013-05-26T14:49:15Z</time>
      </trkpt>
      <trkpt lat="59.9742486" lon="17.7343344">
        <ele>27.0543</ele>
        <time>2013-05-26T14:49:16Z</time>
      </trkpt>
      <trkpt lat="59.9742484" lon="17.7344315">
        <ele>27.0543</ele>
        <time>2013-05-26T14:49:17Z</time>
      </trkpt>
      <trkpt lat="59.9742474" lon="17.7345289">
        <ele>27.0543</ele>
        <time>2013-05-26T14:49:18Z</time>
      </trkpt>
      <trkpt lat="59.9742476" lon="17.734626">
        <ele>27.0543</ele>
        <time>2013-05-26T14:49:19Z</time>
      </trkpt>
      <trkpt lat="59.9742496" lon="17.7347223">
        <ele>27.0543</ele>
        <time>2013-05-26T14:49:20Z</time>
      </trkpt>
      <trkpt lat="59.9742523" lon="17.7348163">
        <ele>27.0543</ele>
        <time>2013-05-26T14:49:21Z</time>
      </trkpt>
      <trkpt lat="59.9742586" lon="17.7349015">
        <ele>27.0543</ele>
        <time>2013-05-26T14:49:22Z</time>
      </trkpt>
      <trkpt lat="59.9742673" lon="17.7349824">
        <ele>27.0543</ele>
        <time>2013-05-26T14:49:23Z</time>
      </trkpt>
      <trkpt lat="59.9742729" lon="17.7350589">
        <ele>26.5736</ele>
        <time>2013-05-26T14:49:24Z</time>
      </trkpt>
      <trkpt lat="59.9742793" lon="17.7351328">
        <ele>26.5736</ele>
        <time>2013-05-26T14:49:25Z</time>
      </trkpt>
      <trkpt lat="59.9742878" lon="17.7352078">
        <ele>27.0543</ele>
        <time>2013-05-26T14:49:26Z</time>
      </trkpt>
      <trkpt lat="59.9742952" lon="17.7352846">
        <ele>27.0543</ele>
        <time>2013-05-26T14:49:27Z</time>
      </trkpt>
      <trkpt lat="59.9743023" lon="17.7353629">
        <ele>27.0543</ele>
        <time>2013-05-26T14:49:28Z</time>
      </trkpt>
      <trkpt lat="59.9743113" lon="17.7354413">
        <ele>27.0543</ele>
        <time>2013-05-26T14:49:29Z</time>
      </trkpt>
      <trkpt lat="59.9743215" lon="17.7355216">
        <ele>27.0543</ele>
        <time>2013-05-26T14:49:30Z</time>
      </trkpt>
      <trkpt lat="59.9743318" lon="17.735604">
        <ele>27.0543</ele>
        <time>2013-05-26T14:49:31Z</time>
      </trkpt>
      <trkpt lat="59.9743429" lon="17.7356869">
        <ele>27.0543</ele>
        <time>2013-05-26T14:49:32Z</time>
      </trkpt>
      <trkpt lat="59.9743552" lon="17.7357692">
        <ele>27.0543</ele>
        <time>2013-05-26T14:49:33Z</time>
      </trkpt>
      <trkpt lat="59.9743649" lon="17.7358499">
        <ele>27.0543</ele>
        <time>2013-05-26T14:49:34Z</time>
      </trkpt>
      <trkpt lat="59.9743733" lon="17.7359286">
        <ele>27.0543</ele>
        <time>2013-05-26T14:49:35Z</time>
      </trkpt>
      <trkpt lat="59.9743828" lon="17.736005">
        <ele>27.0543</ele>
        <time>2013-05-26T14:49:36Z</time>
      </trkpt>
      <trkpt lat="59.974396" lon="17.7360795">
        <ele>27.0543</ele>
        <time>2013-05-26T14:49:37Z</time>
      </trkpt>
      <trkpt lat="59.9744128" lon="17.7361518">
        <ele>27.5349</ele>
        <time>2013-05-26T14:49:38Z</time>
      </trkpt>
      <trkpt lat="59.97443" lon="17.7362243">
        <ele>27.5349</ele>
        <time>2013-05-26T14:49:39Z</time>
      </trkpt>
      <trkpt lat="59.9744475" lon="17.7362973">
        <ele>27.5349</ele>
        <time>2013-05-26T14:49:40Z</time>
      </trkpt>
      <trkpt lat="59.9744655" lon="17.7363706">
        <ele>27.5349</ele>
        <time>2013-05-26T14:49:41Z</time>
      </trkpt>
      <trkpt lat="59.9744832" lon="17.7364455">
        <ele>27.5349</ele>
        <time>2013-05-26T14:49:42Z</time>
      </trkpt>
      <trkpt lat="59.9745014" lon="17.7365211">
        <ele>27.5349</ele>
        <time>2013-05-26T14:49:43Z</time>
      </trkpt>
      <trkpt lat="59.9745221" lon="17.7365949">
        <ele>27.5349</ele>
        <time>2013-05-26T14:49:44Z</time>
      </trkpt>
      <trkpt lat="59.974544" lon="17.736668">
        <ele>27.5349</ele>
        <time>2013-05-26T14:49:45Z</time>
      </trkpt>
      <trkpt lat="59.9745656" lon="17.7367424">
        <ele>28.0155</ele>
        <time>2013-05-26T14:49:46Z</time>
      </trkpt>
      <trkpt lat="59.9745872" lon="17.7368175">
        <ele>28.0155</ele>
        <time>2013-05-26T14:49:47Z</time>
      </trkpt>
      <trkpt lat="59.9746106" lon="17.7368913">
        <ele>28.0155</ele>
        <time>2013-05-26T14:49:48Z</time>
      </trkpt>
      <trkpt lat="59.9746364" lon="17.7369636">
        <ele>28.0155</ele>
        <time>2013-05-26T14:49:49Z</time>
      </trkpt>
      <trkpt lat="59.9746634" lon="17.7370347">
        <ele>28.0155</ele>
        <time>2013-05-26T14:49:50Z</time>
      </trkpt>
      <trkpt lat="59.9746904" lon="17.7371066">
        <ele>28.0155</ele>
        <time>2013-05-26T14:49:51Z</time>
      </trkpt>
      <trkpt lat="59.9747174" lon="17.7371797">
        <ele>28.4962</ele>
        <time>2013-05-26T14:49:52Z</time>
      </trkpt>
      <trkpt lat="59.9747431" lon="17.7372479">
        <ele>27.5349</ele>
        <time>2013-05-26T14:49:53Z</time>
      </trkpt>
      <trkpt lat="59.9747687" lon="17.7373096">
        <ele>25.6123</ele>
        <time>2013-05-26T14:49:54Z</time>
      </trkpt>
      <trkpt lat="59.9747992" lon="17.7373744">
        <ele>25.6123</ele>
        <time>2013-05-26T14:49:55Z</time>
      </trkpt>
      <trkpt lat="59.9748302" lon="17.737437">
        <ele>25.6123</ele>
        <time>2013-05-26T14:49:56Z</time>
      </trkpt>
      <trkpt lat="59.9748608" lon="17.7374998">
        <ele>25.6123</ele>
        <time>2013-05-26T14:49:57Z</time>
      </trkpt>
      <trkpt lat="59.9748909" lon="17.7375624">
        <ele>26.0929</ele>
        <time>2013-05-26T14:49:58Z</time>
      </trkpt>
      <trkpt lat="59.9749199" lon="17.7376173">
        <ele>24.1703</ele>
        <time>2013-05-26T14:49:59Z</time>
      </trkpt>
      <trkpt lat="59.9749518" lon="17.7376752">
        <ele>23.6896</ele>
        <time>2013-05-26T14:50:00Z</time>
      </trkpt>
      <trkpt lat="59.9749847" lon="17.737734">
        <ele>23.6896</ele>
        <time>2013-05-26T14:50:01Z</time>
      </trkpt>
      <trkpt lat="59.9750177" lon="17.7377942">
        <ele>23.6896</ele>
        <time>2013-05-26T14:50:02Z</time>
      </trkpt>
      <trkpt lat="59.9750505" lon="17.7378562">
        <ele>23.6896</ele>
        <time>2013-05-26T14:50:03Z</time>
      </trkpt>
      <trkpt lat="59.975085" lon="17.7379178">
        <ele>23.6896</ele>
        <time>2013-05-26T14:50:04Z</time>
      </trkpt>
      <trkpt lat="59.9751212" lon="17.7379783">
        <ele>23.6896</ele>
        <time>2013-05-26T14:50:05Z</time>
      </trkpt>
      <trkpt lat="59.9751585" lon="17.7380399">
        <ele>24.1703</ele>
        <time>2013-05-26T14:50:06Z</time>
      </trkpt>
      <trkpt lat="59.9751969" lon="17.7381033">
        <ele>24.1703</ele>
        <time>2013-05-26T14:50:07Z</time>
      </trkpt>
      <trkpt lat="59.9752364" lon="17.7381684">
        <ele>24.1703</ele>
        <time>2013-05-26T14:50:08Z</time>
      </trkpt>
      <trkpt lat="59.9752758" lon="17.7382359">
        <ele>24.1703</ele>
        <time>2013-05-26T14:50:09Z</time>
      </trkpt>
      <trkpt lat="59.9753155" lon="17.7383052">
        <ele>24.1703</ele>
        <time>2013-05-26T14:50:10Z</time>
      </trkpt>
      <trkpt lat="59.9753564" lon="17.7383733">
        <ele>24.1703</ele>
        <time>2013-05-26T14:50:11Z</time>
      </trkpt>
      <trkpt lat="59.9753975" lon="17.7384412">
        <ele>24.1703</ele>
        <time>2013-05-26T14:50:12Z</time>
      </trkpt>
      <trkpt lat="59.975438" lon="17.738511">
        <ele>24.1703</ele>
        <time>2013-05-26T14:50:13Z</time>
      </trkpt>
      <trkpt lat="59.9754771" lon="17.738584">
        <ele>24.1703</ele>
        <time>2013-05-26T14:50:14Z</time>
      </trkpt>
      <trkpt lat="59.9755161" lon="17.7386581">
        <ele>24.1703</ele>
        <time>2013-05-26T14:50:15Z</time>
      </trkpt>
      <trkpt lat="59.9755565" lon="17.7387305">
        <ele>24.651</ele>
        <time>2013-05-26T14:50:16Z</time>
      </trkpt>
      <trkpt lat="59.9755979" lon="17.7388002">
        <ele>25.6123</ele>
        <time>2013-05-26T14:50:17Z</time>
      </trkpt>
      <trkpt lat="59.9756394" lon="17.738869">
        <ele>26.5736</ele>
        <time>2013-05-26T14:50:18Z</time>
      </trkpt>
      <trkpt lat="59.9756797" lon="17.7389384">
        <ele>27.0543</ele>
        <time>2013-05-26T14:50:19Z</time>
      </trkpt>
      <trkpt lat="59.9757192" lon="17.7390082">
        <ele>27.0543</ele>
        <time>2013-05-26T14:50:20Z</time>
      </trkpt>
      <trkpt lat="59.9757579" lon="17.7390793">
        <ele>27.5349</ele>
        <time>2013-05-26T14:50:21Z</time>
      </trkpt>
      <trkpt lat="59.9757953" lon="17.7391496">
        <ele>27.5349</ele>
        <time>2013-05-26T14:50:22Z</time>
      </trkpt>
      <trkpt lat="59.9758325" lon="17.739219">
        <ele>28.0155</ele>
        <time>2013-05-26T14:50:23Z</time>
      </trkpt>
      <trkpt lat="59.97587" lon="17.7392868">
        <ele>28.0155</ele>
        <time>2013-05-26T14:50:24Z</time>
      </trkpt>
      <trkpt lat="59.9759091" lon="17.7393512">
        <ele>28.0155</ele>
        <time>2013-05-26T14:50:25Z</time>
      </trkpt>
      <trkpt lat="59.9759472" lon="17.7394134">
        <ele>27.5349</ele>
        <time>2013-05-26T14:50:26Z</time>
      </trkpt>
      <trkpt lat="59.9759846" lon="17.7394766">
        <ele>27.0543</ele>
        <time>2013-05-26T14:50:27Z</time>
      </trkpt>
      <trkpt lat="59.9760236" lon="17.7395382">
        <ele>27.0543</ele>
        <time>2013-05-26T14:50:28Z</time>
      </trkpt>
      <trkpt lat="59.9760626" lon="17.7395969">
        <ele>27.5349</ele>
        <time>2013-05-26T14:50:29Z</time>
      </trkpt>
      <trkpt lat="59.9761019" lon="17.7396484">
        <ele>28.0155</ele>
        <time>2013-05-26T14:50:30Z</time>
      </trkpt>
      <trkpt lat="59.9761426" lon="17.7396908">
        <ele>28.4962</ele>
        <time>2013-05-26T14:50:31Z</time>
      </trkpt>
      <trkpt lat="59.9761837" lon="17.7397264">
        <ele>28.4962</ele>
        <time>2013-05-26T14:50:32Z</time>
      </trkpt>
      <trkpt lat="59.9762248" lon="17.739754">
        <ele>28.9769</ele>
        <time>2013-05-26T14:50:33Z</time>
      </trkpt>
      <trkpt lat="59.9762661" lon="17.7397703">
        <ele>29.4575</ele>
        <time>2013-05-26T14:50:34Z</time>
      </trkpt>
      <trkpt lat="59.9763103" lon="17.7397644">
        <ele>29.4575</ele>
        <time>2013-05-26T14:50:35Z</time>
      </trkpt>
      <trkpt lat="59.9763559" lon="17.7397427">
        <ele>29.4575</ele>
        <time>2013-05-26T14:50:36Z</time>
      </trkpt>
      <trkpt lat="59.9763985" lon="17.7397077">
        <ele>29.4575</ele>
        <time>2013-05-26T14:50:37Z</time>
      </trkpt>
      <trkpt lat="59.9764397" lon="17.7396682">
        <ele>29.4575</ele>
        <time>2013-05-26T14:50:38Z</time>
      </trkpt>
      <trkpt lat="59.9764822" lon="17.7396294">
        <ele>29.4575</ele>
        <time>2013-05-26T14:50:39Z</time>
      </trkpt>
      <trkpt lat="59.9765251" lon="17.7395904">
        <ele>29.4575</ele>
        <time>2013-05-26T14:50:40Z</time>
      </trkpt>
      <trkpt lat="59.9765672" lon="17.7395512">
        <ele>29.4575</ele>
        <time>2013-05-26T14:50:41Z</time>
      </trkpt>
      <trkpt lat="59.9766055" lon="17.739502">
        <ele>28.9769</ele>
        <time>2013-05-26T14:50:42Z</time>
      </trkpt>
      <trkpt lat="59.976643" lon="17.739464">
        <ele>28.4962</ele>
        <time>2013-05-26T14:50:43Z</time>
      </trkpt>
      <trkpt lat="59.9766807" lon="17.7394378">
        <ele>28.4962</ele>
        <time>2013-05-26T14:50:44Z</time>
      </trkpt>
      <trkpt lat="59.9767174" lon="17.739414">
        <ele>28.4962</ele>
        <time>2013-05-26T14:50:45Z</time>
      </trkpt>
      <trkpt lat="59.9767528" lon="17.7393976">
        <ele>28.4962</ele>
        <time>2013-05-26T14:50:46Z</time>
      </trkpt>
      <trkpt lat="59.9767859" lon="17.7393827">
        <ele>28.4962</ele>
        <time>2013-05-26T14:50:47Z</time>
      </trkpt>
      <trkpt lat="59.9768169" lon="17.7393627">
        <ele>28.0155</ele>
        <time>2013-05-26T14:50:48Z</time>
      </trkpt>
      <trkpt lat="59.9768475" lon="17.7393469">
        <ele>28.0155</ele>
        <time>2013-05-26T14:50:49Z</time>
      </trkpt>
      <trkpt lat="59.9768769" lon="17.7393341">
        <ele>27.5349</ele>
        <time>2013-05-26T14:50:50Z</time>
      </trkpt>
      <trkpt lat="59.9769081" lon="17.73932">
        <ele>27.5349</ele>
        <time>2013-05-26T14:50:51Z</time>
      </trkpt>
      <trkpt lat="59.9769406" lon="17.7393004">
        <ele>27.0543</ele>
        <time>2013-05-26T14:50:52Z</time>
      </trkpt>
      <trkpt lat="59.9769723" lon="17.7392823">
        <ele>27.0543</ele>
        <time>2013-05-26T14:50:53Z</time>
      </trkpt>
      <trkpt lat="59.9770064" lon="17.7392601">
        <ele>26.0929</ele>
        <time>2013-05-26T14:50:54Z</time>
      </trkpt>
      <trkpt lat="59.9770436" lon="17.7392401">
        <ele>25.1317</ele>
        <time>2013-05-26T14:50:55Z</time>
      </trkpt>
      <trkpt lat="59.9770816" lon="17.7392166">
        <ele>24.651</ele>
        <time>2013-05-26T14:50:56Z</time>
      </trkpt>
      <trkpt lat="59.9771219" lon="17.7391921">
        <ele>24.1703</ele>
        <time>2013-05-26T14:50:57Z</time>
      </trkpt>
      <trkpt lat="59.9771635" lon="17.7391713">
        <ele>24.1703</ele>
        <time>2013-05-26T14:50:58Z</time>
      </trkpt>
      <trkpt lat="59.9772032" lon="17.7391517">
        <ele>23.6896</ele>
        <time>2013-05-26T14:50:59Z</time>
      </trkpt>
      <trkpt lat="59.9772453" lon="17.7391336">
        <ele>23.6896</ele>
        <time>2013-05-26T14:51:00Z</time>
      </trkpt>
      <trkpt lat="59.9772862" lon="17.7391145">
        <ele>23.6896</ele>
        <time>2013-05-26T14:51:01Z</time>
      </trkpt>
      <trkpt lat="59.9773283" lon="17.739102">
        <ele>24.1703</ele>
        <time>2013-05-26T14:51:02Z</time>
      </trkpt>
      <trkpt lat="59.9773694" lon="17.7390885">
        <ele>24.1703</ele>
        <time>2013-05-26T14:51:03Z</time>
      </trkpt>
      <trkpt lat="59.9774098" lon="17.7390751">
        <ele>25.1317</ele>
        <time>2013-05-26T14:51:04Z</time>
      </trkpt>
      <trkpt lat="59.9774497" lon="17.739064">
        <ele>25.1317</ele>
        <time>2013-05-26T14:51:05Z</time>
      </trkpt>
      <trkpt lat="59.9774891" lon="17.7390554">
        <ele>25.6123</ele>
        <time>2013-05-26T14:51:06Z</time>
      </trkpt>
      <trkpt lat="59.9775301" lon="17.7390491">
        <ele>25.6123</ele>
        <time>2013-05-26T14:51:07Z</time>
      </trkpt>
      <trkpt lat="59.9775732" lon="17.7390469">
        <ele>25.6123</ele>
        <time>2013-05-26T14:51:08Z</time>
      </trkpt>
      <trkpt lat="59.9776157" lon="17.7390508">
        <ele>26.0929</ele>
        <time>2013-05-26T14:51:09Z</time>
      </trkpt>
      <trkpt lat="59.9776591" lon="17.73906">
        <ele>26.0929</ele>
        <time>2013-05-26T14:51:10Z</time>
      </trkpt>
      <trkpt lat="59.9777043" lon="17.7390687">
        <ele>27.5349</ele>
        <time>2013-05-26T14:51:11Z</time>
      </trkpt>
      <trkpt lat="59.9777489" lon="17.7390816">
        <ele>28.0155</ele>
        <time>2013-05-26T14:51:12Z</time>
      </trkpt>
      <trkpt lat="59.9777935" lon="17.7390972">
        <ele>28.4962</ele>
        <time>2013-05-26T14:51:13Z</time>
      </trkpt>
      <trkpt lat="59.9778363" lon="17.7391182">
        <ele>28.9769</ele>
        <time>2013-05-26T14:51:14Z</time>
      </trkpt>
      <trkpt lat="59.9778781" lon="17.7391429">
        <ele>28.9769</ele>
        <time>2013-05-26T14:51:15Z</time>
      </trkpt>
      <trkpt lat="59.9779196" lon="17.7391668">
        <ele>30.4188</ele>
        <time>2013-05-26T14:51:16Z</time>
      </trkpt>
      <trkpt lat="59.9779592" lon="17.7391911">
        <ele>30.4188</ele>
        <time>2013-05-26T14:51:17Z</time>
      </trkpt>
      <trkpt lat="59.9780001" lon="17.739217">
        <ele>30.8995</ele>
        <time>2013-05-26T14:51:18Z</time>
      </trkpt>
      <trkpt lat="59.9780425" lon="17.7392347">
        <ele>31.8607</ele>
        <time>2013-05-26T14:51:19Z</time>
      </trkpt>
      <trkpt lat="59.9780855" lon="17.7392538">
        <ele>32.8223</ele>
        <time>2013-05-26T14:51:20Z</time>
      </trkpt>
      <trkpt lat="59.9781285" lon="17.7392688">
        <ele>33.3029</ele>
        <time>2013-05-26T14:51:21Z</time>
      </trkpt>
      <trkpt lat="59.9781732" lon="17.7392798">
        <ele>33.3029</ele>
        <time>2013-05-26T14:51:22Z</time>
      </trkpt>
      <trkpt lat="59.9782228" lon="17.7392865">
        <ele>33.3029</ele>
        <time>2013-05-26T14:51:23Z</time>
      </trkpt>
      <trkpt lat="59.9782745" lon="17.7392958">
        <ele>33.7834</ele>
        <time>2013-05-26T14:51:24Z</time>
      </trkpt>
      <trkpt lat="59.9783265" lon="17.7393118">
        <ele>33.7834</ele>
        <time>2013-05-26T14:51:25Z</time>
      </trkpt>
      <trkpt lat="59.9783806" lon="17.73933">
        <ele>33.7834</ele>
        <time>2013-05-26T14:51:26Z</time>
      </trkpt>
      <trkpt lat="59.9784357" lon="17.7393453">
        <ele>33.3029</ele>
        <time>2013-05-26T14:51:27Z</time>
      </trkpt>
      <trkpt lat="59.9784904" lon="17.7393522">
        <ele>32.8223</ele>
        <time>2013-05-26T14:51:28Z</time>
      </trkpt>
      <trkpt lat="59.9785438" lon="17.7393547">
        <ele>32.8223</ele>
        <time>2013-05-26T14:51:29Z</time>
      </trkpt>
      <trkpt lat="59.9785986" lon="17.7393622">
        <ele>32.3416</ele>
        <time>2013-05-26T14:51:30Z</time>
      </trkpt>
    </trkseg>
  </trk>
</gpx>